<?xml version="1.0" encoding="UTF-8"?>
<gpx version="1.1" creator="https://www.youtrack.es" xsi:schemaLocation="http://www.topografix.com/GPX/1/1 http://www.topografix.com/GPX/1/1/gpx.xsd http://www.garmin.com/xmlschemas/GpxExtensions/v3 http://www.garmin.com/xmlschemas/GpxExtensionsv3.xsd http://www.garmin.com/xmlschemas/TrackPointExtension/v1 http://www.garmin.com/xmlschemas/TrackPointExtensionv1.xsd" xmlns:gpxtpx="http://www.garmin.com/xmlschemas/TrackPointExtension/v1" xmlns:gpxx="http://www.garmin.com/xmlschemas/GpxExtensions/v3" xmlns:xsi="http://www.w3.org/2001/XMLSchema-instance">
  <metadata>
    <link href="https://www.youtrack.es">
      <text>YouTrack.es</text>
    </link>
    <time>2026-05-10T15:49:27Z</time>
  </metadata>
  <trk>
    <src>https://www.youtrack.es</src>
    <link href="https://www.youtrack.es/ruta/1316-trail-sierra-nevada-2018">
      <text>YouTrack.es</text>
    </link>
    <trkseg>
      <trkpt lat="37.218661" lon="-3.481117">
        <ele>1086.09997558594</ele>
        <time>2018-07-14T03:00:47.009Z</time>
      </trkpt>
      <trkpt lat="37.21865" lon="-3.481008">
        <ele>1087</ele>
        <time>2018-07-14T03:01:03.009Z</time>
      </trkpt>
      <trkpt lat="37.218648" lon="-3.48089">
        <ele>1086.73099864322</ele>
        <time>2018-07-14T03:01:11.009Z</time>
      </trkpt>
      <trkpt lat="37.218666" lon="-3.480768">
        <ele>1085.26900135678</ele>
        <time>2018-07-14T03:01:17.009Z</time>
      </trkpt>
      <trkpt lat="37.218702" lon="-3.480664">
        <ele>1085</ele>
        <time>2018-07-14T03:01:23.009Z</time>
      </trkpt>
      <trkpt lat="37.218724" lon="-3.480552">
        <ele>1085</ele>
        <time>2018-07-14T03:01:28.009Z</time>
      </trkpt>
      <trkpt lat="37.218747" lon="-3.480426">
        <ele>1084</ele>
        <time>2018-07-14T03:01:35.009Z</time>
      </trkpt>
      <trkpt lat="37.218838" lon="-3.480404">
        <ele>1084</ele>
        <time>2018-07-14T03:01:41.009Z</time>
      </trkpt>
      <trkpt lat="37.21892" lon="-3.480414">
        <ele>1085</ele>
        <time>2018-07-14T03:01:46.009Z</time>
      </trkpt>
      <trkpt lat="37.219021" lon="-3.480414">
        <ele>1085</ele>
        <time>2018-07-14T03:01:51.009Z</time>
      </trkpt>
      <trkpt lat="37.219126" lon="-3.480388">
        <ele>1085</ele>
        <time>2018-07-14T03:01:57.009Z</time>
      </trkpt>
      <trkpt lat="37.219226" lon="-3.480352">
        <ele>1085</ele>
        <time>2018-07-14T03:02:02.009Z</time>
      </trkpt>
      <trkpt lat="37.21931" lon="-3.480303">
        <ele>1085</ele>
        <time>2018-07-14T03:02:06.009Z</time>
      </trkpt>
      <trkpt lat="37.219389" lon="-3.480219">
        <ele>1084</ele>
        <time>2018-07-14T03:02:10.009Z</time>
      </trkpt>
      <trkpt lat="37.219457" lon="-3.480119">
        <ele>1083</ele>
        <time>2018-07-14T03:02:14.009Z</time>
      </trkpt>
      <trkpt lat="37.219494" lon="-3.480032">
        <ele>1083</ele>
        <time>2018-07-14T03:02:17.009Z</time>
      </trkpt>
      <trkpt lat="37.219512" lon="-3.479916">
        <ele>1083</ele>
        <time>2018-07-14T03:02:21.009Z</time>
      </trkpt>
      <trkpt lat="37.219508" lon="-3.479807">
        <ele>1082.73838953248</ele>
        <time>2018-07-14T03:02:25.009Z</time>
      </trkpt>
      <trkpt lat="37.219493" lon="-3.479718">
        <ele>1082</ele>
        <time>2018-07-14T03:02:28.009Z</time>
      </trkpt>
      <trkpt lat="37.219483" lon="-3.479572">
        <ele>1082</ele>
        <time>2018-07-14T03:02:33.009Z</time>
      </trkpt>
      <trkpt lat="37.219488" lon="-3.479436">
        <ele>1081</ele>
        <time>2018-07-14T03:02:38.009Z</time>
      </trkpt>
      <trkpt lat="37.219543" lon="-3.479329">
        <ele>1080</ele>
        <time>2018-07-14T03:02:42.009Z</time>
      </trkpt>
      <trkpt lat="37.219611" lon="-3.479222">
        <ele>1080</ele>
        <time>2018-07-14T03:02:46.009Z</time>
      </trkpt>
      <trkpt lat="37.219679" lon="-3.479143">
        <ele>1080</ele>
        <time>2018-07-14T03:02:49.009Z</time>
      </trkpt>
      <trkpt lat="37.219751" lon="-3.479066">
        <ele>1081</ele>
        <time>2018-07-14T03:02:52.009Z</time>
      </trkpt>
      <trkpt lat="37.219822" lon="-3.479017">
        <ele>1081</ele>
        <time>2018-07-14T03:02:55.009Z</time>
      </trkpt>
      <trkpt lat="37.219917" lon="-3.478966">
        <ele>1082</ele>
        <time>2018-07-14T03:02:59.009Z</time>
      </trkpt>
      <trkpt lat="37.219986" lon="-3.478902">
        <ele>1082</ele>
        <time>2018-07-14T03:03:03.009Z</time>
      </trkpt>
      <trkpt lat="37.220056" lon="-3.478826">
        <ele>1082</ele>
        <time>2018-07-14T03:03:07.009Z</time>
      </trkpt>
      <trkpt lat="37.220113" lon="-3.478759">
        <ele>1081</ele>
        <time>2018-07-14T03:03:10.009Z</time>
      </trkpt>
      <trkpt lat="37.220152" lon="-3.478671">
        <ele>1080</ele>
        <time>2018-07-14T03:03:13.009Z</time>
      </trkpt>
      <trkpt lat="37.22017" lon="-3.478577">
        <ele>1080</ele>
        <time>2018-07-14T03:03:16.009Z</time>
      </trkpt>
      <trkpt lat="37.220184" lon="-3.478487">
        <ele>1080</ele>
        <time>2018-07-14T03:03:19.009Z</time>
      </trkpt>
      <trkpt lat="37.220193" lon="-3.478397">
        <ele>1080</ele>
        <time>2018-07-14T03:03:22.009Z</time>
      </trkpt>
      <trkpt lat="37.220218" lon="-3.478307">
        <ele>1080</ele>
        <time>2018-07-14T03:03:25.009Z</time>
      </trkpt>
      <trkpt lat="37.220274" lon="-3.478206">
        <ele>1080</ele>
        <time>2018-07-14T03:03:29.009Z</time>
      </trkpt>
      <trkpt lat="37.220344" lon="-3.4781">
        <ele>1080</ele>
        <time>2018-07-14T03:03:33.009Z</time>
      </trkpt>
      <trkpt lat="37.220414" lon="-3.478015">
        <ele>1081</ele>
        <time>2018-07-14T03:03:36.009Z</time>
      </trkpt>
      <trkpt lat="37.22049" lon="-3.477944">
        <ele>1081</ele>
        <time>2018-07-14T03:03:39.009Z</time>
      </trkpt>
      <trkpt lat="37.220576" lon="-3.477891">
        <ele>1081</ele>
        <time>2018-07-14T03:03:42.009Z</time>
      </trkpt>
      <trkpt lat="37.220656" lon="-3.477857">
        <ele>1082</ele>
        <time>2018-07-14T03:03:45.009Z</time>
      </trkpt>
      <trkpt lat="37.220742" lon="-3.477869">
        <ele>1081</ele>
        <time>2018-07-14T03:03:49.009Z</time>
      </trkpt>
      <trkpt lat="37.22081" lon="-3.47794">
        <ele>1082</ele>
        <time>2018-07-14T03:03:54.009Z</time>
      </trkpt>
      <trkpt lat="37.22087" lon="-3.478033">
        <ele>1082</ele>
        <time>2018-07-14T03:03:58.009Z</time>
      </trkpt>
      <trkpt lat="37.220922" lon="-3.478099">
        <ele>1082</ele>
        <time>2018-07-14T03:04:01.009Z</time>
      </trkpt>
      <trkpt lat="37.220967" lon="-3.478176">
        <ele>1082</ele>
        <time>2018-07-14T03:04:04.009Z</time>
      </trkpt>
      <trkpt lat="37.22101" lon="-3.478237">
        <ele>1082.26900135678</ele>
        <time>2018-07-14T03:04:07.009Z</time>
      </trkpt>
      <trkpt lat="37.221053" lon="-3.478312">
        <ele>1083</ele>
        <time>2018-07-14T03:04:10.009Z</time>
      </trkpt>
      <trkpt lat="37.221094" lon="-3.478383">
        <ele>1083</ele>
        <time>2018-07-14T03:04:13.009Z</time>
      </trkpt>
      <trkpt lat="37.221127" lon="-3.478472">
        <ele>1083</ele>
        <time>2018-07-14T03:04:16.009Z</time>
      </trkpt>
      <trkpt lat="37.221151" lon="-3.478542">
        <ele>1083</ele>
        <time>2018-07-14T03:04:18.009Z</time>
      </trkpt>
      <trkpt lat="37.221176" lon="-3.478616">
        <ele>1083</ele>
        <time>2018-07-14T03:04:20.009Z</time>
      </trkpt>
      <trkpt lat="37.221202" lon="-3.478686">
        <ele>1083</ele>
        <time>2018-07-14T03:04:22.009Z</time>
      </trkpt>
      <trkpt lat="37.221222" lon="-3.478761">
        <ele>1083</ele>
        <time>2018-07-14T03:04:24.009Z</time>
      </trkpt>
      <trkpt lat="37.221241" lon="-3.478836">
        <ele>1083</ele>
        <time>2018-07-14T03:04:26.009Z</time>
      </trkpt>
      <trkpt lat="37.22126" lon="-3.478909">
        <ele>1083</ele>
        <time>2018-07-14T03:04:28.009Z</time>
      </trkpt>
      <trkpt lat="37.221276" lon="-3.479012">
        <ele>1083</ele>
        <time>2018-07-14T03:04:31.009Z</time>
      </trkpt>
      <trkpt lat="37.221311" lon="-3.479105">
        <ele>1083.26899544314</ele>
        <time>2018-07-14T03:04:34.009Z</time>
      </trkpt>
      <trkpt lat="37.221385" lon="-3.479166">
        <ele>1084</ele>
        <time>2018-07-14T03:04:37.009Z</time>
      </trkpt>
      <trkpt lat="37.221458" lon="-3.479203">
        <ele>1084</ele>
        <time>2018-07-14T03:04:40.009Z</time>
      </trkpt>
      <trkpt lat="37.221515" lon="-3.479273">
        <ele>1083</ele>
        <time>2018-07-14T03:04:43.009Z</time>
      </trkpt>
      <trkpt lat="37.221569" lon="-3.479354">
        <ele>1083</ele>
        <time>2018-07-14T03:04:46.009Z</time>
      </trkpt>
      <trkpt lat="37.221616" lon="-3.479407">
        <ele>1083</ele>
        <time>2018-07-14T03:04:48.009Z</time>
      </trkpt>
      <trkpt lat="37.221679" lon="-3.479485">
        <ele>1083.73099864322</ele>
        <time>2018-07-14T03:04:51.009Z</time>
      </trkpt>
      <trkpt lat="37.221709" lon="-3.479546">
        <ele>1083</ele>
        <time>2018-07-14T03:04:53.009Z</time>
      </trkpt>
      <trkpt lat="37.221747" lon="-3.479626">
        <ele>1084</ele>
        <time>2018-07-14T03:04:56.009Z</time>
      </trkpt>
      <trkpt lat="37.221802" lon="-3.479697">
        <ele>1084</ele>
        <time>2018-07-14T03:04:59.009Z</time>
      </trkpt>
      <trkpt lat="37.221866" lon="-3.479731">
        <ele>1084</ele>
        <time>2018-07-14T03:05:02.009Z</time>
      </trkpt>
      <trkpt lat="37.221929" lon="-3.479763">
        <ele>1084</ele>
        <time>2018-07-14T03:05:05.009Z</time>
      </trkpt>
      <trkpt lat="37.22201" lon="-3.479774">
        <ele>1083.73100455686</ele>
        <time>2018-07-14T03:05:10.009Z</time>
      </trkpt>
      <trkpt lat="37.222056" lon="-3.479724">
        <ele>1083</ele>
        <time>2018-07-14T03:05:12.009Z</time>
      </trkpt>
      <trkpt lat="37.222121" lon="-3.479657">
        <ele>1081.73099864322</ele>
        <time>2018-07-14T03:05:15.009Z</time>
      </trkpt>
      <trkpt lat="37.222185" lon="-3.479579">
        <ele>1079</ele>
        <time>2018-07-14T03:05:18.009Z</time>
      </trkpt>
      <trkpt lat="37.222237" lon="-3.479494">
        <ele>1078</ele>
        <time>2018-07-14T03:05:21.009Z</time>
      </trkpt>
      <trkpt lat="37.222281" lon="-3.479401">
        <ele>1077</ele>
        <time>2018-07-14T03:05:24.009Z</time>
      </trkpt>
      <trkpt lat="37.222303" lon="-3.479302">
        <ele>1077</ele>
        <time>2018-07-14T03:05:27.009Z</time>
      </trkpt>
      <trkpt lat="37.222315" lon="-3.479228">
        <ele>1077</ele>
        <time>2018-07-14T03:05:29.009Z</time>
      </trkpt>
      <trkpt lat="37.22233" lon="-3.479156">
        <ele>1077</ele>
        <time>2018-07-14T03:05:31.009Z</time>
      </trkpt>
      <trkpt lat="37.22236" lon="-3.479063">
        <ele>1077</ele>
        <time>2018-07-14T03:05:34.009Z</time>
      </trkpt>
      <trkpt lat="37.222408" lon="-3.478999">
        <ele>1077</ele>
        <time>2018-07-14T03:05:37.009Z</time>
      </trkpt>
      <trkpt lat="37.222486" lon="-3.478951">
        <ele>1077</ele>
        <time>2018-07-14T03:05:41.009Z</time>
      </trkpt>
      <trkpt lat="37.222553" lon="-3.478917">
        <ele>1077</ele>
        <time>2018-07-14T03:05:44.009Z</time>
      </trkpt>
      <trkpt lat="37.222615" lon="-3.478879">
        <ele>1077</ele>
        <time>2018-07-14T03:05:47.009Z</time>
      </trkpt>
      <trkpt lat="37.222674" lon="-3.478833">
        <ele>1078</ele>
        <time>2018-07-14T03:05:50.009Z</time>
      </trkpt>
      <trkpt lat="37.222726" lon="-3.478785">
        <ele>1078</ele>
        <time>2018-07-14T03:05:53.009Z</time>
      </trkpt>
      <trkpt lat="37.222784" lon="-3.478715">
        <ele>1077</ele>
        <time>2018-07-14T03:05:57.009Z</time>
      </trkpt>
      <trkpt lat="37.222845" lon="-3.47865">
        <ele>1077.26900135678</ele>
        <time>2018-07-14T03:06:01.009Z</time>
      </trkpt>
      <trkpt lat="37.222908" lon="-3.478608">
        <ele>1077.73100455686</ele>
        <time>2018-07-14T03:06:04.009Z</time>
      </trkpt>
      <trkpt lat="37.222972" lon="-3.478558">
        <ele>1077</ele>
        <time>2018-07-14T03:06:06.009Z</time>
      </trkpt>
      <trkpt lat="37.223026" lon="-3.478519">
        <ele>1078</ele>
        <time>2018-07-14T03:06:08.009Z</time>
      </trkpt>
      <trkpt lat="37.223108" lon="-3.47847">
        <ele>1078</ele>
        <time>2018-07-14T03:06:11.009Z</time>
      </trkpt>
      <trkpt lat="37.22319" lon="-3.478469">
        <ele>1078</ele>
        <time>2018-07-14T03:06:14.009Z</time>
      </trkpt>
      <trkpt lat="37.223268" lon="-3.478482">
        <ele>1078</ele>
        <time>2018-07-14T03:06:17.009Z</time>
      </trkpt>
      <trkpt lat="37.223372" lon="-3.478487">
        <ele>1078.26900135678</ele>
        <time>2018-07-14T03:06:21.009Z</time>
      </trkpt>
      <trkpt lat="37.223458" lon="-3.478474">
        <ele>1079</ele>
        <time>2018-07-14T03:06:24.009Z</time>
      </trkpt>
      <trkpt lat="37.223522" lon="-3.478469">
        <ele>1080</ele>
        <time>2018-07-14T03:06:26.009Z</time>
      </trkpt>
      <trkpt lat="37.223611" lon="-3.478456">
        <ele>1080</ele>
        <time>2018-07-14T03:06:29.009Z</time>
      </trkpt>
      <trkpt lat="37.223672" lon="-3.478439">
        <ele>1080</ele>
        <time>2018-07-14T03:06:31.009Z</time>
      </trkpt>
      <trkpt lat="37.223758" lon="-3.478413">
        <ele>1080</ele>
        <time>2018-07-14T03:06:34.009Z</time>
      </trkpt>
      <trkpt lat="37.22381" lon="-3.478379">
        <ele>1080</ele>
        <time>2018-07-14T03:06:36.009Z</time>
      </trkpt>
      <trkpt lat="37.223882" lon="-3.478304">
        <ele>1080</ele>
        <time>2018-07-14T03:06:39.009Z</time>
      </trkpt>
      <trkpt lat="37.223952" lon="-3.478249">
        <ele>1080</ele>
        <time>2018-07-14T03:06:42.009Z</time>
      </trkpt>
      <trkpt lat="37.224026" lon="-3.478217">
        <ele>1079.73099864322</ele>
        <time>2018-07-14T03:06:45.009Z</time>
      </trkpt>
      <trkpt lat="37.224104" lon="-3.478186">
        <ele>1079.26899544314</ele>
        <time>2018-07-14T03:06:48.009Z</time>
      </trkpt>
      <trkpt lat="37.224156" lon="-3.478168">
        <ele>1080</ele>
        <time>2018-07-14T03:06:50.009Z</time>
      </trkpt>
      <trkpt lat="37.224211" lon="-3.478146">
        <ele>1080</ele>
        <time>2018-07-14T03:06:52.009Z</time>
      </trkpt>
      <trkpt lat="37.22426" lon="-3.478118">
        <ele>1080</ele>
        <time>2018-07-14T03:06:54.009Z</time>
      </trkpt>
      <trkpt lat="37.224332" lon="-3.478085">
        <ele>1080</ele>
        <time>2018-07-14T03:06:57.009Z</time>
      </trkpt>
      <trkpt lat="37.224412" lon="-3.478067">
        <ele>1080</ele>
        <time>2018-07-14T03:07:00.009Z</time>
      </trkpt>
      <trkpt lat="37.224494" lon="-3.478062">
        <ele>1080</ele>
        <time>2018-07-14T03:07:03.009Z</time>
      </trkpt>
      <trkpt lat="37.22455" lon="-3.47805">
        <ele>1080</ele>
        <time>2018-07-14T03:07:05.009Z</time>
      </trkpt>
      <trkpt lat="37.224624" lon="-3.478022">
        <ele>1080.26899544314</ele>
        <time>2018-07-14T03:07:08.009Z</time>
      </trkpt>
      <trkpt lat="37.224698" lon="-3.477996">
        <ele>1081</ele>
        <time>2018-07-14T03:07:11.009Z</time>
      </trkpt>
      <trkpt lat="37.224782" lon="-3.477962">
        <ele>1081</ele>
        <time>2018-07-14T03:07:14.009Z</time>
      </trkpt>
      <trkpt lat="37.224859" lon="-3.477944">
        <ele>1081.26900135678</ele>
        <time>2018-07-14T03:07:17.009Z</time>
      </trkpt>
      <trkpt lat="37.224937" lon="-3.477924">
        <ele>1081.73099864322</ele>
        <time>2018-07-14T03:07:21.009Z</time>
      </trkpt>
      <trkpt lat="37.225008" lon="-3.477884">
        <ele>1081</ele>
        <time>2018-07-14T03:07:24.009Z</time>
      </trkpt>
      <trkpt lat="37.225075" lon="-3.477828">
        <ele>1082</ele>
        <time>2018-07-14T03:07:27.009Z</time>
      </trkpt>
      <trkpt lat="37.225142" lon="-3.477768">
        <ele>1082</ele>
        <time>2018-07-14T03:07:30.009Z</time>
      </trkpt>
      <trkpt lat="37.225216" lon="-3.477704">
        <ele>1082</ele>
        <time>2018-07-14T03:07:33.009Z</time>
      </trkpt>
      <trkpt lat="37.225269" lon="-3.477675">
        <ele>1082</ele>
        <time>2018-07-14T03:07:35.009Z</time>
      </trkpt>
      <trkpt lat="37.225328" lon="-3.477648">
        <ele>1082</ele>
        <time>2018-07-14T03:07:37.009Z</time>
      </trkpt>
      <trkpt lat="37.225387" lon="-3.477632">
        <ele>1082</ele>
        <time>2018-07-14T03:07:39.009Z</time>
      </trkpt>
      <trkpt lat="37.225471" lon="-3.477614">
        <ele>1082</ele>
        <time>2018-07-14T03:07:42.009Z</time>
      </trkpt>
      <trkpt lat="37.225553" lon="-3.477598">
        <ele>1082</ele>
        <time>2018-07-14T03:07:45.009Z</time>
      </trkpt>
      <trkpt lat="37.225632" lon="-3.477562">
        <ele>1082</ele>
        <time>2018-07-14T03:07:48.009Z</time>
      </trkpt>
      <trkpt lat="37.225689" lon="-3.477512">
        <ele>1082.26900135678</ele>
        <time>2018-07-14T03:07:51.009Z</time>
      </trkpt>
      <trkpt lat="37.225744" lon="-3.477456">
        <ele>1083</ele>
        <time>2018-07-14T03:07:54.009Z</time>
      </trkpt>
      <trkpt lat="37.2258" lon="-3.477396">
        <ele>1083</ele>
        <time>2018-07-14T03:07:57.009Z</time>
      </trkpt>
      <trkpt lat="37.225843" lon="-3.477352">
        <ele>1083.26900135678</ele>
        <time>2018-07-14T03:07:59.009Z</time>
      </trkpt>
      <trkpt lat="37.22591" lon="-3.477292">
        <ele>1084</ele>
        <time>2018-07-14T03:08:02.009Z</time>
      </trkpt>
      <trkpt lat="37.225955" lon="-3.477248">
        <ele>1084</ele>
        <time>2018-07-14T03:08:04.009Z</time>
      </trkpt>
      <trkpt lat="37.225991" lon="-3.477196">
        <ele>1084</ele>
        <time>2018-07-14T03:08:06.009Z</time>
      </trkpt>
      <trkpt lat="37.22604" lon="-3.477118">
        <ele>1084</ele>
        <time>2018-07-14T03:08:09.009Z</time>
      </trkpt>
      <trkpt lat="37.226088" lon="-3.477036">
        <ele>1084</ele>
        <time>2018-07-14T03:08:12.009Z</time>
      </trkpt>
      <trkpt lat="37.22614" lon="-3.476957">
        <ele>1084</ele>
        <time>2018-07-14T03:08:15.009Z</time>
      </trkpt>
      <trkpt lat="37.226184" lon="-3.47686">
        <ele>1084</ele>
        <time>2018-07-14T03:08:18.009Z</time>
      </trkpt>
      <trkpt lat="37.22619" lon="-3.476788">
        <ele>1084</ele>
        <time>2018-07-14T03:08:20.009Z</time>
      </trkpt>
      <trkpt lat="37.226199" lon="-3.476722">
        <ele>1084</ele>
        <time>2018-07-14T03:08:22.009Z</time>
      </trkpt>
      <trkpt lat="37.226215" lon="-3.476653">
        <ele>1085</ele>
        <time>2018-07-14T03:08:24.009Z</time>
      </trkpt>
      <trkpt lat="37.22624" lon="-3.476588">
        <ele>1085</ele>
        <time>2018-07-14T03:08:26.009Z</time>
      </trkpt>
      <trkpt lat="37.226269" lon="-3.476505">
        <ele>1084</ele>
        <time>2018-07-14T03:08:29.009Z</time>
      </trkpt>
      <trkpt lat="37.226291" lon="-3.476448">
        <ele>1084</ele>
        <time>2018-07-14T03:08:31.009Z</time>
      </trkpt>
      <trkpt lat="37.226326" lon="-3.47637">
        <ele>1084</ele>
        <time>2018-07-14T03:08:34.009Z</time>
      </trkpt>
      <trkpt lat="37.226362" lon="-3.476288">
        <ele>1084.26900135678</ele>
        <time>2018-07-14T03:08:37.009Z</time>
      </trkpt>
      <trkpt lat="37.22641" lon="-3.476209">
        <ele>1085</ele>
        <time>2018-07-14T03:08:40.009Z</time>
      </trkpt>
      <trkpt lat="37.226464" lon="-3.476149">
        <ele>1085</ele>
        <time>2018-07-14T03:08:43.009Z</time>
      </trkpt>
      <trkpt lat="37.226531" lon="-3.476102">
        <ele>1085</ele>
        <time>2018-07-14T03:08:46.009Z</time>
      </trkpt>
      <trkpt lat="37.22662" lon="-3.476027">
        <ele>1086</ele>
        <time>2018-07-14T03:08:50.009Z</time>
      </trkpt>
      <trkpt lat="37.226721" lon="-3.475936">
        <ele>1086</ele>
        <time>2018-07-14T03:08:55.009Z</time>
      </trkpt>
      <trkpt lat="37.226791" lon="-3.475876">
        <ele>1086</ele>
        <time>2018-07-14T03:08:59.009Z</time>
      </trkpt>
      <trkpt lat="37.226854" lon="-3.475826">
        <ele>1086.26899544314</ele>
        <time>2018-07-14T03:09:02.009Z</time>
      </trkpt>
      <trkpt lat="37.226946" lon="-3.475798">
        <ele>1088</ele>
        <time>2018-07-14T03:09:06.009Z</time>
      </trkpt>
      <trkpt lat="37.227019" lon="-3.475812">
        <ele>1088</ele>
        <time>2018-07-14T03:09:09.009Z</time>
      </trkpt>
      <trkpt lat="37.227092" lon="-3.475842">
        <ele>1089</ele>
        <time>2018-07-14T03:09:12.009Z</time>
      </trkpt>
      <trkpt lat="37.227163" lon="-3.475868">
        <ele>1089</ele>
        <time>2018-07-14T03:09:15.009Z</time>
      </trkpt>
      <trkpt lat="37.227212" lon="-3.475886">
        <ele>1089</ele>
        <time>2018-07-14T03:09:17.009Z</time>
      </trkpt>
      <trkpt lat="37.227265" lon="-3.4759">
        <ele>1090</ele>
        <time>2018-07-14T03:09:19.009Z</time>
      </trkpt>
      <trkpt lat="37.227338" lon="-3.47591">
        <ele>1090.26899544314</ele>
        <time>2018-07-14T03:09:22.009Z</time>
      </trkpt>
      <trkpt lat="37.227389" lon="-3.4759">
        <ele>1091</ele>
        <time>2018-07-14T03:09:24.009Z</time>
      </trkpt>
      <trkpt lat="37.227457" lon="-3.475862">
        <ele>1091</ele>
        <time>2018-07-14T03:09:27.009Z</time>
      </trkpt>
      <trkpt lat="37.227505" lon="-3.475798">
        <ele>1091.26899544314</ele>
        <time>2018-07-14T03:09:30.009Z</time>
      </trkpt>
      <trkpt lat="37.227546" lon="-3.475718">
        <ele>1092</ele>
        <time>2018-07-14T03:09:33.009Z</time>
      </trkpt>
      <trkpt lat="37.227597" lon="-3.47564">
        <ele>1092.26899544314</ele>
        <time>2018-07-14T03:09:36.009Z</time>
      </trkpt>
      <trkpt lat="37.227655" lon="-3.47557">
        <ele>1093</ele>
        <time>2018-07-14T03:09:39.009Z</time>
      </trkpt>
      <trkpt lat="37.227724" lon="-3.475508">
        <ele>1093</ele>
        <time>2018-07-14T03:09:42.009Z</time>
      </trkpt>
      <trkpt lat="37.227795" lon="-3.475466">
        <ele>1093.26900135678</ele>
        <time>2018-07-14T03:09:45.009Z</time>
      </trkpt>
      <trkpt lat="37.227882" lon="-3.475446">
        <ele>1094</ele>
        <time>2018-07-14T03:09:49.009Z</time>
      </trkpt>
      <trkpt lat="37.227974" lon="-3.475436">
        <ele>1094</ele>
        <time>2018-07-14T03:09:53.009Z</time>
      </trkpt>
      <trkpt lat="37.22806" lon="-3.475436">
        <ele>1094</ele>
        <time>2018-07-14T03:09:57.009Z</time>
      </trkpt>
      <trkpt lat="37.228147" lon="-3.475438">
        <ele>1095</ele>
        <time>2018-07-14T03:10:01.009Z</time>
      </trkpt>
      <trkpt lat="37.228244" lon="-3.475398">
        <ele>1096</ele>
        <time>2018-07-14T03:10:06.009Z</time>
      </trkpt>
      <trkpt lat="37.228338" lon="-3.475332">
        <ele>1096</ele>
        <time>2018-07-14T03:10:12.009Z</time>
      </trkpt>
      <trkpt lat="37.228442" lon="-3.475261">
        <ele>1094</ele>
        <time>2018-07-14T03:10:17.009Z</time>
      </trkpt>
      <trkpt lat="37.228541" lon="-3.47519">
        <ele>1094</ele>
        <time>2018-07-14T03:10:20.009Z</time>
      </trkpt>
      <trkpt lat="37.228624" lon="-3.47514">
        <ele>1095</ele>
        <time>2018-07-14T03:10:23.009Z</time>
      </trkpt>
      <trkpt lat="37.228694" lon="-3.475078">
        <ele>1095</ele>
        <time>2018-07-14T03:10:26.009Z</time>
      </trkpt>
      <trkpt lat="37.228763" lon="-3.475033">
        <ele>1095.26900135678</ele>
        <time>2018-07-14T03:10:29.009Z</time>
      </trkpt>
      <trkpt lat="37.228827" lon="-3.475052">
        <ele>1097</ele>
        <time>2018-07-14T03:10:33.009Z</time>
      </trkpt>
      <trkpt lat="37.228868" lon="-3.475078">
        <ele>1097</ele>
        <time>2018-07-14T03:10:37.009Z</time>
      </trkpt>
      <trkpt lat="37.228916" lon="-3.475102">
        <ele>1098</ele>
        <time>2018-07-14T03:10:41.009Z</time>
      </trkpt>
      <trkpt lat="37.22897" lon="-3.475089">
        <ele>1099.26899544314</ele>
        <time>2018-07-14T03:10:46.009Z</time>
      </trkpt>
      <trkpt lat="37.228999" lon="-3.475053">
        <ele>1100</ele>
        <time>2018-07-14T03:10:49.009Z</time>
      </trkpt>
      <trkpt lat="37.229025" lon="-3.475009">
        <ele>1101</ele>
        <time>2018-07-14T03:10:52.009Z</time>
      </trkpt>
      <trkpt lat="37.229051" lon="-3.474962">
        <ele>1102</ele>
        <time>2018-07-14T03:10:55.009Z</time>
      </trkpt>
      <trkpt lat="37.229073" lon="-3.474913">
        <ele>1102.26899544314</ele>
        <time>2018-07-14T03:10:58.009Z</time>
      </trkpt>
      <trkpt lat="37.229096" lon="-3.47486">
        <ele>1103</ele>
        <time>2018-07-14T03:11:01.009Z</time>
      </trkpt>
      <trkpt lat="37.22912" lon="-3.474812">
        <ele>1103</ele>
        <time>2018-07-14T03:11:04.009Z</time>
      </trkpt>
      <trkpt lat="37.229138" lon="-3.474764">
        <ele>1104</ele>
        <time>2018-07-14T03:11:07.009Z</time>
      </trkpt>
      <trkpt lat="37.229154" lon="-3.474715">
        <ele>1104</ele>
        <time>2018-07-14T03:11:10.009Z</time>
      </trkpt>
      <trkpt lat="37.229179" lon="-3.474664">
        <ele>1105</ele>
        <time>2018-07-14T03:11:14.009Z</time>
      </trkpt>
      <trkpt lat="37.229206" lon="-3.47463">
        <ele>1106</ele>
        <time>2018-07-14T03:11:17.009Z</time>
      </trkpt>
      <trkpt lat="37.229243" lon="-3.474596">
        <ele>1106</ele>
        <time>2018-07-14T03:11:21.009Z</time>
      </trkpt>
      <trkpt lat="37.229286" lon="-3.474562">
        <ele>1107</ele>
        <time>2018-07-14T03:11:25.009Z</time>
      </trkpt>
      <trkpt lat="37.229329" lon="-3.474532">
        <ele>1107.26900135678</ele>
        <time>2018-07-14T03:11:29.009Z</time>
      </trkpt>
      <trkpt lat="37.229373" lon="-3.47449">
        <ele>1108</ele>
        <time>2018-07-14T03:11:33.009Z</time>
      </trkpt>
      <trkpt lat="37.229413" lon="-3.474456">
        <ele>1108</ele>
        <time>2018-07-14T03:11:36.009Z</time>
      </trkpt>
      <trkpt lat="37.229454" lon="-3.474414">
        <ele>1109</ele>
        <time>2018-07-14T03:11:39.009Z</time>
      </trkpt>
      <trkpt lat="37.229486" lon="-3.474372">
        <ele>1110</ele>
        <time>2018-07-14T03:11:42.009Z</time>
      </trkpt>
      <trkpt lat="37.229526" lon="-3.474338">
        <ele>1110</ele>
        <time>2018-07-14T03:11:45.009Z</time>
      </trkpt>
      <trkpt lat="37.229562" lon="-3.474308">
        <ele>1111</ele>
        <time>2018-07-14T03:11:48.009Z</time>
      </trkpt>
      <trkpt lat="37.229608" lon="-3.474272">
        <ele>1114</ele>
        <time>2018-07-14T03:11:52.009Z</time>
      </trkpt>
      <trkpt lat="37.229652" lon="-3.474236">
        <ele>1114</ele>
        <time>2018-07-14T03:11:56.009Z</time>
      </trkpt>
      <trkpt lat="37.229696" lon="-3.474221">
        <ele>1113</ele>
        <time>2018-07-14T03:12:00.009Z</time>
      </trkpt>
      <trkpt lat="37.229745" lon="-3.474212">
        <ele>1113</ele>
        <time>2018-07-14T03:12:04.009Z</time>
      </trkpt>
      <trkpt lat="37.2298" lon="-3.474211">
        <ele>1113</ele>
        <time>2018-07-14T03:12:20.009Z</time>
      </trkpt>
      <trkpt lat="37.229861" lon="-3.474204">
        <ele>1114</ele>
        <time>2018-07-14T03:12:34.009Z</time>
      </trkpt>
      <trkpt lat="37.229938" lon="-3.474191">
        <ele>1115</ele>
        <time>2018-07-14T03:12:53.009Z</time>
      </trkpt>
      <trkpt lat="37.230003" lon="-3.474174">
        <ele>1116</ele>
        <time>2018-07-14T03:13:01.009Z</time>
      </trkpt>
      <trkpt lat="37.230056" lon="-3.474175">
        <ele>1116</ele>
        <time>2018-07-14T03:13:06.009Z</time>
      </trkpt>
      <trkpt lat="37.230112" lon="-3.474165">
        <ele>1116.73099864322</ele>
        <time>2018-07-14T03:13:11.009Z</time>
      </trkpt>
      <trkpt lat="37.230157" lon="-3.474139">
        <ele>1117</ele>
        <time>2018-07-14T03:13:15.009Z</time>
      </trkpt>
      <trkpt lat="37.23021" lon="-3.474126">
        <ele>1117.26900135678</ele>
        <time>2018-07-14T03:13:19.009Z</time>
      </trkpt>
      <trkpt lat="37.230266" lon="-3.474121">
        <ele>1118</ele>
        <time>2018-07-14T03:13:23.009Z</time>
      </trkpt>
      <trkpt lat="37.230317" lon="-3.4741">
        <ele>1119</ele>
        <time>2018-07-14T03:13:27.009Z</time>
      </trkpt>
      <trkpt lat="37.230374" lon="-3.474105">
        <ele>1119</ele>
        <time>2018-07-14T03:13:30.009Z</time>
      </trkpt>
      <trkpt lat="37.230427" lon="-3.474094">
        <ele>1119</ele>
        <time>2018-07-14T03:13:33.009Z</time>
      </trkpt>
      <trkpt lat="37.230478" lon="-3.474097">
        <ele>1119</ele>
        <time>2018-07-14T03:13:37.009Z</time>
      </trkpt>
      <trkpt lat="37.230521" lon="-3.474066">
        <ele>1120.26900135678</ele>
        <time>2018-07-14T03:13:43.009Z</time>
      </trkpt>
      <trkpt lat="37.230579" lon="-3.474061">
        <ele>1121</ele>
        <time>2018-07-14T03:13:48.009Z</time>
      </trkpt>
      <trkpt lat="37.230637" lon="-3.474017">
        <ele>1121</ele>
        <time>2018-07-14T03:13:52.009Z</time>
      </trkpt>
      <trkpt lat="37.230693" lon="-3.473972">
        <ele>1121</ele>
        <time>2018-07-14T03:13:55.009Z</time>
      </trkpt>
      <trkpt lat="37.230745" lon="-3.473924">
        <ele>1121</ele>
        <time>2018-07-14T03:13:58.009Z</time>
      </trkpt>
      <trkpt lat="37.230806" lon="-3.473891">
        <ele>1121</ele>
        <time>2018-07-14T03:14:02.009Z</time>
      </trkpt>
      <trkpt lat="37.230852" lon="-3.47385">
        <ele>1120</ele>
        <time>2018-07-14T03:14:05.009Z</time>
      </trkpt>
      <trkpt lat="37.230893" lon="-3.473825">
        <ele>1119.73100455686</ele>
        <time>2018-07-14T03:14:08.009Z</time>
      </trkpt>
      <trkpt lat="37.230932" lon="-3.473805">
        <ele>1119.26900135678</ele>
        <time>2018-07-14T03:14:11.009Z</time>
      </trkpt>
      <trkpt lat="37.23097" lon="-3.473801">
        <ele>1120</ele>
        <time>2018-07-14T03:14:14.009Z</time>
      </trkpt>
      <trkpt lat="37.230999" lon="-3.47379">
        <ele>1120</ele>
        <time>2018-07-14T03:14:16.009Z</time>
      </trkpt>
      <trkpt lat="37.231063" lon="-3.473786">
        <ele>1120</ele>
        <time>2018-07-14T03:14:22.009Z</time>
      </trkpt>
      <trkpt lat="37.231106" lon="-3.473789">
        <ele>1120</ele>
        <time>2018-07-14T03:14:25.009Z</time>
      </trkpt>
      <trkpt lat="37.231173" lon="-3.473799">
        <ele>1120.26899544314</ele>
        <time>2018-07-14T03:14:30.009Z</time>
      </trkpt>
      <trkpt lat="37.231202" lon="-3.473794">
        <ele>1121</ele>
        <time>2018-07-14T03:14:32.009Z</time>
      </trkpt>
      <trkpt lat="37.23124" lon="-3.473782">
        <ele>1121</ele>
        <time>2018-07-14T03:14:35.009Z</time>
      </trkpt>
      <trkpt lat="37.231279" lon="-3.473775">
        <ele>1121</ele>
        <time>2018-07-14T03:14:37.009Z</time>
      </trkpt>
      <trkpt lat="37.23133" lon="-3.47379">
        <ele>1121.26899544314</ele>
        <time>2018-07-14T03:14:40.009Z</time>
      </trkpt>
      <trkpt lat="37.231385" lon="-3.473815">
        <ele>1122</ele>
        <time>2018-07-14T03:14:44.009Z</time>
      </trkpt>
      <trkpt lat="37.231425" lon="-3.473861">
        <ele>1123</ele>
        <time>2018-07-14T03:14:48.009Z</time>
      </trkpt>
      <trkpt lat="37.231458" lon="-3.473908">
        <ele>1122</ele>
        <time>2018-07-14T03:14:52.009Z</time>
      </trkpt>
      <trkpt lat="37.231506" lon="-3.473972">
        <ele>1122</ele>
        <time>2018-07-14T03:14:58.009Z</time>
      </trkpt>
      <trkpt lat="37.231549" lon="-3.474">
        <ele>1123</ele>
        <time>2018-07-14T03:15:02.009Z</time>
      </trkpt>
      <trkpt lat="37.231579" lon="-3.474026">
        <ele>1123.26899544314</ele>
        <time>2018-07-14T03:15:08.009Z</time>
      </trkpt>
      <trkpt lat="37.231638" lon="-3.474053">
        <ele>1125</ele>
        <time>2018-07-14T03:15:14.009Z</time>
      </trkpt>
      <trkpt lat="37.23169" lon="-3.473994">
        <ele>1126</ele>
        <time>2018-07-14T03:15:21.009Z</time>
      </trkpt>
      <trkpt lat="37.23171" lon="-3.473914">
        <ele>1126</ele>
        <time>2018-07-14T03:15:30.009Z</time>
      </trkpt>
      <trkpt lat="37.231726" lon="-3.473838">
        <ele>1127</ele>
        <time>2018-07-14T03:15:39.009Z</time>
      </trkpt>
      <trkpt lat="37.231771" lon="-3.473775">
        <ele>1128</ele>
        <time>2018-07-14T03:15:49.009Z</time>
      </trkpt>
      <trkpt lat="37.231822" lon="-3.473691">
        <ele>1128</ele>
        <time>2018-07-14T03:15:58.009Z</time>
      </trkpt>
      <trkpt lat="37.231829" lon="-3.473631">
        <ele>1129</ele>
        <time>2018-07-14T03:16:11.009Z</time>
      </trkpt>
      <trkpt lat="37.231865" lon="-3.473605">
        <ele>1129</ele>
        <time>2018-07-14T03:16:15.009Z</time>
      </trkpt>
      <trkpt lat="37.231885" lon="-3.473557">
        <ele>1129</ele>
        <time>2018-07-14T03:16:20.009Z</time>
      </trkpt>
      <trkpt lat="37.231976" lon="-3.473625">
        <ele>1128</ele>
        <time>2018-07-14T03:16:31.009Z</time>
      </trkpt>
      <trkpt lat="37.232069" lon="-3.47358">
        <ele>1128</ele>
        <time>2018-07-14T03:16:46.009Z</time>
      </trkpt>
      <trkpt lat="37.232036" lon="-3.473462">
        <ele>1128</ele>
        <time>2018-07-14T03:17:00.009Z</time>
      </trkpt>
      <trkpt lat="37.232038" lon="-3.473399">
        <ele>1143.26900135678</ele>
        <time>2018-07-14T03:17:21.009Z</time>
      </trkpt>
      <trkpt lat="37.232008" lon="-3.473371">
        <ele>1148</ele>
        <time>2018-07-14T03:17:25.009Z</time>
      </trkpt>
      <trkpt lat="37.232026" lon="-3.473306">
        <ele>1149</ele>
        <time>2018-07-14T03:17:29.009Z</time>
      </trkpt>
      <trkpt lat="37.232062" lon="-3.473249">
        <ele>1149</ele>
        <time>2018-07-14T03:17:32.009Z</time>
      </trkpt>
      <trkpt lat="37.23209" lon="-3.4732">
        <ele>1151.26899544314</ele>
        <time>2018-07-14T03:17:36.009Z</time>
      </trkpt>
      <trkpt lat="37.232116" lon="-3.473158">
        <ele>1152</ele>
        <time>2018-07-14T03:17:40.009Z</time>
      </trkpt>
      <trkpt lat="37.232148" lon="-3.473113">
        <ele>1152</ele>
        <time>2018-07-14T03:17:44.009Z</time>
      </trkpt>
      <trkpt lat="37.232168" lon="-3.47306">
        <ele>1152</ele>
        <time>2018-07-14T03:17:47.009Z</time>
      </trkpt>
      <trkpt lat="37.232188" lon="-3.473006">
        <ele>1151.73100455686</ele>
        <time>2018-07-14T03:17:50.009Z</time>
      </trkpt>
      <trkpt lat="37.232216" lon="-3.472936">
        <ele>1151</ele>
        <time>2018-07-14T03:17:53.009Z</time>
      </trkpt>
      <trkpt lat="37.232256" lon="-3.472867">
        <ele>1151</ele>
        <time>2018-07-14T03:17:56.009Z</time>
      </trkpt>
      <trkpt lat="37.232269" lon="-3.472784">
        <ele>1151</ele>
        <time>2018-07-14T03:17:59.009Z</time>
      </trkpt>
      <trkpt lat="37.232265" lon="-3.472698">
        <ele>1152</ele>
        <time>2018-07-14T03:18:02.009Z</time>
      </trkpt>
      <trkpt lat="37.232283" lon="-3.472596">
        <ele>1152</ele>
        <time>2018-07-14T03:18:06.009Z</time>
      </trkpt>
      <trkpt lat="37.232309" lon="-3.472502">
        <ele>1152</ele>
        <time>2018-07-14T03:18:11.009Z</time>
      </trkpt>
      <trkpt lat="37.23236" lon="-3.472438">
        <ele>1153</ele>
        <time>2018-07-14T03:18:16.009Z</time>
      </trkpt>
      <trkpt lat="37.232384" lon="-3.472348">
        <ele>1152.26899544314</ele>
        <time>2018-07-14T03:18:22.009Z</time>
      </trkpt>
      <trkpt lat="37.232365" lon="-3.472278">
        <ele>1150</ele>
        <time>2018-07-14T03:18:26.009Z</time>
      </trkpt>
      <trkpt lat="37.232377" lon="-3.472196">
        <ele>1149</ele>
        <time>2018-07-14T03:18:30.009Z</time>
      </trkpt>
      <trkpt lat="37.232368" lon="-3.472126">
        <ele>1149</ele>
        <time>2018-07-14T03:18:34.009Z</time>
      </trkpt>
      <trkpt lat="37.232344" lon="-3.472054">
        <ele>1150</ele>
        <time>2018-07-14T03:18:39.009Z</time>
      </trkpt>
      <trkpt lat="37.232314" lon="-3.47201">
        <ele>1150</ele>
        <time>2018-07-14T03:18:44.009Z</time>
      </trkpt>
      <trkpt lat="37.232296" lon="-3.471909">
        <ele>1152</ele>
        <time>2018-07-14T03:18:53.009Z</time>
      </trkpt>
      <trkpt lat="37.232297" lon="-3.471854">
        <ele>1154</ele>
        <time>2018-07-14T03:18:59.009Z</time>
      </trkpt>
      <trkpt lat="37.232303" lon="-3.471807">
        <ele>1154</ele>
        <time>2018-07-14T03:19:02.009Z</time>
      </trkpt>
      <trkpt lat="37.232311" lon="-3.471766">
        <ele>1153.73099864322</ele>
        <time>2018-07-14T03:19:05.009Z</time>
      </trkpt>
      <trkpt lat="37.232318" lon="-3.471707">
        <ele>1153</ele>
        <time>2018-07-14T03:19:08.009Z</time>
      </trkpt>
      <trkpt lat="37.232329" lon="-3.471666">
        <ele>1153</ele>
        <time>2018-07-14T03:19:10.009Z</time>
      </trkpt>
      <trkpt lat="37.232353" lon="-3.471605">
        <ele>1153</ele>
        <time>2018-07-14T03:19:13.009Z</time>
      </trkpt>
      <trkpt lat="37.232379" lon="-3.471567">
        <ele>1153</ele>
        <time>2018-07-14T03:19:15.009Z</time>
      </trkpt>
      <trkpt lat="37.2324" lon="-3.471526">
        <ele>1153</ele>
        <time>2018-07-14T03:19:17.009Z</time>
      </trkpt>
      <trkpt lat="37.23244" lon="-3.471425">
        <ele>1153.73099864322</ele>
        <time>2018-07-14T03:19:21.009Z</time>
      </trkpt>
      <trkpt lat="37.232486" lon="-3.471333">
        <ele>1153</ele>
        <time>2018-07-14T03:19:25.009Z</time>
      </trkpt>
      <trkpt lat="37.232558" lon="-3.471236">
        <ele>1153</ele>
        <time>2018-07-14T03:19:30.009Z</time>
      </trkpt>
      <trkpt lat="37.232616" lon="-3.471134">
        <ele>1153</ele>
        <time>2018-07-14T03:19:35.009Z</time>
      </trkpt>
      <trkpt lat="37.232679" lon="-3.471019">
        <ele>1153</ele>
        <time>2018-07-14T03:19:41.009Z</time>
      </trkpt>
      <trkpt lat="37.232756" lon="-3.470926">
        <ele>1154</ele>
        <time>2018-07-14T03:19:48.009Z</time>
      </trkpt>
      <trkpt lat="37.232836" lon="-3.470843">
        <ele>1156</ele>
        <time>2018-07-14T03:20:00.009Z</time>
      </trkpt>
      <trkpt lat="37.232936" lon="-3.470846">
        <ele>1158.26161046752</ele>
        <time>2018-07-14T03:20:13.009Z</time>
      </trkpt>
      <trkpt lat="37.232968" lon="-3.470811">
        <ele>1159</ele>
        <time>2018-07-14T03:20:20.009Z</time>
      </trkpt>
      <trkpt lat="37.232977" lon="-3.470764">
        <ele>1158</ele>
        <time>2018-07-14T03:20:24.009Z</time>
      </trkpt>
      <trkpt lat="37.232965" lon="-3.470692">
        <ele>1158</ele>
        <time>2018-07-14T03:20:27.009Z</time>
      </trkpt>
      <trkpt lat="37.232974" lon="-3.470624">
        <ele>1158</ele>
        <time>2018-07-14T03:20:29.009Z</time>
      </trkpt>
      <trkpt lat="37.233004" lon="-3.470559">
        <ele>1158</ele>
        <time>2018-07-14T03:20:31.009Z</time>
      </trkpt>
      <trkpt lat="37.23306" lon="-3.470478">
        <ele>1158</ele>
        <time>2018-07-14T03:20:34.009Z</time>
      </trkpt>
      <trkpt lat="37.233103" lon="-3.470422">
        <ele>1158</ele>
        <time>2018-07-14T03:20:36.009Z</time>
      </trkpt>
      <trkpt lat="37.233137" lon="-3.47036">
        <ele>1158</ele>
        <time>2018-07-14T03:20:38.009Z</time>
      </trkpt>
      <trkpt lat="37.233154" lon="-3.470286">
        <ele>1158</ele>
        <time>2018-07-14T03:20:40.009Z</time>
      </trkpt>
      <trkpt lat="37.233167" lon="-3.470214">
        <ele>1158</ele>
        <time>2018-07-14T03:20:42.009Z</time>
      </trkpt>
      <trkpt lat="37.23317" lon="-3.470133">
        <ele>1158</ele>
        <time>2018-07-14T03:20:44.009Z</time>
      </trkpt>
      <trkpt lat="37.233173" lon="-3.470054">
        <ele>1158</ele>
        <time>2018-07-14T03:20:46.009Z</time>
      </trkpt>
      <trkpt lat="37.233178" lon="-3.469972">
        <ele>1158</ele>
        <time>2018-07-14T03:20:48.009Z</time>
      </trkpt>
      <trkpt lat="37.233178" lon="-3.469895">
        <ele>1159</ele>
        <time>2018-07-14T03:20:50.009Z</time>
      </trkpt>
      <trkpt lat="37.233173" lon="-3.469814">
        <ele>1159</ele>
        <time>2018-07-14T03:20:52.009Z</time>
      </trkpt>
      <trkpt lat="37.233166" lon="-3.469711">
        <ele>1159</ele>
        <time>2018-07-14T03:20:55.009Z</time>
      </trkpt>
      <trkpt lat="37.233173" lon="-3.469617">
        <ele>1159</ele>
        <time>2018-07-14T03:20:58.009Z</time>
      </trkpt>
      <trkpt lat="37.233215" lon="-3.469528">
        <ele>1160</ele>
        <time>2018-07-14T03:21:36.009Z</time>
      </trkpt>
      <trkpt lat="37.233201" lon="-3.469407">
        <ele>1160.26161384999</ele>
        <time>2018-07-14T03:21:42.009Z</time>
      </trkpt>
      <trkpt lat="37.233212" lon="-3.469283">
        <ele>1162</ele>
        <time>2018-07-14T03:21:47.009Z</time>
      </trkpt>
      <trkpt lat="37.233214" lon="-3.469158">
        <ele>1162</ele>
        <time>2018-07-14T03:21:51.009Z</time>
      </trkpt>
      <trkpt lat="37.233209" lon="-3.469051">
        <ele>1162</ele>
        <time>2018-07-14T03:21:55.009Z</time>
      </trkpt>
      <trkpt lat="37.233177" lon="-3.468938">
        <ele>1162</ele>
        <time>2018-07-14T03:21:59.009Z</time>
      </trkpt>
      <trkpt lat="37.233128" lon="-3.468816">
        <ele>1161</ele>
        <time>2018-07-14T03:22:04.009Z</time>
      </trkpt>
      <trkpt lat="37.233094" lon="-3.468709">
        <ele>1162.26632955669</ele>
        <time>2018-07-14T03:22:08.009Z</time>
      </trkpt>
      <trkpt lat="37.23307" lon="-3.468597">
        <ele>1162.73100455686</ele>
        <time>2018-07-14T03:22:12.009Z</time>
      </trkpt>
      <trkpt lat="37.233032" lon="-3.468519">
        <ele>1163</ele>
        <time>2018-07-14T03:22:16.009Z</time>
      </trkpt>
      <trkpt lat="37.232997" lon="-3.468415">
        <ele>1163</ele>
        <time>2018-07-14T03:22:20.009Z</time>
      </trkpt>
      <trkpt lat="37.232981" lon="-3.468285">
        <ele>1164</ele>
        <time>2018-07-14T03:22:25.009Z</time>
      </trkpt>
      <trkpt lat="37.232982" lon="-3.468185">
        <ele>1164</ele>
        <time>2018-07-14T03:22:28.009Z</time>
      </trkpt>
      <trkpt lat="37.23302" lon="-3.46809">
        <ele>1163</ele>
        <time>2018-07-14T03:22:33.009Z</time>
      </trkpt>
      <trkpt lat="37.233088" lon="-3.468031">
        <ele>1165</ele>
        <time>2018-07-14T03:22:39.009Z</time>
      </trkpt>
      <trkpt lat="37.233167" lon="-3.467984">
        <ele>1166</ele>
        <time>2018-07-14T03:22:44.009Z</time>
      </trkpt>
      <trkpt lat="37.233238" lon="-3.46791">
        <ele>1166</ele>
        <time>2018-07-14T03:22:48.009Z</time>
      </trkpt>
      <trkpt lat="37.233327" lon="-3.467812">
        <ele>1165.26899544314</ele>
        <time>2018-07-14T03:22:52.009Z</time>
      </trkpt>
      <trkpt lat="37.233392" lon="-3.467715">
        <ele>1167.26899544314</ele>
        <time>2018-07-14T03:22:56.009Z</time>
      </trkpt>
      <trkpt lat="37.23343" lon="-3.467579">
        <ele>1169</ele>
        <time>2018-07-14T03:23:01.009Z</time>
      </trkpt>
      <trkpt lat="37.233447" lon="-3.46746">
        <ele>1171</ele>
        <time>2018-07-14T03:23:05.009Z</time>
      </trkpt>
      <trkpt lat="37.233423" lon="-3.467362">
        <ele>1172</ele>
        <time>2018-07-14T03:23:09.009Z</time>
      </trkpt>
      <trkpt lat="37.233427" lon="-3.467276">
        <ele>1171</ele>
        <time>2018-07-14T03:23:15.009Z</time>
      </trkpt>
      <trkpt lat="37.233392" lon="-3.467191">
        <ele>1171.26372854131</ele>
        <time>2018-07-14T03:23:21.009Z</time>
      </trkpt>
      <trkpt lat="37.233326" lon="-3.46713">
        <ele>1171</ele>
        <time>2018-07-14T03:23:28.009Z</time>
      </trkpt>
      <trkpt lat="37.233258" lon="-3.467085">
        <ele>1173</ele>
        <time>2018-07-14T03:23:35.009Z</time>
      </trkpt>
      <trkpt lat="37.233198" lon="-3.467152">
        <ele>1171</ele>
        <time>2018-07-14T03:23:52.009Z</time>
      </trkpt>
      <trkpt lat="37.233167" lon="-3.467236">
        <ele>1172</ele>
        <time>2018-07-14T03:24:03.009Z</time>
      </trkpt>
      <trkpt lat="37.233107" lon="-3.467282">
        <ele>1173</ele>
        <time>2018-07-14T03:24:09.009Z</time>
      </trkpt>
      <trkpt lat="37.233052" lon="-3.467301">
        <ele>1175</ele>
        <time>2018-07-14T03:24:15.009Z</time>
      </trkpt>
      <trkpt lat="37.233007" lon="-3.467295">
        <ele>1176</ele>
        <time>2018-07-14T03:24:20.009Z</time>
      </trkpt>
      <trkpt lat="37.232962" lon="-3.467267">
        <ele>1177</ele>
        <time>2018-07-14T03:24:27.009Z</time>
      </trkpt>
      <trkpt lat="37.232911" lon="-3.46722">
        <ele>1179</ele>
        <time>2018-07-14T03:24:42.009Z</time>
      </trkpt>
      <trkpt lat="37.232873" lon="-3.467179">
        <ele>1181.26900135678</ele>
        <time>2018-07-14T03:24:49.009Z</time>
      </trkpt>
      <trkpt lat="37.232846" lon="-3.467144">
        <ele>1183.26900135678</ele>
        <time>2018-07-14T03:24:55.009Z</time>
      </trkpt>
      <trkpt lat="37.232821" lon="-3.467111">
        <ele>1185</ele>
        <time>2018-07-14T03:24:59.009Z</time>
      </trkpt>
      <trkpt lat="37.23278" lon="-3.467076">
        <ele>1186</ele>
        <time>2018-07-14T03:25:06.009Z</time>
      </trkpt>
      <trkpt lat="37.23273" lon="-3.467049">
        <ele>1187</ele>
        <time>2018-07-14T03:25:12.009Z</time>
      </trkpt>
      <trkpt lat="37.232681" lon="-3.467032">
        <ele>1188.26899544314</ele>
        <time>2018-07-14T03:25:18.009Z</time>
      </trkpt>
      <trkpt lat="37.232627" lon="-3.467008">
        <ele>1190</ele>
        <time>2018-07-14T03:25:24.009Z</time>
      </trkpt>
      <trkpt lat="37.232573" lon="-3.466986">
        <ele>1191</ele>
        <time>2018-07-14T03:25:32.009Z</time>
      </trkpt>
      <trkpt lat="37.232539" lon="-3.466951">
        <ele>1192</ele>
        <time>2018-07-14T03:25:37.009Z</time>
      </trkpt>
      <trkpt lat="37.232502" lon="-3.466918">
        <ele>1192</ele>
        <time>2018-07-14T03:25:48.009Z</time>
      </trkpt>
      <trkpt lat="37.232463" lon="-3.466886">
        <ele>1194</ele>
        <time>2018-07-14T03:26:02.009Z</time>
      </trkpt>
      <trkpt lat="37.232432" lon="-3.46686">
        <ele>1196.26900135678</ele>
        <time>2018-07-14T03:26:09.009Z</time>
      </trkpt>
      <trkpt lat="37.232386" lon="-3.466826">
        <ele>1199</ele>
        <time>2018-07-14T03:26:18.009Z</time>
      </trkpt>
      <trkpt lat="37.232341" lon="-3.466817">
        <ele>1200.26161384999</ele>
        <time>2018-07-14T03:26:22.009Z</time>
      </trkpt>
      <trkpt lat="37.232309" lon="-3.4668">
        <ele>1201.26900135678</ele>
        <time>2018-07-14T03:26:25.009Z</time>
      </trkpt>
      <trkpt lat="37.232273" lon="-3.466776">
        <ele>1202</ele>
        <time>2018-07-14T03:26:29.009Z</time>
      </trkpt>
      <trkpt lat="37.232234" lon="-3.46676">
        <ele>1203.26900135678</ele>
        <time>2018-07-14T03:26:33.009Z</time>
      </trkpt>
      <trkpt lat="37.232196" lon="-3.466741">
        <ele>1205</ele>
        <time>2018-07-14T03:26:38.009Z</time>
      </trkpt>
      <trkpt lat="37.23216" lon="-3.46672">
        <ele>1207</ele>
        <time>2018-07-14T03:26:43.009Z</time>
      </trkpt>
      <trkpt lat="37.232125" lon="-3.4667">
        <ele>1208</ele>
        <time>2018-07-14T03:26:49.009Z</time>
      </trkpt>
      <trkpt lat="37.232093" lon="-3.466676">
        <ele>1209</ele>
        <time>2018-07-14T03:27:03.009Z</time>
      </trkpt>
      <trkpt lat="37.232042" lon="-3.466646">
        <ele>1211</ele>
        <time>2018-07-14T03:27:15.009Z</time>
      </trkpt>
      <trkpt lat="37.231996" lon="-3.466646">
        <ele>1213</ele>
        <time>2018-07-14T03:27:24.009Z</time>
      </trkpt>
      <trkpt lat="37.231945" lon="-3.466634">
        <ele>1215</ele>
        <time>2018-07-14T03:27:35.009Z</time>
      </trkpt>
      <trkpt lat="37.2319" lon="-3.466612">
        <ele>1216.26900135678</ele>
        <time>2018-07-14T03:27:41.009Z</time>
      </trkpt>
      <trkpt lat="37.231857" lon="-3.466588">
        <ele>1218.26632955669</ele>
        <time>2018-07-14T03:27:46.009Z</time>
      </trkpt>
      <trkpt lat="37.231821" lon="-3.466572">
        <ele>1220</ele>
        <time>2018-07-14T03:27:51.009Z</time>
      </trkpt>
      <trkpt lat="37.231785" lon="-3.46655">
        <ele>1222</ele>
        <time>2018-07-14T03:27:56.009Z</time>
      </trkpt>
      <trkpt lat="37.231751" lon="-3.46653">
        <ele>1223.26899544314</ele>
        <time>2018-07-14T03:28:02.009Z</time>
      </trkpt>
      <trkpt lat="37.231722" lon="-3.466506">
        <ele>1224</ele>
        <time>2018-07-14T03:28:07.009Z</time>
      </trkpt>
      <trkpt lat="37.231695" lon="-3.466473">
        <ele>1225</ele>
        <time>2018-07-14T03:28:12.009Z</time>
      </trkpt>
      <trkpt lat="37.231666" lon="-3.466452">
        <ele>1226.26899544314</ele>
        <time>2018-07-14T03:28:16.009Z</time>
      </trkpt>
      <trkpt lat="37.231629" lon="-3.466437">
        <ele>1228</ele>
        <time>2018-07-14T03:28:20.009Z</time>
      </trkpt>
      <trkpt lat="37.231596" lon="-3.466411">
        <ele>1229</ele>
        <time>2018-07-14T03:28:27.009Z</time>
      </trkpt>
      <trkpt lat="37.231548" lon="-3.466374">
        <ele>1231</ele>
        <time>2018-07-14T03:28:34.009Z</time>
      </trkpt>
      <trkpt lat="37.231497" lon="-3.466339">
        <ele>1232</ele>
        <time>2018-07-14T03:28:40.009Z</time>
      </trkpt>
      <trkpt lat="37.231456" lon="-3.466311">
        <ele>1234</ele>
        <time>2018-07-14T03:28:48.009Z</time>
      </trkpt>
      <trkpt lat="37.23141" lon="-3.466285">
        <ele>1235</ele>
        <time>2018-07-14T03:28:53.009Z</time>
      </trkpt>
      <trkpt lat="37.231365" lon="-3.466262">
        <ele>1236.26900135678</ele>
        <time>2018-07-14T03:28:57.009Z</time>
      </trkpt>
      <trkpt lat="37.231329" lon="-3.466219">
        <ele>1237</ele>
        <time>2018-07-14T03:29:00.009Z</time>
      </trkpt>
      <trkpt lat="37.23128" lon="-3.466167">
        <ele>1237</ele>
        <time>2018-07-14T03:29:03.009Z</time>
      </trkpt>
      <trkpt lat="37.231234" lon="-3.466141">
        <ele>1236.73099864322</ele>
        <time>2018-07-14T03:29:05.009Z</time>
      </trkpt>
      <trkpt lat="37.231185" lon="-3.46612">
        <ele>1236</ele>
        <time>2018-07-14T03:29:07.009Z</time>
      </trkpt>
      <trkpt lat="37.231131" lon="-3.4661">
        <ele>1235.73099864322</ele>
        <time>2018-07-14T03:29:09.009Z</time>
      </trkpt>
      <trkpt lat="37.231073" lon="-3.466074">
        <ele>1235</ele>
        <time>2018-07-14T03:29:11.009Z</time>
      </trkpt>
      <trkpt lat="37.231016" lon="-3.466044">
        <ele>1234.73099864322</ele>
        <time>2018-07-14T03:29:13.009Z</time>
      </trkpt>
      <trkpt lat="37.230973" lon="-3.46601">
        <ele>1235</ele>
        <time>2018-07-14T03:29:15.009Z</time>
      </trkpt>
      <trkpt lat="37.230924" lon="-3.465957">
        <ele>1235</ele>
        <time>2018-07-14T03:29:18.009Z</time>
      </trkpt>
      <trkpt lat="37.230889" lon="-3.465908">
        <ele>1235</ele>
        <time>2018-07-14T03:29:21.009Z</time>
      </trkpt>
      <trkpt lat="37.230853" lon="-3.465841">
        <ele>1235</ele>
        <time>2018-07-14T03:29:25.009Z</time>
      </trkpt>
      <trkpt lat="37.230831" lon="-3.465754">
        <ele>1235</ele>
        <time>2018-07-14T03:29:28.009Z</time>
      </trkpt>
      <trkpt lat="37.230836" lon="-3.465677">
        <ele>1235</ele>
        <time>2018-07-14T03:29:31.009Z</time>
      </trkpt>
      <trkpt lat="37.230855" lon="-3.465614">
        <ele>1235</ele>
        <time>2018-07-14T03:29:35.009Z</time>
      </trkpt>
      <trkpt lat="37.230868" lon="-3.465564">
        <ele>1236</ele>
        <time>2018-07-14T03:29:38.009Z</time>
      </trkpt>
      <trkpt lat="37.230881" lon="-3.465498">
        <ele>1236</ele>
        <time>2018-07-14T03:29:42.009Z</time>
      </trkpt>
      <trkpt lat="37.230902" lon="-3.465447">
        <ele>1237</ele>
        <time>2018-07-14T03:29:46.009Z</time>
      </trkpt>
      <trkpt lat="37.230937" lon="-3.465325">
        <ele>1239</ele>
        <time>2018-07-14T03:29:56.009Z</time>
      </trkpt>
      <trkpt lat="37.230929" lon="-3.465229">
        <ele>1242</ele>
        <time>2018-07-14T03:30:05.009Z</time>
      </trkpt>
      <trkpt lat="37.230926" lon="-3.465149">
        <ele>1244</ele>
        <time>2018-07-14T03:30:13.009Z</time>
      </trkpt>
      <trkpt lat="37.230927" lon="-3.465041">
        <ele>1247</ele>
        <time>2018-07-14T03:30:26.009Z</time>
      </trkpt>
      <trkpt lat="37.230927" lon="-3.464945">
        <ele>1249</ele>
        <time>2018-07-14T03:30:37.009Z</time>
      </trkpt>
      <trkpt lat="37.230919" lon="-3.46485">
        <ele>1251</ele>
        <time>2018-07-14T03:30:47.009Z</time>
      </trkpt>
      <trkpt lat="37.230915" lon="-3.464799">
        <ele>1252</ele>
        <time>2018-07-14T03:30:53.009Z</time>
      </trkpt>
      <trkpt lat="37.230911" lon="-3.464742">
        <ele>1254</ele>
        <time>2018-07-14T03:31:02.009Z</time>
      </trkpt>
      <trkpt lat="37.23091" lon="-3.464695">
        <ele>1256</ele>
        <time>2018-07-14T03:31:06.009Z</time>
      </trkpt>
      <trkpt lat="37.230897" lon="-3.464661">
        <ele>1257</ele>
        <time>2018-07-14T03:31:10.009Z</time>
      </trkpt>
      <trkpt lat="37.230888" lon="-3.464622">
        <ele>1258</ele>
        <time>2018-07-14T03:31:15.009Z</time>
      </trkpt>
      <trkpt lat="37.230877" lon="-3.464588">
        <ele>1259</ele>
        <time>2018-07-14T03:31:19.009Z</time>
      </trkpt>
      <trkpt lat="37.230859" lon="-3.464554">
        <ele>1259</ele>
        <time>2018-07-14T03:31:24.009Z</time>
      </trkpt>
      <trkpt lat="37.230844" lon="-3.46451">
        <ele>1261</ele>
        <time>2018-07-14T03:31:30.009Z</time>
      </trkpt>
      <trkpt lat="37.230828" lon="-3.464465">
        <ele>1263</ele>
        <time>2018-07-14T03:31:37.009Z</time>
      </trkpt>
      <trkpt lat="37.230824" lon="-3.46442">
        <ele>1265</ele>
        <time>2018-07-14T03:31:42.009Z</time>
      </trkpt>
      <trkpt lat="37.23082" lon="-3.464374">
        <ele>1266.26900135678</ele>
        <time>2018-07-14T03:31:47.009Z</time>
      </trkpt>
      <trkpt lat="37.230814" lon="-3.464329">
        <ele>1268</ele>
        <time>2018-07-14T03:31:52.009Z</time>
      </trkpt>
      <trkpt lat="37.230804" lon="-3.464286">
        <ele>1269</ele>
        <time>2018-07-14T03:31:56.009Z</time>
      </trkpt>
      <trkpt lat="37.23079" lon="-3.464246">
        <ele>1270</ele>
        <time>2018-07-14T03:32:01.009Z</time>
      </trkpt>
      <trkpt lat="37.230778" lon="-3.4642">
        <ele>1271</ele>
        <time>2018-07-14T03:32:06.009Z</time>
      </trkpt>
      <trkpt lat="37.230761" lon="-3.464155">
        <ele>1272</ele>
        <time>2018-07-14T03:32:11.009Z</time>
      </trkpt>
      <trkpt lat="37.230746" lon="-3.464109">
        <ele>1273</ele>
        <time>2018-07-14T03:32:16.009Z</time>
      </trkpt>
      <trkpt lat="37.230731" lon="-3.464066">
        <ele>1274</ele>
        <time>2018-07-14T03:32:20.009Z</time>
      </trkpt>
      <trkpt lat="37.230716" lon="-3.464023">
        <ele>1275</ele>
        <time>2018-07-14T03:32:24.009Z</time>
      </trkpt>
      <trkpt lat="37.230703" lon="-3.463974">
        <ele>1276</ele>
        <time>2018-07-14T03:32:28.009Z</time>
      </trkpt>
      <trkpt lat="37.230689" lon="-3.463938">
        <ele>1276</ele>
        <time>2018-07-14T03:32:31.009Z</time>
      </trkpt>
      <trkpt lat="37.230665" lon="-3.463904">
        <ele>1276.73100455686</ele>
        <time>2018-07-14T03:32:34.009Z</time>
      </trkpt>
      <trkpt lat="37.230645" lon="-3.463866">
        <ele>1277</ele>
        <time>2018-07-14T03:32:42.009Z</time>
      </trkpt>
      <trkpt lat="37.230628" lon="-3.463819">
        <ele>1277.26899544314</ele>
        <time>2018-07-14T03:32:46.009Z</time>
      </trkpt>
      <trkpt lat="37.230619" lon="-3.463772">
        <ele>1279</ele>
        <time>2018-07-14T03:32:50.009Z</time>
      </trkpt>
      <trkpt lat="37.230605" lon="-3.463718">
        <ele>1280</ele>
        <time>2018-07-14T03:32:54.009Z</time>
      </trkpt>
      <trkpt lat="37.230586" lon="-3.46368">
        <ele>1281</ele>
        <time>2018-07-14T03:32:57.009Z</time>
      </trkpt>
      <trkpt lat="37.230565" lon="-3.463642">
        <ele>1282</ele>
        <time>2018-07-14T03:33:01.009Z</time>
      </trkpt>
      <trkpt lat="37.230544" lon="-3.463603">
        <ele>1282.26900135678</ele>
        <time>2018-07-14T03:33:05.009Z</time>
      </trkpt>
      <trkpt lat="37.23053" lon="-3.463558">
        <ele>1284</ele>
        <time>2018-07-14T03:33:09.009Z</time>
      </trkpt>
      <trkpt lat="37.230515" lon="-3.463512">
        <ele>1285.26900135678</ele>
        <time>2018-07-14T03:33:13.009Z</time>
      </trkpt>
      <trkpt lat="37.230504" lon="-3.463475">
        <ele>1287</ele>
        <time>2018-07-14T03:33:17.009Z</time>
      </trkpt>
      <trkpt lat="37.230491" lon="-3.463434">
        <ele>1288.26900135678</ele>
        <time>2018-07-14T03:33:21.009Z</time>
      </trkpt>
      <trkpt lat="37.230479" lon="-3.463379">
        <ele>1290</ele>
        <time>2018-07-14T03:33:25.009Z</time>
      </trkpt>
      <trkpt lat="37.230473" lon="-3.463326">
        <ele>1290</ele>
        <time>2018-07-14T03:33:29.009Z</time>
      </trkpt>
      <trkpt lat="37.230467" lon="-3.463276">
        <ele>1290</ele>
        <time>2018-07-14T03:33:32.009Z</time>
      </trkpt>
      <trkpt lat="37.230467" lon="-3.463226">
        <ele>1290</ele>
        <time>2018-07-14T03:33:35.009Z</time>
      </trkpt>
      <trkpt lat="37.230459" lon="-3.463178">
        <ele>1289</ele>
        <time>2018-07-14T03:33:38.009Z</time>
      </trkpt>
      <trkpt lat="37.230451" lon="-3.463136">
        <ele>1289.26900135678</ele>
        <time>2018-07-14T03:33:41.009Z</time>
      </trkpt>
      <trkpt lat="37.230449" lon="-3.463088">
        <ele>1290</ele>
        <time>2018-07-14T03:33:44.009Z</time>
      </trkpt>
      <trkpt lat="37.230444" lon="-3.463034">
        <ele>1290</ele>
        <time>2018-07-14T03:33:48.009Z</time>
      </trkpt>
      <trkpt lat="37.230441" lon="-3.462982">
        <ele>1291</ele>
        <time>2018-07-14T03:33:52.009Z</time>
      </trkpt>
      <trkpt lat="37.230444" lon="-3.462927">
        <ele>1292</ele>
        <time>2018-07-14T03:33:56.009Z</time>
      </trkpt>
      <trkpt lat="37.23045" lon="-3.462886">
        <ele>1292.26900135678</ele>
        <time>2018-07-14T03:33:59.009Z</time>
      </trkpt>
      <trkpt lat="37.230454" lon="-3.462833">
        <ele>1293</ele>
        <time>2018-07-14T03:34:03.009Z</time>
      </trkpt>
      <trkpt lat="37.230461" lon="-3.462773">
        <ele>1294</ele>
        <time>2018-07-14T03:34:22.009Z</time>
      </trkpt>
      <trkpt lat="37.23046" lon="-3.462715">
        <ele>1295</ele>
        <time>2018-07-14T03:34:44.009Z</time>
      </trkpt>
      <trkpt lat="37.230466" lon="-3.462645">
        <ele>1296</ele>
        <time>2018-07-14T03:35:19.009Z</time>
      </trkpt>
      <trkpt lat="37.230489" lon="-3.462601">
        <ele>1297</ele>
        <time>2018-07-14T03:35:40.009Z</time>
      </trkpt>
      <trkpt lat="37.230512" lon="-3.462533">
        <ele>1300</ele>
        <time>2018-07-14T03:35:53.009Z</time>
      </trkpt>
      <trkpt lat="37.230512" lon="-3.462473">
        <ele>1300.26900135678</ele>
        <time>2018-07-14T03:35:59.009Z</time>
      </trkpt>
      <trkpt lat="37.230519" lon="-3.462414">
        <ele>1303</ele>
        <time>2018-07-14T03:36:06.009Z</time>
      </trkpt>
      <trkpt lat="37.230526" lon="-3.462349">
        <ele>1307</ele>
        <time>2018-07-14T03:36:15.009Z</time>
      </trkpt>
      <trkpt lat="37.230524" lon="-3.462291">
        <ele>1309</ele>
        <time>2018-07-14T03:36:24.009Z</time>
      </trkpt>
      <trkpt lat="37.230533" lon="-3.462227">
        <ele>1311</ele>
        <time>2018-07-14T03:36:38.009Z</time>
      </trkpt>
      <trkpt lat="37.230552" lon="-3.462171">
        <ele>1313</ele>
        <time>2018-07-14T03:36:53.009Z</time>
      </trkpt>
      <trkpt lat="37.230567" lon="-3.462111">
        <ele>1315</ele>
        <time>2018-07-14T03:37:11.009Z</time>
      </trkpt>
      <trkpt lat="37.230597" lon="-3.462056">
        <ele>1319.25407834071</ele>
        <time>2018-07-14T03:37:25.009Z</time>
      </trkpt>
      <trkpt lat="37.230611" lon="-3.461995">
        <ele>1323</ele>
        <time>2018-07-14T03:37:36.009Z</time>
      </trkpt>
      <trkpt lat="37.230605" lon="-3.46194">
        <ele>1323.26899544314</ele>
        <time>2018-07-14T03:37:44.009Z</time>
      </trkpt>
      <trkpt lat="37.23059" lon="-3.461893">
        <ele>1326</ele>
        <time>2018-07-14T03:37:51.009Z</time>
      </trkpt>
      <trkpt lat="37.230592" lon="-3.461833">
        <ele>1329</ele>
        <time>2018-07-14T03:38:00.009Z</time>
      </trkpt>
      <trkpt lat="37.230593" lon="-3.461775">
        <ele>1331</ele>
        <time>2018-07-14T03:38:07.009Z</time>
      </trkpt>
      <trkpt lat="37.230589" lon="-3.461712">
        <ele>1332</ele>
        <time>2018-07-14T03:38:13.009Z</time>
      </trkpt>
      <trkpt lat="37.230579" lon="-3.46166">
        <ele>1333.26900135678</ele>
        <time>2018-07-14T03:38:19.009Z</time>
      </trkpt>
      <trkpt lat="37.23058" lon="-3.461597">
        <ele>1334.26899544314</ele>
        <time>2018-07-14T03:38:26.009Z</time>
      </trkpt>
      <trkpt lat="37.230585" lon="-3.461539">
        <ele>1336</ele>
        <time>2018-07-14T03:38:32.009Z</time>
      </trkpt>
      <trkpt lat="37.230622" lon="-3.461503">
        <ele>1339</ele>
        <time>2018-07-14T03:38:40.009Z</time>
      </trkpt>
      <trkpt lat="37.230648" lon="-3.461465">
        <ele>1340.26900135678</ele>
        <time>2018-07-14T03:38:47.009Z</time>
      </trkpt>
      <trkpt lat="37.230665" lon="-3.461414">
        <ele>1341</ele>
        <time>2018-07-14T03:38:52.009Z</time>
      </trkpt>
      <trkpt lat="37.230668" lon="-3.46135">
        <ele>1342.26900135678</ele>
        <time>2018-07-14T03:38:57.009Z</time>
      </trkpt>
      <trkpt lat="37.230667" lon="-3.46128">
        <ele>1343</ele>
        <time>2018-07-14T03:39:02.009Z</time>
      </trkpt>
      <trkpt lat="37.230656" lon="-3.461218">
        <ele>1343</ele>
        <time>2018-07-14T03:39:06.009Z</time>
      </trkpt>
      <trkpt lat="37.230629" lon="-3.461179">
        <ele>1343</ele>
        <time>2018-07-14T03:39:09.009Z</time>
      </trkpt>
      <trkpt lat="37.230603" lon="-3.461144">
        <ele>1344</ele>
        <time>2018-07-14T03:39:12.009Z</time>
      </trkpt>
      <trkpt lat="37.230583" lon="-3.461098">
        <ele>1344</ele>
        <time>2018-07-14T03:39:16.009Z</time>
      </trkpt>
      <trkpt lat="37.230569" lon="-3.46105">
        <ele>1345</ele>
        <time>2018-07-14T03:39:20.009Z</time>
      </trkpt>
      <trkpt lat="37.230561" lon="-3.461004">
        <ele>1345</ele>
        <time>2018-07-14T03:39:24.009Z</time>
      </trkpt>
      <trkpt lat="37.230574" lon="-3.460968">
        <ele>1345</ele>
        <time>2018-07-14T03:39:27.009Z</time>
      </trkpt>
      <trkpt lat="37.230574" lon="-3.460916">
        <ele>1345</ele>
        <time>2018-07-14T03:39:30.009Z</time>
      </trkpt>
      <trkpt lat="37.230574" lon="-3.460874">
        <ele>1345</ele>
        <time>2018-07-14T03:39:33.009Z</time>
      </trkpt>
      <trkpt lat="37.230568" lon="-3.460822">
        <ele>1346</ele>
        <time>2018-07-14T03:39:37.009Z</time>
      </trkpt>
      <trkpt lat="37.230559" lon="-3.460778">
        <ele>1347</ele>
        <time>2018-07-14T03:39:41.009Z</time>
      </trkpt>
      <trkpt lat="37.230552" lon="-3.460712">
        <ele>1347.26899544314</ele>
        <time>2018-07-14T03:39:48.009Z</time>
      </trkpt>
      <trkpt lat="37.230573" lon="-3.460656">
        <ele>1348</ele>
        <time>2018-07-14T03:39:53.009Z</time>
      </trkpt>
      <trkpt lat="37.230565" lon="-3.460594">
        <ele>1350</ele>
        <time>2018-07-14T03:40:00.009Z</time>
      </trkpt>
      <trkpt lat="37.230547" lon="-3.460538">
        <ele>1351</ele>
        <time>2018-07-14T03:40:08.009Z</time>
      </trkpt>
      <trkpt lat="37.230545" lon="-3.460472">
        <ele>1352</ele>
        <time>2018-07-14T03:40:15.009Z</time>
      </trkpt>
      <trkpt lat="37.230538" lon="-3.460416">
        <ele>1354</ele>
        <time>2018-07-14T03:40:24.009Z</time>
      </trkpt>
      <trkpt lat="37.230511" lon="-3.46039">
        <ele>1354.26899544314</ele>
        <time>2018-07-14T03:40:32.009Z</time>
      </trkpt>
      <trkpt lat="37.230479" lon="-3.46035">
        <ele>1356</ele>
        <time>2018-07-14T03:40:38.009Z</time>
      </trkpt>
      <trkpt lat="37.230478" lon="-3.460304">
        <ele>1356</ele>
        <time>2018-07-14T03:40:42.009Z</time>
      </trkpt>
      <trkpt lat="37.230473" lon="-3.46025">
        <ele>1357.26900135678</ele>
        <time>2018-07-14T03:40:47.009Z</time>
      </trkpt>
      <trkpt lat="37.230466" lon="-3.460196">
        <ele>1358</ele>
        <time>2018-07-14T03:40:55.009Z</time>
      </trkpt>
      <trkpt lat="37.230449" lon="-3.460138">
        <ele>1359</ele>
        <time>2018-07-14T03:41:00.009Z</time>
      </trkpt>
      <trkpt lat="37.230429" lon="-3.460094">
        <ele>1360</ele>
        <time>2018-07-14T03:41:05.009Z</time>
      </trkpt>
      <trkpt lat="37.230412" lon="-3.460052">
        <ele>1361.26899544314</ele>
        <time>2018-07-14T03:41:10.009Z</time>
      </trkpt>
      <trkpt lat="37.230399" lon="-3.460008">
        <ele>1363</ele>
        <time>2018-07-14T03:41:15.009Z</time>
      </trkpt>
      <trkpt lat="37.230407" lon="-3.45996">
        <ele>1363</ele>
        <time>2018-07-14T03:41:20.009Z</time>
      </trkpt>
      <trkpt lat="37.23038" lon="-3.459934">
        <ele>1363</ele>
        <time>2018-07-14T03:41:25.009Z</time>
      </trkpt>
      <trkpt lat="37.230351" lon="-3.459908">
        <ele>1365</ele>
        <time>2018-07-14T03:41:31.009Z</time>
      </trkpt>
      <trkpt lat="37.230348" lon="-3.459862">
        <ele>1366</ele>
        <time>2018-07-14T03:41:35.009Z</time>
      </trkpt>
      <trkpt lat="37.230345" lon="-3.459808">
        <ele>1368</ele>
        <time>2018-07-14T03:41:41.009Z</time>
      </trkpt>
      <trkpt lat="37.230333" lon="-3.459772">
        <ele>1369</ele>
        <time>2018-07-14T03:41:46.009Z</time>
      </trkpt>
      <trkpt lat="37.230311" lon="-3.459736">
        <ele>1371</ele>
        <time>2018-07-14T03:41:55.009Z</time>
      </trkpt>
      <trkpt lat="37.230303" lon="-3.459698">
        <ele>1371</ele>
        <time>2018-07-14T03:42:01.009Z</time>
      </trkpt>
      <trkpt lat="37.230285" lon="-3.459659">
        <ele>1372</ele>
        <time>2018-07-14T03:42:06.009Z</time>
      </trkpt>
      <trkpt lat="37.23027" lon="-3.459622">
        <ele>1374</ele>
        <time>2018-07-14T03:42:12.009Z</time>
      </trkpt>
      <trkpt lat="37.230266" lon="-3.459584">
        <ele>1375</ele>
        <time>2018-07-14T03:42:15.009Z</time>
      </trkpt>
      <trkpt lat="37.23025" lon="-3.459543">
        <ele>1375</ele>
        <time>2018-07-14T03:42:18.009Z</time>
      </trkpt>
      <trkpt lat="37.230239" lon="-3.459501">
        <ele>1376</ele>
        <time>2018-07-14T03:42:21.009Z</time>
      </trkpt>
      <trkpt lat="37.230225" lon="-3.459452">
        <ele>1376</ele>
        <time>2018-07-14T03:42:24.009Z</time>
      </trkpt>
      <trkpt lat="37.230211" lon="-3.4594">
        <ele>1377</ele>
        <time>2018-07-14T03:42:28.009Z</time>
      </trkpt>
      <trkpt lat="37.230189" lon="-3.459348">
        <ele>1378</ele>
        <time>2018-07-14T03:42:33.009Z</time>
      </trkpt>
      <trkpt lat="37.230169" lon="-3.459296">
        <ele>1379</ele>
        <time>2018-07-14T03:42:38.009Z</time>
      </trkpt>
      <trkpt lat="37.230166" lon="-3.459239">
        <ele>1379</ele>
        <time>2018-07-14T03:42:42.009Z</time>
      </trkpt>
      <trkpt lat="37.23018" lon="-3.459188">
        <ele>1380</ele>
        <time>2018-07-14T03:42:46.009Z</time>
      </trkpt>
      <trkpt lat="37.23021" lon="-3.459129">
        <ele>1381</ele>
        <time>2018-07-14T03:42:50.009Z</time>
      </trkpt>
      <trkpt lat="37.230254" lon="-3.459075">
        <ele>1381</ele>
        <time>2018-07-14T03:42:54.009Z</time>
      </trkpt>
      <trkpt lat="37.230291" lon="-3.45903">
        <ele>1381</ele>
        <time>2018-07-14T03:42:58.009Z</time>
      </trkpt>
      <trkpt lat="37.230332" lon="-3.458961">
        <ele>1382</ele>
        <time>2018-07-14T03:43:02.009Z</time>
      </trkpt>
      <trkpt lat="37.230353" lon="-3.458852">
        <ele>1382</ele>
        <time>2018-07-14T03:43:07.009Z</time>
      </trkpt>
      <trkpt lat="37.230381" lon="-3.458745">
        <ele>1382</ele>
        <time>2018-07-14T03:43:12.009Z</time>
      </trkpt>
      <trkpt lat="37.230407" lon="-3.458649">
        <ele>1383</ele>
        <time>2018-07-14T03:43:16.009Z</time>
      </trkpt>
      <trkpt lat="37.23043" lon="-3.458572">
        <ele>1383</ele>
        <time>2018-07-14T03:43:19.009Z</time>
      </trkpt>
      <trkpt lat="37.23044" lon="-3.458472">
        <ele>1383</ele>
        <time>2018-07-14T03:43:23.009Z</time>
      </trkpt>
      <trkpt lat="37.230461" lon="-3.458375">
        <ele>1384</ele>
        <time>2018-07-14T03:43:27.009Z</time>
      </trkpt>
      <trkpt lat="37.230479" lon="-3.458264">
        <ele>1384</ele>
        <time>2018-07-14T03:43:32.009Z</time>
      </trkpt>
      <trkpt lat="37.230516" lon="-3.458202">
        <ele>1384</ele>
        <time>2018-07-14T03:43:36.009Z</time>
      </trkpt>
      <trkpt lat="37.230563" lon="-3.458119">
        <ele>1384</ele>
        <time>2018-07-14T03:43:43.009Z</time>
      </trkpt>
      <trkpt lat="37.230614" lon="-3.458042">
        <ele>1384</ele>
        <time>2018-07-14T03:43:47.009Z</time>
      </trkpt>
      <trkpt lat="37.23066" lon="-3.457955">
        <ele>1384</ele>
        <time>2018-07-14T03:43:51.009Z</time>
      </trkpt>
      <trkpt lat="37.230693" lon="-3.45787">
        <ele>1384</ele>
        <time>2018-07-14T03:43:55.009Z</time>
      </trkpt>
      <trkpt lat="37.230758" lon="-3.457815">
        <ele>1383</ele>
        <time>2018-07-14T03:43:59.009Z</time>
      </trkpt>
      <trkpt lat="37.23081" lon="-3.45777">
        <ele>1383</ele>
        <time>2018-07-14T03:44:02.009Z</time>
      </trkpt>
      <trkpt lat="37.230856" lon="-3.457707">
        <ele>1383</ele>
        <time>2018-07-14T03:44:05.009Z</time>
      </trkpt>
      <trkpt lat="37.230888" lon="-3.457638">
        <ele>1383</ele>
        <time>2018-07-14T03:44:08.009Z</time>
      </trkpt>
      <trkpt lat="37.230918" lon="-3.45757">
        <ele>1382</ele>
        <time>2018-07-14T03:44:11.009Z</time>
      </trkpt>
      <trkpt lat="37.230964" lon="-3.457481">
        <ele>1382</ele>
        <time>2018-07-14T03:44:15.009Z</time>
      </trkpt>
      <trkpt lat="37.231" lon="-3.457413">
        <ele>1382</ele>
        <time>2018-07-14T03:44:18.009Z</time>
      </trkpt>
      <trkpt lat="37.231058" lon="-3.457304">
        <ele>1381</ele>
        <time>2018-07-14T03:44:23.009Z</time>
      </trkpt>
      <trkpt lat="37.231126" lon="-3.457207">
        <ele>1380</ele>
        <time>2018-07-14T03:44:28.009Z</time>
      </trkpt>
      <trkpt lat="37.231208" lon="-3.457115">
        <ele>1378.73099864322</ele>
        <time>2018-07-14T03:44:33.009Z</time>
      </trkpt>
      <trkpt lat="37.231298" lon="-3.45703">
        <ele>1378</ele>
        <time>2018-07-14T03:44:38.009Z</time>
      </trkpt>
      <trkpt lat="37.23136" lon="-3.456922">
        <ele>1377</ele>
        <time>2018-07-14T03:44:43.009Z</time>
      </trkpt>
      <trkpt lat="37.2314" lon="-3.456801">
        <ele>1376</ele>
        <time>2018-07-14T03:44:49.009Z</time>
      </trkpt>
      <trkpt lat="37.231432" lon="-3.456679">
        <ele>1375</ele>
        <time>2018-07-14T03:44:55.009Z</time>
      </trkpt>
      <trkpt lat="37.23147" lon="-3.456542">
        <ele>1373</ele>
        <time>2018-07-14T03:45:02.009Z</time>
      </trkpt>
      <trkpt lat="37.231488" lon="-3.456412">
        <ele>1373</ele>
        <time>2018-07-14T03:45:08.009Z</time>
      </trkpt>
      <trkpt lat="37.231544" lon="-3.456302">
        <ele>1372</ele>
        <time>2018-07-14T03:45:14.009Z</time>
      </trkpt>
      <trkpt lat="37.231554" lon="-3.456184">
        <ele>1370.73100455686</ele>
        <time>2018-07-14T03:45:20.009Z</time>
      </trkpt>
      <trkpt lat="37.231578" lon="-3.45606">
        <ele>1370</ele>
        <time>2018-07-14T03:45:27.009Z</time>
      </trkpt>
      <trkpt lat="37.231594" lon="-3.455926">
        <ele>1369.73100455686</ele>
        <time>2018-07-14T03:45:32.009Z</time>
      </trkpt>
      <trkpt lat="37.231634" lon="-3.455796">
        <ele>1369</ele>
        <time>2018-07-14T03:45:36.009Z</time>
      </trkpt>
      <trkpt lat="37.23168" lon="-3.455674">
        <ele>1369</ele>
        <time>2018-07-14T03:45:40.009Z</time>
      </trkpt>
      <trkpt lat="37.23171" lon="-3.455542">
        <ele>1369</ele>
        <time>2018-07-14T03:45:44.009Z</time>
      </trkpt>
      <trkpt lat="37.231707" lon="-3.455396">
        <ele>1369</ele>
        <time>2018-07-14T03:45:49.009Z</time>
      </trkpt>
      <trkpt lat="37.23167" lon="-3.455272">
        <ele>1369</ele>
        <time>2018-07-14T03:45:54.009Z</time>
      </trkpt>
      <trkpt lat="37.231626" lon="-3.455148">
        <ele>1369</ele>
        <time>2018-07-14T03:46:00.009Z</time>
      </trkpt>
      <trkpt lat="37.231597" lon="-3.455024">
        <ele>1369</ele>
        <time>2018-07-14T03:46:05.009Z</time>
      </trkpt>
      <trkpt lat="37.2316" lon="-3.454884">
        <ele>1368.73099864322</ele>
        <time>2018-07-14T03:46:11.009Z</time>
      </trkpt>
      <trkpt lat="37.231631" lon="-3.45477">
        <ele>1367</ele>
        <time>2018-07-14T03:46:17.009Z</time>
      </trkpt>
      <trkpt lat="37.231692" lon="-3.454674">
        <ele>1366</ele>
        <time>2018-07-14T03:46:23.009Z</time>
      </trkpt>
      <trkpt lat="37.231721" lon="-3.454533">
        <ele>1365</ele>
        <time>2018-07-14T03:46:28.009Z</time>
      </trkpt>
      <trkpt lat="37.231726" lon="-3.454388">
        <ele>1364</ele>
        <time>2018-07-14T03:46:33.009Z</time>
      </trkpt>
      <trkpt lat="37.231697" lon="-3.454271">
        <ele>1364</ele>
        <time>2018-07-14T03:46:37.009Z</time>
      </trkpt>
      <trkpt lat="37.231658" lon="-3.454148">
        <ele>1363</ele>
        <time>2018-07-14T03:46:42.009Z</time>
      </trkpt>
      <trkpt lat="37.231602" lon="-3.454019">
        <ele>1362</ele>
        <time>2018-07-14T03:46:47.009Z</time>
      </trkpt>
      <trkpt lat="37.231566" lon="-3.453883">
        <ele>1362</ele>
        <time>2018-07-14T03:46:52.009Z</time>
      </trkpt>
      <trkpt lat="37.231559" lon="-3.453756">
        <ele>1361</ele>
        <time>2018-07-14T03:46:57.009Z</time>
      </trkpt>
      <trkpt lat="37.231589" lon="-3.45363">
        <ele>1361</ele>
        <time>2018-07-14T03:47:02.009Z</time>
      </trkpt>
      <trkpt lat="37.231623" lon="-3.453497">
        <ele>1360</ele>
        <time>2018-07-14T03:47:07.009Z</time>
      </trkpt>
      <trkpt lat="37.231648" lon="-3.453362">
        <ele>1360</ele>
        <time>2018-07-14T03:47:12.009Z</time>
      </trkpt>
      <trkpt lat="37.231672" lon="-3.453223">
        <ele>1360</ele>
        <time>2018-07-14T03:47:17.009Z</time>
      </trkpt>
      <trkpt lat="37.231676" lon="-3.453086">
        <ele>1360</ele>
        <time>2018-07-14T03:47:22.009Z</time>
      </trkpt>
      <trkpt lat="37.231635" lon="-3.452965">
        <ele>1360</ele>
        <time>2018-07-14T03:47:27.009Z</time>
      </trkpt>
      <trkpt lat="37.231594" lon="-3.452835">
        <ele>1360</ele>
        <time>2018-07-14T03:47:32.009Z</time>
      </trkpt>
      <trkpt lat="37.231582" lon="-3.452681">
        <ele>1360</ele>
        <time>2018-07-14T03:47:37.009Z</time>
      </trkpt>
      <trkpt lat="37.231538" lon="-3.452565">
        <ele>1361</ele>
        <time>2018-07-14T03:47:42.009Z</time>
      </trkpt>
      <trkpt lat="37.231532" lon="-3.452441">
        <ele>1362</ele>
        <time>2018-07-14T03:47:49.009Z</time>
      </trkpt>
      <trkpt lat="37.231494" lon="-3.452315">
        <ele>1362</ele>
        <time>2018-07-14T03:47:56.009Z</time>
      </trkpt>
      <trkpt lat="37.231441" lon="-3.452195">
        <ele>1364</ele>
        <time>2018-07-14T03:48:04.009Z</time>
      </trkpt>
      <trkpt lat="37.2314" lon="-3.452059">
        <ele>1365.26899544314</ele>
        <time>2018-07-14T03:48:10.009Z</time>
      </trkpt>
      <trkpt lat="37.231326" lon="-3.451995">
        <ele>1366</ele>
        <time>2018-07-14T03:48:15.009Z</time>
      </trkpt>
      <trkpt lat="37.231276" lon="-3.451889">
        <ele>1366</ele>
        <time>2018-07-14T03:48:20.009Z</time>
      </trkpt>
      <trkpt lat="37.231184" lon="-3.451791">
        <ele>1366</ele>
        <time>2018-07-14T03:48:26.009Z</time>
      </trkpt>
      <trkpt lat="37.231114" lon="-3.451674">
        <ele>1365.73099864322</ele>
        <time>2018-07-14T03:48:31.009Z</time>
      </trkpt>
      <trkpt lat="37.231112" lon="-3.451533">
        <ele>1365</ele>
        <time>2018-07-14T03:48:36.009Z</time>
      </trkpt>
      <trkpt lat="37.231126" lon="-3.45138">
        <ele>1365</ele>
        <time>2018-07-14T03:48:41.009Z</time>
      </trkpt>
      <trkpt lat="37.231078" lon="-3.45125">
        <ele>1364</ele>
        <time>2018-07-14T03:48:46.009Z</time>
      </trkpt>
      <trkpt lat="37.230982" lon="-3.451202">
        <ele>1364</ele>
        <time>2018-07-14T03:48:50.009Z</time>
      </trkpt>
      <trkpt lat="37.230902" lon="-3.451188">
        <ele>1363.73099864322</ele>
        <time>2018-07-14T03:48:53.009Z</time>
      </trkpt>
      <trkpt lat="37.230812" lon="-3.451167">
        <ele>1363.26900135678</ele>
        <time>2018-07-14T03:48:57.009Z</time>
      </trkpt>
      <trkpt lat="37.230762" lon="-3.451047">
        <ele>1362.73100455686</ele>
        <time>2018-07-14T03:49:02.009Z</time>
      </trkpt>
      <trkpt lat="37.230783" lon="-3.450915">
        <ele>1361</ele>
        <time>2018-07-14T03:49:08.009Z</time>
      </trkpt>
      <trkpt lat="37.230726" lon="-3.450803">
        <ele>1360</ele>
        <time>2018-07-14T03:49:14.009Z</time>
      </trkpt>
      <trkpt lat="37.230639" lon="-3.450717">
        <ele>1359</ele>
        <time>2018-07-14T03:49:19.009Z</time>
      </trkpt>
      <trkpt lat="37.230541" lon="-3.450674">
        <ele>1358</ele>
        <time>2018-07-14T03:49:23.009Z</time>
      </trkpt>
      <trkpt lat="37.230455" lon="-3.450587">
        <ele>1357</ele>
        <time>2018-07-14T03:49:30.009Z</time>
      </trkpt>
      <trkpt lat="37.230395" lon="-3.450454">
        <ele>1358</ele>
        <time>2018-07-14T03:49:35.009Z</time>
      </trkpt>
      <trkpt lat="37.230478" lon="-3.450341">
        <ele>1358</ele>
        <time>2018-07-14T03:49:46.009Z</time>
      </trkpt>
      <trkpt lat="37.230563" lon="-3.45024">
        <ele>1358</ele>
        <time>2018-07-14T03:49:51.009Z</time>
      </trkpt>
      <trkpt lat="37.230623" lon="-3.450225">
        <ele>1358</ele>
        <time>2018-07-14T03:49:55.009Z</time>
      </trkpt>
      <trkpt lat="37.230676" lon="-3.450177">
        <ele>1359</ele>
        <time>2018-07-14T03:49:59.009Z</time>
      </trkpt>
      <trkpt lat="37.230741" lon="-3.450053">
        <ele>1360</ele>
        <time>2018-07-14T03:50:06.009Z</time>
      </trkpt>
      <trkpt lat="37.230761" lon="-3.449986">
        <ele>1360.26899544314</ele>
        <time>2018-07-14T03:50:10.009Z</time>
      </trkpt>
      <trkpt lat="37.230779" lon="-3.449934">
        <ele>1362</ele>
        <time>2018-07-14T03:50:15.009Z</time>
      </trkpt>
      <trkpt lat="37.230773" lon="-3.449856">
        <ele>1363</ele>
        <time>2018-07-14T03:50:20.009Z</time>
      </trkpt>
      <trkpt lat="37.23082" lon="-3.449752">
        <ele>1364</ele>
        <time>2018-07-14T03:50:26.009Z</time>
      </trkpt>
      <trkpt lat="37.230892" lon="-3.449639">
        <ele>1365</ele>
        <time>2018-07-14T03:50:31.009Z</time>
      </trkpt>
      <trkpt lat="37.23094" lon="-3.449568">
        <ele>1366</ele>
        <time>2018-07-14T03:50:35.009Z</time>
      </trkpt>
      <trkpt lat="37.230992" lon="-3.449508">
        <ele>1368</ele>
        <time>2018-07-14T03:50:40.009Z</time>
      </trkpt>
      <trkpt lat="37.231032" lon="-3.449416">
        <ele>1368</ele>
        <time>2018-07-14T03:50:47.009Z</time>
      </trkpt>
      <trkpt lat="37.231038" lon="-3.449301">
        <ele>1369</ele>
        <time>2018-07-14T03:50:54.009Z</time>
      </trkpt>
      <trkpt lat="37.231039" lon="-3.449175">
        <ele>1369</ele>
        <time>2018-07-14T03:50:59.009Z</time>
      </trkpt>
      <trkpt lat="37.231067" lon="-3.449034">
        <ele>1370</ele>
        <time>2018-07-14T03:51:05.009Z</time>
      </trkpt>
      <trkpt lat="37.231061" lon="-3.448906">
        <ele>1372</ele>
        <time>2018-07-14T03:51:11.009Z</time>
      </trkpt>
      <trkpt lat="37.231056" lon="-3.448779">
        <ele>1373</ele>
        <time>2018-07-14T03:51:18.009Z</time>
      </trkpt>
      <trkpt lat="37.231066" lon="-3.448653">
        <ele>1374</ele>
        <time>2018-07-14T03:51:24.009Z</time>
      </trkpt>
      <trkpt lat="37.231018" lon="-3.448526">
        <ele>1374.73099864322</ele>
        <time>2018-07-14T03:51:29.009Z</time>
      </trkpt>
      <trkpt lat="37.231019" lon="-3.448389">
        <ele>1374</ele>
        <time>2018-07-14T03:51:35.009Z</time>
      </trkpt>
      <trkpt lat="37.231023" lon="-3.448283">
        <ele>1375</ele>
        <time>2018-07-14T03:51:41.009Z</time>
      </trkpt>
      <trkpt lat="37.230973" lon="-3.448172">
        <ele>1375</ele>
        <time>2018-07-14T03:51:51.009Z</time>
      </trkpt>
      <trkpt lat="37.230986" lon="-3.448077">
        <ele>1375</ele>
        <time>2018-07-14T03:52:02.009Z</time>
      </trkpt>
      <trkpt lat="37.231068" lon="-3.448021">
        <ele>1376</ele>
        <time>2018-07-14T03:52:10.009Z</time>
      </trkpt>
      <trkpt lat="37.231114" lon="-3.448022">
        <ele>1377</ele>
        <time>2018-07-14T03:52:12.009Z</time>
      </trkpt>
      <trkpt lat="37.231206" lon="-3.447964">
        <ele>1378</ele>
        <time>2018-07-14T03:52:19.009Z</time>
      </trkpt>
      <trkpt lat="37.231314" lon="-3.447899">
        <ele>1379</ele>
        <time>2018-07-14T03:52:27.009Z</time>
      </trkpt>
      <trkpt lat="37.231408" lon="-3.447862">
        <ele>1379</ele>
        <time>2018-07-14T03:52:31.009Z</time>
      </trkpt>
      <trkpt lat="37.231462" lon="-3.44774">
        <ele>1380</ele>
        <time>2018-07-14T03:52:37.009Z</time>
      </trkpt>
      <trkpt lat="37.231496" lon="-3.447603">
        <ele>1381</ele>
        <time>2018-07-14T03:52:43.009Z</time>
      </trkpt>
      <trkpt lat="37.23155" lon="-3.447493">
        <ele>1381</ele>
        <time>2018-07-14T03:52:49.009Z</time>
      </trkpt>
      <trkpt lat="37.231582" lon="-3.447383">
        <ele>1382</ele>
        <time>2018-07-14T03:52:55.009Z</time>
      </trkpt>
      <trkpt lat="37.23156" lon="-3.447282">
        <ele>1382.26900135678</ele>
        <time>2018-07-14T03:53:01.009Z</time>
      </trkpt>
      <trkpt lat="37.231555" lon="-3.447169">
        <ele>1385</ele>
        <time>2018-07-14T03:53:13.009Z</time>
      </trkpt>
      <trkpt lat="37.231601" lon="-3.447092">
        <ele>1386</ele>
        <time>2018-07-14T03:53:21.009Z</time>
      </trkpt>
      <trkpt lat="37.231654" lon="-3.447032">
        <ele>1386.26900135678</ele>
        <time>2018-07-14T03:53:25.009Z</time>
      </trkpt>
      <trkpt lat="37.231717" lon="-3.44698">
        <ele>1387</ele>
        <time>2018-07-14T03:53:28.009Z</time>
      </trkpt>
      <trkpt lat="37.231815" lon="-3.446912">
        <ele>1388</ele>
        <time>2018-07-14T03:53:34.009Z</time>
      </trkpt>
      <trkpt lat="37.231889" lon="-3.446879">
        <ele>1388</ele>
        <time>2018-07-14T03:53:38.009Z</time>
      </trkpt>
      <trkpt lat="37.231971" lon="-3.446836">
        <ele>1388</ele>
        <time>2018-07-14T03:53:42.009Z</time>
      </trkpt>
      <trkpt lat="37.23205" lon="-3.446752">
        <ele>1389</ele>
        <time>2018-07-14T03:53:47.009Z</time>
      </trkpt>
      <trkpt lat="37.2321" lon="-3.446634">
        <ele>1390</ele>
        <time>2018-07-14T03:53:56.009Z</time>
      </trkpt>
      <trkpt lat="37.232111" lon="-3.446496">
        <ele>1391</ele>
        <time>2018-07-14T03:54:04.009Z</time>
      </trkpt>
      <trkpt lat="37.232091" lon="-3.446376">
        <ele>1392</ele>
        <time>2018-07-14T03:54:12.009Z</time>
      </trkpt>
      <trkpt lat="37.232073" lon="-3.446246">
        <ele>1394</ele>
        <time>2018-07-14T03:54:20.009Z</time>
      </trkpt>
      <trkpt lat="37.232075" lon="-3.446108">
        <ele>1396</ele>
        <time>2018-07-14T03:54:29.009Z</time>
      </trkpt>
      <trkpt lat="37.232108" lon="-3.445983">
        <ele>1397</ele>
        <time>2018-07-14T03:54:36.009Z</time>
      </trkpt>
      <trkpt lat="37.232149" lon="-3.445866">
        <ele>1398</ele>
        <time>2018-07-14T03:54:44.009Z</time>
      </trkpt>
      <trkpt lat="37.232194" lon="-3.445756">
        <ele>1399</ele>
        <time>2018-07-14T03:54:52.009Z</time>
      </trkpt>
      <trkpt lat="37.23221" lon="-3.445663">
        <ele>1400</ele>
        <time>2018-07-14T03:54:58.009Z</time>
      </trkpt>
      <trkpt lat="37.232259" lon="-3.445575">
        <ele>1401.26900135678</ele>
        <time>2018-07-14T03:55:05.009Z</time>
      </trkpt>
      <trkpt lat="37.232299" lon="-3.44551">
        <ele>1402</ele>
        <time>2018-07-14T03:55:10.009Z</time>
      </trkpt>
      <trkpt lat="37.232378" lon="-3.445465">
        <ele>1403</ele>
        <time>2018-07-14T03:55:15.009Z</time>
      </trkpt>
      <trkpt lat="37.23246" lon="-3.445395">
        <ele>1404</ele>
        <time>2018-07-14T03:55:21.009Z</time>
      </trkpt>
      <trkpt lat="37.232535" lon="-3.445316">
        <ele>1404.26900135678</ele>
        <time>2018-07-14T03:55:29.009Z</time>
      </trkpt>
      <trkpt lat="37.232641" lon="-3.445336">
        <ele>1404.26900135678</ele>
        <time>2018-07-14T03:55:37.009Z</time>
      </trkpt>
      <trkpt lat="37.232749" lon="-3.44536">
        <ele>1406</ele>
        <time>2018-07-14T03:55:45.009Z</time>
      </trkpt>
      <trkpt lat="37.23281" lon="-3.445369">
        <ele>1407</ele>
        <time>2018-07-14T03:55:50.009Z</time>
      </trkpt>
      <trkpt lat="37.232883" lon="-3.445349">
        <ele>1408</ele>
        <time>2018-07-14T03:55:55.009Z</time>
      </trkpt>
      <trkpt lat="37.232949" lon="-3.445312">
        <ele>1409</ele>
        <time>2018-07-14T03:56:00.009Z</time>
      </trkpt>
      <trkpt lat="37.232999" lon="-3.445277">
        <ele>1410</ele>
        <time>2018-07-14T03:56:04.009Z</time>
      </trkpt>
      <trkpt lat="37.233038" lon="-3.445248">
        <ele>1410.26900135678</ele>
        <time>2018-07-14T03:56:07.009Z</time>
      </trkpt>
      <trkpt lat="37.233093" lon="-3.445209">
        <ele>1411</ele>
        <time>2018-07-14T03:56:11.009Z</time>
      </trkpt>
      <trkpt lat="37.233164" lon="-3.445169">
        <ele>1412</ele>
        <time>2018-07-14T03:56:17.009Z</time>
      </trkpt>
      <trkpt lat="37.233229" lon="-3.445126">
        <ele>1413</ele>
        <time>2018-07-14T03:56:22.009Z</time>
      </trkpt>
      <trkpt lat="37.233311" lon="-3.445049">
        <ele>1413</ele>
        <time>2018-07-14T03:56:31.009Z</time>
      </trkpt>
      <trkpt lat="37.2334" lon="-3.444971">
        <ele>1415.26899544314</ele>
        <time>2018-07-14T03:56:40.009Z</time>
      </trkpt>
      <trkpt lat="37.233489" lon="-3.444876">
        <ele>1417</ele>
        <time>2018-07-14T03:56:48.009Z</time>
      </trkpt>
      <trkpt lat="37.23353" lon="-3.444756">
        <ele>1418.26900135678</ele>
        <time>2018-07-14T03:56:55.009Z</time>
      </trkpt>
      <trkpt lat="37.233494" lon="-3.444649">
        <ele>1418</ele>
        <time>2018-07-14T03:57:00.009Z</time>
      </trkpt>
      <trkpt lat="37.233405" lon="-3.444581">
        <ele>1417.73100455686</ele>
        <time>2018-07-14T03:57:04.009Z</time>
      </trkpt>
      <trkpt lat="37.233309" lon="-3.444554">
        <ele>1417</ele>
        <time>2018-07-14T03:57:08.009Z</time>
      </trkpt>
      <trkpt lat="37.233229" lon="-3.444523">
        <ele>1417</ele>
        <time>2018-07-14T03:57:11.009Z</time>
      </trkpt>
      <trkpt lat="37.233124" lon="-3.44447">
        <ele>1417</ele>
        <time>2018-07-14T03:57:15.009Z</time>
      </trkpt>
      <trkpt lat="37.233042" lon="-3.444392">
        <ele>1417</ele>
        <time>2018-07-14T03:57:18.009Z</time>
      </trkpt>
      <trkpt lat="37.232973" lon="-3.444258">
        <ele>1417</ele>
        <time>2018-07-14T03:57:22.009Z</time>
      </trkpt>
      <trkpt lat="37.232927" lon="-3.444115">
        <ele>1417</ele>
        <time>2018-07-14T03:57:26.009Z</time>
      </trkpt>
      <trkpt lat="37.232867" lon="-3.443985">
        <ele>1417</ele>
        <time>2018-07-14T03:57:30.009Z</time>
      </trkpt>
      <trkpt lat="37.232789" lon="-3.443877">
        <ele>1417</ele>
        <time>2018-07-14T03:57:34.009Z</time>
      </trkpt>
      <trkpt lat="37.232703" lon="-3.44377">
        <ele>1417</ele>
        <time>2018-07-14T03:57:38.009Z</time>
      </trkpt>
      <trkpt lat="37.232639" lon="-3.443677">
        <ele>1416</ele>
        <time>2018-07-14T03:57:42.009Z</time>
      </trkpt>
      <trkpt lat="37.232552" lon="-3.44355">
        <ele>1413.73099864322</ele>
        <time>2018-07-14T03:57:47.009Z</time>
      </trkpt>
      <trkpt lat="37.232495" lon="-3.443439">
        <ele>1413</ele>
        <time>2018-07-14T03:57:50.009Z</time>
      </trkpt>
      <trkpt lat="37.232451" lon="-3.443343">
        <ele>1412</ele>
        <time>2018-07-14T03:57:53.009Z</time>
      </trkpt>
      <trkpt lat="37.23237" lon="-3.443245">
        <ele>1411</ele>
        <time>2018-07-14T03:57:57.009Z</time>
      </trkpt>
      <trkpt lat="37.23229" lon="-3.443141">
        <ele>1410.73099864322</ele>
        <time>2018-07-14T03:58:01.009Z</time>
      </trkpt>
      <trkpt lat="37.232195" lon="-3.443049">
        <ele>1410</ele>
        <time>2018-07-14T03:58:06.009Z</time>
      </trkpt>
      <trkpt lat="37.232088" lon="-3.442994">
        <ele>1409</ele>
        <time>2018-07-14T03:58:11.009Z</time>
      </trkpt>
      <trkpt lat="37.231979" lon="-3.442927">
        <ele>1409</ele>
        <time>2018-07-14T03:58:16.009Z</time>
      </trkpt>
      <trkpt lat="37.231876" lon="-3.442856">
        <ele>1409</ele>
        <time>2018-07-14T03:58:21.009Z</time>
      </trkpt>
      <trkpt lat="37.231783" lon="-3.44279">
        <ele>1408</ele>
        <time>2018-07-14T03:58:26.009Z</time>
      </trkpt>
      <trkpt lat="37.231694" lon="-3.442698">
        <ele>1409</ele>
        <time>2018-07-14T03:58:31.009Z</time>
      </trkpt>
      <trkpt lat="37.231644" lon="-3.442577">
        <ele>1409</ele>
        <time>2018-07-14T03:58:36.009Z</time>
      </trkpt>
      <trkpt lat="37.231605" lon="-3.442432">
        <ele>1408</ele>
        <time>2018-07-14T03:58:41.009Z</time>
      </trkpt>
      <trkpt lat="37.231581" lon="-3.442295">
        <ele>1408</ele>
        <time>2018-07-14T03:58:45.009Z</time>
      </trkpt>
      <trkpt lat="37.231594" lon="-3.44215">
        <ele>1408</ele>
        <time>2018-07-14T03:58:49.009Z</time>
      </trkpt>
      <trkpt lat="37.231619" lon="-3.442013">
        <ele>1407</ele>
        <time>2018-07-14T03:58:54.009Z</time>
      </trkpt>
      <trkpt lat="37.231674" lon="-3.441886">
        <ele>1408</ele>
        <time>2018-07-14T03:59:00.009Z</time>
      </trkpt>
      <trkpt lat="37.231713" lon="-3.441757">
        <ele>1408</ele>
        <time>2018-07-14T03:59:07.009Z</time>
      </trkpt>
      <trkpt lat="37.231773" lon="-3.44164">
        <ele>1408</ele>
        <time>2018-07-14T03:59:12.009Z</time>
      </trkpt>
      <trkpt lat="37.231823" lon="-3.441526">
        <ele>1408.73100455686</ele>
        <time>2018-07-14T03:59:16.009Z</time>
      </trkpt>
      <trkpt lat="37.231873" lon="-3.441408">
        <ele>1408</ele>
        <time>2018-07-14T03:59:21.009Z</time>
      </trkpt>
      <trkpt lat="37.23194" lon="-3.44131">
        <ele>1408.26899544314</ele>
        <time>2018-07-14T03:59:26.009Z</time>
      </trkpt>
      <trkpt lat="37.232029" lon="-3.441218">
        <ele>1408</ele>
        <time>2018-07-14T03:59:30.009Z</time>
      </trkpt>
      <trkpt lat="37.232114" lon="-3.44114">
        <ele>1407</ele>
        <time>2018-07-14T03:59:33.009Z</time>
      </trkpt>
      <trkpt lat="37.232201" lon="-3.441071">
        <ele>1407</ele>
        <time>2018-07-14T03:59:37.009Z</time>
      </trkpt>
      <trkpt lat="37.232292" lon="-3.440993">
        <ele>1407</ele>
        <time>2018-07-14T03:59:41.009Z</time>
      </trkpt>
      <trkpt lat="37.232377" lon="-3.440922">
        <ele>1407</ele>
        <time>2018-07-14T03:59:45.009Z</time>
      </trkpt>
      <trkpt lat="37.232476" lon="-3.440849">
        <ele>1407</ele>
        <time>2018-07-14T03:59:50.009Z</time>
      </trkpt>
      <trkpt lat="37.232559" lon="-3.440776">
        <ele>1407</ele>
        <time>2018-07-14T03:59:54.009Z</time>
      </trkpt>
      <trkpt lat="37.23263" lon="-3.440676">
        <ele>1407</ele>
        <time>2018-07-14T03:59:59.009Z</time>
      </trkpt>
      <trkpt lat="37.232686" lon="-3.44057">
        <ele>1407</ele>
        <time>2018-07-14T04:00:03.009Z</time>
      </trkpt>
      <trkpt lat="37.232754" lon="-3.440462">
        <ele>1408</ele>
        <time>2018-07-14T04:00:07.009Z</time>
      </trkpt>
      <trkpt lat="37.232849" lon="-3.44038">
        <ele>1407</ele>
        <time>2018-07-14T04:00:13.009Z</time>
      </trkpt>
      <trkpt lat="37.23294" lon="-3.440342">
        <ele>1407</ele>
        <time>2018-07-14T04:00:17.009Z</time>
      </trkpt>
      <trkpt lat="37.233042" lon="-3.440319">
        <ele>1407</ele>
        <time>2018-07-14T04:00:21.009Z</time>
      </trkpt>
      <trkpt lat="37.23312" lon="-3.440299">
        <ele>1405</ele>
        <time>2018-07-14T04:00:24.009Z</time>
      </trkpt>
      <trkpt lat="37.233187" lon="-3.44026">
        <ele>1404</ele>
        <time>2018-07-14T04:00:59.009Z</time>
      </trkpt>
      <trkpt lat="37.233282" lon="-3.440213">
        <ele>1403.73099864322</ele>
        <time>2018-07-14T04:01:03.009Z</time>
      </trkpt>
      <trkpt lat="37.233352" lon="-3.440154">
        <ele>1403</ele>
        <time>2018-07-14T04:01:06.009Z</time>
      </trkpt>
      <trkpt lat="37.23341" lon="-3.44004">
        <ele>1403</ele>
        <time>2018-07-14T04:01:11.009Z</time>
      </trkpt>
      <trkpt lat="37.233435" lon="-3.43993">
        <ele>1403.26899544314</ele>
        <time>2018-07-14T04:01:18.009Z</time>
      </trkpt>
      <trkpt lat="37.233417" lon="-3.43986">
        <ele>1405</ele>
        <time>2018-07-14T04:01:23.009Z</time>
      </trkpt>
      <trkpt lat="37.233389" lon="-3.439786">
        <ele>1405</ele>
        <time>2018-07-14T04:01:29.009Z</time>
      </trkpt>
      <trkpt lat="37.233344" lon="-3.439701">
        <ele>1406.26899544314</ele>
        <time>2018-07-14T04:01:36.009Z</time>
      </trkpt>
      <trkpt lat="37.233304" lon="-3.439634">
        <ele>1408</ele>
        <time>2018-07-14T04:01:42.009Z</time>
      </trkpt>
      <trkpt lat="37.233234" lon="-3.439544">
        <ele>1411</ele>
        <time>2018-07-14T04:01:52.009Z</time>
      </trkpt>
      <trkpt lat="37.233173" lon="-3.439474">
        <ele>1414</ele>
        <time>2018-07-14T04:02:00.009Z</time>
      </trkpt>
      <trkpt lat="37.233118" lon="-3.439418">
        <ele>1415</ele>
        <time>2018-07-14T04:02:07.009Z</time>
      </trkpt>
      <trkpt lat="37.233071" lon="-3.439349">
        <ele>1416.26632955669</ele>
        <time>2018-07-14T04:02:14.009Z</time>
      </trkpt>
      <trkpt lat="37.23302" lon="-3.439273">
        <ele>1418</ele>
        <time>2018-07-14T04:02:21.009Z</time>
      </trkpt>
      <trkpt lat="37.232973" lon="-3.439211">
        <ele>1421</ele>
        <time>2018-07-14T04:02:27.009Z</time>
      </trkpt>
      <trkpt lat="37.232925" lon="-3.439162">
        <ele>1422</ele>
        <time>2018-07-14T04:02:33.009Z</time>
      </trkpt>
      <trkpt lat="37.232875" lon="-3.439101">
        <ele>1423</ele>
        <time>2018-07-14T04:02:40.009Z</time>
      </trkpt>
      <trkpt lat="37.23282" lon="-3.439055">
        <ele>1424</ele>
        <time>2018-07-14T04:02:49.009Z</time>
      </trkpt>
      <trkpt lat="37.232774" lon="-3.439022">
        <ele>1426</ele>
        <time>2018-07-14T04:02:58.009Z</time>
      </trkpt>
      <trkpt lat="37.232702" lon="-3.438966">
        <ele>1428</ele>
        <time>2018-07-14T04:03:13.009Z</time>
      </trkpt>
      <trkpt lat="37.232632" lon="-3.438916">
        <ele>1430</ele>
        <time>2018-07-14T04:03:26.009Z</time>
      </trkpt>
      <trkpt lat="37.23256" lon="-3.438866">
        <ele>1433</ele>
        <time>2018-07-14T04:03:36.009Z</time>
      </trkpt>
      <trkpt lat="37.232491" lon="-3.438823">
        <ele>1435</ele>
        <time>2018-07-14T04:03:49.009Z</time>
      </trkpt>
      <trkpt lat="37.232424" lon="-3.438778">
        <ele>1439</ele>
        <time>2018-07-14T04:04:04.009Z</time>
      </trkpt>
      <trkpt lat="37.232349" lon="-3.438733">
        <ele>1443</ele>
        <time>2018-07-14T04:04:21.009Z</time>
      </trkpt>
      <trkpt lat="37.232275" lon="-3.438661">
        <ele>1448</ele>
        <time>2018-07-14T04:04:44.009Z</time>
      </trkpt>
      <trkpt lat="37.232216" lon="-3.438634">
        <ele>1450.26900135678</ele>
        <time>2018-07-14T04:05:03.009Z</time>
      </trkpt>
      <trkpt lat="37.232128" lon="-3.438572">
        <ele>1456</ele>
        <time>2018-07-14T04:05:37.009Z</time>
      </trkpt>
      <trkpt lat="37.232056" lon="-3.438533">
        <ele>1460</ele>
        <time>2018-07-14T04:06:01.009Z</time>
      </trkpt>
      <trkpt lat="37.231972" lon="-3.438492">
        <ele>1464</ele>
        <time>2018-07-14T04:06:29.009Z</time>
      </trkpt>
      <trkpt lat="37.231911" lon="-3.438435">
        <ele>1470</ele>
        <time>2018-07-14T04:06:49.009Z</time>
      </trkpt>
      <trkpt lat="37.231851" lon="-3.438406">
        <ele>1473</ele>
        <time>2018-07-14T04:07:18.009Z</time>
      </trkpt>
      <trkpt lat="37.231783" lon="-3.438412">
        <ele>1476</ele>
        <time>2018-07-14T04:07:38.009Z</time>
      </trkpt>
      <trkpt lat="37.231712" lon="-3.438398">
        <ele>1483</ele>
        <time>2018-07-14T04:08:00.009Z</time>
      </trkpt>
      <trkpt lat="37.231645" lon="-3.438356">
        <ele>1487</ele>
        <time>2018-07-14T04:08:27.009Z</time>
      </trkpt>
      <trkpt lat="37.231563" lon="-3.438275">
        <ele>1494</ele>
        <time>2018-07-14T04:09:00.009Z</time>
      </trkpt>
      <trkpt lat="37.231478" lon="-3.438205">
        <ele>1503</ele>
        <time>2018-07-14T04:09:37.009Z</time>
      </trkpt>
      <trkpt lat="37.231403" lon="-3.43817">
        <ele>1508</ele>
        <time>2018-07-14T04:09:58.009Z</time>
      </trkpt>
      <trkpt lat="37.231357" lon="-3.438117">
        <ele>1511.26900135678</ele>
        <time>2018-07-14T04:10:15.009Z</time>
      </trkpt>
      <trkpt lat="37.231314" lon="-3.438074">
        <ele>1514</ele>
        <time>2018-07-14T04:10:30.009Z</time>
      </trkpt>
      <trkpt lat="37.231253" lon="-3.43808">
        <ele>1515</ele>
        <time>2018-07-14T04:10:37.009Z</time>
      </trkpt>
      <trkpt lat="37.231183" lon="-3.438039">
        <ele>1516</ele>
        <time>2018-07-14T04:10:46.009Z</time>
      </trkpt>
      <trkpt lat="37.231113" lon="-3.438025">
        <ele>1516</ele>
        <time>2018-07-14T04:10:51.009Z</time>
      </trkpt>
      <trkpt lat="37.231045" lon="-3.438013">
        <ele>1516</ele>
        <time>2018-07-14T04:10:57.009Z</time>
      </trkpt>
      <trkpt lat="37.230977" lon="-3.438012">
        <ele>1516</ele>
        <time>2018-07-14T04:11:02.009Z</time>
      </trkpt>
      <trkpt lat="37.23092" lon="-3.438019">
        <ele>1517.26900135678</ele>
        <time>2018-07-14T04:11:07.009Z</time>
      </trkpt>
      <trkpt lat="37.230857" lon="-3.438008">
        <ele>1519</ele>
        <time>2018-07-14T04:11:13.009Z</time>
      </trkpt>
      <trkpt lat="37.230806" lon="-3.438011">
        <ele>1519.26900135678</ele>
        <time>2018-07-14T04:11:17.009Z</time>
      </trkpt>
      <trkpt lat="37.230765" lon="-3.438024">
        <ele>1520</ele>
        <time>2018-07-14T04:11:22.009Z</time>
      </trkpt>
      <trkpt lat="37.230703" lon="-3.438042">
        <ele>1520</ele>
        <time>2018-07-14T04:11:29.009Z</time>
      </trkpt>
      <trkpt lat="37.230654" lon="-3.438008">
        <ele>1520</ele>
        <time>2018-07-14T04:11:34.009Z</time>
      </trkpt>
      <trkpt lat="37.230613" lon="-3.437979">
        <ele>1519</ele>
        <time>2018-07-14T04:11:38.009Z</time>
      </trkpt>
      <trkpt lat="37.230573" lon="-3.437955">
        <ele>1519.26900135678</ele>
        <time>2018-07-14T04:11:41.009Z</time>
      </trkpt>
      <trkpt lat="37.230534" lon="-3.437925">
        <ele>1520</ele>
        <time>2018-07-14T04:11:44.009Z</time>
      </trkpt>
      <trkpt lat="37.230494" lon="-3.437906">
        <ele>1520</ele>
        <time>2018-07-14T04:11:47.009Z</time>
      </trkpt>
      <trkpt lat="37.230446" lon="-3.437886">
        <ele>1520</ele>
        <time>2018-07-14T04:11:50.009Z</time>
      </trkpt>
      <trkpt lat="37.2304" lon="-3.437883">
        <ele>1519</ele>
        <time>2018-07-14T04:11:53.009Z</time>
      </trkpt>
      <trkpt lat="37.230363" lon="-3.437868">
        <ele>1518</ele>
        <time>2018-07-14T04:11:57.009Z</time>
      </trkpt>
      <trkpt lat="37.23032" lon="-3.437847">
        <ele>1516.73099864322</ele>
        <time>2018-07-14T04:12:01.009Z</time>
      </trkpt>
      <trkpt lat="37.230265" lon="-3.437829">
        <ele>1515</ele>
        <time>2018-07-14T04:12:05.009Z</time>
      </trkpt>
      <trkpt lat="37.230212" lon="-3.43784">
        <ele>1514.73100455686</ele>
        <time>2018-07-14T04:12:08.009Z</time>
      </trkpt>
      <trkpt lat="37.230129" lon="-3.437848">
        <ele>1513.73100455686</ele>
        <time>2018-07-14T04:12:12.009Z</time>
      </trkpt>
      <trkpt lat="37.23005" lon="-3.437833">
        <ele>1513</ele>
        <time>2018-07-14T04:12:15.009Z</time>
      </trkpt>
      <trkpt lat="37.229967" lon="-3.43783">
        <ele>1511.73100455686</ele>
        <time>2018-07-14T04:12:20.009Z</time>
      </trkpt>
      <trkpt lat="37.229902" lon="-3.437831">
        <ele>1510</ele>
        <time>2018-07-14T04:12:23.009Z</time>
      </trkpt>
      <trkpt lat="37.229852" lon="-3.437838">
        <ele>1509</ele>
        <time>2018-07-14T04:12:26.009Z</time>
      </trkpt>
      <trkpt lat="37.229802" lon="-3.437845">
        <ele>1508</ele>
        <time>2018-07-14T04:12:29.009Z</time>
      </trkpt>
      <trkpt lat="37.229759" lon="-3.437858">
        <ele>1508</ele>
        <time>2018-07-14T04:12:32.009Z</time>
      </trkpt>
      <trkpt lat="37.22971" lon="-3.437874">
        <ele>1507</ele>
        <time>2018-07-14T04:12:35.009Z</time>
      </trkpt>
      <trkpt lat="37.229657" lon="-3.437896">
        <ele>1505.73100455686</ele>
        <time>2018-07-14T04:12:38.009Z</time>
      </trkpt>
      <trkpt lat="37.229613" lon="-3.437918">
        <ele>1505</ele>
        <time>2018-07-14T04:12:41.009Z</time>
      </trkpt>
      <trkpt lat="37.229568" lon="-3.437936">
        <ele>1504</ele>
        <time>2018-07-14T04:12:44.009Z</time>
      </trkpt>
      <trkpt lat="37.229522" lon="-3.437959">
        <ele>1503</ele>
        <time>2018-07-14T04:12:47.009Z</time>
      </trkpt>
      <trkpt lat="37.229469" lon="-3.437972">
        <ele>1503</ele>
        <time>2018-07-14T04:12:50.009Z</time>
      </trkpt>
      <trkpt lat="37.229421" lon="-3.437988">
        <ele>1502</ele>
        <time>2018-07-14T04:12:53.009Z</time>
      </trkpt>
      <trkpt lat="37.229365" lon="-3.438003">
        <ele>1502</ele>
        <time>2018-07-14T04:12:56.009Z</time>
      </trkpt>
      <trkpt lat="37.229318" lon="-3.438017">
        <ele>1501</ele>
        <time>2018-07-14T04:12:59.009Z</time>
      </trkpt>
      <trkpt lat="37.229267" lon="-3.438042">
        <ele>1500.73100455686</ele>
        <time>2018-07-14T04:13:02.009Z</time>
      </trkpt>
      <trkpt lat="37.229215" lon="-3.438052">
        <ele>1500</ele>
        <time>2018-07-14T04:13:05.009Z</time>
      </trkpt>
      <trkpt lat="37.229169" lon="-3.438064">
        <ele>1499</ele>
        <time>2018-07-14T04:13:08.009Z</time>
      </trkpt>
      <trkpt lat="37.229126" lon="-3.438064">
        <ele>1499</ele>
        <time>2018-07-14T04:13:11.009Z</time>
      </trkpt>
      <trkpt lat="37.229087" lon="-3.438054">
        <ele>1498</ele>
        <time>2018-07-14T04:13:14.009Z</time>
      </trkpt>
      <trkpt lat="37.229028" lon="-3.438052">
        <ele>1498</ele>
        <time>2018-07-14T04:13:18.009Z</time>
      </trkpt>
      <trkpt lat="37.228969" lon="-3.438044">
        <ele>1498</ele>
        <time>2018-07-14T04:13:21.009Z</time>
      </trkpt>
      <trkpt lat="37.228875" lon="-3.438034">
        <ele>1498</ele>
        <time>2018-07-14T04:13:26.009Z</time>
      </trkpt>
      <trkpt lat="37.22881" lon="-3.437966">
        <ele>1497.73100455686</ele>
        <time>2018-07-14T04:13:30.009Z</time>
      </trkpt>
      <trkpt lat="37.228791" lon="-3.437884">
        <ele>1496.73100455686</ele>
        <time>2018-07-14T04:13:34.009Z</time>
      </trkpt>
      <trkpt lat="37.228822" lon="-3.437816">
        <ele>1496</ele>
        <time>2018-07-14T04:13:37.009Z</time>
      </trkpt>
      <trkpt lat="37.228865" lon="-3.437736">
        <ele>1496</ele>
        <time>2018-07-14T04:13:41.009Z</time>
      </trkpt>
      <trkpt lat="37.228887" lon="-3.437666">
        <ele>1495</ele>
        <time>2018-07-14T04:13:44.009Z</time>
      </trkpt>
      <trkpt lat="37.228912" lon="-3.437596">
        <ele>1494</ele>
        <time>2018-07-14T04:13:47.009Z</time>
      </trkpt>
      <trkpt lat="37.228944" lon="-3.437522">
        <ele>1494</ele>
        <time>2018-07-14T04:13:52.009Z</time>
      </trkpt>
      <trkpt lat="37.228985" lon="-3.4374">
        <ele>1493</ele>
        <time>2018-07-14T04:13:59.009Z</time>
      </trkpt>
      <trkpt lat="37.229002" lon="-3.437289">
        <ele>1489.73100455686</ele>
        <time>2018-07-14T04:14:06.009Z</time>
      </trkpt>
      <trkpt lat="37.229058" lon="-3.437235">
        <ele>1486</ele>
        <time>2018-07-14T04:14:12.009Z</time>
      </trkpt>
      <trkpt lat="37.229102" lon="-3.437166">
        <ele>1482.73099864322</ele>
        <time>2018-07-14T04:14:19.009Z</time>
      </trkpt>
      <trkpt lat="37.229137" lon="-3.43708">
        <ele>1479.73100455686</ele>
        <time>2018-07-14T04:14:26.009Z</time>
      </trkpt>
      <trkpt lat="37.229161" lon="-3.436966">
        <ele>1477</ele>
        <time>2018-07-14T04:14:32.009Z</time>
      </trkpt>
      <trkpt lat="37.229195" lon="-3.436872">
        <ele>1475</ele>
        <time>2018-07-14T04:14:37.009Z</time>
      </trkpt>
      <trkpt lat="37.229228" lon="-3.436777">
        <ele>1473.73100455686</ele>
        <time>2018-07-14T04:14:42.009Z</time>
      </trkpt>
      <trkpt lat="37.22925" lon="-3.436692">
        <ele>1470.73099864322</ele>
        <time>2018-07-14T04:14:47.009Z</time>
      </trkpt>
      <trkpt lat="37.229255" lon="-3.436607">
        <ele>1468.73099864322</ele>
        <time>2018-07-14T04:14:51.009Z</time>
      </trkpt>
      <trkpt lat="37.229307" lon="-3.436485">
        <ele>1466</ele>
        <time>2018-07-14T04:14:57.009Z</time>
      </trkpt>
      <trkpt lat="37.229349" lon="-3.436372">
        <ele>1463.73099864322</ele>
        <time>2018-07-14T04:15:03.009Z</time>
      </trkpt>
      <trkpt lat="37.229417" lon="-3.436267">
        <ele>1459.73099864322</ele>
        <time>2018-07-14T04:15:11.009Z</time>
      </trkpt>
      <trkpt lat="37.229454" lon="-3.436143">
        <ele>1457</ele>
        <time>2018-07-14T04:15:19.009Z</time>
      </trkpt>
      <trkpt lat="37.229488" lon="-3.436023">
        <ele>1456</ele>
        <time>2018-07-14T04:15:25.009Z</time>
      </trkpt>
      <trkpt lat="37.229523" lon="-3.435893">
        <ele>1452</ele>
        <time>2018-07-14T04:15:33.009Z</time>
      </trkpt>
      <trkpt lat="37.229569" lon="-3.435763">
        <ele>1448</ele>
        <time>2018-07-14T04:15:40.009Z</time>
      </trkpt>
      <trkpt lat="37.229624" lon="-3.435637">
        <ele>1447</ele>
        <time>2018-07-14T04:15:46.009Z</time>
      </trkpt>
      <trkpt lat="37.229684" lon="-3.435517">
        <ele>1445.73099864322</ele>
        <time>2018-07-14T04:15:51.009Z</time>
      </trkpt>
      <trkpt lat="37.229676" lon="-3.435382">
        <ele>1444</ele>
        <time>2018-07-14T04:15:57.009Z</time>
      </trkpt>
      <trkpt lat="37.229642" lon="-3.43526">
        <ele>1442.73100455686</ele>
        <time>2018-07-14T04:16:02.009Z</time>
      </trkpt>
      <trkpt lat="37.229652" lon="-3.435127">
        <ele>1438</ele>
        <time>2018-07-14T04:16:09.009Z</time>
      </trkpt>
      <trkpt lat="37.229692" lon="-3.435008">
        <ele>1435.73100455686</ele>
        <time>2018-07-14T04:16:16.009Z</time>
      </trkpt>
      <trkpt lat="37.229766" lon="-3.434905">
        <ele>1430.73100455686</ele>
        <time>2018-07-14T04:16:22.009Z</time>
      </trkpt>
      <trkpt lat="37.229804" lon="-3.434781">
        <ele>1426.73100455686</ele>
        <time>2018-07-14T04:16:28.009Z</time>
      </trkpt>
      <trkpt lat="37.22991" lon="-3.43479">
        <ele>1424</ele>
        <time>2018-07-14T04:16:35.009Z</time>
      </trkpt>
      <trkpt lat="37.230014" lon="-3.434787">
        <ele>1421</ele>
        <time>2018-07-14T04:16:43.009Z</time>
      </trkpt>
      <trkpt lat="37.230106" lon="-3.434734">
        <ele>1419.73099864322</ele>
        <time>2018-07-14T04:16:49.009Z</time>
      </trkpt>
      <trkpt lat="37.230198" lon="-3.434654">
        <ele>1419</ele>
        <time>2018-07-14T04:16:57.009Z</time>
      </trkpt>
      <trkpt lat="37.230278" lon="-3.43457">
        <ele>1419</ele>
        <time>2018-07-14T04:17:04.009Z</time>
      </trkpt>
      <trkpt lat="37.23036" lon="-3.434498">
        <ele>1419</ele>
        <time>2018-07-14T04:17:12.009Z</time>
      </trkpt>
      <trkpt lat="37.230422" lon="-3.434411">
        <ele>1419.73099864322</ele>
        <time>2018-07-14T04:17:19.009Z</time>
      </trkpt>
      <trkpt lat="37.230493" lon="-3.434308">
        <ele>1420</ele>
        <time>2018-07-14T04:17:28.009Z</time>
      </trkpt>
      <trkpt lat="37.230568" lon="-3.43421">
        <ele>1419</ele>
        <time>2018-07-14T04:17:37.009Z</time>
      </trkpt>
      <trkpt lat="37.230615" lon="-3.434089">
        <ele>1419</ele>
        <time>2018-07-14T04:17:44.009Z</time>
      </trkpt>
      <trkpt lat="37.230671" lon="-3.433981">
        <ele>1420</ele>
        <time>2018-07-14T04:17:50.009Z</time>
      </trkpt>
      <trkpt lat="37.230729" lon="-3.433877">
        <ele>1420</ele>
        <time>2018-07-14T04:17:55.009Z</time>
      </trkpt>
      <trkpt lat="37.230769" lon="-3.43376">
        <ele>1421</ele>
        <time>2018-07-14T04:18:00.009Z</time>
      </trkpt>
      <trkpt lat="37.230811" lon="-3.433614">
        <ele>1422</ele>
        <time>2018-07-14T04:18:05.009Z</time>
      </trkpt>
      <trkpt lat="37.230849" lon="-3.433479">
        <ele>1423</ele>
        <time>2018-07-14T04:18:09.009Z</time>
      </trkpt>
      <trkpt lat="37.230898" lon="-3.433349">
        <ele>1423</ele>
        <time>2018-07-14T04:18:13.009Z</time>
      </trkpt>
      <trkpt lat="37.23096" lon="-3.433213">
        <ele>1422</ele>
        <time>2018-07-14T04:18:17.009Z</time>
      </trkpt>
      <trkpt lat="37.231003" lon="-3.433062">
        <ele>1423</ele>
        <time>2018-07-14T04:18:21.009Z</time>
      </trkpt>
      <trkpt lat="37.231063" lon="-3.432933">
        <ele>1423</ele>
        <time>2018-07-14T04:18:25.009Z</time>
      </trkpt>
      <trkpt lat="37.231125" lon="-3.432817">
        <ele>1422</ele>
        <time>2018-07-14T04:18:29.009Z</time>
      </trkpt>
      <trkpt lat="37.231218" lon="-3.432706">
        <ele>1421.73099864322</ele>
        <time>2018-07-14T04:18:33.009Z</time>
      </trkpt>
      <trkpt lat="37.231294" lon="-3.432604">
        <ele>1421</ele>
        <time>2018-07-14T04:18:37.009Z</time>
      </trkpt>
      <trkpt lat="37.231399" lon="-3.432554">
        <ele>1421</ele>
        <time>2018-07-14T04:18:42.009Z</time>
      </trkpt>
      <trkpt lat="37.231515" lon="-3.432598">
        <ele>1421</ele>
        <time>2018-07-14T04:18:47.009Z</time>
      </trkpt>
      <trkpt lat="37.231604" lon="-3.432659">
        <ele>1421.73100455686</ele>
        <time>2018-07-14T04:18:50.009Z</time>
      </trkpt>
      <trkpt lat="37.231706" lon="-3.432715">
        <ele>1422</ele>
        <time>2018-07-14T04:18:53.009Z</time>
      </trkpt>
      <trkpt lat="37.231811" lon="-3.432714">
        <ele>1422</ele>
        <time>2018-07-14T04:18:58.009Z</time>
      </trkpt>
      <trkpt lat="37.231908" lon="-3.43266">
        <ele>1421</ele>
        <time>2018-07-14T04:19:02.009Z</time>
      </trkpt>
      <trkpt lat="37.232006" lon="-3.432567">
        <ele>1419.73100455686</ele>
        <time>2018-07-14T04:19:06.009Z</time>
      </trkpt>
      <trkpt lat="37.232098" lon="-3.432505">
        <ele>1418</ele>
        <time>2018-07-14T04:19:11.009Z</time>
      </trkpt>
      <trkpt lat="37.232192" lon="-3.432439">
        <ele>1418</ele>
        <time>2018-07-14T04:19:17.009Z</time>
      </trkpt>
      <trkpt lat="37.232296" lon="-3.432407">
        <ele>1419</ele>
        <time>2018-07-14T04:19:22.009Z</time>
      </trkpt>
      <trkpt lat="37.23241" lon="-3.432378">
        <ele>1417.73100455686</ele>
        <time>2018-07-14T04:19:26.009Z</time>
      </trkpt>
      <trkpt lat="37.232462" lon="-3.432265">
        <ele>1418</ele>
        <time>2018-07-14T04:19:29.009Z</time>
      </trkpt>
      <trkpt lat="37.23244" lon="-3.432112">
        <ele>1418</ele>
        <time>2018-07-14T04:19:33.009Z</time>
      </trkpt>
      <trkpt lat="37.232404" lon="-3.431981">
        <ele>1418</ele>
        <time>2018-07-14T04:19:37.009Z</time>
      </trkpt>
      <trkpt lat="37.232358" lon="-3.431849">
        <ele>1417</ele>
        <time>2018-07-14T04:19:41.009Z</time>
      </trkpt>
      <trkpt lat="37.232336" lon="-3.431725">
        <ele>1417</ele>
        <time>2018-07-14T04:19:45.009Z</time>
      </trkpt>
      <trkpt lat="37.232346" lon="-3.431632">
        <ele>1417</ele>
        <time>2018-07-14T04:19:48.009Z</time>
      </trkpt>
      <trkpt lat="37.232342" lon="-3.431534">
        <ele>1416</ele>
        <time>2018-07-14T04:19:51.009Z</time>
      </trkpt>
      <trkpt lat="37.232334" lon="-3.431451">
        <ele>1415</ele>
        <time>2018-07-14T04:19:54.009Z</time>
      </trkpt>
      <trkpt lat="37.232318" lon="-3.431371">
        <ele>1414</ele>
        <time>2018-07-14T04:19:57.009Z</time>
      </trkpt>
      <trkpt lat="37.232306" lon="-3.43129">
        <ele>1413.73100455686</ele>
        <time>2018-07-14T04:20:00.009Z</time>
      </trkpt>
      <trkpt lat="37.232299" lon="-3.431218">
        <ele>1412</ele>
        <time>2018-07-14T04:20:03.009Z</time>
      </trkpt>
      <trkpt lat="37.232306" lon="-3.431149">
        <ele>1412</ele>
        <time>2018-07-14T04:20:06.009Z</time>
      </trkpt>
      <trkpt lat="37.232313" lon="-3.431077">
        <ele>1411</ele>
        <time>2018-07-14T04:20:09.009Z</time>
      </trkpt>
      <trkpt lat="37.232316" lon="-3.431008">
        <ele>1410</ele>
        <time>2018-07-14T04:20:12.009Z</time>
      </trkpt>
      <trkpt lat="37.232332" lon="-3.430954">
        <ele>1408</ele>
        <time>2018-07-14T04:20:19.009Z</time>
      </trkpt>
      <trkpt lat="37.232348" lon="-3.430915">
        <ele>1407</ele>
        <time>2018-07-14T04:20:25.009Z</time>
      </trkpt>
      <trkpt lat="37.232355" lon="-3.430856">
        <ele>1405</ele>
        <time>2018-07-14T04:20:30.009Z</time>
      </trkpt>
      <trkpt lat="37.232364" lon="-3.430802">
        <ele>1404</ele>
        <time>2018-07-14T04:20:35.009Z</time>
      </trkpt>
      <trkpt lat="37.23237" lon="-3.430755">
        <ele>1404</ele>
        <time>2018-07-14T04:20:40.009Z</time>
      </trkpt>
      <trkpt lat="37.232377" lon="-3.430711">
        <ele>1403</ele>
        <time>2018-07-14T04:20:44.009Z</time>
      </trkpt>
      <trkpt lat="37.232383" lon="-3.430655">
        <ele>1402.73099864322</ele>
        <time>2018-07-14T04:20:49.009Z</time>
      </trkpt>
      <trkpt lat="37.232388" lon="-3.430602">
        <ele>1402</ele>
        <time>2018-07-14T04:20:53.009Z</time>
      </trkpt>
      <trkpt lat="37.232397" lon="-3.43055">
        <ele>1401</ele>
        <time>2018-07-14T04:20:57.009Z</time>
      </trkpt>
      <trkpt lat="37.232387" lon="-3.430504">
        <ele>1400</ele>
        <time>2018-07-14T04:21:01.009Z</time>
      </trkpt>
      <trkpt lat="37.232395" lon="-3.430451">
        <ele>1399</ele>
        <time>2018-07-14T04:21:12.009Z</time>
      </trkpt>
      <trkpt lat="37.232379" lon="-3.43039">
        <ele>1397.73100455686</ele>
        <time>2018-07-14T04:21:18.009Z</time>
      </trkpt>
      <trkpt lat="37.232368" lon="-3.430327">
        <ele>1396.73099864322</ele>
        <time>2018-07-14T04:21:21.009Z</time>
      </trkpt>
      <trkpt lat="37.232352" lon="-3.430273">
        <ele>1395</ele>
        <time>2018-07-14T04:21:24.009Z</time>
      </trkpt>
      <trkpt lat="37.232336" lon="-3.430225">
        <ele>1394</ele>
        <time>2018-07-14T04:21:27.009Z</time>
      </trkpt>
      <trkpt lat="37.232327" lon="-3.430174">
        <ele>1393</ele>
        <time>2018-07-14T04:21:30.009Z</time>
      </trkpt>
      <trkpt lat="37.232311" lon="-3.430112">
        <ele>1392.73099864322</ele>
        <time>2018-07-14T04:21:33.009Z</time>
      </trkpt>
      <trkpt lat="37.232306" lon="-3.430043">
        <ele>1391</ele>
        <time>2018-07-14T04:21:36.009Z</time>
      </trkpt>
      <trkpt lat="37.232311" lon="-3.429981">
        <ele>1390</ele>
        <time>2018-07-14T04:21:39.009Z</time>
      </trkpt>
      <trkpt lat="37.232328" lon="-3.429919">
        <ele>1389</ele>
        <time>2018-07-14T04:21:42.009Z</time>
      </trkpt>
      <trkpt lat="37.23234" lon="-3.429853">
        <ele>1387.73099864322</ele>
        <time>2018-07-14T04:21:45.009Z</time>
      </trkpt>
      <trkpt lat="37.232361" lon="-3.429789">
        <ele>1386</ele>
        <time>2018-07-14T04:21:48.009Z</time>
      </trkpt>
      <trkpt lat="37.232366" lon="-3.429726">
        <ele>1384.73099864322</ele>
        <time>2018-07-14T04:21:51.009Z</time>
      </trkpt>
      <trkpt lat="37.232366" lon="-3.429668">
        <ele>1383</ele>
        <time>2018-07-14T04:21:54.009Z</time>
      </trkpt>
      <trkpt lat="37.232377" lon="-3.429617">
        <ele>1382</ele>
        <time>2018-07-14T04:21:57.009Z</time>
      </trkpt>
      <trkpt lat="37.232376" lon="-3.42956">
        <ele>1381</ele>
        <time>2018-07-14T04:22:01.009Z</time>
      </trkpt>
      <trkpt lat="37.232362" lon="-3.429513">
        <ele>1380</ele>
        <time>2018-07-14T04:22:06.009Z</time>
      </trkpt>
      <trkpt lat="37.232328" lon="-3.429495">
        <ele>1378</ele>
        <time>2018-07-14T04:22:11.009Z</time>
      </trkpt>
      <trkpt lat="37.232301" lon="-3.42946">
        <ele>1376</ele>
        <time>2018-07-14T04:22:16.009Z</time>
      </trkpt>
      <trkpt lat="37.232293" lon="-3.429409">
        <ele>1374</ele>
        <time>2018-07-14T04:22:23.009Z</time>
      </trkpt>
      <trkpt lat="37.232273" lon="-3.42937">
        <ele>1372.73100455686</ele>
        <time>2018-07-14T04:22:28.009Z</time>
      </trkpt>
      <trkpt lat="37.232277" lon="-3.429321">
        <ele>1371</ele>
        <time>2018-07-14T04:22:33.009Z</time>
      </trkpt>
      <trkpt lat="37.232275" lon="-3.429277">
        <ele>1369.73838953248</ele>
        <time>2018-07-14T04:22:37.009Z</time>
      </trkpt>
      <trkpt lat="37.232271" lon="-3.429232">
        <ele>1368</ele>
        <time>2018-07-14T04:22:41.009Z</time>
      </trkpt>
      <trkpt lat="37.232267" lon="-3.42918">
        <ele>1366.73100455686</ele>
        <time>2018-07-14T04:22:46.009Z</time>
      </trkpt>
      <trkpt lat="37.232248" lon="-3.429138">
        <ele>1365</ele>
        <time>2018-07-14T04:22:52.009Z</time>
      </trkpt>
      <trkpt lat="37.232228" lon="-3.429087">
        <ele>1363</ele>
        <time>2018-07-14T04:22:57.009Z</time>
      </trkpt>
      <trkpt lat="37.232226" lon="-3.429035">
        <ele>1361.73099864322</ele>
        <time>2018-07-14T04:23:01.009Z</time>
      </trkpt>
      <trkpt lat="37.232234" lon="-3.428989">
        <ele>1360</ele>
        <time>2018-07-14T04:23:06.009Z</time>
      </trkpt>
      <trkpt lat="37.232233" lon="-3.428939">
        <ele>1359</ele>
        <time>2018-07-14T04:23:10.009Z</time>
      </trkpt>
      <trkpt lat="37.23224" lon="-3.428887">
        <ele>1358</ele>
        <time>2018-07-14T04:23:14.009Z</time>
      </trkpt>
      <trkpt lat="37.232267" lon="-3.428832">
        <ele>1356</ele>
        <time>2018-07-14T04:23:19.009Z</time>
      </trkpt>
      <trkpt lat="37.232294" lon="-3.428784">
        <ele>1354.73100455686</ele>
        <time>2018-07-14T04:23:24.009Z</time>
      </trkpt>
      <trkpt lat="37.232325" lon="-3.428746">
        <ele>1354</ele>
        <time>2018-07-14T04:23:29.009Z</time>
      </trkpt>
      <trkpt lat="37.232416" lon="-3.428705">
        <ele>1349</ele>
        <time>2018-07-14T04:23:46.009Z</time>
      </trkpt>
      <trkpt lat="37.232478" lon="-3.428707">
        <ele>1347</ele>
        <time>2018-07-14T04:23:57.009Z</time>
      </trkpt>
      <trkpt lat="37.232524" lon="-3.428654">
        <ele>1345</ele>
        <time>2018-07-14T04:24:19.009Z</time>
      </trkpt>
      <trkpt lat="37.232605" lon="-3.428591">
        <ele>1342</ele>
        <time>2018-07-14T04:24:32.009Z</time>
      </trkpt>
      <trkpt lat="37.232674" lon="-3.428565">
        <ele>1339</ele>
        <time>2018-07-14T04:24:40.009Z</time>
      </trkpt>
      <trkpt lat="37.23273" lon="-3.428559">
        <ele>1336.73100455686</ele>
        <time>2018-07-14T04:24:44.009Z</time>
      </trkpt>
      <trkpt lat="37.232774" lon="-3.428532">
        <ele>1336</ele>
        <time>2018-07-14T04:24:47.009Z</time>
      </trkpt>
      <trkpt lat="37.232816" lon="-3.428488">
        <ele>1334.73100455686</ele>
        <time>2018-07-14T04:24:52.009Z</time>
      </trkpt>
      <trkpt lat="37.232878" lon="-3.42846">
        <ele>1333</ele>
        <time>2018-07-14T04:24:57.009Z</time>
      </trkpt>
      <trkpt lat="37.232916" lon="-3.428367">
        <ele>1331</ele>
        <time>2018-07-14T04:25:05.009Z</time>
      </trkpt>
      <trkpt lat="37.232862" lon="-3.428294">
        <ele>1328.73099864322</ele>
        <time>2018-07-14T04:25:11.009Z</time>
      </trkpt>
      <trkpt lat="37.232778" lon="-3.428225">
        <ele>1326.46200911372</ele>
        <time>2018-07-14T04:25:18.009Z</time>
      </trkpt>
      <trkpt lat="37.232714" lon="-3.428256">
        <ele>1323</ele>
        <time>2018-07-14T04:25:27.009Z</time>
      </trkpt>
      <trkpt lat="37.232653" lon="-3.428184">
        <ele>1321</ele>
        <time>2018-07-14T04:25:34.009Z</time>
      </trkpt>
      <trkpt lat="37.232598" lon="-3.428101">
        <ele>1320</ele>
        <time>2018-07-14T04:25:40.009Z</time>
      </trkpt>
      <trkpt lat="37.232528" lon="-3.428076">
        <ele>1317</ele>
        <time>2018-07-14T04:25:46.009Z</time>
      </trkpt>
      <trkpt lat="37.232464" lon="-3.428036">
        <ele>1315</ele>
        <time>2018-07-14T04:25:52.009Z</time>
      </trkpt>
      <trkpt lat="37.23241" lon="-3.427995">
        <ele>1314</ele>
        <time>2018-07-14T04:26:00.009Z</time>
      </trkpt>
      <trkpt lat="37.232322" lon="-3.427955">
        <ele>1311.73100455686</ele>
        <time>2018-07-14T04:26:14.009Z</time>
      </trkpt>
      <trkpt lat="37.232271" lon="-3.42789">
        <ele>1309</ele>
        <time>2018-07-14T04:26:19.009Z</time>
      </trkpt>
      <trkpt lat="37.232211" lon="-3.427856">
        <ele>1308</ele>
        <time>2018-07-14T04:26:23.009Z</time>
      </trkpt>
      <trkpt lat="37.232158" lon="-3.427825">
        <ele>1307</ele>
        <time>2018-07-14T04:26:27.009Z</time>
      </trkpt>
      <trkpt lat="37.232115" lon="-3.427784">
        <ele>1307</ele>
        <time>2018-07-14T04:26:30.009Z</time>
      </trkpt>
      <trkpt lat="37.232081" lon="-3.427736">
        <ele>1306.73099864322</ele>
        <time>2018-07-14T04:26:33.009Z</time>
      </trkpt>
      <trkpt lat="37.232042" lon="-3.427693">
        <ele>1306</ele>
        <time>2018-07-14T04:26:36.009Z</time>
      </trkpt>
      <trkpt lat="37.232032" lon="-3.427615">
        <ele>1304.73100455686</ele>
        <time>2018-07-14T04:26:40.009Z</time>
      </trkpt>
      <trkpt lat="37.232031" lon="-3.427534">
        <ele>1303.73100455686</ele>
        <time>2018-07-14T04:26:44.009Z</time>
      </trkpt>
      <trkpt lat="37.231994" lon="-3.427467">
        <ele>1302</ele>
        <time>2018-07-14T04:26:48.009Z</time>
      </trkpt>
      <trkpt lat="37.231962" lon="-3.427338">
        <ele>1299.73100455686</ele>
        <time>2018-07-14T04:26:58.009Z</time>
      </trkpt>
      <trkpt lat="37.231979" lon="-3.427221">
        <ele>1293.46199728643</ele>
        <time>2018-07-14T04:27:09.009Z</time>
      </trkpt>
      <trkpt lat="37.232034" lon="-3.427152">
        <ele>1292</ele>
        <time>2018-07-14T04:27:14.009Z</time>
      </trkpt>
      <trkpt lat="37.232047" lon="-3.427078">
        <ele>1291</ele>
        <time>2018-07-14T04:27:20.009Z</time>
      </trkpt>
      <trkpt lat="37.232045" lon="-3.426952">
        <ele>1289</ele>
        <time>2018-07-14T04:27:26.009Z</time>
      </trkpt>
      <trkpt lat="37.232069" lon="-3.42685">
        <ele>1288</ele>
        <time>2018-07-14T04:27:32.009Z</time>
      </trkpt>
      <trkpt lat="37.232078" lon="-3.42681">
        <ele>1288</ele>
        <time>2018-07-14T04:27:35.009Z</time>
      </trkpt>
      <trkpt lat="37.2321" lon="-3.426681">
        <ele>1286</ele>
        <time>2018-07-14T04:27:44.009Z</time>
      </trkpt>
      <trkpt lat="37.232133" lon="-3.426615">
        <ele>1285</ele>
        <time>2018-07-14T04:27:49.009Z</time>
      </trkpt>
      <trkpt lat="37.23214" lon="-3.42658">
        <ele>1285</ele>
        <time>2018-07-14T04:27:52.009Z</time>
      </trkpt>
      <trkpt lat="37.232146" lon="-3.42654">
        <ele>1285</ele>
        <time>2018-07-14T04:27:55.009Z</time>
      </trkpt>
      <trkpt lat="37.232139" lon="-3.42647">
        <ele>1285</ele>
        <time>2018-07-14T04:28:07.009Z</time>
      </trkpt>
      <trkpt lat="37.232143" lon="-3.426427">
        <ele>1284</ele>
        <time>2018-07-14T04:28:14.009Z</time>
      </trkpt>
      <trkpt lat="37.232145" lon="-3.426383">
        <ele>1284</ele>
        <time>2018-07-14T04:28:17.009Z</time>
      </trkpt>
      <trkpt lat="37.232163" lon="-3.42626">
        <ele>1282</ele>
        <time>2018-07-14T04:28:24.009Z</time>
      </trkpt>
      <trkpt lat="37.232207" lon="-3.426115">
        <ele>1282</ele>
        <time>2018-07-14T04:28:30.009Z</time>
      </trkpt>
      <trkpt lat="37.232263" lon="-3.426009">
        <ele>1281</ele>
        <time>2018-07-14T04:28:34.009Z</time>
      </trkpt>
      <trkpt lat="37.232293" lon="-3.425877">
        <ele>1280</ele>
        <time>2018-07-14T04:28:39.009Z</time>
      </trkpt>
      <trkpt lat="37.232332" lon="-3.425755">
        <ele>1279</ele>
        <time>2018-07-14T04:28:46.009Z</time>
      </trkpt>
      <trkpt lat="37.232342" lon="-3.42566">
        <ele>1278</ele>
        <time>2018-07-14T04:28:52.009Z</time>
      </trkpt>
      <trkpt lat="37.232354" lon="-3.425533">
        <ele>1277.73099864322</ele>
        <time>2018-07-14T04:29:03.009Z</time>
      </trkpt>
      <trkpt lat="37.23239" lon="-3.425414">
        <ele>1275</ele>
        <time>2018-07-14T04:29:10.009Z</time>
      </trkpt>
      <trkpt lat="37.232426" lon="-3.425296">
        <ele>1274</ele>
        <time>2018-07-14T04:29:20.009Z</time>
      </trkpt>
      <trkpt lat="37.23246" lon="-3.425201">
        <ele>1272.73099864322</ele>
        <time>2018-07-14T04:29:25.009Z</time>
      </trkpt>
      <trkpt lat="37.232486" lon="-3.425102">
        <ele>1272</ele>
        <time>2018-07-14T04:29:30.009Z</time>
      </trkpt>
      <trkpt lat="37.23252" lon="-3.425017">
        <ele>1272</ele>
        <time>2018-07-14T04:29:38.009Z</time>
      </trkpt>
      <trkpt lat="37.232562" lon="-3.42493">
        <ele>1270</ele>
        <time>2018-07-14T04:29:46.009Z</time>
      </trkpt>
      <trkpt lat="37.232604" lon="-3.424837">
        <ele>1269</ele>
        <time>2018-07-14T04:29:52.009Z</time>
      </trkpt>
      <trkpt lat="37.232652" lon="-3.424756">
        <ele>1268</ele>
        <time>2018-07-14T04:29:57.009Z</time>
      </trkpt>
      <trkpt lat="37.23271" lon="-3.424675">
        <ele>1267</ele>
        <time>2018-07-14T04:30:02.009Z</time>
      </trkpt>
      <trkpt lat="37.232752" lon="-3.424608">
        <ele>1266</ele>
        <time>2018-07-14T04:30:06.009Z</time>
      </trkpt>
      <trkpt lat="37.232802" lon="-3.424539">
        <ele>1265</ele>
        <time>2018-07-14T04:30:11.009Z</time>
      </trkpt>
      <trkpt lat="37.232839" lon="-3.424466">
        <ele>1264</ele>
        <time>2018-07-14T04:30:16.009Z</time>
      </trkpt>
      <trkpt lat="37.232855" lon="-3.424432">
        <ele>1263</ele>
        <time>2018-07-14T04:30:19.009Z</time>
      </trkpt>
      <trkpt lat="37.232871" lon="-3.424393">
        <ele>1263</ele>
        <time>2018-07-14T04:30:22.009Z</time>
      </trkpt>
      <trkpt lat="37.232887" lon="-3.424363">
        <ele>1263</ele>
        <time>2018-07-14T04:30:26.009Z</time>
      </trkpt>
      <trkpt lat="37.232915" lon="-3.424345">
        <ele>1262</ele>
        <time>2018-07-14T04:30:31.009Z</time>
      </trkpt>
      <trkpt lat="37.232934" lon="-3.424302">
        <ele>1261.26899544314</ele>
        <time>2018-07-14T04:30:34.009Z</time>
      </trkpt>
      <trkpt lat="37.232947" lon="-3.424268">
        <ele>1261</ele>
        <time>2018-07-14T04:30:36.009Z</time>
      </trkpt>
      <trkpt lat="37.232974" lon="-3.424246">
        <ele>1260</ele>
        <time>2018-07-14T04:30:41.009Z</time>
      </trkpt>
      <trkpt lat="37.233038" lon="-3.424141">
        <ele>1258</ele>
        <time>2018-07-14T04:30:51.009Z</time>
      </trkpt>
      <trkpt lat="37.233074" lon="-3.424062">
        <ele>1257</ele>
        <time>2018-07-14T04:30:58.009Z</time>
      </trkpt>
      <trkpt lat="37.233083" lon="-3.424028">
        <ele>1257</ele>
        <time>2018-07-14T04:31:02.009Z</time>
      </trkpt>
      <trkpt lat="37.233127" lon="-3.423991">
        <ele>1257</ele>
        <time>2018-07-14T04:31:13.009Z</time>
      </trkpt>
      <trkpt lat="37.233173" lon="-3.423969">
        <ele>1257</ele>
        <time>2018-07-14T04:31:19.009Z</time>
      </trkpt>
      <trkpt lat="37.233144" lon="-3.423893">
        <ele>1256</ele>
        <time>2018-07-14T04:31:24.009Z</time>
      </trkpt>
      <trkpt lat="37.233102" lon="-3.423848">
        <ele>1255</ele>
        <time>2018-07-14T04:31:29.009Z</time>
      </trkpt>
      <trkpt lat="37.233068" lon="-3.423788">
        <ele>1255</ele>
        <time>2018-07-14T04:31:36.009Z</time>
      </trkpt>
      <trkpt lat="37.233046" lon="-3.423728">
        <ele>1255</ele>
        <time>2018-07-14T04:31:43.009Z</time>
      </trkpt>
      <trkpt lat="37.233024" lon="-3.423692">
        <ele>1255</ele>
        <time>2018-07-14T04:31:49.009Z</time>
      </trkpt>
      <trkpt lat="37.233014" lon="-3.423651">
        <ele>1256</ele>
        <time>2018-07-14T04:31:54.009Z</time>
      </trkpt>
      <trkpt lat="37.233002" lon="-3.4236">
        <ele>1256.26899544314</ele>
        <time>2018-07-14T04:32:02.009Z</time>
      </trkpt>
      <trkpt lat="37.232997" lon="-3.42356">
        <ele>1257</ele>
        <time>2018-07-14T04:32:07.009Z</time>
      </trkpt>
      <trkpt lat="37.232981" lon="-3.423496">
        <ele>1257</ele>
        <time>2018-07-14T04:32:14.009Z</time>
      </trkpt>
      <trkpt lat="37.232955" lon="-3.423444">
        <ele>1258</ele>
        <time>2018-07-14T04:32:20.009Z</time>
      </trkpt>
      <trkpt lat="37.232934" lon="-3.423395">
        <ele>1259</ele>
        <time>2018-07-14T04:32:27.009Z</time>
      </trkpt>
      <trkpt lat="37.232917" lon="-3.423352">
        <ele>1259</ele>
        <time>2018-07-14T04:32:31.009Z</time>
      </trkpt>
      <trkpt lat="37.232887" lon="-3.423287">
        <ele>1259</ele>
        <time>2018-07-14T04:32:36.009Z</time>
      </trkpt>
      <trkpt lat="37.232866" lon="-3.423198">
        <ele>1261</ele>
        <time>2018-07-14T04:32:49.009Z</time>
      </trkpt>
      <trkpt lat="37.232845" lon="-3.423121">
        <ele>1263</ele>
        <time>2018-07-14T04:33:00.009Z</time>
      </trkpt>
      <trkpt lat="37.232819" lon="-3.423029">
        <ele>1264</ele>
        <time>2018-07-14T04:33:12.009Z</time>
      </trkpt>
      <trkpt lat="37.232774" lon="-3.422954">
        <ele>1265</ele>
        <time>2018-07-14T04:33:20.009Z</time>
      </trkpt>
      <trkpt lat="37.232731" lon="-3.422866">
        <ele>1266</ele>
        <time>2018-07-14T04:33:30.009Z</time>
      </trkpt>
      <trkpt lat="37.232707" lon="-3.422804">
        <ele>1265.26899544314</ele>
        <time>2018-07-14T04:33:36.009Z</time>
      </trkpt>
      <trkpt lat="37.232693" lon="-3.422747">
        <ele>1266</ele>
        <time>2018-07-14T04:33:41.009Z</time>
      </trkpt>
      <trkpt lat="37.232684" lon="-3.42269">
        <ele>1266</ele>
        <time>2018-07-14T04:33:45.009Z</time>
      </trkpt>
      <trkpt lat="37.232679" lon="-3.422638">
        <ele>1266</ele>
        <time>2018-07-14T04:33:48.009Z</time>
      </trkpt>
      <trkpt lat="37.232681" lon="-3.422587">
        <ele>1266.26900135678</ele>
        <time>2018-07-14T04:33:51.009Z</time>
      </trkpt>
      <trkpt lat="37.23269" lon="-3.422527">
        <ele>1268</ele>
        <time>2018-07-14T04:33:54.009Z</time>
      </trkpt>
      <trkpt lat="37.232698" lon="-3.422475">
        <ele>1269</ele>
        <time>2018-07-14T04:33:57.009Z</time>
      </trkpt>
      <trkpt lat="37.232679" lon="-3.422417">
        <ele>1269</ele>
        <time>2018-07-14T04:34:01.009Z</time>
      </trkpt>
      <trkpt lat="37.232662" lon="-3.422365">
        <ele>1269</ele>
        <time>2018-07-14T04:34:04.009Z</time>
      </trkpt>
      <trkpt lat="37.232652" lon="-3.422309">
        <ele>1269.26900135678</ele>
        <time>2018-07-14T04:34:07.009Z</time>
      </trkpt>
      <trkpt lat="37.232649" lon="-3.422255">
        <ele>1270</ele>
        <time>2018-07-14T04:34:10.009Z</time>
      </trkpt>
      <trkpt lat="37.232643" lon="-3.422188">
        <ele>1270</ele>
        <time>2018-07-14T04:34:13.009Z</time>
      </trkpt>
      <trkpt lat="37.232636" lon="-3.422121">
        <ele>1270</ele>
        <time>2018-07-14T04:34:16.009Z</time>
      </trkpt>
      <trkpt lat="37.232631" lon="-3.422061">
        <ele>1270</ele>
        <time>2018-07-14T04:34:19.009Z</time>
      </trkpt>
      <trkpt lat="37.232622" lon="-3.421997">
        <ele>1270</ele>
        <time>2018-07-14T04:34:22.009Z</time>
      </trkpt>
      <trkpt lat="37.232617" lon="-3.421926">
        <ele>1271</ele>
        <time>2018-07-14T04:34:25.009Z</time>
      </trkpt>
      <trkpt lat="37.232601" lon="-3.42187">
        <ele>1271</ele>
        <time>2018-07-14T04:34:28.009Z</time>
      </trkpt>
      <trkpt lat="37.232614" lon="-3.421809">
        <ele>1271</ele>
        <time>2018-07-14T04:34:32.009Z</time>
      </trkpt>
      <trkpt lat="37.232616" lon="-3.421745">
        <ele>1271</ele>
        <time>2018-07-14T04:34:36.009Z</time>
      </trkpt>
      <trkpt lat="37.232624" lon="-3.421692">
        <ele>1271</ele>
        <time>2018-07-14T04:34:39.009Z</time>
      </trkpt>
      <trkpt lat="37.232631" lon="-3.421636">
        <ele>1272</ele>
        <time>2018-07-14T04:34:42.009Z</time>
      </trkpt>
      <trkpt lat="37.232638" lon="-3.421585">
        <ele>1272</ele>
        <time>2018-07-14T04:34:45.009Z</time>
      </trkpt>
      <trkpt lat="37.232646" lon="-3.421535">
        <ele>1272.26899544314</ele>
        <time>2018-07-14T04:34:48.009Z</time>
      </trkpt>
      <trkpt lat="37.23266" lon="-3.421445">
        <ele>1273</ele>
        <time>2018-07-14T04:34:52.009Z</time>
      </trkpt>
      <trkpt lat="37.232691" lon="-3.421371">
        <ele>1273</ele>
        <time>2018-07-14T04:34:55.009Z</time>
      </trkpt>
      <trkpt lat="37.232739" lon="-3.421297">
        <ele>1273</ele>
        <time>2018-07-14T04:34:58.009Z</time>
      </trkpt>
      <trkpt lat="37.232784" lon="-3.421224">
        <ele>1273</ele>
        <time>2018-07-14T04:35:01.009Z</time>
      </trkpt>
      <trkpt lat="37.232832" lon="-3.421152">
        <ele>1273</ele>
        <time>2018-07-14T04:35:04.009Z</time>
      </trkpt>
      <trkpt lat="37.232888" lon="-3.421068">
        <ele>1273</ele>
        <time>2018-07-14T04:35:08.009Z</time>
      </trkpt>
      <trkpt lat="37.232939" lon="-3.420983">
        <ele>1272.73100455686</ele>
        <time>2018-07-14T04:35:12.009Z</time>
      </trkpt>
      <trkpt lat="37.23295" lon="-3.420875">
        <ele>1272</ele>
        <time>2018-07-14T04:35:16.009Z</time>
      </trkpt>
      <trkpt lat="37.232978" lon="-3.420786">
        <ele>1272</ele>
        <time>2018-07-14T04:35:19.009Z</time>
      </trkpt>
      <trkpt lat="37.233028" lon="-3.420715">
        <ele>1272</ele>
        <time>2018-07-14T04:35:23.009Z</time>
      </trkpt>
      <trkpt lat="37.233076" lon="-3.420677">
        <ele>1272</ele>
        <time>2018-07-14T04:35:27.009Z</time>
      </trkpt>
      <trkpt lat="37.233127" lon="-3.420651">
        <ele>1273</ele>
        <time>2018-07-14T04:35:31.009Z</time>
      </trkpt>
      <trkpt lat="37.23318" lon="-3.42063">
        <ele>1273</ele>
        <time>2018-07-14T04:35:35.009Z</time>
      </trkpt>
      <trkpt lat="37.233237" lon="-3.420604">
        <ele>1273.26900135678</ele>
        <time>2018-07-14T04:35:39.009Z</time>
      </trkpt>
      <trkpt lat="37.233291" lon="-3.420582">
        <ele>1273.26161384999</ele>
        <time>2018-07-14T04:35:42.009Z</time>
      </trkpt>
      <trkpt lat="37.233359" lon="-3.420564">
        <ele>1274</ele>
        <time>2018-07-14T04:35:45.009Z</time>
      </trkpt>
      <trkpt lat="37.233426" lon="-3.420545">
        <ele>1274.26899544314</ele>
        <time>2018-07-14T04:35:48.009Z</time>
      </trkpt>
      <trkpt lat="37.233504" lon="-3.420519">
        <ele>1275</ele>
        <time>2018-07-14T04:35:52.009Z</time>
      </trkpt>
      <trkpt lat="37.233569" lon="-3.420495">
        <ele>1275</ele>
        <time>2018-07-14T04:35:55.009Z</time>
      </trkpt>
      <trkpt lat="37.233631" lon="-3.420468">
        <ele>1275.26899544314</ele>
        <time>2018-07-14T04:35:58.009Z</time>
      </trkpt>
      <trkpt lat="37.233715" lon="-3.420443">
        <ele>1276</ele>
        <time>2018-07-14T04:36:02.009Z</time>
      </trkpt>
      <trkpt lat="37.233801" lon="-3.420412">
        <ele>1277</ele>
        <time>2018-07-14T04:36:06.009Z</time>
      </trkpt>
      <trkpt lat="37.233869" lon="-3.42037">
        <ele>1277.26900135678</ele>
        <time>2018-07-14T04:36:09.009Z</time>
      </trkpt>
      <trkpt lat="37.233952" lon="-3.420316">
        <ele>1278</ele>
        <time>2018-07-14T04:36:13.009Z</time>
      </trkpt>
      <trkpt lat="37.234022" lon="-3.420276">
        <ele>1277</ele>
        <time>2018-07-14T04:36:16.009Z</time>
      </trkpt>
      <trkpt lat="37.234097" lon="-3.420245">
        <ele>1277</ele>
        <time>2018-07-14T04:36:19.009Z</time>
      </trkpt>
      <trkpt lat="37.234188" lon="-3.420206">
        <ele>1277</ele>
        <time>2018-07-14T04:36:23.009Z</time>
      </trkpt>
      <trkpt lat="37.234254" lon="-3.420151">
        <ele>1276</ele>
        <time>2018-07-14T04:36:26.009Z</time>
      </trkpt>
      <trkpt lat="37.234287" lon="-3.420052">
        <ele>1275</ele>
        <time>2018-07-14T04:36:29.009Z</time>
      </trkpt>
      <trkpt lat="37.234267" lon="-3.419904">
        <ele>1274</ele>
        <time>2018-07-14T04:36:33.009Z</time>
      </trkpt>
      <trkpt lat="37.234229" lon="-3.41979">
        <ele>1273.73100455686</ele>
        <time>2018-07-14T04:36:36.009Z</time>
      </trkpt>
      <trkpt lat="37.234205" lon="-3.419681">
        <ele>1273</ele>
        <time>2018-07-14T04:36:39.009Z</time>
      </trkpt>
      <trkpt lat="37.234186" lon="-3.419578">
        <ele>1273</ele>
        <time>2018-07-14T04:36:42.009Z</time>
      </trkpt>
      <trkpt lat="37.23415" lon="-3.419479">
        <ele>1273</ele>
        <time>2018-07-14T04:36:45.009Z</time>
      </trkpt>
      <trkpt lat="37.234116" lon="-3.419366">
        <ele>1273</ele>
        <time>2018-07-14T04:36:48.009Z</time>
      </trkpt>
      <trkpt lat="37.234098" lon="-3.419241">
        <ele>1272</ele>
        <time>2018-07-14T04:36:51.009Z</time>
      </trkpt>
      <trkpt lat="37.234096" lon="-3.419125">
        <ele>1271</ele>
        <time>2018-07-14T04:36:54.009Z</time>
      </trkpt>
      <trkpt lat="37.234087" lon="-3.418985">
        <ele>1271</ele>
        <time>2018-07-14T04:36:58.009Z</time>
      </trkpt>
      <trkpt lat="37.234074" lon="-3.418852">
        <ele>1270</ele>
        <time>2018-07-14T04:37:02.009Z</time>
      </trkpt>
      <trkpt lat="37.234054" lon="-3.418707">
        <ele>1270</ele>
        <time>2018-07-14T04:37:06.009Z</time>
      </trkpt>
      <trkpt lat="37.234052" lon="-3.418559">
        <ele>1268.73100455686</ele>
        <time>2018-07-14T04:37:10.009Z</time>
      </trkpt>
      <trkpt lat="37.234039" lon="-3.41844">
        <ele>1268</ele>
        <time>2018-07-14T04:37:13.009Z</time>
      </trkpt>
      <trkpt lat="37.234025" lon="-3.418286">
        <ele>1267.73099864322</ele>
        <time>2018-07-14T04:37:17.009Z</time>
      </trkpt>
      <trkpt lat="37.234001" lon="-3.418125">
        <ele>1266</ele>
        <time>2018-07-14T04:37:21.009Z</time>
      </trkpt>
      <trkpt lat="37.233957" lon="-3.418007">
        <ele>1265.73100455686</ele>
        <time>2018-07-14T04:37:24.009Z</time>
      </trkpt>
      <trkpt lat="37.233906" lon="-3.417892">
        <ele>1265</ele>
        <time>2018-07-14T04:37:27.009Z</time>
      </trkpt>
      <trkpt lat="37.233854" lon="-3.417758">
        <ele>1264</ele>
        <time>2018-07-14T04:37:31.009Z</time>
      </trkpt>
      <trkpt lat="37.233863" lon="-3.417604">
        <ele>1263</ele>
        <time>2018-07-14T04:37:35.009Z</time>
      </trkpt>
      <trkpt lat="37.233871" lon="-3.417464">
        <ele>1262</ele>
        <time>2018-07-14T04:37:39.009Z</time>
      </trkpt>
      <trkpt lat="37.233895" lon="-3.417323">
        <ele>1260.73099864322</ele>
        <time>2018-07-14T04:37:43.009Z</time>
      </trkpt>
      <trkpt lat="37.233908" lon="-3.417212">
        <ele>1260</ele>
        <time>2018-07-14T04:37:46.009Z</time>
      </trkpt>
      <trkpt lat="37.233907" lon="-3.417096">
        <ele>1258.73099864322</ele>
        <time>2018-07-14T04:37:49.009Z</time>
      </trkpt>
      <trkpt lat="37.233872" lon="-3.416989">
        <ele>1257</ele>
        <time>2018-07-14T04:37:52.009Z</time>
      </trkpt>
      <trkpt lat="37.233822" lon="-3.416887">
        <ele>1255.73099864322</ele>
        <time>2018-07-14T04:37:55.009Z</time>
      </trkpt>
      <trkpt lat="37.23378" lon="-3.416782">
        <ele>1254.73100455686</ele>
        <time>2018-07-14T04:37:58.009Z</time>
      </trkpt>
      <trkpt lat="37.233726" lon="-3.416686">
        <ele>1254</ele>
        <time>2018-07-14T04:38:01.009Z</time>
      </trkpt>
      <trkpt lat="37.233675" lon="-3.416592">
        <ele>1252.73100455686</ele>
        <time>2018-07-14T04:38:04.009Z</time>
      </trkpt>
      <trkpt lat="37.233613" lon="-3.416506">
        <ele>1251</ele>
        <time>2018-07-14T04:38:07.009Z</time>
      </trkpt>
      <trkpt lat="37.233555" lon="-3.416412">
        <ele>1250</ele>
        <time>2018-07-14T04:38:10.009Z</time>
      </trkpt>
      <trkpt lat="37.233514" lon="-3.416318">
        <ele>1249</ele>
        <time>2018-07-14T04:38:13.009Z</time>
      </trkpt>
      <trkpt lat="37.233549" lon="-3.416188">
        <ele>1248</ele>
        <time>2018-07-14T04:38:17.009Z</time>
      </trkpt>
      <trkpt lat="37.233607" lon="-3.416114">
        <ele>1247</ele>
        <time>2018-07-14T04:38:20.009Z</time>
      </trkpt>
      <trkpt lat="37.233676" lon="-3.416002">
        <ele>1246</ele>
        <time>2018-07-14T04:38:24.009Z</time>
      </trkpt>
      <trkpt lat="37.233724" lon="-3.415916">
        <ele>1246</ele>
        <time>2018-07-14T04:38:27.009Z</time>
      </trkpt>
      <trkpt lat="37.233775" lon="-3.415822">
        <ele>1245</ele>
        <time>2018-07-14T04:38:30.009Z</time>
      </trkpt>
      <trkpt lat="37.233837" lon="-3.4157">
        <ele>1244</ele>
        <time>2018-07-14T04:38:34.009Z</time>
      </trkpt>
      <trkpt lat="37.233882" lon="-3.415604">
        <ele>1243</ele>
        <time>2018-07-14T04:38:37.009Z</time>
      </trkpt>
      <trkpt lat="37.233942" lon="-3.415494">
        <ele>1243</ele>
        <time>2018-07-14T04:38:41.009Z</time>
      </trkpt>
      <trkpt lat="37.233994" lon="-3.415398">
        <ele>1241.7848058491</ele>
        <time>2018-07-14T04:38:44.009Z</time>
      </trkpt>
      <trkpt lat="37.234034" lon="-3.415326">
        <ele>1240.02019692308</ele>
        <time>2018-07-14T04:38:46.009Z</time>
      </trkpt>
      <trkpt lat="37.234062" lon="-3.415282">
        <ele>1238</ele>
        <time>2018-07-14T04:39:01.009Z</time>
      </trkpt>
      <trkpt lat="37.234012" lon="-3.415211">
        <ele>1236</ele>
        <time>2018-07-14T04:39:21.009Z</time>
      </trkpt>
      <trkpt lat="37.233995" lon="-3.415113">
        <ele>1237</ele>
        <time>2018-07-14T04:39:24.009Z</time>
      </trkpt>
      <trkpt lat="37.233994" lon="-3.415003">
        <ele>1237</ele>
        <time>2018-07-14T04:39:27.009Z</time>
      </trkpt>
      <trkpt lat="37.233996" lon="-3.414882">
        <ele>1236</ele>
        <time>2018-07-14T04:39:30.009Z</time>
      </trkpt>
      <trkpt lat="37.233987" lon="-3.414764">
        <ele>1235.73099864322</ele>
        <time>2018-07-14T04:39:33.009Z</time>
      </trkpt>
      <trkpt lat="37.233986" lon="-3.414639">
        <ele>1235</ele>
        <time>2018-07-14T04:39:36.009Z</time>
      </trkpt>
      <trkpt lat="37.23398" lon="-3.414521">
        <ele>1235</ele>
        <time>2018-07-14T04:39:39.009Z</time>
      </trkpt>
      <trkpt lat="37.233963" lon="-3.414404">
        <ele>1235</ele>
        <time>2018-07-14T04:39:42.009Z</time>
      </trkpt>
      <trkpt lat="37.233951" lon="-3.41428">
        <ele>1234</ele>
        <time>2018-07-14T04:39:45.009Z</time>
      </trkpt>
      <trkpt lat="37.233942" lon="-3.41416">
        <ele>1234</ele>
        <time>2018-07-14T04:39:48.009Z</time>
      </trkpt>
      <trkpt lat="37.233937" lon="-3.414037">
        <ele>1233</ele>
        <time>2018-07-14T04:39:51.009Z</time>
      </trkpt>
      <trkpt lat="37.233936" lon="-3.413915">
        <ele>1232.73100455686</ele>
        <time>2018-07-14T04:39:54.009Z</time>
      </trkpt>
      <trkpt lat="37.233928" lon="-3.413795">
        <ele>1232</ele>
        <time>2018-07-14T04:39:57.009Z</time>
      </trkpt>
      <trkpt lat="37.233922" lon="-3.413681">
        <ele>1231</ele>
        <time>2018-07-14T04:40:00.009Z</time>
      </trkpt>
      <trkpt lat="37.233921" lon="-3.413574">
        <ele>1231</ele>
        <time>2018-07-14T04:40:03.009Z</time>
      </trkpt>
      <trkpt lat="37.233923" lon="-3.413464">
        <ele>1230</ele>
        <time>2018-07-14T04:40:06.009Z</time>
      </trkpt>
      <trkpt lat="37.233919" lon="-3.413364">
        <ele>1230</ele>
        <time>2018-07-14T04:40:09.009Z</time>
      </trkpt>
      <trkpt lat="37.233915" lon="-3.413262">
        <ele>1229</ele>
        <time>2018-07-14T04:40:12.009Z</time>
      </trkpt>
      <trkpt lat="37.233911" lon="-3.413154">
        <ele>1228</ele>
        <time>2018-07-14T04:40:15.009Z</time>
      </trkpt>
      <trkpt lat="37.233912" lon="-3.413045">
        <ele>1228</ele>
        <time>2018-07-14T04:40:18.009Z</time>
      </trkpt>
      <trkpt lat="37.233918" lon="-3.412936">
        <ele>1227</ele>
        <time>2018-07-14T04:40:21.009Z</time>
      </trkpt>
      <trkpt lat="37.233918" lon="-3.412859">
        <ele>1227</ele>
        <time>2018-07-14T04:40:23.009Z</time>
      </trkpt>
      <trkpt lat="37.233913" lon="-3.412783">
        <ele>1226</ele>
        <time>2018-07-14T04:40:25.009Z</time>
      </trkpt>
      <trkpt lat="37.233908" lon="-3.412708">
        <ele>1226</ele>
        <time>2018-07-14T04:40:27.009Z</time>
      </trkpt>
      <trkpt lat="37.233899" lon="-3.412635">
        <ele>1226</ele>
        <time>2018-07-14T04:40:29.009Z</time>
      </trkpt>
      <trkpt lat="37.233897" lon="-3.412561">
        <ele>1225</ele>
        <time>2018-07-14T04:40:31.009Z</time>
      </trkpt>
      <trkpt lat="37.233897" lon="-3.41249">
        <ele>1224</ele>
        <time>2018-07-14T04:40:33.009Z</time>
      </trkpt>
      <trkpt lat="37.233901" lon="-3.412418">
        <ele>1223.73099864322</ele>
        <time>2018-07-14T04:40:35.009Z</time>
      </trkpt>
      <trkpt lat="37.233888" lon="-3.412343">
        <ele>1222.73099864322</ele>
        <time>2018-07-14T04:40:37.009Z</time>
      </trkpt>
      <trkpt lat="37.233885" lon="-3.412266">
        <ele>1221.73099864322</ele>
        <time>2018-07-14T04:40:39.009Z</time>
      </trkpt>
      <trkpt lat="37.233879" lon="-3.412189">
        <ele>1221</ele>
        <time>2018-07-14T04:40:41.009Z</time>
      </trkpt>
      <trkpt lat="37.233872" lon="-3.41211">
        <ele>1220</ele>
        <time>2018-07-14T04:40:43.009Z</time>
      </trkpt>
      <trkpt lat="37.233865" lon="-3.41203">
        <ele>1219.73099864322</ele>
        <time>2018-07-14T04:40:45.009Z</time>
      </trkpt>
      <trkpt lat="37.233861" lon="-3.411953">
        <ele>1218.73099864322</ele>
        <time>2018-07-14T04:40:47.009Z</time>
      </trkpt>
      <trkpt lat="37.233857" lon="-3.411873">
        <ele>1218</ele>
        <time>2018-07-14T04:40:49.009Z</time>
      </trkpt>
      <trkpt lat="37.23384" lon="-3.411799">
        <ele>1217</ele>
        <time>2018-07-14T04:40:51.009Z</time>
      </trkpt>
      <trkpt lat="37.233818" lon="-3.411725">
        <ele>1216.73099864322</ele>
        <time>2018-07-14T04:40:53.009Z</time>
      </trkpt>
      <trkpt lat="37.233801" lon="-3.411649">
        <ele>1215</ele>
        <time>2018-07-14T04:40:55.009Z</time>
      </trkpt>
      <trkpt lat="37.233779" lon="-3.411569">
        <ele>1214</ele>
        <time>2018-07-14T04:40:57.009Z</time>
      </trkpt>
      <trkpt lat="37.233756" lon="-3.411493">
        <ele>1213</ele>
        <time>2018-07-14T04:40:59.009Z</time>
      </trkpt>
      <trkpt lat="37.233738" lon="-3.411416">
        <ele>1213</ele>
        <time>2018-07-14T04:41:01.009Z</time>
      </trkpt>
      <trkpt lat="37.233721" lon="-3.411337">
        <ele>1213</ele>
        <time>2018-07-14T04:41:03.009Z</time>
      </trkpt>
      <trkpt lat="37.233712" lon="-3.411262">
        <ele>1212.73099864322</ele>
        <time>2018-07-14T04:41:05.009Z</time>
      </trkpt>
      <trkpt lat="37.233706" lon="-3.411189">
        <ele>1212</ele>
        <time>2018-07-14T04:41:07.009Z</time>
      </trkpt>
      <trkpt lat="37.2337" lon="-3.411112">
        <ele>1212</ele>
        <time>2018-07-14T04:41:09.009Z</time>
      </trkpt>
      <trkpt lat="37.233697" lon="-3.411036">
        <ele>1212</ele>
        <time>2018-07-14T04:41:11.009Z</time>
      </trkpt>
      <trkpt lat="37.233698" lon="-3.410957">
        <ele>1211</ele>
        <time>2018-07-14T04:41:13.009Z</time>
      </trkpt>
      <trkpt lat="37.233697" lon="-3.410879">
        <ele>1210</ele>
        <time>2018-07-14T04:41:15.009Z</time>
      </trkpt>
      <trkpt lat="37.2337" lon="-3.410804">
        <ele>1210</ele>
        <time>2018-07-14T04:41:17.009Z</time>
      </trkpt>
      <trkpt lat="37.233702" lon="-3.410727">
        <ele>1210</ele>
        <time>2018-07-14T04:41:19.009Z</time>
      </trkpt>
      <trkpt lat="37.233703" lon="-3.410652">
        <ele>1209</ele>
        <time>2018-07-14T04:41:21.009Z</time>
      </trkpt>
      <trkpt lat="37.233706" lon="-3.410574">
        <ele>1209</ele>
        <time>2018-07-14T04:41:23.009Z</time>
      </trkpt>
      <trkpt lat="37.233708" lon="-3.410501">
        <ele>1209</ele>
        <time>2018-07-14T04:41:25.009Z</time>
      </trkpt>
      <trkpt lat="37.233717" lon="-3.41043">
        <ele>1209</ele>
        <time>2018-07-14T04:41:27.009Z</time>
      </trkpt>
      <trkpt lat="37.233728" lon="-3.410364">
        <ele>1208.73099864322</ele>
        <time>2018-07-14T04:41:29.009Z</time>
      </trkpt>
      <trkpt lat="37.23373" lon="-3.410293">
        <ele>1208</ele>
        <time>2018-07-14T04:41:31.009Z</time>
      </trkpt>
      <trkpt lat="37.233732" lon="-3.41022">
        <ele>1208</ele>
        <time>2018-07-14T04:41:33.009Z</time>
      </trkpt>
      <trkpt lat="37.23374" lon="-3.410148">
        <ele>1207</ele>
        <time>2018-07-14T04:41:35.009Z</time>
      </trkpt>
      <trkpt lat="37.233747" lon="-3.410077">
        <ele>1207</ele>
        <time>2018-07-14T04:41:37.009Z</time>
      </trkpt>
      <trkpt lat="37.233755" lon="-3.41001">
        <ele>1206.73099864322</ele>
        <time>2018-07-14T04:41:39.009Z</time>
      </trkpt>
      <trkpt lat="37.233761" lon="-3.409938">
        <ele>1206</ele>
        <time>2018-07-14T04:41:41.009Z</time>
      </trkpt>
      <trkpt lat="37.233768" lon="-3.409866">
        <ele>1205</ele>
        <time>2018-07-14T04:41:43.009Z</time>
      </trkpt>
      <trkpt lat="37.233777" lon="-3.409792">
        <ele>1205</ele>
        <time>2018-07-14T04:41:45.009Z</time>
      </trkpt>
      <trkpt lat="37.233791" lon="-3.409717">
        <ele>1205</ele>
        <time>2018-07-14T04:41:47.009Z</time>
      </trkpt>
      <trkpt lat="37.233808" lon="-3.409637">
        <ele>1204</ele>
        <time>2018-07-14T04:41:49.009Z</time>
      </trkpt>
      <trkpt lat="37.233817" lon="-3.409562">
        <ele>1204</ele>
        <time>2018-07-14T04:41:51.009Z</time>
      </trkpt>
      <trkpt lat="37.233826" lon="-3.409493">
        <ele>1203.73099864322</ele>
        <time>2018-07-14T04:41:53.009Z</time>
      </trkpt>
      <trkpt lat="37.233834" lon="-3.40942">
        <ele>1203</ele>
        <time>2018-07-14T04:41:55.009Z</time>
      </trkpt>
      <trkpt lat="37.233836" lon="-3.409349">
        <ele>1202.73099864322</ele>
        <time>2018-07-14T04:41:57.009Z</time>
      </trkpt>
      <trkpt lat="37.233823" lon="-3.409278">
        <ele>1202</ele>
        <time>2018-07-14T04:41:59.009Z</time>
      </trkpt>
      <trkpt lat="37.233802" lon="-3.409209">
        <ele>1201</ele>
        <time>2018-07-14T04:42:01.009Z</time>
      </trkpt>
      <trkpt lat="37.233767" lon="-3.409142">
        <ele>1201</ele>
        <time>2018-07-14T04:42:03.009Z</time>
      </trkpt>
      <trkpt lat="37.233734" lon="-3.409081">
        <ele>1200</ele>
        <time>2018-07-14T04:42:05.009Z</time>
      </trkpt>
      <trkpt lat="37.233702" lon="-3.409019">
        <ele>1199.73099864322</ele>
        <time>2018-07-14T04:42:07.009Z</time>
      </trkpt>
      <trkpt lat="37.233666" lon="-3.408953">
        <ele>1198.73099864322</ele>
        <time>2018-07-14T04:42:09.009Z</time>
      </trkpt>
      <trkpt lat="37.233635" lon="-3.408887">
        <ele>1198</ele>
        <time>2018-07-14T04:42:11.009Z</time>
      </trkpt>
      <trkpt lat="37.233605" lon="-3.408821">
        <ele>1197</ele>
        <time>2018-07-14T04:42:13.009Z</time>
      </trkpt>
      <trkpt lat="37.233571" lon="-3.408756">
        <ele>1196.73099864322</ele>
        <time>2018-07-14T04:42:15.009Z</time>
      </trkpt>
      <trkpt lat="37.233537" lon="-3.408693">
        <ele>1196</ele>
        <time>2018-07-14T04:42:17.009Z</time>
      </trkpt>
      <trkpt lat="37.233508" lon="-3.408628">
        <ele>1195.73099864322</ele>
        <time>2018-07-14T04:42:19.009Z</time>
      </trkpt>
      <trkpt lat="37.233477" lon="-3.408562">
        <ele>1195</ele>
        <time>2018-07-14T04:42:21.009Z</time>
      </trkpt>
      <trkpt lat="37.233449" lon="-3.408497">
        <ele>1195</ele>
        <time>2018-07-14T04:42:23.009Z</time>
      </trkpt>
      <trkpt lat="37.233421" lon="-3.408433">
        <ele>1195</ele>
        <time>2018-07-14T04:42:25.009Z</time>
      </trkpt>
      <trkpt lat="37.233402" lon="-3.408366">
        <ele>1194</ele>
        <time>2018-07-14T04:42:27.009Z</time>
      </trkpt>
      <trkpt lat="37.233377" lon="-3.408303">
        <ele>1194</ele>
        <time>2018-07-14T04:42:29.009Z</time>
      </trkpt>
      <trkpt lat="37.233349" lon="-3.408244">
        <ele>1194</ele>
        <time>2018-07-14T04:42:31.009Z</time>
      </trkpt>
      <trkpt lat="37.233302" lon="-3.40816">
        <ele>1193</ele>
        <time>2018-07-14T04:42:34.009Z</time>
      </trkpt>
      <trkpt lat="37.233274" lon="-3.408099">
        <ele>1192</ele>
        <time>2018-07-14T04:42:36.009Z</time>
      </trkpt>
      <trkpt lat="37.233249" lon="-3.408036">
        <ele>1191.73100455686</ele>
        <time>2018-07-14T04:42:38.009Z</time>
      </trkpt>
      <trkpt lat="37.23324" lon="-3.407965">
        <ele>1190.73100455686</ele>
        <time>2018-07-14T04:42:40.009Z</time>
      </trkpt>
      <trkpt lat="37.233243" lon="-3.4079">
        <ele>1190</ele>
        <time>2018-07-14T04:42:42.009Z</time>
      </trkpt>
      <trkpt lat="37.233262" lon="-3.407834">
        <ele>1189</ele>
        <time>2018-07-14T04:42:44.009Z</time>
      </trkpt>
      <trkpt lat="37.233285" lon="-3.407773">
        <ele>1189</ele>
        <time>2018-07-14T04:42:46.009Z</time>
      </trkpt>
      <trkpt lat="37.233316" lon="-3.407704">
        <ele>1189</ele>
        <time>2018-07-14T04:42:49.009Z</time>
      </trkpt>
      <trkpt lat="37.233349" lon="-3.407605">
        <ele>1188</ele>
        <time>2018-07-14T04:42:53.009Z</time>
      </trkpt>
      <trkpt lat="37.23339" lon="-3.407526">
        <ele>1187.73100455686</ele>
        <time>2018-07-14T04:42:56.009Z</time>
      </trkpt>
      <trkpt lat="37.233418" lon="-3.407436">
        <ele>1186</ele>
        <time>2018-07-14T04:42:59.009Z</time>
      </trkpt>
      <trkpt lat="37.233388" lon="-3.407357">
        <ele>1186</ele>
        <time>2018-07-14T04:43:02.009Z</time>
      </trkpt>
      <trkpt lat="37.233307" lon="-3.407332">
        <ele>1186</ele>
        <time>2018-07-14T04:43:05.009Z</time>
      </trkpt>
      <trkpt lat="37.233326" lon="-3.407229">
        <ele>1184</ele>
        <time>2018-07-14T04:43:12.009Z</time>
      </trkpt>
      <trkpt lat="37.233374" lon="-3.407149">
        <ele>1183.73099864322</ele>
        <time>2018-07-14T04:43:15.009Z</time>
      </trkpt>
      <trkpt lat="37.233398" lon="-3.407051">
        <ele>1183</ele>
        <time>2018-07-14T04:43:20.009Z</time>
      </trkpt>
      <trkpt lat="37.233355" lon="-3.406966">
        <ele>1182</ele>
        <time>2018-07-14T04:43:26.009Z</time>
      </trkpt>
      <trkpt lat="37.233315" lon="-3.406898">
        <ele>1181</ele>
        <time>2018-07-14T04:43:41.009Z</time>
      </trkpt>
      <trkpt lat="37.233254" lon="-3.406833">
        <ele>1180.26899544314</ele>
        <time>2018-07-14T04:43:46.009Z</time>
      </trkpt>
      <trkpt lat="37.233197" lon="-3.406786">
        <ele>1180.2663388546</ele>
        <time>2018-07-14T04:44:03.009Z</time>
      </trkpt>
      <trkpt lat="37.233161" lon="-3.406866">
        <ele>1179</ele>
        <time>2018-07-14T04:45:13.009Z</time>
      </trkpt>
      <trkpt lat="37.23324" lon="-3.406908">
        <ele>1181</ele>
        <time>2018-07-14T04:46:16.009Z</time>
      </trkpt>
      <trkpt lat="37.233314" lon="-3.406975">
        <ele>1180</ele>
        <time>2018-07-14T04:46:22.009Z</time>
      </trkpt>
      <trkpt lat="37.233353" lon="-3.407057">
        <ele>1180</ele>
        <time>2018-07-14T04:46:26.009Z</time>
      </trkpt>
      <trkpt lat="37.233305" lon="-3.407158">
        <ele>1180</ele>
        <time>2018-07-14T04:46:33.009Z</time>
      </trkpt>
      <trkpt lat="37.233206" lon="-3.407149">
        <ele>1180</ele>
        <time>2018-07-14T04:46:36.009Z</time>
      </trkpt>
      <trkpt lat="37.233092" lon="-3.407176">
        <ele>1180.26900135678</ele>
        <time>2018-07-14T04:46:39.009Z</time>
      </trkpt>
      <trkpt lat="37.232984" lon="-3.40721">
        <ele>1181</ele>
        <time>2018-07-14T04:46:42.009Z</time>
      </trkpt>
      <trkpt lat="37.232887" lon="-3.407238">
        <ele>1180</ele>
        <time>2018-07-14T04:46:45.009Z</time>
      </trkpt>
      <trkpt lat="37.2328" lon="-3.407275">
        <ele>1180</ele>
        <time>2018-07-14T04:46:48.009Z</time>
      </trkpt>
      <trkpt lat="37.232697" lon="-3.407292">
        <ele>1180</ele>
        <time>2018-07-14T04:46:51.009Z</time>
      </trkpt>
      <trkpt lat="37.232595" lon="-3.407303">
        <ele>1180</ele>
        <time>2018-07-14T04:46:54.009Z</time>
      </trkpt>
      <trkpt lat="37.232488" lon="-3.407318">
        <ele>1181</ele>
        <time>2018-07-14T04:46:57.009Z</time>
      </trkpt>
      <trkpt lat="37.232395" lon="-3.407347">
        <ele>1181</ele>
        <time>2018-07-14T04:47:00.009Z</time>
      </trkpt>
      <trkpt lat="37.232301" lon="-3.407346">
        <ele>1180.73099864322</ele>
        <time>2018-07-14T04:47:03.009Z</time>
      </trkpt>
      <trkpt lat="37.232198" lon="-3.407334">
        <ele>1180</ele>
        <time>2018-07-14T04:47:06.009Z</time>
      </trkpt>
      <trkpt lat="37.232091" lon="-3.407344">
        <ele>1179</ele>
        <time>2018-07-14T04:47:09.009Z</time>
      </trkpt>
      <trkpt lat="37.231999" lon="-3.407362">
        <ele>1178.73100455686</ele>
        <time>2018-07-14T04:47:12.009Z</time>
      </trkpt>
      <trkpt lat="37.23191" lon="-3.407362">
        <ele>1178</ele>
        <time>2018-07-14T04:47:15.009Z</time>
      </trkpt>
      <trkpt lat="37.231815" lon="-3.407348">
        <ele>1179</ele>
        <time>2018-07-14T04:47:18.009Z</time>
      </trkpt>
      <trkpt lat="37.231753" lon="-3.40734">
        <ele>1179</ele>
        <time>2018-07-14T04:47:20.009Z</time>
      </trkpt>
      <trkpt lat="37.231672" lon="-3.407337">
        <ele>1179</ele>
        <time>2018-07-14T04:47:23.009Z</time>
      </trkpt>
      <trkpt lat="37.2316" lon="-3.407342">
        <ele>1179</ele>
        <time>2018-07-14T04:47:26.009Z</time>
      </trkpt>
      <trkpt lat="37.231524" lon="-3.407358">
        <ele>1178</ele>
        <time>2018-07-14T04:47:29.009Z</time>
      </trkpt>
      <trkpt lat="37.231471" lon="-3.407394">
        <ele>1177.73099864322</ele>
        <time>2018-07-14T04:47:31.009Z</time>
      </trkpt>
      <trkpt lat="37.231414" lon="-3.40744">
        <ele>1177</ele>
        <time>2018-07-14T04:47:33.009Z</time>
      </trkpt>
      <trkpt lat="37.231367" lon="-3.407494">
        <ele>1177.73099864322</ele>
        <time>2018-07-14T04:47:35.009Z</time>
      </trkpt>
      <trkpt lat="37.231322" lon="-3.40755">
        <ele>1177</ele>
        <time>2018-07-14T04:47:37.009Z</time>
      </trkpt>
      <trkpt lat="37.231278" lon="-3.407612">
        <ele>1176.73099864322</ele>
        <time>2018-07-14T04:47:39.009Z</time>
      </trkpt>
      <trkpt lat="37.231206" lon="-3.407692">
        <ele>1176</ele>
        <time>2018-07-14T04:47:42.009Z</time>
      </trkpt>
      <trkpt lat="37.231143" lon="-3.407774">
        <ele>1175</ele>
        <time>2018-07-14T04:47:45.009Z</time>
      </trkpt>
      <trkpt lat="37.231078" lon="-3.40786">
        <ele>1174</ele>
        <time>2018-07-14T04:47:48.009Z</time>
      </trkpt>
      <trkpt lat="37.230987" lon="-3.407938">
        <ele>1174</ele>
        <time>2018-07-14T04:47:52.009Z</time>
      </trkpt>
      <trkpt lat="37.230911" lon="-3.408002">
        <ele>1173</ele>
        <time>2018-07-14T04:47:55.009Z</time>
      </trkpt>
      <trkpt lat="37.230835" lon="-3.408084">
        <ele>1173</ele>
        <time>2018-07-14T04:47:58.009Z</time>
      </trkpt>
      <trkpt lat="37.230763" lon="-3.408172">
        <ele>1173</ele>
        <time>2018-07-14T04:48:01.009Z</time>
      </trkpt>
      <trkpt lat="37.230696" lon="-3.408237">
        <ele>1173</ele>
        <time>2018-07-14T04:48:04.009Z</time>
      </trkpt>
      <trkpt lat="37.230609" lon="-3.408307">
        <ele>1173</ele>
        <time>2018-07-14T04:48:08.009Z</time>
      </trkpt>
      <trkpt lat="37.23049" lon="-3.408306">
        <ele>1174</ele>
        <time>2018-07-14T04:48:12.009Z</time>
      </trkpt>
      <trkpt lat="37.230375" lon="-3.408301">
        <ele>1174</ele>
        <time>2018-07-14T04:48:16.009Z</time>
      </trkpt>
      <trkpt lat="37.230274" lon="-3.40834">
        <ele>1173</ele>
        <time>2018-07-14T04:48:20.009Z</time>
      </trkpt>
      <trkpt lat="37.230227" lon="-3.408483">
        <ele>1172</ele>
        <time>2018-07-14T04:48:24.009Z</time>
      </trkpt>
      <trkpt lat="37.230191" lon="-3.408602">
        <ele>1170.73099864322</ele>
        <time>2018-07-14T04:48:27.009Z</time>
      </trkpt>
      <trkpt lat="37.230112" lon="-3.408681">
        <ele>1170</ele>
        <time>2018-07-14T04:48:30.009Z</time>
      </trkpt>
      <trkpt lat="37.230027" lon="-3.4087">
        <ele>1170</ele>
        <time>2018-07-14T04:48:33.009Z</time>
      </trkpt>
      <trkpt lat="37.229931" lon="-3.408672">
        <ele>1168.73100455686</ele>
        <time>2018-07-14T04:48:36.009Z</time>
      </trkpt>
      <trkpt lat="37.229845" lon="-3.408641">
        <ele>1168</ele>
        <time>2018-07-14T04:48:39.009Z</time>
      </trkpt>
      <trkpt lat="37.229767" lon="-3.408638">
        <ele>1167.73100455686</ele>
        <time>2018-07-14T04:48:42.009Z</time>
      </trkpt>
      <trkpt lat="37.229687" lon="-3.408635">
        <ele>1166</ele>
        <time>2018-07-14T04:48:45.009Z</time>
      </trkpt>
      <trkpt lat="37.229594" lon="-3.408644">
        <ele>1166</ele>
        <time>2018-07-14T04:48:48.009Z</time>
      </trkpt>
      <trkpt lat="37.229513" lon="-3.408679">
        <ele>1166</ele>
        <time>2018-07-14T04:48:51.009Z</time>
      </trkpt>
      <trkpt lat="37.229432" lon="-3.408741">
        <ele>1165</ele>
        <time>2018-07-14T04:48:54.009Z</time>
      </trkpt>
      <trkpt lat="37.229347" lon="-3.408799">
        <ele>1165</ele>
        <time>2018-07-14T04:48:57.009Z</time>
      </trkpt>
      <trkpt lat="37.229286" lon="-3.408822">
        <ele>1165</ele>
        <time>2018-07-14T04:48:59.009Z</time>
      </trkpt>
      <trkpt lat="37.229212" lon="-3.408838">
        <ele>1164.73099864322</ele>
        <time>2018-07-14T04:49:01.009Z</time>
      </trkpt>
      <trkpt lat="37.229124" lon="-3.408876">
        <ele>1164</ele>
        <time>2018-07-14T04:49:04.009Z</time>
      </trkpt>
      <trkpt lat="37.229042" lon="-3.408907">
        <ele>1163</ele>
        <time>2018-07-14T04:49:07.009Z</time>
      </trkpt>
      <trkpt lat="37.228963" lon="-3.408933">
        <ele>1163</ele>
        <time>2018-07-14T04:49:10.009Z</time>
      </trkpt>
      <trkpt lat="37.228885" lon="-3.408979">
        <ele>1162</ele>
        <time>2018-07-14T04:49:13.009Z</time>
      </trkpt>
      <trkpt lat="37.228795" lon="-3.409015">
        <ele>1162</ele>
        <time>2018-07-14T04:49:16.009Z</time>
      </trkpt>
      <trkpt lat="37.228726" lon="-3.409025">
        <ele>1162</ele>
        <time>2018-07-14T04:49:18.009Z</time>
      </trkpt>
      <trkpt lat="37.228662" lon="-3.40902">
        <ele>1161</ele>
        <time>2018-07-14T04:49:20.009Z</time>
      </trkpt>
      <trkpt lat="37.228601" lon="-3.409001">
        <ele>1160.73100455686</ele>
        <time>2018-07-14T04:49:22.009Z</time>
      </trkpt>
      <trkpt lat="37.228516" lon="-3.408964">
        <ele>1158</ele>
        <time>2018-07-14T04:49:25.009Z</time>
      </trkpt>
      <trkpt lat="37.228469" lon="-3.408927">
        <ele>1156.73099864322</ele>
        <time>2018-07-14T04:49:27.009Z</time>
      </trkpt>
      <trkpt lat="37.228423" lon="-3.408895">
        <ele>1156</ele>
        <time>2018-07-14T04:49:29.009Z</time>
      </trkpt>
      <trkpt lat="37.228376" lon="-3.408869">
        <ele>1155</ele>
        <time>2018-07-14T04:49:31.009Z</time>
      </trkpt>
      <trkpt lat="37.228326" lon="-3.408856">
        <ele>1154</ele>
        <time>2018-07-14T04:49:33.009Z</time>
      </trkpt>
      <trkpt lat="37.228255" lon="-3.408849">
        <ele>1153</ele>
        <time>2018-07-14T04:49:36.009Z</time>
      </trkpt>
      <trkpt lat="37.228181" lon="-3.408866">
        <ele>1152.73099864322</ele>
        <time>2018-07-14T04:49:39.009Z</time>
      </trkpt>
      <trkpt lat="37.228102" lon="-3.408921">
        <ele>1151</ele>
        <time>2018-07-14T04:49:42.009Z</time>
      </trkpt>
      <trkpt lat="37.22803" lon="-3.40897">
        <ele>1150</ele>
        <time>2018-07-14T04:49:45.009Z</time>
      </trkpt>
      <trkpt lat="37.227954" lon="-3.40901">
        <ele>1150.26899544314</ele>
        <time>2018-07-14T04:49:48.009Z</time>
      </trkpt>
      <trkpt lat="37.227864" lon="-3.409062">
        <ele>1151</ele>
        <time>2018-07-14T04:49:52.009Z</time>
      </trkpt>
      <trkpt lat="37.22779" lon="-3.409098">
        <ele>1151</ele>
        <time>2018-07-14T04:49:55.009Z</time>
      </trkpt>
      <trkpt lat="37.227716" lon="-3.409143">
        <ele>1151</ele>
        <time>2018-07-14T04:49:58.009Z</time>
      </trkpt>
      <trkpt lat="37.227623" lon="-3.409213">
        <ele>1151</ele>
        <time>2018-07-14T04:50:02.009Z</time>
      </trkpt>
      <trkpt lat="37.227547" lon="-3.409275">
        <ele>1151</ele>
        <time>2018-07-14T04:50:05.009Z</time>
      </trkpt>
      <trkpt lat="37.227437" lon="-3.40934">
        <ele>1152</ele>
        <time>2018-07-14T04:50:09.009Z</time>
      </trkpt>
      <trkpt lat="37.227333" lon="-3.409356">
        <ele>1152</ele>
        <time>2018-07-14T04:50:13.009Z</time>
      </trkpt>
      <trkpt lat="37.227228" lon="-3.409331">
        <ele>1151</ele>
        <time>2018-07-14T04:50:17.009Z</time>
      </trkpt>
      <trkpt lat="37.227136" lon="-3.409305">
        <ele>1151</ele>
        <time>2018-07-14T04:50:20.009Z</time>
      </trkpt>
      <trkpt lat="37.227075" lon="-3.409308">
        <ele>1152</ele>
        <time>2018-07-14T04:50:22.009Z</time>
      </trkpt>
      <trkpt lat="37.226995" lon="-3.409305">
        <ele>1152</ele>
        <time>2018-07-14T04:50:25.009Z</time>
      </trkpt>
      <trkpt lat="37.226906" lon="-3.409293">
        <ele>1153</ele>
        <time>2018-07-14T04:50:28.009Z</time>
      </trkpt>
      <trkpt lat="37.226848" lon="-3.409267">
        <ele>1153</ele>
        <time>2018-07-14T04:50:30.009Z</time>
      </trkpt>
      <trkpt lat="37.22676" lon="-3.409225">
        <ele>1153</ele>
        <time>2018-07-14T04:50:33.009Z</time>
      </trkpt>
      <trkpt lat="37.226668" lon="-3.409218">
        <ele>1153</ele>
        <time>2018-07-14T04:50:36.009Z</time>
      </trkpt>
      <trkpt lat="37.226578" lon="-3.409296">
        <ele>1153</ele>
        <time>2018-07-14T04:50:40.009Z</time>
      </trkpt>
      <trkpt lat="37.22653" lon="-3.409335">
        <ele>1152</ele>
        <time>2018-07-14T04:50:42.009Z</time>
      </trkpt>
      <trkpt lat="37.226453" lon="-3.409379">
        <ele>1152.73099864322</ele>
        <time>2018-07-14T04:50:45.009Z</time>
      </trkpt>
      <trkpt lat="37.226354" lon="-3.409424">
        <ele>1152</ele>
        <time>2018-07-14T04:50:49.009Z</time>
      </trkpt>
      <trkpt lat="37.226268" lon="-3.409431">
        <ele>1151</ele>
        <time>2018-07-14T04:50:52.009Z</time>
      </trkpt>
      <trkpt lat="37.226183" lon="-3.409427">
        <ele>1150</ele>
        <time>2018-07-14T04:50:55.009Z</time>
      </trkpt>
      <trkpt lat="37.226069" lon="-3.409419">
        <ele>1151</ele>
        <time>2018-07-14T04:50:59.009Z</time>
      </trkpt>
      <trkpt lat="37.225954" lon="-3.40937">
        <ele>1151</ele>
        <time>2018-07-14T04:51:03.009Z</time>
      </trkpt>
      <trkpt lat="37.22587" lon="-3.409305">
        <ele>1151</ele>
        <time>2018-07-14T04:51:06.009Z</time>
      </trkpt>
      <trkpt lat="37.225788" lon="-3.409274">
        <ele>1151</ele>
        <time>2018-07-14T04:51:09.009Z</time>
      </trkpt>
      <trkpt lat="37.225703" lon="-3.409289">
        <ele>1151</ele>
        <time>2018-07-14T04:51:12.009Z</time>
      </trkpt>
      <trkpt lat="37.225615" lon="-3.409333">
        <ele>1151</ele>
        <time>2018-07-14T04:51:15.009Z</time>
      </trkpt>
      <trkpt lat="37.225504" lon="-3.409372">
        <ele>1150</ele>
        <time>2018-07-14T04:51:19.009Z</time>
      </trkpt>
      <trkpt lat="37.225446" lon="-3.409382">
        <ele>1149.73099864322</ele>
        <time>2018-07-14T04:51:21.009Z</time>
      </trkpt>
      <trkpt lat="37.225346" lon="-3.409414">
        <ele>1147.73099864322</ele>
        <time>2018-07-14T04:51:25.009Z</time>
      </trkpt>
      <trkpt lat="37.225278" lon="-3.409486">
        <ele>1145.73100455686</ele>
        <time>2018-07-14T04:51:28.009Z</time>
      </trkpt>
      <trkpt lat="37.225212" lon="-3.409549">
        <ele>1144</ele>
        <time>2018-07-14T04:51:31.009Z</time>
      </trkpt>
      <trkpt lat="37.225142" lon="-3.409608">
        <ele>1142.73100455686</ele>
        <time>2018-07-14T04:51:34.009Z</time>
      </trkpt>
      <trkpt lat="37.225071" lon="-3.409662">
        <ele>1141</ele>
        <time>2018-07-14T04:51:37.009Z</time>
      </trkpt>
      <trkpt lat="37.224993" lon="-3.409697">
        <ele>1140.73100455686</ele>
        <time>2018-07-14T04:51:40.009Z</time>
      </trkpt>
      <trkpt lat="37.224908" lon="-3.409726">
        <ele>1139.73099864322</ele>
        <time>2018-07-14T04:51:43.009Z</time>
      </trkpt>
      <trkpt lat="37.224818" lon="-3.409755">
        <ele>1138</ele>
        <time>2018-07-14T04:51:46.009Z</time>
      </trkpt>
      <trkpt lat="37.224764" lon="-3.409772">
        <ele>1137</ele>
        <time>2018-07-14T04:51:48.009Z</time>
      </trkpt>
      <trkpt lat="37.224679" lon="-3.409811">
        <ele>1137</ele>
        <time>2018-07-14T04:51:51.009Z</time>
      </trkpt>
      <trkpt lat="37.224621" lon="-3.409826">
        <ele>1136</ele>
        <time>2018-07-14T04:51:53.009Z</time>
      </trkpt>
      <trkpt lat="37.224538" lon="-3.409857">
        <ele>1135</ele>
        <time>2018-07-14T04:51:56.009Z</time>
      </trkpt>
      <trkpt lat="37.22448" lon="-3.409878">
        <ele>1135</ele>
        <time>2018-07-14T04:51:58.009Z</time>
      </trkpt>
      <trkpt lat="37.224422" lon="-3.409896">
        <ele>1134.73100455686</ele>
        <time>2018-07-14T04:52:00.009Z</time>
      </trkpt>
      <trkpt lat="37.224339" lon="-3.409933">
        <ele>1134</ele>
        <time>2018-07-14T04:52:03.009Z</time>
      </trkpt>
      <trkpt lat="37.224281" lon="-3.409954">
        <ele>1133</ele>
        <time>2018-07-14T04:52:05.009Z</time>
      </trkpt>
      <trkpt lat="37.224195" lon="-3.409981">
        <ele>1132.73100455686</ele>
        <time>2018-07-14T04:52:08.009Z</time>
      </trkpt>
      <trkpt lat="37.224139" lon="-3.409989">
        <ele>1132</ele>
        <time>2018-07-14T04:52:10.009Z</time>
      </trkpt>
      <trkpt lat="37.224082" lon="-3.409995">
        <ele>1131.0300065828</ele>
        <time>2018-07-14T04:52:12.009Z</time>
      </trkpt>
      <trkpt lat="37.224027" lon="-3.410003">
        <ele>1131</ele>
        <time>2018-07-14T04:52:14.009Z</time>
      </trkpt>
      <trkpt lat="37.223948" lon="-3.41001">
        <ele>1130</ele>
        <time>2018-07-14T04:52:17.009Z</time>
      </trkpt>
      <trkpt lat="37.223862" lon="-3.410009">
        <ele>1130</ele>
        <time>2018-07-14T04:52:20.009Z</time>
      </trkpt>
      <trkpt lat="37.223767" lon="-3.410021">
        <ele>1130</ele>
        <time>2018-07-14T04:52:23.009Z</time>
      </trkpt>
      <trkpt lat="37.223687" lon="-3.410071">
        <ele>1129.73367044331</ele>
        <time>2018-07-14T04:52:26.009Z</time>
      </trkpt>
      <trkpt lat="37.223648" lon="-3.410107">
        <ele>1129</ele>
        <time>2018-07-14T04:52:28.009Z</time>
      </trkpt>
      <trkpt lat="37.223596" lon="-3.410135">
        <ele>1129</ele>
        <time>2018-07-14T04:52:30.009Z</time>
      </trkpt>
      <trkpt lat="37.223543" lon="-3.410155">
        <ele>1129</ele>
        <time>2018-07-14T04:52:32.009Z</time>
      </trkpt>
      <trkpt lat="37.223492" lon="-3.41018">
        <ele>1129</ele>
        <time>2018-07-14T04:52:34.009Z</time>
      </trkpt>
      <trkpt lat="37.223448" lon="-3.41022">
        <ele>1128.73100455686</ele>
        <time>2018-07-14T04:52:36.009Z</time>
      </trkpt>
      <trkpt lat="37.223379" lon="-3.410305">
        <ele>1129.26899544314</ele>
        <time>2018-07-14T04:52:40.009Z</time>
      </trkpt>
      <trkpt lat="37.223323" lon="-3.410405">
        <ele>1130</ele>
        <time>2018-07-14T04:52:44.009Z</time>
      </trkpt>
      <trkpt lat="37.223295" lon="-3.410499">
        <ele>1130</ele>
        <time>2018-07-14T04:52:47.009Z</time>
      </trkpt>
      <trkpt lat="37.223271" lon="-3.410599">
        <ele>1131</ele>
        <time>2018-07-14T04:52:50.009Z</time>
      </trkpt>
      <trkpt lat="37.223228" lon="-3.410719">
        <ele>1131</ele>
        <time>2018-07-14T04:52:54.009Z</time>
      </trkpt>
      <trkpt lat="37.223183" lon="-3.410838">
        <ele>1132</ele>
        <time>2018-07-14T04:52:58.009Z</time>
      </trkpt>
      <trkpt lat="37.223113" lon="-3.410935">
        <ele>1132</ele>
        <time>2018-07-14T04:53:02.009Z</time>
      </trkpt>
      <trkpt lat="37.22307" lon="-3.410982">
        <ele>1132</ele>
        <time>2018-07-14T04:53:04.009Z</time>
      </trkpt>
      <trkpt lat="37.222987" lon="-3.411054">
        <ele>1132</ele>
        <time>2018-07-14T04:53:08.009Z</time>
      </trkpt>
      <trkpt lat="37.222892" lon="-3.411114">
        <ele>1133</ele>
        <time>2018-07-14T04:53:12.009Z</time>
      </trkpt>
      <trkpt lat="37.222816" lon="-3.411157">
        <ele>1134</ele>
        <time>2018-07-14T04:53:15.009Z</time>
      </trkpt>
      <trkpt lat="37.222741" lon="-3.411219">
        <ele>1134</ele>
        <time>2018-07-14T04:53:18.009Z</time>
      </trkpt>
      <trkpt lat="37.222667" lon="-3.411292">
        <ele>1134.26900135678</ele>
        <time>2018-07-14T04:53:21.009Z</time>
      </trkpt>
      <trkpt lat="37.22262" lon="-3.411388">
        <ele>1135</ele>
        <time>2018-07-14T04:53:24.009Z</time>
      </trkpt>
      <trkpt lat="37.222564" lon="-3.411474">
        <ele>1135</ele>
        <time>2018-07-14T04:53:27.009Z</time>
      </trkpt>
      <trkpt lat="37.222501" lon="-3.411553">
        <ele>1134</ele>
        <time>2018-07-14T04:53:30.009Z</time>
      </trkpt>
      <trkpt lat="37.222446" lon="-3.411642">
        <ele>1133</ele>
        <time>2018-07-14T04:53:33.009Z</time>
      </trkpt>
      <trkpt lat="37.222375" lon="-3.411719">
        <ele>1132</ele>
        <time>2018-07-14T04:53:36.009Z</time>
      </trkpt>
      <trkpt lat="37.222324" lon="-3.411765">
        <ele>1132</ele>
        <time>2018-07-14T04:53:38.009Z</time>
      </trkpt>
      <trkpt lat="37.222272" lon="-3.411805">
        <ele>1131.73100455686</ele>
        <time>2018-07-14T04:53:40.009Z</time>
      </trkpt>
      <trkpt lat="37.222196" lon="-3.411862">
        <ele>1131.73099864322</ele>
        <time>2018-07-14T04:53:43.009Z</time>
      </trkpt>
      <trkpt lat="37.222117" lon="-3.411935">
        <ele>1132</ele>
        <time>2018-07-14T04:53:46.009Z</time>
      </trkpt>
      <trkpt lat="37.222041" lon="-3.411997">
        <ele>1131</ele>
        <time>2018-07-14T04:53:49.009Z</time>
      </trkpt>
      <trkpt lat="37.221967" lon="-3.41206">
        <ele>1130.46200911372</ele>
        <time>2018-07-14T04:53:52.009Z</time>
      </trkpt>
      <trkpt lat="37.221918" lon="-3.412118">
        <ele>1126.73100455686</ele>
        <time>2018-07-14T04:53:54.009Z</time>
      </trkpt>
      <trkpt lat="37.221874" lon="-3.412179">
        <ele>1124.73367044331</ele>
        <time>2018-07-14T04:53:56.009Z</time>
      </trkpt>
      <trkpt lat="37.221826" lon="-3.412233">
        <ele>1123.73100455686</ele>
        <time>2018-07-14T04:53:58.009Z</time>
      </trkpt>
      <trkpt lat="37.22179" lon="-3.412306">
        <ele>1122.73100455686</ele>
        <time>2018-07-14T04:54:00.009Z</time>
      </trkpt>
      <trkpt lat="37.22176" lon="-3.412383">
        <ele>1121.73100455686</ele>
        <time>2018-07-14T04:54:02.009Z</time>
      </trkpt>
      <trkpt lat="37.221734" lon="-3.41245">
        <ele>1120.73100455686</ele>
        <time>2018-07-14T04:54:04.009Z</time>
      </trkpt>
      <trkpt lat="37.221722" lon="-3.412526">
        <ele>1119.73100455686</ele>
        <time>2018-07-14T04:54:06.009Z</time>
      </trkpt>
      <trkpt lat="37.221719" lon="-3.412642">
        <ele>1118.73099864322</ele>
        <time>2018-07-14T04:54:09.009Z</time>
      </trkpt>
      <trkpt lat="37.221734" lon="-3.412766">
        <ele>1118</ele>
        <time>2018-07-14T04:54:12.009Z</time>
      </trkpt>
      <trkpt lat="37.221766" lon="-3.412886">
        <ele>1118</ele>
        <time>2018-07-14T04:54:15.009Z</time>
      </trkpt>
      <trkpt lat="37.221838" lon="-3.412997">
        <ele>1116</ele>
        <time>2018-07-14T04:54:18.009Z</time>
      </trkpt>
      <trkpt lat="37.221911" lon="-3.413085">
        <ele>1116</ele>
        <time>2018-07-14T04:54:21.009Z</time>
      </trkpt>
      <trkpt lat="37.222024" lon="-3.413154">
        <ele>1116</ele>
        <time>2018-07-14T04:54:25.009Z</time>
      </trkpt>
      <trkpt lat="37.222115" lon="-3.413189">
        <ele>1116.73100455686</ele>
        <time>2018-07-14T04:54:28.009Z</time>
      </trkpt>
      <trkpt lat="37.222181" lon="-3.413202">
        <ele>1116</ele>
        <time>2018-07-14T04:54:30.009Z</time>
      </trkpt>
      <trkpt lat="37.222266" lon="-3.413237">
        <ele>1116</ele>
        <time>2018-07-14T04:54:33.009Z</time>
      </trkpt>
      <trkpt lat="37.222363" lon="-3.41327">
        <ele>1115</ele>
        <time>2018-07-14T04:54:37.009Z</time>
      </trkpt>
      <trkpt lat="37.222447" lon="-3.413309">
        <ele>1115</ele>
        <time>2018-07-14T04:54:40.009Z</time>
      </trkpt>
      <trkpt lat="37.22253" lon="-3.413388">
        <ele>1114</ele>
        <time>2018-07-14T04:54:44.009Z</time>
      </trkpt>
      <trkpt lat="37.222575" lon="-3.413514">
        <ele>1113.73100455686</ele>
        <time>2018-07-14T04:54:48.009Z</time>
      </trkpt>
      <trkpt lat="37.222635" lon="-3.413644">
        <ele>1112.73100455686</ele>
        <time>2018-07-14T04:54:52.009Z</time>
      </trkpt>
      <trkpt lat="37.222671" lon="-3.413767">
        <ele>1113</ele>
        <time>2018-07-14T04:54:56.009Z</time>
      </trkpt>
      <trkpt lat="37.22271" lon="-3.413908">
        <ele>1113</ele>
        <time>2018-07-14T04:55:00.009Z</time>
      </trkpt>
      <trkpt lat="37.222724" lon="-3.414037">
        <ele>1112.73100455686</ele>
        <time>2018-07-14T04:55:04.009Z</time>
      </trkpt>
      <trkpt lat="37.222721" lon="-3.41418">
        <ele>1111</ele>
        <time>2018-07-14T04:55:08.009Z</time>
      </trkpt>
      <trkpt lat="37.222694" lon="-3.414315">
        <ele>1109.73100455686</ele>
        <time>2018-07-14T04:55:12.009Z</time>
      </trkpt>
      <trkpt lat="37.222662" lon="-3.414441">
        <ele>1108</ele>
        <time>2018-07-14T04:55:15.009Z</time>
      </trkpt>
      <trkpt lat="37.222614" lon="-3.414583">
        <ele>1108</ele>
        <time>2018-07-14T04:55:19.009Z</time>
      </trkpt>
      <trkpt lat="37.222568" lon="-3.414725">
        <ele>1107.73099864322</ele>
        <time>2018-07-14T04:55:23.009Z</time>
      </trkpt>
      <trkpt lat="37.222529" lon="-3.414857">
        <ele>1106</ele>
        <time>2018-07-14T04:55:27.009Z</time>
      </trkpt>
      <trkpt lat="37.222521" lon="-3.415002">
        <ele>1105.73099864322</ele>
        <time>2018-07-14T04:55:31.009Z</time>
      </trkpt>
      <trkpt lat="37.22255" lon="-3.415118">
        <ele>1103.73100455686</ele>
        <time>2018-07-14T04:55:34.009Z</time>
      </trkpt>
      <trkpt lat="37.222584" lon="-3.415231">
        <ele>1103</ele>
        <time>2018-07-14T04:55:37.009Z</time>
      </trkpt>
      <trkpt lat="37.222636" lon="-3.415318">
        <ele>1103</ele>
        <time>2018-07-14T04:55:40.009Z</time>
      </trkpt>
      <trkpt lat="37.222724" lon="-3.415409">
        <ele>1102</ele>
        <time>2018-07-14T04:55:44.009Z</time>
      </trkpt>
      <trkpt lat="37.222809" lon="-3.41552">
        <ele>1101.73367044331</ele>
        <time>2018-07-14T04:55:48.009Z</time>
      </trkpt>
      <trkpt lat="37.222861" lon="-3.41563">
        <ele>1101</ele>
        <time>2018-07-14T04:55:52.009Z</time>
      </trkpt>
      <trkpt lat="37.222877" lon="-3.415757">
        <ele>1101</ele>
        <time>2018-07-14T04:55:56.009Z</time>
      </trkpt>
      <trkpt lat="37.22286" lon="-3.4159">
        <ele>1100</ele>
        <time>2018-07-14T04:56:00.009Z</time>
      </trkpt>
      <trkpt lat="37.222818" lon="-3.416015">
        <ele>1100</ele>
        <time>2018-07-14T04:56:04.009Z</time>
      </trkpt>
      <trkpt lat="37.222762" lon="-3.416132">
        <ele>1100</ele>
        <time>2018-07-14T04:56:08.009Z</time>
      </trkpt>
      <trkpt lat="37.222709" lon="-3.416229">
        <ele>1100</ele>
        <time>2018-07-14T04:56:11.009Z</time>
      </trkpt>
      <trkpt lat="37.222654" lon="-3.41633">
        <ele>1099</ele>
        <time>2018-07-14T04:56:14.009Z</time>
      </trkpt>
      <trkpt lat="37.222615" lon="-3.416431">
        <ele>1098</ele>
        <time>2018-07-14T04:56:17.009Z</time>
      </trkpt>
      <trkpt lat="37.222594" lon="-3.416533">
        <ele>1097</ele>
        <time>2018-07-14T04:56:20.009Z</time>
      </trkpt>
      <trkpt lat="37.222583" lon="-3.416633">
        <ele>1097</ele>
        <time>2018-07-14T04:56:23.009Z</time>
      </trkpt>
      <trkpt lat="37.222591" lon="-3.416757">
        <ele>1097</ele>
        <time>2018-07-14T04:56:27.009Z</time>
      </trkpt>
      <trkpt lat="37.222603" lon="-3.416883">
        <ele>1096</ele>
        <time>2018-07-14T04:56:31.009Z</time>
      </trkpt>
      <trkpt lat="37.222607" lon="-3.417028">
        <ele>1096.73100455686</ele>
        <time>2018-07-14T04:56:36.009Z</time>
      </trkpt>
      <trkpt lat="37.222613" lon="-3.417145">
        <ele>1096</ele>
        <time>2018-07-14T04:56:39.009Z</time>
      </trkpt>
      <trkpt lat="37.222609" lon="-3.417261">
        <ele>1096</ele>
        <time>2018-07-14T04:56:42.009Z</time>
      </trkpt>
      <trkpt lat="37.222603" lon="-3.417378">
        <ele>1096</ele>
        <time>2018-07-14T04:56:45.009Z</time>
      </trkpt>
      <trkpt lat="37.222591" lon="-3.417478">
        <ele>1096</ele>
        <time>2018-07-14T04:56:48.009Z</time>
      </trkpt>
      <trkpt lat="37.222562" lon="-3.417607">
        <ele>1096.26899544314</ele>
        <time>2018-07-14T04:56:52.009Z</time>
      </trkpt>
      <trkpt lat="37.222541" lon="-3.41771">
        <ele>1097</ele>
        <time>2018-07-14T04:56:55.009Z</time>
      </trkpt>
      <trkpt lat="37.222509" lon="-3.417831">
        <ele>1098</ele>
        <time>2018-07-14T04:56:59.009Z</time>
      </trkpt>
      <trkpt lat="37.222478" lon="-3.417959">
        <ele>1099</ele>
        <time>2018-07-14T04:57:04.009Z</time>
      </trkpt>
      <trkpt lat="37.22243" lon="-3.418081">
        <ele>1100</ele>
        <time>2018-07-14T04:57:09.009Z</time>
      </trkpt>
      <trkpt lat="37.222369" lon="-3.418193">
        <ele>1101</ele>
        <time>2018-07-14T04:57:14.009Z</time>
      </trkpt>
      <trkpt lat="37.222296" lon="-3.418281">
        <ele>1102</ele>
        <time>2018-07-14T04:57:21.009Z</time>
      </trkpt>
      <trkpt lat="37.222295" lon="-3.418164">
        <ele>1096</ele>
        <time>2018-07-14T04:58:03.009Z</time>
      </trkpt>
      <trkpt lat="37.222295" lon="-3.418053">
        <ele>1098</ele>
        <time>2018-07-14T04:58:26.009Z</time>
      </trkpt>
      <trkpt lat="37.22221" lon="-3.417987">
        <ele>1096</ele>
        <time>2018-07-14T04:58:44.009Z</time>
      </trkpt>
      <trkpt lat="37.222121" lon="-3.417934">
        <ele>1096</ele>
        <time>2018-07-14T04:58:53.009Z</time>
      </trkpt>
      <trkpt lat="37.222171" lon="-3.417825">
        <ele>1093</ele>
        <time>2018-07-14T04:59:19.009Z</time>
      </trkpt>
      <trkpt lat="37.222266" lon="-3.417785">
        <ele>1094</ele>
        <time>2018-07-14T04:59:29.009Z</time>
      </trkpt>
      <trkpt lat="37.22234" lon="-3.417686">
        <ele>1094.26899544314</ele>
        <time>2018-07-14T04:59:40.009Z</time>
      </trkpt>
      <trkpt lat="37.222329" lon="-3.417572">
        <ele>1097</ele>
        <time>2018-07-14T04:59:49.009Z</time>
      </trkpt>
      <trkpt lat="37.222311" lon="-3.417484">
        <ele>1099</ele>
        <time>2018-07-14T04:59:58.009Z</time>
      </trkpt>
      <trkpt lat="37.222286" lon="-3.417404">
        <ele>1099.73100455686</ele>
        <time>2018-07-14T05:00:06.009Z</time>
      </trkpt>
      <trkpt lat="37.222292" lon="-3.417312">
        <ele>1100</ele>
        <time>2018-07-14T05:00:13.009Z</time>
      </trkpt>
      <trkpt lat="37.222278" lon="-3.417239">
        <ele>1100</ele>
        <time>2018-07-14T05:00:18.009Z</time>
      </trkpt>
      <trkpt lat="37.222262" lon="-3.417164">
        <ele>1102</ele>
        <time>2018-07-14T05:00:25.009Z</time>
      </trkpt>
      <trkpt lat="37.222282" lon="-3.417061">
        <ele>1104.26899544314</ele>
        <time>2018-07-14T05:00:32.009Z</time>
      </trkpt>
      <trkpt lat="37.222286" lon="-3.416955">
        <ele>1106</ele>
        <time>2018-07-14T05:00:36.009Z</time>
      </trkpt>
      <trkpt lat="37.222278" lon="-3.416869">
        <ele>1107</ele>
        <time>2018-07-14T05:00:40.009Z</time>
      </trkpt>
      <trkpt lat="37.222249" lon="-3.416773">
        <ele>1107</ele>
        <time>2018-07-14T05:00:46.009Z</time>
      </trkpt>
      <trkpt lat="37.22221" lon="-3.416695">
        <ele>1107</ele>
        <time>2018-07-14T05:00:54.009Z</time>
      </trkpt>
      <trkpt lat="37.222178" lon="-3.416621">
        <ele>1108</ele>
        <time>2018-07-14T05:00:59.009Z</time>
      </trkpt>
      <trkpt lat="37.222157" lon="-3.416542">
        <ele>1108</ele>
        <time>2018-07-14T05:01:03.009Z</time>
      </trkpt>
      <trkpt lat="37.222148" lon="-3.416474">
        <ele>1108</ele>
        <time>2018-07-14T05:01:07.009Z</time>
      </trkpt>
      <trkpt lat="37.222152" lon="-3.416408">
        <ele>1109.26899544314</ele>
        <time>2018-07-14T05:01:12.009Z</time>
      </trkpt>
      <trkpt lat="37.222119" lon="-3.41635">
        <ele>1110</ele>
        <time>2018-07-14T05:01:18.009Z</time>
      </trkpt>
      <trkpt lat="37.222086" lon="-3.416282">
        <ele>1111.26900135678</ele>
        <time>2018-07-14T05:01:23.009Z</time>
      </trkpt>
      <trkpt lat="37.222058" lon="-3.416221">
        <ele>1112</ele>
        <time>2018-07-14T05:01:27.009Z</time>
      </trkpt>
      <trkpt lat="37.222029" lon="-3.416159">
        <ele>1113</ele>
        <time>2018-07-14T05:01:31.009Z</time>
      </trkpt>
      <trkpt lat="37.22199" lon="-3.416094">
        <ele>1113</ele>
        <time>2018-07-14T05:01:36.009Z</time>
      </trkpt>
      <trkpt lat="37.221953" lon="-3.416036">
        <ele>1114</ele>
        <time>2018-07-14T05:01:42.009Z</time>
      </trkpt>
      <trkpt lat="37.221921" lon="-3.415988">
        <ele>1115</ele>
        <time>2018-07-14T05:01:48.009Z</time>
      </trkpt>
      <trkpt lat="37.221893" lon="-3.415938">
        <ele>1116</ele>
        <time>2018-07-14T05:01:51.009Z</time>
      </trkpt>
      <trkpt lat="37.221848" lon="-3.415889">
        <ele>1116.26899544314</ele>
        <time>2018-07-14T05:01:56.009Z</time>
      </trkpt>
      <trkpt lat="37.221803" lon="-3.41586">
        <ele>1118.2663388546</ele>
        <time>2018-07-14T05:02:01.009Z</time>
      </trkpt>
      <trkpt lat="37.221756" lon="-3.415816">
        <ele>1120.26899544314</ele>
        <time>2018-07-14T05:02:08.009Z</time>
      </trkpt>
      <trkpt lat="37.221719" lon="-3.415782">
        <ele>1122</ele>
        <time>2018-07-14T05:02:14.009Z</time>
      </trkpt>
      <trkpt lat="37.221673" lon="-3.415754">
        <ele>1125</ele>
        <time>2018-07-14T05:02:21.009Z</time>
      </trkpt>
      <trkpt lat="37.221643" lon="-3.415781">
        <ele>1125</ele>
        <time>2018-07-14T05:02:33.009Z</time>
      </trkpt>
      <trkpt lat="37.221601" lon="-3.415807">
        <ele>1126</ele>
        <time>2018-07-14T05:02:41.009Z</time>
      </trkpt>
      <trkpt lat="37.221562" lon="-3.415783">
        <ele>1128.26899544314</ele>
        <time>2018-07-14T05:02:48.009Z</time>
      </trkpt>
      <trkpt lat="37.221522" lon="-3.415786">
        <ele>1131.26900135678</ele>
        <time>2018-07-14T05:02:57.009Z</time>
      </trkpt>
      <trkpt lat="37.221502" lon="-3.415768">
        <ele>1132</ele>
        <time>2018-07-14T05:03:01.009Z</time>
      </trkpt>
      <trkpt lat="37.221469" lon="-3.415743">
        <ele>1133</ele>
        <time>2018-07-14T05:03:05.009Z</time>
      </trkpt>
      <trkpt lat="37.221431" lon="-3.415709">
        <ele>1133.26900135678</ele>
        <time>2018-07-14T05:03:09.009Z</time>
      </trkpt>
      <trkpt lat="37.22139" lon="-3.415675">
        <ele>1135</ele>
        <time>2018-07-14T05:03:14.009Z</time>
      </trkpt>
      <trkpt lat="37.221366" lon="-3.415662">
        <ele>1136</ele>
        <time>2018-07-14T05:03:17.009Z</time>
      </trkpt>
      <trkpt lat="37.221339" lon="-3.415642">
        <ele>1137</ele>
        <time>2018-07-14T05:03:20.009Z</time>
      </trkpt>
      <trkpt lat="37.221318" lon="-3.415616">
        <ele>1138</ele>
        <time>2018-07-14T05:03:24.009Z</time>
      </trkpt>
      <trkpt lat="37.221296" lon="-3.415596">
        <ele>1138</ele>
        <time>2018-07-14T05:03:27.009Z</time>
      </trkpt>
      <trkpt lat="37.221277" lon="-3.415689">
        <ele>1141</ele>
        <time>2018-07-14T05:03:45.009Z</time>
      </trkpt>
      <trkpt lat="37.221255" lon="-3.415765">
        <ele>1145</ele>
        <time>2018-07-14T05:04:00.009Z</time>
      </trkpt>
      <trkpt lat="37.221202" lon="-3.415737">
        <ele>1145</ele>
        <time>2018-07-14T05:04:07.009Z</time>
      </trkpt>
      <trkpt lat="37.221174" lon="-3.415713">
        <ele>1147</ele>
        <time>2018-07-14T05:04:13.009Z</time>
      </trkpt>
      <trkpt lat="37.221147" lon="-3.41571">
        <ele>1148</ele>
        <time>2018-07-14T05:04:22.009Z</time>
      </trkpt>
      <trkpt lat="37.221122" lon="-3.415658">
        <ele>1149</ele>
        <time>2018-07-14T05:04:27.009Z</time>
      </trkpt>
      <trkpt lat="37.221096" lon="-3.415614">
        <ele>1149</ele>
        <time>2018-07-14T05:04:30.009Z</time>
      </trkpt>
      <trkpt lat="37.221039" lon="-3.415538">
        <ele>1150</ele>
        <time>2018-07-14T05:04:36.009Z</time>
      </trkpt>
      <trkpt lat="37.221012" lon="-3.415482">
        <ele>1151</ele>
        <time>2018-07-14T05:04:39.009Z</time>
      </trkpt>
      <trkpt lat="37.220984" lon="-3.415441">
        <ele>1152</ele>
        <time>2018-07-14T05:04:42.009Z</time>
      </trkpt>
      <trkpt lat="37.220953" lon="-3.415409">
        <ele>1153</ele>
        <time>2018-07-14T05:04:45.009Z</time>
      </trkpt>
      <trkpt lat="37.220911" lon="-3.415352">
        <ele>1155</ele>
        <time>2018-07-14T05:04:51.009Z</time>
      </trkpt>
      <trkpt lat="37.220876" lon="-3.415356">
        <ele>1156</ele>
        <time>2018-07-14T05:04:56.009Z</time>
      </trkpt>
      <trkpt lat="37.220829" lon="-3.415318">
        <ele>1157</ele>
        <time>2018-07-14T05:05:03.009Z</time>
      </trkpt>
      <trkpt lat="37.220778" lon="-3.415305">
        <ele>1157.26900135678</ele>
        <time>2018-07-14T05:05:09.009Z</time>
      </trkpt>
      <trkpt lat="37.220727" lon="-3.415274">
        <ele>1159</ele>
        <time>2018-07-14T05:05:15.009Z</time>
      </trkpt>
      <trkpt lat="37.220678" lon="-3.415252">
        <ele>1160</ele>
        <time>2018-07-14T05:05:21.009Z</time>
      </trkpt>
      <trkpt lat="37.220636" lon="-3.415233">
        <ele>1162</ele>
        <time>2018-07-14T05:05:27.009Z</time>
      </trkpt>
      <trkpt lat="37.220592" lon="-3.41521">
        <ele>1164.26900135678</ele>
        <time>2018-07-14T05:05:33.009Z</time>
      </trkpt>
      <trkpt lat="37.220566" lon="-3.415172">
        <ele>1165</ele>
        <time>2018-07-14T05:05:38.009Z</time>
      </trkpt>
      <trkpt lat="37.220525" lon="-3.415138">
        <ele>1166</ele>
        <time>2018-07-14T05:05:42.009Z</time>
      </trkpt>
      <trkpt lat="37.220487" lon="-3.415104">
        <ele>1167.26899544314</ele>
        <time>2018-07-14T05:05:46.009Z</time>
      </trkpt>
      <trkpt lat="37.220421" lon="-3.415071">
        <ele>1168</ele>
        <time>2018-07-14T05:05:55.009Z</time>
      </trkpt>
      <trkpt lat="37.220356" lon="-3.415028">
        <ele>1169</ele>
        <time>2018-07-14T05:06:05.009Z</time>
      </trkpt>
      <trkpt lat="37.220288" lon="-3.415">
        <ele>1169</ele>
        <time>2018-07-14T05:06:11.009Z</time>
      </trkpt>
      <trkpt lat="37.220222" lon="-3.414983">
        <ele>1170.26899544314</ele>
        <time>2018-07-14T05:06:18.009Z</time>
      </trkpt>
      <trkpt lat="37.220164" lon="-3.414951">
        <ele>1173</ele>
        <time>2018-07-14T05:06:22.009Z</time>
      </trkpt>
      <trkpt lat="37.22011" lon="-3.414951">
        <ele>1175</ele>
        <time>2018-07-14T05:06:27.009Z</time>
      </trkpt>
      <trkpt lat="37.220064" lon="-3.414932">
        <ele>1176</ele>
        <time>2018-07-14T05:06:32.009Z</time>
      </trkpt>
      <trkpt lat="37.220018" lon="-3.414903">
        <ele>1176</ele>
        <time>2018-07-14T05:07:03.009Z</time>
      </trkpt>
      <trkpt lat="37.219962" lon="-3.414895">
        <ele>1176.26900135678</ele>
        <time>2018-07-14T05:07:11.009Z</time>
      </trkpt>
      <trkpt lat="37.219908" lon="-3.414902">
        <ele>1177</ele>
        <time>2018-07-14T05:07:18.009Z</time>
      </trkpt>
      <trkpt lat="37.219864" lon="-3.414893">
        <ele>1178</ele>
        <time>2018-07-14T05:07:23.009Z</time>
      </trkpt>
      <trkpt lat="37.219816" lon="-3.414904">
        <ele>1179</ele>
        <time>2018-07-14T05:07:29.009Z</time>
      </trkpt>
      <trkpt lat="37.219734" lon="-3.414898">
        <ele>1180</ele>
        <time>2018-07-14T05:07:39.009Z</time>
      </trkpt>
      <trkpt lat="37.219663" lon="-3.414924">
        <ele>1181</ele>
        <time>2018-07-14T05:07:47.009Z</time>
      </trkpt>
      <trkpt lat="37.219586" lon="-3.41495">
        <ele>1182.26900135678</ele>
        <time>2018-07-14T05:07:55.009Z</time>
      </trkpt>
      <trkpt lat="37.219513" lon="-3.414992">
        <ele>1185</ele>
        <time>2018-07-14T05:08:02.009Z</time>
      </trkpt>
      <trkpt lat="37.219442" lon="-3.414977">
        <ele>1190</ele>
        <time>2018-07-14T05:08:12.009Z</time>
      </trkpt>
      <trkpt lat="37.219366" lon="-3.414949">
        <ele>1191</ele>
        <time>2018-07-14T05:08:22.009Z</time>
      </trkpt>
      <trkpt lat="37.219281" lon="-3.414937">
        <ele>1193</ele>
        <time>2018-07-14T05:08:36.009Z</time>
      </trkpt>
      <trkpt lat="37.219185" lon="-3.414884">
        <ele>1195</ele>
        <time>2018-07-14T05:08:47.009Z</time>
      </trkpt>
      <trkpt lat="37.219114" lon="-3.414845">
        <ele>1196.26900135678</ele>
        <time>2018-07-14T05:08:55.009Z</time>
      </trkpt>
      <trkpt lat="37.219052" lon="-3.414814">
        <ele>1199.26900135678</ele>
        <time>2018-07-14T05:08:59.009Z</time>
      </trkpt>
      <trkpt lat="37.219003" lon="-3.414779">
        <ele>1201.2663388546</ele>
        <time>2018-07-14T05:09:03.009Z</time>
      </trkpt>
      <trkpt lat="37.218948" lon="-3.414737">
        <ele>1204</ele>
        <time>2018-07-14T05:09:09.009Z</time>
      </trkpt>
      <trkpt lat="37.218885" lon="-3.414726">
        <ele>1206</ele>
        <time>2018-07-14T05:09:14.009Z</time>
      </trkpt>
      <trkpt lat="37.21882" lon="-3.414703">
        <ele>1207.26899544314</ele>
        <time>2018-07-14T05:09:20.009Z</time>
      </trkpt>
      <trkpt lat="37.218761" lon="-3.414677">
        <ele>1209</ele>
        <time>2018-07-14T05:09:26.009Z</time>
      </trkpt>
      <trkpt lat="37.218704" lon="-3.414645">
        <ele>1210</ele>
        <time>2018-07-14T05:09:31.009Z</time>
      </trkpt>
      <trkpt lat="37.218653" lon="-3.414622">
        <ele>1211.26900135678</ele>
        <time>2018-07-14T05:09:35.009Z</time>
      </trkpt>
      <trkpt lat="37.218612" lon="-3.414581">
        <ele>1212.26899544314</ele>
        <time>2018-07-14T05:09:40.009Z</time>
      </trkpt>
      <trkpt lat="37.218565" lon="-3.414551">
        <ele>1214</ele>
        <time>2018-07-14T05:09:45.009Z</time>
      </trkpt>
      <trkpt lat="37.218529" lon="-3.414508">
        <ele>1215.2663388546</ele>
        <time>2018-07-14T05:09:49.009Z</time>
      </trkpt>
      <trkpt lat="37.218485" lon="-3.414469">
        <ele>1216</ele>
        <time>2018-07-14T05:09:54.009Z</time>
      </trkpt>
      <trkpt lat="37.218429" lon="-3.414447">
        <ele>1216.73099864322</ele>
        <time>2018-07-14T05:09:59.009Z</time>
      </trkpt>
      <trkpt lat="37.218373" lon="-3.414432">
        <ele>1216</ele>
        <time>2018-07-14T05:10:04.009Z</time>
      </trkpt>
      <trkpt lat="37.218325" lon="-3.41441">
        <ele>1217</ele>
        <time>2018-07-14T05:10:09.009Z</time>
      </trkpt>
      <trkpt lat="37.218266" lon="-3.414374">
        <ele>1217.26900135678</ele>
        <time>2018-07-14T05:10:17.009Z</time>
      </trkpt>
      <trkpt lat="37.218217" lon="-3.41435">
        <ele>1219.26900135678</ele>
        <time>2018-07-14T05:10:23.009Z</time>
      </trkpt>
      <trkpt lat="37.218164" lon="-3.414326">
        <ele>1220</ele>
        <time>2018-07-14T05:10:27.009Z</time>
      </trkpt>
      <trkpt lat="37.218122" lon="-3.414313">
        <ele>1220</ele>
        <time>2018-07-14T05:10:31.009Z</time>
      </trkpt>
      <trkpt lat="37.218092" lon="-3.414264">
        <ele>1220</ele>
        <time>2018-07-14T05:10:36.009Z</time>
      </trkpt>
      <trkpt lat="37.21804" lon="-3.414236">
        <ele>1221</ele>
        <time>2018-07-14T05:10:41.009Z</time>
      </trkpt>
      <trkpt lat="37.218008" lon="-3.414212">
        <ele>1221</ele>
        <time>2018-07-14T05:10:45.009Z</time>
      </trkpt>
      <trkpt lat="37.217967" lon="-3.41418">
        <ele>1221.2663388546</ele>
        <time>2018-07-14T05:10:49.009Z</time>
      </trkpt>
      <trkpt lat="37.217926" lon="-3.414163">
        <ele>1222</ele>
        <time>2018-07-14T05:10:52.009Z</time>
      </trkpt>
      <trkpt lat="37.217886" lon="-3.414141">
        <ele>1223</ele>
        <time>2018-07-14T05:10:55.009Z</time>
      </trkpt>
      <trkpt lat="37.217844" lon="-3.414108">
        <ele>1223.73099864322</ele>
        <time>2018-07-14T05:10:59.009Z</time>
      </trkpt>
      <trkpt lat="37.217809" lon="-3.414069">
        <ele>1224</ele>
        <time>2018-07-14T05:11:03.009Z</time>
      </trkpt>
      <trkpt lat="37.217772" lon="-3.414042">
        <ele>1225</ele>
        <time>2018-07-14T05:11:07.009Z</time>
      </trkpt>
      <trkpt lat="37.217724" lon="-3.414021">
        <ele>1226</ele>
        <time>2018-07-14T05:11:11.009Z</time>
      </trkpt>
      <trkpt lat="37.217679" lon="-3.414001">
        <ele>1226</ele>
        <time>2018-07-14T05:11:14.009Z</time>
      </trkpt>
      <trkpt lat="37.217638" lon="-3.413969">
        <ele>1227</ele>
        <time>2018-07-14T05:11:18.009Z</time>
      </trkpt>
      <trkpt lat="37.217602" lon="-3.413904">
        <ele>1227</ele>
        <time>2018-07-14T05:11:23.009Z</time>
      </trkpt>
      <trkpt lat="37.217566" lon="-3.413841">
        <ele>1228</ele>
        <time>2018-07-14T05:11:29.009Z</time>
      </trkpt>
      <trkpt lat="37.217506" lon="-3.413836">
        <ele>1229</ele>
        <time>2018-07-14T05:11:36.009Z</time>
      </trkpt>
      <trkpt lat="37.217458" lon="-3.413787">
        <ele>1230</ele>
        <time>2018-07-14T05:11:45.009Z</time>
      </trkpt>
      <trkpt lat="37.217414" lon="-3.413731">
        <ele>1230</ele>
        <time>2018-07-14T05:11:52.009Z</time>
      </trkpt>
      <trkpt lat="37.217355" lon="-3.413682">
        <ele>1231</ele>
        <time>2018-07-14T05:11:55.009Z</time>
      </trkpt>
      <trkpt lat="37.217298" lon="-3.413631">
        <ele>1232</ele>
        <time>2018-07-14T05:12:00.009Z</time>
      </trkpt>
      <trkpt lat="37.21725" lon="-3.413569">
        <ele>1231.73099864322</ele>
        <time>2018-07-14T05:12:07.009Z</time>
      </trkpt>
      <trkpt lat="37.217206" lon="-3.413502">
        <ele>1233</ele>
        <time>2018-07-14T05:12:15.009Z</time>
      </trkpt>
      <trkpt lat="37.217175" lon="-3.413438">
        <ele>1237</ele>
        <time>2018-07-14T05:12:26.009Z</time>
      </trkpt>
      <trkpt lat="37.217137" lon="-3.413395">
        <ele>1240.26899544314</ele>
        <time>2018-07-14T05:12:34.009Z</time>
      </trkpt>
      <trkpt lat="37.217138" lon="-3.413336">
        <ele>1243</ele>
        <time>2018-07-14T05:12:42.009Z</time>
      </trkpt>
      <trkpt lat="37.217115" lon="-3.413268">
        <ele>1244</ele>
        <time>2018-07-14T05:12:51.009Z</time>
      </trkpt>
      <trkpt lat="37.217076" lon="-3.413193">
        <ele>1244.26900135678</ele>
        <time>2018-07-14T05:13:01.009Z</time>
      </trkpt>
      <trkpt lat="37.217068" lon="-3.413116">
        <ele>1248</ele>
        <time>2018-07-14T05:13:12.009Z</time>
      </trkpt>
      <trkpt lat="37.217079" lon="-3.413011">
        <ele>1250</ele>
        <time>2018-07-14T05:13:23.009Z</time>
      </trkpt>
      <trkpt lat="37.217061" lon="-3.412923">
        <ele>1250</ele>
        <time>2018-07-14T05:13:34.009Z</time>
      </trkpt>
      <trkpt lat="37.217025" lon="-3.412839">
        <ele>1251</ele>
        <time>2018-07-14T05:13:40.009Z</time>
      </trkpt>
      <trkpt lat="37.216972" lon="-3.412767">
        <ele>1252</ele>
        <time>2018-07-14T05:13:46.009Z</time>
      </trkpt>
      <trkpt lat="37.216932" lon="-3.412706">
        <ele>1252</ele>
        <time>2018-07-14T05:13:53.009Z</time>
      </trkpt>
      <trkpt lat="37.216911" lon="-3.412626">
        <ele>1253.26900135678</ele>
        <time>2018-07-14T05:14:01.009Z</time>
      </trkpt>
      <trkpt lat="37.216878" lon="-3.412545">
        <ele>1255</ele>
        <time>2018-07-14T05:14:08.009Z</time>
      </trkpt>
      <trkpt lat="37.216893" lon="-3.412445">
        <ele>1257</ele>
        <time>2018-07-14T05:14:17.009Z</time>
      </trkpt>
      <trkpt lat="37.216883" lon="-3.412332">
        <ele>1257.26900135678</ele>
        <time>2018-07-14T05:14:25.009Z</time>
      </trkpt>
      <trkpt lat="37.216806" lon="-3.412278">
        <ele>1260</ele>
        <time>2018-07-14T05:14:30.009Z</time>
      </trkpt>
      <trkpt lat="37.216729" lon="-3.412224">
        <ele>1261</ele>
        <time>2018-07-14T05:14:35.009Z</time>
      </trkpt>
      <trkpt lat="37.216681" lon="-3.41211">
        <ele>1260.26900135678</ele>
        <time>2018-07-14T05:14:41.009Z</time>
      </trkpt>
      <trkpt lat="37.216621" lon="-3.411991">
        <ele>1260</ele>
        <time>2018-07-14T05:14:46.009Z</time>
      </trkpt>
      <trkpt lat="37.21652" lon="-3.411886">
        <ele>1261</ele>
        <time>2018-07-14T05:14:51.009Z</time>
      </trkpt>
      <trkpt lat="37.216421" lon="-3.411855">
        <ele>1262</ele>
        <time>2018-07-14T05:14:54.009Z</time>
      </trkpt>
      <trkpt lat="37.21633" lon="-3.411829">
        <ele>1262.21520218725</ele>
        <time>2018-07-14T05:14:57.009Z</time>
      </trkpt>
      <trkpt lat="37.216237" lon="-3.411822">
        <ele>1264</ele>
        <time>2018-07-14T05:15:01.009Z</time>
      </trkpt>
      <trkpt lat="37.216149" lon="-3.411829">
        <ele>1265.26900135678</ele>
        <time>2018-07-14T05:15:05.009Z</time>
      </trkpt>
      <trkpt lat="37.216065" lon="-3.411821">
        <ele>1267.26900135678</ele>
        <time>2018-07-14T05:15:09.009Z</time>
      </trkpt>
      <trkpt lat="37.215983" lon="-3.411821">
        <ele>1271</ele>
        <time>2018-07-14T05:15:13.009Z</time>
      </trkpt>
      <trkpt lat="37.215922" lon="-3.411821">
        <ele>1272</ele>
        <time>2018-07-14T05:15:17.009Z</time>
      </trkpt>
      <trkpt lat="37.215865" lon="-3.411807">
        <ele>1273.26900135678</ele>
        <time>2018-07-14T05:15:21.009Z</time>
      </trkpt>
      <trkpt lat="37.215832" lon="-3.41176">
        <ele>1275</ele>
        <time>2018-07-14T05:15:25.009Z</time>
      </trkpt>
      <trkpt lat="37.215804" lon="-3.411705">
        <ele>1276</ele>
        <time>2018-07-14T05:15:31.009Z</time>
      </trkpt>
      <trkpt lat="37.215778" lon="-3.411663">
        <ele>1276</ele>
        <time>2018-07-14T05:15:36.009Z</time>
      </trkpt>
      <trkpt lat="37.215753" lon="-3.41161">
        <ele>1277</ele>
        <time>2018-07-14T05:15:42.009Z</time>
      </trkpt>
      <trkpt lat="37.215727" lon="-3.411556">
        <ele>1279</ele>
        <time>2018-07-14T05:15:48.009Z</time>
      </trkpt>
      <trkpt lat="37.215688" lon="-3.411534">
        <ele>1280</ele>
        <time>2018-07-14T05:15:53.009Z</time>
      </trkpt>
      <trkpt lat="37.215656" lon="-3.411507">
        <ele>1281.26899544314</ele>
        <time>2018-07-14T05:15:58.009Z</time>
      </trkpt>
      <trkpt lat="37.215609" lon="-3.41148">
        <ele>1283.26900135678</ele>
        <time>2018-07-14T05:16:05.009Z</time>
      </trkpt>
      <trkpt lat="37.215565" lon="-3.411442">
        <ele>1285</ele>
        <time>2018-07-14T05:16:12.009Z</time>
      </trkpt>
      <trkpt lat="37.215539" lon="-3.41139">
        <ele>1286</ele>
        <time>2018-07-14T05:16:17.009Z</time>
      </trkpt>
      <trkpt lat="37.2155" lon="-3.411346">
        <ele>1287</ele>
        <time>2018-07-14T05:16:23.009Z</time>
      </trkpt>
      <trkpt lat="37.215464" lon="-3.411293">
        <ele>1288</ele>
        <time>2018-07-14T05:16:28.009Z</time>
      </trkpt>
      <trkpt lat="37.215407" lon="-3.411254">
        <ele>1288</ele>
        <time>2018-07-14T05:16:31.009Z</time>
      </trkpt>
      <trkpt lat="37.215358" lon="-3.411188">
        <ele>1288</ele>
        <time>2018-07-14T05:16:34.009Z</time>
      </trkpt>
      <trkpt lat="37.215324" lon="-3.411141">
        <ele>1288</ele>
        <time>2018-07-14T05:16:36.009Z</time>
      </trkpt>
      <trkpt lat="37.215296" lon="-3.411082">
        <ele>1287.73099864322</ele>
        <time>2018-07-14T05:16:39.009Z</time>
      </trkpt>
      <trkpt lat="37.215264" lon="-3.411027">
        <ele>1287</ele>
        <time>2018-07-14T05:16:42.009Z</time>
      </trkpt>
      <trkpt lat="37.215207" lon="-3.411012">
        <ele>1286</ele>
        <time>2018-07-14T05:16:47.009Z</time>
      </trkpt>
      <trkpt lat="37.215186" lon="-3.410961">
        <ele>1284.73100455686</ele>
        <time>2018-07-14T05:16:50.009Z</time>
      </trkpt>
      <trkpt lat="37.215174" lon="-3.41088">
        <ele>1284</ele>
        <time>2018-07-14T05:16:53.009Z</time>
      </trkpt>
      <trkpt lat="37.215156" lon="-3.410793">
        <ele>1284</ele>
        <time>2018-07-14T05:16:56.009Z</time>
      </trkpt>
      <trkpt lat="37.215137" lon="-3.410702">
        <ele>1283</ele>
        <time>2018-07-14T05:17:00.009Z</time>
      </trkpt>
      <trkpt lat="37.215093" lon="-3.410654">
        <ele>1282</ele>
        <time>2018-07-14T05:17:06.009Z</time>
      </trkpt>
      <trkpt lat="37.215076" lon="-3.41059">
        <ele>1280.73100455686</ele>
        <time>2018-07-14T05:17:12.009Z</time>
      </trkpt>
      <trkpt lat="37.215078" lon="-3.410516">
        <ele>1279</ele>
        <time>2018-07-14T05:17:19.009Z</time>
      </trkpt>
      <trkpt lat="37.215069" lon="-3.410441">
        <ele>1278</ele>
        <time>2018-07-14T05:17:27.009Z</time>
      </trkpt>
      <trkpt lat="37.215059" lon="-3.41036">
        <ele>1277</ele>
        <time>2018-07-14T05:17:32.009Z</time>
      </trkpt>
      <trkpt lat="37.215041" lon="-3.41028">
        <ele>1275.73099864322</ele>
        <time>2018-07-14T05:17:37.009Z</time>
      </trkpt>
      <trkpt lat="37.215075" lon="-3.410209">
        <ele>1272.73099864322</ele>
        <time>2018-07-14T05:17:43.009Z</time>
      </trkpt>
      <trkpt lat="37.215058" lon="-3.410128">
        <ele>1271</ele>
        <time>2018-07-14T05:17:48.009Z</time>
      </trkpt>
      <trkpt lat="37.21498" lon="-3.410123">
        <ele>1269</ele>
        <time>2018-07-14T05:17:55.009Z</time>
      </trkpt>
      <trkpt lat="37.214895" lon="-3.410143">
        <ele>1268</ele>
        <time>2018-07-14T05:18:01.009Z</time>
      </trkpt>
      <trkpt lat="37.214831" lon="-3.410158">
        <ele>1266</ele>
        <time>2018-07-14T05:18:04.009Z</time>
      </trkpt>
      <trkpt lat="37.214765" lon="-3.410213">
        <ele>1265</ele>
        <time>2018-07-14T05:18:07.009Z</time>
      </trkpt>
      <trkpt lat="37.214696" lon="-3.410249">
        <ele>1264</ele>
        <time>2018-07-14T05:18:11.009Z</time>
      </trkpt>
      <trkpt lat="37.214617" lon="-3.41027">
        <ele>1262</ele>
        <time>2018-07-14T05:18:17.009Z</time>
      </trkpt>
      <trkpt lat="37.214561" lon="-3.41024">
        <ele>1259.73100455686</ele>
        <time>2018-07-14T05:18:22.009Z</time>
      </trkpt>
      <trkpt lat="37.214498" lon="-3.410263">
        <ele>1258.73099864322</ele>
        <time>2018-07-14T05:18:27.009Z</time>
      </trkpt>
      <trkpt lat="37.214434" lon="-3.410279">
        <ele>1258</ele>
        <time>2018-07-14T05:18:30.009Z</time>
      </trkpt>
      <trkpt lat="37.214371" lon="-3.410301">
        <ele>1258</ele>
        <time>2018-07-14T05:18:33.009Z</time>
      </trkpt>
      <trkpt lat="37.214296" lon="-3.410316">
        <ele>1257</ele>
        <time>2018-07-14T05:18:36.009Z</time>
      </trkpt>
      <trkpt lat="37.214199" lon="-3.410315">
        <ele>1256</ele>
        <time>2018-07-14T05:18:40.009Z</time>
      </trkpt>
      <trkpt lat="37.214106" lon="-3.410301">
        <ele>1254</ele>
        <time>2018-07-14T05:18:44.009Z</time>
      </trkpt>
      <trkpt lat="37.214018" lon="-3.410272">
        <ele>1252</ele>
        <time>2018-07-14T05:18:48.009Z</time>
      </trkpt>
      <trkpt lat="37.213954" lon="-3.410249">
        <ele>1252</ele>
        <time>2018-07-14T05:18:51.009Z</time>
      </trkpt>
      <trkpt lat="37.213867" lon="-3.410207">
        <ele>1249.73100455686</ele>
        <time>2018-07-14T05:18:56.009Z</time>
      </trkpt>
      <trkpt lat="37.213798" lon="-3.41019">
        <ele>1247.73100455686</ele>
        <time>2018-07-14T05:19:02.009Z</time>
      </trkpt>
      <trkpt lat="37.213732" lon="-3.410174">
        <ele>1245</ele>
        <time>2018-07-14T05:19:08.009Z</time>
      </trkpt>
      <trkpt lat="37.213652" lon="-3.410154">
        <ele>1242.73100455686</ele>
        <time>2018-07-14T05:19:14.009Z</time>
      </trkpt>
      <trkpt lat="37.213565" lon="-3.410139">
        <ele>1239.73100455686</ele>
        <time>2018-07-14T05:19:22.009Z</time>
      </trkpt>
      <trkpt lat="37.213501" lon="-3.410071">
        <ele>1238</ele>
        <time>2018-07-14T05:19:26.009Z</time>
      </trkpt>
      <trkpt lat="37.213443" lon="-3.409977">
        <ele>1236</ele>
        <time>2018-07-14T05:19:30.009Z</time>
      </trkpt>
      <trkpt lat="37.213406" lon="-3.409865">
        <ele>1235</ele>
        <time>2018-07-14T05:19:34.009Z</time>
      </trkpt>
      <trkpt lat="37.213413" lon="-3.409747">
        <ele>1235</ele>
        <time>2018-07-14T05:19:38.009Z</time>
      </trkpt>
      <trkpt lat="37.213314" lon="-3.409776">
        <ele>1233</ele>
        <time>2018-07-14T05:19:47.009Z</time>
      </trkpt>
      <trkpt lat="37.213225" lon="-3.409787">
        <ele>1232.73100455686</ele>
        <time>2018-07-14T05:19:50.009Z</time>
      </trkpt>
      <trkpt lat="37.213151" lon="-3.40977">
        <ele>1232</ele>
        <time>2018-07-14T05:19:53.009Z</time>
      </trkpt>
      <trkpt lat="37.213081" lon="-3.409776">
        <ele>1232</ele>
        <time>2018-07-14T05:19:56.009Z</time>
      </trkpt>
      <trkpt lat="37.213014" lon="-3.409761">
        <ele>1232</ele>
        <time>2018-07-14T05:19:59.009Z</time>
      </trkpt>
      <trkpt lat="37.212945" lon="-3.40975">
        <ele>1231.26899544314</ele>
        <time>2018-07-14T05:20:02.009Z</time>
      </trkpt>
      <trkpt lat="37.212882" lon="-3.409737">
        <ele>1231</ele>
        <time>2018-07-14T05:20:05.009Z</time>
      </trkpt>
      <trkpt lat="37.212809" lon="-3.409773">
        <ele>1230</ele>
        <time>2018-07-14T05:20:09.009Z</time>
      </trkpt>
      <trkpt lat="37.212741" lon="-3.409849">
        <ele>1228.73100455686</ele>
        <time>2018-07-14T05:20:14.009Z</time>
      </trkpt>
      <trkpt lat="37.212689" lon="-3.409914">
        <ele>1225.73100455686</ele>
        <time>2018-07-14T05:20:18.009Z</time>
      </trkpt>
      <trkpt lat="37.212647" lon="-3.409982">
        <ele>1224</ele>
        <time>2018-07-14T05:20:22.009Z</time>
      </trkpt>
      <trkpt lat="37.212592" lon="-3.410038">
        <ele>1223</ele>
        <time>2018-07-14T05:20:26.009Z</time>
      </trkpt>
      <trkpt lat="37.212542" lon="-3.410064">
        <ele>1222</ele>
        <time>2018-07-14T05:20:28.009Z</time>
      </trkpt>
      <trkpt lat="37.212473" lon="-3.410096">
        <ele>1221</ele>
        <time>2018-07-14T05:20:31.009Z</time>
      </trkpt>
      <trkpt lat="37.212425" lon="-3.410092">
        <ele>1220</ele>
        <time>2018-07-14T05:20:33.009Z</time>
      </trkpt>
      <trkpt lat="37.212384" lon="-3.410065">
        <ele>1219</ele>
        <time>2018-07-14T05:20:37.009Z</time>
      </trkpt>
      <trkpt lat="37.212376" lon="-3.410017">
        <ele>1218</ele>
        <time>2018-07-14T05:20:40.009Z</time>
      </trkpt>
      <trkpt lat="37.212357" lon="-3.409953">
        <ele>1217</ele>
        <time>2018-07-14T05:20:43.009Z</time>
      </trkpt>
      <trkpt lat="37.212337" lon="-3.40988">
        <ele>1216</ele>
        <time>2018-07-14T05:20:46.009Z</time>
      </trkpt>
      <trkpt lat="37.212307" lon="-3.409784">
        <ele>1216</ele>
        <time>2018-07-14T05:20:50.009Z</time>
      </trkpt>
      <trkpt lat="37.21224" lon="-3.409684">
        <ele>1215</ele>
        <time>2018-07-14T05:20:55.009Z</time>
      </trkpt>
      <trkpt lat="37.212159" lon="-3.409608">
        <ele>1214</ele>
        <time>2018-07-14T05:20:59.009Z</time>
      </trkpt>
      <trkpt lat="37.212102" lon="-3.409566">
        <ele>1212.73099864322</ele>
        <time>2018-07-14T05:21:03.009Z</time>
      </trkpt>
      <trkpt lat="37.212064" lon="-3.409506">
        <ele>1211</ele>
        <time>2018-07-14T05:21:07.009Z</time>
      </trkpt>
      <trkpt lat="37.212028" lon="-3.409442">
        <ele>1210</ele>
        <time>2018-07-14T05:21:11.009Z</time>
      </trkpt>
      <trkpt lat="37.21199" lon="-3.40939">
        <ele>1208.73099864322</ele>
        <time>2018-07-14T05:21:15.009Z</time>
      </trkpt>
      <trkpt lat="37.211948" lon="-3.409347">
        <ele>1208</ele>
        <time>2018-07-14T05:21:18.009Z</time>
      </trkpt>
      <trkpt lat="37.21191" lon="-3.409293">
        <ele>1207</ele>
        <time>2018-07-14T05:21:22.009Z</time>
      </trkpt>
      <trkpt lat="37.21187" lon="-3.409242">
        <ele>1206.73099864322</ele>
        <time>2018-07-14T05:21:25.009Z</time>
      </trkpt>
      <trkpt lat="37.211842" lon="-3.40919">
        <ele>1206</ele>
        <time>2018-07-14T05:21:28.009Z</time>
      </trkpt>
      <trkpt lat="37.211814" lon="-3.409133">
        <ele>1206</ele>
        <time>2018-07-14T05:21:32.009Z</time>
      </trkpt>
      <trkpt lat="37.21179" lon="-3.409079">
        <ele>1206</ele>
        <time>2018-07-14T05:21:36.009Z</time>
      </trkpt>
      <trkpt lat="37.21176" lon="-3.409038">
        <ele>1205</ele>
        <time>2018-07-14T05:21:40.009Z</time>
      </trkpt>
      <trkpt lat="37.211736" lon="-3.408981">
        <ele>1205</ele>
        <time>2018-07-14T05:21:45.009Z</time>
      </trkpt>
      <trkpt lat="37.211702" lon="-3.408933">
        <ele>1205</ele>
        <time>2018-07-14T05:21:50.009Z</time>
      </trkpt>
      <trkpt lat="37.211668" lon="-3.408902">
        <ele>1204</ele>
        <time>2018-07-14T05:22:16.009Z</time>
      </trkpt>
      <trkpt lat="37.211626" lon="-3.408885">
        <ele>1204</ele>
        <time>2018-07-14T05:22:18.009Z</time>
      </trkpt>
      <trkpt lat="37.211574" lon="-3.408834">
        <ele>1203</ele>
        <time>2018-07-14T05:22:21.009Z</time>
      </trkpt>
      <trkpt lat="37.211533" lon="-3.40877">
        <ele>1203</ele>
        <time>2018-07-14T05:22:24.009Z</time>
      </trkpt>
      <trkpt lat="37.211476" lon="-3.40871">
        <ele>1203</ele>
        <time>2018-07-14T05:22:27.009Z</time>
      </trkpt>
      <trkpt lat="37.21141" lon="-3.408647">
        <ele>1202</ele>
        <time>2018-07-14T05:22:30.009Z</time>
      </trkpt>
      <trkpt lat="37.211344" lon="-3.408585">
        <ele>1201</ele>
        <time>2018-07-14T05:22:33.009Z</time>
      </trkpt>
      <trkpt lat="37.211292" lon="-3.408551">
        <ele>1200</ele>
        <time>2018-07-14T05:22:45.009Z</time>
      </trkpt>
      <trkpt lat="37.211222" lon="-3.408535">
        <ele>1200</ele>
        <time>2018-07-14T05:22:48.009Z</time>
      </trkpt>
      <trkpt lat="37.21116" lon="-3.408525">
        <ele>1199</ele>
        <time>2018-07-14T05:22:50.009Z</time>
      </trkpt>
      <trkpt lat="37.21109" lon="-3.408481">
        <ele>1199</ele>
        <time>2018-07-14T05:22:53.009Z</time>
      </trkpt>
      <trkpt lat="37.211046" lon="-3.408406">
        <ele>1198</ele>
        <time>2018-07-14T05:22:56.009Z</time>
      </trkpt>
      <trkpt lat="37.211022" lon="-3.408312">
        <ele>1198.26900135678</ele>
        <time>2018-07-14T05:22:59.009Z</time>
      </trkpt>
      <trkpt lat="37.211008" lon="-3.408208">
        <ele>1198</ele>
        <time>2018-07-14T05:23:02.009Z</time>
      </trkpt>
      <trkpt lat="37.211002" lon="-3.408097">
        <ele>1197</ele>
        <time>2018-07-14T05:23:05.009Z</time>
      </trkpt>
      <trkpt lat="37.210995" lon="-3.408003">
        <ele>1197</ele>
        <time>2018-07-14T05:23:08.009Z</time>
      </trkpt>
      <trkpt lat="37.211007" lon="-3.407905">
        <ele>1198</ele>
        <time>2018-07-14T05:23:12.009Z</time>
      </trkpt>
      <trkpt lat="37.210964" lon="-3.407823">
        <ele>1198.26899544314</ele>
        <time>2018-07-14T05:23:16.009Z</time>
      </trkpt>
      <trkpt lat="37.210906" lon="-3.407787">
        <ele>1199</ele>
        <time>2018-07-14T05:23:19.009Z</time>
      </trkpt>
      <trkpt lat="37.210842" lon="-3.407769">
        <ele>1198</ele>
        <time>2018-07-14T05:23:25.009Z</time>
      </trkpt>
      <trkpt lat="37.210795" lon="-3.407821">
        <ele>1198</ele>
        <time>2018-07-14T05:23:29.009Z</time>
      </trkpt>
      <trkpt lat="37.210727" lon="-3.407838">
        <ele>1198</ele>
        <time>2018-07-14T05:23:33.009Z</time>
      </trkpt>
      <trkpt lat="37.210646" lon="-3.407821">
        <ele>1198</ele>
        <time>2018-07-14T05:23:39.009Z</time>
      </trkpt>
      <trkpt lat="37.210579" lon="-3.407791">
        <ele>1197</ele>
        <time>2018-07-14T05:23:44.009Z</time>
      </trkpt>
      <trkpt lat="37.210524" lon="-3.407747">
        <ele>1196</ele>
        <time>2018-07-14T05:23:49.009Z</time>
      </trkpt>
      <trkpt lat="37.210475" lon="-3.407702">
        <ele>1196</ele>
        <time>2018-07-14T05:23:53.009Z</time>
      </trkpt>
      <trkpt lat="37.210446" lon="-3.407646">
        <ele>1196</ele>
        <time>2018-07-14T05:23:57.009Z</time>
      </trkpt>
      <trkpt lat="37.210401" lon="-3.407596">
        <ele>1196</ele>
        <time>2018-07-14T05:24:02.009Z</time>
      </trkpt>
      <trkpt lat="37.21036" lon="-3.407561">
        <ele>1196</ele>
        <time>2018-07-14T05:24:05.009Z</time>
      </trkpt>
      <trkpt lat="37.210302" lon="-3.407511">
        <ele>1195</ele>
        <time>2018-07-14T05:24:12.009Z</time>
      </trkpt>
      <trkpt lat="37.210243" lon="-3.407487">
        <ele>1195</ele>
        <time>2018-07-14T05:24:17.009Z</time>
      </trkpt>
      <trkpt lat="37.210185" lon="-3.407441">
        <ele>1195</ele>
        <time>2018-07-14T05:24:22.009Z</time>
      </trkpt>
      <trkpt lat="37.21013" lon="-3.407391">
        <ele>1195</ele>
        <time>2018-07-14T05:24:25.009Z</time>
      </trkpt>
      <trkpt lat="37.210087" lon="-3.407343">
        <ele>1194.26899544314</ele>
        <time>2018-07-14T05:24:28.009Z</time>
      </trkpt>
      <trkpt lat="37.210047" lon="-3.407291">
        <ele>1194</ele>
        <time>2018-07-14T05:24:32.009Z</time>
      </trkpt>
      <trkpt lat="37.209989" lon="-3.407264">
        <ele>1193.95694222222</ele>
        <time>2018-07-14T05:24:36.009Z</time>
      </trkpt>
      <trkpt lat="37.209951" lon="-3.407254">
        <ele>1193</ele>
        <time>2018-07-14T05:24:39.009Z</time>
      </trkpt>
      <trkpt lat="37.209915" lon="-3.407241">
        <ele>1193</ele>
        <time>2018-07-14T05:24:42.009Z</time>
      </trkpt>
      <trkpt lat="37.20988" lon="-3.407214">
        <ele>1192.26900135678</ele>
        <time>2018-07-14T05:24:45.009Z</time>
      </trkpt>
      <trkpt lat="37.209848" lon="-3.407212">
        <ele>1192.73099864322</ele>
        <time>2018-07-14T05:24:47.009Z</time>
      </trkpt>
      <trkpt lat="37.209787" lon="-3.407217">
        <ele>1192</ele>
        <time>2018-07-14T05:24:50.009Z</time>
      </trkpt>
      <trkpt lat="37.209748" lon="-3.407224">
        <ele>1192</ele>
        <time>2018-07-14T05:24:52.009Z</time>
      </trkpt>
      <trkpt lat="37.209715" lon="-3.407232">
        <ele>1192</ele>
        <time>2018-07-14T05:24:55.009Z</time>
      </trkpt>
      <trkpt lat="37.209673" lon="-3.407216">
        <ele>1190.73100455686</ele>
        <time>2018-07-14T05:24:58.009Z</time>
      </trkpt>
      <trkpt lat="37.209646" lon="-3.407175">
        <ele>1189.73099864322</ele>
        <time>2018-07-14T05:25:01.009Z</time>
      </trkpt>
      <trkpt lat="37.209648" lon="-3.407117">
        <ele>1188.73100455686</ele>
        <time>2018-07-14T05:25:04.009Z</time>
      </trkpt>
      <trkpt lat="37.209657" lon="-3.407076">
        <ele>1188</ele>
        <time>2018-07-14T05:25:06.009Z</time>
      </trkpt>
      <trkpt lat="37.209666" lon="-3.407017">
        <ele>1187.73099864322</ele>
        <time>2018-07-14T05:25:09.009Z</time>
      </trkpt>
      <trkpt lat="37.209685" lon="-3.406963">
        <ele>1187</ele>
        <time>2018-07-14T05:25:11.009Z</time>
      </trkpt>
      <trkpt lat="37.209704" lon="-3.406892">
        <ele>1187</ele>
        <time>2018-07-14T05:25:14.009Z</time>
      </trkpt>
      <trkpt lat="37.209716" lon="-3.406843">
        <ele>1186</ele>
        <time>2018-07-14T05:25:17.009Z</time>
      </trkpt>
      <trkpt lat="37.209728" lon="-3.406787">
        <ele>1186</ele>
        <time>2018-07-14T05:25:21.009Z</time>
      </trkpt>
      <trkpt lat="37.209747" lon="-3.406683">
        <ele>1181</ele>
        <time>2018-07-14T05:26:11.009Z</time>
      </trkpt>
      <trkpt lat="37.209776" lon="-3.406596">
        <ele>1180.26899544314</ele>
        <time>2018-07-14T05:26:14.009Z</time>
      </trkpt>
      <trkpt lat="37.209811" lon="-3.406483">
        <ele>1180</ele>
        <time>2018-07-14T05:26:18.009Z</time>
      </trkpt>
      <trkpt lat="37.20982" lon="-3.406357">
        <ele>1179</ele>
        <time>2018-07-14T05:26:23.009Z</time>
      </trkpt>
      <trkpt lat="37.209804" lon="-3.406251">
        <ele>1178</ele>
        <time>2018-07-14T05:26:27.009Z</time>
      </trkpt>
      <trkpt lat="37.209777" lon="-3.406104">
        <ele>1176</ele>
        <time>2018-07-14T05:26:33.009Z</time>
      </trkpt>
      <trkpt lat="37.209736" lon="-3.406002">
        <ele>1175</ele>
        <time>2018-07-14T05:26:37.009Z</time>
      </trkpt>
      <trkpt lat="37.209697" lon="-3.405931">
        <ele>1174</ele>
        <time>2018-07-14T05:26:41.009Z</time>
      </trkpt>
      <trkpt lat="37.209657" lon="-3.405857">
        <ele>1173</ele>
        <time>2018-07-14T05:26:47.009Z</time>
      </trkpt>
      <trkpt lat="37.209613" lon="-3.405894">
        <ele>1166</ele>
        <time>2018-07-14T05:26:56.009Z</time>
      </trkpt>
      <trkpt lat="37.20952" lon="-3.405973">
        <ele>1164</ele>
        <time>2018-07-14T05:27:10.009Z</time>
      </trkpt>
      <trkpt lat="37.209483" lon="-3.406074">
        <ele>1164</ele>
        <time>2018-07-14T05:27:17.009Z</time>
      </trkpt>
      <trkpt lat="37.209415" lon="-3.40616">
        <ele>1166</ele>
        <time>2018-07-14T05:27:26.009Z</time>
      </trkpt>
      <trkpt lat="37.209327" lon="-3.406169">
        <ele>1167.26899544314</ele>
        <time>2018-07-14T05:27:32.009Z</time>
      </trkpt>
      <trkpt lat="37.20926" lon="-3.406159">
        <ele>1168</ele>
        <time>2018-07-14T05:27:36.009Z</time>
      </trkpt>
      <trkpt lat="37.209213" lon="-3.406147">
        <ele>1169</ele>
        <time>2018-07-14T05:27:39.009Z</time>
      </trkpt>
      <trkpt lat="37.20917" lon="-3.406132">
        <ele>1169</ele>
        <time>2018-07-14T05:27:42.009Z</time>
      </trkpt>
      <trkpt lat="37.209129" lon="-3.406106">
        <ele>1170</ele>
        <time>2018-07-14T05:27:45.009Z</time>
      </trkpt>
      <trkpt lat="37.209089" lon="-3.406088">
        <ele>1170</ele>
        <time>2018-07-14T05:27:48.009Z</time>
      </trkpt>
      <trkpt lat="37.209044" lon="-3.406082">
        <ele>1170</ele>
        <time>2018-07-14T05:27:51.009Z</time>
      </trkpt>
      <trkpt lat="37.209005" lon="-3.406057">
        <ele>1170</ele>
        <time>2018-07-14T05:27:54.009Z</time>
      </trkpt>
      <trkpt lat="37.208965" lon="-3.406031">
        <ele>1171</ele>
        <time>2018-07-14T05:27:57.009Z</time>
      </trkpt>
      <trkpt lat="37.208926" lon="-3.406011">
        <ele>1171</ele>
        <time>2018-07-14T05:28:00.009Z</time>
      </trkpt>
      <trkpt lat="37.208885" lon="-3.405984">
        <ele>1172</ele>
        <time>2018-07-14T05:28:03.009Z</time>
      </trkpt>
      <trkpt lat="37.20882" lon="-3.40596">
        <ele>1172.26899544314</ele>
        <time>2018-07-14T05:28:06.009Z</time>
      </trkpt>
      <trkpt lat="37.208762" lon="-3.40594">
        <ele>1173</ele>
        <time>2018-07-14T05:28:08.009Z</time>
      </trkpt>
      <trkpt lat="37.208685" lon="-3.405927">
        <ele>1173</ele>
        <time>2018-07-14T05:28:11.009Z</time>
      </trkpt>
      <trkpt lat="37.208625" lon="-3.405894">
        <ele>1174</ele>
        <time>2018-07-14T05:28:14.009Z</time>
      </trkpt>
      <trkpt lat="37.208551" lon="-3.405854">
        <ele>1174</ele>
        <time>2018-07-14T05:28:17.009Z</time>
      </trkpt>
      <trkpt lat="37.208479" lon="-3.405821">
        <ele>1174</ele>
        <time>2018-07-14T05:28:20.009Z</time>
      </trkpt>
      <trkpt lat="37.208423" lon="-3.405834">
        <ele>1173.26899544314</ele>
        <time>2018-07-14T05:28:24.009Z</time>
      </trkpt>
      <trkpt lat="37.208377" lon="-3.405841">
        <ele>1174</ele>
        <time>2018-07-14T05:28:28.009Z</time>
      </trkpt>
      <trkpt lat="37.208344" lon="-3.405779">
        <ele>1174</ele>
        <time>2018-07-14T05:28:34.009Z</time>
      </trkpt>
      <trkpt lat="37.208303" lon="-3.405688">
        <ele>1174</ele>
        <time>2018-07-14T05:28:37.009Z</time>
      </trkpt>
      <trkpt lat="37.208256" lon="-3.405607">
        <ele>1174</ele>
        <time>2018-07-14T05:28:40.009Z</time>
      </trkpt>
      <trkpt lat="37.208207" lon="-3.405558">
        <ele>1174</ele>
        <time>2018-07-14T05:28:43.009Z</time>
      </trkpt>
      <trkpt lat="37.20816" lon="-3.405511">
        <ele>1173.26900135678</ele>
        <time>2018-07-14T05:28:47.009Z</time>
      </trkpt>
      <trkpt lat="37.208138" lon="-3.405431">
        <ele>1174</ele>
        <time>2018-07-14T05:28:50.009Z</time>
      </trkpt>
      <trkpt lat="37.208108" lon="-3.405364">
        <ele>1174</ele>
        <time>2018-07-14T05:28:53.009Z</time>
      </trkpt>
      <trkpt lat="37.208068" lon="-3.405303">
        <ele>1173.73367044331</ele>
        <time>2018-07-14T05:28:56.009Z</time>
      </trkpt>
      <trkpt lat="37.208041" lon="-3.405255">
        <ele>1173</ele>
        <time>2018-07-14T05:28:58.009Z</time>
      </trkpt>
      <trkpt lat="37.208025" lon="-3.405173">
        <ele>1173</ele>
        <time>2018-07-14T05:29:01.009Z</time>
      </trkpt>
      <trkpt lat="37.208027" lon="-3.405094">
        <ele>1172</ele>
        <time>2018-07-14T05:29:04.009Z</time>
      </trkpt>
      <trkpt lat="37.208049" lon="-3.404999">
        <ele>1171</ele>
        <time>2018-07-14T05:29:08.009Z</time>
      </trkpt>
      <trkpt lat="37.208054" lon="-3.404913">
        <ele>1171</ele>
        <time>2018-07-14T05:29:11.009Z</time>
      </trkpt>
      <trkpt lat="37.208055" lon="-3.404853">
        <ele>1170</ele>
        <time>2018-07-14T05:29:13.009Z</time>
      </trkpt>
      <trkpt lat="37.208059" lon="-3.404767">
        <ele>1169.73100455686</ele>
        <time>2018-07-14T05:29:16.009Z</time>
      </trkpt>
      <trkpt lat="37.208042" lon="-3.404675">
        <ele>1169</ele>
        <time>2018-07-14T05:29:20.009Z</time>
      </trkpt>
      <trkpt lat="37.208027" lon="-3.404582">
        <ele>1168</ele>
        <time>2018-07-14T05:29:24.009Z</time>
      </trkpt>
      <trkpt lat="37.208038" lon="-3.404503">
        <ele>1167</ele>
        <time>2018-07-14T05:29:29.009Z</time>
      </trkpt>
      <trkpt lat="37.208003" lon="-3.404474">
        <ele>1166</ele>
        <time>2018-07-14T05:29:32.009Z</time>
      </trkpt>
      <trkpt lat="37.207974" lon="-3.404405">
        <ele>1164</ele>
        <time>2018-07-14T05:29:44.009Z</time>
      </trkpt>
      <trkpt lat="37.207927" lon="-3.404451">
        <ele>1159</ele>
        <time>2018-07-14T05:30:08.009Z</time>
      </trkpt>
      <trkpt lat="37.207872" lon="-3.404474">
        <ele>1160</ele>
        <time>2018-07-14T05:30:17.009Z</time>
      </trkpt>
      <trkpt lat="37.207824" lon="-3.40446">
        <ele>1163</ele>
        <time>2018-07-14T05:30:25.009Z</time>
      </trkpt>
      <trkpt lat="37.207798" lon="-3.404504">
        <ele>1163.73100455686</ele>
        <time>2018-07-14T05:30:32.009Z</time>
      </trkpt>
      <trkpt lat="37.207751" lon="-3.404515">
        <ele>1164.26899544314</ele>
        <time>2018-07-14T05:30:46.009Z</time>
      </trkpt>
      <trkpt lat="37.207717" lon="-3.40455">
        <ele>1165</ele>
        <time>2018-07-14T05:30:55.009Z</time>
      </trkpt>
      <trkpt lat="37.207682" lon="-3.404584">
        <ele>1166</ele>
        <time>2018-07-14T05:31:00.009Z</time>
      </trkpt>
      <trkpt lat="37.20766" lon="-3.404623">
        <ele>1167</ele>
        <time>2018-07-14T05:31:04.009Z</time>
      </trkpt>
      <trkpt lat="37.207649" lon="-3.404675">
        <ele>1168</ele>
        <time>2018-07-14T05:31:09.009Z</time>
      </trkpt>
      <trkpt lat="37.207643" lon="-3.404728">
        <ele>1169</ele>
        <time>2018-07-14T05:31:14.009Z</time>
      </trkpt>
      <trkpt lat="37.207625" lon="-3.404772">
        <ele>1170</ele>
        <time>2018-07-14T05:31:19.009Z</time>
      </trkpt>
      <trkpt lat="37.207596" lon="-3.404804">
        <ele>1171</ele>
        <time>2018-07-14T05:31:24.009Z</time>
      </trkpt>
      <trkpt lat="37.207595" lon="-3.404861">
        <ele>1172</ele>
        <time>2018-07-14T05:31:30.009Z</time>
      </trkpt>
      <trkpt lat="37.207602" lon="-3.40491">
        <ele>1172</ele>
        <time>2018-07-14T05:31:35.009Z</time>
      </trkpt>
      <trkpt lat="37.20758" lon="-3.404966">
        <ele>1174</ele>
        <time>2018-07-14T05:31:44.009Z</time>
      </trkpt>
      <trkpt lat="37.207553" lon="-3.405032">
        <ele>1174</ele>
        <time>2018-07-14T05:31:50.009Z</time>
      </trkpt>
      <trkpt lat="37.207547" lon="-3.405091">
        <ele>1175</ele>
        <time>2018-07-14T05:31:53.009Z</time>
      </trkpt>
      <trkpt lat="37.207547" lon="-3.405158">
        <ele>1174</ele>
        <time>2018-07-14T05:31:56.009Z</time>
      </trkpt>
      <trkpt lat="37.207535" lon="-3.40521">
        <ele>1174</ele>
        <time>2018-07-14T05:31:59.009Z</time>
      </trkpt>
      <trkpt lat="37.207522" lon="-3.405241">
        <ele>1175</ele>
        <time>2018-07-14T05:32:01.009Z</time>
      </trkpt>
      <trkpt lat="37.207512" lon="-3.405273">
        <ele>1175</ele>
        <time>2018-07-14T05:32:03.009Z</time>
      </trkpt>
      <trkpt lat="37.207514" lon="-3.405336">
        <ele>1176</ele>
        <time>2018-07-14T05:32:07.009Z</time>
      </trkpt>
      <trkpt lat="37.207509" lon="-3.405404">
        <ele>1177</ele>
        <time>2018-07-14T05:32:12.009Z</time>
      </trkpt>
      <trkpt lat="37.207511" lon="-3.405482">
        <ele>1177.73099864322</ele>
        <time>2018-07-14T05:32:19.009Z</time>
      </trkpt>
      <trkpt lat="37.207522" lon="-3.405611">
        <ele>1179.26899544314</ele>
        <time>2018-07-14T05:32:30.009Z</time>
      </trkpt>
      <trkpt lat="37.207544" lon="-3.405733">
        <ele>1181</ele>
        <time>2018-07-14T05:32:40.009Z</time>
      </trkpt>
      <trkpt lat="37.207552" lon="-3.405808">
        <ele>1182</ele>
        <time>2018-07-14T05:32:49.009Z</time>
      </trkpt>
      <trkpt lat="37.207581" lon="-3.405867">
        <ele>1182</ele>
        <time>2018-07-14T05:32:54.009Z</time>
      </trkpt>
      <trkpt lat="37.207538" lon="-3.405913">
        <ele>1182.26899544314</ele>
        <time>2018-07-14T05:32:58.009Z</time>
      </trkpt>
      <trkpt lat="37.207507" lon="-3.405956">
        <ele>1184</ele>
        <time>2018-07-14T05:33:02.009Z</time>
      </trkpt>
      <trkpt lat="37.207479" lon="-3.405996">
        <ele>1185</ele>
        <time>2018-07-14T05:33:10.009Z</time>
      </trkpt>
      <trkpt lat="37.207453" lon="-3.406054">
        <ele>1186</ele>
        <time>2018-07-14T05:33:15.009Z</time>
      </trkpt>
      <trkpt lat="37.20743" lon="-3.406102">
        <ele>1186</ele>
        <time>2018-07-14T05:33:18.009Z</time>
      </trkpt>
      <trkpt lat="37.207421" lon="-3.406161">
        <ele>1187</ele>
        <time>2018-07-14T05:33:22.009Z</time>
      </trkpt>
      <trkpt lat="37.207432" lon="-3.406224">
        <ele>1187</ele>
        <time>2018-07-14T05:33:26.009Z</time>
      </trkpt>
      <trkpt lat="37.207439" lon="-3.406297">
        <ele>1188</ele>
        <time>2018-07-14T05:33:34.009Z</time>
      </trkpt>
      <trkpt lat="37.207524" lon="-3.406353">
        <ele>1189.73099864322</ele>
        <time>2018-07-14T05:33:45.009Z</time>
      </trkpt>
      <trkpt lat="37.207518" lon="-3.406419">
        <ele>1190</ele>
        <time>2018-07-14T05:33:51.009Z</time>
      </trkpt>
      <trkpt lat="37.207486" lon="-3.406494">
        <ele>1190</ele>
        <time>2018-07-14T05:33:55.009Z</time>
      </trkpt>
      <trkpt lat="37.207468" lon="-3.406574">
        <ele>1190</ele>
        <time>2018-07-14T05:33:59.009Z</time>
      </trkpt>
      <trkpt lat="37.207428" lon="-3.406638">
        <ele>1190</ele>
        <time>2018-07-14T05:34:06.009Z</time>
      </trkpt>
      <trkpt lat="37.207404" lon="-3.406711">
        <ele>1190</ele>
        <time>2018-07-14T05:34:11.009Z</time>
      </trkpt>
      <trkpt lat="37.207364" lon="-3.406773">
        <ele>1191</ele>
        <time>2018-07-14T05:34:17.009Z</time>
      </trkpt>
      <trkpt lat="37.207372" lon="-3.406885">
        <ele>1192.26900135678</ele>
        <time>2018-07-14T05:34:25.009Z</time>
      </trkpt>
      <trkpt lat="37.207411" lon="-3.40694">
        <ele>1193</ele>
        <time>2018-07-14T05:34:33.009Z</time>
      </trkpt>
      <trkpt lat="37.207481" lon="-3.40699">
        <ele>1193</ele>
        <time>2018-07-14T05:34:39.009Z</time>
      </trkpt>
      <trkpt lat="37.207525" lon="-3.407022">
        <ele>1194</ele>
        <time>2018-07-14T05:34:43.009Z</time>
      </trkpt>
      <trkpt lat="37.207573" lon="-3.40705">
        <ele>1194.26899544314</ele>
        <time>2018-07-14T05:34:48.009Z</time>
      </trkpt>
      <trkpt lat="37.207677" lon="-3.407102">
        <ele>1196</ele>
        <time>2018-07-14T05:34:56.009Z</time>
      </trkpt>
      <trkpt lat="37.207767" lon="-3.407134">
        <ele>1197</ele>
        <time>2018-07-14T05:35:06.009Z</time>
      </trkpt>
      <trkpt lat="37.207816" lon="-3.407158">
        <ele>1199</ele>
        <time>2018-07-14T05:35:11.009Z</time>
      </trkpt>
      <trkpt lat="37.207861" lon="-3.407186">
        <ele>1200</ele>
        <time>2018-07-14T05:35:19.009Z</time>
      </trkpt>
      <trkpt lat="37.207928" lon="-3.407268">
        <ele>1202</ele>
        <time>2018-07-14T05:35:30.009Z</time>
      </trkpt>
      <trkpt lat="37.207994" lon="-3.40736">
        <ele>1204</ele>
        <time>2018-07-14T05:35:43.009Z</time>
      </trkpt>
      <trkpt lat="37.207986" lon="-3.407482">
        <ele>1205</ele>
        <time>2018-07-14T05:35:55.009Z</time>
      </trkpt>
      <trkpt lat="37.207936" lon="-3.407568">
        <ele>1208</ele>
        <time>2018-07-14T05:36:04.009Z</time>
      </trkpt>
      <trkpt lat="37.207879" lon="-3.407504">
        <ele>1209</ele>
        <time>2018-07-14T05:36:13.009Z</time>
      </trkpt>
      <trkpt lat="37.207844" lon="-3.407604">
        <ele>1212</ele>
        <time>2018-07-14T05:36:25.009Z</time>
      </trkpt>
      <trkpt lat="37.207803" lon="-3.407718">
        <ele>1213</ele>
        <time>2018-07-14T05:36:31.009Z</time>
      </trkpt>
      <trkpt lat="37.207819" lon="-3.407833">
        <ele>1216</ele>
        <time>2018-07-14T05:36:43.009Z</time>
      </trkpt>
      <trkpt lat="37.207831" lon="-3.407932">
        <ele>1216</ele>
        <time>2018-07-14T05:36:50.009Z</time>
      </trkpt>
      <trkpt lat="37.20781" lon="-3.408028">
        <ele>1217.26899544314</ele>
        <time>2018-07-14T05:36:58.009Z</time>
      </trkpt>
      <trkpt lat="37.207776" lon="-3.408097">
        <ele>1219</ele>
        <time>2018-07-14T05:37:03.009Z</time>
      </trkpt>
      <trkpt lat="37.207757" lon="-3.408159">
        <ele>1220</ele>
        <time>2018-07-14T05:37:07.009Z</time>
      </trkpt>
      <trkpt lat="37.207731" lon="-3.408206">
        <ele>1222</ele>
        <time>2018-07-14T05:37:11.009Z</time>
      </trkpt>
      <trkpt lat="37.207648" lon="-3.408274">
        <ele>1224</ele>
        <time>2018-07-14T05:37:25.009Z</time>
      </trkpt>
      <trkpt lat="37.207594" lon="-3.408336">
        <ele>1225.26900135678</ele>
        <time>2018-07-14T05:37:31.009Z</time>
      </trkpt>
      <trkpt lat="37.207534" lon="-3.408412">
        <ele>1227</ele>
        <time>2018-07-14T05:37:40.009Z</time>
      </trkpt>
      <trkpt lat="37.207465" lon="-3.408466">
        <ele>1230</ele>
        <time>2018-07-14T05:37:47.009Z</time>
      </trkpt>
      <trkpt lat="37.207414" lon="-3.408447">
        <ele>1231.26899544314</ele>
        <time>2018-07-14T05:37:52.009Z</time>
      </trkpt>
      <trkpt lat="37.207355" lon="-3.408399">
        <ele>1232</ele>
        <time>2018-07-14T05:38:03.009Z</time>
      </trkpt>
      <trkpt lat="37.207277" lon="-3.408348">
        <ele>1232</ele>
        <time>2018-07-14T05:38:11.009Z</time>
      </trkpt>
      <trkpt lat="37.207204" lon="-3.408331">
        <ele>1233</ele>
        <time>2018-07-14T05:38:18.009Z</time>
      </trkpt>
      <trkpt lat="37.207128" lon="-3.408343">
        <ele>1235</ele>
        <time>2018-07-14T05:38:25.009Z</time>
      </trkpt>
      <trkpt lat="37.207042" lon="-3.408284">
        <ele>1238.26900135678</ele>
        <time>2018-07-14T05:38:37.009Z</time>
      </trkpt>
      <trkpt lat="37.20695" lon="-3.408245">
        <ele>1241.26900135678</ele>
        <time>2018-07-14T05:38:47.009Z</time>
      </trkpt>
      <trkpt lat="37.206869" lon="-3.408218">
        <ele>1245.26899544314</ele>
        <time>2018-07-14T05:38:58.009Z</time>
      </trkpt>
      <trkpt lat="37.206786" lon="-3.408202">
        <ele>1248</ele>
        <time>2018-07-14T05:39:06.009Z</time>
      </trkpt>
      <trkpt lat="37.206702" lon="-3.408262">
        <ele>1250</ele>
        <time>2018-07-14T05:39:15.009Z</time>
      </trkpt>
      <trkpt lat="37.206689" lon="-3.408379">
        <ele>1250</ele>
        <time>2018-07-14T05:39:22.009Z</time>
      </trkpt>
      <trkpt lat="37.206696" lon="-3.408482">
        <ele>1251</ele>
        <time>2018-07-14T05:39:29.009Z</time>
      </trkpt>
      <trkpt lat="37.206701" lon="-3.408558">
        <ele>1251.26899544314</ele>
        <time>2018-07-14T05:39:34.009Z</time>
      </trkpt>
      <trkpt lat="37.206717" lon="-3.408666">
        <ele>1253</ele>
        <time>2018-07-14T05:39:44.009Z</time>
      </trkpt>
      <trkpt lat="37.206772" lon="-3.40877">
        <ele>1253</ele>
        <time>2018-07-14T05:39:52.009Z</time>
      </trkpt>
      <trkpt lat="37.20684" lon="-3.408859">
        <ele>1253</ele>
        <time>2018-07-14T05:39:57.009Z</time>
      </trkpt>
      <trkpt lat="37.206848" lon="-3.408878">
        <ele>1254</ele>
        <time>2018-07-14T05:40:16.009Z</time>
      </trkpt>
      <trkpt lat="37.206904" lon="-3.408898">
        <ele>1253</ele>
        <time>2018-07-14T05:40:22.009Z</time>
      </trkpt>
      <trkpt lat="37.206998" lon="-3.408946">
        <ele>1254</ele>
        <time>2018-07-14T05:40:29.009Z</time>
      </trkpt>
      <trkpt lat="37.207078" lon="-3.409028">
        <ele>1254</ele>
        <time>2018-07-14T05:40:34.009Z</time>
      </trkpt>
      <trkpt lat="37.207012" lon="-3.409128">
        <ele>1254</ele>
        <time>2018-07-14T05:40:41.009Z</time>
      </trkpt>
      <trkpt lat="37.206976" lon="-3.409222">
        <ele>1254</ele>
        <time>2018-07-14T05:40:48.009Z</time>
      </trkpt>
      <trkpt lat="37.20695" lon="-3.409302">
        <ele>1256</ele>
        <time>2018-07-14T05:40:53.009Z</time>
      </trkpt>
      <trkpt lat="37.206932" lon="-3.409376">
        <ele>1257</ele>
        <time>2018-07-14T05:40:59.009Z</time>
      </trkpt>
      <trkpt lat="37.206899" lon="-3.409436">
        <ele>1258.26900135678</ele>
        <time>2018-07-14T05:41:03.009Z</time>
      </trkpt>
      <trkpt lat="37.206868" lon="-3.409493">
        <ele>1260</ele>
        <time>2018-07-14T05:41:07.009Z</time>
      </trkpt>
      <trkpt lat="37.206858" lon="-3.409578">
        <ele>1262</ele>
        <time>2018-07-14T05:41:18.009Z</time>
      </trkpt>
      <trkpt lat="37.206817" lon="-3.409664">
        <ele>1264</ele>
        <time>2018-07-14T05:41:28.009Z</time>
      </trkpt>
      <trkpt lat="37.206756" lon="-3.409745">
        <ele>1267</ele>
        <time>2018-07-14T05:41:37.009Z</time>
      </trkpt>
      <trkpt lat="37.206708" lon="-3.409805">
        <ele>1269</ele>
        <time>2018-07-14T05:41:43.009Z</time>
      </trkpt>
      <trkpt lat="37.206712" lon="-3.409868">
        <ele>1270</ele>
        <time>2018-07-14T05:41:49.009Z</time>
      </trkpt>
      <trkpt lat="37.206716" lon="-3.409933">
        <ele>1271</ele>
        <time>2018-07-14T05:41:54.009Z</time>
      </trkpt>
      <trkpt lat="37.206719" lon="-3.41">
        <ele>1272.26900135678</ele>
        <time>2018-07-14T05:41:59.009Z</time>
      </trkpt>
      <trkpt lat="37.206742" lon="-3.41006">
        <ele>1274</ele>
        <time>2018-07-14T05:42:04.009Z</time>
      </trkpt>
      <trkpt lat="37.206794" lon="-3.410121">
        <ele>1276</ele>
        <time>2018-07-14T05:42:11.009Z</time>
      </trkpt>
      <trkpt lat="37.206831" lon="-3.41018">
        <ele>1277</ele>
        <time>2018-07-14T05:42:16.009Z</time>
      </trkpt>
      <trkpt lat="37.20685" lon="-3.410246">
        <ele>1277</ele>
        <time>2018-07-14T05:42:20.009Z</time>
      </trkpt>
      <trkpt lat="37.206859" lon="-3.410322">
        <ele>1277</ele>
        <time>2018-07-14T05:42:23.009Z</time>
      </trkpt>
      <trkpt lat="37.20689" lon="-3.410429">
        <ele>1277</ele>
        <time>2018-07-14T05:42:27.009Z</time>
      </trkpt>
      <trkpt lat="37.206928" lon="-3.410504">
        <ele>1278</ele>
        <time>2018-07-14T05:42:31.009Z</time>
      </trkpt>
      <trkpt lat="37.206979" lon="-3.410573">
        <ele>1279.26899544314</ele>
        <time>2018-07-14T05:42:36.009Z</time>
      </trkpt>
      <trkpt lat="37.207027" lon="-3.410619">
        <ele>1280</ele>
        <time>2018-07-14T05:42:41.009Z</time>
      </trkpt>
      <trkpt lat="37.207075" lon="-3.410657">
        <ele>1281</ele>
        <time>2018-07-14T05:42:46.009Z</time>
      </trkpt>
      <trkpt lat="37.207125" lon="-3.410676">
        <ele>1282</ele>
        <time>2018-07-14T05:42:51.009Z</time>
      </trkpt>
      <trkpt lat="37.207167" lon="-3.410714">
        <ele>1283.26899544314</ele>
        <time>2018-07-14T05:42:56.009Z</time>
      </trkpt>
      <trkpt lat="37.207217" lon="-3.410747">
        <ele>1286</ele>
        <time>2018-07-14T05:43:03.009Z</time>
      </trkpt>
      <trkpt lat="37.207247" lon="-3.41086">
        <ele>1287</ele>
        <time>2018-07-14T05:43:13.009Z</time>
      </trkpt>
      <trkpt lat="37.207265" lon="-3.410967">
        <ele>1287</ele>
        <time>2018-07-14T05:43:19.009Z</time>
      </trkpt>
      <trkpt lat="37.207241" lon="-3.41106">
        <ele>1288</ele>
        <time>2018-07-14T05:43:28.009Z</time>
      </trkpt>
      <trkpt lat="37.207255" lon="-3.411141">
        <ele>1288</ele>
        <time>2018-07-14T05:43:31.009Z</time>
      </trkpt>
      <trkpt lat="37.207275" lon="-3.411262">
        <ele>1288</ele>
        <time>2018-07-14T05:43:35.009Z</time>
      </trkpt>
      <trkpt lat="37.207292" lon="-3.411373">
        <ele>1288.26900135678</ele>
        <time>2018-07-14T05:43:39.009Z</time>
      </trkpt>
      <trkpt lat="37.207291" lon="-3.411472">
        <ele>1290</ele>
        <time>2018-07-14T05:43:44.009Z</time>
      </trkpt>
      <trkpt lat="37.207303" lon="-3.411601">
        <ele>1293</ele>
        <time>2018-07-14T05:43:53.009Z</time>
      </trkpt>
      <trkpt lat="37.207334" lon="-3.411693">
        <ele>1295</ele>
        <time>2018-07-14T05:43:59.009Z</time>
      </trkpt>
      <trkpt lat="37.207344" lon="-3.411805">
        <ele>1296.26900135678</ele>
        <time>2018-07-14T05:44:07.009Z</time>
      </trkpt>
      <trkpt lat="37.207345" lon="-3.411882">
        <ele>1297</ele>
        <time>2018-07-14T05:44:12.009Z</time>
      </trkpt>
      <trkpt lat="37.207331" lon="-3.411959">
        <ele>1297.26899544314</ele>
        <time>2018-07-14T05:44:18.009Z</time>
      </trkpt>
      <trkpt lat="37.207325" lon="-3.412024">
        <ele>1298.26900135678</ele>
        <time>2018-07-14T05:44:23.009Z</time>
      </trkpt>
      <trkpt lat="37.207324" lon="-3.412086">
        <ele>1299.26899544314</ele>
        <time>2018-07-14T05:44:28.009Z</time>
      </trkpt>
      <trkpt lat="37.207325" lon="-3.412142">
        <ele>1301</ele>
        <time>2018-07-14T05:44:34.009Z</time>
      </trkpt>
      <trkpt lat="37.207325" lon="-3.412191">
        <ele>1302.26900135678</ele>
        <time>2018-07-14T05:44:39.009Z</time>
      </trkpt>
      <trkpt lat="37.20732" lon="-3.412246">
        <ele>1304</ele>
        <time>2018-07-14T05:44:44.009Z</time>
      </trkpt>
      <trkpt lat="37.207332" lon="-3.412306">
        <ele>1305</ele>
        <time>2018-07-14T05:44:49.009Z</time>
      </trkpt>
      <trkpt lat="37.207354" lon="-3.412364">
        <ele>1306.26899544314</ele>
        <time>2018-07-14T05:44:54.009Z</time>
      </trkpt>
      <trkpt lat="37.207388" lon="-3.41241">
        <ele>1308</ele>
        <time>2018-07-14T05:44:58.009Z</time>
      </trkpt>
      <trkpt lat="37.207428" lon="-3.412422">
        <ele>1309</ele>
        <time>2018-07-14T05:45:02.009Z</time>
      </trkpt>
      <trkpt lat="37.20747" lon="-3.412437">
        <ele>1310.26899544314</ele>
        <time>2018-07-14T05:45:06.009Z</time>
      </trkpt>
      <trkpt lat="37.207517" lon="-3.412457">
        <ele>1311</ele>
        <time>2018-07-14T05:45:10.009Z</time>
      </trkpt>
      <trkpt lat="37.207556" lon="-3.412519">
        <ele>1311</ele>
        <time>2018-07-14T05:45:15.009Z</time>
      </trkpt>
      <trkpt lat="37.207588" lon="-3.412598">
        <ele>1312.26900135678</ele>
        <time>2018-07-14T05:45:21.009Z</time>
      </trkpt>
      <trkpt lat="37.207626" lon="-3.412682">
        <ele>1314</ele>
        <time>2018-07-14T05:45:28.009Z</time>
      </trkpt>
      <trkpt lat="37.207676" lon="-3.412745">
        <ele>1315</ele>
        <time>2018-07-14T05:45:34.009Z</time>
      </trkpt>
      <trkpt lat="37.207714" lon="-3.412785">
        <ele>1316</ele>
        <time>2018-07-14T05:45:38.009Z</time>
      </trkpt>
      <trkpt lat="37.207766" lon="-3.412819">
        <ele>1317</ele>
        <time>2018-07-14T05:45:43.009Z</time>
      </trkpt>
      <trkpt lat="37.207812" lon="-3.412826">
        <ele>1318</ele>
        <time>2018-07-14T05:45:48.009Z</time>
      </trkpt>
      <trkpt lat="37.207865" lon="-3.412852">
        <ele>1319</ele>
        <time>2018-07-14T05:45:55.009Z</time>
      </trkpt>
      <trkpt lat="37.207906" lon="-3.412893">
        <ele>1320</ele>
        <time>2018-07-14T05:46:01.009Z</time>
      </trkpt>
      <trkpt lat="37.207847" lon="-3.412921">
        <ele>1321.26899544314</ele>
        <time>2018-07-14T05:46:10.009Z</time>
      </trkpt>
      <trkpt lat="37.207799" lon="-3.412941">
        <ele>1322.26899544314</ele>
        <time>2018-07-14T05:46:14.009Z</time>
      </trkpt>
      <trkpt lat="37.207764" lon="-3.412967">
        <ele>1323.26900135678</ele>
        <time>2018-07-14T05:46:17.009Z</time>
      </trkpt>
      <trkpt lat="37.207718" lon="-3.412994">
        <ele>1324</ele>
        <time>2018-07-14T05:46:22.009Z</time>
      </trkpt>
      <trkpt lat="37.207753" lon="-3.413076">
        <ele>1326</ele>
        <time>2018-07-14T05:46:33.009Z</time>
      </trkpt>
      <trkpt lat="37.207722" lon="-3.413151">
        <ele>1327.26899544314</ele>
        <time>2018-07-14T05:46:44.009Z</time>
      </trkpt>
      <trkpt lat="37.207681" lon="-3.413244">
        <ele>1329.26899544314</ele>
        <time>2018-07-14T05:46:52.009Z</time>
      </trkpt>
      <trkpt lat="37.207657" lon="-3.413315">
        <ele>1331</ele>
        <time>2018-07-14T05:46:57.009Z</time>
      </trkpt>
      <trkpt lat="37.207614" lon="-3.413384">
        <ele>1331</ele>
        <time>2018-07-14T05:47:01.009Z</time>
      </trkpt>
      <trkpt lat="37.207567" lon="-3.413441">
        <ele>1331.73099864322</ele>
        <time>2018-07-14T05:47:05.009Z</time>
      </trkpt>
      <trkpt lat="37.207512" lon="-3.413511">
        <ele>1331</ele>
        <time>2018-07-14T05:47:11.009Z</time>
      </trkpt>
      <trkpt lat="37.207452" lon="-3.413599">
        <ele>1332</ele>
        <time>2018-07-14T05:47:20.009Z</time>
      </trkpt>
      <trkpt lat="37.207404" lon="-3.413667">
        <ele>1333</ele>
        <time>2018-07-14T05:47:26.009Z</time>
      </trkpt>
      <trkpt lat="37.207383" lon="-3.413772">
        <ele>1332.26900135678</ele>
        <time>2018-07-14T05:47:35.009Z</time>
      </trkpt>
      <trkpt lat="37.20738" lon="-3.413864">
        <ele>1333</ele>
        <time>2018-07-14T05:47:40.009Z</time>
      </trkpt>
      <trkpt lat="37.207392" lon="-3.413955">
        <ele>1333</ele>
        <time>2018-07-14T05:47:44.009Z</time>
      </trkpt>
      <trkpt lat="37.207382" lon="-3.41404">
        <ele>1333.26899544314</ele>
        <time>2018-07-14T05:47:50.009Z</time>
      </trkpt>
      <trkpt lat="37.20739" lon="-3.414129">
        <ele>1334.26632955669</ele>
        <time>2018-07-14T05:47:56.009Z</time>
      </trkpt>
      <trkpt lat="37.207384" lon="-3.414189">
        <ele>1336</ele>
        <time>2018-07-14T05:48:00.009Z</time>
      </trkpt>
      <trkpt lat="37.207388" lon="-3.414258">
        <ele>1336</ele>
        <time>2018-07-14T05:48:04.009Z</time>
      </trkpt>
      <trkpt lat="37.207365" lon="-3.414309">
        <ele>1336</ele>
        <time>2018-07-14T05:48:08.009Z</time>
      </trkpt>
      <trkpt lat="37.207318" lon="-3.414344">
        <ele>1337.26899544314</ele>
        <time>2018-07-14T05:48:14.009Z</time>
      </trkpt>
      <trkpt lat="37.207272" lon="-3.414373">
        <ele>1339</ele>
        <time>2018-07-14T05:48:18.009Z</time>
      </trkpt>
      <trkpt lat="37.207208" lon="-3.414409">
        <ele>1339.26900135678</ele>
        <time>2018-07-14T05:48:23.009Z</time>
      </trkpt>
      <trkpt lat="37.207136" lon="-3.414446">
        <ele>1341</ele>
        <time>2018-07-14T05:48:29.009Z</time>
      </trkpt>
      <trkpt lat="37.207061" lon="-3.414478">
        <ele>1341.26900135678</ele>
        <time>2018-07-14T05:48:37.009Z</time>
      </trkpt>
      <trkpt lat="37.206993" lon="-3.414514">
        <ele>1343</ele>
        <time>2018-07-14T05:48:44.009Z</time>
      </trkpt>
      <trkpt lat="37.206921" lon="-3.414566">
        <ele>1343.26899544314</ele>
        <time>2018-07-14T05:48:52.009Z</time>
      </trkpt>
      <trkpt lat="37.20686" lon="-3.41461">
        <ele>1344</ele>
        <time>2018-07-14T05:48:57.009Z</time>
      </trkpt>
      <trkpt lat="37.206837" lon="-3.414689">
        <ele>1344</ele>
        <time>2018-07-14T05:49:03.009Z</time>
      </trkpt>
      <trkpt lat="37.206814" lon="-3.414819">
        <ele>1344.26899544314</ele>
        <time>2018-07-14T05:49:12.009Z</time>
      </trkpt>
      <trkpt lat="37.206802" lon="-3.41492">
        <ele>1345</ele>
        <time>2018-07-14T05:49:19.009Z</time>
      </trkpt>
      <trkpt lat="37.206767" lon="-3.415008">
        <ele>1346</ele>
        <time>2018-07-14T05:49:25.009Z</time>
      </trkpt>
      <trkpt lat="37.206752" lon="-3.4151">
        <ele>1347</ele>
        <time>2018-07-14T05:49:32.009Z</time>
      </trkpt>
      <trkpt lat="37.206743" lon="-3.415162">
        <ele>1347</ele>
        <time>2018-07-14T05:49:37.009Z</time>
      </trkpt>
      <trkpt lat="37.206714" lon="-3.415221">
        <ele>1347</ele>
        <time>2018-07-14T05:49:43.009Z</time>
      </trkpt>
      <trkpt lat="37.206691" lon="-3.415291">
        <ele>1347</ele>
        <time>2018-07-14T05:49:47.009Z</time>
      </trkpt>
      <trkpt lat="37.206653" lon="-3.415347">
        <ele>1347</ele>
        <time>2018-07-14T05:49:51.009Z</time>
      </trkpt>
      <trkpt lat="37.206615" lon="-3.415388">
        <ele>1347</ele>
        <time>2018-07-14T05:49:55.009Z</time>
      </trkpt>
      <trkpt lat="37.206592" lon="-3.415448">
        <ele>1346.73100455686</ele>
        <time>2018-07-14T05:50:00.009Z</time>
      </trkpt>
      <trkpt lat="37.206564" lon="-3.415503">
        <ele>1347</ele>
        <time>2018-07-14T05:50:05.009Z</time>
      </trkpt>
      <trkpt lat="37.206545" lon="-3.415563">
        <ele>1347</ele>
        <time>2018-07-14T05:50:09.009Z</time>
      </trkpt>
      <trkpt lat="37.206499" lon="-3.415669">
        <ele>1347</ele>
        <time>2018-07-14T05:50:17.009Z</time>
      </trkpt>
      <trkpt lat="37.206478" lon="-3.415713">
        <ele>1347</ele>
        <time>2018-07-14T05:50:20.009Z</time>
      </trkpt>
      <trkpt lat="37.206457" lon="-3.415769">
        <ele>1347</ele>
        <time>2018-07-14T05:50:23.009Z</time>
      </trkpt>
      <trkpt lat="37.206438" lon="-3.415822">
        <ele>1346</ele>
        <time>2018-07-14T05:50:26.009Z</time>
      </trkpt>
      <trkpt lat="37.206401" lon="-3.415876">
        <ele>1347</ele>
        <time>2018-07-14T05:50:30.009Z</time>
      </trkpt>
      <trkpt lat="37.206371" lon="-3.41592">
        <ele>1347</ele>
        <time>2018-07-14T05:50:35.009Z</time>
      </trkpt>
      <trkpt lat="37.206342" lon="-3.415982">
        <ele>1347</ele>
        <time>2018-07-14T05:50:40.009Z</time>
      </trkpt>
      <trkpt lat="37.206324" lon="-3.416024">
        <ele>1348</ele>
        <time>2018-07-14T05:50:43.009Z</time>
      </trkpt>
      <trkpt lat="37.206307" lon="-3.416072">
        <ele>1348</ele>
        <time>2018-07-14T05:50:48.009Z</time>
      </trkpt>
      <trkpt lat="37.206278" lon="-3.416135">
        <ele>1349</ele>
        <time>2018-07-14T05:50:58.009Z</time>
      </trkpt>
      <trkpt lat="37.20627" lon="-3.416196">
        <ele>1350</ele>
        <time>2018-07-14T05:51:02.009Z</time>
      </trkpt>
      <trkpt lat="37.20624" lon="-3.416288">
        <ele>1351</ele>
        <time>2018-07-14T05:51:10.009Z</time>
      </trkpt>
      <trkpt lat="37.20622" lon="-3.416388">
        <ele>1351</ele>
        <time>2018-07-14T05:51:17.009Z</time>
      </trkpt>
      <trkpt lat="37.206198" lon="-3.416499">
        <ele>1352</ele>
        <time>2018-07-14T05:51:24.009Z</time>
      </trkpt>
      <trkpt lat="37.206206" lon="-3.416615">
        <ele>1352</ele>
        <time>2018-07-14T05:51:30.009Z</time>
      </trkpt>
      <trkpt lat="37.206198" lon="-3.416738">
        <ele>1352.26899544314</ele>
        <time>2018-07-14T05:51:36.009Z</time>
      </trkpt>
      <trkpt lat="37.206174" lon="-3.416833">
        <ele>1354</ele>
        <time>2018-07-14T05:51:42.009Z</time>
      </trkpt>
      <trkpt lat="37.206176" lon="-3.416913">
        <ele>1354</ele>
        <time>2018-07-14T05:51:47.009Z</time>
      </trkpt>
      <trkpt lat="37.206215" lon="-3.417004">
        <ele>1355</ele>
        <time>2018-07-14T05:51:54.009Z</time>
      </trkpt>
      <trkpt lat="37.206237" lon="-3.417066">
        <ele>1355</ele>
        <time>2018-07-14T05:51:58.009Z</time>
      </trkpt>
      <trkpt lat="37.206262" lon="-3.417126">
        <ele>1354</ele>
        <time>2018-07-14T05:52:02.009Z</time>
      </trkpt>
      <trkpt lat="37.206272" lon="-3.417184">
        <ele>1354</ele>
        <time>2018-07-14T05:52:06.009Z</time>
      </trkpt>
      <trkpt lat="37.206276" lon="-3.417235">
        <ele>1355</ele>
        <time>2018-07-14T05:52:13.009Z</time>
      </trkpt>
      <trkpt lat="37.20628" lon="-3.417299">
        <ele>1356</ele>
        <time>2018-07-14T05:52:22.009Z</time>
      </trkpt>
      <trkpt lat="37.206304" lon="-3.417361">
        <ele>1357</ele>
        <time>2018-07-14T05:52:26.009Z</time>
      </trkpt>
      <trkpt lat="37.206304" lon="-3.41742">
        <ele>1358</ele>
        <time>2018-07-14T05:52:30.009Z</time>
      </trkpt>
      <trkpt lat="37.206292" lon="-3.417475">
        <ele>1358</ele>
        <time>2018-07-14T05:52:34.009Z</time>
      </trkpt>
      <trkpt lat="37.206274" lon="-3.417535">
        <ele>1358</ele>
        <time>2018-07-14T05:52:38.009Z</time>
      </trkpt>
      <trkpt lat="37.206248" lon="-3.417594">
        <ele>1359</ele>
        <time>2018-07-14T05:52:42.009Z</time>
      </trkpt>
      <trkpt lat="37.206206" lon="-3.417653">
        <ele>1360</ele>
        <time>2018-07-14T05:52:46.009Z</time>
      </trkpt>
      <trkpt lat="37.206158" lon="-3.417714">
        <ele>1360</ele>
        <time>2018-07-14T05:52:51.009Z</time>
      </trkpt>
      <trkpt lat="37.206132" lon="-3.417777">
        <ele>1360.26900135678</ele>
        <time>2018-07-14T05:52:55.009Z</time>
      </trkpt>
      <trkpt lat="37.206096" lon="-3.417862">
        <ele>1361</ele>
        <time>2018-07-14T05:53:00.009Z</time>
      </trkpt>
      <trkpt lat="37.206066" lon="-3.417938">
        <ele>1362</ele>
        <time>2018-07-14T05:53:05.009Z</time>
      </trkpt>
      <trkpt lat="37.206034" lon="-3.418025">
        <ele>1362</ele>
        <time>2018-07-14T05:53:10.009Z</time>
      </trkpt>
      <trkpt lat="37.206" lon="-3.418096">
        <ele>1362</ele>
        <time>2018-07-14T05:53:15.009Z</time>
      </trkpt>
      <trkpt lat="37.205973" lon="-3.418167">
        <ele>1363</ele>
        <time>2018-07-14T05:53:20.009Z</time>
      </trkpt>
      <trkpt lat="37.205956" lon="-3.418236">
        <ele>1362</ele>
        <time>2018-07-14T05:53:25.009Z</time>
      </trkpt>
      <trkpt lat="37.205932" lon="-3.418308">
        <ele>1363</ele>
        <time>2018-07-14T05:53:30.009Z</time>
      </trkpt>
      <trkpt lat="37.205911" lon="-3.418377">
        <ele>1363</ele>
        <time>2018-07-14T05:53:34.009Z</time>
      </trkpt>
      <trkpt lat="37.205889" lon="-3.418443">
        <ele>1363</ele>
        <time>2018-07-14T05:53:38.009Z</time>
      </trkpt>
      <trkpt lat="37.205865" lon="-3.418529">
        <ele>1363</ele>
        <time>2018-07-14T05:53:43.009Z</time>
      </trkpt>
      <trkpt lat="37.205846" lon="-3.418633">
        <ele>1363.73100455686</ele>
        <time>2018-07-14T05:53:48.009Z</time>
      </trkpt>
      <trkpt lat="37.205816" lon="-3.418701">
        <ele>1364</ele>
        <time>2018-07-14T05:53:51.009Z</time>
      </trkpt>
      <trkpt lat="37.205769" lon="-3.418773">
        <ele>1364</ele>
        <time>2018-07-14T05:53:55.009Z</time>
      </trkpt>
      <trkpt lat="37.205696" lon="-3.41885">
        <ele>1365</ele>
        <time>2018-07-14T05:54:01.009Z</time>
      </trkpt>
      <trkpt lat="37.205648" lon="-3.418912">
        <ele>1364</ele>
        <time>2018-07-14T05:54:05.009Z</time>
      </trkpt>
      <trkpt lat="37.205606" lon="-3.418987">
        <ele>1364</ele>
        <time>2018-07-14T05:54:08.009Z</time>
      </trkpt>
      <trkpt lat="37.205562" lon="-3.419091">
        <ele>1364</ele>
        <time>2018-07-14T05:54:12.009Z</time>
      </trkpt>
      <trkpt lat="37.205525" lon="-3.419182">
        <ele>1362.73100455686</ele>
        <time>2018-07-14T05:54:16.009Z</time>
      </trkpt>
      <trkpt lat="37.205475" lon="-3.419273">
        <ele>1361</ele>
        <time>2018-07-14T05:54:22.009Z</time>
      </trkpt>
      <trkpt lat="37.205461" lon="-3.419329">
        <ele>1361</ele>
        <time>2018-07-14T05:54:24.009Z</time>
      </trkpt>
      <trkpt lat="37.205441" lon="-3.419394">
        <ele>1360</ele>
        <time>2018-07-14T05:54:27.009Z</time>
      </trkpt>
      <trkpt lat="37.205409" lon="-3.419463">
        <ele>1361</ele>
        <time>2018-07-14T05:54:31.009Z</time>
      </trkpt>
      <trkpt lat="37.205376" lon="-3.419526">
        <ele>1361</ele>
        <time>2018-07-14T05:54:34.009Z</time>
      </trkpt>
      <trkpt lat="37.205334" lon="-3.419581">
        <ele>1361</ele>
        <time>2018-07-14T05:54:37.009Z</time>
      </trkpt>
      <trkpt lat="37.205269" lon="-3.419605">
        <ele>1360</ele>
        <time>2018-07-14T05:54:42.009Z</time>
      </trkpt>
      <trkpt lat="37.205198" lon="-3.419668">
        <ele>1360</ele>
        <time>2018-07-14T05:54:45.009Z</time>
      </trkpt>
      <trkpt lat="37.205157" lon="-3.419733">
        <ele>1360</ele>
        <time>2018-07-14T05:54:47.009Z</time>
      </trkpt>
      <trkpt lat="37.205123" lon="-3.419808">
        <ele>1360</ele>
        <time>2018-07-14T05:54:49.009Z</time>
      </trkpt>
      <trkpt lat="37.205074" lon="-3.41991">
        <ele>1360</ele>
        <time>2018-07-14T05:54:52.009Z</time>
      </trkpt>
      <trkpt lat="37.205036" lon="-3.419999">
        <ele>1360</ele>
        <time>2018-07-14T05:54:55.009Z</time>
      </trkpt>
      <trkpt lat="37.205009" lon="-3.42009">
        <ele>1361</ele>
        <time>2018-07-14T05:54:58.009Z</time>
      </trkpt>
      <trkpt lat="37.204993" lon="-3.420183">
        <ele>1361</ele>
        <time>2018-07-14T05:55:01.009Z</time>
      </trkpt>
      <trkpt lat="37.204972" lon="-3.420271">
        <ele>1361</ele>
        <time>2018-07-14T05:55:04.009Z</time>
      </trkpt>
      <trkpt lat="37.20495" lon="-3.420368">
        <ele>1361</ele>
        <time>2018-07-14T05:55:07.009Z</time>
      </trkpt>
      <trkpt lat="37.20493" lon="-3.42047">
        <ele>1361</ele>
        <time>2018-07-14T05:55:10.009Z</time>
      </trkpt>
      <trkpt lat="37.204888" lon="-3.420556">
        <ele>1361</ele>
        <time>2018-07-14T05:55:13.009Z</time>
      </trkpt>
      <trkpt lat="37.204856" lon="-3.420627">
        <ele>1361</ele>
        <time>2018-07-14T05:55:16.009Z</time>
      </trkpt>
      <trkpt lat="37.204812" lon="-3.420709">
        <ele>1362</ele>
        <time>2018-07-14T05:55:19.009Z</time>
      </trkpt>
      <trkpt lat="37.204774" lon="-3.420767">
        <ele>1362</ele>
        <time>2018-07-14T05:55:21.009Z</time>
      </trkpt>
      <trkpt lat="37.204728" lon="-3.420866">
        <ele>1361.73100455686</ele>
        <time>2018-07-14T05:55:24.009Z</time>
      </trkpt>
      <trkpt lat="37.20471" lon="-3.420954">
        <ele>1361</ele>
        <time>2018-07-14T05:55:26.009Z</time>
      </trkpt>
      <trkpt lat="37.204702" lon="-3.421043">
        <ele>1361</ele>
        <time>2018-07-14T05:55:28.009Z</time>
      </trkpt>
      <trkpt lat="37.204694" lon="-3.421123">
        <ele>1361</ele>
        <time>2018-07-14T05:55:30.009Z</time>
      </trkpt>
      <trkpt lat="37.204678" lon="-3.421213">
        <ele>1361</ele>
        <time>2018-07-14T05:55:33.009Z</time>
      </trkpt>
      <trkpt lat="37.20466" lon="-3.421315">
        <ele>1360</ele>
        <time>2018-07-14T05:55:36.009Z</time>
      </trkpt>
      <trkpt lat="37.204636" lon="-3.421422">
        <ele>1360</ele>
        <time>2018-07-14T05:55:39.009Z</time>
      </trkpt>
      <trkpt lat="37.204612" lon="-3.421528">
        <ele>1359.73100455686</ele>
        <time>2018-07-14T05:55:42.009Z</time>
      </trkpt>
      <trkpt lat="37.204594" lon="-3.421639">
        <ele>1359</ele>
        <time>2018-07-14T05:55:45.009Z</time>
      </trkpt>
      <trkpt lat="37.204592" lon="-3.42172">
        <ele>1358</ele>
        <time>2018-07-14T05:55:47.009Z</time>
      </trkpt>
      <trkpt lat="37.20458" lon="-3.421835">
        <ele>1358</ele>
        <time>2018-07-14T05:55:50.009Z</time>
      </trkpt>
      <trkpt lat="37.204562" lon="-3.421943">
        <ele>1358</ele>
        <time>2018-07-14T05:55:53.009Z</time>
      </trkpt>
      <trkpt lat="37.204522" lon="-3.422037">
        <ele>1357</ele>
        <time>2018-07-14T05:55:56.009Z</time>
      </trkpt>
      <trkpt lat="37.204472" lon="-3.422105">
        <ele>1356</ele>
        <time>2018-07-14T05:55:59.009Z</time>
      </trkpt>
      <trkpt lat="37.204449" lon="-3.422186">
        <ele>1353.73100455686</ele>
        <time>2018-07-14T05:56:02.009Z</time>
      </trkpt>
      <trkpt lat="37.204382" lon="-3.422255">
        <ele>1349</ele>
        <time>2018-07-14T05:56:09.009Z</time>
      </trkpt>
      <trkpt lat="37.204303" lon="-3.422291">
        <ele>1346.73100455686</ele>
        <time>2018-07-14T05:56:14.009Z</time>
      </trkpt>
      <trkpt lat="37.20424" lon="-3.422302">
        <ele>1344.73099864322</ele>
        <time>2018-07-14T05:56:19.009Z</time>
      </trkpt>
      <trkpt lat="37.204172" lon="-3.422323">
        <ele>1343</ele>
        <time>2018-07-14T05:56:24.009Z</time>
      </trkpt>
      <trkpt lat="37.204079" lon="-3.422305">
        <ele>1340.73100455686</ele>
        <time>2018-07-14T05:56:30.009Z</time>
      </trkpt>
      <trkpt lat="37.204011" lon="-3.422253">
        <ele>1338</ele>
        <time>2018-07-14T05:56:36.009Z</time>
      </trkpt>
      <trkpt lat="37.203924" lon="-3.422266">
        <ele>1334.73099864322</ele>
        <time>2018-07-14T05:56:43.009Z</time>
      </trkpt>
      <trkpt lat="37.203816" lon="-3.422316">
        <ele>1331.73099864322</ele>
        <time>2018-07-14T05:56:49.009Z</time>
      </trkpt>
      <trkpt lat="37.203703" lon="-3.422348">
        <ele>1326.73099864322</ele>
        <time>2018-07-14T05:56:57.009Z</time>
      </trkpt>
      <trkpt lat="37.203641" lon="-3.422392">
        <ele>1322.73099864322</ele>
        <time>2018-07-14T05:57:03.009Z</time>
      </trkpt>
      <trkpt lat="37.203602" lon="-3.422303">
        <ele>1320.73100455686</ele>
        <time>2018-07-14T05:57:08.009Z</time>
      </trkpt>
      <trkpt lat="37.203515" lon="-3.42228">
        <ele>1318.73100455686</ele>
        <time>2018-07-14T05:57:12.009Z</time>
      </trkpt>
      <trkpt lat="37.203431" lon="-3.422321">
        <ele>1316.73100455686</ele>
        <time>2018-07-14T05:57:16.009Z</time>
      </trkpt>
      <trkpt lat="37.203361" lon="-3.422357">
        <ele>1315</ele>
        <time>2018-07-14T05:57:19.009Z</time>
      </trkpt>
      <trkpt lat="37.203298" lon="-3.42243">
        <ele>1314</ele>
        <time>2018-07-14T05:57:22.009Z</time>
      </trkpt>
      <trkpt lat="37.20321" lon="-3.422503">
        <ele>1310.73099864322</ele>
        <time>2018-07-14T05:57:27.009Z</time>
      </trkpt>
      <trkpt lat="37.203131" lon="-3.422529">
        <ele>1307.73627145869</ele>
        <time>2018-07-14T05:57:31.009Z</time>
      </trkpt>
      <trkpt lat="37.203043" lon="-3.422558">
        <ele>1305</ele>
        <time>2018-07-14T05:57:35.009Z</time>
      </trkpt>
      <trkpt lat="37.20295" lon="-3.422589">
        <ele>1302</ele>
        <time>2018-07-14T05:57:40.009Z</time>
      </trkpt>
      <trkpt lat="37.202886" lon="-3.422635">
        <ele>1300</ele>
        <time>2018-07-14T05:57:46.009Z</time>
      </trkpt>
      <trkpt lat="37.202843" lon="-3.422736">
        <ele>1298.46200911372</ele>
        <time>2018-07-14T05:57:50.009Z</time>
      </trkpt>
      <trkpt lat="37.202833" lon="-3.422824">
        <ele>1296</ele>
        <time>2018-07-14T05:57:54.009Z</time>
      </trkpt>
      <trkpt lat="37.202815" lon="-3.422917">
        <ele>1295</ele>
        <time>2018-07-14T05:57:59.009Z</time>
      </trkpt>
      <trkpt lat="37.202769" lon="-3.422982">
        <ele>1294</ele>
        <time>2018-07-14T05:58:02.009Z</time>
      </trkpt>
      <trkpt lat="37.202706" lon="-3.423086">
        <ele>1293</ele>
        <time>2018-07-14T05:58:06.009Z</time>
      </trkpt>
      <trkpt lat="37.202672" lon="-3.423156">
        <ele>1291.73099864322</ele>
        <time>2018-07-14T05:58:09.009Z</time>
      </trkpt>
      <trkpt lat="37.202634" lon="-3.42321">
        <ele>1289.73100455686</ele>
        <time>2018-07-14T05:58:12.009Z</time>
      </trkpt>
      <trkpt lat="37.202596" lon="-3.423248">
        <ele>1288</ele>
        <time>2018-07-14T05:58:14.009Z</time>
      </trkpt>
      <trkpt lat="37.202564" lon="-3.423298">
        <ele>1288</ele>
        <time>2018-07-14T05:58:16.009Z</time>
      </trkpt>
      <trkpt lat="37.202519" lon="-3.42337">
        <ele>1286</ele>
        <time>2018-07-14T05:58:19.009Z</time>
      </trkpt>
      <trkpt lat="37.202468" lon="-3.423434">
        <ele>1286</ele>
        <time>2018-07-14T05:58:22.009Z</time>
      </trkpt>
      <trkpt lat="37.202429" lon="-3.423518">
        <ele>1285</ele>
        <time>2018-07-14T05:58:25.009Z</time>
      </trkpt>
      <trkpt lat="37.202391" lon="-3.423594">
        <ele>1284</ele>
        <time>2018-07-14T05:58:28.009Z</time>
      </trkpt>
      <trkpt lat="37.202354" lon="-3.423646">
        <ele>1284</ele>
        <time>2018-07-14T05:58:30.009Z</time>
      </trkpt>
      <trkpt lat="37.202317" lon="-3.423702">
        <ele>1283</ele>
        <time>2018-07-14T05:58:32.009Z</time>
      </trkpt>
      <trkpt lat="37.20226" lon="-3.423766">
        <ele>1282</ele>
        <time>2018-07-14T05:58:35.009Z</time>
      </trkpt>
      <trkpt lat="37.20222" lon="-3.42379">
        <ele>1281.73099864322</ele>
        <time>2018-07-14T05:58:37.009Z</time>
      </trkpt>
      <trkpt lat="37.202156" lon="-3.423828">
        <ele>1280.73100455686</ele>
        <time>2018-07-14T05:58:40.009Z</time>
      </trkpt>
      <trkpt lat="37.202094" lon="-3.423868">
        <ele>1278.73099864322</ele>
        <time>2018-07-14T05:58:43.009Z</time>
      </trkpt>
      <trkpt lat="37.202026" lon="-3.42389">
        <ele>1277</ele>
        <time>2018-07-14T05:58:46.009Z</time>
      </trkpt>
      <trkpt lat="37.201981" lon="-3.423906">
        <ele>1276.73100455686</ele>
        <time>2018-07-14T05:58:48.009Z</time>
      </trkpt>
      <trkpt lat="37.201931" lon="-3.42392">
        <ele>1276</ele>
        <time>2018-07-14T05:58:50.009Z</time>
      </trkpt>
      <trkpt lat="37.201877" lon="-3.42394">
        <ele>1275</ele>
        <time>2018-07-14T05:58:52.009Z</time>
      </trkpt>
      <trkpt lat="37.201811" lon="-3.42398">
        <ele>1273</ele>
        <time>2018-07-14T05:58:55.009Z</time>
      </trkpt>
      <trkpt lat="37.201749" lon="-3.424032">
        <ele>1272</ele>
        <time>2018-07-14T05:58:58.009Z</time>
      </trkpt>
      <trkpt lat="37.201685" lon="-3.424088">
        <ele>1270.74592165929</ele>
        <time>2018-07-14T05:59:01.009Z</time>
      </trkpt>
      <trkpt lat="37.201628" lon="-3.424118">
        <ele>1269.73100455686</ele>
        <time>2018-07-14T05:59:04.009Z</time>
      </trkpt>
      <trkpt lat="37.201562" lon="-3.424121">
        <ele>1267.73100455686</ele>
        <time>2018-07-14T05:59:08.009Z</time>
      </trkpt>
      <trkpt lat="37.201463" lon="-3.424142">
        <ele>1264</ele>
        <time>2018-07-14T05:59:16.009Z</time>
      </trkpt>
      <trkpt lat="37.201408" lon="-3.424222">
        <ele>1262</ele>
        <time>2018-07-14T05:59:21.009Z</time>
      </trkpt>
      <trkpt lat="37.201361" lon="-3.424271">
        <ele>1260</ele>
        <time>2018-07-14T05:59:25.009Z</time>
      </trkpt>
      <trkpt lat="37.201306" lon="-3.424388">
        <ele>1255</ele>
        <time>2018-07-14T05:59:34.009Z</time>
      </trkpt>
      <trkpt lat="37.20122" lon="-3.424428">
        <ele>1249.73100455686</ele>
        <time>2018-07-14T05:59:42.009Z</time>
      </trkpt>
      <trkpt lat="37.201172" lon="-3.424415">
        <ele>1247.73100455686</ele>
        <time>2018-07-14T05:59:46.009Z</time>
      </trkpt>
      <trkpt lat="37.201168" lon="-3.424322">
        <ele>1245</ele>
        <time>2018-07-14T05:59:50.009Z</time>
      </trkpt>
      <trkpt lat="37.201177" lon="-3.424237">
        <ele>1244</ele>
        <time>2018-07-14T05:59:53.009Z</time>
      </trkpt>
      <trkpt lat="37.201175" lon="-3.424156">
        <ele>1243.0300065828</ele>
        <time>2018-07-14T05:59:56.009Z</time>
      </trkpt>
      <trkpt lat="37.201164" lon="-3.424079">
        <ele>1241.78479781275</ele>
        <time>2018-07-14T05:59:59.009Z</time>
      </trkpt>
      <trkpt lat="37.201162" lon="-3.423999">
        <ele>1240.73100455686</ele>
        <time>2018-07-14T06:00:02.009Z</time>
      </trkpt>
      <trkpt lat="37.201155" lon="-3.423915">
        <ele>1239</ele>
        <time>2018-07-14T06:00:05.009Z</time>
      </trkpt>
      <trkpt lat="37.20115" lon="-3.423838">
        <ele>1237.73100455686</ele>
        <time>2018-07-14T06:00:08.009Z</time>
      </trkpt>
      <trkpt lat="37.201151" lon="-3.423753">
        <ele>1235.73100455686</ele>
        <time>2018-07-14T06:00:12.009Z</time>
      </trkpt>
      <trkpt lat="37.20114" lon="-3.423693">
        <ele>1233.73099864322</ele>
        <time>2018-07-14T06:00:15.009Z</time>
      </trkpt>
      <trkpt lat="37.201126" lon="-3.423634">
        <ele>1232</ele>
        <time>2018-07-14T06:00:18.009Z</time>
      </trkpt>
      <trkpt lat="37.201099" lon="-3.423564">
        <ele>1229</ele>
        <time>2018-07-14T06:00:22.009Z</time>
      </trkpt>
      <trkpt lat="37.201056" lon="-3.423506">
        <ele>1228.73099864322</ele>
        <time>2018-07-14T06:00:25.009Z</time>
      </trkpt>
      <trkpt lat="37.201016" lon="-3.423453">
        <ele>1228</ele>
        <time>2018-07-14T06:00:28.009Z</time>
      </trkpt>
      <trkpt lat="37.200945" lon="-3.423414">
        <ele>1228</ele>
        <time>2018-07-14T06:00:34.009Z</time>
      </trkpt>
      <trkpt lat="37.200873" lon="-3.423391">
        <ele>1227</ele>
        <time>2018-07-14T06:00:38.009Z</time>
      </trkpt>
      <trkpt lat="37.200799" lon="-3.423365">
        <ele>1227</ele>
        <time>2018-07-14T06:00:42.009Z</time>
      </trkpt>
      <trkpt lat="37.200714" lon="-3.423349">
        <ele>1226</ele>
        <time>2018-07-14T06:00:47.009Z</time>
      </trkpt>
      <trkpt lat="37.200627" lon="-3.423351">
        <ele>1225</ele>
        <time>2018-07-14T06:00:51.009Z</time>
      </trkpt>
      <trkpt lat="37.200559" lon="-3.423392">
        <ele>1224</ele>
        <time>2018-07-14T06:00:55.009Z</time>
      </trkpt>
      <trkpt lat="37.200504" lon="-3.423435">
        <ele>1223</ele>
        <time>2018-07-14T06:00:58.009Z</time>
      </trkpt>
      <trkpt lat="37.200425" lon="-3.423469">
        <ele>1222.73100455686</ele>
        <time>2018-07-14T06:01:02.009Z</time>
      </trkpt>
      <trkpt lat="37.200359" lon="-3.423498">
        <ele>1221</ele>
        <time>2018-07-14T06:01:06.009Z</time>
      </trkpt>
      <trkpt lat="37.200287" lon="-3.423527">
        <ele>1220</ele>
        <time>2018-07-14T06:01:10.009Z</time>
      </trkpt>
      <trkpt lat="37.200202" lon="-3.423493">
        <ele>1218.73100455686</ele>
        <time>2018-07-14T06:01:16.009Z</time>
      </trkpt>
      <trkpt lat="37.200136" lon="-3.423458">
        <ele>1217</ele>
        <time>2018-07-14T06:01:21.009Z</time>
      </trkpt>
      <trkpt lat="37.200081" lon="-3.42359">
        <ele>1215</ele>
        <time>2018-07-14T06:01:27.009Z</time>
      </trkpt>
      <trkpt lat="37.200017" lon="-3.423667">
        <ele>1215</ele>
        <time>2018-07-14T06:01:31.009Z</time>
      </trkpt>
      <trkpt lat="37.199947" lon="-3.423741">
        <ele>1215</ele>
        <time>2018-07-14T06:01:35.009Z</time>
      </trkpt>
      <trkpt lat="37.199871" lon="-3.423826">
        <ele>1213</ele>
        <time>2018-07-14T06:01:39.009Z</time>
      </trkpt>
      <trkpt lat="37.199811" lon="-3.423907">
        <ele>1211.73099864322</ele>
        <time>2018-07-14T06:01:43.009Z</time>
      </trkpt>
      <trkpt lat="37.199738" lon="-3.423999">
        <ele>1210</ele>
        <time>2018-07-14T06:01:48.009Z</time>
      </trkpt>
      <trkpt lat="37.199707" lon="-3.424078">
        <ele>1208</ele>
        <time>2018-07-14T06:01:52.009Z</time>
      </trkpt>
      <trkpt lat="37.199652" lon="-3.424133">
        <ele>1207</ele>
        <time>2018-07-14T06:01:56.009Z</time>
      </trkpt>
      <trkpt lat="37.199567" lon="-3.424189">
        <ele>1205</ele>
        <time>2018-07-14T06:02:05.009Z</time>
      </trkpt>
      <trkpt lat="37.199505" lon="-3.424242">
        <ele>1204</ele>
        <time>2018-07-14T06:02:10.009Z</time>
      </trkpt>
      <trkpt lat="37.199452" lon="-3.424266">
        <ele>1204</ele>
        <time>2018-07-14T06:02:13.009Z</time>
      </trkpt>
      <trkpt lat="37.199378" lon="-3.424305">
        <ele>1202.73099864322</ele>
        <time>2018-07-14T06:02:17.009Z</time>
      </trkpt>
      <trkpt lat="37.19934" lon="-3.424407">
        <ele>1199</ele>
        <time>2018-07-14T06:02:22.009Z</time>
      </trkpt>
      <trkpt lat="37.199352" lon="-3.4245">
        <ele>1196.73100455686</ele>
        <time>2018-07-14T06:02:26.009Z</time>
      </trkpt>
      <trkpt lat="37.199355" lon="-3.4246">
        <ele>1194.73099864322</ele>
        <time>2018-07-14T06:02:31.009Z</time>
      </trkpt>
      <trkpt lat="37.199327" lon="-3.424684">
        <ele>1192</ele>
        <time>2018-07-14T06:02:38.009Z</time>
      </trkpt>
      <trkpt lat="37.199288" lon="-3.424722">
        <ele>1191</ele>
        <time>2018-07-14T06:02:41.009Z</time>
      </trkpt>
      <trkpt lat="37.19926" lon="-3.424769">
        <ele>1189.73100455686</ele>
        <time>2018-07-14T06:02:44.009Z</time>
      </trkpt>
      <trkpt lat="37.199251" lon="-3.424835">
        <ele>1189</ele>
        <time>2018-07-14T06:02:47.009Z</time>
      </trkpt>
      <trkpt lat="37.199233" lon="-3.424892">
        <ele>1187.73100455686</ele>
        <time>2018-07-14T06:02:50.009Z</time>
      </trkpt>
      <trkpt lat="37.199232" lon="-3.42494">
        <ele>1186</ele>
        <time>2018-07-14T06:02:54.009Z</time>
      </trkpt>
      <trkpt lat="37.199243" lon="-3.424989">
        <ele>1185</ele>
        <time>2018-07-14T06:02:57.009Z</time>
      </trkpt>
      <trkpt lat="37.19924" lon="-3.425042">
        <ele>1184.73099864322</ele>
        <time>2018-07-14T06:02:59.009Z</time>
      </trkpt>
      <trkpt lat="37.199212" lon="-3.425117">
        <ele>1184</ele>
        <time>2018-07-14T06:03:02.009Z</time>
      </trkpt>
      <trkpt lat="37.199173" lon="-3.425155">
        <ele>1183.73100455686</ele>
        <time>2018-07-14T06:03:04.009Z</time>
      </trkpt>
      <trkpt lat="37.199123" lon="-3.425186">
        <ele>1182.73100455686</ele>
        <time>2018-07-14T06:03:06.009Z</time>
      </trkpt>
      <trkpt lat="37.199022" lon="-3.425261">
        <ele>1181</ele>
        <time>2018-07-14T06:03:10.009Z</time>
      </trkpt>
      <trkpt lat="37.198977" lon="-3.425296">
        <ele>1180.73100455686</ele>
        <time>2018-07-14T06:03:12.009Z</time>
      </trkpt>
      <trkpt lat="37.198936" lon="-3.425332">
        <ele>1179.73100455686</ele>
        <time>2018-07-14T06:03:14.009Z</time>
      </trkpt>
      <trkpt lat="37.198851" lon="-3.425416">
        <ele>1177.73100455686</ele>
        <time>2018-07-14T06:03:18.009Z</time>
      </trkpt>
      <trkpt lat="37.198786" lon="-3.425489">
        <ele>1176</ele>
        <time>2018-07-14T06:03:21.009Z</time>
      </trkpt>
      <trkpt lat="37.198711" lon="-3.425601">
        <ele>1174.73099864322</ele>
        <time>2018-07-14T06:03:25.009Z</time>
      </trkpt>
      <trkpt lat="37.198665" lon="-3.425682">
        <ele>1174</ele>
        <time>2018-07-14T06:03:28.009Z</time>
      </trkpt>
      <trkpt lat="37.198616" lon="-3.425823">
        <ele>1174</ele>
        <time>2018-07-14T06:03:33.009Z</time>
      </trkpt>
      <trkpt lat="37.198626" lon="-3.425924">
        <ele>1172.74591834069</ele>
        <time>2018-07-14T06:03:36.009Z</time>
      </trkpt>
      <trkpt lat="37.198634" lon="-3.425988">
        <ele>1172</ele>
        <time>2018-07-14T06:03:39.009Z</time>
      </trkpt>
      <trkpt lat="37.198639" lon="-3.42606">
        <ele>1172</ele>
        <time>2018-07-14T06:03:44.009Z</time>
      </trkpt>
      <trkpt lat="37.198639" lon="-3.426134">
        <ele>1172.26899544314</ele>
        <time>2018-07-14T06:03:50.009Z</time>
      </trkpt>
      <trkpt lat="37.198662" lon="-3.426206">
        <ele>1171</ele>
        <time>2018-07-14T06:03:55.009Z</time>
      </trkpt>
      <trkpt lat="37.198702" lon="-3.426274">
        <ele>1170.26899544314</ele>
        <time>2018-07-14T06:04:00.009Z</time>
      </trkpt>
      <trkpt lat="37.198727" lon="-3.426351">
        <ele>1171</ele>
        <time>2018-07-14T06:04:05.009Z</time>
      </trkpt>
      <trkpt lat="37.198736" lon="-3.42641">
        <ele>1172</ele>
        <time>2018-07-14T06:04:08.009Z</time>
      </trkpt>
      <trkpt lat="37.198752" lon="-3.426462">
        <ele>1173</ele>
        <time>2018-07-14T06:04:11.009Z</time>
      </trkpt>
      <trkpt lat="37.198776" lon="-3.426513">
        <ele>1173</ele>
        <time>2018-07-14T06:04:14.009Z</time>
      </trkpt>
      <trkpt lat="37.19881" lon="-3.426568">
        <ele>1174</ele>
        <time>2018-07-14T06:04:18.009Z</time>
      </trkpt>
      <trkpt lat="37.198847" lon="-3.426619">
        <ele>1174</ele>
        <time>2018-07-14T06:04:21.009Z</time>
      </trkpt>
      <trkpt lat="37.198878" lon="-3.426662">
        <ele>1174</ele>
        <time>2018-07-14T06:04:23.009Z</time>
      </trkpt>
      <trkpt lat="37.19891" lon="-3.426713">
        <ele>1174</ele>
        <time>2018-07-14T06:04:25.009Z</time>
      </trkpt>
      <trkpt lat="37.198946" lon="-3.42676">
        <ele>1174</ele>
        <time>2018-07-14T06:04:27.009Z</time>
      </trkpt>
      <trkpt lat="37.198983" lon="-3.426811">
        <ele>1174</ele>
        <time>2018-07-14T06:04:29.009Z</time>
      </trkpt>
      <trkpt lat="37.199039" lon="-3.426886">
        <ele>1173.26899544314</ele>
        <time>2018-07-14T06:04:32.009Z</time>
      </trkpt>
      <trkpt lat="37.199084" lon="-3.426935">
        <ele>1174</ele>
        <time>2018-07-14T06:04:34.009Z</time>
      </trkpt>
      <trkpt lat="37.199148" lon="-3.426997">
        <ele>1174</ele>
        <time>2018-07-14T06:04:37.009Z</time>
      </trkpt>
      <trkpt lat="37.199182" lon="-3.427048">
        <ele>1174</ele>
        <time>2018-07-14T06:04:39.009Z</time>
      </trkpt>
      <trkpt lat="37.199221" lon="-3.4271">
        <ele>1174</ele>
        <time>2018-07-14T06:04:41.009Z</time>
      </trkpt>
      <trkpt lat="37.199262" lon="-3.427145">
        <ele>1174.26900135678</ele>
        <time>2018-07-14T06:04:43.009Z</time>
      </trkpt>
      <trkpt lat="37.199311" lon="-3.427188">
        <ele>1175</ele>
        <time>2018-07-14T06:04:45.009Z</time>
      </trkpt>
      <trkpt lat="37.199382" lon="-3.427245">
        <ele>1175</ele>
        <time>2018-07-14T06:04:48.009Z</time>
      </trkpt>
      <trkpt lat="37.199443" lon="-3.427281">
        <ele>1176</ele>
        <time>2018-07-14T06:04:51.009Z</time>
      </trkpt>
      <trkpt lat="37.199498" lon="-3.427323">
        <ele>1176</ele>
        <time>2018-07-14T06:04:54.009Z</time>
      </trkpt>
      <trkpt lat="37.199537" lon="-3.42736">
        <ele>1177</ele>
        <time>2018-07-14T06:04:57.009Z</time>
      </trkpt>
      <trkpt lat="37.199577" lon="-3.427382">
        <ele>1178</ele>
        <time>2018-07-14T06:05:00.009Z</time>
      </trkpt>
      <trkpt lat="37.199614" lon="-3.427399">
        <ele>1178</ele>
        <time>2018-07-14T06:05:03.009Z</time>
      </trkpt>
      <trkpt lat="37.19965" lon="-3.427416">
        <ele>1179</ele>
        <time>2018-07-14T06:05:06.009Z</time>
      </trkpt>
      <trkpt lat="37.199692" lon="-3.427446">
        <ele>1179</ele>
        <time>2018-07-14T06:05:09.009Z</time>
      </trkpt>
      <trkpt lat="37.199733" lon="-3.427479">
        <ele>1180</ele>
        <time>2018-07-14T06:05:12.009Z</time>
      </trkpt>
      <trkpt lat="37.199773" lon="-3.427513">
        <ele>1180</ele>
        <time>2018-07-14T06:05:15.009Z</time>
      </trkpt>
      <trkpt lat="37.199799" lon="-3.427568">
        <ele>1180</ele>
        <time>2018-07-14T06:05:18.009Z</time>
      </trkpt>
      <trkpt lat="37.199815" lon="-3.427613">
        <ele>1180</ele>
        <time>2018-07-14T06:05:21.009Z</time>
      </trkpt>
      <trkpt lat="37.199835" lon="-3.427663">
        <ele>1179</ele>
        <time>2018-07-14T06:05:24.009Z</time>
      </trkpt>
      <trkpt lat="37.199857" lon="-3.427711">
        <ele>1179</ele>
        <time>2018-07-14T06:05:27.009Z</time>
      </trkpt>
      <trkpt lat="37.199867" lon="-3.427766">
        <ele>1179</ele>
        <time>2018-07-14T06:05:30.009Z</time>
      </trkpt>
      <trkpt lat="37.19988" lon="-3.427807">
        <ele>1179</ele>
        <time>2018-07-14T06:05:33.009Z</time>
      </trkpt>
      <trkpt lat="37.199895" lon="-3.427851">
        <ele>1179</ele>
        <time>2018-07-14T06:05:36.009Z</time>
      </trkpt>
      <trkpt lat="37.199912" lon="-3.427893">
        <ele>1179.26900135678</ele>
        <time>2018-07-14T06:05:39.009Z</time>
      </trkpt>
      <trkpt lat="37.199934" lon="-3.427931">
        <ele>1180</ele>
        <time>2018-07-14T06:05:42.009Z</time>
      </trkpt>
      <trkpt lat="37.199957" lon="-3.427968">
        <ele>1181</ele>
        <time>2018-07-14T06:05:45.009Z</time>
      </trkpt>
      <trkpt lat="37.199981" lon="-3.428005">
        <ele>1182</ele>
        <time>2018-07-14T06:05:48.009Z</time>
      </trkpt>
      <trkpt lat="37.200005" lon="-3.428042">
        <ele>1182.26900135678</ele>
        <time>2018-07-14T06:05:51.009Z</time>
      </trkpt>
      <trkpt lat="37.200031" lon="-3.428077">
        <ele>1183.26899544314</ele>
        <time>2018-07-14T06:05:54.009Z</time>
      </trkpt>
      <trkpt lat="37.200059" lon="-3.428118">
        <ele>1184</ele>
        <time>2018-07-14T06:05:57.009Z</time>
      </trkpt>
      <trkpt lat="37.20008" lon="-3.428162">
        <ele>1185</ele>
        <time>2018-07-14T06:06:00.009Z</time>
      </trkpt>
      <trkpt lat="37.200093" lon="-3.428194">
        <ele>1185.26899544314</ele>
        <time>2018-07-14T06:06:02.009Z</time>
      </trkpt>
      <trkpt lat="37.200102" lon="-3.428234">
        <ele>1186</ele>
        <time>2018-07-14T06:06:04.009Z</time>
      </trkpt>
      <trkpt lat="37.200117" lon="-3.428271">
        <ele>1186</ele>
        <time>2018-07-14T06:06:06.009Z</time>
      </trkpt>
      <trkpt lat="37.200136" lon="-3.428323">
        <ele>1186.26900135678</ele>
        <time>2018-07-14T06:06:09.009Z</time>
      </trkpt>
      <trkpt lat="37.200163" lon="-3.428375">
        <ele>1187</ele>
        <time>2018-07-14T06:06:12.009Z</time>
      </trkpt>
      <trkpt lat="37.20019" lon="-3.428424">
        <ele>1187</ele>
        <time>2018-07-14T06:06:15.009Z</time>
      </trkpt>
      <trkpt lat="37.20022" lon="-3.428473">
        <ele>1187</ele>
        <time>2018-07-14T06:06:18.009Z</time>
      </trkpt>
      <trkpt lat="37.200257" lon="-3.428533">
        <ele>1187</ele>
        <time>2018-07-14T06:06:22.009Z</time>
      </trkpt>
      <trkpt lat="37.200284" lon="-3.428593">
        <ele>1187</ele>
        <time>2018-07-14T06:06:25.009Z</time>
      </trkpt>
      <trkpt lat="37.200319" lon="-3.428663">
        <ele>1188</ele>
        <time>2018-07-14T06:06:29.009Z</time>
      </trkpt>
      <trkpt lat="37.200365" lon="-3.428739">
        <ele>1188</ele>
        <time>2018-07-14T06:06:32.009Z</time>
      </trkpt>
      <trkpt lat="37.200428" lon="-3.428829">
        <ele>1188</ele>
        <time>2018-07-14T06:06:35.009Z</time>
      </trkpt>
      <trkpt lat="37.200493" lon="-3.428905">
        <ele>1188</ele>
        <time>2018-07-14T06:06:38.009Z</time>
      </trkpt>
      <trkpt lat="37.200571" lon="-3.428975">
        <ele>1189</ele>
        <time>2018-07-14T06:06:42.009Z</time>
      </trkpt>
      <trkpt lat="37.200663" lon="-3.429065">
        <ele>1189</ele>
        <time>2018-07-14T06:06:46.009Z</time>
      </trkpt>
      <trkpt lat="37.20073" lon="-3.429147">
        <ele>1189</ele>
        <time>2018-07-14T06:06:49.009Z</time>
      </trkpt>
      <trkpt lat="37.200784" lon="-3.429234">
        <ele>1190</ele>
        <time>2018-07-14T06:06:52.009Z</time>
      </trkpt>
      <trkpt lat="37.20083" lon="-3.429364">
        <ele>1190</ele>
        <time>2018-07-14T06:06:56.009Z</time>
      </trkpt>
      <trkpt lat="37.200865" lon="-3.429484">
        <ele>1190</ele>
        <time>2018-07-14T06:07:00.009Z</time>
      </trkpt>
      <trkpt lat="37.200865" lon="-3.429611">
        <ele>1190</ele>
        <time>2018-07-14T06:07:04.009Z</time>
      </trkpt>
      <trkpt lat="37.200852" lon="-3.429749">
        <ele>1190</ele>
        <time>2018-07-14T06:07:08.009Z</time>
      </trkpt>
      <trkpt lat="37.200816" lon="-3.429875">
        <ele>1190.26899544314</ele>
        <time>2018-07-14T06:07:12.009Z</time>
      </trkpt>
      <trkpt lat="37.20076" lon="-3.429979">
        <ele>1191</ele>
        <time>2018-07-14T06:07:16.009Z</time>
      </trkpt>
      <trkpt lat="37.200693" lon="-3.430091">
        <ele>1191</ele>
        <time>2018-07-14T06:07:20.009Z</time>
      </trkpt>
      <trkpt lat="37.200642" lon="-3.43019">
        <ele>1192</ele>
        <time>2018-07-14T06:07:24.009Z</time>
      </trkpt>
      <trkpt lat="37.200585" lon="-3.430298">
        <ele>1193</ele>
        <time>2018-07-14T06:07:28.009Z</time>
      </trkpt>
      <trkpt lat="37.200538" lon="-3.430399">
        <ele>1194</ele>
        <time>2018-07-14T06:07:31.009Z</time>
      </trkpt>
      <trkpt lat="37.200494" lon="-3.430531">
        <ele>1194</ele>
        <time>2018-07-14T06:07:35.009Z</time>
      </trkpt>
      <trkpt lat="37.200461" lon="-3.430658">
        <ele>1193.02958409202</ele>
        <time>2018-07-14T06:07:39.009Z</time>
      </trkpt>
      <trkpt lat="37.200448" lon="-3.4308">
        <ele>1193</ele>
        <time>2018-07-14T06:07:43.009Z</time>
      </trkpt>
      <trkpt lat="37.200444" lon="-3.430954">
        <ele>1193</ele>
        <time>2018-07-14T06:07:47.009Z</time>
      </trkpt>
      <trkpt lat="37.200441" lon="-3.431101">
        <ele>1192</ele>
        <time>2018-07-14T06:07:51.009Z</time>
      </trkpt>
      <trkpt lat="37.200458" lon="-3.431225">
        <ele>1191</ele>
        <time>2018-07-14T06:07:54.009Z</time>
      </trkpt>
      <trkpt lat="37.200426" lon="-3.431334">
        <ele>1190</ele>
        <time>2018-07-14T06:07:57.009Z</time>
      </trkpt>
      <trkpt lat="37.200374" lon="-3.431431">
        <ele>1189</ele>
        <time>2018-07-14T06:08:00.009Z</time>
      </trkpt>
      <trkpt lat="37.200313" lon="-3.431523">
        <ele>1188</ele>
        <time>2018-07-14T06:08:03.009Z</time>
      </trkpt>
      <trkpt lat="37.200246" lon="-3.431626">
        <ele>1188</ele>
        <time>2018-07-14T06:08:06.009Z</time>
      </trkpt>
      <trkpt lat="37.200183" lon="-3.431718">
        <ele>1187.73099864322</ele>
        <time>2018-07-14T06:08:09.009Z</time>
      </trkpt>
      <trkpt lat="37.200128" lon="-3.431815">
        <ele>1187</ele>
        <time>2018-07-14T06:08:12.009Z</time>
      </trkpt>
      <trkpt lat="37.20008" lon="-3.431901">
        <ele>1187</ele>
        <time>2018-07-14T06:08:15.009Z</time>
      </trkpt>
      <trkpt lat="37.200037" lon="-3.431985">
        <ele>1187</ele>
        <time>2018-07-14T06:08:18.009Z</time>
      </trkpt>
      <trkpt lat="37.199995" lon="-3.432056">
        <ele>1187</ele>
        <time>2018-07-14T06:08:21.009Z</time>
      </trkpt>
      <trkpt lat="37.199947" lon="-3.432133">
        <ele>1187</ele>
        <time>2018-07-14T06:08:24.009Z</time>
      </trkpt>
      <trkpt lat="37.199914" lon="-3.432197">
        <ele>1187</ele>
        <time>2018-07-14T06:08:26.009Z</time>
      </trkpt>
      <trkpt lat="37.199885" lon="-3.432261">
        <ele>1187</ele>
        <time>2018-07-14T06:08:28.009Z</time>
      </trkpt>
      <trkpt lat="37.199863" lon="-3.432322">
        <ele>1187</ele>
        <time>2018-07-14T06:08:30.009Z</time>
      </trkpt>
      <trkpt lat="37.19984" lon="-3.432386">
        <ele>1187</ele>
        <time>2018-07-14T06:08:32.009Z</time>
      </trkpt>
      <trkpt lat="37.199816" lon="-3.432455">
        <ele>1187</ele>
        <time>2018-07-14T06:08:34.009Z</time>
      </trkpt>
      <trkpt lat="37.19979" lon="-3.432518">
        <ele>1187</ele>
        <time>2018-07-14T06:08:36.009Z</time>
      </trkpt>
      <trkpt lat="37.199766" lon="-3.432587">
        <ele>1186.26899544314</ele>
        <time>2018-07-14T06:08:38.009Z</time>
      </trkpt>
      <trkpt lat="37.199742" lon="-3.432659">
        <ele>1186</ele>
        <time>2018-07-14T06:08:40.009Z</time>
      </trkpt>
      <trkpt lat="37.199726" lon="-3.432736">
        <ele>1186</ele>
        <time>2018-07-14T06:08:42.009Z</time>
      </trkpt>
      <trkpt lat="37.199713" lon="-3.432811">
        <ele>1185</ele>
        <time>2018-07-14T06:08:44.009Z</time>
      </trkpt>
      <trkpt lat="37.199706" lon="-3.432893">
        <ele>1185</ele>
        <time>2018-07-14T06:08:46.009Z</time>
      </trkpt>
      <trkpt lat="37.199697" lon="-3.432975">
        <ele>1185</ele>
        <time>2018-07-14T06:08:48.009Z</time>
      </trkpt>
      <trkpt lat="37.19969" lon="-3.433055">
        <ele>1184</ele>
        <time>2018-07-14T06:08:50.009Z</time>
      </trkpt>
      <trkpt lat="37.199703" lon="-3.433162">
        <ele>1184</ele>
        <time>2018-07-14T06:08:53.009Z</time>
      </trkpt>
      <trkpt lat="37.199733" lon="-3.433269">
        <ele>1183.73100455686</ele>
        <time>2018-07-14T06:08:56.009Z</time>
      </trkpt>
      <trkpt lat="37.199755" lon="-3.433345">
        <ele>1183</ele>
        <time>2018-07-14T06:08:58.009Z</time>
      </trkpt>
      <trkpt lat="37.199782" lon="-3.433418">
        <ele>1183</ele>
        <time>2018-07-14T06:09:00.009Z</time>
      </trkpt>
      <trkpt lat="37.199806" lon="-3.433487">
        <ele>1182.73100455686</ele>
        <time>2018-07-14T06:09:02.009Z</time>
      </trkpt>
      <trkpt lat="37.199843" lon="-3.433558">
        <ele>1182</ele>
        <time>2018-07-14T06:09:04.009Z</time>
      </trkpt>
      <trkpt lat="37.199877" lon="-3.433624">
        <ele>1181.73100455686</ele>
        <time>2018-07-14T06:09:06.009Z</time>
      </trkpt>
      <trkpt lat="37.199918" lon="-3.433677">
        <ele>1181</ele>
        <time>2018-07-14T06:09:08.009Z</time>
      </trkpt>
      <trkpt lat="37.19996" lon="-3.433736">
        <ele>1180.73100455686</ele>
        <time>2018-07-14T06:09:10.009Z</time>
      </trkpt>
      <trkpt lat="37.199997" lon="-3.433796">
        <ele>1180</ele>
        <time>2018-07-14T06:09:12.009Z</time>
      </trkpt>
      <trkpt lat="37.200017" lon="-3.433863">
        <ele>1179</ele>
        <time>2018-07-14T06:09:14.009Z</time>
      </trkpt>
      <trkpt lat="37.200024" lon="-3.433932">
        <ele>1178</ele>
        <time>2018-07-14T06:09:16.009Z</time>
      </trkpt>
      <trkpt lat="37.200009" lon="-3.434038">
        <ele>1177</ele>
        <time>2018-07-14T06:09:19.009Z</time>
      </trkpt>
      <trkpt lat="37.199975" lon="-3.434104">
        <ele>1177</ele>
        <time>2018-07-14T06:09:21.009Z</time>
      </trkpt>
      <trkpt lat="37.199943" lon="-3.434174">
        <ele>1177</ele>
        <time>2018-07-14T06:09:23.009Z</time>
      </trkpt>
      <trkpt lat="37.199908" lon="-3.434239">
        <ele>1176</ele>
        <time>2018-07-14T06:09:25.009Z</time>
      </trkpt>
      <trkpt lat="37.199882" lon="-3.434309">
        <ele>1176</ele>
        <time>2018-07-14T06:09:27.009Z</time>
      </trkpt>
      <trkpt lat="37.199864" lon="-3.434386">
        <ele>1175</ele>
        <time>2018-07-14T06:09:29.009Z</time>
      </trkpt>
      <trkpt lat="37.199862" lon="-3.43447">
        <ele>1175</ele>
        <time>2018-07-14T06:09:31.009Z</time>
      </trkpt>
      <trkpt lat="37.199865" lon="-3.434551">
        <ele>1173.73099864322</ele>
        <time>2018-07-14T06:09:33.009Z</time>
      </trkpt>
      <trkpt lat="37.199877" lon="-3.434636">
        <ele>1172.73627145869</ele>
        <time>2018-07-14T06:09:35.009Z</time>
      </trkpt>
      <trkpt lat="37.199888" lon="-3.434716">
        <ele>1171.73099864322</ele>
        <time>2018-07-14T06:09:37.009Z</time>
      </trkpt>
      <trkpt lat="37.199916" lon="-3.434789">
        <ele>1170.73099864322</ele>
        <time>2018-07-14T06:09:39.009Z</time>
      </trkpt>
      <trkpt lat="37.199962" lon="-3.434848">
        <ele>1170</ele>
        <time>2018-07-14T06:09:41.009Z</time>
      </trkpt>
      <trkpt lat="37.200015" lon="-3.434904">
        <ele>1169</ele>
        <time>2018-07-14T06:09:43.009Z</time>
      </trkpt>
      <trkpt lat="37.200059" lon="-3.434962">
        <ele>1167.73099864322</ele>
        <time>2018-07-14T06:09:45.009Z</time>
      </trkpt>
      <trkpt lat="37.200091" lon="-3.435026">
        <ele>1166.73099864322</ele>
        <time>2018-07-14T06:09:47.009Z</time>
      </trkpt>
      <trkpt lat="37.200045" lon="-3.43514">
        <ele>1165</ele>
        <time>2018-07-14T06:09:51.009Z</time>
      </trkpt>
      <trkpt lat="37.199934" lon="-3.435144">
        <ele>1165</ele>
        <time>2018-07-14T06:09:54.009Z</time>
      </trkpt>
      <trkpt lat="37.199832" lon="-3.435166">
        <ele>1164</ele>
        <time>2018-07-14T06:09:57.009Z</time>
      </trkpt>
      <trkpt lat="37.199747" lon="-3.435211">
        <ele>1163</ele>
        <time>2018-07-14T06:10:00.009Z</time>
      </trkpt>
      <trkpt lat="37.199671" lon="-3.435276">
        <ele>1162.73099864322</ele>
        <time>2018-07-14T06:10:03.009Z</time>
      </trkpt>
      <trkpt lat="37.199625" lon="-3.43533">
        <ele>1162</ele>
        <time>2018-07-14T06:10:05.009Z</time>
      </trkpt>
      <trkpt lat="37.199575" lon="-3.435375">
        <ele>1161.73099864322</ele>
        <time>2018-07-14T06:10:07.009Z</time>
      </trkpt>
      <trkpt lat="37.19952" lon="-3.435414">
        <ele>1161</ele>
        <time>2018-07-14T06:10:09.009Z</time>
      </trkpt>
      <trkpt lat="37.199462" lon="-3.435441">
        <ele>1160</ele>
        <time>2018-07-14T06:10:11.009Z</time>
      </trkpt>
      <trkpt lat="37.199402" lon="-3.435461">
        <ele>1160</ele>
        <time>2018-07-14T06:10:13.009Z</time>
      </trkpt>
      <trkpt lat="37.199337" lon="-3.43548">
        <ele>1159</ele>
        <time>2018-07-14T06:10:15.009Z</time>
      </trkpt>
      <trkpt lat="37.199281" lon="-3.435516">
        <ele>1158</ele>
        <time>2018-07-14T06:10:17.009Z</time>
      </trkpt>
      <trkpt lat="37.199226" lon="-3.435566">
        <ele>1157.73099864322</ele>
        <time>2018-07-14T06:10:19.009Z</time>
      </trkpt>
      <trkpt lat="37.199179" lon="-3.435624">
        <ele>1156</ele>
        <time>2018-07-14T06:10:21.009Z</time>
      </trkpt>
      <trkpt lat="37.199143" lon="-3.435674">
        <ele>1155</ele>
        <time>2018-07-14T06:10:23.009Z</time>
      </trkpt>
      <trkpt lat="37.199097" lon="-3.435727">
        <ele>1154.73099864322</ele>
        <time>2018-07-14T06:10:25.009Z</time>
      </trkpt>
      <trkpt lat="37.199048" lon="-3.435776">
        <ele>1154</ele>
        <time>2018-07-14T06:10:27.009Z</time>
      </trkpt>
      <trkpt lat="37.198997" lon="-3.435824">
        <ele>1153.73099864322</ele>
        <time>2018-07-14T06:10:29.009Z</time>
      </trkpt>
      <trkpt lat="37.198943" lon="-3.435871">
        <ele>1152.73099864322</ele>
        <time>2018-07-14T06:10:31.009Z</time>
      </trkpt>
      <trkpt lat="37.198887" lon="-3.435914">
        <ele>1151.73099864322</ele>
        <time>2018-07-14T06:10:33.009Z</time>
      </trkpt>
      <trkpt lat="37.198833" lon="-3.435966">
        <ele>1150.73099864322</ele>
        <time>2018-07-14T06:10:35.009Z</time>
      </trkpt>
      <trkpt lat="37.198785" lon="-3.436024">
        <ele>1150</ele>
        <time>2018-07-14T06:10:37.009Z</time>
      </trkpt>
      <trkpt lat="37.19874" lon="-3.436086">
        <ele>1149</ele>
        <time>2018-07-14T06:10:39.009Z</time>
      </trkpt>
      <trkpt lat="37.198697" lon="-3.436143">
        <ele>1148</ele>
        <time>2018-07-14T06:10:41.009Z</time>
      </trkpt>
      <trkpt lat="37.198652" lon="-3.436198">
        <ele>1147</ele>
        <time>2018-07-14T06:10:43.009Z</time>
      </trkpt>
      <trkpt lat="37.198604" lon="-3.436244">
        <ele>1146.73099864322</ele>
        <time>2018-07-14T06:10:45.009Z</time>
      </trkpt>
      <trkpt lat="37.198553" lon="-3.436285">
        <ele>1146</ele>
        <time>2018-07-14T06:10:47.009Z</time>
      </trkpt>
      <trkpt lat="37.1985" lon="-3.436324">
        <ele>1145</ele>
        <time>2018-07-14T06:10:49.009Z</time>
      </trkpt>
      <trkpt lat="37.19845" lon="-3.436377">
        <ele>1144.73099864322</ele>
        <time>2018-07-14T06:10:51.009Z</time>
      </trkpt>
      <trkpt lat="37.198404" lon="-3.436426">
        <ele>1144</ele>
        <time>2018-07-14T06:10:53.009Z</time>
      </trkpt>
      <trkpt lat="37.19836" lon="-3.436471">
        <ele>1143</ele>
        <time>2018-07-14T06:10:55.009Z</time>
      </trkpt>
      <trkpt lat="37.19831" lon="-3.436514">
        <ele>1142</ele>
        <time>2018-07-14T06:10:57.009Z</time>
      </trkpt>
      <trkpt lat="37.198255" lon="-3.436545">
        <ele>1142</ele>
        <time>2018-07-14T06:10:59.009Z</time>
      </trkpt>
      <trkpt lat="37.198195" lon="-3.436574">
        <ele>1141</ele>
        <time>2018-07-14T06:11:01.009Z</time>
      </trkpt>
      <trkpt lat="37.198157" lon="-3.436634">
        <ele>1139.73099864322</ele>
        <time>2018-07-14T06:11:03.009Z</time>
      </trkpt>
      <trkpt lat="37.198176" lon="-3.43671">
        <ele>1138.46199728643</ele>
        <time>2018-07-14T06:11:05.009Z</time>
      </trkpt>
      <trkpt lat="37.198262" lon="-3.436733">
        <ele>1135</ele>
        <time>2018-07-14T06:11:07.009Z</time>
      </trkpt>
      <trkpt lat="37.198349" lon="-3.43671">
        <ele>1133.73099864322</ele>
        <time>2018-07-14T06:11:09.009Z</time>
      </trkpt>
      <trkpt lat="37.198423" lon="-3.436684">
        <ele>1132.73099864322</ele>
        <time>2018-07-14T06:11:11.009Z</time>
      </trkpt>
      <trkpt lat="37.198492" lon="-3.436678">
        <ele>1131.73099864322</ele>
        <time>2018-07-14T06:11:13.009Z</time>
      </trkpt>
      <trkpt lat="37.198545" lon="-3.436698">
        <ele>1130.73099864322</ele>
        <time>2018-07-14T06:11:15.009Z</time>
      </trkpt>
      <trkpt lat="37.198523" lon="-3.436809">
        <ele>1128.73100455686</ele>
        <time>2018-07-14T06:11:18.009Z</time>
      </trkpt>
      <trkpt lat="37.198476" lon="-3.436892">
        <ele>1128</ele>
        <time>2018-07-14T06:11:20.009Z</time>
      </trkpt>
      <trkpt lat="37.198443" lon="-3.436976">
        <ele>1127</ele>
        <time>2018-07-14T06:11:22.009Z</time>
      </trkpt>
      <trkpt lat="37.19842" lon="-3.437056">
        <ele>1126.73100455686</ele>
        <time>2018-07-14T06:11:24.009Z</time>
      </trkpt>
      <trkpt lat="37.198393" lon="-3.437129">
        <ele>1126</ele>
        <time>2018-07-14T06:11:26.009Z</time>
      </trkpt>
      <trkpt lat="37.198369" lon="-3.437192">
        <ele>1125</ele>
        <time>2018-07-14T06:11:28.009Z</time>
      </trkpt>
      <trkpt lat="37.198334" lon="-3.437257">
        <ele>1124.73100455686</ele>
        <time>2018-07-14T06:11:30.009Z</time>
      </trkpt>
      <trkpt lat="37.198293" lon="-3.437317">
        <ele>1124</ele>
        <time>2018-07-14T06:11:32.009Z</time>
      </trkpt>
      <trkpt lat="37.198253" lon="-3.437377">
        <ele>1123</ele>
        <time>2018-07-14T06:11:34.009Z</time>
      </trkpt>
      <trkpt lat="37.198211" lon="-3.437429">
        <ele>1122</ele>
        <time>2018-07-14T06:11:36.009Z</time>
      </trkpt>
      <trkpt lat="37.198159" lon="-3.437463">
        <ele>1121</ele>
        <time>2018-07-14T06:11:38.009Z</time>
      </trkpt>
      <trkpt lat="37.198099" lon="-3.437489">
        <ele>1120</ele>
        <time>2018-07-14T06:11:40.009Z</time>
      </trkpt>
      <trkpt lat="37.198037" lon="-3.437504">
        <ele>1119.73100455686</ele>
        <time>2018-07-14T06:11:42.009Z</time>
      </trkpt>
      <trkpt lat="37.197976" lon="-3.437505">
        <ele>1119</ele>
        <time>2018-07-14T06:11:44.009Z</time>
      </trkpt>
      <trkpt lat="37.197917" lon="-3.437489">
        <ele>1119</ele>
        <time>2018-07-14T06:11:46.009Z</time>
      </trkpt>
      <trkpt lat="37.197863" lon="-3.43746">
        <ele>1118.73100455686</ele>
        <time>2018-07-14T06:11:48.009Z</time>
      </trkpt>
      <trkpt lat="37.197821" lon="-3.437421">
        <ele>1118</ele>
        <time>2018-07-14T06:11:50.009Z</time>
      </trkpt>
      <trkpt lat="37.197783" lon="-3.437366">
        <ele>1118</ele>
        <time>2018-07-14T06:11:52.009Z</time>
      </trkpt>
      <trkpt lat="37.197751" lon="-3.4373">
        <ele>1118</ele>
        <time>2018-07-14T06:11:54.009Z</time>
      </trkpt>
      <trkpt lat="37.197716" lon="-3.437234">
        <ele>1118</ele>
        <time>2018-07-14T06:11:56.009Z</time>
      </trkpt>
      <trkpt lat="37.197679" lon="-3.43717">
        <ele>1117</ele>
        <time>2018-07-14T06:11:58.009Z</time>
      </trkpt>
      <trkpt lat="37.19765" lon="-3.437103">
        <ele>1117</ele>
        <time>2018-07-14T06:12:00.009Z</time>
      </trkpt>
      <trkpt lat="37.19763" lon="-3.437035">
        <ele>1117</ele>
        <time>2018-07-14T06:12:02.009Z</time>
      </trkpt>
      <trkpt lat="37.197612" lon="-3.436964">
        <ele>1116.73100455686</ele>
        <time>2018-07-14T06:12:04.009Z</time>
      </trkpt>
      <trkpt lat="37.197579" lon="-3.436899">
        <ele>1116</ele>
        <time>2018-07-14T06:12:06.009Z</time>
      </trkpt>
      <trkpt lat="37.197532" lon="-3.436849">
        <ele>1116</ele>
        <time>2018-07-14T06:12:08.009Z</time>
      </trkpt>
      <trkpt lat="37.197476" lon="-3.436812">
        <ele>1115</ele>
        <time>2018-07-14T06:12:10.009Z</time>
      </trkpt>
      <trkpt lat="37.197421" lon="-3.436786">
        <ele>1115</ele>
        <time>2018-07-14T06:12:12.009Z</time>
      </trkpt>
      <trkpt lat="37.197333" lon="-3.436776">
        <ele>1115</ele>
        <time>2018-07-14T06:12:15.009Z</time>
      </trkpt>
      <trkpt lat="37.197248" lon="-3.436772">
        <ele>1114.73100455686</ele>
        <time>2018-07-14T06:12:18.009Z</time>
      </trkpt>
      <trkpt lat="37.197187" lon="-3.436755">
        <ele>1113.73100455686</ele>
        <time>2018-07-14T06:12:20.009Z</time>
      </trkpt>
      <trkpt lat="37.197126" lon="-3.436743">
        <ele>1113</ele>
        <time>2018-07-14T06:12:22.009Z</time>
      </trkpt>
      <trkpt lat="37.197062" lon="-3.436729">
        <ele>1113</ele>
        <time>2018-07-14T06:12:24.009Z</time>
      </trkpt>
      <trkpt lat="37.197" lon="-3.436714">
        <ele>1112</ele>
        <time>2018-07-14T06:12:26.009Z</time>
      </trkpt>
      <trkpt lat="37.196941" lon="-3.436702">
        <ele>1112</ele>
        <time>2018-07-14T06:12:28.009Z</time>
      </trkpt>
      <trkpt lat="37.196878" lon="-3.436689">
        <ele>1111</ele>
        <time>2018-07-14T06:12:30.009Z</time>
      </trkpt>
      <trkpt lat="37.196823" lon="-3.436663">
        <ele>1110</ele>
        <time>2018-07-14T06:12:32.009Z</time>
      </trkpt>
      <trkpt lat="37.196784" lon="-3.436612">
        <ele>1110</ele>
        <time>2018-07-14T06:12:34.009Z</time>
      </trkpt>
      <trkpt lat="37.196743" lon="-3.436521">
        <ele>1110</ele>
        <time>2018-07-14T06:12:37.009Z</time>
      </trkpt>
      <trkpt lat="37.196719" lon="-3.436455">
        <ele>1109.73099864322</ele>
        <time>2018-07-14T06:12:39.009Z</time>
      </trkpt>
      <trkpt lat="37.196697" lon="-3.43639">
        <ele>1108.73099864322</ele>
        <time>2018-07-14T06:12:41.009Z</time>
      </trkpt>
      <trkpt lat="37.196686" lon="-3.436315">
        <ele>1108</ele>
        <time>2018-07-14T06:12:43.009Z</time>
      </trkpt>
      <trkpt lat="37.196676" lon="-3.436241">
        <ele>1107</ele>
        <time>2018-07-14T06:12:45.009Z</time>
      </trkpt>
      <trkpt lat="37.196675" lon="-3.436173">
        <ele>1105</ele>
        <time>2018-07-14T06:12:47.009Z</time>
      </trkpt>
      <trkpt lat="37.196687" lon="-3.436097">
        <ele>1104</ele>
        <time>2018-07-14T06:12:49.009Z</time>
      </trkpt>
      <trkpt lat="37.196683" lon="-3.43603">
        <ele>1104</ele>
        <time>2018-07-14T06:12:51.009Z</time>
      </trkpt>
      <trkpt lat="37.196662" lon="-3.435953">
        <ele>1104</ele>
        <time>2018-07-14T06:12:53.009Z</time>
      </trkpt>
      <trkpt lat="37.196636" lon="-3.435883">
        <ele>1103.73099864322</ele>
        <time>2018-07-14T06:12:55.009Z</time>
      </trkpt>
      <trkpt lat="37.196604" lon="-3.43582">
        <ele>1103</ele>
        <time>2018-07-14T06:12:57.009Z</time>
      </trkpt>
      <trkpt lat="37.196568" lon="-3.43576">
        <ele>1103</ele>
        <time>2018-07-14T06:12:59.009Z</time>
      </trkpt>
      <trkpt lat="37.196524" lon="-3.435715">
        <ele>1102</ele>
        <time>2018-07-14T06:13:01.009Z</time>
      </trkpt>
      <trkpt lat="37.196466" lon="-3.435709">
        <ele>1101.73099864322</ele>
        <time>2018-07-14T06:13:03.009Z</time>
      </trkpt>
      <trkpt lat="37.196412" lon="-3.435777">
        <ele>1100.73099864322</ele>
        <time>2018-07-14T06:13:05.009Z</time>
      </trkpt>
      <trkpt lat="37.196374" lon="-3.435857">
        <ele>1100</ele>
        <time>2018-07-14T06:13:07.009Z</time>
      </trkpt>
      <trkpt lat="37.196343" lon="-3.435932">
        <ele>1099.73099864322</ele>
        <time>2018-07-14T06:13:09.009Z</time>
      </trkpt>
      <trkpt lat="37.196325" lon="-3.436012">
        <ele>1099</ele>
        <time>2018-07-14T06:13:11.009Z</time>
      </trkpt>
      <trkpt lat="37.196316" lon="-3.436092">
        <ele>1098</ele>
        <time>2018-07-14T06:13:13.009Z</time>
      </trkpt>
      <trkpt lat="37.196311" lon="-3.436175">
        <ele>1097</ele>
        <time>2018-07-14T06:13:15.009Z</time>
      </trkpt>
      <trkpt lat="37.196293" lon="-3.436254">
        <ele>1097</ele>
        <time>2018-07-14T06:13:17.009Z</time>
      </trkpt>
      <trkpt lat="37.196268" lon="-3.436324">
        <ele>1096</ele>
        <time>2018-07-14T06:13:19.009Z</time>
      </trkpt>
      <trkpt lat="37.196257" lon="-3.436397">
        <ele>1095</ele>
        <time>2018-07-14T06:13:21.009Z</time>
      </trkpt>
      <trkpt lat="37.196251" lon="-3.436467">
        <ele>1094.73099864322</ele>
        <time>2018-07-14T06:13:23.009Z</time>
      </trkpt>
      <trkpt lat="37.196254" lon="-3.436543">
        <ele>1093.73099864322</ele>
        <time>2018-07-14T06:13:25.009Z</time>
      </trkpt>
      <trkpt lat="37.19626" lon="-3.436613">
        <ele>1092.73099864322</ele>
        <time>2018-07-14T06:13:27.009Z</time>
      </trkpt>
      <trkpt lat="37.196265" lon="-3.436684">
        <ele>1092</ele>
        <time>2018-07-14T06:13:29.009Z</time>
      </trkpt>
      <trkpt lat="37.196257" lon="-3.436787">
        <ele>1091</ele>
        <time>2018-07-14T06:13:32.009Z</time>
      </trkpt>
      <trkpt lat="37.196241" lon="-3.436861">
        <ele>1091</ele>
        <time>2018-07-14T06:13:34.009Z</time>
      </trkpt>
      <trkpt lat="37.196222" lon="-3.436932">
        <ele>1090</ele>
        <time>2018-07-14T06:13:36.009Z</time>
      </trkpt>
      <trkpt lat="37.196194" lon="-3.436998">
        <ele>1089</ele>
        <time>2018-07-14T06:13:38.009Z</time>
      </trkpt>
      <trkpt lat="37.196163" lon="-3.43706">
        <ele>1088</ele>
        <time>2018-07-14T06:13:40.009Z</time>
      </trkpt>
      <trkpt lat="37.196133" lon="-3.437122">
        <ele>1086.74591834069</ele>
        <time>2018-07-14T06:13:42.009Z</time>
      </trkpt>
      <trkpt lat="37.19609" lon="-3.437176">
        <ele>1085.73100455686</ele>
        <time>2018-07-14T06:13:44.009Z</time>
      </trkpt>
      <trkpt lat="37.196042" lon="-3.437217">
        <ele>1084.73100455686</ele>
        <time>2018-07-14T06:13:46.009Z</time>
      </trkpt>
      <trkpt lat="37.195992" lon="-3.437252">
        <ele>1083.73100455686</ele>
        <time>2018-07-14T06:13:48.009Z</time>
      </trkpt>
      <trkpt lat="37.195939" lon="-3.43728">
        <ele>1082.73100455686</ele>
        <time>2018-07-14T06:13:50.009Z</time>
      </trkpt>
      <trkpt lat="37.195888" lon="-3.437309">
        <ele>1082</ele>
        <time>2018-07-14T06:13:52.009Z</time>
      </trkpt>
      <trkpt lat="37.19583" lon="-3.437327">
        <ele>1081</ele>
        <time>2018-07-14T06:13:54.009Z</time>
      </trkpt>
      <trkpt lat="37.195773" lon="-3.43735">
        <ele>1081</ele>
        <time>2018-07-14T06:13:56.009Z</time>
      </trkpt>
      <trkpt lat="37.195719" lon="-3.437377">
        <ele>1080.73100455686</ele>
        <time>2018-07-14T06:13:58.009Z</time>
      </trkpt>
      <trkpt lat="37.195663" lon="-3.437398">
        <ele>1079.73100455686</ele>
        <time>2018-07-14T06:14:00.009Z</time>
      </trkpt>
      <trkpt lat="37.195628" lon="-3.437438">
        <ele>1078.46200911372</ele>
        <time>2018-07-14T06:14:02.009Z</time>
      </trkpt>
      <trkpt lat="37.195708" lon="-3.437465">
        <ele>1074.73100455686</ele>
        <time>2018-07-14T06:14:06.009Z</time>
      </trkpt>
      <trkpt lat="37.195784" lon="-3.437456">
        <ele>1074</ele>
        <time>2018-07-14T06:14:08.009Z</time>
      </trkpt>
      <trkpt lat="37.195852" lon="-3.437462">
        <ele>1073</ele>
        <time>2018-07-14T06:14:10.009Z</time>
      </trkpt>
      <trkpt lat="37.195908" lon="-3.437479">
        <ele>1072.73100455686</ele>
        <time>2018-07-14T06:14:12.009Z</time>
      </trkpt>
      <trkpt lat="37.19595" lon="-3.437506">
        <ele>1071.73100455686</ele>
        <time>2018-07-14T06:14:14.009Z</time>
      </trkpt>
      <trkpt lat="37.195996" lon="-3.437513">
        <ele>1070</ele>
        <time>2018-07-14T06:14:19.009Z</time>
      </trkpt>
      <trkpt lat="37.196068" lon="-3.437514">
        <ele>1068.73100455686</ele>
        <time>2018-07-14T06:14:22.009Z</time>
      </trkpt>
      <trkpt lat="37.19613" lon="-3.437509">
        <ele>1068</ele>
        <time>2018-07-14T06:14:24.009Z</time>
      </trkpt>
      <trkpt lat="37.196189" lon="-3.437493">
        <ele>1067</ele>
        <time>2018-07-14T06:14:26.009Z</time>
      </trkpt>
      <trkpt lat="37.196248" lon="-3.437464">
        <ele>1067</ele>
        <time>2018-07-14T06:14:28.009Z</time>
      </trkpt>
      <trkpt lat="37.196307" lon="-3.43742">
        <ele>1067</ele>
        <time>2018-07-14T06:14:30.009Z</time>
      </trkpt>
      <trkpt lat="37.196398" lon="-3.437393">
        <ele>1067</ele>
        <time>2018-07-14T06:14:33.009Z</time>
      </trkpt>
      <trkpt lat="37.196414" lon="-3.437476">
        <ele>1065.73099864322</ele>
        <time>2018-07-14T06:14:37.009Z</time>
      </trkpt>
      <trkpt lat="37.196396" lon="-3.437557">
        <ele>1065</ele>
        <time>2018-07-14T06:14:39.009Z</time>
      </trkpt>
      <trkpt lat="37.196376" lon="-3.437641">
        <ele>1064</ele>
        <time>2018-07-14T06:14:41.009Z</time>
      </trkpt>
      <trkpt lat="37.196342" lon="-3.437708">
        <ele>1064</ele>
        <time>2018-07-14T06:14:43.009Z</time>
      </trkpt>
      <trkpt lat="37.196306" lon="-3.437777">
        <ele>1063.73099864322</ele>
        <time>2018-07-14T06:14:45.009Z</time>
      </trkpt>
      <trkpt lat="37.196272" lon="-3.437845">
        <ele>1063</ele>
        <time>2018-07-14T06:14:47.009Z</time>
      </trkpt>
      <trkpt lat="37.196234" lon="-3.437898">
        <ele>1062.73099864322</ele>
        <time>2018-07-14T06:14:49.009Z</time>
      </trkpt>
      <trkpt lat="37.196166" lon="-3.43796">
        <ele>1062</ele>
        <time>2018-07-14T06:14:52.009Z</time>
      </trkpt>
      <trkpt lat="37.196118" lon="-3.438015">
        <ele>1062</ele>
        <time>2018-07-14T06:14:54.009Z</time>
      </trkpt>
      <trkpt lat="37.196078" lon="-3.438079">
        <ele>1061.73100455686</ele>
        <time>2018-07-14T06:14:56.009Z</time>
      </trkpt>
      <trkpt lat="37.196054" lon="-3.438147">
        <ele>1061</ele>
        <time>2018-07-14T06:14:58.009Z</time>
      </trkpt>
      <trkpt lat="37.19604" lon="-3.438253">
        <ele>1061</ele>
        <time>2018-07-14T06:15:01.009Z</time>
      </trkpt>
      <trkpt lat="37.196033" lon="-3.438359">
        <ele>1058.73100455686</ele>
        <time>2018-07-14T06:15:04.009Z</time>
      </trkpt>
      <trkpt lat="37.196025" lon="-3.438467">
        <ele>1056</ele>
        <time>2018-07-14T06:15:07.009Z</time>
      </trkpt>
      <trkpt lat="37.19601" lon="-3.438548">
        <ele>1055</ele>
        <time>2018-07-14T06:15:09.009Z</time>
      </trkpt>
      <trkpt lat="37.195994" lon="-3.438621">
        <ele>1054</ele>
        <time>2018-07-14T06:15:11.009Z</time>
      </trkpt>
      <trkpt lat="37.195976" lon="-3.438697">
        <ele>1053</ele>
        <time>2018-07-14T06:15:13.009Z</time>
      </trkpt>
      <trkpt lat="37.195947" lon="-3.438765">
        <ele>1053</ele>
        <time>2018-07-14T06:15:15.009Z</time>
      </trkpt>
      <trkpt lat="37.195908" lon="-3.438827">
        <ele>1052</ele>
        <time>2018-07-14T06:15:17.009Z</time>
      </trkpt>
      <trkpt lat="37.195869" lon="-3.438895">
        <ele>1051</ele>
        <time>2018-07-14T06:15:19.009Z</time>
      </trkpt>
      <trkpt lat="37.195842" lon="-3.438969">
        <ele>1050.73099864322</ele>
        <time>2018-07-14T06:15:21.009Z</time>
      </trkpt>
      <trkpt lat="37.195817" lon="-3.439031">
        <ele>1050</ele>
        <time>2018-07-14T06:15:23.009Z</time>
      </trkpt>
      <trkpt lat="37.195773" lon="-3.439076">
        <ele>1050</ele>
        <time>2018-07-14T06:15:25.009Z</time>
      </trkpt>
      <trkpt lat="37.195715" lon="-3.439103">
        <ele>1048.73099864322</ele>
        <time>2018-07-14T06:15:27.009Z</time>
      </trkpt>
      <trkpt lat="37.195658" lon="-3.43913">
        <ele>1046.73099864322</ele>
        <time>2018-07-14T06:15:29.009Z</time>
      </trkpt>
      <trkpt lat="37.19561" lon="-3.43917">
        <ele>1046</ele>
        <time>2018-07-14T06:15:31.009Z</time>
      </trkpt>
      <trkpt lat="37.195566" lon="-3.43922">
        <ele>1045</ele>
        <time>2018-07-14T06:15:33.009Z</time>
      </trkpt>
      <trkpt lat="37.195535" lon="-3.439273">
        <ele>1043.73099864322</ele>
        <time>2018-07-14T06:15:35.009Z</time>
      </trkpt>
      <trkpt lat="37.195516" lon="-3.439339">
        <ele>1041.73099864322</ele>
        <time>2018-07-14T06:15:37.009Z</time>
      </trkpt>
      <trkpt lat="37.195524" lon="-3.439421">
        <ele>1040</ele>
        <time>2018-07-14T06:15:39.009Z</time>
      </trkpt>
      <trkpt lat="37.195555" lon="-3.439497">
        <ele>1039</ele>
        <time>2018-07-14T06:15:41.009Z</time>
      </trkpt>
      <trkpt lat="37.195585" lon="-3.43956">
        <ele>1038</ele>
        <time>2018-07-14T06:15:43.009Z</time>
      </trkpt>
      <trkpt lat="37.195625" lon="-3.439622">
        <ele>1036.73838953248</ele>
        <time>2018-07-14T06:15:45.009Z</time>
      </trkpt>
      <trkpt lat="37.195673" lon="-3.43967">
        <ele>1035</ele>
        <time>2018-07-14T06:15:47.009Z</time>
      </trkpt>
      <trkpt lat="37.195723" lon="-3.439713">
        <ele>1033.73099864322</ele>
        <time>2018-07-14T06:15:49.009Z</time>
      </trkpt>
      <trkpt lat="37.195769" lon="-3.439753">
        <ele>1032.73099864322</ele>
        <time>2018-07-14T06:15:51.009Z</time>
      </trkpt>
      <trkpt lat="37.195811" lon="-3.439794">
        <ele>1031.73099864322</ele>
        <time>2018-07-14T06:15:53.009Z</time>
      </trkpt>
      <trkpt lat="37.195853" lon="-3.439831">
        <ele>1030.73099864322</ele>
        <time>2018-07-14T06:15:55.009Z</time>
      </trkpt>
      <trkpt lat="37.195909" lon="-3.439898">
        <ele>1029</ele>
        <time>2018-07-14T06:15:58.009Z</time>
      </trkpt>
      <trkpt lat="37.195847" lon="-3.439975">
        <ele>1028</ele>
        <time>2018-07-14T06:16:02.009Z</time>
      </trkpt>
      <trkpt lat="37.195748" lon="-3.439965">
        <ele>1028</ele>
        <time>2018-07-14T06:16:05.009Z</time>
      </trkpt>
      <trkpt lat="37.195658" lon="-3.439944">
        <ele>1028</ele>
        <time>2018-07-14T06:16:08.009Z</time>
      </trkpt>
      <trkpt lat="37.195562" lon="-3.439921">
        <ele>1027</ele>
        <time>2018-07-14T06:16:11.009Z</time>
      </trkpt>
      <trkpt lat="37.195465" lon="-3.439891">
        <ele>1027</ele>
        <time>2018-07-14T06:16:14.009Z</time>
      </trkpt>
      <trkpt lat="37.195369" lon="-3.439859">
        <ele>1027</ele>
        <time>2018-07-14T06:16:17.009Z</time>
      </trkpt>
      <trkpt lat="37.195272" lon="-3.439856">
        <ele>1026</ele>
        <time>2018-07-14T06:16:20.009Z</time>
      </trkpt>
      <trkpt lat="37.195187" lon="-3.439817">
        <ele>1026</ele>
        <time>2018-07-14T06:16:23.009Z</time>
      </trkpt>
      <trkpt lat="37.19508" lon="-3.43976">
        <ele>1025</ele>
        <time>2018-07-14T06:16:27.009Z</time>
      </trkpt>
      <trkpt lat="37.194987" lon="-3.439685">
        <ele>1023.73099864322</ele>
        <time>2018-07-14T06:16:31.009Z</time>
      </trkpt>
      <trkpt lat="37.194945" lon="-3.439594">
        <ele>1022.73100455686</ele>
        <time>2018-07-14T06:16:34.009Z</time>
      </trkpt>
      <trkpt lat="37.194918" lon="-3.439487">
        <ele>1021</ele>
        <time>2018-07-14T06:16:37.009Z</time>
      </trkpt>
      <trkpt lat="37.194859" lon="-3.439363">
        <ele>1021</ele>
        <time>2018-07-14T06:16:41.009Z</time>
      </trkpt>
      <trkpt lat="37.194788" lon="-3.439298">
        <ele>1020</ele>
        <time>2018-07-14T06:16:44.009Z</time>
      </trkpt>
      <trkpt lat="37.194738" lon="-3.439209">
        <ele>1019</ele>
        <time>2018-07-14T06:16:47.009Z</time>
      </trkpt>
      <trkpt lat="37.194669" lon="-3.439125">
        <ele>1018</ele>
        <time>2018-07-14T06:16:51.009Z</time>
      </trkpt>
      <trkpt lat="37.194606" lon="-3.439081">
        <ele>1018</ele>
        <time>2018-07-14T06:16:54.009Z</time>
      </trkpt>
      <trkpt lat="37.19457" lon="-3.439009">
        <ele>1018</ele>
        <time>2018-07-14T06:16:59.009Z</time>
      </trkpt>
      <trkpt lat="37.194527" lon="-3.438938">
        <ele>1017</ele>
        <time>2018-07-14T06:17:04.009Z</time>
      </trkpt>
      <trkpt lat="37.194474" lon="-3.438894">
        <ele>1017</ele>
        <time>2018-07-14T06:17:08.009Z</time>
      </trkpt>
      <trkpt lat="37.194396" lon="-3.438891">
        <ele>1016</ele>
        <time>2018-07-14T06:17:12.009Z</time>
      </trkpt>
      <trkpt lat="37.194339" lon="-3.438981">
        <ele>1016</ele>
        <time>2018-07-14T06:17:15.009Z</time>
      </trkpt>
      <trkpt lat="37.194299" lon="-3.439062">
        <ele>1015</ele>
        <time>2018-07-14T06:17:17.009Z</time>
      </trkpt>
      <trkpt lat="37.194269" lon="-3.439137">
        <ele>1014</ele>
        <time>2018-07-14T06:17:19.009Z</time>
      </trkpt>
      <trkpt lat="37.194251" lon="-3.439215">
        <ele>1013.73099864322</ele>
        <time>2018-07-14T06:17:21.009Z</time>
      </trkpt>
      <trkpt lat="37.194255" lon="-3.439292">
        <ele>1012.73099864322</ele>
        <time>2018-07-14T06:17:23.009Z</time>
      </trkpt>
      <trkpt lat="37.194283" lon="-3.439356">
        <ele>1011.73099864322</ele>
        <time>2018-07-14T06:17:25.009Z</time>
      </trkpt>
      <trkpt lat="37.194307" lon="-3.439422">
        <ele>1010.73099864322</ele>
        <time>2018-07-14T06:17:27.009Z</time>
      </trkpt>
      <trkpt lat="37.19432" lon="-3.439493">
        <ele>1010</ele>
        <time>2018-07-14T06:17:29.009Z</time>
      </trkpt>
      <trkpt lat="37.194314" lon="-3.439559">
        <ele>1009</ele>
        <time>2018-07-14T06:17:31.009Z</time>
      </trkpt>
      <trkpt lat="37.194291" lon="-3.439645">
        <ele>1009</ele>
        <time>2018-07-14T06:17:34.009Z</time>
      </trkpt>
      <trkpt lat="37.194253" lon="-3.439729">
        <ele>1010</ele>
        <time>2018-07-14T06:17:37.009Z</time>
      </trkpt>
      <trkpt lat="37.194229" lon="-3.439787">
        <ele>1010</ele>
        <time>2018-07-14T06:17:39.009Z</time>
      </trkpt>
      <trkpt lat="37.194187" lon="-3.439848">
        <ele>1009.73100455686</ele>
        <time>2018-07-14T06:17:42.009Z</time>
      </trkpt>
      <trkpt lat="37.19414" lon="-3.439915">
        <ele>1008.78984</ele>
        <time>2018-07-14T06:17:45.009Z</time>
      </trkpt>
      <trkpt lat="37.194107" lon="-3.439967">
        <ele>1008</ele>
        <time>2018-07-14T06:17:47.009Z</time>
      </trkpt>
      <trkpt lat="37.194067" lon="-3.440008">
        <ele>1007</ele>
        <time>2018-07-14T06:17:49.009Z</time>
      </trkpt>
      <trkpt lat="37.194019" lon="-3.440035">
        <ele>1006</ele>
        <time>2018-07-14T06:17:51.009Z</time>
      </trkpt>
      <trkpt lat="37.193964" lon="-3.440053">
        <ele>1006</ele>
        <time>2018-07-14T06:17:53.009Z</time>
      </trkpt>
      <trkpt lat="37.193901" lon="-3.440058">
        <ele>1005.73099864322</ele>
        <time>2018-07-14T06:17:55.009Z</time>
      </trkpt>
      <trkpt lat="37.193838" lon="-3.440043">
        <ele>1005</ele>
        <time>2018-07-14T06:17:57.009Z</time>
      </trkpt>
      <trkpt lat="37.193777" lon="-3.440027">
        <ele>1005</ele>
        <time>2018-07-14T06:17:59.009Z</time>
      </trkpt>
      <trkpt lat="37.193717" lon="-3.440007">
        <ele>1005</ele>
        <time>2018-07-14T06:18:01.009Z</time>
      </trkpt>
      <trkpt lat="37.193663" lon="-3.439983">
        <ele>1004.73099864322</ele>
        <time>2018-07-14T06:18:03.009Z</time>
      </trkpt>
      <trkpt lat="37.193592" lon="-3.439959">
        <ele>1004</ele>
        <time>2018-07-14T06:18:06.009Z</time>
      </trkpt>
      <trkpt lat="37.19353" lon="-3.439976">
        <ele>1003</ele>
        <time>2018-07-14T06:18:09.009Z</time>
      </trkpt>
      <trkpt lat="37.19349" lon="-3.440025">
        <ele>1002.73099864322</ele>
        <time>2018-07-14T06:18:11.009Z</time>
      </trkpt>
      <trkpt lat="37.193464" lon="-3.44009">
        <ele>1002</ele>
        <time>2018-07-14T06:18:13.009Z</time>
      </trkpt>
      <trkpt lat="37.19343" lon="-3.440149">
        <ele>1000.73099864322</ele>
        <time>2018-07-14T06:18:15.009Z</time>
      </trkpt>
      <trkpt lat="37.19339" lon="-3.440204">
        <ele>999</ele>
        <time>2018-07-14T06:18:17.009Z</time>
      </trkpt>
      <trkpt lat="37.193361" lon="-3.440271">
        <ele>997.730998643217</ele>
        <time>2018-07-14T06:18:19.009Z</time>
      </trkpt>
      <trkpt lat="37.193362" lon="-3.440344">
        <ele>996</ele>
        <time>2018-07-14T06:18:21.009Z</time>
      </trkpt>
      <trkpt lat="37.19339" lon="-3.440414">
        <ele>994.730998643217</ele>
        <time>2018-07-14T06:18:23.009Z</time>
      </trkpt>
      <trkpt lat="37.193431" lon="-3.440475">
        <ele>993.730998643217</ele>
        <time>2018-07-14T06:18:25.009Z</time>
      </trkpt>
      <trkpt lat="37.193471" lon="-3.440537">
        <ele>992.730998643217</ele>
        <time>2018-07-14T06:18:27.009Z</time>
      </trkpt>
      <trkpt lat="37.193508" lon="-3.440601">
        <ele>990.730998643217</ele>
        <time>2018-07-14T06:18:29.009Z</time>
      </trkpt>
      <trkpt lat="37.193552" lon="-3.440659">
        <ele>990</ele>
        <time>2018-07-14T06:18:31.009Z</time>
      </trkpt>
      <trkpt lat="37.193593" lon="-3.440715">
        <ele>989</ele>
        <time>2018-07-14T06:18:33.009Z</time>
      </trkpt>
      <trkpt lat="37.193636" lon="-3.440769">
        <ele>988</ele>
        <time>2018-07-14T06:18:35.009Z</time>
      </trkpt>
      <trkpt lat="37.193677" lon="-3.440825">
        <ele>987</ele>
        <time>2018-07-14T06:18:37.009Z</time>
      </trkpt>
      <trkpt lat="37.193716" lon="-3.440878">
        <ele>986</ele>
        <time>2018-07-14T06:18:39.009Z</time>
      </trkpt>
      <trkpt lat="37.19375" lon="-3.440938">
        <ele>984.730998643217</ele>
        <time>2018-07-14T06:18:41.009Z</time>
      </trkpt>
      <trkpt lat="37.193777" lon="-3.441002">
        <ele>983.730998643217</ele>
        <time>2018-07-14T06:18:43.009Z</time>
      </trkpt>
      <trkpt lat="37.1938" lon="-3.441062">
        <ele>983</ele>
        <time>2018-07-14T06:18:45.009Z</time>
      </trkpt>
      <trkpt lat="37.193827" lon="-3.441127">
        <ele>982.730998643217</ele>
        <time>2018-07-14T06:18:47.009Z</time>
      </trkpt>
      <trkpt lat="37.193858" lon="-3.441185">
        <ele>981.730998643217</ele>
        <time>2018-07-14T06:18:49.009Z</time>
      </trkpt>
      <trkpt lat="37.193902" lon="-3.441231">
        <ele>980</ele>
        <time>2018-07-14T06:18:51.009Z</time>
      </trkpt>
      <trkpt lat="37.193959" lon="-3.44127">
        <ele>979</ele>
        <time>2018-07-14T06:18:53.009Z</time>
      </trkpt>
      <trkpt lat="37.194017" lon="-3.4413">
        <ele>978</ele>
        <time>2018-07-14T06:18:55.009Z</time>
      </trkpt>
      <trkpt lat="37.19406" lon="-3.44134">
        <ele>977.730998643217</ele>
        <time>2018-07-14T06:18:57.009Z</time>
      </trkpt>
      <trkpt lat="37.1941" lon="-3.441438">
        <ele>977</ele>
        <time>2018-07-14T06:19:00.009Z</time>
      </trkpt>
      <trkpt lat="37.194143" lon="-3.441536">
        <ele>976</ele>
        <time>2018-07-14T06:19:03.009Z</time>
      </trkpt>
      <trkpt lat="37.194174" lon="-3.44165">
        <ele>976</ele>
        <time>2018-07-14T06:19:07.009Z</time>
      </trkpt>
      <trkpt lat="37.194084" lon="-3.441716">
        <ele>975</ele>
        <time>2018-07-14T06:19:11.009Z</time>
      </trkpt>
      <trkpt lat="37.193993" lon="-3.44175">
        <ele>975</ele>
        <time>2018-07-14T06:19:53.009Z</time>
      </trkpt>
      <trkpt lat="37.193945" lon="-3.441872">
        <ele>974</ele>
        <time>2018-07-14T06:19:57.009Z</time>
      </trkpt>
      <trkpt lat="37.193965" lon="-3.441984">
        <ele>973</ele>
        <time>2018-07-14T06:20:00.009Z</time>
      </trkpt>
      <trkpt lat="37.193986" lon="-3.442097">
        <ele>973</ele>
        <time>2018-07-14T06:20:03.009Z</time>
      </trkpt>
      <trkpt lat="37.193998" lon="-3.442177">
        <ele>973</ele>
        <time>2018-07-14T06:20:05.009Z</time>
      </trkpt>
      <trkpt lat="37.194014" lon="-3.442257">
        <ele>972</ele>
        <time>2018-07-14T06:20:07.009Z</time>
      </trkpt>
      <trkpt lat="37.194029" lon="-3.442341">
        <ele>972</ele>
        <time>2018-07-14T06:20:09.009Z</time>
      </trkpt>
      <trkpt lat="37.194047" lon="-3.442423">
        <ele>972</ele>
        <time>2018-07-14T06:20:11.009Z</time>
      </trkpt>
      <trkpt lat="37.19406" lon="-3.442511">
        <ele>971</ele>
        <time>2018-07-14T06:20:13.009Z</time>
      </trkpt>
      <trkpt lat="37.19406" lon="-3.442596">
        <ele>971</ele>
        <time>2018-07-14T06:20:15.009Z</time>
      </trkpt>
      <trkpt lat="37.194053" lon="-3.442682">
        <ele>970</ele>
        <time>2018-07-14T06:20:17.009Z</time>
      </trkpt>
      <trkpt lat="37.194032" lon="-3.442768">
        <ele>971</ele>
        <time>2018-07-14T06:20:19.009Z</time>
      </trkpt>
      <trkpt lat="37.193983" lon="-3.442839">
        <ele>970</ele>
        <time>2018-07-14T06:20:21.009Z</time>
      </trkpt>
      <trkpt lat="37.193921" lon="-3.442863">
        <ele>969</ele>
        <time>2018-07-14T06:20:23.009Z</time>
      </trkpt>
      <trkpt lat="37.193851" lon="-3.442876">
        <ele>969</ele>
        <time>2018-07-14T06:20:25.009Z</time>
      </trkpt>
      <trkpt lat="37.193785" lon="-3.442892">
        <ele>969</ele>
        <time>2018-07-14T06:20:27.009Z</time>
      </trkpt>
      <trkpt lat="37.1937" lon="-3.442898">
        <ele>968</ele>
        <time>2018-07-14T06:20:30.009Z</time>
      </trkpt>
      <trkpt lat="37.193632" lon="-3.44291">
        <ele>968</ele>
        <time>2018-07-14T06:20:32.009Z</time>
      </trkpt>
      <trkpt lat="37.193566" lon="-3.442931">
        <ele>967.731004556858</ele>
        <time>2018-07-14T06:20:34.009Z</time>
      </trkpt>
      <trkpt lat="37.193499" lon="-3.442954">
        <ele>967</ele>
        <time>2018-07-14T06:20:36.009Z</time>
      </trkpt>
      <trkpt lat="37.19343" lon="-3.442977">
        <ele>967</ele>
        <time>2018-07-14T06:20:38.009Z</time>
      </trkpt>
      <trkpt lat="37.193362" lon="-3.443">
        <ele>966</ele>
        <time>2018-07-14T06:20:40.009Z</time>
      </trkpt>
      <trkpt lat="37.193291" lon="-3.443022">
        <ele>966</ele>
        <time>2018-07-14T06:20:42.009Z</time>
      </trkpt>
      <trkpt lat="37.193225" lon="-3.443039">
        <ele>965.731004556858</ele>
        <time>2018-07-14T06:20:44.009Z</time>
      </trkpt>
      <trkpt lat="37.193158" lon="-3.443053">
        <ele>965</ele>
        <time>2018-07-14T06:20:46.009Z</time>
      </trkpt>
      <trkpt lat="37.1931" lon="-3.443075">
        <ele>964.731004556858</ele>
        <time>2018-07-14T06:20:48.009Z</time>
      </trkpt>
      <trkpt lat="37.193046" lon="-3.443151">
        <ele>962.730998643217</ele>
        <time>2018-07-14T06:20:51.009Z</time>
      </trkpt>
      <trkpt lat="37.193112" lon="-3.443234">
        <ele>959.731004556858</ele>
        <time>2018-07-14T06:20:54.009Z</time>
      </trkpt>
      <trkpt lat="37.193162" lon="-3.443288">
        <ele>957.730998643217</ele>
        <time>2018-07-14T06:20:57.009Z</time>
      </trkpt>
      <trkpt lat="37.193211" lon="-3.443329">
        <ele>955</ele>
        <time>2018-07-14T06:21:01.009Z</time>
      </trkpt>
      <trkpt lat="37.193241" lon="-3.443372">
        <ele>954</ele>
        <time>2018-07-14T06:21:04.009Z</time>
      </trkpt>
      <trkpt lat="37.193279" lon="-3.443412">
        <ele>953</ele>
        <time>2018-07-14T06:21:07.009Z</time>
      </trkpt>
      <trkpt lat="37.193309" lon="-3.443451">
        <ele>952</ele>
        <time>2018-07-14T06:21:10.009Z</time>
      </trkpt>
      <trkpt lat="37.193343" lon="-3.443493">
        <ele>951</ele>
        <time>2018-07-14T06:21:13.009Z</time>
      </trkpt>
      <trkpt lat="37.193372" lon="-3.443537">
        <ele>951</ele>
        <time>2018-07-14T06:21:16.009Z</time>
      </trkpt>
      <trkpt lat="37.193399" lon="-3.443586">
        <ele>951.269001356783</ele>
        <time>2018-07-14T06:21:19.009Z</time>
      </trkpt>
      <trkpt lat="37.193418" lon="-3.443635">
        <ele>952</ele>
        <time>2018-07-14T06:21:22.009Z</time>
      </trkpt>
      <trkpt lat="37.193443" lon="-3.443684">
        <ele>952</ele>
        <time>2018-07-14T06:21:25.009Z</time>
      </trkpt>
      <trkpt lat="37.19347" lon="-3.443739">
        <ele>952</ele>
        <time>2018-07-14T06:21:29.009Z</time>
      </trkpt>
      <trkpt lat="37.193483" lon="-3.443791">
        <ele>952</ele>
        <time>2018-07-14T06:21:32.009Z</time>
      </trkpt>
      <trkpt lat="37.193496" lon="-3.443838">
        <ele>951</ele>
        <time>2018-07-14T06:21:35.009Z</time>
      </trkpt>
      <trkpt lat="37.193512" lon="-3.44387">
        <ele>951</ele>
        <time>2018-07-14T06:21:37.009Z</time>
      </trkpt>
      <trkpt lat="37.193534" lon="-3.443914">
        <ele>951.268995443142</ele>
        <time>2018-07-14T06:21:40.009Z</time>
      </trkpt>
      <trkpt lat="37.193554" lon="-3.44396">
        <ele>952.269001356783</ele>
        <time>2018-07-14T06:21:43.009Z</time>
      </trkpt>
      <trkpt lat="37.193562" lon="-3.444001">
        <ele>953.269001356783</ele>
        <time>2018-07-14T06:21:51.009Z</time>
      </trkpt>
      <trkpt lat="37.19358" lon="-3.444047">
        <ele>954</ele>
        <time>2018-07-14T06:21:54.009Z</time>
      </trkpt>
      <trkpt lat="37.193605" lon="-3.444088">
        <ele>954.269001356783</ele>
        <time>2018-07-14T06:21:57.009Z</time>
      </trkpt>
      <trkpt lat="37.193634" lon="-3.444124">
        <ele>955</ele>
        <time>2018-07-14T06:22:00.009Z</time>
      </trkpt>
      <trkpt lat="37.193657" lon="-3.444167">
        <ele>955</ele>
        <time>2018-07-14T06:22:03.009Z</time>
      </trkpt>
      <trkpt lat="37.193676" lon="-3.444211">
        <ele>955</ele>
        <time>2018-07-14T06:22:06.009Z</time>
      </trkpt>
      <trkpt lat="37.193691" lon="-3.444247">
        <ele>955</ele>
        <time>2018-07-14T06:22:08.009Z</time>
      </trkpt>
      <trkpt lat="37.193713" lon="-3.444282">
        <ele>955</ele>
        <time>2018-07-14T06:22:10.009Z</time>
      </trkpt>
      <trkpt lat="37.193745" lon="-3.444329">
        <ele>955</ele>
        <time>2018-07-14T06:22:13.009Z</time>
      </trkpt>
      <trkpt lat="37.193772" lon="-3.44437">
        <ele>955</ele>
        <time>2018-07-14T06:22:16.009Z</time>
      </trkpt>
      <trkpt lat="37.193799" lon="-3.444424">
        <ele>955</ele>
        <time>2018-07-14T06:22:19.009Z</time>
      </trkpt>
      <trkpt lat="37.193821" lon="-3.444455">
        <ele>955</ele>
        <time>2018-07-14T06:22:21.009Z</time>
      </trkpt>
      <trkpt lat="37.193847" lon="-3.444502">
        <ele>955.263719301768</ele>
        <time>2018-07-14T06:22:24.009Z</time>
      </trkpt>
      <trkpt lat="37.193866" lon="-3.444553">
        <ele>956.269001356783</ele>
        <time>2018-07-14T06:22:27.009Z</time>
      </trkpt>
      <trkpt lat="37.193891" lon="-3.444619">
        <ele>957</ele>
        <time>2018-07-14T06:22:30.009Z</time>
      </trkpt>
      <trkpt lat="37.193918" lon="-3.444675">
        <ele>957</ele>
        <time>2018-07-14T06:22:32.009Z</time>
      </trkpt>
      <trkpt lat="37.193955" lon="-3.444739">
        <ele>957</ele>
        <time>2018-07-14T06:22:34.009Z</time>
      </trkpt>
      <trkpt lat="37.193994" lon="-3.444803">
        <ele>957.268995443142</ele>
        <time>2018-07-14T06:22:36.009Z</time>
      </trkpt>
      <trkpt lat="37.194029" lon="-3.444874">
        <ele>958</ele>
        <time>2018-07-14T06:22:38.009Z</time>
      </trkpt>
      <trkpt lat="37.194066" lon="-3.44494">
        <ele>958</ele>
        <time>2018-07-14T06:22:40.009Z</time>
      </trkpt>
      <trkpt lat="37.194096" lon="-3.445005">
        <ele>958</ele>
        <time>2018-07-14T06:22:42.009Z</time>
      </trkpt>
      <trkpt lat="37.194125" lon="-3.445071">
        <ele>957.731004556858</ele>
        <time>2018-07-14T06:22:44.009Z</time>
      </trkpt>
      <trkpt lat="37.194155" lon="-3.445137">
        <ele>957</ele>
        <time>2018-07-14T06:22:46.009Z</time>
      </trkpt>
      <trkpt lat="37.194182" lon="-3.445206">
        <ele>957</ele>
        <time>2018-07-14T06:22:48.009Z</time>
      </trkpt>
      <trkpt lat="37.194211" lon="-3.445274">
        <ele>957</ele>
        <time>2018-07-14T06:22:50.009Z</time>
      </trkpt>
      <trkpt lat="37.194237" lon="-3.445345">
        <ele>957</ele>
        <time>2018-07-14T06:22:52.009Z</time>
      </trkpt>
      <trkpt lat="37.194254" lon="-3.445419">
        <ele>957.731004556858</ele>
        <time>2018-07-14T06:22:54.009Z</time>
      </trkpt>
      <trkpt lat="37.194282" lon="-3.44549">
        <ele>957</ele>
        <time>2018-07-14T06:22:56.009Z</time>
      </trkpt>
      <trkpt lat="37.194326" lon="-3.445547">
        <ele>957</ele>
        <time>2018-07-14T06:22:58.009Z</time>
      </trkpt>
      <trkpt lat="37.194381" lon="-3.445591">
        <ele>957</ele>
        <time>2018-07-14T06:23:00.009Z</time>
      </trkpt>
      <trkpt lat="37.194449" lon="-3.44567">
        <ele>957</ele>
        <time>2018-07-14T06:23:03.009Z</time>
      </trkpt>
      <trkpt lat="37.194498" lon="-3.445764">
        <ele>958</ele>
        <time>2018-07-14T06:23:06.009Z</time>
      </trkpt>
      <trkpt lat="37.19452" lon="-3.445838">
        <ele>958</ele>
        <time>2018-07-14T06:23:08.009Z</time>
      </trkpt>
      <trkpt lat="37.194538" lon="-3.445919">
        <ele>958.268995443142</ele>
        <time>2018-07-14T06:23:10.009Z</time>
      </trkpt>
      <trkpt lat="37.194566" lon="-3.446026">
        <ele>959</ele>
        <time>2018-07-14T06:23:13.009Z</time>
      </trkpt>
      <trkpt lat="37.194588" lon="-3.446136">
        <ele>958</ele>
        <time>2018-07-14T06:23:16.009Z</time>
      </trkpt>
      <trkpt lat="37.194607" lon="-3.446215">
        <ele>958</ele>
        <time>2018-07-14T06:23:18.009Z</time>
      </trkpt>
      <trkpt lat="37.194637" lon="-3.446287">
        <ele>957.731004556858</ele>
        <time>2018-07-14T06:23:20.009Z</time>
      </trkpt>
      <trkpt lat="37.194672" lon="-3.44636">
        <ele>957</ele>
        <time>2018-07-14T06:23:22.009Z</time>
      </trkpt>
      <trkpt lat="37.19469" lon="-3.44644">
        <ele>957</ele>
        <time>2018-07-14T06:23:24.009Z</time>
      </trkpt>
      <trkpt lat="37.194691" lon="-3.446519">
        <ele>957</ele>
        <time>2018-07-14T06:23:26.009Z</time>
      </trkpt>
      <trkpt lat="37.194692" lon="-3.446637">
        <ele>957</ele>
        <time>2018-07-14T06:23:29.009Z</time>
      </trkpt>
      <trkpt lat="37.194683" lon="-3.446754">
        <ele>957</ele>
        <time>2018-07-14T06:23:32.009Z</time>
      </trkpt>
      <trkpt lat="37.194659" lon="-3.446861">
        <ele>954.730998643217</ele>
        <time>2018-07-14T06:23:35.009Z</time>
      </trkpt>
      <trkpt lat="37.194647" lon="-3.446941">
        <ele>954</ele>
        <time>2018-07-14T06:23:37.009Z</time>
      </trkpt>
      <trkpt lat="37.194624" lon="-3.447016">
        <ele>953</ele>
        <time>2018-07-14T06:23:39.009Z</time>
      </trkpt>
      <trkpt lat="37.194609" lon="-3.447095">
        <ele>951.730998643217</ele>
        <time>2018-07-14T06:23:41.009Z</time>
      </trkpt>
      <trkpt lat="37.194606" lon="-3.447175">
        <ele>949.730998643217</ele>
        <time>2018-07-14T06:23:43.009Z</time>
      </trkpt>
      <trkpt lat="37.194603" lon="-3.447253">
        <ele>948.730998643217</ele>
        <time>2018-07-14T06:23:45.009Z</time>
      </trkpt>
      <trkpt lat="37.194611" lon="-3.447322">
        <ele>947</ele>
        <time>2018-07-14T06:23:47.009Z</time>
      </trkpt>
      <trkpt lat="37.194633" lon="-3.447396">
        <ele>945</ele>
        <time>2018-07-14T06:23:49.009Z</time>
      </trkpt>
      <trkpt lat="37.194674" lon="-3.447454">
        <ele>944.730998643217</ele>
        <time>2018-07-14T06:23:51.009Z</time>
      </trkpt>
      <trkpt lat="37.194708" lon="-3.44752">
        <ele>944</ele>
        <time>2018-07-14T06:23:53.009Z</time>
      </trkpt>
      <trkpt lat="37.194734" lon="-3.44759">
        <ele>943.730998643217</ele>
        <time>2018-07-14T06:23:55.009Z</time>
      </trkpt>
      <trkpt lat="37.194743" lon="-3.447656">
        <ele>943</ele>
        <time>2018-07-14T06:23:57.009Z</time>
      </trkpt>
      <trkpt lat="37.19473" lon="-3.447721">
        <ele>941.733661145399</ele>
        <time>2018-07-14T06:23:59.009Z</time>
      </trkpt>
      <trkpt lat="37.194703" lon="-3.447793">
        <ele>940.730998643217</ele>
        <time>2018-07-14T06:24:01.009Z</time>
      </trkpt>
      <trkpt lat="37.194674" lon="-3.447868">
        <ele>940</ele>
        <time>2018-07-14T06:24:03.009Z</time>
      </trkpt>
      <trkpt lat="37.194641" lon="-3.447946">
        <ele>939</ele>
        <time>2018-07-14T06:24:05.009Z</time>
      </trkpt>
      <trkpt lat="37.194613" lon="-3.448024">
        <ele>938</ele>
        <time>2018-07-14T06:24:07.009Z</time>
      </trkpt>
      <trkpt lat="37.194578" lon="-3.448106">
        <ele>938</ele>
        <time>2018-07-14T06:24:09.009Z</time>
      </trkpt>
      <trkpt lat="37.194552" lon="-3.44818">
        <ele>937.937182053891</ele>
        <time>2018-07-14T06:24:11.009Z</time>
      </trkpt>
      <trkpt lat="37.19453" lon="-3.448258">
        <ele>936</ele>
        <time>2018-07-14T06:24:13.009Z</time>
      </trkpt>
      <trkpt lat="37.194521" lon="-3.44834">
        <ele>936</ele>
        <time>2018-07-14T06:24:15.009Z</time>
      </trkpt>
      <trkpt lat="37.194508" lon="-3.448416">
        <ele>935</ele>
        <time>2018-07-14T06:24:17.009Z</time>
      </trkpt>
      <trkpt lat="37.194498" lon="-3.448498">
        <ele>934</ele>
        <time>2018-07-14T06:24:19.009Z</time>
      </trkpt>
      <trkpt lat="37.194501" lon="-3.44858">
        <ele>934</ele>
        <time>2018-07-14T06:24:21.009Z</time>
      </trkpt>
      <trkpt lat="37.194497" lon="-3.448658">
        <ele>933</ele>
        <time>2018-07-14T06:24:23.009Z</time>
      </trkpt>
      <trkpt lat="37.194487" lon="-3.44874">
        <ele>932</ele>
        <time>2018-07-14T06:24:25.009Z</time>
      </trkpt>
      <trkpt lat="37.194474" lon="-3.448816">
        <ele>931</ele>
        <time>2018-07-14T06:24:27.009Z</time>
      </trkpt>
      <trkpt lat="37.194462" lon="-3.44889">
        <ele>931</ele>
        <time>2018-07-14T06:24:29.009Z</time>
      </trkpt>
      <trkpt lat="37.19447" lon="-3.448964">
        <ele>928</ele>
        <time>2018-07-14T06:24:53.009Z</time>
      </trkpt>
      <trkpt lat="37.194475" lon="-3.44904">
        <ele>928</ele>
        <time>2018-07-14T06:24:55.009Z</time>
      </trkpt>
      <trkpt lat="37.194479" lon="-3.449124">
        <ele>928</ele>
        <time>2018-07-14T06:24:57.009Z</time>
      </trkpt>
      <trkpt lat="37.194471" lon="-3.449216">
        <ele>927</ele>
        <time>2018-07-14T06:24:59.009Z</time>
      </trkpt>
      <trkpt lat="37.194458" lon="-3.449308">
        <ele>927</ele>
        <time>2018-07-14T06:25:01.009Z</time>
      </trkpt>
      <trkpt lat="37.194448" lon="-3.449394">
        <ele>926</ele>
        <time>2018-07-14T06:25:03.009Z</time>
      </trkpt>
      <trkpt lat="37.194443" lon="-3.44948">
        <ele>925.730998643217</ele>
        <time>2018-07-14T06:25:05.009Z</time>
      </trkpt>
      <trkpt lat="37.194445" lon="-3.44957">
        <ele>924.730998643217</ele>
        <time>2018-07-14T06:25:07.009Z</time>
      </trkpt>
      <trkpt lat="37.194464" lon="-3.449673">
        <ele>922.730998643217</ele>
        <time>2018-07-14T06:25:09.009Z</time>
      </trkpt>
      <trkpt lat="37.194486" lon="-3.449798">
        <ele>919.730998643217</ele>
        <time>2018-07-14T06:25:11.009Z</time>
      </trkpt>
      <trkpt lat="37.194499" lon="-3.449914">
        <ele>918.730998643217</ele>
        <time>2018-07-14T06:25:13.009Z</time>
      </trkpt>
      <trkpt lat="37.19451" lon="-3.450013">
        <ele>917.730998643217</ele>
        <time>2018-07-14T06:25:15.009Z</time>
      </trkpt>
      <trkpt lat="37.194527" lon="-3.450108">
        <ele>917</ele>
        <time>2018-07-14T06:25:17.009Z</time>
      </trkpt>
      <trkpt lat="37.194545" lon="-3.450205">
        <ele>916.730998643217</ele>
        <time>2018-07-14T06:25:19.009Z</time>
      </trkpt>
      <trkpt lat="37.19456" lon="-3.450291">
        <ele>916</ele>
        <time>2018-07-14T06:25:21.009Z</time>
      </trkpt>
      <trkpt lat="37.194566" lon="-3.450373">
        <ele>915</ele>
        <time>2018-07-14T06:25:23.009Z</time>
      </trkpt>
      <trkpt lat="37.194565" lon="-3.450457">
        <ele>914.730998643217</ele>
        <time>2018-07-14T06:25:25.009Z</time>
      </trkpt>
      <trkpt lat="37.194569" lon="-3.450537">
        <ele>913</ele>
        <time>2018-07-14T06:25:27.009Z</time>
      </trkpt>
      <trkpt lat="37.194553" lon="-3.450611">
        <ele>911.738389532478</ele>
        <time>2018-07-14T06:25:29.009Z</time>
      </trkpt>
      <trkpt lat="37.19453" lon="-3.450688">
        <ele>910.730998643217</ele>
        <time>2018-07-14T06:25:31.009Z</time>
      </trkpt>
      <trkpt lat="37.194513" lon="-3.450765">
        <ele>910</ele>
        <time>2018-07-14T06:25:33.009Z</time>
      </trkpt>
      <trkpt lat="37.1945" lon="-3.450842">
        <ele>909</ele>
        <time>2018-07-14T06:25:35.009Z</time>
      </trkpt>
      <trkpt lat="37.194485" lon="-3.450922">
        <ele>909</ele>
        <time>2018-07-14T06:25:37.009Z</time>
      </trkpt>
      <trkpt lat="37.194479" lon="-3.451">
        <ele>909</ele>
        <time>2018-07-14T06:25:39.009Z</time>
      </trkpt>
      <trkpt lat="37.194481" lon="-3.451083">
        <ele>909</ele>
        <time>2018-07-14T06:25:41.009Z</time>
      </trkpt>
      <trkpt lat="37.194494" lon="-3.451163">
        <ele>909</ele>
        <time>2018-07-14T06:25:43.009Z</time>
      </trkpt>
      <trkpt lat="37.194521" lon="-3.451274">
        <ele>907.731004556858</ele>
        <time>2018-07-14T06:25:46.009Z</time>
      </trkpt>
      <trkpt lat="37.194537" lon="-3.451351">
        <ele>907</ele>
        <time>2018-07-14T06:25:48.009Z</time>
      </trkpt>
      <trkpt lat="37.194552" lon="-3.451465">
        <ele>906</ele>
        <time>2018-07-14T06:25:51.009Z</time>
      </trkpt>
      <trkpt lat="37.194563" lon="-3.451544">
        <ele>906</ele>
        <time>2018-07-14T06:25:53.009Z</time>
      </trkpt>
      <trkpt lat="37.19458" lon="-3.451655">
        <ele>905</ele>
        <time>2018-07-14T06:25:56.009Z</time>
      </trkpt>
      <trkpt lat="37.194574" lon="-3.451763">
        <ele>903.730998643217</ele>
        <time>2018-07-14T06:25:59.009Z</time>
      </trkpt>
      <trkpt lat="37.194545" lon="-3.451832">
        <ele>902.730998643217</ele>
        <time>2018-07-14T06:26:01.009Z</time>
      </trkpt>
      <trkpt lat="37.194507" lon="-3.451899">
        <ele>902</ele>
        <time>2018-07-14T06:26:03.009Z</time>
      </trkpt>
      <trkpt lat="37.194464" lon="-3.451966">
        <ele>900.730998643217</ele>
        <time>2018-07-14T06:26:05.009Z</time>
      </trkpt>
      <trkpt lat="37.194427" lon="-3.452036">
        <ele>899.730998643217</ele>
        <time>2018-07-14T06:26:07.009Z</time>
      </trkpt>
      <trkpt lat="37.194386" lon="-3.452104">
        <ele>898.730998643217</ele>
        <time>2018-07-14T06:26:09.009Z</time>
      </trkpt>
      <trkpt lat="37.194345" lon="-3.452161">
        <ele>898</ele>
        <time>2018-07-14T06:26:11.009Z</time>
      </trkpt>
      <trkpt lat="37.1943" lon="-3.452222">
        <ele>898</ele>
        <time>2018-07-14T06:26:13.009Z</time>
      </trkpt>
      <trkpt lat="37.194265" lon="-3.452293">
        <ele>897</ele>
        <time>2018-07-14T06:26:15.009Z</time>
      </trkpt>
      <trkpt lat="37.194264" lon="-3.452377">
        <ele>895.730998643217</ele>
        <time>2018-07-14T06:26:17.009Z</time>
      </trkpt>
      <trkpt lat="37.194301" lon="-3.452457">
        <ele>893.730998643217</ele>
        <time>2018-07-14T06:26:19.009Z</time>
      </trkpt>
      <trkpt lat="37.194333" lon="-3.452536">
        <ele>891.730998643217</ele>
        <time>2018-07-14T06:26:21.009Z</time>
      </trkpt>
      <trkpt lat="37.194378" lon="-3.452605">
        <ele>890.738389532478</ele>
        <time>2018-07-14T06:26:23.009Z</time>
      </trkpt>
      <trkpt lat="37.194425" lon="-3.452669">
        <ele>889.730998643217</ele>
        <time>2018-07-14T06:26:25.009Z</time>
      </trkpt>
      <trkpt lat="37.194471" lon="-3.452725">
        <ele>889</ele>
        <time>2018-07-14T06:26:27.009Z</time>
      </trkpt>
      <trkpt lat="37.19453" lon="-3.452766">
        <ele>888</ele>
        <time>2018-07-14T06:26:29.009Z</time>
      </trkpt>
      <trkpt lat="37.194587" lon="-3.452792">
        <ele>888</ele>
        <time>2018-07-14T06:26:31.009Z</time>
      </trkpt>
      <trkpt lat="37.194668" lon="-3.45281">
        <ele>888</ele>
        <time>2018-07-14T06:26:34.009Z</time>
      </trkpt>
      <trkpt lat="37.194725" lon="-3.452824">
        <ele>887.731004556858</ele>
        <time>2018-07-14T06:26:36.009Z</time>
      </trkpt>
      <trkpt lat="37.194781" lon="-3.452855">
        <ele>887</ele>
        <time>2018-07-14T06:26:38.009Z</time>
      </trkpt>
      <trkpt lat="37.194859" lon="-3.452904">
        <ele>886</ele>
        <time>2018-07-14T06:26:41.009Z</time>
      </trkpt>
      <trkpt lat="37.194931" lon="-3.452946">
        <ele>886</ele>
        <time>2018-07-14T06:26:44.009Z</time>
      </trkpt>
      <trkpt lat="37.19498" lon="-3.452991">
        <ele>886</ele>
        <time>2018-07-14T06:26:46.009Z</time>
      </trkpt>
      <trkpt lat="37.195037" lon="-3.453027">
        <ele>886</ele>
        <time>2018-07-14T06:26:48.009Z</time>
      </trkpt>
      <trkpt lat="37.195119" lon="-3.453088">
        <ele>886</ele>
        <time>2018-07-14T06:26:51.009Z</time>
      </trkpt>
      <trkpt lat="37.195178" lon="-3.453143">
        <ele>885.730998643217</ele>
        <time>2018-07-14T06:26:53.009Z</time>
      </trkpt>
      <trkpt lat="37.195225" lon="-3.45328">
        <ele>883.730998643217</ele>
        <time>2018-07-14T06:26:57.009Z</time>
      </trkpt>
      <trkpt lat="37.195104" lon="-3.453333">
        <ele>881.731004556858</ele>
        <time>2018-07-14T06:27:00.009Z</time>
      </trkpt>
      <trkpt lat="37.195013" lon="-3.453352">
        <ele>880</ele>
        <time>2018-07-14T06:27:02.009Z</time>
      </trkpt>
      <trkpt lat="37.194937" lon="-3.45335">
        <ele>880</ele>
        <time>2018-07-14T06:27:04.009Z</time>
      </trkpt>
      <trkpt lat="37.194867" lon="-3.453337">
        <ele>880</ele>
        <time>2018-07-14T06:27:06.009Z</time>
      </trkpt>
      <trkpt lat="37.194792" lon="-3.453333">
        <ele>880</ele>
        <time>2018-07-14T06:27:08.009Z</time>
      </trkpt>
      <trkpt lat="37.194723" lon="-3.453346">
        <ele>879.731004556858</ele>
        <time>2018-07-14T06:27:10.009Z</time>
      </trkpt>
      <trkpt lat="37.194654" lon="-3.453361">
        <ele>879</ele>
        <time>2018-07-14T06:27:12.009Z</time>
      </trkpt>
      <trkpt lat="37.194589" lon="-3.453381">
        <ele>879</ele>
        <time>2018-07-14T06:27:14.009Z</time>
      </trkpt>
      <trkpt lat="37.19452" lon="-3.453396">
        <ele>879</ele>
        <time>2018-07-14T06:27:16.009Z</time>
      </trkpt>
      <trkpt lat="37.194447" lon="-3.453404">
        <ele>879</ele>
        <time>2018-07-14T06:27:18.009Z</time>
      </trkpt>
      <trkpt lat="37.194378" lon="-3.453425">
        <ele>879</ele>
        <time>2018-07-14T06:27:20.009Z</time>
      </trkpt>
      <trkpt lat="37.194314" lon="-3.453453">
        <ele>878.731004556858</ele>
        <time>2018-07-14T06:27:22.009Z</time>
      </trkpt>
      <trkpt lat="37.194252" lon="-3.453478">
        <ele>878</ele>
        <time>2018-07-14T06:27:24.009Z</time>
      </trkpt>
      <trkpt lat="37.194197" lon="-3.453514">
        <ele>878</ele>
        <time>2018-07-14T06:27:26.009Z</time>
      </trkpt>
      <trkpt lat="37.194149" lon="-3.453568">
        <ele>877.731004556858</ele>
        <time>2018-07-14T06:27:28.009Z</time>
      </trkpt>
      <trkpt lat="37.194111" lon="-3.453635">
        <ele>877</ele>
        <time>2018-07-14T06:27:30.009Z</time>
      </trkpt>
      <trkpt lat="37.194095" lon="-3.453711">
        <ele>877</ele>
        <time>2018-07-14T06:27:32.009Z</time>
      </trkpt>
      <trkpt lat="37.194089" lon="-3.453831">
        <ele>875.730998643217</ele>
        <time>2018-07-14T06:27:35.009Z</time>
      </trkpt>
      <trkpt lat="37.194088" lon="-3.45395">
        <ele>874</ele>
        <time>2018-07-14T06:27:38.009Z</time>
      </trkpt>
      <trkpt lat="37.194087" lon="-3.454048">
        <ele>872.730998643217</ele>
        <time>2018-07-14T06:27:41.009Z</time>
      </trkpt>
      <trkpt lat="37.194096" lon="-3.454118">
        <ele>870</ele>
        <time>2018-07-14T06:27:44.009Z</time>
      </trkpt>
      <trkpt lat="37.194092" lon="-3.45418">
        <ele>868.730998643217</ele>
        <time>2018-07-14T06:27:47.009Z</time>
      </trkpt>
      <trkpt lat="37.19409" lon="-3.454244">
        <ele>869</ele>
        <time>2018-07-14T06:27:50.009Z</time>
      </trkpt>
      <trkpt lat="37.194095" lon="-3.454303">
        <ele>868</ele>
        <time>2018-07-14T06:27:53.009Z</time>
      </trkpt>
      <trkpt lat="37.194107" lon="-3.454351">
        <ele>867</ele>
        <time>2018-07-14T06:27:56.009Z</time>
      </trkpt>
      <trkpt lat="37.194118" lon="-3.454405">
        <ele>867</ele>
        <time>2018-07-14T06:27:59.009Z</time>
      </trkpt>
      <trkpt lat="37.194127" lon="-3.454458">
        <ele>866</ele>
        <time>2018-07-14T06:28:02.009Z</time>
      </trkpt>
      <trkpt lat="37.194142" lon="-3.454515">
        <ele>864</ele>
        <time>2018-07-14T06:28:05.009Z</time>
      </trkpt>
      <trkpt lat="37.19417" lon="-3.454561">
        <ele>864</ele>
        <time>2018-07-14T06:28:08.009Z</time>
      </trkpt>
      <trkpt lat="37.194199" lon="-3.45459">
        <ele>864</ele>
        <time>2018-07-14T06:28:10.009Z</time>
      </trkpt>
      <trkpt lat="37.194228" lon="-3.454638">
        <ele>864</ele>
        <time>2018-07-14T06:28:13.009Z</time>
      </trkpt>
      <trkpt lat="37.194264" lon="-3.454677">
        <ele>864</ele>
        <time>2018-07-14T06:28:16.009Z</time>
      </trkpt>
      <trkpt lat="37.194304" lon="-3.454716">
        <ele>864</ele>
        <time>2018-07-14T06:28:19.009Z</time>
      </trkpt>
      <trkpt lat="37.194345" lon="-3.45475">
        <ele>864</ele>
        <time>2018-07-14T06:28:22.009Z</time>
      </trkpt>
      <trkpt lat="37.194384" lon="-3.454784">
        <ele>864</ele>
        <time>2018-07-14T06:28:25.009Z</time>
      </trkpt>
      <trkpt lat="37.194428" lon="-3.454817">
        <ele>864</ele>
        <time>2018-07-14T06:28:28.009Z</time>
      </trkpt>
      <trkpt lat="37.194466" lon="-3.454853">
        <ele>864</ele>
        <time>2018-07-14T06:28:31.009Z</time>
      </trkpt>
      <trkpt lat="37.194505" lon="-3.45489">
        <ele>864</ele>
        <time>2018-07-14T06:28:34.009Z</time>
      </trkpt>
      <trkpt lat="37.194529" lon="-3.454915">
        <ele>864</ele>
        <time>2018-07-14T06:28:36.009Z</time>
      </trkpt>
      <trkpt lat="37.194564" lon="-3.454955">
        <ele>864</ele>
        <time>2018-07-14T06:28:39.009Z</time>
      </trkpt>
      <trkpt lat="37.194595" lon="-3.454995">
        <ele>864</ele>
        <time>2018-07-14T06:28:42.009Z</time>
      </trkpt>
      <trkpt lat="37.194626" lon="-3.455041">
        <ele>865</ele>
        <time>2018-07-14T06:28:45.009Z</time>
      </trkpt>
      <trkpt lat="37.194649" lon="-3.455083">
        <ele>865</ele>
        <time>2018-07-14T06:28:48.009Z</time>
      </trkpt>
      <trkpt lat="37.194665" lon="-3.455127">
        <ele>865</ele>
        <time>2018-07-14T06:28:51.009Z</time>
      </trkpt>
      <trkpt lat="37.194685" lon="-3.455178">
        <ele>865</ele>
        <time>2018-07-14T06:28:54.009Z</time>
      </trkpt>
      <trkpt lat="37.194694" lon="-3.45524">
        <ele>865.268995443142</ele>
        <time>2018-07-14T06:28:58.009Z</time>
      </trkpt>
      <trkpt lat="37.194705" lon="-3.455297">
        <ele>865.269001356783</ele>
        <time>2018-07-14T06:29:01.009Z</time>
      </trkpt>
      <trkpt lat="37.19472" lon="-3.455351">
        <ele>866</ele>
        <time>2018-07-14T06:29:04.009Z</time>
      </trkpt>
      <trkpt lat="37.194737" lon="-3.45541">
        <ele>866</ele>
        <time>2018-07-14T06:29:07.009Z</time>
      </trkpt>
      <trkpt lat="37.19476" lon="-3.455481">
        <ele>866</ele>
        <time>2018-07-14T06:29:11.009Z</time>
      </trkpt>
      <trkpt lat="37.194789" lon="-3.455552">
        <ele>867.268995443142</ele>
        <time>2018-07-14T06:29:16.009Z</time>
      </trkpt>
      <trkpt lat="37.194793" lon="-3.455614">
        <ele>869</ele>
        <time>2018-07-14T06:29:20.009Z</time>
      </trkpt>
      <trkpt lat="37.194781" lon="-3.45566">
        <ele>869</ele>
        <time>2018-07-14T06:29:23.009Z</time>
      </trkpt>
      <trkpt lat="37.19477" lon="-3.455716">
        <ele>869</ele>
        <time>2018-07-14T06:29:26.009Z</time>
      </trkpt>
      <trkpt lat="37.194761" lon="-3.455773">
        <ele>869</ele>
        <time>2018-07-14T06:29:29.009Z</time>
      </trkpt>
      <trkpt lat="37.194759" lon="-3.455827">
        <ele>870</ele>
        <time>2018-07-14T06:29:32.009Z</time>
      </trkpt>
      <trkpt lat="37.194755" lon="-3.455882">
        <ele>870.269001356783</ele>
        <time>2018-07-14T06:29:35.009Z</time>
      </trkpt>
      <trkpt lat="37.19475" lon="-3.45593">
        <ele>871</ele>
        <time>2018-07-14T06:29:38.009Z</time>
      </trkpt>
      <trkpt lat="37.194745" lon="-3.455983">
        <ele>870</ele>
        <time>2018-07-14T06:29:41.009Z</time>
      </trkpt>
      <trkpt lat="37.194741" lon="-3.456038">
        <ele>870</ele>
        <time>2018-07-14T06:29:44.009Z</time>
      </trkpt>
      <trkpt lat="37.194735" lon="-3.456092">
        <ele>871</ele>
        <time>2018-07-14T06:29:47.009Z</time>
      </trkpt>
      <trkpt lat="37.194728" lon="-3.45615">
        <ele>872</ele>
        <time>2018-07-14T06:29:50.009Z</time>
      </trkpt>
      <trkpt lat="37.194723" lon="-3.456191">
        <ele>872</ele>
        <time>2018-07-14T06:29:52.009Z</time>
      </trkpt>
      <trkpt lat="37.194719" lon="-3.456248">
        <ele>872</ele>
        <time>2018-07-14T06:29:55.009Z</time>
      </trkpt>
      <trkpt lat="37.194718" lon="-3.456305">
        <ele>872</ele>
        <time>2018-07-14T06:29:58.009Z</time>
      </trkpt>
      <trkpt lat="37.194718" lon="-3.456361">
        <ele>872</ele>
        <time>2018-07-14T06:30:01.009Z</time>
      </trkpt>
      <trkpt lat="37.194722" lon="-3.456421">
        <ele>873</ele>
        <time>2018-07-14T06:30:04.009Z</time>
      </trkpt>
      <trkpt lat="37.194726" lon="-3.456482">
        <ele>873</ele>
        <time>2018-07-14T06:30:07.009Z</time>
      </trkpt>
      <trkpt lat="37.194732" lon="-3.456539">
        <ele>874</ele>
        <time>2018-07-14T06:30:10.009Z</time>
      </trkpt>
      <trkpt lat="37.194738" lon="-3.456596">
        <ele>874</ele>
        <time>2018-07-14T06:30:13.009Z</time>
      </trkpt>
      <trkpt lat="37.194742" lon="-3.456655">
        <ele>875</ele>
        <time>2018-07-14T06:30:16.009Z</time>
      </trkpt>
      <trkpt lat="37.194752" lon="-3.456719">
        <ele>875</ele>
        <time>2018-07-14T06:30:19.009Z</time>
      </trkpt>
      <trkpt lat="37.194752" lon="-3.456778">
        <ele>876</ele>
        <time>2018-07-14T06:30:22.009Z</time>
      </trkpt>
      <trkpt lat="37.194748" lon="-3.45682">
        <ele>876</ele>
        <time>2018-07-14T06:30:24.009Z</time>
      </trkpt>
      <trkpt lat="37.194742" lon="-3.456879">
        <ele>877.261613849993</ele>
        <time>2018-07-14T06:30:26.009Z</time>
      </trkpt>
      <trkpt lat="37.19473" lon="-3.456924">
        <ele>878</ele>
        <time>2018-07-14T06:30:27.009Z</time>
      </trkpt>
      <trkpt lat="37.194722" lon="-3.457004">
        <ele>878.211814269444</ele>
        <time>2018-07-14T06:30:29.009Z</time>
      </trkpt>
      <trkpt lat="37.194718" lon="-3.457092">
        <ele>879</ele>
        <time>2018-07-14T06:30:31.009Z</time>
      </trkpt>
      <trkpt lat="37.194722" lon="-3.457176">
        <ele>878</ele>
        <time>2018-07-14T06:30:33.009Z</time>
      </trkpt>
      <trkpt lat="37.194722" lon="-3.457257">
        <ele>878</ele>
        <time>2018-07-14T06:30:35.009Z</time>
      </trkpt>
      <trkpt lat="37.194716" lon="-3.457337">
        <ele>878</ele>
        <time>2018-07-14T06:30:37.009Z</time>
      </trkpt>
      <trkpt lat="37.1947" lon="-3.457408">
        <ele>878</ele>
        <time>2018-07-14T06:30:39.009Z</time>
      </trkpt>
      <trkpt lat="37.194686" lon="-3.457484">
        <ele>878</ele>
        <time>2018-07-14T06:30:41.009Z</time>
      </trkpt>
      <trkpt lat="37.194684" lon="-3.457563">
        <ele>878</ele>
        <time>2018-07-14T06:30:43.009Z</time>
      </trkpt>
      <trkpt lat="37.194698" lon="-3.457635">
        <ele>878</ele>
        <time>2018-07-14T06:30:45.009Z</time>
      </trkpt>
      <trkpt lat="37.19472" lon="-3.457706">
        <ele>878</ele>
        <time>2018-07-14T06:30:47.009Z</time>
      </trkpt>
      <trkpt lat="37.194758" lon="-3.457784">
        <ele>877</ele>
        <time>2018-07-14T06:30:49.009Z</time>
      </trkpt>
      <trkpt lat="37.194794" lon="-3.45786">
        <ele>877</ele>
        <time>2018-07-14T06:30:51.009Z</time>
      </trkpt>
      <trkpt lat="37.194828" lon="-3.457933">
        <ele>877</ele>
        <time>2018-07-14T06:30:53.009Z</time>
      </trkpt>
      <trkpt lat="37.194846" lon="-3.458011">
        <ele>876</ele>
        <time>2018-07-14T06:30:55.009Z</time>
      </trkpt>
      <trkpt lat="37.194854" lon="-3.458093">
        <ele>877</ele>
        <time>2018-07-14T06:30:57.009Z</time>
      </trkpt>
      <trkpt lat="37.19485" lon="-3.458168">
        <ele>877</ele>
        <time>2018-07-14T06:30:59.009Z</time>
      </trkpt>
      <trkpt lat="37.19484" lon="-3.458246">
        <ele>877</ele>
        <time>2018-07-14T06:31:01.009Z</time>
      </trkpt>
      <trkpt lat="37.194824" lon="-3.45832">
        <ele>877</ele>
        <time>2018-07-14T06:31:03.009Z</time>
      </trkpt>
      <trkpt lat="37.194802" lon="-3.458395">
        <ele>877</ele>
        <time>2018-07-14T06:31:05.009Z</time>
      </trkpt>
      <trkpt lat="37.194773" lon="-3.458465">
        <ele>877</ele>
        <time>2018-07-14T06:31:07.009Z</time>
      </trkpt>
      <trkpt lat="37.194741" lon="-3.458534">
        <ele>877</ele>
        <time>2018-07-14T06:31:09.009Z</time>
      </trkpt>
      <trkpt lat="37.194709" lon="-3.458604">
        <ele>877</ele>
        <time>2018-07-14T06:31:11.009Z</time>
      </trkpt>
      <trkpt lat="37.194678" lon="-3.458676">
        <ele>877</ele>
        <time>2018-07-14T06:31:13.009Z</time>
      </trkpt>
      <trkpt lat="37.194657" lon="-3.458749">
        <ele>877</ele>
        <time>2018-07-14T06:31:15.009Z</time>
      </trkpt>
      <trkpt lat="37.194651" lon="-3.458825">
        <ele>877.269001356783</ele>
        <time>2018-07-14T06:31:17.009Z</time>
      </trkpt>
      <trkpt lat="37.19465" lon="-3.458908">
        <ele>878</ele>
        <time>2018-07-14T06:31:19.009Z</time>
      </trkpt>
      <trkpt lat="37.194647" lon="-3.458985">
        <ele>878</ele>
        <time>2018-07-14T06:31:21.009Z</time>
      </trkpt>
      <trkpt lat="37.194629" lon="-3.459058">
        <ele>877.269001356783</ele>
        <time>2018-07-14T06:31:23.009Z</time>
      </trkpt>
      <trkpt lat="37.194581" lon="-3.459135">
        <ele>878</ele>
        <time>2018-07-14T06:31:26.009Z</time>
      </trkpt>
      <trkpt lat="37.194502" lon="-3.45919">
        <ele>879</ele>
        <time>2018-07-14T06:31:29.009Z</time>
      </trkpt>
      <trkpt lat="37.194449" lon="-3.459227">
        <ele>879</ele>
        <time>2018-07-14T06:31:31.009Z</time>
      </trkpt>
      <trkpt lat="37.194405" lon="-3.459272">
        <ele>880</ele>
        <time>2018-07-14T06:31:33.009Z</time>
      </trkpt>
      <trkpt lat="37.194378" lon="-3.459328">
        <ele>880</ele>
        <time>2018-07-14T06:31:35.009Z</time>
      </trkpt>
      <trkpt lat="37.194359" lon="-3.459387">
        <ele>880</ele>
        <time>2018-07-14T06:31:37.009Z</time>
      </trkpt>
      <trkpt lat="37.194353" lon="-3.459454">
        <ele>880</ele>
        <time>2018-07-14T06:31:39.009Z</time>
      </trkpt>
      <trkpt lat="37.19435" lon="-3.459508">
        <ele>880</ele>
        <time>2018-07-14T06:31:42.009Z</time>
      </trkpt>
      <trkpt lat="37.194353" lon="-3.459557">
        <ele>880</ele>
        <time>2018-07-14T06:31:45.009Z</time>
      </trkpt>
      <trkpt lat="37.194357" lon="-3.459616">
        <ele>880</ele>
        <time>2018-07-14T06:31:48.009Z</time>
      </trkpt>
      <trkpt lat="37.194355" lon="-3.45967">
        <ele>881</ele>
        <time>2018-07-14T06:31:51.009Z</time>
      </trkpt>
      <trkpt lat="37.194359" lon="-3.459722">
        <ele>881</ele>
        <time>2018-07-14T06:31:54.009Z</time>
      </trkpt>
      <trkpt lat="37.194361" lon="-3.45977">
        <ele>881</ele>
        <time>2018-07-14T06:31:57.009Z</time>
      </trkpt>
      <trkpt lat="37.194361" lon="-3.459816">
        <ele>881</ele>
        <time>2018-07-14T06:32:00.009Z</time>
      </trkpt>
      <trkpt lat="37.194361" lon="-3.459862">
        <ele>881</ele>
        <time>2018-07-14T06:32:03.009Z</time>
      </trkpt>
      <trkpt lat="37.194355" lon="-3.459901">
        <ele>881</ele>
        <time>2018-07-14T06:32:06.009Z</time>
      </trkpt>
      <trkpt lat="37.194325" lon="-3.459942">
        <ele>882</ele>
        <time>2018-07-14T06:32:10.009Z</time>
      </trkpt>
      <trkpt lat="37.194286" lon="-3.459967">
        <ele>882</ele>
        <time>2018-07-14T06:32:13.009Z</time>
      </trkpt>
      <trkpt lat="37.19425" lon="-3.46">
        <ele>883</ele>
        <time>2018-07-14T06:32:16.009Z</time>
      </trkpt>
      <trkpt lat="37.194223" lon="-3.460041">
        <ele>883.254078340713</ele>
        <time>2018-07-14T06:32:19.009Z</time>
      </trkpt>
      <trkpt lat="37.194208" lon="-3.460089">
        <ele>884</ele>
        <time>2018-07-14T06:32:22.009Z</time>
      </trkpt>
      <trkpt lat="37.194193" lon="-3.460127">
        <ele>885</ele>
        <time>2018-07-14T06:32:25.009Z</time>
      </trkpt>
      <trkpt lat="37.194178" lon="-3.460167">
        <ele>885</ele>
        <time>2018-07-14T06:32:28.009Z</time>
      </trkpt>
      <trkpt lat="37.194148" lon="-3.460214">
        <ele>886</ele>
        <time>2018-07-14T06:32:32.009Z</time>
      </trkpt>
      <trkpt lat="37.194124" lon="-3.460249">
        <ele>886.269001356783</ele>
        <time>2018-07-14T06:32:35.009Z</time>
      </trkpt>
      <trkpt lat="37.194096" lon="-3.460282">
        <ele>887</ele>
        <time>2018-07-14T06:32:38.009Z</time>
      </trkpt>
      <trkpt lat="37.194072" lon="-3.460323">
        <ele>887</ele>
        <time>2018-07-14T06:32:41.009Z</time>
      </trkpt>
      <trkpt lat="37.194069" lon="-3.460369">
        <ele>886</ele>
        <time>2018-07-14T06:32:44.009Z</time>
      </trkpt>
      <trkpt lat="37.194081" lon="-3.460423">
        <ele>886</ele>
        <time>2018-07-14T06:32:48.009Z</time>
      </trkpt>
      <trkpt lat="37.194098" lon="-3.460477">
        <ele>887</ele>
        <time>2018-07-14T06:32:53.009Z</time>
      </trkpt>
      <trkpt lat="37.194091" lon="-3.46053">
        <ele>887</ele>
        <time>2018-07-14T06:32:57.009Z</time>
      </trkpt>
      <trkpt lat="37.194054" lon="-3.460577">
        <ele>887</ele>
        <time>2018-07-14T06:33:00.009Z</time>
      </trkpt>
      <trkpt lat="37.194023" lon="-3.460622">
        <ele>887</ele>
        <time>2018-07-14T06:33:02.009Z</time>
      </trkpt>
      <trkpt lat="37.193996" lon="-3.460688">
        <ele>887</ele>
        <time>2018-07-14T06:33:04.009Z</time>
      </trkpt>
      <trkpt lat="37.193981" lon="-3.460766">
        <ele>887</ele>
        <time>2018-07-14T06:33:06.009Z</time>
      </trkpt>
      <trkpt lat="37.193974" lon="-3.46085">
        <ele>888</ele>
        <time>2018-07-14T06:33:08.009Z</time>
      </trkpt>
      <trkpt lat="37.193974" lon="-3.460926">
        <ele>888</ele>
        <time>2018-07-14T06:33:10.009Z</time>
      </trkpt>
      <trkpt lat="37.19398" lon="-3.461001">
        <ele>888</ele>
        <time>2018-07-14T06:33:12.009Z</time>
      </trkpt>
      <trkpt lat="37.193985" lon="-3.461081">
        <ele>888</ele>
        <time>2018-07-14T06:33:14.009Z</time>
      </trkpt>
      <trkpt lat="37.193992" lon="-3.461156">
        <ele>888.268995443142</ele>
        <time>2018-07-14T06:33:16.009Z</time>
      </trkpt>
      <trkpt lat="37.194001" lon="-3.461234">
        <ele>889</ele>
        <time>2018-07-14T06:33:18.009Z</time>
      </trkpt>
      <trkpt lat="37.194008" lon="-3.461305">
        <ele>889</ele>
        <time>2018-07-14T06:33:20.009Z</time>
      </trkpt>
      <trkpt lat="37.19402" lon="-3.461381">
        <ele>889.268995443142</ele>
        <time>2018-07-14T06:33:22.009Z</time>
      </trkpt>
      <trkpt lat="37.194031" lon="-3.461459">
        <ele>890</ele>
        <time>2018-07-14T06:33:24.009Z</time>
      </trkpt>
      <trkpt lat="37.19404" lon="-3.461534">
        <ele>890</ele>
        <time>2018-07-14T06:33:26.009Z</time>
      </trkpt>
      <trkpt lat="37.194046" lon="-3.461606">
        <ele>891</ele>
        <time>2018-07-14T06:33:28.009Z</time>
      </trkpt>
      <trkpt lat="37.194049" lon="-3.461679">
        <ele>891</ele>
        <time>2018-07-14T06:33:30.009Z</time>
      </trkpt>
      <trkpt lat="37.19405" lon="-3.461751">
        <ele>891</ele>
        <time>2018-07-14T06:33:32.009Z</time>
      </trkpt>
      <trkpt lat="37.194046" lon="-3.461822">
        <ele>891</ele>
        <time>2018-07-14T06:33:34.009Z</time>
      </trkpt>
      <trkpt lat="37.194025" lon="-3.461914">
        <ele>892</ele>
        <time>2018-07-14T06:33:37.009Z</time>
      </trkpt>
      <trkpt lat="37.193997" lon="-3.461978">
        <ele>892</ele>
        <time>2018-07-14T06:33:39.009Z</time>
      </trkpt>
      <trkpt lat="37.193964" lon="-3.462047">
        <ele>892</ele>
        <time>2018-07-14T06:33:41.009Z</time>
      </trkpt>
      <trkpt lat="37.193937" lon="-3.462124">
        <ele>893</ele>
        <time>2018-07-14T06:33:43.009Z</time>
      </trkpt>
      <trkpt lat="37.193907" lon="-3.462192">
        <ele>893.269001356783</ele>
        <time>2018-07-14T06:33:45.009Z</time>
      </trkpt>
      <trkpt lat="37.193878" lon="-3.462267">
        <ele>893.269001356783</ele>
        <time>2018-07-14T06:33:47.009Z</time>
      </trkpt>
      <trkpt lat="37.193856" lon="-3.462338">
        <ele>894</ele>
        <time>2018-07-14T06:33:49.009Z</time>
      </trkpt>
      <trkpt lat="37.193837" lon="-3.462412">
        <ele>894</ele>
        <time>2018-07-14T06:33:51.009Z</time>
      </trkpt>
      <trkpt lat="37.193818" lon="-3.462488">
        <ele>894</ele>
        <time>2018-07-14T06:33:53.009Z</time>
      </trkpt>
      <trkpt lat="37.193803" lon="-3.462555">
        <ele>894</ele>
        <time>2018-07-14T06:33:55.009Z</time>
      </trkpt>
      <trkpt lat="37.193788" lon="-3.462625">
        <ele>894.269001356783</ele>
        <time>2018-07-14T06:33:57.009Z</time>
      </trkpt>
      <trkpt lat="37.193777" lon="-3.462734">
        <ele>894.268995443142</ele>
        <time>2018-07-14T06:34:00.009Z</time>
      </trkpt>
      <trkpt lat="37.193773" lon="-3.462812">
        <ele>895</ele>
        <time>2018-07-14T06:34:02.009Z</time>
      </trkpt>
      <trkpt lat="37.193765" lon="-3.462886">
        <ele>895</ele>
        <time>2018-07-14T06:34:04.009Z</time>
      </trkpt>
      <trkpt lat="37.193756" lon="-3.462962">
        <ele>895</ele>
        <time>2018-07-14T06:34:06.009Z</time>
      </trkpt>
      <trkpt lat="37.193753" lon="-3.46303">
        <ele>895</ele>
        <time>2018-07-14T06:34:08.009Z</time>
      </trkpt>
      <trkpt lat="37.193751" lon="-3.463132">
        <ele>895</ele>
        <time>2018-07-14T06:34:11.009Z</time>
      </trkpt>
      <trkpt lat="37.193747" lon="-3.463208">
        <ele>895</ele>
        <time>2018-07-14T06:34:13.009Z</time>
      </trkpt>
      <trkpt lat="37.193742" lon="-3.463284">
        <ele>895</ele>
        <time>2018-07-14T06:34:15.009Z</time>
      </trkpt>
      <trkpt lat="37.193743" lon="-3.463366">
        <ele>895</ele>
        <time>2018-07-14T06:34:17.009Z</time>
      </trkpt>
      <trkpt lat="37.193749" lon="-3.463442">
        <ele>895</ele>
        <time>2018-07-14T06:34:19.009Z</time>
      </trkpt>
      <trkpt lat="37.193759" lon="-3.46355">
        <ele>895</ele>
        <time>2018-07-14T06:34:22.009Z</time>
      </trkpt>
      <trkpt lat="37.193803" lon="-3.463646">
        <ele>896</ele>
        <time>2018-07-14T06:34:25.009Z</time>
      </trkpt>
      <trkpt lat="37.193861" lon="-3.463694">
        <ele>896</ele>
        <time>2018-07-14T06:34:27.009Z</time>
      </trkpt>
      <trkpt lat="37.193929" lon="-3.463772">
        <ele>895</ele>
        <time>2018-07-14T06:34:30.009Z</time>
      </trkpt>
      <trkpt lat="37.193988" lon="-3.463862">
        <ele>895</ele>
        <time>2018-07-14T06:34:33.009Z</time>
      </trkpt>
      <trkpt lat="37.194027" lon="-3.463942">
        <ele>895</ele>
        <time>2018-07-14T06:34:36.009Z</time>
      </trkpt>
      <trkpt lat="37.194027" lon="-3.464044">
        <ele>894</ele>
        <time>2018-07-14T06:34:39.009Z</time>
      </trkpt>
      <trkpt lat="37.194006" lon="-3.464134">
        <ele>894</ele>
        <time>2018-07-14T06:34:43.009Z</time>
      </trkpt>
      <trkpt lat="37.194024" lon="-3.464234">
        <ele>891</ele>
        <time>2018-07-14T06:34:50.009Z</time>
      </trkpt>
      <trkpt lat="37.194032" lon="-3.464358">
        <ele>891</ele>
        <time>2018-07-14T06:34:57.009Z</time>
      </trkpt>
      <trkpt lat="37.194005" lon="-3.464496">
        <ele>891.268995443142</ele>
        <time>2018-07-14T06:35:06.009Z</time>
      </trkpt>
      <trkpt lat="37.19402" lon="-3.464582">
        <ele>893.268995443142</ele>
        <time>2018-07-14T06:35:10.009Z</time>
      </trkpt>
      <trkpt lat="37.194002" lon="-3.464659">
        <ele>895</ele>
        <time>2018-07-14T06:35:14.009Z</time>
      </trkpt>
      <trkpt lat="37.193962" lon="-3.464744">
        <ele>894</ele>
        <time>2018-07-14T06:35:21.009Z</time>
      </trkpt>
      <trkpt lat="37.193902" lon="-3.4648">
        <ele>894</ele>
        <time>2018-07-14T06:35:25.009Z</time>
      </trkpt>
      <trkpt lat="37.193842" lon="-3.464848">
        <ele>893</ele>
        <time>2018-07-14T06:35:29.009Z</time>
      </trkpt>
      <trkpt lat="37.193817" lon="-3.464908">
        <ele>893</ele>
        <time>2018-07-14T06:35:32.009Z</time>
      </trkpt>
      <trkpt lat="37.193771" lon="-3.464973">
        <ele>894</ele>
        <time>2018-07-14T06:35:37.009Z</time>
      </trkpt>
      <trkpt lat="37.193732" lon="-3.465016">
        <ele>893</ele>
        <time>2018-07-14T06:35:40.009Z</time>
      </trkpt>
      <trkpt lat="37.193694" lon="-3.465064">
        <ele>893.268995443142</ele>
        <time>2018-07-14T06:35:44.009Z</time>
      </trkpt>
      <trkpt lat="37.193651" lon="-3.465096">
        <ele>894</ele>
        <time>2018-07-14T06:35:47.009Z</time>
      </trkpt>
      <trkpt lat="37.193596" lon="-3.465133">
        <ele>894</ele>
        <time>2018-07-14T06:35:51.009Z</time>
      </trkpt>
      <trkpt lat="37.193528" lon="-3.465164">
        <ele>894</ele>
        <time>2018-07-14T06:35:54.009Z</time>
      </trkpt>
      <trkpt lat="37.193475" lon="-3.465158">
        <ele>894</ele>
        <time>2018-07-14T06:35:56.009Z</time>
      </trkpt>
      <trkpt lat="37.193417" lon="-3.465139">
        <ele>893</ele>
        <time>2018-07-14T06:35:58.009Z</time>
      </trkpt>
      <trkpt lat="37.193356" lon="-3.465135">
        <ele>893</ele>
        <time>2018-07-14T06:36:00.009Z</time>
      </trkpt>
      <trkpt lat="37.193298" lon="-3.465147">
        <ele>893</ele>
        <time>2018-07-14T06:36:02.009Z</time>
      </trkpt>
      <trkpt lat="37.19324" lon="-3.465169">
        <ele>893</ele>
        <time>2018-07-14T06:36:04.009Z</time>
      </trkpt>
      <trkpt lat="37.193158" lon="-3.465202">
        <ele>893</ele>
        <time>2018-07-14T06:36:07.009Z</time>
      </trkpt>
      <trkpt lat="37.193057" lon="-3.465246">
        <ele>892</ele>
        <time>2018-07-14T06:36:11.009Z</time>
      </trkpt>
      <trkpt lat="37.192978" lon="-3.465329">
        <ele>892</ele>
        <time>2018-07-14T06:36:16.009Z</time>
      </trkpt>
      <trkpt lat="37.193" lon="-3.46543">
        <ele>890</ele>
        <time>2018-07-14T06:36:21.009Z</time>
      </trkpt>
      <trkpt lat="37.193008" lon="-3.4655">
        <ele>891</ele>
        <time>2018-07-14T06:36:25.009Z</time>
      </trkpt>
      <trkpt lat="37.193018" lon="-3.465575">
        <ele>889.730998643217</ele>
        <time>2018-07-14T06:36:29.009Z</time>
      </trkpt>
      <trkpt lat="37.193026" lon="-3.465663">
        <ele>890</ele>
        <time>2018-07-14T06:36:32.009Z</time>
      </trkpt>
      <trkpt lat="37.19303" lon="-3.465786">
        <ele>890</ele>
        <time>2018-07-14T06:36:35.009Z</time>
      </trkpt>
      <trkpt lat="37.193017" lon="-3.465922">
        <ele>890</ele>
        <time>2018-07-14T06:36:39.009Z</time>
      </trkpt>
      <trkpt lat="37.193014" lon="-3.466054">
        <ele>890</ele>
        <time>2018-07-14T06:36:43.009Z</time>
      </trkpt>
      <trkpt lat="37.192995" lon="-3.466187">
        <ele>890</ele>
        <time>2018-07-14T06:36:47.009Z</time>
      </trkpt>
      <trkpt lat="37.192967" lon="-3.46633">
        <ele>890</ele>
        <time>2018-07-14T06:36:51.009Z</time>
      </trkpt>
      <trkpt lat="37.192936" lon="-3.466463">
        <ele>889</ele>
        <time>2018-07-14T06:36:55.009Z</time>
      </trkpt>
      <trkpt lat="37.192857" lon="-3.466581">
        <ele>887</ele>
        <time>2018-07-14T06:36:59.009Z</time>
      </trkpt>
      <trkpt lat="37.192774" lon="-3.466624">
        <ele>887.731004556858</ele>
        <time>2018-07-14T06:37:04.009Z</time>
      </trkpt>
      <trkpt lat="37.19266" lon="-3.466606">
        <ele>887.029584092015</ele>
        <time>2018-07-14T06:37:07.009Z</time>
      </trkpt>
      <trkpt lat="37.192588" lon="-3.466612">
        <ele>887.730998643217</ele>
        <time>2018-07-14T06:37:09.009Z</time>
      </trkpt>
      <trkpt lat="37.192529" lon="-3.466657">
        <ele>886.949346349456</ele>
        <time>2018-07-14T06:37:11.009Z</time>
      </trkpt>
      <trkpt lat="37.192497" lon="-3.466728">
        <ele>882.461997286435</ele>
        <time>2018-07-14T06:37:13.009Z</time>
      </trkpt>
      <trkpt lat="37.19248" lon="-3.466831">
        <ele>879.730998643217</ele>
        <time>2018-07-14T06:37:15.009Z</time>
      </trkpt>
      <trkpt lat="37.19247" lon="-3.466913">
        <ele>877.730998643217</ele>
        <time>2018-07-14T06:37:17.009Z</time>
      </trkpt>
      <trkpt lat="37.192481" lon="-3.466788">
        <ele>876</ele>
        <time>2018-07-14T06:37:25.009Z</time>
      </trkpt>
      <trkpt lat="37.192482" lon="-3.466655">
        <ele>876.268995443142</ele>
        <time>2018-07-14T06:37:28.009Z</time>
      </trkpt>
      <trkpt lat="37.192481" lon="-3.46655">
        <ele>876</ele>
        <time>2018-07-14T06:37:31.009Z</time>
      </trkpt>
      <trkpt lat="37.192452" lon="-3.466452">
        <ele>876</ele>
        <time>2018-07-14T06:37:34.009Z</time>
      </trkpt>
      <trkpt lat="37.192424" lon="-3.466327">
        <ele>876</ele>
        <time>2018-07-14T06:37:37.009Z</time>
      </trkpt>
      <trkpt lat="37.19239" lon="-3.466207">
        <ele>876</ele>
        <time>2018-07-14T06:37:40.009Z</time>
      </trkpt>
      <trkpt lat="37.192352" lon="-3.466108">
        <ele>876</ele>
        <time>2018-07-14T06:37:43.009Z</time>
      </trkpt>
      <trkpt lat="37.192265" lon="-3.466081">
        <ele>875</ele>
        <time>2018-07-14T06:37:46.009Z</time>
      </trkpt>
      <trkpt lat="37.19221" lon="-3.466085">
        <ele>875</ele>
        <time>2018-07-14T06:37:48.009Z</time>
      </trkpt>
      <trkpt lat="37.19217" lon="-3.466103">
        <ele>872</ele>
        <time>2018-07-14T06:37:55.009Z</time>
      </trkpt>
      <trkpt lat="37.192151" lon="-3.466145">
        <ele>871</ele>
        <time>2018-07-14T06:37:59.009Z</time>
      </trkpt>
      <trkpt lat="37.192186" lon="-3.466128">
        <ele>867.269001356783</ele>
        <time>2018-07-14T06:40:01.009Z</time>
      </trkpt>
      <trkpt lat="37.192189" lon="-3.46608">
        <ele>867</ele>
        <time>2018-07-14T06:40:42.009Z</time>
      </trkpt>
      <trkpt lat="37.192237" lon="-3.466081">
        <ele>864</ele>
        <time>2018-07-14T06:40:59.009Z</time>
      </trkpt>
      <trkpt lat="37.192286" lon="-3.46607">
        <ele>864</ele>
        <time>2018-07-14T06:41:02.009Z</time>
      </trkpt>
      <trkpt lat="37.19233" lon="-3.465948">
        <ele>865</ele>
        <time>2018-07-14T06:41:13.009Z</time>
      </trkpt>
      <trkpt lat="37.192237" lon="-3.465957">
        <ele>865</ele>
        <time>2018-07-14T06:41:21.009Z</time>
      </trkpt>
      <trkpt lat="37.192175" lon="-3.465964">
        <ele>864.730998643217</ele>
        <time>2018-07-14T06:41:25.009Z</time>
      </trkpt>
      <trkpt lat="37.192133" lon="-3.466006">
        <ele>864</ele>
        <time>2018-07-14T06:41:28.009Z</time>
      </trkpt>
      <trkpt lat="37.19208" lon="-3.46609">
        <ele>864</ele>
        <time>2018-07-14T06:41:31.009Z</time>
      </trkpt>
      <trkpt lat="37.192041" lon="-3.466181">
        <ele>864</ele>
        <time>2018-07-14T06:41:34.009Z</time>
      </trkpt>
      <trkpt lat="37.19201" lon="-3.466284">
        <ele>864</ele>
        <time>2018-07-14T06:41:37.009Z</time>
      </trkpt>
      <trkpt lat="37.191942" lon="-3.46635">
        <ele>864</ele>
        <time>2018-07-14T06:41:39.009Z</time>
      </trkpt>
      <trkpt lat="37.191883" lon="-3.466399">
        <ele>864</ele>
        <time>2018-07-14T06:41:41.009Z</time>
      </trkpt>
      <trkpt lat="37.191816" lon="-3.466441">
        <ele>864</ele>
        <time>2018-07-14T06:41:43.009Z</time>
      </trkpt>
      <trkpt lat="37.191753" lon="-3.466475">
        <ele>864</ele>
        <time>2018-07-14T06:41:45.009Z</time>
      </trkpt>
      <trkpt lat="37.191722" lon="-3.466491">
        <ele>864</ele>
        <time>2018-07-14T06:41:46.009Z</time>
      </trkpt>
      <trkpt lat="37.19169" lon="-3.466504">
        <ele>864</ele>
        <time>2018-07-14T06:41:47.009Z</time>
      </trkpt>
      <trkpt lat="37.191629" lon="-3.466534">
        <ele>863.730998643217</ele>
        <time>2018-07-14T06:41:49.009Z</time>
      </trkpt>
      <trkpt lat="37.191569" lon="-3.466564">
        <ele>861.461997286435</ele>
        <time>2018-07-14T06:41:51.009Z</time>
      </trkpt>
      <trkpt lat="37.191532" lon="-3.466617">
        <ele>857.730998643217</ele>
        <time>2018-07-14T06:41:53.009Z</time>
      </trkpt>
      <trkpt lat="37.191505" lon="-3.466692">
        <ele>854.730998643217</ele>
        <time>2018-07-14T06:41:55.009Z</time>
      </trkpt>
      <trkpt lat="37.191488" lon="-3.466775">
        <ele>854</ele>
        <time>2018-07-14T06:41:57.009Z</time>
      </trkpt>
      <trkpt lat="37.191476" lon="-3.466855">
        <ele>853</ele>
        <time>2018-07-14T06:41:59.009Z</time>
      </trkpt>
      <trkpt lat="37.19147" lon="-3.466933">
        <ele>852</ele>
        <time>2018-07-14T06:42:01.009Z</time>
      </trkpt>
      <trkpt lat="37.191467" lon="-3.46701">
        <ele>852</ele>
        <time>2018-07-14T06:42:03.009Z</time>
      </trkpt>
      <trkpt lat="37.191438" lon="-3.467068">
        <ele>852</ele>
        <time>2018-07-14T06:42:05.009Z</time>
      </trkpt>
      <trkpt lat="37.191363" lon="-3.46702">
        <ele>851.266329556688</ele>
        <time>2018-07-14T06:42:08.009Z</time>
      </trkpt>
      <trkpt lat="37.191337" lon="-3.466968">
        <ele>851.738389532478</ele>
        <time>2018-07-14T06:42:09.009Z</time>
      </trkpt>
      <trkpt lat="37.191311" lon="-3.466924">
        <ele>851</ele>
        <time>2018-07-14T06:42:10.009Z</time>
      </trkpt>
      <trkpt lat="37.191268" lon="-3.466857">
        <ele>851</ele>
        <time>2018-07-14T06:42:12.009Z</time>
      </trkpt>
      <trkpt lat="37.191209" lon="-3.466809">
        <ele>850.268995443142</ele>
        <time>2018-07-14T06:42:14.009Z</time>
      </trkpt>
      <trkpt lat="37.191129" lon="-3.466785">
        <ele>850</ele>
        <time>2018-07-14T06:42:16.009Z</time>
      </trkpt>
      <trkpt lat="37.191056" lon="-3.46677">
        <ele>850</ele>
        <time>2018-07-14T06:42:18.009Z</time>
      </trkpt>
      <trkpt lat="37.190995" lon="-3.466758">
        <ele>850</ele>
        <time>2018-07-14T06:42:20.009Z</time>
      </trkpt>
      <trkpt lat="37.19093" lon="-3.466736">
        <ele>850</ele>
        <time>2018-07-14T06:42:22.009Z</time>
      </trkpt>
      <trkpt lat="37.190871" lon="-3.466715">
        <ele>849.731004556858</ele>
        <time>2018-07-14T06:42:24.009Z</time>
      </trkpt>
      <trkpt lat="37.190821" lon="-3.466682">
        <ele>848.731004556858</ele>
        <time>2018-07-14T06:42:26.009Z</time>
      </trkpt>
      <trkpt lat="37.190788" lon="-3.466595">
        <ele>845.730998643217</ele>
        <time>2018-07-14T06:42:29.009Z</time>
      </trkpt>
      <trkpt lat="37.190794" lon="-3.46652">
        <ele>844</ele>
        <time>2018-07-14T06:42:31.009Z</time>
      </trkpt>
      <trkpt lat="37.190812" lon="-3.46645">
        <ele>843</ele>
        <time>2018-07-14T06:42:33.009Z</time>
      </trkpt>
      <trkpt lat="37.190832" lon="-3.466348">
        <ele>841.268995443142</ele>
        <time>2018-07-14T06:42:36.009Z</time>
      </trkpt>
      <trkpt lat="37.190863" lon="-3.466239">
        <ele>841</ele>
        <time>2018-07-14T06:42:39.009Z</time>
      </trkpt>
      <trkpt lat="37.190871" lon="-3.466168">
        <ele>840</ele>
        <time>2018-07-14T06:42:41.009Z</time>
      </trkpt>
      <trkpt lat="37.19087" lon="-3.466099">
        <ele>840</ele>
        <time>2018-07-14T06:42:43.009Z</time>
      </trkpt>
      <trkpt lat="37.190855" lon="-3.466044">
        <ele>840</ele>
        <time>2018-07-14T06:42:45.009Z</time>
      </trkpt>
      <trkpt lat="37.190843" lon="-3.465987">
        <ele>839</ele>
        <time>2018-07-14T06:42:47.009Z</time>
      </trkpt>
      <trkpt lat="37.190833" lon="-3.465915">
        <ele>839</ele>
        <time>2018-07-14T06:42:49.009Z</time>
      </trkpt>
      <trkpt lat="37.190827" lon="-3.465839">
        <ele>839</ele>
        <time>2018-07-14T06:42:51.009Z</time>
      </trkpt>
      <trkpt lat="37.190809" lon="-3.465767">
        <ele>839</ele>
        <time>2018-07-14T06:42:53.009Z</time>
      </trkpt>
      <trkpt lat="37.190796" lon="-3.4657">
        <ele>838.730998643217</ele>
        <time>2018-07-14T06:42:55.009Z</time>
      </trkpt>
      <trkpt lat="37.190782" lon="-3.465631">
        <ele>838</ele>
        <time>2018-07-14T06:42:57.009Z</time>
      </trkpt>
      <trkpt lat="37.190765" lon="-3.465565">
        <ele>838</ele>
        <time>2018-07-14T06:42:59.009Z</time>
      </trkpt>
      <trkpt lat="37.190754" lon="-3.4655">
        <ele>837.269001356783</ele>
        <time>2018-07-14T06:43:01.009Z</time>
      </trkpt>
      <trkpt lat="37.190752" lon="-3.465427">
        <ele>838</ele>
        <time>2018-07-14T06:43:03.009Z</time>
      </trkpt>
      <trkpt lat="37.190755" lon="-3.465362">
        <ele>838</ele>
        <time>2018-07-14T06:43:05.009Z</time>
      </trkpt>
      <trkpt lat="37.190765" lon="-3.465298">
        <ele>838</ele>
        <time>2018-07-14T06:43:07.009Z</time>
      </trkpt>
      <trkpt lat="37.190782" lon="-3.465237">
        <ele>838</ele>
        <time>2018-07-14T06:43:09.009Z</time>
      </trkpt>
      <trkpt lat="37.190808" lon="-3.46518">
        <ele>838</ele>
        <time>2018-07-14T06:43:11.009Z</time>
      </trkpt>
      <trkpt lat="37.190833" lon="-3.465127">
        <ele>838</ele>
        <time>2018-07-14T06:43:13.009Z</time>
      </trkpt>
      <trkpt lat="37.190863" lon="-3.465074">
        <ele>838</ele>
        <time>2018-07-14T06:43:15.009Z</time>
      </trkpt>
      <trkpt lat="37.190892" lon="-3.465021">
        <ele>837</ele>
        <time>2018-07-14T06:43:17.009Z</time>
      </trkpt>
      <trkpt lat="37.190921" lon="-3.464976">
        <ele>838</ele>
        <time>2018-07-14T06:43:20.009Z</time>
      </trkpt>
      <trkpt lat="37.190938" lon="-3.464931">
        <ele>838</ele>
        <time>2018-07-14T06:43:24.009Z</time>
      </trkpt>
      <trkpt lat="37.19097" lon="-3.464881">
        <ele>838</ele>
        <time>2018-07-14T06:43:26.009Z</time>
      </trkpt>
      <trkpt lat="37.191001" lon="-3.464827">
        <ele>837</ele>
        <time>2018-07-14T06:43:28.009Z</time>
      </trkpt>
      <trkpt lat="37.19103" lon="-3.46477">
        <ele>837</ele>
        <time>2018-07-14T06:43:30.009Z</time>
      </trkpt>
      <trkpt lat="37.191068" lon="-3.464714">
        <ele>837</ele>
        <time>2018-07-14T06:43:32.009Z</time>
      </trkpt>
      <trkpt lat="37.191101" lon="-3.464666">
        <ele>837.268995443142</ele>
        <time>2018-07-14T06:43:34.009Z</time>
      </trkpt>
      <trkpt lat="37.191143" lon="-3.464618">
        <ele>838</ele>
        <time>2018-07-14T06:43:36.009Z</time>
      </trkpt>
      <trkpt lat="37.191186" lon="-3.464571">
        <ele>838</ele>
        <time>2018-07-14T06:43:38.009Z</time>
      </trkpt>
      <trkpt lat="37.191236" lon="-3.464535">
        <ele>838.268995443142</ele>
        <time>2018-07-14T06:43:40.009Z</time>
      </trkpt>
      <trkpt lat="37.191281" lon="-3.4645">
        <ele>839</ele>
        <time>2018-07-14T06:43:42.009Z</time>
      </trkpt>
      <trkpt lat="37.191345" lon="-3.464444">
        <ele>840</ele>
        <time>2018-07-14T06:43:45.009Z</time>
      </trkpt>
      <trkpt lat="37.1914" lon="-3.464403">
        <ele>840</ele>
        <time>2018-07-14T06:43:48.009Z</time>
      </trkpt>
      <trkpt lat="37.191456" lon="-3.464349">
        <ele>840</ele>
        <time>2018-07-14T06:43:51.009Z</time>
      </trkpt>
      <trkpt lat="37.191497" lon="-3.464309">
        <ele>840</ele>
        <time>2018-07-14T06:43:53.009Z</time>
      </trkpt>
      <trkpt lat="37.19154" lon="-3.46423">
        <ele>840</ele>
        <time>2018-07-14T06:43:56.009Z</time>
      </trkpt>
      <trkpt lat="37.191561" lon="-3.464162">
        <ele>839.268995443142</ele>
        <time>2018-07-14T06:43:58.009Z</time>
      </trkpt>
      <trkpt lat="37.191581" lon="-3.464101">
        <ele>840</ele>
        <time>2018-07-14T06:44:00.009Z</time>
      </trkpt>
      <trkpt lat="37.191602" lon="-3.464039">
        <ele>839</ele>
        <time>2018-07-14T06:44:02.009Z</time>
      </trkpt>
      <trkpt lat="37.191624" lon="-3.463979">
        <ele>840</ele>
        <time>2018-07-14T06:44:04.009Z</time>
      </trkpt>
      <trkpt lat="37.191652" lon="-3.463895">
        <ele>840</ele>
        <time>2018-07-14T06:44:07.009Z</time>
      </trkpt>
      <trkpt lat="37.191684" lon="-3.463814">
        <ele>840</ele>
        <time>2018-07-14T06:44:10.009Z</time>
      </trkpt>
      <trkpt lat="37.191716" lon="-3.463728">
        <ele>840</ele>
        <time>2018-07-14T06:44:13.009Z</time>
      </trkpt>
      <trkpt lat="37.191739" lon="-3.463666">
        <ele>840</ele>
        <time>2018-07-14T06:44:15.009Z</time>
      </trkpt>
      <trkpt lat="37.191757" lon="-3.463599">
        <ele>841</ele>
        <time>2018-07-14T06:44:17.009Z</time>
      </trkpt>
      <trkpt lat="37.191784" lon="-3.463509">
        <ele>841</ele>
        <time>2018-07-14T06:44:20.009Z</time>
      </trkpt>
      <trkpt lat="37.191807" lon="-3.463409">
        <ele>841</ele>
        <time>2018-07-14T06:44:23.009Z</time>
      </trkpt>
      <trkpt lat="37.191825" lon="-3.463314">
        <ele>841</ele>
        <time>2018-07-14T06:44:26.009Z</time>
      </trkpt>
      <trkpt lat="37.191853" lon="-3.463227">
        <ele>841</ele>
        <time>2018-07-14T06:44:29.009Z</time>
      </trkpt>
      <trkpt lat="37.191869" lon="-3.463141">
        <ele>841</ele>
        <time>2018-07-14T06:44:32.009Z</time>
      </trkpt>
      <trkpt lat="37.191886" lon="-3.463049">
        <ele>840</ele>
        <time>2018-07-14T06:44:35.009Z</time>
      </trkpt>
      <trkpt lat="37.191898" lon="-3.462949">
        <ele>841</ele>
        <time>2018-07-14T06:44:38.009Z</time>
      </trkpt>
      <trkpt lat="37.191916" lon="-3.462848">
        <ele>841</ele>
        <time>2018-07-14T06:44:41.009Z</time>
      </trkpt>
      <trkpt lat="37.191921" lon="-3.462747">
        <ele>841</ele>
        <time>2018-07-14T06:44:44.009Z</time>
      </trkpt>
      <trkpt lat="37.19193" lon="-3.462644">
        <ele>841</ele>
        <time>2018-07-14T06:44:47.009Z</time>
      </trkpt>
      <trkpt lat="37.191938" lon="-3.462575">
        <ele>841</ele>
        <time>2018-07-14T06:44:49.009Z</time>
      </trkpt>
      <trkpt lat="37.191941" lon="-3.462504">
        <ele>841</ele>
        <time>2018-07-14T06:44:51.009Z</time>
      </trkpt>
      <trkpt lat="37.191945" lon="-3.462433">
        <ele>841</ele>
        <time>2018-07-14T06:44:53.009Z</time>
      </trkpt>
      <trkpt lat="37.191942" lon="-3.462369">
        <ele>841</ele>
        <time>2018-07-14T06:44:55.009Z</time>
      </trkpt>
      <trkpt lat="37.191942" lon="-3.462306">
        <ele>841</ele>
        <time>2018-07-14T06:44:57.009Z</time>
      </trkpt>
      <trkpt lat="37.191935" lon="-3.462243">
        <ele>841</ele>
        <time>2018-07-14T06:44:59.009Z</time>
      </trkpt>
      <trkpt lat="37.191938" lon="-3.462174">
        <ele>842</ele>
        <time>2018-07-14T06:45:01.009Z</time>
      </trkpt>
      <trkpt lat="37.191936" lon="-3.462116">
        <ele>842</ele>
        <time>2018-07-14T06:45:03.009Z</time>
      </trkpt>
      <trkpt lat="37.191933" lon="-3.462056">
        <ele>842</ele>
        <time>2018-07-14T06:45:05.009Z</time>
      </trkpt>
      <trkpt lat="37.191932" lon="-3.461978">
        <ele>842</ele>
        <time>2018-07-14T06:45:08.009Z</time>
      </trkpt>
      <trkpt lat="37.191923" lon="-3.461915">
        <ele>841</ele>
        <time>2018-07-14T06:45:11.009Z</time>
      </trkpt>
      <trkpt lat="37.191921" lon="-3.461865">
        <ele>841</ele>
        <time>2018-07-14T06:45:14.009Z</time>
      </trkpt>
      <trkpt lat="37.191916" lon="-3.461805">
        <ele>841</ele>
        <time>2018-07-14T06:45:17.009Z</time>
      </trkpt>
      <trkpt lat="37.191913" lon="-3.461745">
        <ele>841</ele>
        <time>2018-07-14T06:45:20.009Z</time>
      </trkpt>
      <trkpt lat="37.191913" lon="-3.461705">
        <ele>841</ele>
        <time>2018-07-14T06:45:22.009Z</time>
      </trkpt>
      <trkpt lat="37.191921" lon="-3.46166">
        <ele>841</ele>
        <time>2018-07-14T06:45:25.009Z</time>
      </trkpt>
      <trkpt lat="37.191931" lon="-3.46162">
        <ele>841</ele>
        <time>2018-07-14T06:45:27.009Z</time>
      </trkpt>
      <trkpt lat="37.191947" lon="-3.461576">
        <ele>841</ele>
        <time>2018-07-14T06:45:29.009Z</time>
      </trkpt>
      <trkpt lat="37.191956" lon="-3.46152">
        <ele>841</ele>
        <time>2018-07-14T06:45:32.009Z</time>
      </trkpt>
      <trkpt lat="37.191979" lon="-3.461464">
        <ele>841.269001356783</ele>
        <time>2018-07-14T06:45:35.009Z</time>
      </trkpt>
      <trkpt lat="37.191996" lon="-3.461426">
        <ele>842</ele>
        <time>2018-07-14T06:45:37.009Z</time>
      </trkpt>
      <trkpt lat="37.19201" lon="-3.461373">
        <ele>842</ele>
        <time>2018-07-14T06:45:40.009Z</time>
      </trkpt>
      <trkpt lat="37.192025" lon="-3.461326">
        <ele>842</ele>
        <time>2018-07-14T06:45:42.009Z</time>
      </trkpt>
      <trkpt lat="37.192039" lon="-3.461265">
        <ele>842</ele>
        <time>2018-07-14T06:45:45.009Z</time>
      </trkpt>
      <trkpt lat="37.192021" lon="-3.461215">
        <ele>841.731004556858</ele>
        <time>2018-07-14T06:45:48.009Z</time>
      </trkpt>
      <trkpt lat="37.191983" lon="-3.46118">
        <ele>841</ele>
        <time>2018-07-14T06:45:51.009Z</time>
      </trkpt>
      <trkpt lat="37.191935" lon="-3.461122">
        <ele>841</ele>
        <time>2018-07-14T06:45:56.009Z</time>
      </trkpt>
      <trkpt lat="37.191882" lon="-3.4611">
        <ele>841</ele>
        <time>2018-07-14T06:46:01.009Z</time>
      </trkpt>
      <trkpt lat="37.191837" lon="-3.461046">
        <ele>841</ele>
        <time>2018-07-14T06:46:07.009Z</time>
      </trkpt>
      <trkpt lat="37.191762" lon="-3.460994">
        <ele>841.269001356783</ele>
        <time>2018-07-14T06:46:17.009Z</time>
      </trkpt>
      <trkpt lat="37.191685" lon="-3.460951">
        <ele>842</ele>
        <time>2018-07-14T06:46:26.009Z</time>
      </trkpt>
      <trkpt lat="37.191619" lon="-3.460882">
        <ele>843</ele>
        <time>2018-07-14T06:46:36.009Z</time>
      </trkpt>
      <trkpt lat="37.1916" lon="-3.460792">
        <ele>843.269001356783</ele>
        <time>2018-07-14T06:46:45.009Z</time>
      </trkpt>
      <trkpt lat="37.191628" lon="-3.460736">
        <ele>847</ele>
        <time>2018-07-14T06:46:58.009Z</time>
      </trkpt>
      <trkpt lat="37.191681" lon="-3.460737">
        <ele>850</ele>
        <time>2018-07-14T06:47:07.009Z</time>
      </trkpt>
      <trkpt lat="37.191732" lon="-3.460755">
        <ele>851</ele>
        <time>2018-07-14T06:47:12.009Z</time>
      </trkpt>
      <trkpt lat="37.191711" lon="-3.460697">
        <ele>852</ele>
        <time>2018-07-14T06:47:20.009Z</time>
      </trkpt>
      <trkpt lat="37.191703" lon="-3.460645">
        <ele>853.268995443142</ele>
        <time>2018-07-14T06:47:26.009Z</time>
      </trkpt>
      <trkpt lat="37.191742" lon="-3.460606">
        <ele>856</ele>
        <time>2018-07-14T06:47:33.009Z</time>
      </trkpt>
      <trkpt lat="37.191766" lon="-3.460569">
        <ele>857</ele>
        <time>2018-07-14T06:47:36.009Z</time>
      </trkpt>
      <trkpt lat="37.191786" lon="-3.460524">
        <ele>857.269001356783</ele>
        <time>2018-07-14T06:47:39.009Z</time>
      </trkpt>
      <trkpt lat="37.19181" lon="-3.460485">
        <ele>858</ele>
        <time>2018-07-14T06:47:42.009Z</time>
      </trkpt>
      <trkpt lat="37.191833" lon="-3.460439">
        <ele>859</ele>
        <time>2018-07-14T06:47:46.009Z</time>
      </trkpt>
      <trkpt lat="37.191865" lon="-3.4604">
        <ele>859</ele>
        <time>2018-07-14T06:47:50.009Z</time>
      </trkpt>
      <trkpt lat="37.191886" lon="-3.460351">
        <ele>860</ele>
        <time>2018-07-14T06:47:54.009Z</time>
      </trkpt>
      <trkpt lat="37.191905" lon="-3.460297">
        <ele>860.268995443142</ele>
        <time>2018-07-14T06:47:58.009Z</time>
      </trkpt>
      <trkpt lat="37.1919" lon="-3.46025">
        <ele>861</ele>
        <time>2018-07-14T06:48:02.009Z</time>
      </trkpt>
      <trkpt lat="37.191894" lon="-3.460206">
        <ele>862</ele>
        <time>2018-07-14T06:48:06.009Z</time>
      </trkpt>
      <trkpt lat="37.191883" lon="-3.460163">
        <ele>863</ele>
        <time>2018-07-14T06:48:10.009Z</time>
      </trkpt>
      <trkpt lat="37.191864" lon="-3.460133">
        <ele>863</ele>
        <time>2018-07-14T06:48:14.009Z</time>
      </trkpt>
      <trkpt lat="37.191844" lon="-3.460092">
        <ele>864</ele>
        <time>2018-07-14T06:48:17.009Z</time>
      </trkpt>
      <trkpt lat="37.191822" lon="-3.460062">
        <ele>864</ele>
        <time>2018-07-14T06:48:20.009Z</time>
      </trkpt>
      <trkpt lat="37.191779" lon="-3.460019">
        <ele>865</ele>
        <time>2018-07-14T06:48:25.009Z</time>
      </trkpt>
      <trkpt lat="37.191756" lon="-3.459984">
        <ele>866</ele>
        <time>2018-07-14T06:48:29.009Z</time>
      </trkpt>
      <trkpt lat="37.19174" lon="-3.459948">
        <ele>866.268995443142</ele>
        <time>2018-07-14T06:48:32.009Z</time>
      </trkpt>
      <trkpt lat="37.191716" lon="-3.45992">
        <ele>867</ele>
        <time>2018-07-14T06:48:35.009Z</time>
      </trkpt>
      <trkpt lat="37.191686" lon="-3.459901">
        <ele>867</ele>
        <time>2018-07-14T06:48:39.009Z</time>
      </trkpt>
      <trkpt lat="37.191659" lon="-3.459879">
        <ele>868</ele>
        <time>2018-07-14T06:48:43.009Z</time>
      </trkpt>
      <trkpt lat="37.191633" lon="-3.459842">
        <ele>869</ele>
        <time>2018-07-14T06:48:47.009Z</time>
      </trkpt>
      <trkpt lat="37.191598" lon="-3.459813">
        <ele>869</ele>
        <time>2018-07-14T06:48:51.009Z</time>
      </trkpt>
      <trkpt lat="37.191552" lon="-3.459797">
        <ele>870</ele>
        <time>2018-07-14T06:48:56.009Z</time>
      </trkpt>
      <trkpt lat="37.191518" lon="-3.459768">
        <ele>870</ele>
        <time>2018-07-14T06:49:01.009Z</time>
      </trkpt>
      <trkpt lat="37.19148" lon="-3.459735">
        <ele>871</ele>
        <time>2018-07-14T06:49:07.009Z</time>
      </trkpt>
      <trkpt lat="37.191446" lon="-3.459701">
        <ele>872</ele>
        <time>2018-07-14T06:49:13.009Z</time>
      </trkpt>
      <trkpt lat="37.191414" lon="-3.459678">
        <ele>873</ele>
        <time>2018-07-14T06:49:17.009Z</time>
      </trkpt>
      <trkpt lat="37.191384" lon="-3.459653">
        <ele>874</ele>
        <time>2018-07-14T06:49:22.009Z</time>
      </trkpt>
      <trkpt lat="37.191353" lon="-3.459638">
        <ele>875.268995443142</ele>
        <time>2018-07-14T06:49:26.009Z</time>
      </trkpt>
      <trkpt lat="37.191326" lon="-3.459597">
        <ele>877</ele>
        <time>2018-07-14T06:49:30.009Z</time>
      </trkpt>
      <trkpt lat="37.191295" lon="-3.459568">
        <ele>878</ele>
        <time>2018-07-14T06:49:35.009Z</time>
      </trkpt>
      <trkpt lat="37.191257" lon="-3.459564">
        <ele>879</ele>
        <time>2018-07-14T06:49:40.009Z</time>
      </trkpt>
      <trkpt lat="37.191225" lon="-3.459539">
        <ele>880</ele>
        <time>2018-07-14T06:49:45.009Z</time>
      </trkpt>
      <trkpt lat="37.191196" lon="-3.4595">
        <ele>881</ele>
        <time>2018-07-14T06:49:50.009Z</time>
      </trkpt>
      <trkpt lat="37.191173" lon="-3.45946">
        <ele>882.268995443142</ele>
        <time>2018-07-14T06:49:54.009Z</time>
      </trkpt>
      <trkpt lat="37.191151" lon="-3.459428">
        <ele>884.269001356783</ele>
        <time>2018-07-14T06:49:57.009Z</time>
      </trkpt>
      <trkpt lat="37.191128" lon="-3.459398">
        <ele>886</ele>
        <time>2018-07-14T06:50:00.009Z</time>
      </trkpt>
      <trkpt lat="37.191102" lon="-3.459374">
        <ele>887</ele>
        <time>2018-07-14T06:50:03.009Z</time>
      </trkpt>
      <trkpt lat="37.191073" lon="-3.45935">
        <ele>887.268995443142</ele>
        <time>2018-07-14T06:50:06.009Z</time>
      </trkpt>
      <trkpt lat="37.19104" lon="-3.459334">
        <ele>889</ele>
        <time>2018-07-14T06:50:09.009Z</time>
      </trkpt>
      <trkpt lat="37.191015" lon="-3.459311">
        <ele>889</ele>
        <time>2018-07-14T06:50:12.009Z</time>
      </trkpt>
      <trkpt lat="37.190989" lon="-3.459288">
        <ele>889</ele>
        <time>2018-07-14T06:50:15.009Z</time>
      </trkpt>
      <trkpt lat="37.190958" lon="-3.459272">
        <ele>889</ele>
        <time>2018-07-14T06:50:19.009Z</time>
      </trkpt>
      <trkpt lat="37.190932" lon="-3.459236">
        <ele>889</ele>
        <time>2018-07-14T06:50:22.009Z</time>
      </trkpt>
      <trkpt lat="37.190909" lon="-3.4592">
        <ele>890</ele>
        <time>2018-07-14T06:50:25.009Z</time>
      </trkpt>
      <trkpt lat="37.190888" lon="-3.45916">
        <ele>890</ele>
        <time>2018-07-14T06:50:28.009Z</time>
      </trkpt>
      <trkpt lat="37.190869" lon="-3.459128">
        <ele>890.269001356783</ele>
        <time>2018-07-14T06:50:31.009Z</time>
      </trkpt>
      <trkpt lat="37.190849" lon="-3.459092">
        <ele>891</ele>
        <time>2018-07-14T06:50:34.009Z</time>
      </trkpt>
      <trkpt lat="37.190819" lon="-3.45907">
        <ele>891</ele>
        <time>2018-07-14T06:50:37.009Z</time>
      </trkpt>
      <trkpt lat="37.19079" lon="-3.459043">
        <ele>892</ele>
        <time>2018-07-14T06:50:40.009Z</time>
      </trkpt>
      <trkpt lat="37.190765" lon="-3.459017">
        <ele>892.269001356783</ele>
        <time>2018-07-14T06:50:43.009Z</time>
      </trkpt>
      <trkpt lat="37.190743" lon="-3.458982">
        <ele>893.268995443142</ele>
        <time>2018-07-14T06:50:46.009Z</time>
      </trkpt>
      <trkpt lat="37.190722" lon="-3.458945">
        <ele>894.269001356783</ele>
        <time>2018-07-14T06:50:49.009Z</time>
      </trkpt>
      <trkpt lat="37.190705" lon="-3.458905">
        <ele>895</ele>
        <time>2018-07-14T06:50:53.009Z</time>
      </trkpt>
      <trkpt lat="37.19069" lon="-3.458872">
        <ele>896</ele>
        <time>2018-07-14T06:50:56.009Z</time>
      </trkpt>
      <trkpt lat="37.190665" lon="-3.458846">
        <ele>896.269001356783</ele>
        <time>2018-07-14T06:51:01.009Z</time>
      </trkpt>
      <trkpt lat="37.190644" lon="-3.458801">
        <ele>897.268995443142</ele>
        <time>2018-07-14T06:51:06.009Z</time>
      </trkpt>
      <trkpt lat="37.190675" lon="-3.45878">
        <ele>900</ele>
        <time>2018-07-14T06:51:12.009Z</time>
      </trkpt>
      <trkpt lat="37.190711" lon="-3.458785">
        <ele>902.268995443142</ele>
        <time>2018-07-14T06:51:16.009Z</time>
      </trkpt>
      <trkpt lat="37.190741" lon="-3.458766">
        <ele>904</ele>
        <time>2018-07-14T06:51:20.009Z</time>
      </trkpt>
      <trkpt lat="37.190768" lon="-3.458756">
        <ele>906</ele>
        <time>2018-07-14T06:51:27.009Z</time>
      </trkpt>
      <trkpt lat="37.1908" lon="-3.458732">
        <ele>907.269001356783</ele>
        <time>2018-07-14T06:51:31.009Z</time>
      </trkpt>
      <trkpt lat="37.190834" lon="-3.458698">
        <ele>908.268995443142</ele>
        <time>2018-07-14T06:51:34.009Z</time>
      </trkpt>
      <trkpt lat="37.190852" lon="-3.458661">
        <ele>909</ele>
        <time>2018-07-14T06:51:37.009Z</time>
      </trkpt>
      <trkpt lat="37.190851" lon="-3.458621">
        <ele>910</ele>
        <time>2018-07-14T06:51:40.009Z</time>
      </trkpt>
      <trkpt lat="37.19086" lon="-3.458586">
        <ele>910</ele>
        <time>2018-07-14T06:51:43.009Z</time>
      </trkpt>
      <trkpt lat="37.190879" lon="-3.458552">
        <ele>911</ele>
        <time>2018-07-14T06:51:46.009Z</time>
      </trkpt>
      <trkpt lat="37.190905" lon="-3.458522">
        <ele>911</ele>
        <time>2018-07-14T06:51:49.009Z</time>
      </trkpt>
      <trkpt lat="37.190934" lon="-3.458499">
        <ele>912</ele>
        <time>2018-07-14T06:51:52.009Z</time>
      </trkpt>
      <trkpt lat="37.19097" lon="-3.458477">
        <ele>912</ele>
        <time>2018-07-14T06:51:55.009Z</time>
      </trkpt>
      <trkpt lat="37.190989" lon="-3.458427">
        <ele>913</ele>
        <time>2018-07-14T06:52:00.009Z</time>
      </trkpt>
      <trkpt lat="37.19101" lon="-3.458386">
        <ele>914</ele>
        <time>2018-07-14T06:52:04.009Z</time>
      </trkpt>
      <trkpt lat="37.191004" lon="-3.45834">
        <ele>915</ele>
        <time>2018-07-14T06:52:08.009Z</time>
      </trkpt>
      <trkpt lat="37.190972" lon="-3.45831">
        <ele>916</ele>
        <time>2018-07-14T06:52:13.009Z</time>
      </trkpt>
      <trkpt lat="37.190954" lon="-3.458276">
        <ele>917</ele>
        <time>2018-07-14T06:52:17.009Z</time>
      </trkpt>
      <trkpt lat="37.190924" lon="-3.458257">
        <ele>918.269001356783</ele>
        <time>2018-07-14T06:52:23.009Z</time>
      </trkpt>
      <trkpt lat="37.190914" lon="-3.458218">
        <ele>921.268995443142</ele>
        <time>2018-07-14T06:52:28.009Z</time>
      </trkpt>
      <trkpt lat="37.19091" lon="-3.458179">
        <ele>923</ele>
        <time>2018-07-14T06:52:31.009Z</time>
      </trkpt>
      <trkpt lat="37.190895" lon="-3.45815">
        <ele>923.254078340713</ele>
        <time>2018-07-14T06:52:33.009Z</time>
      </trkpt>
      <trkpt lat="37.190874" lon="-3.458107">
        <ele>924.268995443142</ele>
        <time>2018-07-14T06:52:36.009Z</time>
      </trkpt>
      <trkpt lat="37.190864" lon="-3.458066">
        <ele>925</ele>
        <time>2018-07-14T06:52:39.009Z</time>
      </trkpt>
      <trkpt lat="37.190844" lon="-3.458033">
        <ele>926</ele>
        <time>2018-07-14T06:52:42.009Z</time>
      </trkpt>
      <trkpt lat="37.190832" lon="-3.458">
        <ele>927</ele>
        <time>2018-07-14T06:52:45.009Z</time>
      </trkpt>
      <trkpt lat="37.190822" lon="-3.457971">
        <ele>927</ele>
        <time>2018-07-14T06:52:48.009Z</time>
      </trkpt>
      <trkpt lat="37.190815" lon="-3.457936">
        <ele>928</ele>
        <time>2018-07-14T06:52:51.009Z</time>
      </trkpt>
      <trkpt lat="37.190798" lon="-3.457906">
        <ele>929</ele>
        <time>2018-07-14T06:52:54.009Z</time>
      </trkpt>
      <trkpt lat="37.190776" lon="-3.45787">
        <ele>929</ele>
        <time>2018-07-14T06:52:58.009Z</time>
      </trkpt>
      <trkpt lat="37.190762" lon="-3.45783">
        <ele>930</ele>
        <time>2018-07-14T06:53:02.009Z</time>
      </trkpt>
      <trkpt lat="37.190752" lon="-3.457786">
        <ele>930.268995443142</ele>
        <time>2018-07-14T06:53:06.009Z</time>
      </trkpt>
      <trkpt lat="37.190735" lon="-3.45774">
        <ele>932</ele>
        <time>2018-07-14T06:53:11.009Z</time>
      </trkpt>
      <trkpt lat="37.190713" lon="-3.457696">
        <ele>932</ele>
        <time>2018-07-14T06:53:16.009Z</time>
      </trkpt>
      <trkpt lat="37.190693" lon="-3.457642">
        <ele>932</ele>
        <time>2018-07-14T06:53:24.009Z</time>
      </trkpt>
      <trkpt lat="37.19067" lon="-3.4576">
        <ele>932</ele>
        <time>2018-07-14T06:53:29.009Z</time>
      </trkpt>
      <trkpt lat="37.19066" lon="-3.457552">
        <ele>932</ele>
        <time>2018-07-14T06:53:34.009Z</time>
      </trkpt>
      <trkpt lat="37.190649" lon="-3.457506">
        <ele>932.269001356783</ele>
        <time>2018-07-14T06:53:39.009Z</time>
      </trkpt>
      <trkpt lat="37.190671" lon="-3.45746">
        <ele>934</ele>
        <time>2018-07-14T06:53:52.009Z</time>
      </trkpt>
      <trkpt lat="37.190692" lon="-3.457418">
        <ele>936</ele>
        <time>2018-07-14T06:53:58.009Z</time>
      </trkpt>
      <trkpt lat="37.190726" lon="-3.4574">
        <ele>937</ele>
        <time>2018-07-14T06:54:01.009Z</time>
      </trkpt>
      <trkpt lat="37.190757" lon="-3.457375">
        <ele>938</ele>
        <time>2018-07-14T06:54:04.009Z</time>
      </trkpt>
      <trkpt lat="37.19079" lon="-3.457353">
        <ele>939.269001356783</ele>
        <time>2018-07-14T06:54:07.009Z</time>
      </trkpt>
      <trkpt lat="37.190825" lon="-3.457336">
        <ele>940</ele>
        <time>2018-07-14T06:54:10.009Z</time>
      </trkpt>
      <trkpt lat="37.190873" lon="-3.457337">
        <ele>942.268995443142</ele>
        <time>2018-07-14T06:54:16.009Z</time>
      </trkpt>
      <trkpt lat="37.190889" lon="-3.457278">
        <ele>943</ele>
        <time>2018-07-14T06:54:22.009Z</time>
      </trkpt>
      <trkpt lat="37.1909" lon="-3.457228">
        <ele>944</ele>
        <time>2018-07-14T06:54:26.009Z</time>
      </trkpt>
      <trkpt lat="37.190871" lon="-3.457201">
        <ele>944</ele>
        <time>2018-07-14T06:54:32.009Z</time>
      </trkpt>
      <trkpt lat="37.190824" lon="-3.457217">
        <ele>945</ele>
        <time>2018-07-14T06:54:38.009Z</time>
      </trkpt>
      <trkpt lat="37.190794" lon="-3.457211">
        <ele>945</ele>
        <time>2018-07-14T06:54:41.009Z</time>
      </trkpt>
      <trkpt lat="37.190759" lon="-3.457208">
        <ele>945</ele>
        <time>2018-07-14T06:54:44.009Z</time>
      </trkpt>
      <trkpt lat="37.190726" lon="-3.457183">
        <ele>946.268995443142</ele>
        <time>2018-07-14T06:54:48.009Z</time>
      </trkpt>
      <trkpt lat="37.190706" lon="-3.457134">
        <ele>949</ele>
        <time>2018-07-14T06:54:54.009Z</time>
      </trkpt>
      <trkpt lat="37.190679" lon="-3.457105">
        <ele>950.268995443142</ele>
        <time>2018-07-14T06:54:58.009Z</time>
      </trkpt>
      <trkpt lat="37.190663" lon="-3.457053">
        <ele>952</ele>
        <time>2018-07-14T06:55:03.009Z</time>
      </trkpt>
      <trkpt lat="37.190626" lon="-3.457075">
        <ele>953</ele>
        <time>2018-07-14T06:55:11.009Z</time>
      </trkpt>
      <trkpt lat="37.190601" lon="-3.457102">
        <ele>954.269001356783</ele>
        <time>2018-07-14T06:55:17.009Z</time>
      </trkpt>
      <trkpt lat="37.190561" lon="-3.45709">
        <ele>955.268995443142</ele>
        <time>2018-07-14T06:55:22.009Z</time>
      </trkpt>
      <trkpt lat="37.190528" lon="-3.457097">
        <ele>956</ele>
        <time>2018-07-14T06:55:26.009Z</time>
      </trkpt>
      <trkpt lat="37.190493" lon="-3.457089">
        <ele>956.268995443142</ele>
        <time>2018-07-14T06:55:30.009Z</time>
      </trkpt>
      <trkpt lat="37.190456" lon="-3.457094">
        <ele>957</ele>
        <time>2018-07-14T06:55:34.009Z</time>
      </trkpt>
      <trkpt lat="37.190417" lon="-3.457117">
        <ele>957</ele>
        <time>2018-07-14T06:55:39.009Z</time>
      </trkpt>
      <trkpt lat="37.190383" lon="-3.457136">
        <ele>957</ele>
        <time>2018-07-14T06:55:43.009Z</time>
      </trkpt>
      <trkpt lat="37.19035" lon="-3.457157">
        <ele>957</ele>
        <time>2018-07-14T06:55:47.009Z</time>
      </trkpt>
      <trkpt lat="37.190323" lon="-3.457183">
        <ele>958</ele>
        <time>2018-07-14T06:55:50.009Z</time>
      </trkpt>
      <trkpt lat="37.190293" lon="-3.457212">
        <ele>959</ele>
        <time>2018-07-14T06:55:54.009Z</time>
      </trkpt>
      <trkpt lat="37.19026" lon="-3.457241">
        <ele>960.269001356783</ele>
        <time>2018-07-14T06:55:59.009Z</time>
      </trkpt>
      <trkpt lat="37.190225" lon="-3.457266">
        <ele>962</ele>
        <time>2018-07-14T06:56:04.009Z</time>
      </trkpt>
      <trkpt lat="37.190203" lon="-3.457298">
        <ele>964</ele>
        <time>2018-07-14T06:56:08.009Z</time>
      </trkpt>
      <trkpt lat="37.190177" lon="-3.457336">
        <ele>966</ele>
        <time>2018-07-14T06:56:14.009Z</time>
      </trkpt>
      <trkpt lat="37.190148" lon="-3.457382">
        <ele>969.269001356783</ele>
        <time>2018-07-14T06:56:23.009Z</time>
      </trkpt>
      <trkpt lat="37.190109" lon="-3.457368">
        <ele>971</ele>
        <time>2018-07-14T06:56:29.009Z</time>
      </trkpt>
      <trkpt lat="37.190082" lon="-3.457402">
        <ele>972</ele>
        <time>2018-07-14T06:56:34.009Z</time>
      </trkpt>
      <trkpt lat="37.190055" lon="-3.45744">
        <ele>973</ele>
        <time>2018-07-14T06:56:38.009Z</time>
      </trkpt>
      <trkpt lat="37.190028" lon="-3.457472">
        <ele>974</ele>
        <time>2018-07-14T06:56:42.009Z</time>
      </trkpt>
      <trkpt lat="37.190002" lon="-3.457512">
        <ele>974</ele>
        <time>2018-07-14T06:56:46.009Z</time>
      </trkpt>
      <trkpt lat="37.189986" lon="-3.457552">
        <ele>975</ele>
        <time>2018-07-14T06:56:51.009Z</time>
      </trkpt>
      <trkpt lat="37.189951" lon="-3.457582">
        <ele>975.268995443142</ele>
        <time>2018-07-14T06:56:56.009Z</time>
      </trkpt>
      <trkpt lat="37.189915" lon="-3.457616">
        <ele>976.269001356783</ele>
        <time>2018-07-14T06:57:01.009Z</time>
      </trkpt>
      <trkpt lat="37.189886" lon="-3.45765">
        <ele>978</ele>
        <time>2018-07-14T06:57:05.009Z</time>
      </trkpt>
      <trkpt lat="37.18986" lon="-3.457688">
        <ele>979</ele>
        <time>2018-07-14T06:57:09.009Z</time>
      </trkpt>
      <trkpt lat="37.18982" lon="-3.457726">
        <ele>981</ele>
        <time>2018-07-14T06:57:15.009Z</time>
      </trkpt>
      <trkpt lat="37.189774" lon="-3.457762">
        <ele>981</ele>
        <time>2018-07-14T06:57:21.009Z</time>
      </trkpt>
      <trkpt lat="37.189778" lon="-3.457812">
        <ele>983</ele>
        <time>2018-07-14T06:57:27.009Z</time>
      </trkpt>
      <trkpt lat="37.189748" lon="-3.457848">
        <ele>984</ele>
        <time>2018-07-14T06:57:31.009Z</time>
      </trkpt>
      <trkpt lat="37.189706" lon="-3.457866">
        <ele>985.269001356783</ele>
        <time>2018-07-14T06:57:37.009Z</time>
      </trkpt>
      <trkpt lat="37.189686" lon="-3.457907">
        <ele>985</ele>
        <time>2018-07-14T06:57:43.009Z</time>
      </trkpt>
      <trkpt lat="37.18967" lon="-3.457954">
        <ele>986</ele>
        <time>2018-07-14T06:57:47.009Z</time>
      </trkpt>
      <trkpt lat="37.189646" lon="-3.45798">
        <ele>986</ele>
        <time>2018-07-14T06:57:50.009Z</time>
      </trkpt>
      <trkpt lat="37.189608" lon="-3.457994">
        <ele>987</ele>
        <time>2018-07-14T06:57:54.009Z</time>
      </trkpt>
      <trkpt lat="37.189574" lon="-3.457992">
        <ele>987</ele>
        <time>2018-07-14T06:57:58.009Z</time>
      </trkpt>
      <trkpt lat="37.189539" lon="-3.457982">
        <ele>987</ele>
        <time>2018-07-14T06:58:03.009Z</time>
      </trkpt>
      <trkpt lat="37.189505" lon="-3.457976">
        <ele>987</ele>
        <time>2018-07-14T06:58:08.009Z</time>
      </trkpt>
      <trkpt lat="37.189469" lon="-3.457968">
        <ele>988</ele>
        <time>2018-07-14T06:58:27.009Z</time>
      </trkpt>
      <trkpt lat="37.189439" lon="-3.457991">
        <ele>988</ele>
        <time>2018-07-14T06:58:32.009Z</time>
      </trkpt>
      <trkpt lat="37.189411" lon="-3.458025">
        <ele>989.269001356783</ele>
        <time>2018-07-14T06:58:37.009Z</time>
      </trkpt>
      <trkpt lat="37.189385" lon="-3.458078">
        <ele>990</ele>
        <time>2018-07-14T06:58:42.009Z</time>
      </trkpt>
      <trkpt lat="37.189391" lon="-3.458146">
        <ele>991.269001356783</ele>
        <time>2018-07-14T06:58:49.009Z</time>
      </trkpt>
      <trkpt lat="37.189384" lon="-3.458204">
        <ele>993</ele>
        <time>2018-07-14T06:58:54.009Z</time>
      </trkpt>
      <trkpt lat="37.189375" lon="-3.45825">
        <ele>993.269001356783</ele>
        <time>2018-07-14T06:58:57.009Z</time>
      </trkpt>
      <trkpt lat="37.189368" lon="-3.458296">
        <ele>995</ele>
        <time>2018-07-14T06:59:01.009Z</time>
      </trkpt>
      <trkpt lat="37.189363" lon="-3.458343">
        <ele>996</ele>
        <time>2018-07-14T06:59:05.009Z</time>
      </trkpt>
      <trkpt lat="37.189377" lon="-3.458386">
        <ele>997</ele>
        <time>2018-07-14T06:59:09.009Z</time>
      </trkpt>
      <trkpt lat="37.18939" lon="-3.458433">
        <ele>999</ele>
        <time>2018-07-14T06:59:14.009Z</time>
      </trkpt>
      <trkpt lat="37.189385" lon="-3.458482">
        <ele>1001</ele>
        <time>2018-07-14T06:59:19.009Z</time>
      </trkpt>
      <trkpt lat="37.189387" lon="-3.458526">
        <ele>1001</ele>
        <time>2018-07-14T06:59:24.009Z</time>
      </trkpt>
      <trkpt lat="37.189412" lon="-3.458567">
        <ele>1002</ele>
        <time>2018-07-14T06:59:29.009Z</time>
      </trkpt>
      <trkpt lat="37.189424" lon="-3.458627">
        <ele>1003</ele>
        <time>2018-07-14T06:59:36.009Z</time>
      </trkpt>
      <trkpt lat="37.189386" lon="-3.45866">
        <ele>1004.26899544314</ele>
        <time>2018-07-14T06:59:42.009Z</time>
      </trkpt>
      <trkpt lat="37.189347" lon="-3.458637">
        <ele>1005.26632955669</ele>
        <time>2018-07-14T06:59:48.009Z</time>
      </trkpt>
      <trkpt lat="37.189321" lon="-3.458602">
        <ele>1007.26900135678</ele>
        <time>2018-07-14T06:59:51.009Z</time>
      </trkpt>
      <trkpt lat="37.189287" lon="-3.45858">
        <ele>1008.26900135678</ele>
        <time>2018-07-14T06:59:55.009Z</time>
      </trkpt>
      <trkpt lat="37.189242" lon="-3.45858">
        <ele>1010</ele>
        <time>2018-07-14T07:00:00.009Z</time>
      </trkpt>
      <trkpt lat="37.189201" lon="-3.458553">
        <ele>1012</ele>
        <time>2018-07-14T07:00:06.009Z</time>
      </trkpt>
      <trkpt lat="37.189171" lon="-3.458518">
        <ele>1013</ele>
        <time>2018-07-14T07:00:10.009Z</time>
      </trkpt>
      <trkpt lat="37.189139" lon="-3.458494">
        <ele>1013.26161384999</ele>
        <time>2018-07-14T07:00:14.009Z</time>
      </trkpt>
      <trkpt lat="37.189105" lon="-3.458473">
        <ele>1014</ele>
        <time>2018-07-14T07:00:18.009Z</time>
      </trkpt>
      <trkpt lat="37.189082" lon="-3.458439">
        <ele>1014</ele>
        <time>2018-07-14T07:00:22.009Z</time>
      </trkpt>
      <trkpt lat="37.189048" lon="-3.458407">
        <ele>1015</ele>
        <time>2018-07-14T07:00:26.009Z</time>
      </trkpt>
      <trkpt lat="37.189022" lon="-3.458375">
        <ele>1015</ele>
        <time>2018-07-14T07:00:30.009Z</time>
      </trkpt>
      <trkpt lat="37.188999" lon="-3.458343">
        <ele>1016</ele>
        <time>2018-07-14T07:00:35.009Z</time>
      </trkpt>
      <trkpt lat="37.189045" lon="-3.458339">
        <ele>1018.26900135678</ele>
        <time>2018-07-14T07:00:43.009Z</time>
      </trkpt>
      <trkpt lat="37.18902" lon="-3.458298">
        <ele>1019</ele>
        <time>2018-07-14T07:00:48.009Z</time>
      </trkpt>
      <trkpt lat="37.189001" lon="-3.458267">
        <ele>1019.26899544314</ele>
        <time>2018-07-14T07:00:52.009Z</time>
      </trkpt>
      <trkpt lat="37.188968" lon="-3.458233">
        <ele>1020</ele>
        <time>2018-07-14T07:00:58.009Z</time>
      </trkpt>
      <trkpt lat="37.188933" lon="-3.458183">
        <ele>1022</ele>
        <time>2018-07-14T07:01:08.009Z</time>
      </trkpt>
      <trkpt lat="37.188906" lon="-3.45815">
        <ele>1023</ele>
        <time>2018-07-14T07:01:14.009Z</time>
      </trkpt>
      <trkpt lat="37.188897" lon="-3.458105">
        <ele>1025</ele>
        <time>2018-07-14T07:01:19.009Z</time>
      </trkpt>
      <trkpt lat="37.188849" lon="-3.45808">
        <ele>1025</ele>
        <time>2018-07-14T07:01:26.009Z</time>
      </trkpt>
      <trkpt lat="37.188813" lon="-3.458056">
        <ele>1026</ele>
        <time>2018-07-14T07:01:30.009Z</time>
      </trkpt>
      <trkpt lat="37.188777" lon="-3.458038">
        <ele>1026</ele>
        <time>2018-07-14T07:01:33.009Z</time>
      </trkpt>
      <trkpt lat="37.188745" lon="-3.458021">
        <ele>1026</ele>
        <time>2018-07-14T07:01:36.009Z</time>
      </trkpt>
      <trkpt lat="37.188715" lon="-3.458004">
        <ele>1026</ele>
        <time>2018-07-14T07:01:39.009Z</time>
      </trkpt>
      <trkpt lat="37.188679" lon="-3.457985">
        <ele>1026</ele>
        <time>2018-07-14T07:01:43.009Z</time>
      </trkpt>
      <trkpt lat="37.188646" lon="-3.457966">
        <ele>1027</ele>
        <time>2018-07-14T07:01:46.009Z</time>
      </trkpt>
      <trkpt lat="37.188626" lon="-3.457927">
        <ele>1027</ele>
        <time>2018-07-14T07:01:50.009Z</time>
      </trkpt>
      <trkpt lat="37.188599" lon="-3.457882">
        <ele>1027</ele>
        <time>2018-07-14T07:01:56.009Z</time>
      </trkpt>
      <trkpt lat="37.188563" lon="-3.457852">
        <ele>1028</ele>
        <time>2018-07-14T07:02:00.009Z</time>
      </trkpt>
      <trkpt lat="37.18853" lon="-3.457818">
        <ele>1028</ele>
        <time>2018-07-14T07:02:04.009Z</time>
      </trkpt>
      <trkpt lat="37.188506" lon="-3.457783">
        <ele>1029</ele>
        <time>2018-07-14T07:02:08.009Z</time>
      </trkpt>
      <trkpt lat="37.188476" lon="-3.457743">
        <ele>1030</ele>
        <time>2018-07-14T07:02:13.009Z</time>
      </trkpt>
      <trkpt lat="37.18845" lon="-3.457718">
        <ele>1032</ele>
        <time>2018-07-14T07:02:16.009Z</time>
      </trkpt>
      <trkpt lat="37.188422" lon="-3.457693">
        <ele>1033</ele>
        <time>2018-07-14T07:02:20.009Z</time>
      </trkpt>
      <trkpt lat="37.188396" lon="-3.457663">
        <ele>1033</ele>
        <time>2018-07-14T07:02:24.009Z</time>
      </trkpt>
      <trkpt lat="37.188374" lon="-3.457629">
        <ele>1034</ele>
        <time>2018-07-14T07:02:28.009Z</time>
      </trkpt>
      <trkpt lat="37.188346" lon="-3.457602">
        <ele>1034</ele>
        <time>2018-07-14T07:02:32.009Z</time>
      </trkpt>
      <trkpt lat="37.188324" lon="-3.457579">
        <ele>1035</ele>
        <time>2018-07-14T07:02:35.009Z</time>
      </trkpt>
      <trkpt lat="37.188298" lon="-3.457562">
        <ele>1036</ele>
        <time>2018-07-14T07:02:38.009Z</time>
      </trkpt>
      <trkpt lat="37.188268" lon="-3.45754">
        <ele>1037</ele>
        <time>2018-07-14T07:02:41.009Z</time>
      </trkpt>
      <trkpt lat="37.188242" lon="-3.457518">
        <ele>1037</ele>
        <time>2018-07-14T07:02:44.009Z</time>
      </trkpt>
      <trkpt lat="37.188216" lon="-3.457476">
        <ele>1037</ele>
        <time>2018-07-14T07:02:48.009Z</time>
      </trkpt>
      <trkpt lat="37.188176" lon="-3.457445">
        <ele>1037</ele>
        <time>2018-07-14T07:02:52.009Z</time>
      </trkpt>
      <trkpt lat="37.188144" lon="-3.45741">
        <ele>1038</ele>
        <time>2018-07-14T07:02:56.009Z</time>
      </trkpt>
      <trkpt lat="37.188104" lon="-3.457378">
        <ele>1038</ele>
        <time>2018-07-14T07:03:02.009Z</time>
      </trkpt>
      <trkpt lat="37.188095" lon="-3.457328">
        <ele>1038.26899544314</ele>
        <time>2018-07-14T07:03:06.009Z</time>
      </trkpt>
      <trkpt lat="37.188077" lon="-3.457282">
        <ele>1040</ele>
        <time>2018-07-14T07:03:11.009Z</time>
      </trkpt>
      <trkpt lat="37.188053" lon="-3.457243">
        <ele>1040.26900135678</ele>
        <time>2018-07-14T07:03:15.009Z</time>
      </trkpt>
      <trkpt lat="37.188032" lon="-3.457196">
        <ele>1041</ele>
        <time>2018-07-14T07:03:19.009Z</time>
      </trkpt>
      <trkpt lat="37.188021" lon="-3.457154">
        <ele>1042</ele>
        <time>2018-07-14T07:03:22.009Z</time>
      </trkpt>
      <trkpt lat="37.188017" lon="-3.457106">
        <ele>1044</ele>
        <time>2018-07-14T07:03:27.009Z</time>
      </trkpt>
      <trkpt lat="37.188025" lon="-3.457062">
        <ele>1046.26900135678</ele>
        <time>2018-07-14T07:03:33.009Z</time>
      </trkpt>
      <trkpt lat="37.188013" lon="-3.457018">
        <ele>1047.73099864322</ele>
        <time>2018-07-14T07:03:37.009Z</time>
      </trkpt>
      <trkpt lat="37.187978" lon="-3.456994">
        <ele>1048</ele>
        <time>2018-07-14T07:03:40.009Z</time>
      </trkpt>
      <trkpt lat="37.187937" lon="-3.456977">
        <ele>1048</ele>
        <time>2018-07-14T07:03:43.009Z</time>
      </trkpt>
      <trkpt lat="37.187898" lon="-3.456966">
        <ele>1048</ele>
        <time>2018-07-14T07:03:46.009Z</time>
      </trkpt>
      <trkpt lat="37.187832" lon="-3.456972">
        <ele>1048</ele>
        <time>2018-07-14T07:03:51.009Z</time>
      </trkpt>
      <trkpt lat="37.187797" lon="-3.456992">
        <ele>1048.96955811969</ele>
        <time>2018-07-14T07:03:54.009Z</time>
      </trkpt>
      <trkpt lat="37.187765" lon="-3.457044">
        <ele>1050</ele>
        <time>2018-07-14T07:03:58.009Z</time>
      </trkpt>
      <trkpt lat="37.187749" lon="-3.457076">
        <ele>1051</ele>
        <time>2018-07-14T07:04:01.009Z</time>
      </trkpt>
      <trkpt lat="37.187708" lon="-3.457118">
        <ele>1052</ele>
        <time>2018-07-14T07:04:11.009Z</time>
      </trkpt>
      <trkpt lat="37.187685" lon="-3.457139">
        <ele>1052</ele>
        <time>2018-07-14T07:04:13.009Z</time>
      </trkpt>
      <trkpt lat="37.187666" lon="-3.457159">
        <ele>1052</ele>
        <time>2018-07-14T07:04:15.009Z</time>
      </trkpt>
      <trkpt lat="37.187641" lon="-3.457183">
        <ele>1053</ele>
        <time>2018-07-14T07:04:18.009Z</time>
      </trkpt>
      <trkpt lat="37.187593" lon="-3.45722">
        <ele>1053</ele>
        <time>2018-07-14T07:04:25.009Z</time>
      </trkpt>
      <trkpt lat="37.187551" lon="-3.457261">
        <ele>1053</ele>
        <time>2018-07-14T07:04:29.009Z</time>
      </trkpt>
      <trkpt lat="37.187515" lon="-3.457291">
        <ele>1053</ele>
        <time>2018-07-14T07:04:32.009Z</time>
      </trkpt>
      <trkpt lat="37.187479" lon="-3.45732">
        <ele>1054</ele>
        <time>2018-07-14T07:04:35.009Z</time>
      </trkpt>
      <trkpt lat="37.187441" lon="-3.457335">
        <ele>1054</ele>
        <time>2018-07-14T07:04:38.009Z</time>
      </trkpt>
      <trkpt lat="37.187405" lon="-3.457336">
        <ele>1054.26900135678</ele>
        <time>2018-07-14T07:04:41.009Z</time>
      </trkpt>
      <trkpt lat="37.187366" lon="-3.457321">
        <ele>1056</ele>
        <time>2018-07-14T07:04:44.009Z</time>
      </trkpt>
      <trkpt lat="37.187332" lon="-3.457291">
        <ele>1057</ele>
        <time>2018-07-14T07:04:47.009Z</time>
      </trkpt>
      <trkpt lat="37.187305" lon="-3.457251">
        <ele>1059</ele>
        <time>2018-07-14T07:04:50.009Z</time>
      </trkpt>
      <trkpt lat="37.187285" lon="-3.457207">
        <ele>1059.26900135678</ele>
        <time>2018-07-14T07:04:53.009Z</time>
      </trkpt>
      <trkpt lat="37.187264" lon="-3.457166">
        <ele>1061</ele>
        <time>2018-07-14T07:04:56.009Z</time>
      </trkpt>
      <trkpt lat="37.187242" lon="-3.457125">
        <ele>1062</ele>
        <time>2018-07-14T07:04:59.009Z</time>
      </trkpt>
      <trkpt lat="37.187225" lon="-3.457077">
        <ele>1063</ele>
        <time>2018-07-14T07:05:02.009Z</time>
      </trkpt>
      <trkpt lat="37.187198" lon="-3.457033">
        <ele>1064</ele>
        <time>2018-07-14T07:05:05.009Z</time>
      </trkpt>
      <trkpt lat="37.187176" lon="-3.456986">
        <ele>1064.26899544314</ele>
        <time>2018-07-14T07:05:08.009Z</time>
      </trkpt>
      <trkpt lat="37.187161" lon="-3.456937">
        <ele>1065</ele>
        <time>2018-07-14T07:05:11.009Z</time>
      </trkpt>
      <trkpt lat="37.187154" lon="-3.456888">
        <ele>1065</ele>
        <time>2018-07-14T07:05:14.009Z</time>
      </trkpt>
      <trkpt lat="37.187141" lon="-3.456845">
        <ele>1066</ele>
        <time>2018-07-14T07:05:17.009Z</time>
      </trkpt>
      <trkpt lat="37.187129" lon="-3.456794">
        <ele>1067</ele>
        <time>2018-07-14T07:05:20.009Z</time>
      </trkpt>
      <trkpt lat="37.187118" lon="-3.456737">
        <ele>1067</ele>
        <time>2018-07-14T07:05:22.009Z</time>
      </trkpt>
      <trkpt lat="37.187102" lon="-3.456672">
        <ele>1067</ele>
        <time>2018-07-14T07:05:24.009Z</time>
      </trkpt>
      <trkpt lat="37.187083" lon="-3.456607">
        <ele>1067</ele>
        <time>2018-07-14T07:05:26.009Z</time>
      </trkpt>
      <trkpt lat="37.187064" lon="-3.456547">
        <ele>1067</ele>
        <time>2018-07-14T07:05:28.009Z</time>
      </trkpt>
      <trkpt lat="37.187047" lon="-3.45646">
        <ele>1067.26900135678</ele>
        <time>2018-07-14T07:05:31.009Z</time>
      </trkpt>
      <trkpt lat="37.187002" lon="-3.456399">
        <ele>1068</ele>
        <time>2018-07-14T07:05:34.009Z</time>
      </trkpt>
      <trkpt lat="37.186927" lon="-3.456397">
        <ele>1068</ele>
        <time>2018-07-14T07:05:37.009Z</time>
      </trkpt>
      <trkpt lat="37.186871" lon="-3.456444">
        <ele>1068</ele>
        <time>2018-07-14T07:05:40.009Z</time>
      </trkpt>
      <trkpt lat="37.186842" lon="-3.456502">
        <ele>1069</ele>
        <time>2018-07-14T07:05:43.009Z</time>
      </trkpt>
      <trkpt lat="37.186812" lon="-3.45656">
        <ele>1068.73099864322</ele>
        <time>2018-07-14T07:05:47.009Z</time>
      </trkpt>
      <trkpt lat="37.186781" lon="-3.45662">
        <ele>1068</ele>
        <time>2018-07-14T07:05:51.009Z</time>
      </trkpt>
      <trkpt lat="37.186742" lon="-3.456665">
        <ele>1069</ele>
        <time>2018-07-14T07:05:55.009Z</time>
      </trkpt>
      <trkpt lat="37.186699" lon="-3.456727">
        <ele>1069</ele>
        <time>2018-07-14T07:05:59.009Z</time>
      </trkpt>
      <trkpt lat="37.186661" lon="-3.456775">
        <ele>1069</ele>
        <time>2018-07-14T07:06:01.009Z</time>
      </trkpt>
      <trkpt lat="37.186622" lon="-3.456839">
        <ele>1069</ele>
        <time>2018-07-14T07:06:03.009Z</time>
      </trkpt>
      <trkpt lat="37.186598" lon="-3.456911">
        <ele>1068</ele>
        <time>2018-07-14T07:06:05.009Z</time>
      </trkpt>
      <trkpt lat="37.186568" lon="-3.457018">
        <ele>1068</ele>
        <time>2018-07-14T07:06:08.009Z</time>
      </trkpt>
      <trkpt lat="37.186544" lon="-3.457086">
        <ele>1068.26899544314</ele>
        <time>2018-07-14T07:06:10.009Z</time>
      </trkpt>
      <trkpt lat="37.186506" lon="-3.457147">
        <ele>1069</ele>
        <time>2018-07-14T07:06:12.009Z</time>
      </trkpt>
      <trkpt lat="37.18646" lon="-3.457199">
        <ele>1069</ele>
        <time>2018-07-14T07:06:14.009Z</time>
      </trkpt>
      <trkpt lat="37.186416" lon="-3.457247">
        <ele>1068.73100455686</ele>
        <time>2018-07-14T07:06:16.009Z</time>
      </trkpt>
      <trkpt lat="37.186366" lon="-3.457292">
        <ele>1068</ele>
        <time>2018-07-14T07:06:18.009Z</time>
      </trkpt>
      <trkpt lat="37.186326" lon="-3.457337">
        <ele>1068</ele>
        <time>2018-07-14T07:06:20.009Z</time>
      </trkpt>
      <trkpt lat="37.186288" lon="-3.457378">
        <ele>1067</ele>
        <time>2018-07-14T07:06:22.009Z</time>
      </trkpt>
      <trkpt lat="37.186258" lon="-3.457434">
        <ele>1067</ele>
        <time>2018-07-14T07:06:24.009Z</time>
      </trkpt>
      <trkpt lat="37.186226" lon="-3.457491">
        <ele>1066</ele>
        <time>2018-07-14T07:06:26.009Z</time>
      </trkpt>
      <trkpt lat="37.186196" lon="-3.457549">
        <ele>1066</ele>
        <time>2018-07-14T07:06:28.009Z</time>
      </trkpt>
      <trkpt lat="37.186168" lon="-3.457612">
        <ele>1065.73100455686</ele>
        <time>2018-07-14T07:06:30.009Z</time>
      </trkpt>
      <trkpt lat="37.186126" lon="-3.45767">
        <ele>1065</ele>
        <time>2018-07-14T07:06:32.009Z</time>
      </trkpt>
      <trkpt lat="37.186092" lon="-3.457727">
        <ele>1064.73100455686</ele>
        <time>2018-07-14T07:06:34.009Z</time>
      </trkpt>
      <trkpt lat="37.18607" lon="-3.457796">
        <ele>1064</ele>
        <time>2018-07-14T07:06:36.009Z</time>
      </trkpt>
      <trkpt lat="37.186058" lon="-3.457864">
        <ele>1063</ele>
        <time>2018-07-14T07:06:38.009Z</time>
      </trkpt>
      <trkpt lat="37.186056" lon="-3.457945">
        <ele>1062.73100455686</ele>
        <time>2018-07-14T07:06:40.009Z</time>
      </trkpt>
      <trkpt lat="37.186058" lon="-3.45802">
        <ele>1062</ele>
        <time>2018-07-14T07:06:42.009Z</time>
      </trkpt>
      <trkpt lat="37.186072" lon="-3.458098">
        <ele>1061</ele>
        <time>2018-07-14T07:06:44.009Z</time>
      </trkpt>
      <trkpt lat="37.186078" lon="-3.458171">
        <ele>1060.73100455686</ele>
        <time>2018-07-14T07:06:46.009Z</time>
      </trkpt>
      <trkpt lat="37.186082" lon="-3.458247">
        <ele>1060</ele>
        <time>2018-07-14T07:06:48.009Z</time>
      </trkpt>
      <trkpt lat="37.186092" lon="-3.458319">
        <ele>1060</ele>
        <time>2018-07-14T07:06:50.009Z</time>
      </trkpt>
      <trkpt lat="37.1861" lon="-3.458388">
        <ele>1060</ele>
        <time>2018-07-14T07:06:52.009Z</time>
      </trkpt>
      <trkpt lat="37.186082" lon="-3.458481">
        <ele>1059.73099864322</ele>
        <time>2018-07-14T07:06:55.009Z</time>
      </trkpt>
      <trkpt lat="37.186048" lon="-3.458541">
        <ele>1059</ele>
        <time>2018-07-14T07:06:57.009Z</time>
      </trkpt>
      <trkpt lat="37.18601" lon="-3.458599">
        <ele>1059</ele>
        <time>2018-07-14T07:06:59.009Z</time>
      </trkpt>
      <trkpt lat="37.185978" lon="-3.458672">
        <ele>1059</ele>
        <time>2018-07-14T07:07:01.009Z</time>
      </trkpt>
      <trkpt lat="37.185961" lon="-3.458747">
        <ele>1058.73099864322</ele>
        <time>2018-07-14T07:07:03.009Z</time>
      </trkpt>
      <trkpt lat="37.185956" lon="-3.458821">
        <ele>1058</ele>
        <time>2018-07-14T07:07:05.009Z</time>
      </trkpt>
      <trkpt lat="37.185946" lon="-3.458896">
        <ele>1058</ele>
        <time>2018-07-14T07:07:07.009Z</time>
      </trkpt>
      <trkpt lat="37.185937" lon="-3.458998">
        <ele>1058</ele>
        <time>2018-07-14T07:07:10.009Z</time>
      </trkpt>
      <trkpt lat="37.185931" lon="-3.4591">
        <ele>1057.73099864322</ele>
        <time>2018-07-14T07:07:13.009Z</time>
      </trkpt>
      <trkpt lat="37.185935" lon="-3.459169">
        <ele>1056</ele>
        <time>2018-07-14T07:07:16.009Z</time>
      </trkpt>
      <trkpt lat="37.185945" lon="-3.459226">
        <ele>1055</ele>
        <time>2018-07-14T07:07:19.009Z</time>
      </trkpt>
      <trkpt lat="37.185949" lon="-3.459275">
        <ele>1054</ele>
        <time>2018-07-14T07:07:22.009Z</time>
      </trkpt>
      <trkpt lat="37.185958" lon="-3.459351">
        <ele>1053.73099864322</ele>
        <time>2018-07-14T07:07:27.009Z</time>
      </trkpt>
      <trkpt lat="37.185965" lon="-3.459429">
        <ele>1053</ele>
        <time>2018-07-14T07:07:32.009Z</time>
      </trkpt>
      <trkpt lat="37.185974" lon="-3.459504">
        <ele>1053</ele>
        <time>2018-07-14T07:07:37.009Z</time>
      </trkpt>
      <trkpt lat="37.185979" lon="-3.45958">
        <ele>1054</ele>
        <time>2018-07-14T07:07:42.009Z</time>
      </trkpt>
      <trkpt lat="37.185985" lon="-3.45965">
        <ele>1054</ele>
        <time>2018-07-14T07:07:46.009Z</time>
      </trkpt>
      <trkpt lat="37.186003" lon="-3.459736">
        <ele>1055</ele>
        <time>2018-07-14T07:07:50.009Z</time>
      </trkpt>
      <trkpt lat="37.186012" lon="-3.459813">
        <ele>1055</ele>
        <time>2018-07-14T07:07:53.009Z</time>
      </trkpt>
      <trkpt lat="37.186023" lon="-3.459899">
        <ele>1055</ele>
        <time>2018-07-14T07:07:56.009Z</time>
      </trkpt>
      <trkpt lat="37.186115" lon="-3.459945">
        <ele>1054.73100455686</ele>
        <time>2018-07-14T07:08:00.009Z</time>
      </trkpt>
      <trkpt lat="37.186207" lon="-3.459944">
        <ele>1054</ele>
        <time>2018-07-14T07:08:03.009Z</time>
      </trkpt>
      <trkpt lat="37.186306" lon="-3.459953">
        <ele>1053.73100455686</ele>
        <time>2018-07-14T07:08:06.009Z</time>
      </trkpt>
      <trkpt lat="37.186368" lon="-3.45995">
        <ele>1053.73100455686</ele>
        <time>2018-07-14T07:08:08.009Z</time>
      </trkpt>
      <trkpt lat="37.186426" lon="-3.459941">
        <ele>1053</ele>
        <time>2018-07-14T07:08:10.009Z</time>
      </trkpt>
      <trkpt lat="37.186502" lon="-3.459944">
        <ele>1053</ele>
        <time>2018-07-14T07:08:13.009Z</time>
      </trkpt>
      <trkpt lat="37.186429" lon="-3.460049">
        <ele>1052.73100455686</ele>
        <time>2018-07-14T07:08:18.009Z</time>
      </trkpt>
      <trkpt lat="37.186319" lon="-3.460051">
        <ele>1052</ele>
        <time>2018-07-14T07:08:21.009Z</time>
      </trkpt>
      <trkpt lat="37.186227" lon="-3.460085">
        <ele>1052</ele>
        <time>2018-07-14T07:08:24.009Z</time>
      </trkpt>
      <trkpt lat="37.186163" lon="-3.460155">
        <ele>1052</ele>
        <time>2018-07-14T07:08:27.009Z</time>
      </trkpt>
      <trkpt lat="37.186106" lon="-3.460234">
        <ele>1052</ele>
        <time>2018-07-14T07:08:30.009Z</time>
      </trkpt>
      <trkpt lat="37.186038" lon="-3.460326">
        <ele>1053</ele>
        <time>2018-07-14T07:08:34.009Z</time>
      </trkpt>
      <trkpt lat="37.18597" lon="-3.460422">
        <ele>1053</ele>
        <time>2018-07-14T07:08:38.009Z</time>
      </trkpt>
      <trkpt lat="37.185902" lon="-3.460526">
        <ele>1053</ele>
        <time>2018-07-14T07:08:42.009Z</time>
      </trkpt>
      <trkpt lat="37.18584" lon="-3.46063">
        <ele>1053</ele>
        <time>2018-07-14T07:08:46.009Z</time>
      </trkpt>
      <trkpt lat="37.185786" lon="-3.460714">
        <ele>1053</ele>
        <time>2018-07-14T07:08:49.009Z</time>
      </trkpt>
      <trkpt lat="37.185719" lon="-3.460824">
        <ele>1053</ele>
        <time>2018-07-14T07:08:53.009Z</time>
      </trkpt>
      <trkpt lat="37.185653" lon="-3.460897">
        <ele>1053</ele>
        <time>2018-07-14T07:08:56.009Z</time>
      </trkpt>
      <trkpt lat="37.185603" lon="-3.460975">
        <ele>1052</ele>
        <time>2018-07-14T07:08:59.009Z</time>
      </trkpt>
      <trkpt lat="37.185559" lon="-3.461058">
        <ele>1052</ele>
        <time>2018-07-14T07:09:02.009Z</time>
      </trkpt>
      <trkpt lat="37.185512" lon="-3.461143">
        <ele>1053</ele>
        <time>2018-07-14T07:09:05.009Z</time>
      </trkpt>
      <trkpt lat="37.185453" lon="-3.461248">
        <ele>1053</ele>
        <time>2018-07-14T07:09:09.009Z</time>
      </trkpt>
      <trkpt lat="37.185392" lon="-3.46135">
        <ele>1053</ele>
        <time>2018-07-14T07:09:13.009Z</time>
      </trkpt>
      <trkpt lat="37.185334" lon="-3.461459">
        <ele>1054</ele>
        <time>2018-07-14T07:09:17.009Z</time>
      </trkpt>
      <trkpt lat="37.185294" lon="-3.461566">
        <ele>1054.73099864322</ele>
        <time>2018-07-14T07:09:21.009Z</time>
      </trkpt>
      <trkpt lat="37.185281" lon="-3.461672">
        <ele>1054</ele>
        <time>2018-07-14T07:09:24.009Z</time>
      </trkpt>
      <trkpt lat="37.185293" lon="-3.461781">
        <ele>1053</ele>
        <time>2018-07-14T07:09:27.009Z</time>
      </trkpt>
      <trkpt lat="37.185329" lon="-3.461888">
        <ele>1051.73100455686</ele>
        <time>2018-07-14T07:09:30.009Z</time>
      </trkpt>
      <trkpt lat="37.185359" lon="-3.46199">
        <ele>1051</ele>
        <time>2018-07-14T07:09:33.009Z</time>
      </trkpt>
      <trkpt lat="37.185377" lon="-3.462097">
        <ele>1050</ele>
        <time>2018-07-14T07:09:36.009Z</time>
      </trkpt>
      <trkpt lat="37.185382" lon="-3.462208">
        <ele>1050</ele>
        <time>2018-07-14T07:09:39.009Z</time>
      </trkpt>
      <trkpt lat="37.185384" lon="-3.462313">
        <ele>1049</ele>
        <time>2018-07-14T07:09:42.009Z</time>
      </trkpt>
      <trkpt lat="37.185394" lon="-3.462408">
        <ele>1049</ele>
        <time>2018-07-14T07:09:45.009Z</time>
      </trkpt>
      <trkpt lat="37.185378" lon="-3.46253">
        <ele>1048</ele>
        <time>2018-07-14T07:09:49.009Z</time>
      </trkpt>
      <trkpt lat="37.185364" lon="-3.462638">
        <ele>1047.73838615001</ele>
        <time>2018-07-14T07:09:52.009Z</time>
      </trkpt>
      <trkpt lat="37.185374" lon="-3.462746">
        <ele>1047</ele>
        <time>2018-07-14T07:09:55.009Z</time>
      </trkpt>
      <trkpt lat="37.185391" lon="-3.46285">
        <ele>1046</ele>
        <time>2018-07-14T07:09:58.009Z</time>
      </trkpt>
      <trkpt lat="37.185412" lon="-3.462946">
        <ele>1046</ele>
        <time>2018-07-14T07:10:01.009Z</time>
      </trkpt>
      <trkpt lat="37.185443" lon="-3.463035">
        <ele>1046</ele>
        <time>2018-07-14T07:10:04.009Z</time>
      </trkpt>
      <trkpt lat="37.18547" lon="-3.463134">
        <ele>1045</ele>
        <time>2018-07-14T07:10:07.009Z</time>
      </trkpt>
      <trkpt lat="37.185503" lon="-3.463225">
        <ele>1045</ele>
        <time>2018-07-14T07:10:10.009Z</time>
      </trkpt>
      <trkpt lat="37.185531" lon="-3.463309">
        <ele>1045</ele>
        <time>2018-07-14T07:10:13.009Z</time>
      </trkpt>
      <trkpt lat="37.185552" lon="-3.463398">
        <ele>1043.73099864322</ele>
        <time>2018-07-14T07:10:17.009Z</time>
      </trkpt>
      <trkpt lat="37.185558" lon="-3.463477">
        <ele>1042</ele>
        <time>2018-07-14T07:10:21.009Z</time>
      </trkpt>
      <trkpt lat="37.185554" lon="-3.463554">
        <ele>1042</ele>
        <time>2018-07-14T07:10:25.009Z</time>
      </trkpt>
      <trkpt lat="37.185547" lon="-3.463632">
        <ele>1042</ele>
        <time>2018-07-14T07:10:29.009Z</time>
      </trkpt>
      <trkpt lat="37.185543" lon="-3.463709">
        <ele>1042</ele>
        <time>2018-07-14T07:10:32.009Z</time>
      </trkpt>
      <trkpt lat="37.185566" lon="-3.463809">
        <ele>1042</ele>
        <time>2018-07-14T07:10:35.009Z</time>
      </trkpt>
      <trkpt lat="37.185618" lon="-3.463897">
        <ele>1042</ele>
        <time>2018-07-14T07:10:38.009Z</time>
      </trkpt>
      <trkpt lat="37.185662" lon="-3.463954">
        <ele>1042</ele>
        <time>2018-07-14T07:10:40.009Z</time>
      </trkpt>
      <trkpt lat="37.185725" lon="-3.464029">
        <ele>1042</ele>
        <time>2018-07-14T07:10:43.009Z</time>
      </trkpt>
      <trkpt lat="37.185776" lon="-3.464106">
        <ele>1042</ele>
        <time>2018-07-14T07:10:46.009Z</time>
      </trkpt>
      <trkpt lat="37.185818" lon="-3.464196">
        <ele>1042</ele>
        <time>2018-07-14T07:10:49.009Z</time>
      </trkpt>
      <trkpt lat="37.185847" lon="-3.464284">
        <ele>1041.73100455686</ele>
        <time>2018-07-14T07:10:52.009Z</time>
      </trkpt>
      <trkpt lat="37.185856" lon="-3.464381">
        <ele>1042</ele>
        <time>2018-07-14T07:10:55.009Z</time>
      </trkpt>
      <trkpt lat="37.185862" lon="-3.464487">
        <ele>1041.73100455686</ele>
        <time>2018-07-14T07:10:58.009Z</time>
      </trkpt>
      <trkpt lat="37.185864" lon="-3.464594">
        <ele>1041</ele>
        <time>2018-07-14T07:11:01.009Z</time>
      </trkpt>
      <trkpt lat="37.185828" lon="-3.46471">
        <ele>1042</ele>
        <time>2018-07-14T07:11:05.009Z</time>
      </trkpt>
      <trkpt lat="37.185757" lon="-3.464759">
        <ele>1041.73100455686</ele>
        <time>2018-07-14T07:11:08.009Z</time>
      </trkpt>
      <trkpt lat="37.185699" lon="-3.464797">
        <ele>1041</ele>
        <time>2018-07-14T07:11:10.009Z</time>
      </trkpt>
      <trkpt lat="37.185631" lon="-3.464871">
        <ele>1041</ele>
        <time>2018-07-14T07:11:13.009Z</time>
      </trkpt>
      <trkpt lat="37.185565" lon="-3.464995">
        <ele>1042</ele>
        <time>2018-07-14T07:11:17.009Z</time>
      </trkpt>
      <trkpt lat="37.185522" lon="-3.46512">
        <ele>1041</ele>
        <time>2018-07-14T07:11:21.009Z</time>
      </trkpt>
      <trkpt lat="37.185452" lon="-3.465245">
        <ele>1041</ele>
        <time>2018-07-14T07:11:25.009Z</time>
      </trkpt>
      <trkpt lat="37.185396" lon="-3.465321">
        <ele>1040</ele>
        <time>2018-07-14T07:11:28.009Z</time>
      </trkpt>
      <trkpt lat="37.185331" lon="-3.465375">
        <ele>1039.73099864322</ele>
        <time>2018-07-14T07:11:31.009Z</time>
      </trkpt>
      <trkpt lat="37.185246" lon="-3.465411">
        <ele>1038.73100455686</ele>
        <time>2018-07-14T07:11:34.009Z</time>
      </trkpt>
      <trkpt lat="37.185154" lon="-3.465438">
        <ele>1038</ele>
        <time>2018-07-14T07:11:37.009Z</time>
      </trkpt>
      <trkpt lat="37.185064" lon="-3.465452">
        <ele>1038</ele>
        <time>2018-07-14T07:11:40.009Z</time>
      </trkpt>
      <trkpt lat="37.184966" lon="-3.465435">
        <ele>1038</ele>
        <time>2018-07-14T07:11:43.009Z</time>
      </trkpt>
      <trkpt lat="37.184867" lon="-3.465435">
        <ele>1037</ele>
        <time>2018-07-14T07:11:46.009Z</time>
      </trkpt>
      <trkpt lat="37.184747" lon="-3.465417">
        <ele>1037</ele>
        <time>2018-07-14T07:11:50.009Z</time>
      </trkpt>
      <trkpt lat="37.184657" lon="-3.465403">
        <ele>1036</ele>
        <time>2018-07-14T07:11:53.009Z</time>
      </trkpt>
      <trkpt lat="37.184561" lon="-3.465394">
        <ele>1035.73100455686</ele>
        <time>2018-07-14T07:11:56.009Z</time>
      </trkpt>
      <trkpt lat="37.184468" lon="-3.465383">
        <ele>1034</ele>
        <time>2018-07-14T07:11:59.009Z</time>
      </trkpt>
      <trkpt lat="37.184379" lon="-3.465353">
        <ele>1032.73100455686</ele>
        <time>2018-07-14T07:12:02.009Z</time>
      </trkpt>
      <trkpt lat="37.184279" lon="-3.465287">
        <ele>1028.73100455686</ele>
        <time>2018-07-14T07:12:06.009Z</time>
      </trkpt>
      <trkpt lat="37.184255" lon="-3.465263">
        <ele>1027.73099864322</ele>
        <time>2018-07-14T07:12:07.009Z</time>
      </trkpt>
      <trkpt lat="37.184231" lon="-3.465241">
        <ele>1027</ele>
        <time>2018-07-14T07:12:08.009Z</time>
      </trkpt>
      <trkpt lat="37.184135" lon="-3.465147">
        <ele>1024</ele>
        <time>2018-07-14T07:12:12.009Z</time>
      </trkpt>
      <trkpt lat="37.184017" lon="-3.465119">
        <ele>1024</ele>
        <time>2018-07-14T07:12:16.009Z</time>
      </trkpt>
      <trkpt lat="37.183977" lon="-3.465237">
        <ele>1021</ele>
        <time>2018-07-14T07:12:19.009Z</time>
      </trkpt>
      <trkpt lat="37.183987" lon="-3.4653">
        <ele>1020.46200911372</ele>
        <time>2018-07-14T07:12:20.009Z</time>
      </trkpt>
      <trkpt lat="37.184046" lon="-3.465411">
        <ele>1018.73099864322</ele>
        <time>2018-07-14T07:12:23.009Z</time>
      </trkpt>
      <trkpt lat="37.184118" lon="-3.465487">
        <ele>1018</ele>
        <time>2018-07-14T07:12:26.009Z</time>
      </trkpt>
      <trkpt lat="37.184165" lon="-3.4656">
        <ele>1017</ele>
        <time>2018-07-14T07:12:30.009Z</time>
      </trkpt>
      <trkpt lat="37.184212" lon="-3.465715">
        <ele>1017</ele>
        <time>2018-07-14T07:12:34.009Z</time>
      </trkpt>
      <trkpt lat="37.184265" lon="-3.465826">
        <ele>1017</ele>
        <time>2018-07-14T07:12:38.009Z</time>
      </trkpt>
      <trkpt lat="37.184314" lon="-3.465947">
        <ele>1016.73100455686</ele>
        <time>2018-07-14T07:12:42.009Z</time>
      </trkpt>
      <trkpt lat="37.184371" lon="-3.466057">
        <ele>1017</ele>
        <time>2018-07-14T07:12:46.009Z</time>
      </trkpt>
      <trkpt lat="37.184437" lon="-3.466166">
        <ele>1017</ele>
        <time>2018-07-14T07:12:50.009Z</time>
      </trkpt>
      <trkpt lat="37.184499" lon="-3.466281">
        <ele>1017</ele>
        <time>2018-07-14T07:12:54.009Z</time>
      </trkpt>
      <trkpt lat="37.18456" lon="-3.466397">
        <ele>1017</ele>
        <time>2018-07-14T07:12:58.009Z</time>
      </trkpt>
      <trkpt lat="37.184606" lon="-3.466487">
        <ele>1017</ele>
        <time>2018-07-14T07:13:01.009Z</time>
      </trkpt>
      <trkpt lat="37.18466" lon="-3.466572">
        <ele>1016.73100455686</ele>
        <time>2018-07-14T07:13:04.009Z</time>
      </trkpt>
      <trkpt lat="37.18471" lon="-3.466655">
        <ele>1016</ele>
        <time>2018-07-14T07:13:07.009Z</time>
      </trkpt>
      <trkpt lat="37.184764" lon="-3.466721">
        <ele>1017</ele>
        <time>2018-07-14T07:13:10.009Z</time>
      </trkpt>
      <trkpt lat="37.184799" lon="-3.466843">
        <ele>1016</ele>
        <time>2018-07-14T07:13:14.009Z</time>
      </trkpt>
      <trkpt lat="37.184794" lon="-3.466973">
        <ele>1017</ele>
        <time>2018-07-14T07:13:18.009Z</time>
      </trkpt>
      <trkpt lat="37.1848" lon="-3.46712">
        <ele>1018.26899544314</ele>
        <time>2018-07-14T07:13:22.009Z</time>
      </trkpt>
      <trkpt lat="37.184836" lon="-3.46724">
        <ele>1021</ele>
        <time>2018-07-14T07:13:26.009Z</time>
      </trkpt>
      <trkpt lat="37.184903" lon="-3.467337">
        <ele>1021</ele>
        <time>2018-07-14T07:13:30.009Z</time>
      </trkpt>
      <trkpt lat="37.184987" lon="-3.467428">
        <ele>1020.73100455686</ele>
        <time>2018-07-14T07:13:34.009Z</time>
      </trkpt>
      <trkpt lat="37.185097" lon="-3.467505">
        <ele>1019</ele>
        <time>2018-07-14T07:13:38.009Z</time>
      </trkpt>
      <trkpt lat="37.185185" lon="-3.467547">
        <ele>1017.73099864322</ele>
        <time>2018-07-14T07:13:41.009Z</time>
      </trkpt>
      <trkpt lat="37.185257" lon="-3.467573">
        <ele>1017</ele>
        <time>2018-07-14T07:13:43.009Z</time>
      </trkpt>
      <trkpt lat="37.185362" lon="-3.467627">
        <ele>1016.73099864322</ele>
        <time>2018-07-14T07:13:47.009Z</time>
      </trkpt>
      <trkpt lat="37.185431" lon="-3.467713">
        <ele>1016</ele>
        <time>2018-07-14T07:13:51.009Z</time>
      </trkpt>
      <trkpt lat="37.185467" lon="-3.46781">
        <ele>1015</ele>
        <time>2018-07-14T07:13:55.009Z</time>
      </trkpt>
      <trkpt lat="37.185448" lon="-3.467924">
        <ele>1015</ele>
        <time>2018-07-14T07:14:00.009Z</time>
      </trkpt>
      <trkpt lat="37.185375" lon="-3.468027">
        <ele>1016</ele>
        <time>2018-07-14T07:14:05.009Z</time>
      </trkpt>
      <trkpt lat="37.185293" lon="-3.468114">
        <ele>1017</ele>
        <time>2018-07-14T07:14:10.009Z</time>
      </trkpt>
      <trkpt lat="37.185223" lon="-3.46816">
        <ele>1017.26900135678</ele>
        <time>2018-07-14T07:14:13.009Z</time>
      </trkpt>
      <trkpt lat="37.185113" lon="-3.468228">
        <ele>1018</ele>
        <time>2018-07-14T07:14:18.009Z</time>
      </trkpt>
      <trkpt lat="37.185015" lon="-3.46829">
        <ele>1019</ele>
        <time>2018-07-14T07:14:22.009Z</time>
      </trkpt>
      <trkpt lat="37.184921" lon="-3.468349">
        <ele>1019</ele>
        <time>2018-07-14T07:14:26.009Z</time>
      </trkpt>
      <trkpt lat="37.184839" lon="-3.46839">
        <ele>1020</ele>
        <time>2018-07-14T07:14:29.009Z</time>
      </trkpt>
      <trkpt lat="37.184769" lon="-3.468433">
        <ele>1021</ele>
        <time>2018-07-14T07:14:32.009Z</time>
      </trkpt>
      <trkpt lat="37.184689" lon="-3.468511">
        <ele>1022</ele>
        <time>2018-07-14T07:14:36.009Z</time>
      </trkpt>
      <trkpt lat="37.184621" lon="-3.468616">
        <ele>1022</ele>
        <time>2018-07-14T07:14:40.009Z</time>
      </trkpt>
      <trkpt lat="37.184553" lon="-3.468722">
        <ele>1023</ele>
        <time>2018-07-14T07:14:45.009Z</time>
      </trkpt>
      <trkpt lat="37.184505" lon="-3.468824">
        <ele>1022.26161384999</ele>
        <time>2018-07-14T07:14:52.009Z</time>
      </trkpt>
      <trkpt lat="37.184454" lon="-3.468902">
        <ele>1024</ele>
        <time>2018-07-14T07:14:57.009Z</time>
      </trkpt>
      <trkpt lat="37.184397" lon="-3.469001">
        <ele>1022</ele>
        <time>2018-07-14T07:15:04.009Z</time>
      </trkpt>
      <trkpt lat="37.184347" lon="-3.469076">
        <ele>1023</ele>
        <time>2018-07-14T07:15:09.009Z</time>
      </trkpt>
      <trkpt lat="37.184314" lon="-3.469165">
        <ele>1022</ele>
        <time>2018-07-14T07:15:14.009Z</time>
      </trkpt>
      <trkpt lat="37.184284" lon="-3.469229">
        <ele>1021</ele>
        <time>2018-07-14T07:15:18.009Z</time>
      </trkpt>
      <trkpt lat="37.184244" lon="-3.469309">
        <ele>1019.73099864322</ele>
        <time>2018-07-14T07:15:23.009Z</time>
      </trkpt>
      <trkpt lat="37.184208" lon="-3.469381">
        <ele>1017</ele>
        <time>2018-07-14T07:15:27.009Z</time>
      </trkpt>
      <trkpt lat="37.184179" lon="-3.469451">
        <ele>1016.73100455686</ele>
        <time>2018-07-14T07:15:32.009Z</time>
      </trkpt>
      <trkpt lat="37.184126" lon="-3.469491">
        <ele>1016</ele>
        <time>2018-07-14T07:15:37.009Z</time>
      </trkpt>
      <trkpt lat="37.184079" lon="-3.469534">
        <ele>1016</ele>
        <time>2018-07-14T07:15:42.009Z</time>
      </trkpt>
      <trkpt lat="37.184031" lon="-3.469557">
        <ele>1017</ele>
        <time>2018-07-14T07:15:46.009Z</time>
      </trkpt>
      <trkpt lat="37.183971" lon="-3.469589">
        <ele>1017</ele>
        <time>2018-07-14T07:15:52.009Z</time>
      </trkpt>
      <trkpt lat="37.183886" lon="-3.469636">
        <ele>1017.73100455686</ele>
        <time>2018-07-14T07:16:00.009Z</time>
      </trkpt>
      <trkpt lat="37.183828" lon="-3.469668">
        <ele>1018</ele>
        <time>2018-07-14T07:16:05.009Z</time>
      </trkpt>
      <trkpt lat="37.183771" lon="-3.469697">
        <ele>1019</ele>
        <time>2018-07-14T07:16:10.009Z</time>
      </trkpt>
      <trkpt lat="37.183704" lon="-3.469748">
        <ele>1020</ele>
        <time>2018-07-14T07:16:17.009Z</time>
      </trkpt>
      <trkpt lat="37.183651" lon="-3.469796">
        <ele>1021</ele>
        <time>2018-07-14T07:16:23.009Z</time>
      </trkpt>
      <trkpt lat="37.183594" lon="-3.469846">
        <ele>1022</ele>
        <time>2018-07-14T07:16:30.009Z</time>
      </trkpt>
      <trkpt lat="37.183537" lon="-3.469874">
        <ele>1023</ele>
        <time>2018-07-14T07:16:36.009Z</time>
      </trkpt>
      <trkpt lat="37.183466" lon="-3.469906">
        <ele>1023</ele>
        <time>2018-07-14T07:16:41.009Z</time>
      </trkpt>
      <trkpt lat="37.183387" lon="-3.469922">
        <ele>1025</ele>
        <time>2018-07-14T07:16:49.009Z</time>
      </trkpt>
      <trkpt lat="37.183295" lon="-3.469884">
        <ele>1026</ele>
        <time>2018-07-14T07:16:59.009Z</time>
      </trkpt>
      <trkpt lat="37.183188" lon="-3.469872">
        <ele>1028</ele>
        <time>2018-07-14T07:17:08.009Z</time>
      </trkpt>
      <trkpt lat="37.183092" lon="-3.469875">
        <ele>1030</ele>
        <time>2018-07-14T07:17:16.009Z</time>
      </trkpt>
      <trkpt lat="37.183031" lon="-3.469949">
        <ele>1029</ele>
        <time>2018-07-14T07:17:25.009Z</time>
      </trkpt>
      <trkpt lat="37.182983" lon="-3.470059">
        <ele>1030</ele>
        <time>2018-07-14T07:17:33.009Z</time>
      </trkpt>
      <trkpt lat="37.18293" lon="-3.470145">
        <ele>1031</ele>
        <time>2018-07-14T07:17:41.009Z</time>
      </trkpt>
      <trkpt lat="37.182861" lon="-3.47024">
        <ele>1033</ele>
        <time>2018-07-14T07:17:51.009Z</time>
      </trkpt>
      <trkpt lat="37.182792" lon="-3.470321">
        <ele>1034</ele>
        <time>2018-07-14T07:17:58.009Z</time>
      </trkpt>
      <trkpt lat="37.182736" lon="-3.470423">
        <ele>1036</ele>
        <time>2018-07-14T07:18:07.009Z</time>
      </trkpt>
      <trkpt lat="37.182686" lon="-3.470525">
        <ele>1037</ele>
        <time>2018-07-14T07:18:15.009Z</time>
      </trkpt>
      <trkpt lat="37.18263" lon="-3.470637">
        <ele>1040</ele>
        <time>2018-07-14T07:18:26.009Z</time>
      </trkpt>
      <trkpt lat="37.182592" lon="-3.470736">
        <ele>1043</ele>
        <time>2018-07-14T07:18:33.009Z</time>
      </trkpt>
      <trkpt lat="37.182566" lon="-3.47082">
        <ele>1045</ele>
        <time>2018-07-14T07:18:40.009Z</time>
      </trkpt>
      <trkpt lat="37.182533" lon="-3.470899">
        <ele>1047</ele>
        <time>2018-07-14T07:18:46.009Z</time>
      </trkpt>
      <trkpt lat="37.182498" lon="-3.470971">
        <ele>1048</ele>
        <time>2018-07-14T07:18:52.009Z</time>
      </trkpt>
      <trkpt lat="37.18244" lon="-3.471048">
        <ele>1050</ele>
        <time>2018-07-14T07:18:59.009Z</time>
      </trkpt>
      <trkpt lat="37.182392" lon="-3.4711">
        <ele>1051</ele>
        <time>2018-07-14T07:19:05.009Z</time>
      </trkpt>
      <trkpt lat="37.182326" lon="-3.471148">
        <ele>1052</ele>
        <time>2018-07-14T07:19:12.009Z</time>
      </trkpt>
      <trkpt lat="37.182265" lon="-3.471194">
        <ele>1052.26899544314</ele>
        <time>2018-07-14T07:19:18.009Z</time>
      </trkpt>
      <trkpt lat="37.182196" lon="-3.47123">
        <ele>1053</ele>
        <time>2018-07-14T07:19:24.009Z</time>
      </trkpt>
      <trkpt lat="37.182127" lon="-3.471269">
        <ele>1053</ele>
        <time>2018-07-14T07:19:30.009Z</time>
      </trkpt>
      <trkpt lat="37.182061" lon="-3.471302">
        <ele>1054</ele>
        <time>2018-07-14T07:19:36.009Z</time>
      </trkpt>
      <trkpt lat="37.182002" lon="-3.471328">
        <ele>1055</ele>
        <time>2018-07-14T07:19:41.009Z</time>
      </trkpt>
      <trkpt lat="37.181952" lon="-3.471343">
        <ele>1056</ele>
        <time>2018-07-14T07:19:45.009Z</time>
      </trkpt>
      <trkpt lat="37.181896" lon="-3.471357">
        <ele>1056</ele>
        <time>2018-07-14T07:19:50.009Z</time>
      </trkpt>
      <trkpt lat="37.181842" lon="-3.471372">
        <ele>1057</ele>
        <time>2018-07-14T07:19:55.009Z</time>
      </trkpt>
      <trkpt lat="37.181786" lon="-3.471388">
        <ele>1058</ele>
        <time>2018-07-14T07:19:59.009Z</time>
      </trkpt>
      <trkpt lat="37.181733" lon="-3.471402">
        <ele>1059</ele>
        <time>2018-07-14T07:20:03.009Z</time>
      </trkpt>
      <trkpt lat="37.18168" lon="-3.47141">
        <ele>1060</ele>
        <time>2018-07-14T07:20:07.009Z</time>
      </trkpt>
      <trkpt lat="37.181629" lon="-3.471416">
        <ele>1060</ele>
        <time>2018-07-14T07:20:11.009Z</time>
      </trkpt>
      <trkpt lat="37.181572" lon="-3.471422">
        <ele>1060.26900135678</ele>
        <time>2018-07-14T07:20:15.009Z</time>
      </trkpt>
      <trkpt lat="37.181509" lon="-3.471433">
        <ele>1060</ele>
        <time>2018-07-14T07:20:20.009Z</time>
      </trkpt>
      <trkpt lat="37.18143" lon="-3.471452">
        <ele>1060</ele>
        <time>2018-07-14T07:20:26.009Z</time>
      </trkpt>
      <trkpt lat="37.18132" lon="-3.471476">
        <ele>1061.26899544314</ele>
        <time>2018-07-14T07:20:34.009Z</time>
      </trkpt>
      <trkpt lat="37.181226" lon="-3.471479">
        <ele>1063</ele>
        <time>2018-07-14T07:20:43.009Z</time>
      </trkpt>
      <trkpt lat="37.181138" lon="-3.471498">
        <ele>1063.26899544314</ele>
        <time>2018-07-14T07:20:50.009Z</time>
      </trkpt>
      <trkpt lat="37.181044" lon="-3.471518">
        <ele>1065</ele>
        <time>2018-07-14T07:20:58.009Z</time>
      </trkpt>
      <trkpt lat="37.180955" lon="-3.47152">
        <ele>1067</ele>
        <time>2018-07-14T07:21:05.009Z</time>
      </trkpt>
      <trkpt lat="37.180844" lon="-3.471518">
        <ele>1070.26899544314</ele>
        <time>2018-07-14T07:21:12.009Z</time>
      </trkpt>
      <trkpt lat="37.180761" lon="-3.471488">
        <ele>1072</ele>
        <time>2018-07-14T07:21:18.009Z</time>
      </trkpt>
      <trkpt lat="37.180676" lon="-3.471475">
        <ele>1072</ele>
        <time>2018-07-14T07:21:24.009Z</time>
      </trkpt>
      <trkpt lat="37.18058" lon="-3.471471">
        <ele>1073.26899544314</ele>
        <time>2018-07-14T07:21:30.009Z</time>
      </trkpt>
      <trkpt lat="37.180482" lon="-3.471464">
        <ele>1074</ele>
        <time>2018-07-14T07:21:38.009Z</time>
      </trkpt>
      <trkpt lat="37.180399" lon="-3.471456">
        <ele>1073</ele>
        <time>2018-07-14T07:21:45.009Z</time>
      </trkpt>
      <trkpt lat="37.180302" lon="-3.471443">
        <ele>1073</ele>
        <time>2018-07-14T07:21:52.009Z</time>
      </trkpt>
      <trkpt lat="37.180232" lon="-3.471454">
        <ele>1073.26899544314</ele>
        <time>2018-07-14T07:21:56.009Z</time>
      </trkpt>
      <trkpt lat="37.180131" lon="-3.471449">
        <ele>1073</ele>
        <time>2018-07-14T07:22:02.009Z</time>
      </trkpt>
      <trkpt lat="37.180037" lon="-3.471439">
        <ele>1075</ele>
        <time>2018-07-14T07:22:08.009Z</time>
      </trkpt>
      <trkpt lat="37.179957" lon="-3.4714">
        <ele>1075</ele>
        <time>2018-07-14T07:22:14.009Z</time>
      </trkpt>
      <trkpt lat="37.179859" lon="-3.471357">
        <ele>1077</ele>
        <time>2018-07-14T07:22:22.009Z</time>
      </trkpt>
      <trkpt lat="37.179763" lon="-3.471303">
        <ele>1079</ele>
        <time>2018-07-14T07:22:31.009Z</time>
      </trkpt>
      <trkpt lat="37.179661" lon="-3.471309">
        <ele>1079</ele>
        <time>2018-07-14T07:22:37.009Z</time>
      </trkpt>
      <trkpt lat="37.179567" lon="-3.4713">
        <ele>1082.26899544314</ele>
        <time>2018-07-14T07:22:44.009Z</time>
      </trkpt>
      <trkpt lat="37.179486" lon="-3.471216">
        <ele>1088</ele>
        <time>2018-07-14T07:22:54.009Z</time>
      </trkpt>
      <trkpt lat="37.179418" lon="-3.471183">
        <ele>1087</ele>
        <time>2018-07-14T07:23:02.009Z</time>
      </trkpt>
      <trkpt lat="37.179352" lon="-3.471183">
        <ele>1086.26899544314</ele>
        <time>2018-07-14T07:23:10.009Z</time>
      </trkpt>
      <trkpt lat="37.179276" lon="-3.471098">
        <ele>1089</ele>
        <time>2018-07-14T07:23:24.009Z</time>
      </trkpt>
      <trkpt lat="37.179182" lon="-3.471043">
        <ele>1096.26632955669</ele>
        <time>2018-07-14T07:23:38.009Z</time>
      </trkpt>
      <trkpt lat="37.179088" lon="-3.471006">
        <ele>1097</ele>
        <time>2018-07-14T07:23:48.009Z</time>
      </trkpt>
      <trkpt lat="37.179008" lon="-3.470922">
        <ele>1101</ele>
        <time>2018-07-14T07:24:00.009Z</time>
      </trkpt>
      <trkpt lat="37.178911" lon="-3.470885">
        <ele>1101.73099864322</ele>
        <time>2018-07-14T07:24:11.009Z</time>
      </trkpt>
      <trkpt lat="37.17883" lon="-3.470825">
        <ele>1102</ele>
        <time>2018-07-14T07:24:20.009Z</time>
      </trkpt>
      <trkpt lat="37.178786" lon="-3.470795">
        <ele>1107.53800271357</ele>
        <time>2018-07-14T07:24:29.009Z</time>
      </trkpt>
      <trkpt lat="37.178696" lon="-3.470761">
        <ele>1111.26900135678</ele>
        <time>2018-07-14T07:24:43.009Z</time>
      </trkpt>
      <trkpt lat="37.178608" lon="-3.470697">
        <ele>1117</ele>
        <time>2018-07-14T07:24:58.009Z</time>
      </trkpt>
      <trkpt lat="37.17853" lon="-3.470635">
        <ele>1119</ele>
        <time>2018-07-14T07:25:14.009Z</time>
      </trkpt>
      <trkpt lat="37.178468" lon="-3.470538">
        <ele>1120</ele>
        <time>2018-07-14T07:25:32.009Z</time>
      </trkpt>
      <trkpt lat="37.178389" lon="-3.470461">
        <ele>1121</ele>
        <time>2018-07-14T07:25:50.009Z</time>
      </trkpt>
      <trkpt lat="37.178349" lon="-3.470453">
        <ele>1121.26899544314</ele>
        <time>2018-07-14T07:25:56.009Z</time>
      </trkpt>
      <trkpt lat="37.178267" lon="-3.470384">
        <ele>1127</ele>
        <time>2018-07-14T07:26:17.009Z</time>
      </trkpt>
      <trkpt lat="37.178166" lon="-3.470366">
        <ele>1130.26899544314</ele>
        <time>2018-07-14T07:26:30.009Z</time>
      </trkpt>
      <trkpt lat="37.178104" lon="-3.470284">
        <ele>1137</ele>
        <time>2018-07-14T07:26:46.009Z</time>
      </trkpt>
      <trkpt lat="37.178018" lon="-3.470213">
        <ele>1141.73099864322</ele>
        <time>2018-07-14T07:27:07.009Z</time>
      </trkpt>
      <trkpt lat="37.17792" lon="-3.470178">
        <ele>1143</ele>
        <time>2018-07-14T07:27:16.009Z</time>
      </trkpt>
      <trkpt lat="37.17785" lon="-3.470166">
        <ele>1142</ele>
        <time>2018-07-14T07:27:30.009Z</time>
      </trkpt>
      <trkpt lat="37.177777" lon="-3.470126">
        <ele>1143</ele>
        <time>2018-07-14T07:27:39.009Z</time>
      </trkpt>
      <trkpt lat="37.177698" lon="-3.470059">
        <ele>1144</ele>
        <time>2018-07-14T07:27:50.009Z</time>
      </trkpt>
      <trkpt lat="37.177634" lon="-3.469986">
        <ele>1142</ele>
        <time>2018-07-14T07:28:01.009Z</time>
      </trkpt>
      <trkpt lat="37.177539" lon="-3.46993">
        <ele>1146</ele>
        <time>2018-07-14T07:28:18.009Z</time>
      </trkpt>
      <trkpt lat="37.177444" lon="-3.469879">
        <ele>1149</ele>
        <time>2018-07-14T07:28:30.009Z</time>
      </trkpt>
      <trkpt lat="37.177357" lon="-3.469801">
        <ele>1149.26900135678</ele>
        <time>2018-07-14T07:28:41.009Z</time>
      </trkpt>
      <trkpt lat="37.17731" lon="-3.46977">
        <ele>1150.2663388546</ele>
        <time>2018-07-14T07:28:47.009Z</time>
      </trkpt>
      <trkpt lat="37.177257" lon="-3.46974">
        <ele>1151</ele>
        <time>2018-07-14T07:28:53.009Z</time>
      </trkpt>
      <trkpt lat="37.177193" lon="-3.469642">
        <ele>1151</ele>
        <time>2018-07-14T07:29:05.009Z</time>
      </trkpt>
      <trkpt lat="37.177119" lon="-3.469564">
        <ele>1152</ele>
        <time>2018-07-14T07:29:15.009Z</time>
      </trkpt>
      <trkpt lat="37.177048" lon="-3.469472">
        <ele>1155.26899544314</ele>
        <time>2018-07-14T07:29:28.009Z</time>
      </trkpt>
      <trkpt lat="37.176955" lon="-3.469425">
        <ele>1160</ele>
        <time>2018-07-14T07:29:41.009Z</time>
      </trkpt>
      <trkpt lat="37.176908" lon="-3.469312">
        <ele>1162.26900135678</ele>
        <time>2018-07-14T07:29:55.009Z</time>
      </trkpt>
      <trkpt lat="37.176855" lon="-3.469286">
        <ele>1164</ele>
        <time>2018-07-14T07:30:04.009Z</time>
      </trkpt>
      <trkpt lat="37.176769" lon="-3.469222">
        <ele>1168</ele>
        <time>2018-07-14T07:30:20.009Z</time>
      </trkpt>
      <trkpt lat="37.176725" lon="-3.469177">
        <ele>1174.26900135678</ele>
        <time>2018-07-14T07:30:29.009Z</time>
      </trkpt>
      <trkpt lat="37.176663" lon="-3.469165">
        <ele>1176</ele>
        <time>2018-07-14T07:30:33.009Z</time>
      </trkpt>
      <trkpt lat="37.176584" lon="-3.469075">
        <ele>1178</ele>
        <time>2018-07-14T07:30:48.009Z</time>
      </trkpt>
      <trkpt lat="37.176544" lon="-3.469028">
        <ele>1181</ele>
        <time>2018-07-14T07:30:54.009Z</time>
      </trkpt>
      <trkpt lat="37.17648" lon="-3.468987">
        <ele>1183</ele>
        <time>2018-07-14T07:31:05.009Z</time>
      </trkpt>
      <trkpt lat="37.176411" lon="-3.468928">
        <ele>1184.73099864322</ele>
        <time>2018-07-14T07:31:19.009Z</time>
      </trkpt>
      <trkpt lat="37.176341" lon="-3.468841">
        <ele>1188</ele>
        <time>2018-07-14T07:31:36.009Z</time>
      </trkpt>
      <trkpt lat="37.176253" lon="-3.4688">
        <ele>1190</ele>
        <time>2018-07-14T07:31:46.009Z</time>
      </trkpt>
      <trkpt lat="37.176155" lon="-3.468744">
        <ele>1196.26900135678</ele>
        <time>2018-07-14T07:32:05.009Z</time>
      </trkpt>
      <trkpt lat="37.176058" lon="-3.468709">
        <ele>1203</ele>
        <time>2018-07-14T07:32:20.009Z</time>
      </trkpt>
      <trkpt lat="37.176008" lon="-3.468823">
        <ele>1206</ele>
        <time>2018-07-14T07:32:34.009Z</time>
      </trkpt>
      <trkpt lat="37.175998" lon="-3.468947">
        <ele>1205</ele>
        <time>2018-07-14T07:32:42.009Z</time>
      </trkpt>
      <trkpt lat="37.176007" lon="-3.46908">
        <ele>1204.46200911372</ele>
        <time>2018-07-14T07:32:52.009Z</time>
      </trkpt>
      <trkpt lat="37.175997" lon="-3.469169">
        <ele>1203</ele>
        <time>2018-07-14T07:32:59.009Z</time>
      </trkpt>
      <trkpt lat="37.175999" lon="-3.469249">
        <ele>1204</ele>
        <time>2018-07-14T07:33:05.009Z</time>
      </trkpt>
      <trkpt lat="37.175989" lon="-3.469338">
        <ele>1201.26900135678</ele>
        <time>2018-07-14T07:33:11.009Z</time>
      </trkpt>
      <trkpt lat="37.17597" lon="-3.469422">
        <ele>1202</ele>
        <time>2018-07-14T07:33:17.009Z</time>
      </trkpt>
      <trkpt lat="37.17595" lon="-3.469506">
        <ele>1203</ele>
        <time>2018-07-14T07:33:28.009Z</time>
      </trkpt>
      <trkpt lat="37.175903" lon="-3.469577">
        <ele>1203.26899544314</ele>
        <time>2018-07-14T07:33:34.009Z</time>
      </trkpt>
      <trkpt lat="37.175868" lon="-3.469611">
        <ele>1204</ele>
        <time>2018-07-14T07:33:38.009Z</time>
      </trkpt>
      <trkpt lat="37.175879" lon="-3.469713">
        <ele>1205</ele>
        <time>2018-07-14T07:33:45.009Z</time>
      </trkpt>
      <trkpt lat="37.175928" lon="-3.469794">
        <ele>1204</ele>
        <time>2018-07-14T07:33:51.009Z</time>
      </trkpt>
      <trkpt lat="37.175947" lon="-3.469885">
        <ele>1203</ele>
        <time>2018-07-14T07:33:59.009Z</time>
      </trkpt>
      <trkpt lat="37.175984" lon="-3.469984">
        <ele>1202.14699093503</ele>
        <time>2018-07-14T07:34:08.009Z</time>
      </trkpt>
      <trkpt lat="37.176003" lon="-3.47007">
        <ele>1204</ele>
        <time>2018-07-14T07:34:14.009Z</time>
      </trkpt>
      <trkpt lat="37.176007" lon="-3.470156">
        <ele>1204</ele>
        <time>2018-07-14T07:34:21.009Z</time>
      </trkpt>
      <trkpt lat="37.175979" lon="-3.470272">
        <ele>1205.26900135678</ele>
        <time>2018-07-14T07:34:31.009Z</time>
      </trkpt>
      <trkpt lat="37.175982" lon="-3.470382">
        <ele>1206</ele>
        <time>2018-07-14T07:34:39.009Z</time>
      </trkpt>
      <trkpt lat="37.176004" lon="-3.470508">
        <ele>1207</ele>
        <time>2018-07-14T07:34:50.009Z</time>
      </trkpt>
      <trkpt lat="37.176061" lon="-3.470592">
        <ele>1209</ele>
        <time>2018-07-14T07:34:56.009Z</time>
      </trkpt>
      <trkpt lat="37.176109" lon="-3.470654">
        <ele>1208</ele>
        <time>2018-07-14T07:35:01.009Z</time>
      </trkpt>
      <trkpt lat="37.176154" lon="-3.470719">
        <ele>1208</ele>
        <time>2018-07-14T07:35:06.009Z</time>
      </trkpt>
      <trkpt lat="37.176221" lon="-3.470808">
        <ele>1210</ele>
        <time>2018-07-14T07:35:14.009Z</time>
      </trkpt>
      <trkpt lat="37.176255" lon="-3.470881">
        <ele>1212</ele>
        <time>2018-07-14T07:35:20.009Z</time>
      </trkpt>
      <trkpt lat="37.176298" lon="-3.470975">
        <ele>1213</ele>
        <time>2018-07-14T07:35:29.009Z</time>
      </trkpt>
      <trkpt lat="37.176323" lon="-3.471044">
        <ele>1213</ele>
        <time>2018-07-14T07:35:34.009Z</time>
      </trkpt>
      <trkpt lat="37.176339" lon="-3.471113">
        <ele>1213</ele>
        <time>2018-07-14T07:35:39.009Z</time>
      </trkpt>
      <trkpt lat="37.176396" lon="-3.471226">
        <ele>1214</ele>
        <time>2018-07-14T07:35:48.009Z</time>
      </trkpt>
      <trkpt lat="37.176425" lon="-3.471289">
        <ele>1215</ele>
        <time>2018-07-14T07:35:54.009Z</time>
      </trkpt>
      <trkpt lat="37.176459" lon="-3.471362">
        <ele>1216</ele>
        <time>2018-07-14T07:36:00.009Z</time>
      </trkpt>
      <trkpt lat="37.176468" lon="-3.471469">
        <ele>1216</ele>
        <time>2018-07-14T07:36:08.009Z</time>
      </trkpt>
      <trkpt lat="37.176424" lon="-3.471524">
        <ele>1216.26161384999</ele>
        <time>2018-07-14T07:36:14.009Z</time>
      </trkpt>
      <trkpt lat="37.176375" lon="-3.471564">
        <ele>1217</ele>
        <time>2018-07-14T07:36:20.009Z</time>
      </trkpt>
      <trkpt lat="37.17631" lon="-3.471592">
        <ele>1219</ele>
        <time>2018-07-14T07:36:29.009Z</time>
      </trkpt>
      <trkpt lat="37.176249" lon="-3.471603">
        <ele>1221</ele>
        <time>2018-07-14T07:36:38.009Z</time>
      </trkpt>
      <trkpt lat="37.176178" lon="-3.471574">
        <ele>1227</ele>
        <time>2018-07-14T07:36:54.009Z</time>
      </trkpt>
      <trkpt lat="37.176115" lon="-3.471514">
        <ele>1231</ele>
        <time>2018-07-14T07:37:08.009Z</time>
      </trkpt>
      <trkpt lat="37.176039" lon="-3.471499">
        <ele>1235.26900135678</ele>
        <time>2018-07-14T07:37:23.009Z</time>
      </trkpt>
      <trkpt lat="37.175972" lon="-3.471491">
        <ele>1238</ele>
        <time>2018-07-14T07:37:35.009Z</time>
      </trkpt>
      <trkpt lat="37.175899" lon="-3.471486">
        <ele>1238</ele>
        <time>2018-07-14T07:38:02.009Z</time>
      </trkpt>
      <trkpt lat="37.175835" lon="-3.471502">
        <ele>1240</ele>
        <time>2018-07-14T07:38:17.009Z</time>
      </trkpt>
      <trkpt lat="37.175735" lon="-3.471474">
        <ele>1245</ele>
        <time>2018-07-14T07:38:35.009Z</time>
      </trkpt>
      <trkpt lat="37.175682" lon="-3.471475">
        <ele>1246</ele>
        <time>2018-07-14T07:38:48.009Z</time>
      </trkpt>
      <trkpt lat="37.175586" lon="-3.47147">
        <ele>1250</ele>
        <time>2018-07-14T07:39:04.009Z</time>
      </trkpt>
      <trkpt lat="37.1755" lon="-3.471436">
        <ele>1254</ele>
        <time>2018-07-14T07:39:19.009Z</time>
      </trkpt>
      <trkpt lat="37.175424" lon="-3.471408">
        <ele>1259</ele>
        <time>2018-07-14T07:39:33.009Z</time>
      </trkpt>
      <trkpt lat="37.175344" lon="-3.47143">
        <ele>1262.26900135678</ele>
        <time>2018-07-14T07:39:49.009Z</time>
      </trkpt>
      <trkpt lat="37.175254" lon="-3.47142">
        <ele>1266</ele>
        <time>2018-07-14T07:40:03.009Z</time>
      </trkpt>
      <trkpt lat="37.175183" lon="-3.471379">
        <ele>1269.26899544314</ele>
        <time>2018-07-14T07:40:18.009Z</time>
      </trkpt>
      <trkpt lat="37.175083" lon="-3.471329">
        <ele>1272</ele>
        <time>2018-07-14T07:40:46.009Z</time>
      </trkpt>
      <trkpt lat="37.174996" lon="-3.471259">
        <ele>1275</ele>
        <time>2018-07-14T07:40:59.009Z</time>
      </trkpt>
      <trkpt lat="37.174897" lon="-3.471223">
        <ele>1277</ele>
        <time>2018-07-14T07:41:11.009Z</time>
      </trkpt>
      <trkpt lat="37.174806" lon="-3.471164">
        <ele>1279</ele>
        <time>2018-07-14T07:41:24.009Z</time>
      </trkpt>
      <trkpt lat="37.174782" lon="-3.471043">
        <ele>1281</ele>
        <time>2018-07-14T07:41:35.009Z</time>
      </trkpt>
      <trkpt lat="37.174689" lon="-3.470992">
        <ele>1286.73100455686</ele>
        <time>2018-07-14T07:41:50.009Z</time>
      </trkpt>
      <trkpt lat="37.174604" lon="-3.471035">
        <ele>1285</ele>
        <time>2018-07-14T07:42:13.009Z</time>
      </trkpt>
      <trkpt lat="37.174566" lon="-3.470917">
        <ele>1288.26899544314</ele>
        <time>2018-07-14T07:43:56.009Z</time>
      </trkpt>
      <trkpt lat="37.174478" lon="-3.470851">
        <ele>1294.26900135678</ele>
        <time>2018-07-14T07:44:17.009Z</time>
      </trkpt>
      <trkpt lat="37.174379" lon="-3.470808">
        <ele>1299</ele>
        <time>2018-07-14T07:44:33.009Z</time>
      </trkpt>
      <trkpt lat="37.174302" lon="-3.470718">
        <ele>1303</ele>
        <time>2018-07-14T07:44:52.009Z</time>
      </trkpt>
      <trkpt lat="37.174193" lon="-3.470693">
        <ele>1304</ele>
        <time>2018-07-14T07:45:06.009Z</time>
      </trkpt>
      <trkpt lat="37.174087" lon="-3.47068">
        <ele>1307.26899544314</ele>
        <time>2018-07-14T07:45:16.009Z</time>
      </trkpt>
      <trkpt lat="37.173997" lon="-3.470617">
        <ele>1313.26899544314</ele>
        <time>2018-07-14T07:45:32.009Z</time>
      </trkpt>
      <trkpt lat="37.173911" lon="-3.470549">
        <ele>1318</ele>
        <time>2018-07-14T07:45:44.009Z</time>
      </trkpt>
      <trkpt lat="37.173851" lon="-3.470438">
        <ele>1322</ele>
        <time>2018-07-14T07:46:01.009Z</time>
      </trkpt>
      <trkpt lat="37.173816" lon="-3.470318">
        <ele>1323</ele>
        <time>2018-07-14T07:46:15.009Z</time>
      </trkpt>
      <trkpt lat="37.173738" lon="-3.470236">
        <ele>1326.26900135678</ele>
        <time>2018-07-14T07:46:29.009Z</time>
      </trkpt>
      <trkpt lat="37.173648" lon="-3.470168">
        <ele>1330</ele>
        <time>2018-07-14T07:46:41.009Z</time>
      </trkpt>
      <trkpt lat="37.173544" lon="-3.470147">
        <ele>1333.26900135678</ele>
        <time>2018-07-14T07:46:59.009Z</time>
      </trkpt>
      <trkpt lat="37.173446" lon="-3.470123">
        <ele>1338.26899544314</ele>
        <time>2018-07-14T07:47:18.009Z</time>
      </trkpt>
      <trkpt lat="37.173354" lon="-3.470068">
        <ele>1340</ele>
        <time>2018-07-14T07:47:32.009Z</time>
      </trkpt>
      <trkpt lat="37.173304" lon="-3.469961">
        <ele>1342.26900135678</ele>
        <time>2018-07-14T07:47:45.009Z</time>
      </trkpt>
      <trkpt lat="37.1732" lon="-3.469884">
        <ele>1343.73100455686</ele>
        <time>2018-07-14T07:47:54.009Z</time>
      </trkpt>
      <trkpt lat="37.173113" lon="-3.469812">
        <ele>1341.73100455686</ele>
        <time>2018-07-14T07:48:02.009Z</time>
      </trkpt>
      <trkpt lat="37.173061" lon="-3.469706">
        <ele>1338</ele>
        <time>2018-07-14T07:48:16.009Z</time>
      </trkpt>
      <trkpt lat="37.173068" lon="-3.469601">
        <ele>1339</ele>
        <time>2018-07-14T07:48:22.009Z</time>
      </trkpt>
      <trkpt lat="37.173061" lon="-3.469468">
        <ele>1340</ele>
        <time>2018-07-14T07:48:30.009Z</time>
      </trkpt>
      <trkpt lat="37.173054" lon="-3.469344">
        <ele>1340</ele>
        <time>2018-07-14T07:48:37.009Z</time>
      </trkpt>
      <trkpt lat="37.173052" lon="-3.469205">
        <ele>1338</ele>
        <time>2018-07-14T07:48:42.009Z</time>
      </trkpt>
      <trkpt lat="37.173043" lon="-3.469055">
        <ele>1338</ele>
        <time>2018-07-14T07:48:46.009Z</time>
      </trkpt>
      <trkpt lat="37.173043" lon="-3.468914">
        <ele>1337</ele>
        <time>2018-07-14T07:48:50.009Z</time>
      </trkpt>
      <trkpt lat="37.173038" lon="-3.468773">
        <ele>1337</ele>
        <time>2018-07-14T07:48:54.009Z</time>
      </trkpt>
      <trkpt lat="37.173036" lon="-3.468634">
        <ele>1336</ele>
        <time>2018-07-14T07:48:58.009Z</time>
      </trkpt>
      <trkpt lat="37.173024" lon="-3.468481">
        <ele>1336</ele>
        <time>2018-07-14T07:49:03.009Z</time>
      </trkpt>
      <trkpt lat="37.173015" lon="-3.468334">
        <ele>1335</ele>
        <time>2018-07-14T07:49:08.009Z</time>
      </trkpt>
      <trkpt lat="37.173013" lon="-3.468184">
        <ele>1334</ele>
        <time>2018-07-14T07:49:13.009Z</time>
      </trkpt>
      <trkpt lat="37.17301" lon="-3.468058">
        <ele>1332</ele>
        <time>2018-07-14T07:49:17.009Z</time>
      </trkpt>
      <trkpt lat="37.17301" lon="-3.467902">
        <ele>1330</ele>
        <time>2018-07-14T07:49:22.009Z</time>
      </trkpt>
      <trkpt lat="37.173029" lon="-3.467774">
        <ele>1329</ele>
        <time>2018-07-14T07:49:26.009Z</time>
      </trkpt>
      <trkpt lat="37.173043" lon="-3.467644">
        <ele>1328</ele>
        <time>2018-07-14T07:49:30.009Z</time>
      </trkpt>
      <trkpt lat="37.173052" lon="-3.467515">
        <ele>1327</ele>
        <time>2018-07-14T07:49:34.009Z</time>
      </trkpt>
      <trkpt lat="37.173065" lon="-3.46739">
        <ele>1327</ele>
        <time>2018-07-14T07:49:38.009Z</time>
      </trkpt>
      <trkpt lat="37.173071" lon="-3.467268">
        <ele>1326</ele>
        <time>2018-07-14T07:49:43.009Z</time>
      </trkpt>
      <trkpt lat="37.173076" lon="-3.46716">
        <ele>1326</ele>
        <time>2018-07-14T07:49:49.009Z</time>
      </trkpt>
      <trkpt lat="37.173091" lon="-3.467046">
        <ele>1327</ele>
        <time>2018-07-14T07:49:56.009Z</time>
      </trkpt>
      <trkpt lat="37.173116" lon="-3.46695">
        <ele>1328</ele>
        <time>2018-07-14T07:50:03.009Z</time>
      </trkpt>
      <trkpt lat="37.173142" lon="-3.466868">
        <ele>1328</ele>
        <time>2018-07-14T07:50:09.009Z</time>
      </trkpt>
      <trkpt lat="37.173178" lon="-3.466742">
        <ele>1329</ele>
        <time>2018-07-14T07:50:21.009Z</time>
      </trkpt>
      <trkpt lat="37.173213" lon="-3.466632">
        <ele>1331</ele>
        <time>2018-07-14T07:50:30.009Z</time>
      </trkpt>
      <trkpt lat="37.17323" lon="-3.46653">
        <ele>1333</ele>
        <time>2018-07-14T07:50:38.009Z</time>
      </trkpt>
      <trkpt lat="37.173247" lon="-3.466434">
        <ele>1336</ele>
        <time>2018-07-14T07:50:46.009Z</time>
      </trkpt>
      <trkpt lat="37.17328" lon="-3.46635">
        <ele>1337</ele>
        <time>2018-07-14T07:50:53.009Z</time>
      </trkpt>
      <trkpt lat="37.173318" lon="-3.466238">
        <ele>1338</ele>
        <time>2018-07-14T07:51:01.009Z</time>
      </trkpt>
      <trkpt lat="37.173357" lon="-3.466132">
        <ele>1338</ele>
        <time>2018-07-14T07:51:09.009Z</time>
      </trkpt>
      <trkpt lat="37.173385" lon="-3.466035">
        <ele>1339</ele>
        <time>2018-07-14T07:51:23.009Z</time>
      </trkpt>
      <trkpt lat="37.173417" lon="-3.465943">
        <ele>1342.26900135678</ele>
        <time>2018-07-14T07:51:31.009Z</time>
      </trkpt>
      <trkpt lat="37.173461" lon="-3.465845">
        <ele>1344</ele>
        <time>2018-07-14T07:51:41.009Z</time>
      </trkpt>
      <trkpt lat="37.173483" lon="-3.465748">
        <ele>1346</ele>
        <time>2018-07-14T07:51:50.009Z</time>
      </trkpt>
      <trkpt lat="37.173525" lon="-3.465648">
        <ele>1348</ele>
        <time>2018-07-14T07:52:00.009Z</time>
      </trkpt>
      <trkpt lat="37.173577" lon="-3.465568">
        <ele>1351</ele>
        <time>2018-07-14T07:52:12.009Z</time>
      </trkpt>
      <trkpt lat="37.173597" lon="-3.465468">
        <ele>1354</ele>
        <time>2018-07-14T07:52:23.009Z</time>
      </trkpt>
      <trkpt lat="37.173628" lon="-3.465381">
        <ele>1355</ele>
        <time>2018-07-14T07:52:34.009Z</time>
      </trkpt>
      <trkpt lat="37.173671" lon="-3.465298">
        <ele>1357.9699934172</ele>
        <time>2018-07-14T07:52:46.009Z</time>
      </trkpt>
      <trkpt lat="37.173706" lon="-3.465212">
        <ele>1360</ele>
        <time>2018-07-14T07:52:58.009Z</time>
      </trkpt>
      <trkpt lat="37.173741" lon="-3.465119">
        <ele>1364</ele>
        <time>2018-07-14T07:53:10.009Z</time>
      </trkpt>
      <trkpt lat="37.173781" lon="-3.465027">
        <ele>1366</ele>
        <time>2018-07-14T07:53:24.009Z</time>
      </trkpt>
      <trkpt lat="37.17382" lon="-3.464959">
        <ele>1368.26900135678</ele>
        <time>2018-07-14T07:53:35.009Z</time>
      </trkpt>
      <trkpt lat="37.17384" lon="-3.464853">
        <ele>1371</ele>
        <time>2018-07-14T07:53:47.009Z</time>
      </trkpt>
      <trkpt lat="37.173892" lon="-3.464781">
        <ele>1373.26899544314</ele>
        <time>2018-07-14T07:53:58.009Z</time>
      </trkpt>
      <trkpt lat="37.173912" lon="-3.464677">
        <ele>1375</ele>
        <time>2018-07-14T07:54:07.009Z</time>
      </trkpt>
      <trkpt lat="37.173924" lon="-3.46462">
        <ele>1375</ele>
        <time>2018-07-14T07:54:23.009Z</time>
      </trkpt>
      <trkpt lat="37.173944" lon="-3.464523">
        <ele>1377</ele>
        <time>2018-07-14T07:54:33.009Z</time>
      </trkpt>
      <trkpt lat="37.173961" lon="-3.464453">
        <ele>1378</ele>
        <time>2018-07-14T07:54:38.009Z</time>
      </trkpt>
      <trkpt lat="37.173977" lon="-3.464352">
        <ele>1378</ele>
        <time>2018-07-14T07:54:45.009Z</time>
      </trkpt>
      <trkpt lat="37.173998" lon="-3.46426">
        <ele>1380</ele>
        <time>2018-07-14T07:54:52.009Z</time>
      </trkpt>
      <trkpt lat="37.174004" lon="-3.464167">
        <ele>1381</ele>
        <time>2018-07-14T07:54:58.009Z</time>
      </trkpt>
      <trkpt lat="37.174006" lon="-3.46407">
        <ele>1382</ele>
        <time>2018-07-14T07:55:05.009Z</time>
      </trkpt>
      <trkpt lat="37.174007" lon="-3.463984">
        <ele>1383</ele>
        <time>2018-07-14T07:55:11.009Z</time>
      </trkpt>
      <trkpt lat="37.174009" lon="-3.46389">
        <ele>1384</ele>
        <time>2018-07-14T07:55:18.009Z</time>
      </trkpt>
      <trkpt lat="37.174019" lon="-3.463794">
        <ele>1385</ele>
        <time>2018-07-14T07:55:25.009Z</time>
      </trkpt>
      <trkpt lat="37.174033" lon="-3.463696">
        <ele>1386</ele>
        <time>2018-07-14T07:55:33.009Z</time>
      </trkpt>
      <trkpt lat="37.174037" lon="-3.463658">
        <ele>1387</ele>
        <time>2018-07-14T07:55:36.009Z</time>
      </trkpt>
      <trkpt lat="37.174043" lon="-3.463622">
        <ele>1387</ele>
        <time>2018-07-14T07:55:39.009Z</time>
      </trkpt>
      <trkpt lat="37.174051" lon="-3.46358">
        <ele>1387.26899544314</ele>
        <time>2018-07-14T07:55:42.009Z</time>
      </trkpt>
      <trkpt lat="37.174063" lon="-3.463542">
        <ele>1388</ele>
        <time>2018-07-14T07:55:45.009Z</time>
      </trkpt>
      <trkpt lat="37.174071" lon="-3.463506">
        <ele>1388</ele>
        <time>2018-07-14T07:55:48.009Z</time>
      </trkpt>
      <trkpt lat="37.174082" lon="-3.463464">
        <ele>1389</ele>
        <time>2018-07-14T07:55:51.009Z</time>
      </trkpt>
      <trkpt lat="37.17409" lon="-3.463426">
        <ele>1389.26899544314</ele>
        <time>2018-07-14T07:55:54.009Z</time>
      </trkpt>
      <trkpt lat="37.17409" lon="-3.463388">
        <ele>1390.26900135678</ele>
        <time>2018-07-14T07:55:57.009Z</time>
      </trkpt>
      <trkpt lat="37.174084" lon="-3.463344">
        <ele>1391</ele>
        <time>2018-07-14T07:56:00.009Z</time>
      </trkpt>
      <trkpt lat="37.174084" lon="-3.463307">
        <ele>1391.26900135678</ele>
        <time>2018-07-14T07:56:03.009Z</time>
      </trkpt>
      <trkpt lat="37.174085" lon="-3.463256">
        <ele>1392</ele>
        <time>2018-07-14T07:56:07.009Z</time>
      </trkpt>
      <trkpt lat="37.174089" lon="-3.46322">
        <ele>1393</ele>
        <time>2018-07-14T07:56:10.009Z</time>
      </trkpt>
      <trkpt lat="37.174091" lon="-3.463186">
        <ele>1393.26900135678</ele>
        <time>2018-07-14T07:56:13.009Z</time>
      </trkpt>
      <trkpt lat="37.174095" lon="-3.463146">
        <ele>1395</ele>
        <time>2018-07-14T07:56:17.009Z</time>
      </trkpt>
      <trkpt lat="37.174099" lon="-3.463108">
        <ele>1396</ele>
        <time>2018-07-14T07:56:20.009Z</time>
      </trkpt>
      <trkpt lat="37.174102" lon="-3.463071">
        <ele>1396</ele>
        <time>2018-07-14T07:56:24.009Z</time>
      </trkpt>
      <trkpt lat="37.1741" lon="-3.463036">
        <ele>1397</ele>
        <time>2018-07-14T07:56:27.009Z</time>
      </trkpt>
      <trkpt lat="37.1741" lon="-3.462992">
        <ele>1397</ele>
        <time>2018-07-14T07:56:31.009Z</time>
      </trkpt>
      <trkpt lat="37.174094" lon="-3.462951">
        <ele>1398</ele>
        <time>2018-07-14T07:56:35.009Z</time>
      </trkpt>
      <trkpt lat="37.174085" lon="-3.462912">
        <ele>1398</ele>
        <time>2018-07-14T07:56:39.009Z</time>
      </trkpt>
      <trkpt lat="37.174077" lon="-3.462869">
        <ele>1398</ele>
        <time>2018-07-14T07:56:42.009Z</time>
      </trkpt>
      <trkpt lat="37.17407" lon="-3.46282">
        <ele>1398</ele>
        <time>2018-07-14T07:56:45.009Z</time>
      </trkpt>
      <trkpt lat="37.174068" lon="-3.462773">
        <ele>1398</ele>
        <time>2018-07-14T07:56:48.009Z</time>
      </trkpt>
      <trkpt lat="37.174074" lon="-3.462727">
        <ele>1398</ele>
        <time>2018-07-14T07:56:51.009Z</time>
      </trkpt>
      <trkpt lat="37.174074" lon="-3.462693">
        <ele>1398</ele>
        <time>2018-07-14T07:56:53.009Z</time>
      </trkpt>
      <trkpt lat="37.174072" lon="-3.462644">
        <ele>1398</ele>
        <time>2018-07-14T07:56:56.009Z</time>
      </trkpt>
      <trkpt lat="37.17407" lon="-3.4626">
        <ele>1398</ele>
        <time>2018-07-14T07:56:59.009Z</time>
      </trkpt>
      <trkpt lat="37.174081" lon="-3.462564">
        <ele>1398</ele>
        <time>2018-07-14T07:57:02.009Z</time>
      </trkpt>
      <trkpt lat="37.174085" lon="-3.462525">
        <ele>1398</ele>
        <time>2018-07-14T07:57:08.009Z</time>
      </trkpt>
      <trkpt lat="37.174065" lon="-3.462489">
        <ele>1397</ele>
        <time>2018-07-14T07:57:15.009Z</time>
      </trkpt>
      <trkpt lat="37.174056" lon="-3.462444">
        <ele>1396</ele>
        <time>2018-07-14T07:57:18.009Z</time>
      </trkpt>
      <trkpt lat="37.174052" lon="-3.46241">
        <ele>1396.26899544314</ele>
        <time>2018-07-14T07:57:20.009Z</time>
      </trkpt>
      <trkpt lat="37.174047" lon="-3.462375">
        <ele>1397</ele>
        <time>2018-07-14T07:57:22.009Z</time>
      </trkpt>
      <trkpt lat="37.174038" lon="-3.462339">
        <ele>1396.73100455686</ele>
        <time>2018-07-14T07:57:24.009Z</time>
      </trkpt>
      <trkpt lat="37.174032" lon="-3.462304">
        <ele>1396</ele>
        <time>2018-07-14T07:57:26.009Z</time>
      </trkpt>
      <trkpt lat="37.174025" lon="-3.462257">
        <ele>1396</ele>
        <time>2018-07-14T07:57:29.009Z</time>
      </trkpt>
      <trkpt lat="37.174042" lon="-3.462223">
        <ele>1396</ele>
        <time>2018-07-14T07:57:32.009Z</time>
      </trkpt>
      <trkpt lat="37.174043" lon="-3.462186">
        <ele>1396</ele>
        <time>2018-07-14T07:58:05.009Z</time>
      </trkpt>
      <trkpt lat="37.174039" lon="-3.46214">
        <ele>1396</ele>
        <time>2018-07-14T07:58:08.009Z</time>
      </trkpt>
      <trkpt lat="37.17404" lon="-3.462089">
        <ele>1396</ele>
        <time>2018-07-14T07:58:11.009Z</time>
      </trkpt>
      <trkpt lat="37.174039" lon="-3.462054">
        <ele>1396</ele>
        <time>2018-07-14T07:58:13.009Z</time>
      </trkpt>
      <trkpt lat="37.174043" lon="-3.462001">
        <ele>1396</ele>
        <time>2018-07-14T07:58:16.009Z</time>
      </trkpt>
      <trkpt lat="37.174046" lon="-3.46195">
        <ele>1397</ele>
        <time>2018-07-14T07:58:19.009Z</time>
      </trkpt>
      <trkpt lat="37.174043" lon="-3.461903">
        <ele>1397</ele>
        <time>2018-07-14T07:58:22.009Z</time>
      </trkpt>
      <trkpt lat="37.17404" lon="-3.461853">
        <ele>1397</ele>
        <time>2018-07-14T07:58:25.009Z</time>
      </trkpt>
      <trkpt lat="37.174034" lon="-3.461806">
        <ele>1397</ele>
        <time>2018-07-14T07:58:28.009Z</time>
      </trkpt>
      <trkpt lat="37.174034" lon="-3.461757">
        <ele>1397</ele>
        <time>2018-07-14T07:58:31.009Z</time>
      </trkpt>
      <trkpt lat="37.17403" lon="-3.461714">
        <ele>1397</ele>
        <time>2018-07-14T07:58:34.009Z</time>
      </trkpt>
      <trkpt lat="37.17403" lon="-3.461672">
        <ele>1398</ele>
        <time>2018-07-14T07:58:37.009Z</time>
      </trkpt>
      <trkpt lat="37.174026" lon="-3.461627">
        <ele>1398.26899544314</ele>
        <time>2018-07-14T07:58:40.009Z</time>
      </trkpt>
      <trkpt lat="37.174036" lon="-3.461578">
        <ele>1399</ele>
        <time>2018-07-14T07:58:44.009Z</time>
      </trkpt>
      <trkpt lat="37.174029" lon="-3.461525">
        <ele>1400</ele>
        <time>2018-07-14T07:58:48.009Z</time>
      </trkpt>
      <trkpt lat="37.174016" lon="-3.461479">
        <ele>1401</ele>
        <time>2018-07-14T07:58:51.009Z</time>
      </trkpt>
      <trkpt lat="37.174015" lon="-3.461438">
        <ele>1401</ele>
        <time>2018-07-14T07:58:54.009Z</time>
      </trkpt>
      <trkpt lat="37.174014" lon="-3.461405">
        <ele>1402</ele>
        <time>2018-07-14T07:58:57.009Z</time>
      </trkpt>
      <trkpt lat="37.174011" lon="-3.461359">
        <ele>1403</ele>
        <time>2018-07-14T07:59:01.009Z</time>
      </trkpt>
      <trkpt lat="37.174001" lon="-3.461311">
        <ele>1403.26900135678</ele>
        <time>2018-07-14T07:59:05.009Z</time>
      </trkpt>
      <trkpt lat="37.173997" lon="-3.461272">
        <ele>1404.26899544314</ele>
        <time>2018-07-14T07:59:08.009Z</time>
      </trkpt>
      <trkpt lat="37.173996" lon="-3.461234">
        <ele>1405</ele>
        <time>2018-07-14T07:59:11.009Z</time>
      </trkpt>
      <trkpt lat="37.173997" lon="-3.461194">
        <ele>1406</ele>
        <time>2018-07-14T07:59:15.009Z</time>
      </trkpt>
      <trkpt lat="37.173994" lon="-3.461152">
        <ele>1407</ele>
        <time>2018-07-14T07:59:19.009Z</time>
      </trkpt>
      <trkpt lat="37.173991" lon="-3.461118">
        <ele>1408</ele>
        <time>2018-07-14T07:59:22.009Z</time>
      </trkpt>
      <trkpt lat="37.17398" lon="-3.461085">
        <ele>1409</ele>
        <time>2018-07-14T07:59:25.009Z</time>
      </trkpt>
      <trkpt lat="37.173978" lon="-3.461048">
        <ele>1409.26900135678</ele>
        <time>2018-07-14T07:59:29.009Z</time>
      </trkpt>
      <trkpt lat="37.173972" lon="-3.461007">
        <ele>1410</ele>
        <time>2018-07-14T07:59:32.009Z</time>
      </trkpt>
      <trkpt lat="37.173961" lon="-3.460961">
        <ele>1410.26899544314</ele>
        <time>2018-07-14T07:59:36.009Z</time>
      </trkpt>
      <trkpt lat="37.173952" lon="-3.460906">
        <ele>1411</ele>
        <time>2018-07-14T07:59:41.009Z</time>
      </trkpt>
      <trkpt lat="37.173945" lon="-3.460857">
        <ele>1412</ele>
        <time>2018-07-14T07:59:45.009Z</time>
      </trkpt>
      <trkpt lat="37.173937" lon="-3.460818">
        <ele>1412</ele>
        <time>2018-07-14T07:59:48.009Z</time>
      </trkpt>
      <trkpt lat="37.173925" lon="-3.460774">
        <ele>1412</ele>
        <time>2018-07-14T07:59:51.009Z</time>
      </trkpt>
      <trkpt lat="37.173912" lon="-3.460733">
        <ele>1412.26899544314</ele>
        <time>2018-07-14T07:59:54.009Z</time>
      </trkpt>
      <trkpt lat="37.173899" lon="-3.460692">
        <ele>1413</ele>
        <time>2018-07-14T07:59:57.009Z</time>
      </trkpt>
      <trkpt lat="37.173885" lon="-3.460649">
        <ele>1413</ele>
        <time>2018-07-14T08:00:00.009Z</time>
      </trkpt>
      <trkpt lat="37.173872" lon="-3.460608">
        <ele>1414</ele>
        <time>2018-07-14T08:00:03.009Z</time>
      </trkpt>
      <trkpt lat="37.173863" lon="-3.460566">
        <ele>1414</ele>
        <time>2018-07-14T08:00:06.009Z</time>
      </trkpt>
      <trkpt lat="37.173841" lon="-3.460536">
        <ele>1414</ele>
        <time>2018-07-14T08:00:09.009Z</time>
      </trkpt>
      <trkpt lat="37.173826" lon="-3.460496">
        <ele>1415</ele>
        <time>2018-07-14T08:00:12.009Z</time>
      </trkpt>
      <trkpt lat="37.173808" lon="-3.460453">
        <ele>1415</ele>
        <time>2018-07-14T08:00:15.009Z</time>
      </trkpt>
      <trkpt lat="37.173795" lon="-3.460416">
        <ele>1416</ele>
        <time>2018-07-14T08:00:18.009Z</time>
      </trkpt>
      <trkpt lat="37.173782" lon="-3.46038">
        <ele>1416</ele>
        <time>2018-07-14T08:00:21.009Z</time>
      </trkpt>
      <trkpt lat="37.173767" lon="-3.460341">
        <ele>1417</ele>
        <time>2018-07-14T08:00:24.009Z</time>
      </trkpt>
      <trkpt lat="37.173751" lon="-3.460298">
        <ele>1418</ele>
        <time>2018-07-14T08:00:28.009Z</time>
      </trkpt>
      <trkpt lat="37.173733" lon="-3.460267">
        <ele>1418</ele>
        <time>2018-07-14T08:00:31.009Z</time>
      </trkpt>
      <trkpt lat="37.173714" lon="-3.460226">
        <ele>1419</ele>
        <time>2018-07-14T08:00:35.009Z</time>
      </trkpt>
      <trkpt lat="37.173704" lon="-3.460191">
        <ele>1420</ele>
        <time>2018-07-14T08:00:38.009Z</time>
      </trkpt>
      <trkpt lat="37.173685" lon="-3.46016">
        <ele>1421</ele>
        <time>2018-07-14T08:00:41.009Z</time>
      </trkpt>
      <trkpt lat="37.173668" lon="-3.460123">
        <ele>1421</ele>
        <time>2018-07-14T08:00:44.009Z</time>
      </trkpt>
      <trkpt lat="37.173653" lon="-3.460081">
        <ele>1422.26899544314</ele>
        <time>2018-07-14T08:00:48.009Z</time>
      </trkpt>
      <trkpt lat="37.173635" lon="-3.460042">
        <ele>1423</ele>
        <time>2018-07-14T08:00:51.009Z</time>
      </trkpt>
      <trkpt lat="37.173617" lon="-3.460006">
        <ele>1423.26899544314</ele>
        <time>2018-07-14T08:00:54.009Z</time>
      </trkpt>
      <trkpt lat="37.173602" lon="-3.459971">
        <ele>1424</ele>
        <time>2018-07-14T08:00:57.009Z</time>
      </trkpt>
      <trkpt lat="37.173586" lon="-3.459931">
        <ele>1424</ele>
        <time>2018-07-14T08:01:00.009Z</time>
      </trkpt>
      <trkpt lat="37.173563" lon="-3.459894">
        <ele>1425</ele>
        <time>2018-07-14T08:01:03.009Z</time>
      </trkpt>
      <trkpt lat="37.173535" lon="-3.45986">
        <ele>1425</ele>
        <time>2018-07-14T08:01:06.009Z</time>
      </trkpt>
      <trkpt lat="37.173516" lon="-3.459832">
        <ele>1425.26899544314</ele>
        <time>2018-07-14T08:01:08.009Z</time>
      </trkpt>
      <trkpt lat="37.173499" lon="-3.459805">
        <ele>1426</ele>
        <time>2018-07-14T08:01:10.009Z</time>
      </trkpt>
      <trkpt lat="37.173478" lon="-3.459761">
        <ele>1426</ele>
        <time>2018-07-14T08:01:13.009Z</time>
      </trkpt>
      <trkpt lat="37.173459" lon="-3.45972">
        <ele>1426</ele>
        <time>2018-07-14T08:01:16.009Z</time>
      </trkpt>
      <trkpt lat="37.173433" lon="-3.459682">
        <ele>1426</ele>
        <time>2018-07-14T08:01:19.009Z</time>
      </trkpt>
      <trkpt lat="37.173402" lon="-3.459645">
        <ele>1426</ele>
        <time>2018-07-14T08:01:22.009Z</time>
      </trkpt>
      <trkpt lat="37.17337" lon="-3.459612">
        <ele>1426</ele>
        <time>2018-07-14T08:01:25.009Z</time>
      </trkpt>
      <trkpt lat="37.173349" lon="-3.459586">
        <ele>1426</ele>
        <time>2018-07-14T08:01:27.009Z</time>
      </trkpt>
      <trkpt lat="37.173326" lon="-3.459563">
        <ele>1426.73099864322</ele>
        <time>2018-07-14T08:01:29.009Z</time>
      </trkpt>
      <trkpt lat="37.173299" lon="-3.459545">
        <ele>1426</ele>
        <time>2018-07-14T08:01:31.009Z</time>
      </trkpt>
      <trkpt lat="37.173272" lon="-3.459525">
        <ele>1426</ele>
        <time>2018-07-14T08:01:33.009Z</time>
      </trkpt>
      <trkpt lat="37.17325" lon="-3.459505">
        <ele>1427</ele>
        <time>2018-07-14T08:01:35.009Z</time>
      </trkpt>
      <trkpt lat="37.173226" lon="-3.459484">
        <ele>1427</ele>
        <time>2018-07-14T08:01:37.009Z</time>
      </trkpt>
      <trkpt lat="37.173192" lon="-3.459456">
        <ele>1427</ele>
        <time>2018-07-14T08:01:40.009Z</time>
      </trkpt>
      <trkpt lat="37.173157" lon="-3.459432">
        <ele>1427</ele>
        <time>2018-07-14T08:01:43.009Z</time>
      </trkpt>
      <trkpt lat="37.173126" lon="-3.459409">
        <ele>1427</ele>
        <time>2018-07-14T08:01:46.009Z</time>
      </trkpt>
      <trkpt lat="37.173088" lon="-3.459384">
        <ele>1428</ele>
        <time>2018-07-14T08:01:50.009Z</time>
      </trkpt>
      <trkpt lat="37.173058" lon="-3.459361">
        <ele>1428</ele>
        <time>2018-07-14T08:01:53.009Z</time>
      </trkpt>
      <trkpt lat="37.173019" lon="-3.459328">
        <ele>1428</ele>
        <time>2018-07-14T08:01:57.009Z</time>
      </trkpt>
      <trkpt lat="37.172982" lon="-3.459296">
        <ele>1429</ele>
        <time>2018-07-14T08:02:01.009Z</time>
      </trkpt>
      <trkpt lat="37.172949" lon="-3.459267">
        <ele>1429</ele>
        <time>2018-07-14T08:02:05.009Z</time>
      </trkpt>
      <trkpt lat="37.172913" lon="-3.459241">
        <ele>1430</ele>
        <time>2018-07-14T08:02:09.009Z</time>
      </trkpt>
      <trkpt lat="37.172868" lon="-3.459223">
        <ele>1431</ele>
        <time>2018-07-14T08:02:14.009Z</time>
      </trkpt>
      <trkpt lat="37.172834" lon="-3.459209">
        <ele>1431</ele>
        <time>2018-07-14T08:02:17.009Z</time>
      </trkpt>
      <trkpt lat="37.172805" lon="-3.459191">
        <ele>1432</ele>
        <time>2018-07-14T08:02:20.009Z</time>
      </trkpt>
      <trkpt lat="37.172773" lon="-3.459167">
        <ele>1433</ele>
        <time>2018-07-14T08:02:23.009Z</time>
      </trkpt>
      <trkpt lat="37.172744" lon="-3.459148">
        <ele>1433</ele>
        <time>2018-07-14T08:02:26.009Z</time>
      </trkpt>
      <trkpt lat="37.172712" lon="-3.459121">
        <ele>1434</ele>
        <time>2018-07-14T08:02:30.009Z</time>
      </trkpt>
      <trkpt lat="37.172679" lon="-3.459098">
        <ele>1435</ele>
        <time>2018-07-14T08:02:34.009Z</time>
      </trkpt>
      <trkpt lat="37.172645" lon="-3.459074">
        <ele>1436.26632955669</ele>
        <time>2018-07-14T08:02:38.009Z</time>
      </trkpt>
      <trkpt lat="37.172619" lon="-3.459036">
        <ele>1437</ele>
        <time>2018-07-14T08:02:42.009Z</time>
      </trkpt>
      <trkpt lat="37.172593" lon="-3.45901">
        <ele>1438</ele>
        <time>2018-07-14T08:02:45.009Z</time>
      </trkpt>
      <trkpt lat="37.172562" lon="-3.458978">
        <ele>1438</ele>
        <time>2018-07-14T08:02:49.009Z</time>
      </trkpt>
      <trkpt lat="37.172537" lon="-3.458941">
        <ele>1439</ele>
        <time>2018-07-14T08:02:52.009Z</time>
      </trkpt>
      <trkpt lat="37.172507" lon="-3.458911">
        <ele>1439.26899544314</ele>
        <time>2018-07-14T08:02:56.009Z</time>
      </trkpt>
      <trkpt lat="37.172485" lon="-3.458878">
        <ele>1440</ele>
        <time>2018-07-14T08:02:59.009Z</time>
      </trkpt>
      <trkpt lat="37.172461" lon="-3.45884">
        <ele>1440.26899544314</ele>
        <time>2018-07-14T08:03:02.009Z</time>
      </trkpt>
      <trkpt lat="37.172439" lon="-3.458808">
        <ele>1441</ele>
        <time>2018-07-14T08:03:05.009Z</time>
      </trkpt>
      <trkpt lat="37.172417" lon="-3.458776">
        <ele>1441.26899544314</ele>
        <time>2018-07-14T08:03:08.009Z</time>
      </trkpt>
      <trkpt lat="37.172395" lon="-3.458737">
        <ele>1442</ele>
        <time>2018-07-14T08:03:11.009Z</time>
      </trkpt>
      <trkpt lat="37.172373" lon="-3.4587">
        <ele>1442.26899544314</ele>
        <time>2018-07-14T08:03:14.009Z</time>
      </trkpt>
      <trkpt lat="37.172353" lon="-3.458646">
        <ele>1443</ele>
        <time>2018-07-14T08:03:17.009Z</time>
      </trkpt>
      <trkpt lat="37.172352" lon="-3.45859">
        <ele>1443</ele>
        <time>2018-07-14T08:03:19.009Z</time>
      </trkpt>
      <trkpt lat="37.172351" lon="-3.458536">
        <ele>1443</ele>
        <time>2018-07-14T08:03:21.009Z</time>
      </trkpt>
      <trkpt lat="37.172358" lon="-3.458474">
        <ele>1443</ele>
        <time>2018-07-14T08:03:23.009Z</time>
      </trkpt>
      <trkpt lat="37.172355" lon="-3.458413">
        <ele>1443</ele>
        <time>2018-07-14T08:03:25.009Z</time>
      </trkpt>
      <trkpt lat="37.172347" lon="-3.458356">
        <ele>1442</ele>
        <time>2018-07-14T08:03:27.009Z</time>
      </trkpt>
      <trkpt lat="37.172327" lon="-3.458306">
        <ele>1442</ele>
        <time>2018-07-14T08:03:29.009Z</time>
      </trkpt>
      <trkpt lat="37.172307" lon="-3.458254">
        <ele>1442</ele>
        <time>2018-07-14T08:03:31.009Z</time>
      </trkpt>
      <trkpt lat="37.172288" lon="-3.4582">
        <ele>1442</ele>
        <time>2018-07-14T08:03:33.009Z</time>
      </trkpt>
      <trkpt lat="37.172272" lon="-3.458138">
        <ele>1442</ele>
        <time>2018-07-14T08:03:35.009Z</time>
      </trkpt>
      <trkpt lat="37.172255" lon="-3.458092">
        <ele>1442</ele>
        <time>2018-07-14T08:03:37.009Z</time>
      </trkpt>
      <trkpt lat="37.172239" lon="-3.458042">
        <ele>1442</ele>
        <time>2018-07-14T08:03:40.009Z</time>
      </trkpt>
      <trkpt lat="37.172211" lon="-3.457997">
        <ele>1442</ele>
        <time>2018-07-14T08:03:43.009Z</time>
      </trkpt>
      <trkpt lat="37.172187" lon="-3.457956">
        <ele>1442</ele>
        <time>2018-07-14T08:03:46.009Z</time>
      </trkpt>
      <trkpt lat="37.172165" lon="-3.457906">
        <ele>1442</ele>
        <time>2018-07-14T08:03:49.009Z</time>
      </trkpt>
      <trkpt lat="37.172149" lon="-3.457856">
        <ele>1442</ele>
        <time>2018-07-14T08:03:52.009Z</time>
      </trkpt>
      <trkpt lat="37.172128" lon="-3.457806">
        <ele>1442</ele>
        <time>2018-07-14T08:03:55.009Z</time>
      </trkpt>
      <trkpt lat="37.172109" lon="-3.457756">
        <ele>1442</ele>
        <time>2018-07-14T08:03:58.009Z</time>
      </trkpt>
      <trkpt lat="37.172085" lon="-3.457692">
        <ele>1441.73100455686</ele>
        <time>2018-07-14T08:04:02.009Z</time>
      </trkpt>
      <trkpt lat="37.172069" lon="-3.457647">
        <ele>1442</ele>
        <time>2018-07-14T08:04:05.009Z</time>
      </trkpt>
      <trkpt lat="37.172059" lon="-3.457595">
        <ele>1442</ele>
        <time>2018-07-14T08:04:08.009Z</time>
      </trkpt>
      <trkpt lat="37.172054" lon="-3.457547">
        <ele>1442.26900135678</ele>
        <time>2018-07-14T08:04:11.009Z</time>
      </trkpt>
      <trkpt lat="37.172053" lon="-3.457502">
        <ele>1443</ele>
        <time>2018-07-14T08:04:14.009Z</time>
      </trkpt>
      <trkpt lat="37.172067" lon="-3.457453">
        <ele>1443</ele>
        <time>2018-07-14T08:04:18.009Z</time>
      </trkpt>
      <trkpt lat="37.172072" lon="-3.457409">
        <ele>1444</ele>
        <time>2018-07-14T08:04:21.009Z</time>
      </trkpt>
      <trkpt lat="37.17207" lon="-3.45736">
        <ele>1445</ele>
        <time>2018-07-14T08:04:24.009Z</time>
      </trkpt>
      <trkpt lat="37.172069" lon="-3.457307">
        <ele>1445</ele>
        <time>2018-07-14T08:04:27.009Z</time>
      </trkpt>
      <trkpt lat="37.172075" lon="-3.457254">
        <ele>1445</ele>
        <time>2018-07-14T08:04:30.009Z</time>
      </trkpt>
      <trkpt lat="37.172075" lon="-3.457202">
        <ele>1445</ele>
        <time>2018-07-14T08:04:33.009Z</time>
      </trkpt>
      <trkpt lat="37.172077" lon="-3.457149">
        <ele>1446</ele>
        <time>2018-07-14T08:04:36.009Z</time>
      </trkpt>
      <trkpt lat="37.172077" lon="-3.457097">
        <ele>1446</ele>
        <time>2018-07-14T08:04:39.009Z</time>
      </trkpt>
      <trkpt lat="37.172073" lon="-3.457048">
        <ele>1446</ele>
        <time>2018-07-14T08:04:42.009Z</time>
      </trkpt>
      <trkpt lat="37.172066" lon="-3.457">
        <ele>1446.73099864322</ele>
        <time>2018-07-14T08:04:45.009Z</time>
      </trkpt>
      <trkpt lat="37.172045" lon="-3.456961">
        <ele>1446</ele>
        <time>2018-07-14T08:04:48.009Z</time>
      </trkpt>
      <trkpt lat="37.172025" lon="-3.456924">
        <ele>1447</ele>
        <time>2018-07-14T08:04:51.009Z</time>
      </trkpt>
      <trkpt lat="37.172023" lon="-3.45688">
        <ele>1447</ele>
        <time>2018-07-14T08:04:54.009Z</time>
      </trkpt>
      <trkpt lat="37.172019" lon="-3.456828">
        <ele>1447</ele>
        <time>2018-07-14T08:04:57.009Z</time>
      </trkpt>
      <trkpt lat="37.17202" lon="-3.456778">
        <ele>1447</ele>
        <time>2018-07-14T08:05:00.009Z</time>
      </trkpt>
      <trkpt lat="37.172014" lon="-3.456722">
        <ele>1447</ele>
        <time>2018-07-14T08:05:04.009Z</time>
      </trkpt>
      <trkpt lat="37.172008" lon="-3.456676">
        <ele>1447</ele>
        <time>2018-07-14T08:05:07.009Z</time>
      </trkpt>
      <trkpt lat="37.17201" lon="-3.45663">
        <ele>1448</ele>
        <time>2018-07-14T08:05:10.009Z</time>
      </trkpt>
      <trkpt lat="37.172014" lon="-3.456586">
        <ele>1448</ele>
        <time>2018-07-14T08:05:13.009Z</time>
      </trkpt>
      <trkpt lat="37.172018" lon="-3.45654">
        <ele>1448</ele>
        <time>2018-07-14T08:05:16.009Z</time>
      </trkpt>
      <trkpt lat="37.172024" lon="-3.456492">
        <ele>1448</ele>
        <time>2018-07-14T08:05:19.009Z</time>
      </trkpt>
      <trkpt lat="37.172022" lon="-3.456446">
        <ele>1448</ele>
        <time>2018-07-14T08:05:22.009Z</time>
      </trkpt>
      <trkpt lat="37.172028" lon="-3.456397">
        <ele>1448</ele>
        <time>2018-07-14T08:05:25.009Z</time>
      </trkpt>
      <trkpt lat="37.17203" lon="-3.456346">
        <ele>1448</ele>
        <time>2018-07-14T08:05:28.009Z</time>
      </trkpt>
      <trkpt lat="37.172036" lon="-3.456296">
        <ele>1448</ele>
        <time>2018-07-14T08:05:31.009Z</time>
      </trkpt>
      <trkpt lat="37.172044" lon="-3.45625">
        <ele>1448</ele>
        <time>2018-07-14T08:05:34.009Z</time>
      </trkpt>
      <trkpt lat="37.17205" lon="-3.456209">
        <ele>1448</ele>
        <time>2018-07-14T08:05:37.009Z</time>
      </trkpt>
      <trkpt lat="37.172064" lon="-3.456169">
        <ele>1448.26899544314</ele>
        <time>2018-07-14T08:05:40.009Z</time>
      </trkpt>
      <trkpt lat="37.17208" lon="-3.456126">
        <ele>1449</ele>
        <time>2018-07-14T08:05:43.009Z</time>
      </trkpt>
      <trkpt lat="37.172098" lon="-3.45608">
        <ele>1450</ele>
        <time>2018-07-14T08:05:47.009Z</time>
      </trkpt>
      <trkpt lat="37.172104" lon="-3.456041">
        <ele>1451</ele>
        <time>2018-07-14T08:05:54.009Z</time>
      </trkpt>
      <trkpt lat="37.172112" lon="-3.456">
        <ele>1451.26900135678</ele>
        <time>2018-07-14T08:05:57.009Z</time>
      </trkpt>
      <trkpt lat="37.17212" lon="-3.455962">
        <ele>1452</ele>
        <time>2018-07-14T08:06:00.009Z</time>
      </trkpt>
      <trkpt lat="37.172128" lon="-3.455918">
        <ele>1453</ele>
        <time>2018-07-14T08:06:04.009Z</time>
      </trkpt>
      <trkpt lat="37.172144" lon="-3.455876">
        <ele>1454</ele>
        <time>2018-07-14T08:06:08.009Z</time>
      </trkpt>
      <trkpt lat="37.172152" lon="-3.455831">
        <ele>1455</ele>
        <time>2018-07-14T08:06:12.009Z</time>
      </trkpt>
      <trkpt lat="37.17217" lon="-3.455787">
        <ele>1455.26899544314</ele>
        <time>2018-07-14T08:06:16.009Z</time>
      </trkpt>
      <trkpt lat="37.172188" lon="-3.455754">
        <ele>1456.26900135678</ele>
        <time>2018-07-14T08:06:19.009Z</time>
      </trkpt>
      <trkpt lat="37.1722" lon="-3.455722">
        <ele>1457</ele>
        <time>2018-07-14T08:06:22.009Z</time>
      </trkpt>
      <trkpt lat="37.17222" lon="-3.455676">
        <ele>1458</ele>
        <time>2018-07-14T08:06:26.009Z</time>
      </trkpt>
      <trkpt lat="37.17224" lon="-3.455634">
        <ele>1458</ele>
        <time>2018-07-14T08:06:30.009Z</time>
      </trkpt>
      <trkpt lat="37.172256" lon="-3.455591">
        <ele>1459</ele>
        <time>2018-07-14T08:06:34.009Z</time>
      </trkpt>
      <trkpt lat="37.172276" lon="-3.455541">
        <ele>1460</ele>
        <time>2018-07-14T08:06:39.009Z</time>
      </trkpt>
      <trkpt lat="37.172292" lon="-3.455504">
        <ele>1461</ele>
        <time>2018-07-14T08:06:43.009Z</time>
      </trkpt>
      <trkpt lat="37.172306" lon="-3.45546">
        <ele>1462</ele>
        <time>2018-07-14T08:06:47.009Z</time>
      </trkpt>
      <trkpt lat="37.172326" lon="-3.455419">
        <ele>1463</ele>
        <time>2018-07-14T08:06:51.009Z</time>
      </trkpt>
      <trkpt lat="37.17234" lon="-3.455377">
        <ele>1464</ele>
        <time>2018-07-14T08:06:55.009Z</time>
      </trkpt>
      <trkpt lat="37.172364" lon="-3.455339">
        <ele>1465</ele>
        <time>2018-07-14T08:06:59.009Z</time>
      </trkpt>
      <trkpt lat="37.172387" lon="-3.455304">
        <ele>1466</ele>
        <time>2018-07-14T08:07:03.009Z</time>
      </trkpt>
      <trkpt lat="37.172416" lon="-3.455276">
        <ele>1467</ele>
        <time>2018-07-14T08:07:07.009Z</time>
      </trkpt>
      <trkpt lat="37.17244" lon="-3.455252">
        <ele>1468</ele>
        <time>2018-07-14T08:07:11.009Z</time>
      </trkpt>
      <trkpt lat="37.172464" lon="-3.455222">
        <ele>1469</ele>
        <time>2018-07-14T08:07:14.009Z</time>
      </trkpt>
      <trkpt lat="37.172492" lon="-3.455182">
        <ele>1469.26900135678</ele>
        <time>2018-07-14T08:07:19.009Z</time>
      </trkpt>
      <trkpt lat="37.172516" lon="-3.455154">
        <ele>1470</ele>
        <time>2018-07-14T08:07:22.009Z</time>
      </trkpt>
      <trkpt lat="37.172549" lon="-3.455108">
        <ele>1470.26900135678</ele>
        <time>2018-07-14T08:07:27.009Z</time>
      </trkpt>
      <trkpt lat="37.17258" lon="-3.45507">
        <ele>1471</ele>
        <time>2018-07-14T08:07:31.009Z</time>
      </trkpt>
      <trkpt lat="37.172613" lon="-3.455036">
        <ele>1471.26900135678</ele>
        <time>2018-07-14T08:07:35.009Z</time>
      </trkpt>
      <trkpt lat="37.172639" lon="-3.454996">
        <ele>1472</ele>
        <time>2018-07-14T08:07:41.009Z</time>
      </trkpt>
      <trkpt lat="37.172668" lon="-3.454958">
        <ele>1473</ele>
        <time>2018-07-14T08:07:45.009Z</time>
      </trkpt>
      <trkpt lat="37.172701" lon="-3.45493">
        <ele>1474</ele>
        <time>2018-07-14T08:07:49.009Z</time>
      </trkpt>
      <trkpt lat="37.172726" lon="-3.454904">
        <ele>1475</ele>
        <time>2018-07-14T08:07:53.009Z</time>
      </trkpt>
      <trkpt lat="37.172764" lon="-3.454874">
        <ele>1476</ele>
        <time>2018-07-14T08:07:57.009Z</time>
      </trkpt>
      <trkpt lat="37.172808" lon="-3.454845">
        <ele>1477</ele>
        <time>2018-07-14T08:08:01.009Z</time>
      </trkpt>
      <trkpt lat="37.172844" lon="-3.454813">
        <ele>1477</ele>
        <time>2018-07-14T08:08:05.009Z</time>
      </trkpt>
      <trkpt lat="37.172869" lon="-3.454782">
        <ele>1477</ele>
        <time>2018-07-14T08:08:08.009Z</time>
      </trkpt>
      <trkpt lat="37.172892" lon="-3.454747">
        <ele>1477</ele>
        <time>2018-07-14T08:08:11.009Z</time>
      </trkpt>
      <trkpt lat="37.172908" lon="-3.45472">
        <ele>1477.26900135678</ele>
        <time>2018-07-14T08:08:13.009Z</time>
      </trkpt>
      <trkpt lat="37.172926" lon="-3.454683">
        <ele>1478</ele>
        <time>2018-07-14T08:08:16.009Z</time>
      </trkpt>
      <trkpt lat="37.172943" lon="-3.454644">
        <ele>1478</ele>
        <time>2018-07-14T08:08:19.009Z</time>
      </trkpt>
      <trkpt lat="37.172957" lon="-3.454619">
        <ele>1478</ele>
        <time>2018-07-14T08:08:21.009Z</time>
      </trkpt>
      <trkpt lat="37.172969" lon="-3.454591">
        <ele>1478</ele>
        <time>2018-07-14T08:08:23.009Z</time>
      </trkpt>
      <trkpt lat="37.172983" lon="-3.45456">
        <ele>1477.73099864322</ele>
        <time>2018-07-14T08:08:25.009Z</time>
      </trkpt>
      <trkpt lat="37.172998" lon="-3.454531">
        <ele>1477</ele>
        <time>2018-07-14T08:08:27.009Z</time>
      </trkpt>
      <trkpt lat="37.173019" lon="-3.454493">
        <ele>1478</ele>
        <time>2018-07-14T08:08:29.009Z</time>
      </trkpt>
      <trkpt lat="37.173046" lon="-3.454447">
        <ele>1478</ele>
        <time>2018-07-14T08:08:31.009Z</time>
      </trkpt>
      <trkpt lat="37.173068" lon="-3.454392">
        <ele>1478</ele>
        <time>2018-07-14T08:08:33.009Z</time>
      </trkpt>
      <trkpt lat="37.17309" lon="-3.454339">
        <ele>1478</ele>
        <time>2018-07-14T08:08:35.009Z</time>
      </trkpt>
      <trkpt lat="37.173114" lon="-3.454293">
        <ele>1477.73099864322</ele>
        <time>2018-07-14T08:08:37.009Z</time>
      </trkpt>
      <trkpt lat="37.173133" lon="-3.454244">
        <ele>1477</ele>
        <time>2018-07-14T08:08:39.009Z</time>
      </trkpt>
      <trkpt lat="37.173144" lon="-3.454196">
        <ele>1477</ele>
        <time>2018-07-14T08:08:41.009Z</time>
      </trkpt>
      <trkpt lat="37.173162" lon="-3.454156">
        <ele>1476.73099864322</ele>
        <time>2018-07-14T08:08:43.009Z</time>
      </trkpt>
      <trkpt lat="37.173175" lon="-3.454109">
        <ele>1476</ele>
        <time>2018-07-14T08:08:45.009Z</time>
      </trkpt>
      <trkpt lat="37.173186" lon="-3.454067">
        <ele>1475</ele>
        <time>2018-07-14T08:08:47.009Z</time>
      </trkpt>
      <trkpt lat="37.173193" lon="-3.454026">
        <ele>1474</ele>
        <time>2018-07-14T08:08:49.009Z</time>
      </trkpt>
      <trkpt lat="37.173194" lon="-3.453975">
        <ele>1473</ele>
        <time>2018-07-14T08:08:51.009Z</time>
      </trkpt>
      <trkpt lat="37.173194" lon="-3.453851">
        <ele>1470.73100455686</ele>
        <time>2018-07-14T08:08:56.009Z</time>
      </trkpt>
      <trkpt lat="37.173192" lon="-3.453739">
        <ele>1467.73100455686</ele>
        <time>2018-07-14T08:09:00.009Z</time>
      </trkpt>
      <trkpt lat="37.173166" lon="-3.453601">
        <ele>1465.73099864322</ele>
        <time>2018-07-14T08:09:05.009Z</time>
      </trkpt>
      <trkpt lat="37.173172" lon="-3.453451">
        <ele>1464</ele>
        <time>2018-07-14T08:09:10.009Z</time>
      </trkpt>
      <trkpt lat="37.173192" lon="-3.453302">
        <ele>1462</ele>
        <time>2018-07-14T08:09:15.009Z</time>
      </trkpt>
      <trkpt lat="37.173202" lon="-3.453174">
        <ele>1460</ele>
        <time>2018-07-14T08:09:19.009Z</time>
      </trkpt>
      <trkpt lat="37.17319" lon="-3.453035">
        <ele>1458.73099864322</ele>
        <time>2018-07-14T08:09:23.009Z</time>
      </trkpt>
      <trkpt lat="37.17318" lon="-3.452908">
        <ele>1457</ele>
        <time>2018-07-14T08:09:27.009Z</time>
      </trkpt>
      <trkpt lat="37.173176" lon="-3.452842">
        <ele>1456</ele>
        <time>2018-07-14T08:09:29.009Z</time>
      </trkpt>
      <trkpt lat="37.173175" lon="-3.452776">
        <ele>1456</ele>
        <time>2018-07-14T08:09:31.009Z</time>
      </trkpt>
      <trkpt lat="37.173164" lon="-3.452712">
        <ele>1455</ele>
        <time>2018-07-14T08:09:33.009Z</time>
      </trkpt>
      <trkpt lat="37.173142" lon="-3.452646">
        <ele>1455</ele>
        <time>2018-07-14T08:09:35.009Z</time>
      </trkpt>
      <trkpt lat="37.173128" lon="-3.452587">
        <ele>1454.73099864322</ele>
        <time>2018-07-14T08:09:37.009Z</time>
      </trkpt>
      <trkpt lat="37.173124" lon="-3.452524">
        <ele>1454</ele>
        <time>2018-07-14T08:09:39.009Z</time>
      </trkpt>
      <trkpt lat="37.17312" lon="-3.452459">
        <ele>1453.73099864322</ele>
        <time>2018-07-14T08:09:41.009Z</time>
      </trkpt>
      <trkpt lat="37.173116" lon="-3.452396">
        <ele>1453</ele>
        <time>2018-07-14T08:09:43.009Z</time>
      </trkpt>
      <trkpt lat="37.173106" lon="-3.452329">
        <ele>1452</ele>
        <time>2018-07-14T08:09:45.009Z</time>
      </trkpt>
      <trkpt lat="37.173097" lon="-3.452265">
        <ele>1451.73099864322</ele>
        <time>2018-07-14T08:09:47.009Z</time>
      </trkpt>
      <trkpt lat="37.173084" lon="-3.4522">
        <ele>1451</ele>
        <time>2018-07-14T08:09:49.009Z</time>
      </trkpt>
      <trkpt lat="37.173076" lon="-3.452143">
        <ele>1451</ele>
        <time>2018-07-14T08:09:51.009Z</time>
      </trkpt>
      <trkpt lat="37.173066" lon="-3.452084">
        <ele>1451</ele>
        <time>2018-07-14T08:09:53.009Z</time>
      </trkpt>
      <trkpt lat="37.17305" lon="-3.452022">
        <ele>1450.73099864322</ele>
        <time>2018-07-14T08:09:55.009Z</time>
      </trkpt>
      <trkpt lat="37.173036" lon="-3.451933">
        <ele>1450</ele>
        <time>2018-07-14T08:09:58.009Z</time>
      </trkpt>
      <trkpt lat="37.173038" lon="-3.451875">
        <ele>1449.73100455686</ele>
        <time>2018-07-14T08:10:00.009Z</time>
      </trkpt>
      <trkpt lat="37.173039" lon="-3.451816">
        <ele>1449</ele>
        <time>2018-07-14T08:10:02.009Z</time>
      </trkpt>
      <trkpt lat="37.173038" lon="-3.451754">
        <ele>1448.73100455686</ele>
        <time>2018-07-14T08:10:04.009Z</time>
      </trkpt>
      <trkpt lat="37.173038" lon="-3.451689">
        <ele>1448</ele>
        <time>2018-07-14T08:10:06.009Z</time>
      </trkpt>
      <trkpt lat="37.173048" lon="-3.451623">
        <ele>1447.73100455686</ele>
        <time>2018-07-14T08:10:08.009Z</time>
      </trkpt>
      <trkpt lat="37.173065" lon="-3.451559">
        <ele>1446.73100455686</ele>
        <time>2018-07-14T08:10:10.009Z</time>
      </trkpt>
      <trkpt lat="37.173087" lon="-3.451503">
        <ele>1445.73100455686</ele>
        <time>2018-07-14T08:10:12.009Z</time>
      </trkpt>
      <trkpt lat="37.173123" lon="-3.451461">
        <ele>1444.73100455686</ele>
        <time>2018-07-14T08:10:14.009Z</time>
      </trkpt>
      <trkpt lat="37.173164" lon="-3.451427">
        <ele>1444</ele>
        <time>2018-07-14T08:10:16.009Z</time>
      </trkpt>
      <trkpt lat="37.173208" lon="-3.451399">
        <ele>1442.73100455686</ele>
        <time>2018-07-14T08:10:18.009Z</time>
      </trkpt>
      <trkpt lat="37.173254" lon="-3.451382">
        <ele>1441</ele>
        <time>2018-07-14T08:10:20.009Z</time>
      </trkpt>
      <trkpt lat="37.173298" lon="-3.451373">
        <ele>1439.73100455686</ele>
        <time>2018-07-14T08:10:22.009Z</time>
      </trkpt>
      <trkpt lat="37.17335" lon="-3.451359">
        <ele>1438.73100455686</ele>
        <time>2018-07-14T08:10:24.009Z</time>
      </trkpt>
      <trkpt lat="37.173425" lon="-3.451319">
        <ele>1438</ele>
        <time>2018-07-14T08:10:27.009Z</time>
      </trkpt>
      <trkpt lat="37.173518" lon="-3.451261">
        <ele>1437.7336611454</ele>
        <time>2018-07-14T08:10:31.009Z</time>
      </trkpt>
      <trkpt lat="37.173618" lon="-3.451215">
        <ele>1437</ele>
        <time>2018-07-14T08:10:35.009Z</time>
      </trkpt>
      <trkpt lat="37.173726" lon="-3.451185">
        <ele>1436</ele>
        <time>2018-07-14T08:10:39.009Z</time>
      </trkpt>
      <trkpt lat="37.173826" lon="-3.451154">
        <ele>1435</ele>
        <time>2018-07-14T08:10:43.009Z</time>
      </trkpt>
      <trkpt lat="37.173916" lon="-3.451125">
        <ele>1434</ele>
        <time>2018-07-14T08:10:47.009Z</time>
      </trkpt>
      <trkpt lat="37.173989" lon="-3.451098">
        <ele>1434</ele>
        <time>2018-07-14T08:10:50.009Z</time>
      </trkpt>
      <trkpt lat="37.174076" lon="-3.451062">
        <ele>1433</ele>
        <time>2018-07-14T08:10:54.009Z</time>
      </trkpt>
      <trkpt lat="37.174166" lon="-3.451056">
        <ele>1431.73100455686</ele>
        <time>2018-07-14T08:10:58.009Z</time>
      </trkpt>
      <trkpt lat="37.174251" lon="-3.45108">
        <ele>1430</ele>
        <time>2018-07-14T08:11:02.009Z</time>
      </trkpt>
      <trkpt lat="37.174342" lon="-3.4511">
        <ele>1429</ele>
        <time>2018-07-14T08:11:06.009Z</time>
      </trkpt>
      <trkpt lat="37.174419" lon="-3.451115">
        <ele>1428</ele>
        <time>2018-07-14T08:11:10.009Z</time>
      </trkpt>
      <trkpt lat="37.174448" lon="-3.451156">
        <ele>1426</ele>
        <time>2018-07-14T08:11:18.009Z</time>
      </trkpt>
      <trkpt lat="37.174506" lon="-3.451153">
        <ele>1423.73099864322</ele>
        <time>2018-07-14T08:11:45.009Z</time>
      </trkpt>
      <trkpt lat="37.174553" lon="-3.451183">
        <ele>1422</ele>
        <time>2018-07-14T08:11:50.009Z</time>
      </trkpt>
      <trkpt lat="37.174605" lon="-3.451226">
        <ele>1421</ele>
        <time>2018-07-14T08:11:56.009Z</time>
      </trkpt>
      <trkpt lat="37.174653" lon="-3.451266">
        <ele>1419</ele>
        <time>2018-07-14T08:12:01.009Z</time>
      </trkpt>
      <trkpt lat="37.174697" lon="-3.451321">
        <ele>1418</ele>
        <time>2018-07-14T08:12:05.009Z</time>
      </trkpt>
      <trkpt lat="37.174757" lon="-3.451384">
        <ele>1416</ele>
        <time>2018-07-14T08:12:10.009Z</time>
      </trkpt>
      <trkpt lat="37.174812" lon="-3.451446">
        <ele>1414.73100455686</ele>
        <time>2018-07-14T08:12:14.009Z</time>
      </trkpt>
      <trkpt lat="37.174863" lon="-3.451528">
        <ele>1413</ele>
        <time>2018-07-14T08:12:18.009Z</time>
      </trkpt>
      <trkpt lat="37.174919" lon="-3.451631">
        <ele>1411.73099864322</ele>
        <time>2018-07-14T08:12:23.009Z</time>
      </trkpt>
      <trkpt lat="37.175" lon="-3.451697">
        <ele>1409.73099864322</ele>
        <time>2018-07-14T08:12:27.009Z</time>
      </trkpt>
      <trkpt lat="37.175073" lon="-3.451729">
        <ele>1407.73100455686</ele>
        <time>2018-07-14T08:12:30.009Z</time>
      </trkpt>
      <trkpt lat="37.175163" lon="-3.45178">
        <ele>1406</ele>
        <time>2018-07-14T08:12:34.009Z</time>
      </trkpt>
      <trkpt lat="37.175251" lon="-3.451829">
        <ele>1404</ele>
        <time>2018-07-14T08:12:38.009Z</time>
      </trkpt>
      <trkpt lat="37.175356" lon="-3.45188">
        <ele>1403</ele>
        <time>2018-07-14T08:12:42.009Z</time>
      </trkpt>
      <trkpt lat="37.17543" lon="-3.451934">
        <ele>1402</ele>
        <time>2018-07-14T08:12:45.009Z</time>
      </trkpt>
      <trkpt lat="37.175503" lon="-3.45199">
        <ele>1401</ele>
        <time>2018-07-14T08:12:48.009Z</time>
      </trkpt>
      <trkpt lat="37.175609" lon="-3.452054">
        <ele>1400</ele>
        <time>2018-07-14T08:12:52.009Z</time>
      </trkpt>
      <trkpt lat="37.175677" lon="-3.452083">
        <ele>1399</ele>
        <time>2018-07-14T08:12:55.009Z</time>
      </trkpt>
      <trkpt lat="37.175737" lon="-3.452123">
        <ele>1399</ele>
        <time>2018-07-14T08:12:58.009Z</time>
      </trkpt>
      <trkpt lat="37.175795" lon="-3.452171">
        <ele>1399</ele>
        <time>2018-07-14T08:13:01.009Z</time>
      </trkpt>
      <trkpt lat="37.17585" lon="-3.452228">
        <ele>1399</ele>
        <time>2018-07-14T08:13:04.009Z</time>
      </trkpt>
      <trkpt lat="37.175918" lon="-3.452294">
        <ele>1399</ele>
        <time>2018-07-14T08:13:07.009Z</time>
      </trkpt>
      <trkpt lat="37.175977" lon="-3.452352">
        <ele>1398.73100455686</ele>
        <time>2018-07-14T08:13:10.009Z</time>
      </trkpt>
      <trkpt lat="37.17604" lon="-3.452412">
        <ele>1398</ele>
        <time>2018-07-14T08:13:13.009Z</time>
      </trkpt>
      <trkpt lat="37.176125" lon="-3.452499">
        <ele>1397</ele>
        <time>2018-07-14T08:13:17.009Z</time>
      </trkpt>
      <trkpt lat="37.176201" lon="-3.452556">
        <ele>1397</ele>
        <time>2018-07-14T08:13:20.009Z</time>
      </trkpt>
      <trkpt lat="37.176278" lon="-3.452605">
        <ele>1397</ele>
        <time>2018-07-14T08:13:23.009Z</time>
      </trkpt>
      <trkpt lat="37.176366" lon="-3.452663">
        <ele>1397</ele>
        <time>2018-07-14T08:13:27.009Z</time>
      </trkpt>
      <trkpt lat="37.176438" lon="-3.452707">
        <ele>1397</ele>
        <time>2018-07-14T08:13:32.009Z</time>
      </trkpt>
      <trkpt lat="37.176523" lon="-3.452768">
        <ele>1397</ele>
        <time>2018-07-14T08:13:36.009Z</time>
      </trkpt>
      <trkpt lat="37.176618" lon="-3.452833">
        <ele>1396</ele>
        <time>2018-07-14T08:13:40.009Z</time>
      </trkpt>
      <trkpt lat="37.176714" lon="-3.452885">
        <ele>1396</ele>
        <time>2018-07-14T08:13:44.009Z</time>
      </trkpt>
      <trkpt lat="37.176801" lon="-3.452933">
        <ele>1396</ele>
        <time>2018-07-14T08:13:48.009Z</time>
      </trkpt>
      <trkpt lat="37.176895" lon="-3.452965">
        <ele>1397</ele>
        <time>2018-07-14T08:13:52.009Z</time>
      </trkpt>
      <trkpt lat="37.177008" lon="-3.452998">
        <ele>1397</ele>
        <time>2018-07-14T08:13:57.009Z</time>
      </trkpt>
      <trkpt lat="37.177107" lon="-3.453041">
        <ele>1397</ele>
        <time>2018-07-14T08:14:01.009Z</time>
      </trkpt>
      <trkpt lat="37.177207" lon="-3.453068">
        <ele>1397</ele>
        <time>2018-07-14T08:14:05.009Z</time>
      </trkpt>
      <trkpt lat="37.177308" lon="-3.453078">
        <ele>1396</ele>
        <time>2018-07-14T08:14:09.009Z</time>
      </trkpt>
      <trkpt lat="37.177406" lon="-3.453141">
        <ele>1395.73100455686</ele>
        <time>2018-07-14T08:14:14.009Z</time>
      </trkpt>
      <trkpt lat="37.177502" lon="-3.453242">
        <ele>1395</ele>
        <time>2018-07-14T08:14:19.009Z</time>
      </trkpt>
      <trkpt lat="37.177575" lon="-3.453329">
        <ele>1394</ele>
        <time>2018-07-14T08:14:23.009Z</time>
      </trkpt>
      <trkpt lat="37.177645" lon="-3.453433">
        <ele>1392.73367044331</ele>
        <time>2018-07-14T08:14:28.009Z</time>
      </trkpt>
      <trkpt lat="37.177697" lon="-3.453552">
        <ele>1389</ele>
        <time>2018-07-14T08:14:33.009Z</time>
      </trkpt>
      <trkpt lat="37.177748" lon="-3.453651">
        <ele>1387</ele>
        <time>2018-07-14T08:14:37.009Z</time>
      </trkpt>
      <trkpt lat="37.177781" lon="-3.453733">
        <ele>1385.73100455686</ele>
        <time>2018-07-14T08:14:40.009Z</time>
      </trkpt>
      <trkpt lat="37.177806" lon="-3.453817">
        <ele>1384</ele>
        <time>2018-07-14T08:14:43.009Z</time>
      </trkpt>
      <trkpt lat="37.177846" lon="-3.45391">
        <ele>1382.04305777778</ele>
        <time>2018-07-14T08:14:47.009Z</time>
      </trkpt>
      <trkpt lat="37.177893" lon="-3.454002">
        <ele>1380.97467317473</ele>
        <time>2018-07-14T08:14:51.009Z</time>
      </trkpt>
      <trkpt lat="37.177929" lon="-3.454079">
        <ele>1379</ele>
        <time>2018-07-14T08:14:54.009Z</time>
      </trkpt>
      <trkpt lat="37.177975" lon="-3.454156">
        <ele>1378</ele>
        <time>2018-07-14T08:14:57.009Z</time>
      </trkpt>
      <trkpt lat="37.178031" lon="-3.454225">
        <ele>1376.73100455686</ele>
        <time>2018-07-14T08:15:00.009Z</time>
      </trkpt>
      <trkpt lat="37.178097" lon="-3.454303">
        <ele>1374.73100455686</ele>
        <time>2018-07-14T08:15:04.009Z</time>
      </trkpt>
      <trkpt lat="37.178139" lon="-3.454379">
        <ele>1374</ele>
        <time>2018-07-14T08:15:07.009Z</time>
      </trkpt>
      <trkpt lat="37.178182" lon="-3.454462">
        <ele>1372.73100455686</ele>
        <time>2018-07-14T08:15:10.009Z</time>
      </trkpt>
      <trkpt lat="37.178226" lon="-3.45454">
        <ele>1372</ele>
        <time>2018-07-14T08:15:13.009Z</time>
      </trkpt>
      <trkpt lat="37.17829" lon="-3.454626">
        <ele>1371</ele>
        <time>2018-07-14T08:15:17.009Z</time>
      </trkpt>
      <trkpt lat="37.17836" lon="-3.454701">
        <ele>1370.73099864322</ele>
        <time>2018-07-14T08:15:21.009Z</time>
      </trkpt>
      <trkpt lat="37.178446" lon="-3.454768">
        <ele>1370</ele>
        <time>2018-07-14T08:15:26.009Z</time>
      </trkpt>
      <trkpt lat="37.178546" lon="-3.454842">
        <ele>1369</ele>
        <time>2018-07-14T08:15:31.009Z</time>
      </trkpt>
      <trkpt lat="37.178641" lon="-3.45493">
        <ele>1368.73100455686</ele>
        <time>2018-07-14T08:15:36.009Z</time>
      </trkpt>
      <trkpt lat="37.178725" lon="-3.455012">
        <ele>1367.73100455686</ele>
        <time>2018-07-14T08:15:42.009Z</time>
      </trkpt>
      <trkpt lat="37.178774" lon="-3.455061">
        <ele>1365</ele>
        <time>2018-07-14T08:15:49.009Z</time>
      </trkpt>
      <trkpt lat="37.178746" lon="-3.455005">
        <ele>1363.26900135678</ele>
        <time>2018-07-14T08:16:01.009Z</time>
      </trkpt>
      <trkpt lat="37.178704" lon="-3.454964">
        <ele>1364</ele>
        <time>2018-07-14T08:16:06.009Z</time>
      </trkpt>
      <trkpt lat="37.178672" lon="-3.45493">
        <ele>1364</ele>
        <time>2018-07-14T08:16:11.009Z</time>
      </trkpt>
      <trkpt lat="37.178636" lon="-3.454899">
        <ele>1365</ele>
        <time>2018-07-14T08:16:15.009Z</time>
      </trkpt>
      <trkpt lat="37.178598" lon="-3.454859">
        <ele>1365</ele>
        <time>2018-07-14T08:16:19.009Z</time>
      </trkpt>
      <trkpt lat="37.178552" lon="-3.454811">
        <ele>1365</ele>
        <time>2018-07-14T08:16:22.009Z</time>
      </trkpt>
      <trkpt lat="37.178484" lon="-3.454755">
        <ele>1365</ele>
        <time>2018-07-14T08:16:25.009Z</time>
      </trkpt>
      <trkpt lat="37.178418" lon="-3.454707">
        <ele>1366</ele>
        <time>2018-07-14T08:16:28.009Z</time>
      </trkpt>
      <trkpt lat="37.17834" lon="-3.454646">
        <ele>1366</ele>
        <time>2018-07-14T08:16:32.009Z</time>
      </trkpt>
      <trkpt lat="37.178268" lon="-3.454557">
        <ele>1368</ele>
        <time>2018-07-14T08:16:38.009Z</time>
      </trkpt>
      <trkpt lat="37.178216" lon="-3.454496">
        <ele>1370</ele>
        <time>2018-07-14T08:16:43.009Z</time>
      </trkpt>
      <trkpt lat="37.178176" lon="-3.454431">
        <ele>1370.26899544314</ele>
        <time>2018-07-14T08:16:48.009Z</time>
      </trkpt>
      <trkpt lat="37.178138" lon="-3.454361">
        <ele>1372</ele>
        <time>2018-07-14T08:16:53.009Z</time>
      </trkpt>
      <trkpt lat="37.178106" lon="-3.454291">
        <ele>1373</ele>
        <time>2018-07-14T08:16:59.009Z</time>
      </trkpt>
      <trkpt lat="37.178066" lon="-3.454226">
        <ele>1374</ele>
        <time>2018-07-14T08:17:05.009Z</time>
      </trkpt>
      <trkpt lat="37.178019" lon="-3.454166">
        <ele>1374.26899544314</ele>
        <time>2018-07-14T08:17:10.009Z</time>
      </trkpt>
      <trkpt lat="37.177972" lon="-3.454107">
        <ele>1375</ele>
        <time>2018-07-14T08:17:15.009Z</time>
      </trkpt>
      <trkpt lat="37.177926" lon="-3.454048">
        <ele>1376.26632955669</ele>
        <time>2018-07-14T08:17:20.009Z</time>
      </trkpt>
      <trkpt lat="37.177894" lon="-3.453978">
        <ele>1378</ele>
        <time>2018-07-14T08:17:26.009Z</time>
      </trkpt>
      <trkpt lat="37.177859" lon="-3.4539">
        <ele>1379</ele>
        <time>2018-07-14T08:17:33.009Z</time>
      </trkpt>
      <trkpt lat="37.177825" lon="-3.453841">
        <ele>1380</ele>
        <time>2018-07-14T08:17:39.009Z</time>
      </trkpt>
      <trkpt lat="37.177801" lon="-3.453768">
        <ele>1381</ele>
        <time>2018-07-14T08:17:52.009Z</time>
      </trkpt>
      <trkpt lat="37.17776" lon="-3.453684">
        <ele>1382</ele>
        <time>2018-07-14T08:18:09.009Z</time>
      </trkpt>
      <trkpt lat="37.177723" lon="-3.453604">
        <ele>1385</ele>
        <time>2018-07-14T08:18:18.009Z</time>
      </trkpt>
      <trkpt lat="37.177691" lon="-3.453528">
        <ele>1387</ele>
        <time>2018-07-14T08:18:26.009Z</time>
      </trkpt>
      <trkpt lat="37.177675" lon="-3.453492">
        <ele>1388</ele>
        <time>2018-07-14T08:18:30.009Z</time>
      </trkpt>
      <trkpt lat="37.177658" lon="-3.453454">
        <ele>1388.26899544314</ele>
        <time>2018-07-14T08:18:34.009Z</time>
      </trkpt>
      <trkpt lat="37.177642" lon="-3.45342">
        <ele>1389.26899544314</ele>
        <time>2018-07-14T08:18:38.009Z</time>
      </trkpt>
      <trkpt lat="37.177622" lon="-3.453376">
        <ele>1391</ele>
        <time>2018-07-14T08:18:42.009Z</time>
      </trkpt>
      <trkpt lat="37.177596" lon="-3.453328">
        <ele>1391</ele>
        <time>2018-07-14T08:18:47.009Z</time>
      </trkpt>
      <trkpt lat="37.177562" lon="-3.453296">
        <ele>1391</ele>
        <time>2018-07-14T08:18:51.009Z</time>
      </trkpt>
      <trkpt lat="37.177532" lon="-3.453256">
        <ele>1392</ele>
        <time>2018-07-14T08:18:55.009Z</time>
      </trkpt>
      <trkpt lat="37.177492" lon="-3.453216">
        <ele>1393</ele>
        <time>2018-07-14T08:18:59.009Z</time>
      </trkpt>
      <trkpt lat="37.177459" lon="-3.453182">
        <ele>1393</ele>
        <time>2018-07-14T08:19:02.009Z</time>
      </trkpt>
      <trkpt lat="37.17743" lon="-3.453155">
        <ele>1393</ele>
        <time>2018-07-14T08:19:05.009Z</time>
      </trkpt>
      <trkpt lat="37.1774" lon="-3.453121">
        <ele>1393</ele>
        <time>2018-07-14T08:19:08.009Z</time>
      </trkpt>
      <trkpt lat="37.177368" lon="-3.453094">
        <ele>1394</ele>
        <time>2018-07-14T08:19:11.009Z</time>
      </trkpt>
      <trkpt lat="37.177341" lon="-3.45307">
        <ele>1394</ele>
        <time>2018-07-14T08:19:14.009Z</time>
      </trkpt>
      <trkpt lat="37.177312" lon="-3.453052">
        <ele>1394</ele>
        <time>2018-07-14T08:19:17.009Z</time>
      </trkpt>
      <trkpt lat="37.177276" lon="-3.453033">
        <ele>1394</ele>
        <time>2018-07-14T08:19:20.009Z</time>
      </trkpt>
      <trkpt lat="37.177242" lon="-3.453026">
        <ele>1394</ele>
        <time>2018-07-14T08:19:23.009Z</time>
      </trkpt>
      <trkpt lat="37.177205" lon="-3.453038">
        <ele>1395</ele>
        <time>2018-07-14T08:19:28.009Z</time>
      </trkpt>
      <trkpt lat="37.177159" lon="-3.453022">
        <ele>1395</ele>
        <time>2018-07-14T08:19:33.009Z</time>
      </trkpt>
      <trkpt lat="37.177114" lon="-3.453005">
        <ele>1396</ele>
        <time>2018-07-14T08:19:36.009Z</time>
      </trkpt>
      <trkpt lat="37.177082" lon="-3.452991">
        <ele>1396</ele>
        <time>2018-07-14T08:19:38.009Z</time>
      </trkpt>
      <trkpt lat="37.177041" lon="-3.452972">
        <ele>1396</ele>
        <time>2018-07-14T08:19:41.009Z</time>
      </trkpt>
      <trkpt lat="37.177012" lon="-3.452957">
        <ele>1396</ele>
        <time>2018-07-14T08:19:43.009Z</time>
      </trkpt>
      <trkpt lat="37.176969" lon="-3.452941">
        <ele>1397</ele>
        <time>2018-07-14T08:19:46.009Z</time>
      </trkpt>
      <trkpt lat="37.176925" lon="-3.452922">
        <ele>1397</ele>
        <time>2018-07-14T08:19:49.009Z</time>
      </trkpt>
      <trkpt lat="37.176879" lon="-3.452907">
        <ele>1397</ele>
        <time>2018-07-14T08:19:52.009Z</time>
      </trkpt>
      <trkpt lat="37.176835" lon="-3.452898">
        <ele>1397</ele>
        <time>2018-07-14T08:19:54.009Z</time>
      </trkpt>
      <trkpt lat="37.176783" lon="-3.452882">
        <ele>1397</ele>
        <time>2018-07-14T08:19:56.009Z</time>
      </trkpt>
      <trkpt lat="37.176736" lon="-3.452858">
        <ele>1397</ele>
        <time>2018-07-14T08:19:58.009Z</time>
      </trkpt>
      <trkpt lat="37.176688" lon="-3.452831">
        <ele>1397</ele>
        <time>2018-07-14T08:20:00.009Z</time>
      </trkpt>
      <trkpt lat="37.176636" lon="-3.452808">
        <ele>1397</ele>
        <time>2018-07-14T08:20:02.009Z</time>
      </trkpt>
      <trkpt lat="37.176581" lon="-3.452784">
        <ele>1397</ele>
        <time>2018-07-14T08:20:04.009Z</time>
      </trkpt>
      <trkpt lat="37.176527" lon="-3.452754">
        <ele>1397</ele>
        <time>2018-07-14T08:20:06.009Z</time>
      </trkpt>
      <trkpt lat="37.176475" lon="-3.452719">
        <ele>1397</ele>
        <time>2018-07-14T08:20:08.009Z</time>
      </trkpt>
      <trkpt lat="37.176428" lon="-3.452687">
        <ele>1397</ele>
        <time>2018-07-14T08:20:10.009Z</time>
      </trkpt>
      <trkpt lat="37.176382" lon="-3.452656">
        <ele>1397</ele>
        <time>2018-07-14T08:20:12.009Z</time>
      </trkpt>
      <trkpt lat="37.176342" lon="-3.452626">
        <ele>1397</ele>
        <time>2018-07-14T08:20:14.009Z</time>
      </trkpt>
      <trkpt lat="37.176292" lon="-3.452591">
        <ele>1397</ele>
        <time>2018-07-14T08:20:16.009Z</time>
      </trkpt>
      <trkpt lat="37.176241" lon="-3.452552">
        <ele>1396.73838615001</ele>
        <time>2018-07-14T08:20:18.009Z</time>
      </trkpt>
      <trkpt lat="37.176193" lon="-3.452524">
        <ele>1396.26899544314</ele>
        <time>2018-07-14T08:20:20.009Z</time>
      </trkpt>
      <trkpt lat="37.176143" lon="-3.452494">
        <ele>1397</ele>
        <time>2018-07-14T08:20:22.009Z</time>
      </trkpt>
      <trkpt lat="37.176096" lon="-3.452461">
        <ele>1397</ele>
        <time>2018-07-14T08:20:24.009Z</time>
      </trkpt>
      <trkpt lat="37.176027" lon="-3.452406">
        <ele>1396.73099864322</ele>
        <time>2018-07-14T08:20:27.009Z</time>
      </trkpt>
      <trkpt lat="37.175949" lon="-3.452327">
        <ele>1396</ele>
        <time>2018-07-14T08:20:31.009Z</time>
      </trkpt>
      <trkpt lat="37.175869" lon="-3.452244">
        <ele>1397</ele>
        <time>2018-07-14T08:20:35.009Z</time>
      </trkpt>
      <trkpt lat="37.175811" lon="-3.452182">
        <ele>1397</ele>
        <time>2018-07-14T08:20:38.009Z</time>
      </trkpt>
      <trkpt lat="37.175717" lon="-3.452095">
        <ele>1397</ele>
        <time>2018-07-14T08:20:43.009Z</time>
      </trkpt>
      <trkpt lat="37.175621" lon="-3.452026">
        <ele>1398</ele>
        <time>2018-07-14T08:20:47.009Z</time>
      </trkpt>
      <trkpt lat="37.175548" lon="-3.451978">
        <ele>1398</ele>
        <time>2018-07-14T08:20:50.009Z</time>
      </trkpt>
      <trkpt lat="37.17547" lon="-3.451916">
        <ele>1398.73099864322</ele>
        <time>2018-07-14T08:20:55.009Z</time>
      </trkpt>
      <trkpt lat="37.175407" lon="-3.451855">
        <ele>1399</ele>
        <time>2018-07-14T08:21:01.009Z</time>
      </trkpt>
      <trkpt lat="37.175411" lon="-3.451774">
        <ele>1397</ele>
        <time>2018-07-14T08:21:09.009Z</time>
      </trkpt>
      <trkpt lat="37.175406" lon="-3.451712">
        <ele>1395.73100455686</ele>
        <time>2018-07-14T08:21:12.009Z</time>
      </trkpt>
      <trkpt lat="37.175393" lon="-3.451662">
        <ele>1394.73100455686</ele>
        <time>2018-07-14T08:21:14.009Z</time>
      </trkpt>
      <trkpt lat="37.17537" lon="-3.451608">
        <ele>1394</ele>
        <time>2018-07-14T08:21:16.009Z</time>
      </trkpt>
      <trkpt lat="37.175337" lon="-3.451558">
        <ele>1393</ele>
        <time>2018-07-14T08:21:18.009Z</time>
      </trkpt>
      <trkpt lat="37.175278" lon="-3.451446">
        <ele>1392</ele>
        <time>2018-07-14T08:21:22.009Z</time>
      </trkpt>
      <trkpt lat="37.175217" lon="-3.45132">
        <ele>1390.73100455686</ele>
        <time>2018-07-14T08:21:26.009Z</time>
      </trkpt>
      <trkpt lat="37.175171" lon="-3.451222">
        <ele>1389.73099864322</ele>
        <time>2018-07-14T08:21:29.009Z</time>
      </trkpt>
      <trkpt lat="37.175152" lon="-3.451154">
        <ele>1388.73099864322</ele>
        <time>2018-07-14T08:21:31.009Z</time>
      </trkpt>
      <trkpt lat="37.175152" lon="-3.451084">
        <ele>1388</ele>
        <time>2018-07-14T08:21:33.009Z</time>
      </trkpt>
      <trkpt lat="37.17515" lon="-3.451006">
        <ele>1387.73099864322</ele>
        <time>2018-07-14T08:21:35.009Z</time>
      </trkpt>
      <trkpt lat="37.175147" lon="-3.450932">
        <ele>1387</ele>
        <time>2018-07-14T08:21:37.009Z</time>
      </trkpt>
      <trkpt lat="37.175145" lon="-3.450848">
        <ele>1386</ele>
        <time>2018-07-14T08:21:39.009Z</time>
      </trkpt>
      <trkpt lat="37.175154" lon="-3.450768">
        <ele>1385.73838953248</ele>
        <time>2018-07-14T08:21:41.009Z</time>
      </trkpt>
      <trkpt lat="37.175134" lon="-3.45066">
        <ele>1385</ele>
        <time>2018-07-14T08:21:44.009Z</time>
      </trkpt>
      <trkpt lat="37.175125" lon="-3.45054">
        <ele>1383.73838953248</ele>
        <time>2018-07-14T08:21:49.009Z</time>
      </trkpt>
      <trkpt lat="37.175093" lon="-3.450468">
        <ele>1383</ele>
        <time>2018-07-14T08:21:52.009Z</time>
      </trkpt>
      <trkpt lat="37.175055" lon="-3.450392">
        <ele>1380.73367044331</ele>
        <time>2018-07-14T08:21:56.009Z</time>
      </trkpt>
      <trkpt lat="37.175003" lon="-3.45026">
        <ele>1378</ele>
        <time>2018-07-14T08:22:01.009Z</time>
      </trkpt>
      <trkpt lat="37.174949" lon="-3.450145">
        <ele>1376.74592165929</ele>
        <time>2018-07-14T08:22:05.009Z</time>
      </trkpt>
      <trkpt lat="37.174911" lon="-3.450111">
        <ele>1375.73099864322</ele>
        <time>2018-07-14T08:22:07.009Z</time>
      </trkpt>
      <trkpt lat="37.174853" lon="-3.450114">
        <ele>1373.73099864322</ele>
        <time>2018-07-14T08:22:09.009Z</time>
      </trkpt>
      <trkpt lat="37.174791" lon="-3.450124">
        <ele>1372</ele>
        <time>2018-07-14T08:22:12.009Z</time>
      </trkpt>
      <trkpt lat="37.174743" lon="-3.450114">
        <ele>1371</ele>
        <time>2018-07-14T08:22:14.009Z</time>
      </trkpt>
      <trkpt lat="37.17469" lon="-3.450088">
        <ele>1370</ele>
        <time>2018-07-14T08:22:16.009Z</time>
      </trkpt>
      <trkpt lat="37.174639" lon="-3.450054">
        <ele>1369</ele>
        <time>2018-07-14T08:22:18.009Z</time>
      </trkpt>
      <trkpt lat="37.174589" lon="-3.45003">
        <ele>1368.73100455686</ele>
        <time>2018-07-14T08:22:20.009Z</time>
      </trkpt>
      <trkpt lat="37.174539" lon="-3.45002">
        <ele>1368</ele>
        <time>2018-07-14T08:22:22.009Z</time>
      </trkpt>
      <trkpt lat="37.174493" lon="-3.450003">
        <ele>1367.73100455686</ele>
        <time>2018-07-14T08:22:24.009Z</time>
      </trkpt>
      <trkpt lat="37.174435" lon="-3.449958">
        <ele>1366</ele>
        <time>2018-07-14T08:22:27.009Z</time>
      </trkpt>
      <trkpt lat="37.174389" lon="-3.44992">
        <ele>1365</ele>
        <time>2018-07-14T08:22:29.009Z</time>
      </trkpt>
      <trkpt lat="37.174323" lon="-3.449892">
        <ele>1365</ele>
        <time>2018-07-14T08:22:32.009Z</time>
      </trkpt>
      <trkpt lat="37.174255" lon="-3.44986">
        <ele>1364</ele>
        <time>2018-07-14T08:22:35.009Z</time>
      </trkpt>
      <trkpt lat="37.174212" lon="-3.449826">
        <ele>1363.73099864322</ele>
        <time>2018-07-14T08:22:37.009Z</time>
      </trkpt>
      <trkpt lat="37.174176" lon="-3.449778">
        <ele>1363</ele>
        <time>2018-07-14T08:22:39.009Z</time>
      </trkpt>
      <trkpt lat="37.174135" lon="-3.449728">
        <ele>1362</ele>
        <time>2018-07-14T08:22:41.009Z</time>
      </trkpt>
      <trkpt lat="37.174087" lon="-3.449701">
        <ele>1362</ele>
        <time>2018-07-14T08:22:43.009Z</time>
      </trkpt>
      <trkpt lat="37.17401" lon="-3.449688">
        <ele>1361</ele>
        <time>2018-07-14T08:22:46.009Z</time>
      </trkpt>
      <trkpt lat="37.173936" lon="-3.44968">
        <ele>1360</ele>
        <time>2018-07-14T08:22:49.009Z</time>
      </trkpt>
      <trkpt lat="37.173865" lon="-3.449688">
        <ele>1358.73100455686</ele>
        <time>2018-07-14T08:22:52.009Z</time>
      </trkpt>
      <trkpt lat="37.173791" lon="-3.449678">
        <ele>1358</ele>
        <time>2018-07-14T08:22:55.009Z</time>
      </trkpt>
      <trkpt lat="37.17373" lon="-3.449672">
        <ele>1357</ele>
        <time>2018-07-14T08:22:57.009Z</time>
      </trkpt>
      <trkpt lat="37.173668" lon="-3.44967">
        <ele>1356</ele>
        <time>2018-07-14T08:22:59.009Z</time>
      </trkpt>
      <trkpt lat="37.173607" lon="-3.449666">
        <ele>1355.73099864322</ele>
        <time>2018-07-14T08:23:01.009Z</time>
      </trkpt>
      <trkpt lat="37.173557" lon="-3.449649">
        <ele>1355</ele>
        <time>2018-07-14T08:23:03.009Z</time>
      </trkpt>
      <trkpt lat="37.173473" lon="-3.44964">
        <ele>1353.73100455686</ele>
        <time>2018-07-14T08:23:06.009Z</time>
      </trkpt>
      <trkpt lat="37.1734" lon="-3.449651">
        <ele>1352</ele>
        <time>2018-07-14T08:23:09.009Z</time>
      </trkpt>
      <trkpt lat="37.173342" lon="-3.449612">
        <ele>1351</ele>
        <time>2018-07-14T08:23:12.009Z</time>
      </trkpt>
      <trkpt lat="37.173283" lon="-3.449597">
        <ele>1350.02958409202</ele>
        <time>2018-07-14T08:23:15.009Z</time>
      </trkpt>
      <trkpt lat="37.173226" lon="-3.449609">
        <ele>1348.7848058491</ele>
        <time>2018-07-14T08:23:18.009Z</time>
      </trkpt>
      <trkpt lat="37.173202" lon="-3.449546">
        <ele>1346.73100455686</ele>
        <time>2018-07-14T08:23:22.009Z</time>
      </trkpt>
      <trkpt lat="37.173195" lon="-3.449495">
        <ele>1346</ele>
        <time>2018-07-14T08:23:24.009Z</time>
      </trkpt>
      <trkpt lat="37.173168" lon="-3.449448">
        <ele>1346</ele>
        <time>2018-07-14T08:23:26.009Z</time>
      </trkpt>
      <trkpt lat="37.173116" lon="-3.4494">
        <ele>1345.73099864322</ele>
        <time>2018-07-14T08:23:29.009Z</time>
      </trkpt>
      <trkpt lat="37.173063" lon="-3.449361">
        <ele>1344.73100455686</ele>
        <time>2018-07-14T08:23:32.009Z</time>
      </trkpt>
      <trkpt lat="37.173036" lon="-3.449307">
        <ele>1344</ele>
        <time>2018-07-14T08:23:34.009Z</time>
      </trkpt>
      <trkpt lat="37.172977" lon="-3.449254">
        <ele>1343</ele>
        <time>2018-07-14T08:23:37.009Z</time>
      </trkpt>
      <trkpt lat="37.172913" lon="-3.449213">
        <ele>1342.73100455686</ele>
        <time>2018-07-14T08:23:40.009Z</time>
      </trkpt>
      <trkpt lat="37.172868" lon="-3.449151">
        <ele>1341.7336611454</ele>
        <time>2018-07-14T08:23:43.009Z</time>
      </trkpt>
      <trkpt lat="37.172803" lon="-3.449116">
        <ele>1341</ele>
        <time>2018-07-14T08:23:46.009Z</time>
      </trkpt>
      <trkpt lat="37.172751" lon="-3.449111">
        <ele>1340.73100455686</ele>
        <time>2018-07-14T08:23:48.009Z</time>
      </trkpt>
      <trkpt lat="37.172698" lon="-3.449098">
        <ele>1340.73100455686</ele>
        <time>2018-07-14T08:23:50.009Z</time>
      </trkpt>
      <trkpt lat="37.172645" lon="-3.449098">
        <ele>1340</ele>
        <time>2018-07-14T08:23:52.009Z</time>
      </trkpt>
      <trkpt lat="37.172586" lon="-3.449089">
        <ele>1340</ele>
        <time>2018-07-14T08:23:55.009Z</time>
      </trkpt>
      <trkpt lat="37.172529" lon="-3.449066">
        <ele>1339</ele>
        <time>2018-07-14T08:23:58.009Z</time>
      </trkpt>
      <trkpt lat="37.172489" lon="-3.44903">
        <ele>1338</ele>
        <time>2018-07-14T08:24:01.009Z</time>
      </trkpt>
      <trkpt lat="37.172491" lon="-3.448938">
        <ele>1333</ele>
        <time>2018-07-14T08:24:20.009Z</time>
      </trkpt>
      <trkpt lat="37.172547" lon="-3.448888">
        <ele>1330.73100455686</ele>
        <time>2018-07-14T08:24:30.009Z</time>
      </trkpt>
      <trkpt lat="37.172535" lon="-3.448796">
        <ele>1328</ele>
        <time>2018-07-14T08:24:36.009Z</time>
      </trkpt>
      <trkpt lat="37.1725" lon="-3.448707">
        <ele>1327</ele>
        <time>2018-07-14T08:24:40.009Z</time>
      </trkpt>
      <trkpt lat="37.172449" lon="-3.448578">
        <ele>1326</ele>
        <time>2018-07-14T08:24:45.009Z</time>
      </trkpt>
      <trkpt lat="37.172351" lon="-3.448493">
        <ele>1326</ele>
        <time>2018-07-14T08:24:50.009Z</time>
      </trkpt>
      <trkpt lat="37.172259" lon="-3.448438">
        <ele>1326</ele>
        <time>2018-07-14T08:24:54.009Z</time>
      </trkpt>
      <trkpt lat="37.172184" lon="-3.448341">
        <ele>1325</ele>
        <time>2018-07-14T08:25:00.009Z</time>
      </trkpt>
      <trkpt lat="37.172114" lon="-3.448248">
        <ele>1324</ele>
        <time>2018-07-14T08:25:06.009Z</time>
      </trkpt>
      <trkpt lat="37.172095" lon="-3.44814">
        <ele>1323</ele>
        <time>2018-07-14T08:25:11.009Z</time>
      </trkpt>
      <trkpt lat="37.172023" lon="-3.448035">
        <ele>1322</ele>
        <time>2018-07-14T08:25:17.009Z</time>
      </trkpt>
      <trkpt lat="37.17197" lon="-3.447948">
        <ele>1321</ele>
        <time>2018-07-14T08:25:22.009Z</time>
      </trkpt>
      <trkpt lat="37.17194" lon="-3.447873">
        <ele>1319.73099864322</ele>
        <time>2018-07-14T08:25:27.009Z</time>
      </trkpt>
      <trkpt lat="37.171927" lon="-3.447789">
        <ele>1318</ele>
        <time>2018-07-14T08:25:32.009Z</time>
      </trkpt>
      <trkpt lat="37.171908" lon="-3.447723">
        <ele>1316</ele>
        <time>2018-07-14T08:25:36.009Z</time>
      </trkpt>
      <trkpt lat="37.171885" lon="-3.447608">
        <ele>1314</ele>
        <time>2018-07-14T08:25:42.009Z</time>
      </trkpt>
      <trkpt lat="37.171869" lon="-3.447531">
        <ele>1313</ele>
        <time>2018-07-14T08:25:46.009Z</time>
      </trkpt>
      <trkpt lat="37.171855" lon="-3.447467">
        <ele>1312</ele>
        <time>2018-07-14T08:25:49.009Z</time>
      </trkpt>
      <trkpt lat="37.171845" lon="-3.447411">
        <ele>1311</ele>
        <time>2018-07-14T08:25:51.009Z</time>
      </trkpt>
      <trkpt lat="37.171844" lon="-3.447353">
        <ele>1310.73099864322</ele>
        <time>2018-07-14T08:25:53.009Z</time>
      </trkpt>
      <trkpt lat="37.171831" lon="-3.447291">
        <ele>1309.73099864322</ele>
        <time>2018-07-14T08:25:55.009Z</time>
      </trkpt>
      <trkpt lat="37.171794" lon="-3.447244">
        <ele>1308</ele>
        <time>2018-07-14T08:25:57.009Z</time>
      </trkpt>
      <trkpt lat="37.171723" lon="-3.447198">
        <ele>1306.73100455686</ele>
        <time>2018-07-14T08:26:00.009Z</time>
      </trkpt>
      <trkpt lat="37.171668" lon="-3.44717">
        <ele>1306</ele>
        <time>2018-07-14T08:26:02.009Z</time>
      </trkpt>
      <trkpt lat="37.171615" lon="-3.447146">
        <ele>1305</ele>
        <time>2018-07-14T08:26:04.009Z</time>
      </trkpt>
      <trkpt lat="37.171564" lon="-3.447133">
        <ele>1304</ele>
        <time>2018-07-14T08:26:06.009Z</time>
      </trkpt>
      <trkpt lat="37.171495" lon="-3.447143">
        <ele>1303</ele>
        <time>2018-07-14T08:26:09.009Z</time>
      </trkpt>
      <trkpt lat="37.17143" lon="-3.447159">
        <ele>1302</ele>
        <time>2018-07-14T08:26:12.009Z</time>
      </trkpt>
      <trkpt lat="37.171384" lon="-3.447109">
        <ele>1299.73100455686</ele>
        <time>2018-07-14T08:26:16.009Z</time>
      </trkpt>
      <trkpt lat="37.171376" lon="-3.447034">
        <ele>1299</ele>
        <time>2018-07-14T08:26:19.009Z</time>
      </trkpt>
      <trkpt lat="37.171317" lon="-3.447017">
        <ele>1297.73100455686</ele>
        <time>2018-07-14T08:26:22.009Z</time>
      </trkpt>
      <trkpt lat="37.171272" lon="-3.447073">
        <ele>1296.73100455686</ele>
        <time>2018-07-14T08:26:24.009Z</time>
      </trkpt>
      <trkpt lat="37.171234" lon="-3.447124">
        <ele>1295.73100455686</ele>
        <time>2018-07-14T08:26:26.009Z</time>
      </trkpt>
      <trkpt lat="37.171195" lon="-3.447181">
        <ele>1295</ele>
        <time>2018-07-14T08:26:28.009Z</time>
      </trkpt>
      <trkpt lat="37.171153" lon="-3.447228">
        <ele>1294</ele>
        <time>2018-07-14T08:26:30.009Z</time>
      </trkpt>
      <trkpt lat="37.17109" lon="-3.447281">
        <ele>1293</ele>
        <time>2018-07-14T08:26:33.009Z</time>
      </trkpt>
      <trkpt lat="37.171047" lon="-3.447319">
        <ele>1292</ele>
        <time>2018-07-14T08:26:35.009Z</time>
      </trkpt>
      <trkpt lat="37.171002" lon="-3.447361">
        <ele>1291</ele>
        <time>2018-07-14T08:26:37.009Z</time>
      </trkpt>
      <trkpt lat="37.170953" lon="-3.447404">
        <ele>1290.73099864322</ele>
        <time>2018-07-14T08:26:39.009Z</time>
      </trkpt>
      <trkpt lat="37.170896" lon="-3.447473">
        <ele>1290</ele>
        <time>2018-07-14T08:26:42.009Z</time>
      </trkpt>
      <trkpt lat="37.170851" lon="-3.447545">
        <ele>1289</ele>
        <time>2018-07-14T08:26:45.009Z</time>
      </trkpt>
      <trkpt lat="37.170816" lon="-3.447607">
        <ele>1287.73100455686</ele>
        <time>2018-07-14T08:26:48.009Z</time>
      </trkpt>
      <trkpt lat="37.170792" lon="-3.447658">
        <ele>1287</ele>
        <time>2018-07-14T08:26:51.009Z</time>
      </trkpt>
      <trkpt lat="37.170766" lon="-3.447716">
        <ele>1287</ele>
        <time>2018-07-14T08:26:55.009Z</time>
      </trkpt>
      <trkpt lat="37.170742" lon="-3.447761">
        <ele>1287</ele>
        <time>2018-07-14T08:26:59.009Z</time>
      </trkpt>
      <trkpt lat="37.170727" lon="-3.447807">
        <ele>1287</ele>
        <time>2018-07-14T08:27:02.009Z</time>
      </trkpt>
      <trkpt lat="37.170707" lon="-3.447852">
        <ele>1288</ele>
        <time>2018-07-14T08:27:05.009Z</time>
      </trkpt>
      <trkpt lat="37.170681" lon="-3.447891">
        <ele>1287.73100455686</ele>
        <time>2018-07-14T08:27:08.009Z</time>
      </trkpt>
      <trkpt lat="37.170638" lon="-3.447925">
        <ele>1286.73099864322</ele>
        <time>2018-07-14T08:27:11.009Z</time>
      </trkpt>
      <trkpt lat="37.170598" lon="-3.447956">
        <ele>1286</ele>
        <time>2018-07-14T08:27:13.009Z</time>
      </trkpt>
      <trkpt lat="37.170554" lon="-3.44798">
        <ele>1286</ele>
        <time>2018-07-14T08:27:15.009Z</time>
      </trkpt>
      <trkpt lat="37.170509" lon="-3.44801">
        <ele>1285</ele>
        <time>2018-07-14T08:27:17.009Z</time>
      </trkpt>
      <trkpt lat="37.170463" lon="-3.44804">
        <ele>1284.73099864322</ele>
        <time>2018-07-14T08:27:19.009Z</time>
      </trkpt>
      <trkpt lat="37.170417" lon="-3.448064">
        <ele>1284</ele>
        <time>2018-07-14T08:27:21.009Z</time>
      </trkpt>
      <trkpt lat="37.170365" lon="-3.448088">
        <ele>1283</ele>
        <time>2018-07-14T08:27:24.009Z</time>
      </trkpt>
      <trkpt lat="37.170323" lon="-3.448094">
        <ele>1282</ele>
        <time>2018-07-14T08:27:27.009Z</time>
      </trkpt>
      <trkpt lat="37.170285" lon="-3.448085">
        <ele>1280.73838615001</ele>
        <time>2018-07-14T08:27:32.009Z</time>
      </trkpt>
      <trkpt lat="37.170252" lon="-3.448066">
        <ele>1279</ele>
        <time>2018-07-14T08:27:35.009Z</time>
      </trkpt>
      <trkpt lat="37.170224" lon="-3.448031">
        <ele>1278</ele>
        <time>2018-07-14T08:27:38.009Z</time>
      </trkpt>
      <trkpt lat="37.170247" lon="-3.447985">
        <ele>1277</ele>
        <time>2018-07-14T08:27:40.009Z</time>
      </trkpt>
      <trkpt lat="37.170282" lon="-3.447915">
        <ele>1276.73100455686</ele>
        <time>2018-07-14T08:27:42.009Z</time>
      </trkpt>
      <trkpt lat="37.170299" lon="-3.447838">
        <ele>1276</ele>
        <time>2018-07-14T08:27:44.009Z</time>
      </trkpt>
      <trkpt lat="37.170318" lon="-3.447764">
        <ele>1275</ele>
        <time>2018-07-14T08:27:46.009Z</time>
      </trkpt>
      <trkpt lat="37.170329" lon="-3.447695">
        <ele>1274</ele>
        <time>2018-07-14T08:27:48.009Z</time>
      </trkpt>
      <trkpt lat="37.170339" lon="-3.44763">
        <ele>1273.73100455686</ele>
        <time>2018-07-14T08:27:50.009Z</time>
      </trkpt>
      <trkpt lat="37.170349" lon="-3.447555">
        <ele>1273</ele>
        <time>2018-07-14T08:27:52.009Z</time>
      </trkpt>
      <trkpt lat="37.170356" lon="-3.44748">
        <ele>1273</ele>
        <time>2018-07-14T08:27:54.009Z</time>
      </trkpt>
      <trkpt lat="37.170351" lon="-3.447404">
        <ele>1273</ele>
        <time>2018-07-14T08:27:56.009Z</time>
      </trkpt>
      <trkpt lat="37.170338" lon="-3.447327">
        <ele>1273</ele>
        <time>2018-07-14T08:27:58.009Z</time>
      </trkpt>
      <trkpt lat="37.170322" lon="-3.447262">
        <ele>1272.73100455686</ele>
        <time>2018-07-14T08:28:00.009Z</time>
      </trkpt>
      <trkpt lat="37.1703" lon="-3.447201">
        <ele>1272</ele>
        <time>2018-07-14T08:28:02.009Z</time>
      </trkpt>
      <trkpt lat="37.170265" lon="-3.447122">
        <ele>1272</ele>
        <time>2018-07-14T08:28:05.009Z</time>
      </trkpt>
      <trkpt lat="37.170221" lon="-3.44705">
        <ele>1272</ele>
        <time>2018-07-14T08:28:08.009Z</time>
      </trkpt>
      <trkpt lat="37.170171" lon="-3.446975">
        <ele>1272</ele>
        <time>2018-07-14T08:28:11.009Z</time>
      </trkpt>
      <trkpt lat="37.170134" lon="-3.446915">
        <ele>1271.73099864322</ele>
        <time>2018-07-14T08:28:13.009Z</time>
      </trkpt>
      <trkpt lat="37.170093" lon="-3.446828">
        <ele>1271.73100455686</ele>
        <time>2018-07-14T08:28:16.009Z</time>
      </trkpt>
      <trkpt lat="37.170064" lon="-3.446732">
        <ele>1271</ele>
        <time>2018-07-14T08:28:19.009Z</time>
      </trkpt>
      <trkpt lat="37.170039" lon="-3.446633">
        <ele>1270.73100455686</ele>
        <time>2018-07-14T08:28:22.009Z</time>
      </trkpt>
      <trkpt lat="37.170009" lon="-3.44656">
        <ele>1269.73100455686</ele>
        <time>2018-07-14T08:28:24.009Z</time>
      </trkpt>
      <trkpt lat="37.16998" lon="-3.446486">
        <ele>1268.74381636211</ele>
        <time>2018-07-14T08:28:26.009Z</time>
      </trkpt>
      <trkpt lat="37.169966" lon="-3.446413">
        <ele>1268</ele>
        <time>2018-07-14T08:28:28.009Z</time>
      </trkpt>
      <trkpt lat="37.16996" lon="-3.446342">
        <ele>1267</ele>
        <time>2018-07-14T08:28:30.009Z</time>
      </trkpt>
      <trkpt lat="37.16995" lon="-3.446274">
        <ele>1266</ele>
        <time>2018-07-14T08:28:32.009Z</time>
      </trkpt>
      <trkpt lat="37.169945" lon="-3.446203">
        <ele>1265</ele>
        <time>2018-07-14T08:28:34.009Z</time>
      </trkpt>
      <trkpt lat="37.169934" lon="-3.446133">
        <ele>1265</ele>
        <time>2018-07-14T08:28:36.009Z</time>
      </trkpt>
      <trkpt lat="37.16992" lon="-3.446064">
        <ele>1264.73100455686</ele>
        <time>2018-07-14T08:28:38.009Z</time>
      </trkpt>
      <trkpt lat="37.16991" lon="-3.445992">
        <ele>1263.73100455686</ele>
        <time>2018-07-14T08:28:40.009Z</time>
      </trkpt>
      <trkpt lat="37.169907" lon="-3.445921">
        <ele>1263</ele>
        <time>2018-07-14T08:28:42.009Z</time>
      </trkpt>
      <trkpt lat="37.169908" lon="-3.445853">
        <ele>1263</ele>
        <time>2018-07-14T08:28:44.009Z</time>
      </trkpt>
      <trkpt lat="37.16989" lon="-3.445774">
        <ele>1263</ele>
        <time>2018-07-14T08:28:47.009Z</time>
      </trkpt>
      <trkpt lat="37.169865" lon="-3.445702">
        <ele>1262</ele>
        <time>2018-07-14T08:28:52.009Z</time>
      </trkpt>
      <trkpt lat="37.169899" lon="-3.445653">
        <ele>1261</ele>
        <time>2018-07-14T08:28:57.009Z</time>
      </trkpt>
      <trkpt lat="37.169949" lon="-3.44566">
        <ele>1261</ele>
        <time>2018-07-14T08:29:01.009Z</time>
      </trkpt>
      <trkpt lat="37.169993" lon="-3.44566">
        <ele>1261</ele>
        <time>2018-07-14T08:29:04.009Z</time>
      </trkpt>
      <trkpt lat="37.170042" lon="-3.445648">
        <ele>1261</ele>
        <time>2018-07-14T08:29:10.009Z</time>
      </trkpt>
      <trkpt lat="37.170084" lon="-3.445638">
        <ele>1261</ele>
        <time>2018-07-14T08:29:14.009Z</time>
      </trkpt>
      <trkpt lat="37.170135" lon="-3.445634">
        <ele>1260</ele>
        <time>2018-07-14T08:29:19.009Z</time>
      </trkpt>
      <trkpt lat="37.170183" lon="-3.445623">
        <ele>1261.26161384999</ele>
        <time>2018-07-14T08:29:26.009Z</time>
      </trkpt>
      <trkpt lat="37.170225" lon="-3.445605">
        <ele>1263</ele>
        <time>2018-07-14T08:29:30.009Z</time>
      </trkpt>
      <trkpt lat="37.170268" lon="-3.445577">
        <ele>1263</ele>
        <time>2018-07-14T08:29:34.009Z</time>
      </trkpt>
      <trkpt lat="37.170308" lon="-3.44556">
        <ele>1264</ele>
        <time>2018-07-14T08:29:37.009Z</time>
      </trkpt>
      <trkpt lat="37.170351" lon="-3.44556">
        <ele>1265</ele>
        <time>2018-07-14T08:29:40.009Z</time>
      </trkpt>
      <trkpt lat="37.170382" lon="-3.44554">
        <ele>1265</ele>
        <time>2018-07-14T08:29:43.009Z</time>
      </trkpt>
      <trkpt lat="37.170417" lon="-3.445522">
        <ele>1266</ele>
        <time>2018-07-14T08:29:46.009Z</time>
      </trkpt>
      <trkpt lat="37.170454" lon="-3.445502">
        <ele>1266</ele>
        <time>2018-07-14T08:29:49.009Z</time>
      </trkpt>
      <trkpt lat="37.170496" lon="-3.445489">
        <ele>1267</ele>
        <time>2018-07-14T08:29:53.009Z</time>
      </trkpt>
      <trkpt lat="37.170529" lon="-3.445467">
        <ele>1267</ele>
        <time>2018-07-14T08:29:56.009Z</time>
      </trkpt>
      <trkpt lat="37.170564" lon="-3.445444">
        <ele>1267</ele>
        <time>2018-07-14T08:29:59.009Z</time>
      </trkpt>
      <trkpt lat="37.1706" lon="-3.445424">
        <ele>1268</ele>
        <time>2018-07-14T08:30:02.009Z</time>
      </trkpt>
      <trkpt lat="37.170631" lon="-3.445396">
        <ele>1268</ele>
        <time>2018-07-14T08:30:06.009Z</time>
      </trkpt>
      <trkpt lat="37.170669" lon="-3.445375">
        <ele>1269</ele>
        <time>2018-07-14T08:30:09.009Z</time>
      </trkpt>
      <trkpt lat="37.170696" lon="-3.445345">
        <ele>1269</ele>
        <time>2018-07-14T08:30:12.009Z</time>
      </trkpt>
      <trkpt lat="37.170725" lon="-3.445315">
        <ele>1269</ele>
        <time>2018-07-14T08:30:15.009Z</time>
      </trkpt>
      <trkpt lat="37.170754" lon="-3.445284">
        <ele>1270</ele>
        <time>2018-07-14T08:30:18.009Z</time>
      </trkpt>
      <trkpt lat="37.170786" lon="-3.445249">
        <ele>1271</ele>
        <time>2018-07-14T08:30:21.009Z</time>
      </trkpt>
      <trkpt lat="37.170832" lon="-3.445217">
        <ele>1272</ele>
        <time>2018-07-14T08:30:25.009Z</time>
      </trkpt>
      <trkpt lat="37.170868" lon="-3.445204">
        <ele>1272</ele>
        <time>2018-07-14T08:30:28.009Z</time>
      </trkpt>
      <trkpt lat="37.170903" lon="-3.445194">
        <ele>1273</ele>
        <time>2018-07-14T08:30:31.009Z</time>
      </trkpt>
      <trkpt lat="37.170941" lon="-3.445173">
        <ele>1273</ele>
        <time>2018-07-14T08:30:34.009Z</time>
      </trkpt>
      <trkpt lat="37.170976" lon="-3.445149">
        <ele>1273</ele>
        <time>2018-07-14T08:30:38.009Z</time>
      </trkpt>
      <trkpt lat="37.171024" lon="-3.445133">
        <ele>1274</ele>
        <time>2018-07-14T08:30:42.009Z</time>
      </trkpt>
      <trkpt lat="37.171066" lon="-3.44511">
        <ele>1274</ele>
        <time>2018-07-14T08:30:46.009Z</time>
      </trkpt>
      <trkpt lat="37.171108" lon="-3.445094">
        <ele>1275</ele>
        <time>2018-07-14T08:30:50.009Z</time>
      </trkpt>
      <trkpt lat="37.171141" lon="-3.445072">
        <ele>1275</ele>
        <time>2018-07-14T08:30:53.009Z</time>
      </trkpt>
      <trkpt lat="37.17118" lon="-3.445053">
        <ele>1275</ele>
        <time>2018-07-14T08:30:57.009Z</time>
      </trkpt>
      <trkpt lat="37.171224" lon="-3.445038">
        <ele>1276.26900135678</ele>
        <time>2018-07-14T08:31:01.009Z</time>
      </trkpt>
      <trkpt lat="37.171267" lon="-3.445026">
        <ele>1278</ele>
        <time>2018-07-14T08:31:05.009Z</time>
      </trkpt>
      <trkpt lat="37.171317" lon="-3.444996">
        <ele>1279</ele>
        <time>2018-07-14T08:31:10.009Z</time>
      </trkpt>
      <trkpt lat="37.171366" lon="-3.444981">
        <ele>1280</ele>
        <time>2018-07-14T08:31:15.009Z</time>
      </trkpt>
      <trkpt lat="37.17142" lon="-3.444974">
        <ele>1279.73100455686</ele>
        <time>2018-07-14T08:31:18.009Z</time>
      </trkpt>
      <trkpt lat="37.171469" lon="-3.444965">
        <ele>1279</ele>
        <time>2018-07-14T08:31:20.009Z</time>
      </trkpt>
      <trkpt lat="37.171554" lon="-3.444953">
        <ele>1278.73099864322</ele>
        <time>2018-07-14T08:31:23.009Z</time>
      </trkpt>
      <trkpt lat="37.171604" lon="-3.444936">
        <ele>1278</ele>
        <time>2018-07-14T08:31:25.009Z</time>
      </trkpt>
      <trkpt lat="37.171658" lon="-3.444922">
        <ele>1277</ele>
        <time>2018-07-14T08:31:27.009Z</time>
      </trkpt>
      <trkpt lat="37.171715" lon="-3.444914">
        <ele>1276.73099864322</ele>
        <time>2018-07-14T08:31:29.009Z</time>
      </trkpt>
      <trkpt lat="37.171777" lon="-3.444897">
        <ele>1276</ele>
        <time>2018-07-14T08:31:31.009Z</time>
      </trkpt>
      <trkpt lat="37.171838" lon="-3.444883">
        <ele>1275</ele>
        <time>2018-07-14T08:31:33.009Z</time>
      </trkpt>
      <trkpt lat="37.171896" lon="-3.44487">
        <ele>1275</ele>
        <time>2018-07-14T08:31:35.009Z</time>
      </trkpt>
      <trkpt lat="37.17195" lon="-3.444856">
        <ele>1274</ele>
        <time>2018-07-14T08:31:37.009Z</time>
      </trkpt>
      <trkpt lat="37.172003" lon="-3.44484">
        <ele>1273.04366402856</ele>
        <time>2018-07-14T08:31:39.009Z</time>
      </trkpt>
      <trkpt lat="37.172057" lon="-3.444827">
        <ele>1273</ele>
        <time>2018-07-14T08:31:41.009Z</time>
      </trkpt>
      <trkpt lat="37.172111" lon="-3.444817">
        <ele>1271.97500631579</ele>
        <time>2018-07-14T08:31:43.009Z</time>
      </trkpt>
      <trkpt lat="37.172162" lon="-3.444806">
        <ele>1270.73099864322</ele>
        <time>2018-07-14T08:31:45.009Z</time>
      </trkpt>
      <trkpt lat="37.172219" lon="-3.444787">
        <ele>1268.73099864322</ele>
        <time>2018-07-14T08:31:47.009Z</time>
      </trkpt>
      <trkpt lat="37.172269" lon="-3.444755">
        <ele>1267.73099864322</ele>
        <time>2018-07-14T08:31:49.009Z</time>
      </trkpt>
      <trkpt lat="37.172318" lon="-3.444702">
        <ele>1266.7336611454</ele>
        <time>2018-07-14T08:31:51.009Z</time>
      </trkpt>
      <trkpt lat="37.172362" lon="-3.444646">
        <ele>1265.73099864322</ele>
        <time>2018-07-14T08:31:53.009Z</time>
      </trkpt>
      <trkpt lat="37.172413" lon="-3.444605">
        <ele>1265</ele>
        <time>2018-07-14T08:31:55.009Z</time>
      </trkpt>
      <trkpt lat="37.172468" lon="-3.44457">
        <ele>1264.73099864322</ele>
        <time>2018-07-14T08:31:57.009Z</time>
      </trkpt>
      <trkpt lat="37.172523" lon="-3.444548">
        <ele>1264</ele>
        <time>2018-07-14T08:31:59.009Z</time>
      </trkpt>
      <trkpt lat="37.172583" lon="-3.444535">
        <ele>1264</ele>
        <time>2018-07-14T08:32:01.009Z</time>
      </trkpt>
      <trkpt lat="37.17264" lon="-3.444517">
        <ele>1263.73099864322</ele>
        <time>2018-07-14T08:32:03.009Z</time>
      </trkpt>
      <trkpt lat="37.172701" lon="-3.444498">
        <ele>1263</ele>
        <time>2018-07-14T08:32:05.009Z</time>
      </trkpt>
      <trkpt lat="37.17276" lon="-3.444465">
        <ele>1262</ele>
        <time>2018-07-14T08:32:07.009Z</time>
      </trkpt>
      <trkpt lat="37.172813" lon="-3.444425">
        <ele>1262</ele>
        <time>2018-07-14T08:32:09.009Z</time>
      </trkpt>
      <trkpt lat="37.172868" lon="-3.444385">
        <ele>1261</ele>
        <time>2018-07-14T08:32:11.009Z</time>
      </trkpt>
      <trkpt lat="37.172923" lon="-3.444342">
        <ele>1260</ele>
        <time>2018-07-14T08:32:13.009Z</time>
      </trkpt>
      <trkpt lat="37.172973" lon="-3.4443">
        <ele>1259.73099864322</ele>
        <time>2018-07-14T08:32:15.009Z</time>
      </trkpt>
      <trkpt lat="37.173023" lon="-3.444256">
        <ele>1259</ele>
        <time>2018-07-14T08:32:17.009Z</time>
      </trkpt>
      <trkpt lat="37.173074" lon="-3.444216">
        <ele>1259</ele>
        <time>2018-07-14T08:32:19.009Z</time>
      </trkpt>
      <trkpt lat="37.173121" lon="-3.444174">
        <ele>1259</ele>
        <time>2018-07-14T08:32:21.009Z</time>
      </trkpt>
      <trkpt lat="37.173164" lon="-3.444132">
        <ele>1258.73099864322</ele>
        <time>2018-07-14T08:32:23.009Z</time>
      </trkpt>
      <trkpt lat="37.173199" lon="-3.444083">
        <ele>1258</ele>
        <time>2018-07-14T08:32:25.009Z</time>
      </trkpt>
      <trkpt lat="37.17323" lon="-3.444024">
        <ele>1258</ele>
        <time>2018-07-14T08:32:27.009Z</time>
      </trkpt>
      <trkpt lat="37.173251" lon="-3.443922">
        <ele>1257</ele>
        <time>2018-07-14T08:32:30.009Z</time>
      </trkpt>
      <trkpt lat="37.17326" lon="-3.443855">
        <ele>1257</ele>
        <time>2018-07-14T08:32:32.009Z</time>
      </trkpt>
      <trkpt lat="37.173275" lon="-3.443791">
        <ele>1257</ele>
        <time>2018-07-14T08:32:34.009Z</time>
      </trkpt>
      <trkpt lat="37.173309" lon="-3.443737">
        <ele>1256.73100455686</ele>
        <time>2018-07-14T08:32:36.009Z</time>
      </trkpt>
      <trkpt lat="37.173344" lon="-3.443697">
        <ele>1256</ele>
        <time>2018-07-14T08:32:38.009Z</time>
      </trkpt>
      <trkpt lat="37.173378" lon="-3.443652">
        <ele>1256</ele>
        <time>2018-07-14T08:32:40.009Z</time>
      </trkpt>
      <trkpt lat="37.173409" lon="-3.443594">
        <ele>1256</ele>
        <time>2018-07-14T08:32:42.009Z</time>
      </trkpt>
      <trkpt lat="37.173411" lon="-3.443448">
        <ele>1256</ele>
        <time>2018-07-14T08:32:47.009Z</time>
      </trkpt>
      <trkpt lat="37.173344" lon="-3.443342">
        <ele>1255.73099864322</ele>
        <time>2018-07-14T08:32:53.009Z</time>
      </trkpt>
      <trkpt lat="37.173281" lon="-3.443244">
        <ele>1255</ele>
        <time>2018-07-14T08:33:00.009Z</time>
      </trkpt>
      <trkpt lat="37.173229" lon="-3.443153">
        <ele>1255</ele>
        <time>2018-07-14T08:33:07.009Z</time>
      </trkpt>
      <trkpt lat="37.173184" lon="-3.443038">
        <ele>1256</ele>
        <time>2018-07-14T08:33:14.009Z</time>
      </trkpt>
      <trkpt lat="37.173175" lon="-3.442897">
        <ele>1256</ele>
        <time>2018-07-14T08:33:19.009Z</time>
      </trkpt>
      <trkpt lat="37.173228" lon="-3.442783">
        <ele>1257</ele>
        <time>2018-07-14T08:33:23.009Z</time>
      </trkpt>
      <trkpt lat="37.173272" lon="-3.442746">
        <ele>1257.26900135678</ele>
        <time>2018-07-14T08:33:25.009Z</time>
      </trkpt>
      <trkpt lat="37.17331" lon="-3.442705">
        <ele>1258</ele>
        <time>2018-07-14T08:33:27.009Z</time>
      </trkpt>
      <trkpt lat="37.173395" lon="-3.442618">
        <ele>1258.73099864322</ele>
        <time>2018-07-14T08:33:31.009Z</time>
      </trkpt>
      <trkpt lat="37.173457" lon="-3.442553">
        <ele>1258</ele>
        <time>2018-07-14T08:33:34.009Z</time>
      </trkpt>
      <trkpt lat="37.173516" lon="-3.442477">
        <ele>1259</ele>
        <time>2018-07-14T08:33:37.009Z</time>
      </trkpt>
      <trkpt lat="37.17358" lon="-3.442403">
        <ele>1259</ele>
        <time>2018-07-14T08:33:40.009Z</time>
      </trkpt>
      <trkpt lat="37.17365" lon="-3.442334">
        <ele>1259</ele>
        <time>2018-07-14T08:33:43.009Z</time>
      </trkpt>
      <trkpt lat="37.173725" lon="-3.442262">
        <ele>1259</ele>
        <time>2018-07-14T08:33:46.009Z</time>
      </trkpt>
      <trkpt lat="37.173778" lon="-3.442195">
        <ele>1259</ele>
        <time>2018-07-14T08:33:49.009Z</time>
      </trkpt>
      <trkpt lat="37.173862" lon="-3.442139">
        <ele>1260</ele>
        <time>2018-07-14T08:33:53.009Z</time>
      </trkpt>
      <trkpt lat="37.173951" lon="-3.44212">
        <ele>1259</ele>
        <time>2018-07-14T08:33:56.009Z</time>
      </trkpt>
      <trkpt lat="37.17407" lon="-3.442101">
        <ele>1258</ele>
        <time>2018-07-14T08:34:00.009Z</time>
      </trkpt>
      <trkpt lat="37.174191" lon="-3.442077">
        <ele>1257</ele>
        <time>2018-07-14T08:34:04.009Z</time>
      </trkpt>
      <trkpt lat="37.17431" lon="-3.442047">
        <ele>1255.73100455686</ele>
        <time>2018-07-14T08:34:08.009Z</time>
      </trkpt>
      <trkpt lat="37.17443" lon="-3.441988">
        <ele>1254.73100455686</ele>
        <time>2018-07-14T08:34:12.009Z</time>
      </trkpt>
      <trkpt lat="37.174547" lon="-3.44192">
        <ele>1253</ele>
        <time>2018-07-14T08:34:16.009Z</time>
      </trkpt>
      <trkpt lat="37.17466" lon="-3.441859">
        <ele>1252</ele>
        <time>2018-07-14T08:34:20.009Z</time>
      </trkpt>
      <trkpt lat="37.174776" lon="-3.441833">
        <ele>1251</ele>
        <time>2018-07-14T08:34:24.009Z</time>
      </trkpt>
      <trkpt lat="37.174903" lon="-3.441789">
        <ele>1250</ele>
        <time>2018-07-14T08:34:28.009Z</time>
      </trkpt>
      <trkpt lat="37.175011" lon="-3.441701">
        <ele>1249</ele>
        <time>2018-07-14T08:34:32.009Z</time>
      </trkpt>
      <trkpt lat="37.175105" lon="-3.441618">
        <ele>1249</ele>
        <time>2018-07-14T08:34:36.009Z</time>
      </trkpt>
      <trkpt lat="37.175209" lon="-3.441564">
        <ele>1248</ele>
        <time>2018-07-14T08:34:40.009Z</time>
      </trkpt>
      <trkpt lat="37.17528" lon="-3.441496">
        <ele>1247</ele>
        <time>2018-07-14T08:34:45.009Z</time>
      </trkpt>
      <trkpt lat="37.175322" lon="-3.441435">
        <ele>1247</ele>
        <time>2018-07-14T08:34:50.009Z</time>
      </trkpt>
      <trkpt lat="37.17541" lon="-3.441348">
        <ele>1246.73099864322</ele>
        <time>2018-07-14T08:34:57.009Z</time>
      </trkpt>
      <trkpt lat="37.175486" lon="-3.441261">
        <ele>1246</ele>
        <time>2018-07-14T08:35:03.009Z</time>
      </trkpt>
      <trkpt lat="37.175566" lon="-3.441167">
        <ele>1246</ele>
        <time>2018-07-14T08:35:11.009Z</time>
      </trkpt>
      <trkpt lat="37.175657" lon="-3.441091">
        <ele>1246</ele>
        <time>2018-07-14T08:35:17.009Z</time>
      </trkpt>
      <trkpt lat="37.175718" lon="-3.441003">
        <ele>1247</ele>
        <time>2018-07-14T08:35:23.009Z</time>
      </trkpt>
      <trkpt lat="37.175757" lon="-3.440883">
        <ele>1247</ele>
        <time>2018-07-14T08:35:30.009Z</time>
      </trkpt>
      <trkpt lat="37.175793" lon="-3.440785">
        <ele>1248</ele>
        <time>2018-07-14T08:35:36.009Z</time>
      </trkpt>
      <trkpt lat="37.175825" lon="-3.44066">
        <ele>1248</ele>
        <time>2018-07-14T08:35:43.009Z</time>
      </trkpt>
      <trkpt lat="37.175861" lon="-3.44053">
        <ele>1249</ele>
        <time>2018-07-14T08:35:50.009Z</time>
      </trkpt>
      <trkpt lat="37.17591" lon="-3.440435">
        <ele>1250</ele>
        <time>2018-07-14T08:35:56.009Z</time>
      </trkpt>
      <trkpt lat="37.175994" lon="-3.440347">
        <ele>1250.26900135678</ele>
        <time>2018-07-14T08:36:03.009Z</time>
      </trkpt>
      <trkpt lat="37.17608" lon="-3.440265">
        <ele>1251</ele>
        <time>2018-07-14T08:36:10.009Z</time>
      </trkpt>
      <trkpt lat="37.176162" lon="-3.440198">
        <ele>1251</ele>
        <time>2018-07-14T08:36:14.009Z</time>
      </trkpt>
      <trkpt lat="37.176231" lon="-3.440125">
        <ele>1251</ele>
        <time>2018-07-14T08:36:17.009Z</time>
      </trkpt>
      <trkpt lat="37.176318" lon="-3.44003">
        <ele>1252</ele>
        <time>2018-07-14T08:36:21.009Z</time>
      </trkpt>
      <trkpt lat="37.176362" lon="-3.439989">
        <ele>1252</ele>
        <time>2018-07-14T08:36:23.009Z</time>
      </trkpt>
      <trkpt lat="37.176408" lon="-3.43996">
        <ele>1252</ele>
        <time>2018-07-14T08:36:25.009Z</time>
      </trkpt>
      <trkpt lat="37.176463" lon="-3.439944">
        <ele>1252</ele>
        <time>2018-07-14T08:36:27.009Z</time>
      </trkpt>
      <trkpt lat="37.176515" lon="-3.439932">
        <ele>1253</ele>
        <time>2018-07-14T08:36:29.009Z</time>
      </trkpt>
      <trkpt lat="37.176573" lon="-3.43992">
        <ele>1253</ele>
        <time>2018-07-14T08:36:31.009Z</time>
      </trkpt>
      <trkpt lat="37.176682" lon="-3.439903">
        <ele>1253</ele>
        <time>2018-07-14T08:36:35.009Z</time>
      </trkpt>
      <trkpt lat="37.176785" lon="-3.43986">
        <ele>1253</ele>
        <time>2018-07-14T08:36:40.009Z</time>
      </trkpt>
      <trkpt lat="37.176886" lon="-3.439831">
        <ele>1253.26900135678</ele>
        <time>2018-07-14T08:36:45.009Z</time>
      </trkpt>
      <trkpt lat="37.176988" lon="-3.439791">
        <ele>1255</ele>
        <time>2018-07-14T08:36:52.009Z</time>
      </trkpt>
      <trkpt lat="37.177079" lon="-3.43974">
        <ele>1256</ele>
        <time>2018-07-14T08:36:59.009Z</time>
      </trkpt>
      <trkpt lat="37.177162" lon="-3.439696">
        <ele>1257</ele>
        <time>2018-07-14T08:37:05.009Z</time>
      </trkpt>
      <trkpt lat="37.177246" lon="-3.439635">
        <ele>1257.26899544314</ele>
        <time>2018-07-14T08:37:12.009Z</time>
      </trkpt>
      <trkpt lat="37.177328" lon="-3.439595">
        <ele>1258</ele>
        <time>2018-07-14T08:37:18.009Z</time>
      </trkpt>
      <trkpt lat="37.177412" lon="-3.439551">
        <ele>1259</ele>
        <time>2018-07-14T08:37:24.009Z</time>
      </trkpt>
      <trkpt lat="37.177502" lon="-3.439486">
        <ele>1259</ele>
        <time>2018-07-14T08:37:31.009Z</time>
      </trkpt>
      <trkpt lat="37.177572" lon="-3.43942">
        <ele>1259</ele>
        <time>2018-07-14T08:37:37.009Z</time>
      </trkpt>
      <trkpt lat="37.177648" lon="-3.439339">
        <ele>1259</ele>
        <time>2018-07-14T08:37:43.009Z</time>
      </trkpt>
      <trkpt lat="37.177716" lon="-3.439254">
        <ele>1259</ele>
        <time>2018-07-14T08:37:49.009Z</time>
      </trkpt>
      <trkpt lat="37.177794" lon="-3.439181">
        <ele>1259</ele>
        <time>2018-07-14T08:37:55.009Z</time>
      </trkpt>
      <trkpt lat="37.177867" lon="-3.43911">
        <ele>1259</ele>
        <time>2018-07-14T08:38:03.009Z</time>
      </trkpt>
      <trkpt lat="37.177927" lon="-3.439048">
        <ele>1259</ele>
        <time>2018-07-14T08:38:07.009Z</time>
      </trkpt>
      <trkpt lat="37.177992" lon="-3.438966">
        <ele>1259.26900135678</ele>
        <time>2018-07-14T08:38:13.009Z</time>
      </trkpt>
      <trkpt lat="37.178053" lon="-3.438887">
        <ele>1260</ele>
        <time>2018-07-14T08:38:19.009Z</time>
      </trkpt>
      <trkpt lat="37.178102" lon="-3.438816">
        <ele>1260</ele>
        <time>2018-07-14T08:38:24.009Z</time>
      </trkpt>
      <trkpt lat="37.178149" lon="-3.438748">
        <ele>1261</ele>
        <time>2018-07-14T08:38:29.009Z</time>
      </trkpt>
      <trkpt lat="37.178207" lon="-3.438664">
        <ele>1261</ele>
        <time>2018-07-14T08:38:35.009Z</time>
      </trkpt>
      <trkpt lat="37.178264" lon="-3.438582">
        <ele>1262</ele>
        <time>2018-07-14T08:38:41.009Z</time>
      </trkpt>
      <trkpt lat="37.17832" lon="-3.438498">
        <ele>1262</ele>
        <time>2018-07-14T08:38:47.009Z</time>
      </trkpt>
      <trkpt lat="37.178379" lon="-3.438419">
        <ele>1263</ele>
        <time>2018-07-14T08:38:53.009Z</time>
      </trkpt>
      <trkpt lat="37.178425" lon="-3.438352">
        <ele>1263</ele>
        <time>2018-07-14T08:38:58.009Z</time>
      </trkpt>
      <trkpt lat="37.178478" lon="-3.438268">
        <ele>1263</ele>
        <time>2018-07-14T08:39:04.009Z</time>
      </trkpt>
      <trkpt lat="37.178535" lon="-3.43818">
        <ele>1263</ele>
        <time>2018-07-14T08:39:10.009Z</time>
      </trkpt>
      <trkpt lat="37.178582" lon="-3.43811">
        <ele>1264</ele>
        <time>2018-07-14T08:39:15.009Z</time>
      </trkpt>
      <trkpt lat="37.178618" lon="-3.438038">
        <ele>1265</ele>
        <time>2018-07-14T08:39:20.009Z</time>
      </trkpt>
      <trkpt lat="37.178673" lon="-3.437932">
        <ele>1266</ele>
        <time>2018-07-14T08:39:27.009Z</time>
      </trkpt>
      <trkpt lat="37.178722" lon="-3.437832">
        <ele>1265</ele>
        <time>2018-07-14T08:39:33.009Z</time>
      </trkpt>
      <trkpt lat="37.178778" lon="-3.437713">
        <ele>1265.26900135678</ele>
        <time>2018-07-14T08:39:41.009Z</time>
      </trkpt>
      <trkpt lat="37.178834" lon="-3.437617">
        <ele>1266</ele>
        <time>2018-07-14T08:39:48.009Z</time>
      </trkpt>
      <trkpt lat="37.178895" lon="-3.437506">
        <ele>1267</ele>
        <time>2018-07-14T08:39:56.009Z</time>
      </trkpt>
      <trkpt lat="37.178963" lon="-3.437404">
        <ele>1268</ele>
        <time>2018-07-14T08:40:03.009Z</time>
      </trkpt>
      <trkpt lat="37.179013" lon="-3.437312">
        <ele>1269</ele>
        <time>2018-07-14T08:40:09.009Z</time>
      </trkpt>
      <trkpt lat="37.179065" lon="-3.437227">
        <ele>1269</ele>
        <time>2018-07-14T08:40:15.009Z</time>
      </trkpt>
      <trkpt lat="37.17913" lon="-3.437116">
        <ele>1269</ele>
        <time>2018-07-14T08:40:23.009Z</time>
      </trkpt>
      <trkpt lat="37.179183" lon="-3.437031">
        <ele>1270</ele>
        <time>2018-07-14T08:40:29.009Z</time>
      </trkpt>
      <trkpt lat="37.179245" lon="-3.436966">
        <ele>1270</ele>
        <time>2018-07-14T08:40:35.009Z</time>
      </trkpt>
      <trkpt lat="37.179311" lon="-3.436908">
        <ele>1270</ele>
        <time>2018-07-14T08:40:40.009Z</time>
      </trkpt>
      <trkpt lat="37.179368" lon="-3.436865">
        <ele>1269</ele>
        <time>2018-07-14T08:40:44.009Z</time>
      </trkpt>
      <trkpt lat="37.179451" lon="-3.436761">
        <ele>1268</ele>
        <time>2018-07-14T08:40:51.009Z</time>
      </trkpt>
      <trkpt lat="37.179511" lon="-3.43667">
        <ele>1268</ele>
        <time>2018-07-14T08:40:57.009Z</time>
      </trkpt>
      <trkpt lat="37.179578" lon="-3.436569">
        <ele>1269</ele>
        <time>2018-07-14T08:41:03.009Z</time>
      </trkpt>
      <trkpt lat="37.179615" lon="-3.436496">
        <ele>1269</ele>
        <time>2018-07-14T08:41:07.009Z</time>
      </trkpt>
      <trkpt lat="37.179672" lon="-3.436404">
        <ele>1270</ele>
        <time>2018-07-14T08:41:13.009Z</time>
      </trkpt>
      <trkpt lat="37.179725" lon="-3.43628">
        <ele>1270</ele>
        <time>2018-07-14T08:41:21.009Z</time>
      </trkpt>
      <trkpt lat="37.179799" lon="-3.436169">
        <ele>1271</ele>
        <time>2018-07-14T08:41:27.009Z</time>
      </trkpt>
      <trkpt lat="37.179872" lon="-3.436058">
        <ele>1271</ele>
        <time>2018-07-14T08:41:31.009Z</time>
      </trkpt>
      <trkpt lat="37.179956" lon="-3.435961">
        <ele>1272</ele>
        <time>2018-07-14T08:41:35.009Z</time>
      </trkpt>
      <trkpt lat="37.180057" lon="-3.43586">
        <ele>1273</ele>
        <time>2018-07-14T08:41:39.009Z</time>
      </trkpt>
      <trkpt lat="37.180147" lon="-3.435758">
        <ele>1273</ele>
        <time>2018-07-14T08:41:43.009Z</time>
      </trkpt>
      <trkpt lat="37.180231" lon="-3.43565">
        <ele>1273</ele>
        <time>2018-07-14T08:41:47.009Z</time>
      </trkpt>
      <trkpt lat="37.180322" lon="-3.435551">
        <ele>1273</ele>
        <time>2018-07-14T08:41:51.009Z</time>
      </trkpt>
      <trkpt lat="37.180415" lon="-3.435452">
        <ele>1273.26900135678</ele>
        <time>2018-07-14T08:41:55.009Z</time>
      </trkpt>
      <trkpt lat="37.180486" lon="-3.43534">
        <ele>1274</ele>
        <time>2018-07-14T08:41:59.009Z</time>
      </trkpt>
      <trkpt lat="37.180529" lon="-3.435208">
        <ele>1274</ele>
        <time>2018-07-14T08:42:03.009Z</time>
      </trkpt>
      <trkpt lat="37.180541" lon="-3.435076">
        <ele>1275</ele>
        <time>2018-07-14T08:42:07.009Z</time>
      </trkpt>
      <trkpt lat="37.180531" lon="-3.434922">
        <ele>1275</ele>
        <time>2018-07-14T08:42:12.009Z</time>
      </trkpt>
      <trkpt lat="37.180542" lon="-3.43477">
        <ele>1276</ele>
        <time>2018-07-14T08:42:17.009Z</time>
      </trkpt>
      <trkpt lat="37.18055" lon="-3.43462">
        <ele>1276.26899544314</ele>
        <time>2018-07-14T08:42:22.009Z</time>
      </trkpt>
      <trkpt lat="37.180519" lon="-3.434494">
        <ele>1277</ele>
        <time>2018-07-14T08:42:26.009Z</time>
      </trkpt>
      <trkpt lat="37.180451" lon="-3.43436">
        <ele>1278</ele>
        <time>2018-07-14T08:42:31.009Z</time>
      </trkpt>
      <trkpt lat="37.180384" lon="-3.434256">
        <ele>1277</ele>
        <time>2018-07-14T08:42:35.009Z</time>
      </trkpt>
      <trkpt lat="37.180326" lon="-3.434132">
        <ele>1277</ele>
        <time>2018-07-14T08:42:39.009Z</time>
      </trkpt>
      <trkpt lat="37.180273" lon="-3.434004">
        <ele>1277</ele>
        <time>2018-07-14T08:42:43.009Z</time>
      </trkpt>
      <trkpt lat="37.180224" lon="-3.433874">
        <ele>1276</ele>
        <time>2018-07-14T08:42:47.009Z</time>
      </trkpt>
      <trkpt lat="37.180166" lon="-3.43374">
        <ele>1275.73099864322</ele>
        <time>2018-07-14T08:42:51.009Z</time>
      </trkpt>
      <trkpt lat="37.180101" lon="-3.433606">
        <ele>1275</ele>
        <time>2018-07-14T08:42:55.009Z</time>
      </trkpt>
      <trkpt lat="37.180042" lon="-3.43348">
        <ele>1275</ele>
        <time>2018-07-14T08:42:59.009Z</time>
      </trkpt>
      <trkpt lat="37.179987" lon="-3.433354">
        <ele>1274</ele>
        <time>2018-07-14T08:43:03.009Z</time>
      </trkpt>
      <trkpt lat="37.179929" lon="-3.433218">
        <ele>1274</ele>
        <time>2018-07-14T08:43:07.009Z</time>
      </trkpt>
      <trkpt lat="37.179902" lon="-3.43308">
        <ele>1274</ele>
        <time>2018-07-14T08:43:11.009Z</time>
      </trkpt>
      <trkpt lat="37.179885" lon="-3.432928">
        <ele>1275</ele>
        <time>2018-07-14T08:43:15.009Z</time>
      </trkpt>
      <trkpt lat="37.179906" lon="-3.432789">
        <ele>1275</ele>
        <time>2018-07-14T08:43:19.009Z</time>
      </trkpt>
      <trkpt lat="37.179948" lon="-3.432656">
        <ele>1275</ele>
        <time>2018-07-14T08:43:23.009Z</time>
      </trkpt>
      <trkpt lat="37.179991" lon="-3.432544">
        <ele>1275</ele>
        <time>2018-07-14T08:43:27.009Z</time>
      </trkpt>
      <trkpt lat="37.180051" lon="-3.432416">
        <ele>1275</ele>
        <time>2018-07-14T08:43:32.009Z</time>
      </trkpt>
      <trkpt lat="37.180108" lon="-3.432286">
        <ele>1275</ele>
        <time>2018-07-14T08:43:37.009Z</time>
      </trkpt>
      <trkpt lat="37.180153" lon="-3.43214">
        <ele>1275.26899544314</ele>
        <time>2018-07-14T08:43:42.009Z</time>
      </trkpt>
      <trkpt lat="37.180186" lon="-3.432004">
        <ele>1276</ele>
        <time>2018-07-14T08:43:47.009Z</time>
      </trkpt>
      <trkpt lat="37.180206" lon="-3.43188">
        <ele>1276</ele>
        <time>2018-07-14T08:43:51.009Z</time>
      </trkpt>
      <trkpt lat="37.180187" lon="-3.431744">
        <ele>1276</ele>
        <time>2018-07-14T08:43:55.009Z</time>
      </trkpt>
      <trkpt lat="37.180153" lon="-3.431617">
        <ele>1277</ele>
        <time>2018-07-14T08:44:02.009Z</time>
      </trkpt>
      <trkpt lat="37.180101" lon="-3.431536">
        <ele>1277</ele>
        <time>2018-07-14T08:44:14.009Z</time>
      </trkpt>
      <trkpt lat="37.18004" lon="-3.431436">
        <ele>1277</ele>
        <time>2018-07-14T08:44:44.009Z</time>
      </trkpt>
      <trkpt lat="37.179961" lon="-3.431466">
        <ele>1276</ele>
        <time>2018-07-14T08:52:21.009Z</time>
      </trkpt>
      <trkpt lat="37.179888" lon="-3.43145">
        <ele>1276</ele>
        <time>2018-07-14T08:52:27.009Z</time>
      </trkpt>
      <trkpt lat="37.179806" lon="-3.431424">
        <ele>1276</ele>
        <time>2018-07-14T08:52:33.009Z</time>
      </trkpt>
      <trkpt lat="37.179707" lon="-3.431406">
        <ele>1276</ele>
        <time>2018-07-14T08:52:40.009Z</time>
      </trkpt>
      <trkpt lat="37.17963" lon="-3.431386">
        <ele>1275.73100455686</ele>
        <time>2018-07-14T08:52:46.009Z</time>
      </trkpt>
      <trkpt lat="37.179517" lon="-3.431396">
        <ele>1275</ele>
        <time>2018-07-14T08:52:53.009Z</time>
      </trkpt>
      <trkpt lat="37.179417" lon="-3.431401">
        <ele>1275</ele>
        <time>2018-07-14T08:53:01.009Z</time>
      </trkpt>
      <trkpt lat="37.179348" lon="-3.431344">
        <ele>1276</ele>
        <time>2018-07-14T08:53:09.009Z</time>
      </trkpt>
      <trkpt lat="37.179314" lon="-3.431238">
        <ele>1279</ele>
        <time>2018-07-14T08:53:22.009Z</time>
      </trkpt>
      <trkpt lat="37.17927" lon="-3.431154">
        <ele>1280.26899544314</ele>
        <time>2018-07-14T08:53:30.009Z</time>
      </trkpt>
      <trkpt lat="37.179205" lon="-3.43109">
        <ele>1282</ele>
        <time>2018-07-14T08:53:39.009Z</time>
      </trkpt>
      <trkpt lat="37.1791" lon="-3.43111">
        <ele>1283</ele>
        <time>2018-07-14T08:53:52.009Z</time>
      </trkpt>
      <trkpt lat="37.179044" lon="-3.4312">
        <ele>1284</ele>
        <time>2018-07-14T08:54:00.009Z</time>
      </trkpt>
      <trkpt lat="37.179019" lon="-3.431291">
        <ele>1285</ele>
        <time>2018-07-14T08:54:08.009Z</time>
      </trkpt>
      <trkpt lat="37.178955" lon="-3.431379">
        <ele>1287</ele>
        <time>2018-07-14T08:54:18.009Z</time>
      </trkpt>
      <trkpt lat="37.178877" lon="-3.431403">
        <ele>1288</ele>
        <time>2018-07-14T08:54:25.009Z</time>
      </trkpt>
      <trkpt lat="37.178769" lon="-3.431416">
        <ele>1289</ele>
        <time>2018-07-14T08:54:34.009Z</time>
      </trkpt>
      <trkpt lat="37.178686" lon="-3.43146">
        <ele>1290</ele>
        <time>2018-07-14T08:54:41.009Z</time>
      </trkpt>
      <trkpt lat="37.178609" lon="-3.431503">
        <ele>1291</ele>
        <time>2018-07-14T08:54:48.009Z</time>
      </trkpt>
      <trkpt lat="37.178542" lon="-3.431579">
        <ele>1292.26900135678</ele>
        <time>2018-07-14T08:54:57.009Z</time>
      </trkpt>
      <trkpt lat="37.178458" lon="-3.43166">
        <ele>1295</ele>
        <time>2018-07-14T08:55:07.009Z</time>
      </trkpt>
      <trkpt lat="37.178396" lon="-3.431743">
        <ele>1296</ele>
        <time>2018-07-14T08:55:15.009Z</time>
      </trkpt>
      <trkpt lat="37.17831" lon="-3.43181">
        <ele>1300</ele>
        <time>2018-07-14T08:55:27.009Z</time>
      </trkpt>
      <trkpt lat="37.178233" lon="-3.43174">
        <ele>1303.26900135678</ele>
        <time>2018-07-14T08:55:37.009Z</time>
      </trkpt>
      <trkpt lat="37.178227" lon="-3.431612">
        <ele>1305.97041590798</ele>
        <time>2018-07-14T08:55:46.009Z</time>
      </trkpt>
      <trkpt lat="37.178267" lon="-3.431492">
        <ele>1306</ele>
        <time>2018-07-14T08:55:54.009Z</time>
      </trkpt>
      <trkpt lat="37.17829" lon="-3.431369">
        <ele>1307</ele>
        <time>2018-07-14T08:56:04.009Z</time>
      </trkpt>
      <trkpt lat="37.178192" lon="-3.431418">
        <ele>1308</ele>
        <time>2018-07-14T08:56:12.009Z</time>
      </trkpt>
      <trkpt lat="37.178146" lon="-3.431497">
        <ele>1308</ele>
        <time>2018-07-14T08:56:19.009Z</time>
      </trkpt>
      <trkpt lat="37.178088" lon="-3.431598">
        <ele>1308.26900135678</ele>
        <time>2018-07-14T08:56:27.009Z</time>
      </trkpt>
      <trkpt lat="37.178038" lon="-3.4317">
        <ele>1309</ele>
        <time>2018-07-14T08:56:35.009Z</time>
      </trkpt>
      <trkpt lat="37.177942" lon="-3.431774">
        <ele>1312</ele>
        <time>2018-07-14T08:56:44.009Z</time>
      </trkpt>
      <trkpt lat="37.177894" lon="-3.431701">
        <ele>1314</ele>
        <time>2018-07-14T08:56:52.009Z</time>
      </trkpt>
      <trkpt lat="37.177925" lon="-3.43157">
        <ele>1315</ele>
        <time>2018-07-14T08:57:00.009Z</time>
      </trkpt>
      <trkpt lat="37.177988" lon="-3.431456">
        <ele>1318</ele>
        <time>2018-07-14T08:57:09.009Z</time>
      </trkpt>
      <trkpt lat="37.178029" lon="-3.43134">
        <ele>1318.26899544314</ele>
        <time>2018-07-14T08:57:16.009Z</time>
      </trkpt>
      <trkpt lat="37.178056" lon="-3.431213">
        <ele>1319</ele>
        <time>2018-07-14T08:57:23.009Z</time>
      </trkpt>
      <trkpt lat="37.178054" lon="-3.431078">
        <ele>1320</ele>
        <time>2018-07-14T08:57:31.009Z</time>
      </trkpt>
      <trkpt lat="37.178018" lon="-3.430956">
        <ele>1322</ele>
        <time>2018-07-14T08:57:40.009Z</time>
      </trkpt>
      <trkpt lat="37.177929" lon="-3.430883">
        <ele>1322</ele>
        <time>2018-07-14T08:57:48.009Z</time>
      </trkpt>
      <trkpt lat="37.177833" lon="-3.430831">
        <ele>1324</ele>
        <time>2018-07-14T08:57:58.009Z</time>
      </trkpt>
      <trkpt lat="37.177757" lon="-3.430887">
        <ele>1326</ele>
        <time>2018-07-14T08:58:07.009Z</time>
      </trkpt>
      <trkpt lat="37.17775" lon="-3.430989">
        <ele>1327</ele>
        <time>2018-07-14T08:58:15.009Z</time>
      </trkpt>
      <trkpt lat="37.177748" lon="-3.431089">
        <ele>1327</ele>
        <time>2018-07-14T08:58:21.009Z</time>
      </trkpt>
      <trkpt lat="37.177738" lon="-3.431189">
        <ele>1328</ele>
        <time>2018-07-14T08:58:27.009Z</time>
      </trkpt>
      <trkpt lat="37.177718" lon="-3.431284">
        <ele>1329</ele>
        <time>2018-07-14T08:58:33.009Z</time>
      </trkpt>
      <trkpt lat="37.177667" lon="-3.431386">
        <ele>1330.26899544314</ele>
        <time>2018-07-14T08:58:42.009Z</time>
      </trkpt>
      <trkpt lat="37.177636" lon="-3.431379">
        <ele>1331</ele>
        <time>2018-07-14T08:58:45.009Z</time>
      </trkpt>
      <trkpt lat="37.177618" lon="-3.431329">
        <ele>1332.26900135678</ele>
        <time>2018-07-14T08:58:51.009Z</time>
      </trkpt>
      <trkpt lat="37.177601" lon="-3.431203">
        <ele>1334</ele>
        <time>2018-07-14T08:58:59.009Z</time>
      </trkpt>
      <trkpt lat="37.177576" lon="-3.431101">
        <ele>1335</ele>
        <time>2018-07-14T08:59:07.009Z</time>
      </trkpt>
      <trkpt lat="37.177495" lon="-3.431028">
        <ele>1337</ele>
        <time>2018-07-14T08:59:15.009Z</time>
      </trkpt>
      <trkpt lat="37.177393" lon="-3.431002">
        <ele>1338</ele>
        <time>2018-07-14T08:59:24.009Z</time>
      </trkpt>
      <trkpt lat="37.1773" lon="-3.431058">
        <ele>1339</ele>
        <time>2018-07-14T08:59:33.009Z</time>
      </trkpt>
      <trkpt lat="37.177267" lon="-3.431135">
        <ele>1340</ele>
        <time>2018-07-14T08:59:40.009Z</time>
      </trkpt>
      <trkpt lat="37.177282" lon="-3.431216">
        <ele>1340</ele>
        <time>2018-07-14T08:59:47.009Z</time>
      </trkpt>
      <trkpt lat="37.17729" lon="-3.431298">
        <ele>1341</ele>
        <time>2018-07-14T08:59:53.009Z</time>
      </trkpt>
      <trkpt lat="37.177262" lon="-3.431405">
        <ele>1343</ele>
        <time>2018-07-14T09:00:00.009Z</time>
      </trkpt>
      <trkpt lat="37.177173" lon="-3.431454">
        <ele>1344</ele>
        <time>2018-07-14T09:00:07.009Z</time>
      </trkpt>
      <trkpt lat="37.177087" lon="-3.431398">
        <ele>1345</ele>
        <time>2018-07-14T09:00:17.009Z</time>
      </trkpt>
      <trkpt lat="37.177026" lon="-3.431298">
        <ele>1347</ele>
        <time>2018-07-14T09:00:27.009Z</time>
      </trkpt>
      <trkpt lat="37.176988" lon="-3.431333">
        <ele>1348</ele>
        <time>2018-07-14T09:00:34.009Z</time>
      </trkpt>
      <trkpt lat="37.176985" lon="-3.431434">
        <ele>1349</ele>
        <time>2018-07-14T09:00:42.009Z</time>
      </trkpt>
      <trkpt lat="37.177013" lon="-3.431522">
        <ele>1350</ele>
        <time>2018-07-14T09:00:48.009Z</time>
      </trkpt>
      <trkpt lat="37.177078" lon="-3.431631">
        <ele>1351</ele>
        <time>2018-07-14T09:00:56.009Z</time>
      </trkpt>
      <trkpt lat="37.177112" lon="-3.431712">
        <ele>1352</ele>
        <time>2018-07-14T09:01:01.009Z</time>
      </trkpt>
      <trkpt lat="37.177061" lon="-3.43183">
        <ele>1352</ele>
        <time>2018-07-14T09:01:09.009Z</time>
      </trkpt>
      <trkpt lat="37.177016" lon="-3.431923">
        <ele>1353</ele>
        <time>2018-07-14T09:01:16.009Z</time>
      </trkpt>
      <trkpt lat="37.176961" lon="-3.432008">
        <ele>1353</ele>
        <time>2018-07-14T09:01:23.009Z</time>
      </trkpt>
      <trkpt lat="37.176909" lon="-3.432094">
        <ele>1354</ele>
        <time>2018-07-14T09:01:30.009Z</time>
      </trkpt>
      <trkpt lat="37.176884" lon="-3.43215">
        <ele>1354</ele>
        <time>2018-07-14T09:01:34.009Z</time>
      </trkpt>
      <trkpt lat="37.176854" lon="-3.432197">
        <ele>1355</ele>
        <time>2018-07-14T09:01:38.009Z</time>
      </trkpt>
      <trkpt lat="37.176828" lon="-3.432249">
        <ele>1355.26899544314</ele>
        <time>2018-07-14T09:01:42.009Z</time>
      </trkpt>
      <trkpt lat="37.17677" lon="-3.432265">
        <ele>1357.26900135678</ele>
        <time>2018-07-14T09:01:47.009Z</time>
      </trkpt>
      <trkpt lat="37.176739" lon="-3.432245">
        <ele>1358</ele>
        <time>2018-07-14T09:01:50.009Z</time>
      </trkpt>
      <trkpt lat="37.176726" lon="-3.432206">
        <ele>1358</ele>
        <time>2018-07-14T09:01:53.009Z</time>
      </trkpt>
      <trkpt lat="37.176736" lon="-3.432074">
        <ele>1360</ele>
        <time>2018-07-14T09:02:03.009Z</time>
      </trkpt>
      <trkpt lat="37.17673" lon="-3.43198">
        <ele>1362</ele>
        <time>2018-07-14T09:02:11.009Z</time>
      </trkpt>
      <trkpt lat="37.176692" lon="-3.431864">
        <ele>1364</ele>
        <time>2018-07-14T09:02:21.009Z</time>
      </trkpt>
      <trkpt lat="37.176611" lon="-3.431835">
        <ele>1364</ele>
        <time>2018-07-14T09:02:29.009Z</time>
      </trkpt>
      <trkpt lat="37.176535" lon="-3.431853">
        <ele>1365</ele>
        <time>2018-07-14T09:02:36.009Z</time>
      </trkpt>
      <trkpt lat="37.176491" lon="-3.431868">
        <ele>1365</ele>
        <time>2018-07-14T09:02:41.009Z</time>
      </trkpt>
      <trkpt lat="37.176475" lon="-3.43192">
        <ele>1366</ele>
        <time>2018-07-14T09:02:46.009Z</time>
      </trkpt>
      <trkpt lat="37.17651" lon="-3.431966">
        <ele>1367.26900135678</ele>
        <time>2018-07-14T09:02:51.009Z</time>
      </trkpt>
      <trkpt lat="37.176543" lon="-3.432">
        <ele>1368</ele>
        <time>2018-07-14T09:02:55.009Z</time>
      </trkpt>
      <trkpt lat="37.176561" lon="-3.432054">
        <ele>1369</ele>
        <time>2018-07-14T09:02:59.009Z</time>
      </trkpt>
      <trkpt lat="37.176552" lon="-3.4321">
        <ele>1369</ele>
        <time>2018-07-14T09:03:02.009Z</time>
      </trkpt>
      <trkpt lat="37.176539" lon="-3.432146">
        <ele>1370</ele>
        <time>2018-07-14T09:03:05.009Z</time>
      </trkpt>
      <trkpt lat="37.17652" lon="-3.432189">
        <ele>1370</ele>
        <time>2018-07-14T09:03:08.009Z</time>
      </trkpt>
      <trkpt lat="37.176492" lon="-3.432231">
        <ele>1370</ele>
        <time>2018-07-14T09:03:12.009Z</time>
      </trkpt>
      <trkpt lat="37.176469" lon="-3.432279">
        <ele>1371</ele>
        <time>2018-07-14T09:03:16.009Z</time>
      </trkpt>
      <trkpt lat="37.176444" lon="-3.432328">
        <ele>1372</ele>
        <time>2018-07-14T09:03:20.009Z</time>
      </trkpt>
      <trkpt lat="37.176411" lon="-3.432371">
        <ele>1373</ele>
        <time>2018-07-14T09:03:24.009Z</time>
      </trkpt>
      <trkpt lat="37.176381" lon="-3.432415">
        <ele>1373</ele>
        <time>2018-07-14T09:03:29.009Z</time>
      </trkpt>
      <trkpt lat="37.17635" lon="-3.432448">
        <ele>1374</ele>
        <time>2018-07-14T09:03:33.009Z</time>
      </trkpt>
      <trkpt lat="37.176317" lon="-3.43248">
        <ele>1374</ele>
        <time>2018-07-14T09:03:37.009Z</time>
      </trkpt>
      <trkpt lat="37.17628" lon="-3.432517">
        <ele>1375</ele>
        <time>2018-07-14T09:03:41.009Z</time>
      </trkpt>
      <trkpt lat="37.176244" lon="-3.432543">
        <ele>1376</ele>
        <time>2018-07-14T09:03:45.009Z</time>
      </trkpt>
      <trkpt lat="37.176203" lon="-3.432573">
        <ele>1376</ele>
        <time>2018-07-14T09:03:49.009Z</time>
      </trkpt>
      <trkpt lat="37.176154" lon="-3.432593">
        <ele>1376</ele>
        <time>2018-07-14T09:03:53.009Z</time>
      </trkpt>
      <trkpt lat="37.176111" lon="-3.432615">
        <ele>1376</ele>
        <time>2018-07-14T09:03:57.009Z</time>
      </trkpt>
      <trkpt lat="37.17606" lon="-3.432642">
        <ele>1377</ele>
        <time>2018-07-14T09:04:02.009Z</time>
      </trkpt>
      <trkpt lat="37.176012" lon="-3.432668">
        <ele>1377</ele>
        <time>2018-07-14T09:04:07.009Z</time>
      </trkpt>
      <trkpt lat="37.175958" lon="-3.432688">
        <ele>1378</ele>
        <time>2018-07-14T09:04:13.009Z</time>
      </trkpt>
      <trkpt lat="37.175898" lon="-3.432652">
        <ele>1379</ele>
        <time>2018-07-14T09:04:21.009Z</time>
      </trkpt>
      <trkpt lat="37.175865" lon="-3.432568">
        <ele>1381</ele>
        <time>2018-07-14T09:04:27.009Z</time>
      </trkpt>
      <trkpt lat="37.17586" lon="-3.432472">
        <ele>1382</ele>
        <time>2018-07-14T09:04:33.009Z</time>
      </trkpt>
      <trkpt lat="37.175878" lon="-3.432338">
        <ele>1384</ele>
        <time>2018-07-14T09:04:42.009Z</time>
      </trkpt>
      <trkpt lat="37.175862" lon="-3.432214">
        <ele>1385</ele>
        <time>2018-07-14T09:04:49.009Z</time>
      </trkpt>
      <trkpt lat="37.175834" lon="-3.43208">
        <ele>1385</ele>
        <time>2018-07-14T09:04:57.009Z</time>
      </trkpt>
      <trkpt lat="37.17579" lon="-3.431965">
        <ele>1385</ele>
        <time>2018-07-14T09:05:05.009Z</time>
      </trkpt>
      <trkpt lat="37.175779" lon="-3.431833">
        <ele>1387</ele>
        <time>2018-07-14T09:05:14.009Z</time>
      </trkpt>
      <trkpt lat="37.175757" lon="-3.431698">
        <ele>1389.26900135678</ele>
        <time>2018-07-14T09:05:23.009Z</time>
      </trkpt>
      <trkpt lat="37.175732" lon="-3.431568">
        <ele>1390</ele>
        <time>2018-07-14T09:05:31.009Z</time>
      </trkpt>
      <trkpt lat="37.175713" lon="-3.431441">
        <ele>1390</ele>
        <time>2018-07-14T09:05:39.009Z</time>
      </trkpt>
      <trkpt lat="37.175715" lon="-3.431321">
        <ele>1392</ele>
        <time>2018-07-14T09:05:47.009Z</time>
      </trkpt>
      <trkpt lat="37.175717" lon="-3.43119">
        <ele>1393</ele>
        <time>2018-07-14T09:05:55.009Z</time>
      </trkpt>
      <trkpt lat="37.175715" lon="-3.431059">
        <ele>1394</ele>
        <time>2018-07-14T09:06:03.009Z</time>
      </trkpt>
      <trkpt lat="37.175624" lon="-3.430992">
        <ele>1394</ele>
        <time>2018-07-14T09:06:12.009Z</time>
      </trkpt>
      <trkpt lat="37.175525" lon="-3.430992">
        <ele>1395</ele>
        <time>2018-07-14T09:06:19.009Z</time>
      </trkpt>
      <trkpt lat="37.175429" lon="-3.430957">
        <ele>1395</ele>
        <time>2018-07-14T09:06:27.009Z</time>
      </trkpt>
      <trkpt lat="37.175333" lon="-3.4309">
        <ele>1395</ele>
        <time>2018-07-14T09:06:35.009Z</time>
      </trkpt>
      <trkpt lat="37.175237" lon="-3.430857">
        <ele>1396</ele>
        <time>2018-07-14T09:06:42.009Z</time>
      </trkpt>
      <trkpt lat="37.175148" lon="-3.430819">
        <ele>1397</ele>
        <time>2018-07-14T09:06:49.009Z</time>
      </trkpt>
      <trkpt lat="37.175044" lon="-3.430836">
        <ele>1398</ele>
        <time>2018-07-14T09:06:58.009Z</time>
      </trkpt>
      <trkpt lat="37.174957" lon="-3.4309">
        <ele>1399</ele>
        <time>2018-07-14T09:07:07.009Z</time>
      </trkpt>
      <trkpt lat="37.174859" lon="-3.430947">
        <ele>1400</ele>
        <time>2018-07-14T09:07:16.009Z</time>
      </trkpt>
      <trkpt lat="37.174757" lon="-3.430973">
        <ele>1402</ele>
        <time>2018-07-14T09:07:25.009Z</time>
      </trkpt>
      <trkpt lat="37.174681" lon="-3.431011">
        <ele>1402</ele>
        <time>2018-07-14T09:07:33.009Z</time>
      </trkpt>
      <trkpt lat="37.174629" lon="-3.431085">
        <ele>1403</ele>
        <time>2018-07-14T09:07:41.009Z</time>
      </trkpt>
      <trkpt lat="37.174562" lon="-3.431161">
        <ele>1404</ele>
        <time>2018-07-14T09:07:48.009Z</time>
      </trkpt>
      <trkpt lat="37.17449" lon="-3.431221">
        <ele>1405</ele>
        <time>2018-07-14T09:07:55.009Z</time>
      </trkpt>
      <trkpt lat="37.174454" lon="-3.4313">
        <ele>1406</ele>
        <time>2018-07-14T09:08:02.009Z</time>
      </trkpt>
      <trkpt lat="37.174433" lon="-3.431397">
        <ele>1406</ele>
        <time>2018-07-14T09:08:10.009Z</time>
      </trkpt>
      <trkpt lat="37.174426" lon="-3.4315">
        <ele>1408</ele>
        <time>2018-07-14T09:08:19.009Z</time>
      </trkpt>
      <trkpt lat="37.17445" lon="-3.431587">
        <ele>1409</ele>
        <time>2018-07-14T09:08:26.009Z</time>
      </trkpt>
      <trkpt lat="37.174465" lon="-3.431686">
        <ele>1411</ele>
        <time>2018-07-14T09:08:35.009Z</time>
      </trkpt>
      <trkpt lat="37.174483" lon="-3.431769">
        <ele>1412</ele>
        <time>2018-07-14T09:08:40.009Z</time>
      </trkpt>
      <trkpt lat="37.174492" lon="-3.431874">
        <ele>1413.26900135678</ele>
        <time>2018-07-14T09:08:47.009Z</time>
      </trkpt>
      <trkpt lat="37.174472" lon="-3.431954">
        <ele>1415.26900135678</ele>
        <time>2018-07-14T09:08:55.009Z</time>
      </trkpt>
      <trkpt lat="37.174388" lon="-3.432043">
        <ele>1419</ele>
        <time>2018-07-14T09:09:06.009Z</time>
      </trkpt>
      <trkpt lat="37.174311" lon="-3.432102">
        <ele>1423</ele>
        <time>2018-07-14T09:09:16.009Z</time>
      </trkpt>
      <trkpt lat="37.174246" lon="-3.432182">
        <ele>1425</ele>
        <time>2018-07-14T09:09:27.009Z</time>
      </trkpt>
      <trkpt lat="37.174219" lon="-3.432259">
        <ele>1426</ele>
        <time>2018-07-14T09:09:35.009Z</time>
      </trkpt>
      <trkpt lat="37.174171" lon="-3.432322">
        <ele>1427.26161046752</ele>
        <time>2018-07-14T09:09:43.009Z</time>
      </trkpt>
      <trkpt lat="37.174136" lon="-3.432384">
        <ele>1429</ele>
        <time>2018-07-14T09:09:49.009Z</time>
      </trkpt>
      <trkpt lat="37.174101" lon="-3.43246">
        <ele>1430.26900135678</ele>
        <time>2018-07-14T09:09:55.009Z</time>
      </trkpt>
      <trkpt lat="37.174067" lon="-3.43253">
        <ele>1431.26900135678</ele>
        <time>2018-07-14T09:10:01.009Z</time>
      </trkpt>
      <trkpt lat="37.17404" lon="-3.432603">
        <ele>1432</ele>
        <time>2018-07-14T09:10:07.009Z</time>
      </trkpt>
      <trkpt lat="37.174016" lon="-3.432685">
        <ele>1433</ele>
        <time>2018-07-14T09:10:14.009Z</time>
      </trkpt>
      <trkpt lat="37.174003" lon="-3.432769">
        <ele>1435</ele>
        <time>2018-07-14T09:10:20.009Z</time>
      </trkpt>
      <trkpt lat="37.17399" lon="-3.432847">
        <ele>1435</ele>
        <time>2018-07-14T09:10:26.009Z</time>
      </trkpt>
      <trkpt lat="37.173991" lon="-3.432939">
        <ele>1436</ele>
        <time>2018-07-14T09:10:33.009Z</time>
      </trkpt>
      <trkpt lat="37.174007" lon="-3.433022">
        <ele>1437.26900135678</ele>
        <time>2018-07-14T09:10:39.009Z</time>
      </trkpt>
      <trkpt lat="37.174034" lon="-3.43311">
        <ele>1438.26900135678</ele>
        <time>2018-07-14T09:10:45.009Z</time>
      </trkpt>
      <trkpt lat="37.174067" lon="-3.433177">
        <ele>1439</ele>
        <time>2018-07-14T09:10:50.009Z</time>
      </trkpt>
      <trkpt lat="37.174099" lon="-3.433239">
        <ele>1441</ele>
        <time>2018-07-14T09:10:55.009Z</time>
      </trkpt>
      <trkpt lat="37.174133" lon="-3.433312">
        <ele>1441</ele>
        <time>2018-07-14T09:11:01.009Z</time>
      </trkpt>
      <trkpt lat="37.174138" lon="-3.433389">
        <ele>1442</ele>
        <time>2018-07-14T09:11:07.009Z</time>
      </trkpt>
      <trkpt lat="37.174147" lon="-3.43346">
        <ele>1442</ele>
        <time>2018-07-14T09:11:12.009Z</time>
      </trkpt>
      <trkpt lat="37.174102" lon="-3.433516">
        <ele>1443.26899544314</ele>
        <time>2018-07-14T09:11:18.009Z</time>
      </trkpt>
      <trkpt lat="37.174034" lon="-3.433544">
        <ele>1446</ele>
        <time>2018-07-14T09:11:25.009Z</time>
      </trkpt>
      <trkpt lat="37.173969" lon="-3.433545">
        <ele>1448</ele>
        <time>2018-07-14T09:11:34.009Z</time>
      </trkpt>
      <trkpt lat="37.173916" lon="-3.433494">
        <ele>1450</ele>
        <time>2018-07-14T09:11:41.009Z</time>
      </trkpt>
      <trkpt lat="37.173872" lon="-3.433431">
        <ele>1451</ele>
        <time>2018-07-14T09:11:46.009Z</time>
      </trkpt>
      <trkpt lat="37.173816" lon="-3.433364">
        <ele>1451</ele>
        <time>2018-07-14T09:11:52.009Z</time>
      </trkpt>
      <trkpt lat="37.17376" lon="-3.433308">
        <ele>1452</ele>
        <time>2018-07-14T09:11:56.009Z</time>
      </trkpt>
      <trkpt lat="37.173709" lon="-3.433258">
        <ele>1452</ele>
        <time>2018-07-14T09:12:01.009Z</time>
      </trkpt>
      <trkpt lat="37.173661" lon="-3.433203">
        <ele>1453</ele>
        <time>2018-07-14T09:12:07.009Z</time>
      </trkpt>
      <trkpt lat="37.173599" lon="-3.433159">
        <ele>1454.26899544314</ele>
        <time>2018-07-14T09:12:14.009Z</time>
      </trkpt>
      <trkpt lat="37.173534" lon="-3.43312">
        <ele>1456</ele>
        <time>2018-07-14T09:12:21.009Z</time>
      </trkpt>
      <trkpt lat="37.173427" lon="-3.43314">
        <ele>1459</ele>
        <time>2018-07-14T09:12:38.009Z</time>
      </trkpt>
      <trkpt lat="37.173376" lon="-3.433239">
        <ele>1460</ele>
        <time>2018-07-14T09:12:49.009Z</time>
      </trkpt>
      <trkpt lat="37.173334" lon="-3.433329">
        <ele>1462.26899544314</ele>
        <time>2018-07-14T09:12:58.009Z</time>
      </trkpt>
      <trkpt lat="37.1733" lon="-3.433417">
        <ele>1464</ele>
        <time>2018-07-14T09:13:06.009Z</time>
      </trkpt>
      <trkpt lat="37.173297" lon="-3.433518">
        <ele>1465.26899544314</ele>
        <time>2018-07-14T09:13:14.009Z</time>
      </trkpt>
      <trkpt lat="37.173313" lon="-3.433625">
        <ele>1467</ele>
        <time>2018-07-14T09:13:22.009Z</time>
      </trkpt>
      <trkpt lat="37.173342" lon="-3.433727">
        <ele>1468</ele>
        <time>2018-07-14T09:13:31.009Z</time>
      </trkpt>
      <trkpt lat="37.173372" lon="-3.433821">
        <ele>1470</ele>
        <time>2018-07-14T09:13:38.009Z</time>
      </trkpt>
      <trkpt lat="37.17336" lon="-3.433915">
        <ele>1470.26900135678</ele>
        <time>2018-07-14T09:13:47.009Z</time>
      </trkpt>
      <trkpt lat="37.173358" lon="-3.433997">
        <ele>1472</ele>
        <time>2018-07-14T09:13:53.009Z</time>
      </trkpt>
      <trkpt lat="37.173356" lon="-3.434073">
        <ele>1474</ele>
        <time>2018-07-14T09:13:59.009Z</time>
      </trkpt>
      <trkpt lat="37.173353" lon="-3.434147">
        <ele>1476</ele>
        <time>2018-07-14T09:14:05.009Z</time>
      </trkpt>
      <trkpt lat="37.173347" lon="-3.434213">
        <ele>1476.26899544314</ele>
        <time>2018-07-14T09:14:10.009Z</time>
      </trkpt>
      <trkpt lat="37.173351" lon="-3.43427">
        <ele>1477</ele>
        <time>2018-07-14T09:14:14.009Z</time>
      </trkpt>
      <trkpt lat="37.173348" lon="-3.434324">
        <ele>1477</ele>
        <time>2018-07-14T09:14:18.009Z</time>
      </trkpt>
      <trkpt lat="37.173327" lon="-3.434373">
        <ele>1478</ele>
        <time>2018-07-14T09:14:23.009Z</time>
      </trkpt>
      <trkpt lat="37.173279" lon="-3.434396">
        <ele>1480.26900135678</ele>
        <time>2018-07-14T09:14:29.009Z</time>
      </trkpt>
      <trkpt lat="37.173203" lon="-3.434314">
        <ele>1484</ele>
        <time>2018-07-14T09:14:38.009Z</time>
      </trkpt>
      <trkpt lat="37.173148" lon="-3.43427">
        <ele>1486.26900135678</ele>
        <time>2018-07-14T09:14:47.009Z</time>
      </trkpt>
      <trkpt lat="37.173088" lon="-3.43424">
        <ele>1489</ele>
        <time>2018-07-14T09:14:55.009Z</time>
      </trkpt>
      <trkpt lat="37.173016" lon="-3.434204">
        <ele>1490</ele>
        <time>2018-07-14T09:15:04.009Z</time>
      </trkpt>
      <trkpt lat="37.172935" lon="-3.43415">
        <ele>1493</ele>
        <time>2018-07-14T09:15:17.009Z</time>
      </trkpt>
      <trkpt lat="37.172872" lon="-3.434111">
        <ele>1494</ele>
        <time>2018-07-14T09:15:26.009Z</time>
      </trkpt>
      <trkpt lat="37.172787" lon="-3.434042">
        <ele>1496</ele>
        <time>2018-07-14T09:15:38.009Z</time>
      </trkpt>
      <trkpt lat="37.172701" lon="-3.433982">
        <ele>1499.26899544314</ele>
        <time>2018-07-14T09:15:58.009Z</time>
      </trkpt>
      <trkpt lat="37.172605" lon="-3.43393">
        <ele>1503</ele>
        <time>2018-07-14T09:16:13.009Z</time>
      </trkpt>
      <trkpt lat="37.172608" lon="-3.434038">
        <ele>1504</ele>
        <time>2018-07-14T09:16:26.009Z</time>
      </trkpt>
      <trkpt lat="37.172579" lon="-3.434133">
        <ele>1504</ele>
        <time>2018-07-14T09:16:37.009Z</time>
      </trkpt>
      <trkpt lat="37.172559" lon="-3.434222">
        <ele>1504</ele>
        <time>2018-07-14T09:16:46.009Z</time>
      </trkpt>
      <trkpt lat="37.17255" lon="-3.434297">
        <ele>1505</ele>
        <time>2018-07-14T09:16:53.009Z</time>
      </trkpt>
      <trkpt lat="37.172549" lon="-3.434402">
        <ele>1506</ele>
        <time>2018-07-14T09:17:02.009Z</time>
      </trkpt>
      <trkpt lat="37.172565" lon="-3.434494">
        <ele>1506</ele>
        <time>2018-07-14T09:17:08.009Z</time>
      </trkpt>
      <trkpt lat="37.17255" lon="-3.43462">
        <ele>1507.26900135678</ele>
        <time>2018-07-14T09:17:17.009Z</time>
      </trkpt>
      <trkpt lat="37.172517" lon="-3.434745">
        <ele>1508</ele>
        <time>2018-07-14T09:17:27.009Z</time>
      </trkpt>
      <trkpt lat="37.172583" lon="-3.434846">
        <ele>1509</ele>
        <time>2018-07-14T09:17:37.009Z</time>
      </trkpt>
      <trkpt lat="37.172625" lon="-3.434966">
        <ele>1514</ele>
        <time>2018-07-14T09:17:47.009Z</time>
      </trkpt>
      <trkpt lat="37.172644" lon="-3.435038">
        <ele>1516</ele>
        <time>2018-07-14T09:17:53.009Z</time>
      </trkpt>
      <trkpt lat="37.17264" lon="-3.435108">
        <ele>1516</ele>
        <time>2018-07-14T09:18:00.009Z</time>
      </trkpt>
      <trkpt lat="37.172633" lon="-3.435188">
        <ele>1517</ele>
        <time>2018-07-14T09:18:08.009Z</time>
      </trkpt>
      <trkpt lat="37.172634" lon="-3.435272">
        <ele>1518</ele>
        <time>2018-07-14T09:18:15.009Z</time>
      </trkpt>
      <trkpt lat="37.172629" lon="-3.435346">
        <ele>1520</ele>
        <time>2018-07-14T09:18:22.009Z</time>
      </trkpt>
      <trkpt lat="37.172641" lon="-3.435432">
        <ele>1520</ele>
        <time>2018-07-14T09:18:30.009Z</time>
      </trkpt>
      <trkpt lat="37.172658" lon="-3.435514">
        <ele>1521</ele>
        <time>2018-07-14T09:18:36.009Z</time>
      </trkpt>
      <trkpt lat="37.172673" lon="-3.435603">
        <ele>1522.26900135678</ele>
        <time>2018-07-14T09:18:45.009Z</time>
      </trkpt>
      <trkpt lat="37.172677" lon="-3.435692">
        <ele>1525</ele>
        <time>2018-07-14T09:18:54.009Z</time>
      </trkpt>
      <trkpt lat="37.172688" lon="-3.435772">
        <ele>1526</ele>
        <time>2018-07-14T09:19:02.009Z</time>
      </trkpt>
      <trkpt lat="37.172673" lon="-3.435868">
        <ele>1527.26899544314</ele>
        <time>2018-07-14T09:19:10.009Z</time>
      </trkpt>
      <trkpt lat="37.172617" lon="-3.435878">
        <ele>1529</ele>
        <time>2018-07-14T09:19:18.009Z</time>
      </trkpt>
      <trkpt lat="37.172586" lon="-3.435869">
        <ele>1530.26899544314</ele>
        <time>2018-07-14T09:19:22.009Z</time>
      </trkpt>
      <trkpt lat="37.172557" lon="-3.435847">
        <ele>1531.26899544314</ele>
        <time>2018-07-14T09:19:26.009Z</time>
      </trkpt>
      <trkpt lat="37.172503" lon="-3.43581">
        <ele>1533</ele>
        <time>2018-07-14T09:19:33.009Z</time>
      </trkpt>
      <trkpt lat="37.172445" lon="-3.435798">
        <ele>1534</ele>
        <time>2018-07-14T09:19:40.009Z</time>
      </trkpt>
      <trkpt lat="37.172384" lon="-3.435787">
        <ele>1535.26900135678</ele>
        <time>2018-07-14T09:19:47.009Z</time>
      </trkpt>
      <trkpt lat="37.172327" lon="-3.435762">
        <ele>1537.26900135678</ele>
        <time>2018-07-14T09:19:55.009Z</time>
      </trkpt>
      <trkpt lat="37.172294" lon="-3.435727">
        <ele>1539</ele>
        <time>2018-07-14T09:20:00.009Z</time>
      </trkpt>
      <trkpt lat="37.172273" lon="-3.435708">
        <ele>1540</ele>
        <time>2018-07-14T09:20:03.009Z</time>
      </trkpt>
      <trkpt lat="37.172187" lon="-3.435644">
        <ele>1542.26899544314</ele>
        <time>2018-07-14T09:20:16.009Z</time>
      </trkpt>
      <trkpt lat="37.172145" lon="-3.435611">
        <ele>1545</ele>
        <time>2018-07-14T09:20:24.009Z</time>
      </trkpt>
      <trkpt lat="37.172076" lon="-3.435532">
        <ele>1548</ele>
        <time>2018-07-14T09:20:38.009Z</time>
      </trkpt>
      <trkpt lat="37.172003" lon="-3.435501">
        <ele>1549</ele>
        <time>2018-07-14T09:20:51.009Z</time>
      </trkpt>
      <trkpt lat="37.171906" lon="-3.435481">
        <ele>1551</ele>
        <time>2018-07-14T09:21:10.009Z</time>
      </trkpt>
      <trkpt lat="37.17185" lon="-3.435467">
        <ele>1552</ele>
        <time>2018-07-14T09:21:21.009Z</time>
      </trkpt>
      <trkpt lat="37.171819" lon="-3.435457">
        <ele>1553</ele>
        <time>2018-07-14T09:21:25.009Z</time>
      </trkpt>
      <trkpt lat="37.171751" lon="-3.435466">
        <ele>1555</ele>
        <time>2018-07-14T09:21:35.009Z</time>
      </trkpt>
      <trkpt lat="37.171724" lon="-3.435459">
        <ele>1556</ele>
        <time>2018-07-14T09:21:44.009Z</time>
      </trkpt>
      <trkpt lat="37.171697" lon="-3.435469">
        <ele>1557</ele>
        <time>2018-07-14T09:21:51.009Z</time>
      </trkpt>
      <trkpt lat="37.171647" lon="-3.435462">
        <ele>1558.26900135678</ele>
        <time>2018-07-14T09:21:57.009Z</time>
      </trkpt>
      <trkpt lat="37.171621" lon="-3.435467">
        <ele>1559</ele>
        <time>2018-07-14T09:22:01.009Z</time>
      </trkpt>
      <trkpt lat="37.171592" lon="-3.435474">
        <ele>1559</ele>
        <time>2018-07-14T09:22:06.009Z</time>
      </trkpt>
      <trkpt lat="37.171551" lon="-3.43546">
        <ele>1560</ele>
        <time>2018-07-14T09:22:12.009Z</time>
      </trkpt>
      <trkpt lat="37.171483" lon="-3.435466">
        <ele>1562</ele>
        <time>2018-07-14T09:22:34.009Z</time>
      </trkpt>
      <trkpt lat="37.17143" lon="-3.435475">
        <ele>1564</ele>
        <time>2018-07-14T09:22:44.009Z</time>
      </trkpt>
      <trkpt lat="37.171371" lon="-3.435482">
        <ele>1565.26900135678</ele>
        <time>2018-07-14T09:22:53.009Z</time>
      </trkpt>
      <trkpt lat="37.171308" lon="-3.43548">
        <ele>1568.26899544314</ele>
        <time>2018-07-14T09:23:02.009Z</time>
      </trkpt>
      <trkpt lat="37.171242" lon="-3.435456">
        <ele>1571.26899544314</ele>
        <time>2018-07-14T09:23:10.009Z</time>
      </trkpt>
      <trkpt lat="37.171144" lon="-3.435435">
        <ele>1574</ele>
        <time>2018-07-14T09:23:24.009Z</time>
      </trkpt>
      <trkpt lat="37.171076" lon="-3.435378">
        <ele>1577</ele>
        <time>2018-07-14T09:23:37.009Z</time>
      </trkpt>
      <trkpt lat="37.171057" lon="-3.435295">
        <ele>1578</ele>
        <time>2018-07-14T09:23:58.009Z</time>
      </trkpt>
      <trkpt lat="37.171045" lon="-3.4352">
        <ele>1578</ele>
        <time>2018-07-14T09:24:52.009Z</time>
      </trkpt>
      <trkpt lat="37.171036" lon="-3.435118">
        <ele>1580</ele>
        <time>2018-07-14T09:25:00.009Z</time>
      </trkpt>
      <trkpt lat="37.170993" lon="-3.435034">
        <ele>1582.26899544314</ele>
        <time>2018-07-14T09:25:12.009Z</time>
      </trkpt>
      <trkpt lat="37.17094" lon="-3.434961">
        <ele>1585.26899544314</ele>
        <time>2018-07-14T09:25:28.009Z</time>
      </trkpt>
      <trkpt lat="37.170893" lon="-3.434914">
        <ele>1587</ele>
        <time>2018-07-14T09:25:39.009Z</time>
      </trkpt>
      <trkpt lat="37.170859" lon="-3.434874">
        <ele>1589</ele>
        <time>2018-07-14T09:25:49.009Z</time>
      </trkpt>
      <trkpt lat="37.170828" lon="-3.434851">
        <ele>1590</ele>
        <time>2018-07-14T09:25:56.009Z</time>
      </trkpt>
      <trkpt lat="37.170798" lon="-3.434828">
        <ele>1591.26900135678</ele>
        <time>2018-07-14T09:26:01.009Z</time>
      </trkpt>
      <trkpt lat="37.170772" lon="-3.434805">
        <ele>1592</ele>
        <time>2018-07-14T09:26:07.009Z</time>
      </trkpt>
      <trkpt lat="37.17074" lon="-3.434772">
        <ele>1593</ele>
        <time>2018-07-14T09:26:14.009Z</time>
      </trkpt>
      <trkpt lat="37.17071" lon="-3.434746">
        <ele>1594</ele>
        <time>2018-07-14T09:26:20.009Z</time>
      </trkpt>
      <trkpt lat="37.170682" lon="-3.434713">
        <ele>1595</ele>
        <time>2018-07-14T09:26:29.009Z</time>
      </trkpt>
      <trkpt lat="37.17065" lon="-3.434688">
        <ele>1595.26899544314</ele>
        <time>2018-07-14T09:26:34.009Z</time>
      </trkpt>
      <trkpt lat="37.17062" lon="-3.43467">
        <ele>1596</ele>
        <time>2018-07-14T09:26:38.009Z</time>
      </trkpt>
      <trkpt lat="37.17059" lon="-3.43465">
        <ele>1597</ele>
        <time>2018-07-14T09:26:42.009Z</time>
      </trkpt>
      <trkpt lat="37.170557" lon="-3.434627">
        <ele>1597</ele>
        <time>2018-07-14T09:26:48.009Z</time>
      </trkpt>
      <trkpt lat="37.170529" lon="-3.434602">
        <ele>1598</ele>
        <time>2018-07-14T09:26:52.009Z</time>
      </trkpt>
      <trkpt lat="37.170512" lon="-3.434548">
        <ele>1599</ele>
        <time>2018-07-14T09:26:58.009Z</time>
      </trkpt>
      <trkpt lat="37.17049" lon="-3.43451">
        <ele>1599</ele>
        <time>2018-07-14T09:27:06.009Z</time>
      </trkpt>
      <trkpt lat="37.170466" lon="-3.434463">
        <ele>1600.26899544314</ele>
        <time>2018-07-14T09:27:12.009Z</time>
      </trkpt>
      <trkpt lat="37.170438" lon="-3.434416">
        <ele>1601</ele>
        <time>2018-07-14T09:27:17.009Z</time>
      </trkpt>
      <trkpt lat="37.170416" lon="-3.434372">
        <ele>1601</ele>
        <time>2018-07-14T09:27:24.009Z</time>
      </trkpt>
      <trkpt lat="37.170456" lon="-3.434343">
        <ele>1603.26899544314</ele>
        <time>2018-07-14T09:27:32.009Z</time>
      </trkpt>
      <trkpt lat="37.170504" lon="-3.434337">
        <ele>1605</ele>
        <time>2018-07-14T09:27:40.009Z</time>
      </trkpt>
      <trkpt lat="37.170539" lon="-3.434313">
        <ele>1608</ele>
        <time>2018-07-14T09:27:51.009Z</time>
      </trkpt>
      <trkpt lat="37.17056" lon="-3.434298">
        <ele>1609.26899544314</ele>
        <time>2018-07-14T09:27:56.009Z</time>
      </trkpt>
      <trkpt lat="37.170576" lon="-3.434274">
        <ele>1612</ele>
        <time>2018-07-14T09:28:19.009Z</time>
      </trkpt>
      <trkpt lat="37.170595" lon="-3.434249">
        <ele>1613</ele>
        <time>2018-07-14T09:28:23.009Z</time>
      </trkpt>
      <trkpt lat="37.170677" lon="-3.434172">
        <ele>1615</ele>
        <time>2018-07-14T09:28:37.009Z</time>
      </trkpt>
      <trkpt lat="37.170715" lon="-3.434121">
        <ele>1616</ele>
        <time>2018-07-14T09:28:46.009Z</time>
      </trkpt>
      <trkpt lat="37.170745" lon="-3.434074">
        <ele>1617</ele>
        <time>2018-07-14T09:29:09.009Z</time>
      </trkpt>
      <trkpt lat="37.170768" lon="-3.433994">
        <ele>1620</ele>
        <time>2018-07-14T09:29:21.009Z</time>
      </trkpt>
      <trkpt lat="37.170771" lon="-3.433937">
        <ele>1621</ele>
        <time>2018-07-14T09:29:28.009Z</time>
      </trkpt>
      <trkpt lat="37.17074" lon="-3.433901">
        <ele>1622</ele>
        <time>2018-07-14T09:29:38.009Z</time>
      </trkpt>
      <trkpt lat="37.170696" lon="-3.433882">
        <ele>1623.26899544314</ele>
        <time>2018-07-14T09:29:46.009Z</time>
      </trkpt>
      <trkpt lat="37.170658" lon="-3.43387">
        <ele>1624.26900135678</ele>
        <time>2018-07-14T09:29:51.009Z</time>
      </trkpt>
      <trkpt lat="37.170616" lon="-3.433875">
        <ele>1625</ele>
        <time>2018-07-14T09:29:57.009Z</time>
      </trkpt>
      <trkpt lat="37.170577" lon="-3.433859">
        <ele>1626</ele>
        <time>2018-07-14T09:30:02.009Z</time>
      </trkpt>
      <trkpt lat="37.170545" lon="-3.43383">
        <ele>1627</ele>
        <time>2018-07-14T09:30:08.009Z</time>
      </trkpt>
      <trkpt lat="37.170518" lon="-3.433779">
        <ele>1628</ele>
        <time>2018-07-14T09:30:15.009Z</time>
      </trkpt>
      <trkpt lat="37.170479" lon="-3.433733">
        <ele>1629</ele>
        <time>2018-07-14T09:30:24.009Z</time>
      </trkpt>
      <trkpt lat="37.170487" lon="-3.433666">
        <ele>1631</ele>
        <time>2018-07-14T09:30:32.009Z</time>
      </trkpt>
      <trkpt lat="37.170546" lon="-3.433588">
        <ele>1634.26900135678</ele>
        <time>2018-07-14T09:30:43.009Z</time>
      </trkpt>
      <trkpt lat="37.170613" lon="-3.433523">
        <ele>1637</ele>
        <time>2018-07-14T09:30:54.009Z</time>
      </trkpt>
      <trkpt lat="37.170678" lon="-3.433445">
        <ele>1639</ele>
        <time>2018-07-14T09:31:05.009Z</time>
      </trkpt>
      <trkpt lat="37.170701" lon="-3.433365">
        <ele>1640</ele>
        <time>2018-07-14T09:31:12.009Z</time>
      </trkpt>
      <trkpt lat="37.170716" lon="-3.433281">
        <ele>1641</ele>
        <time>2018-07-14T09:31:20.009Z</time>
      </trkpt>
      <trkpt lat="37.170723" lon="-3.433217">
        <ele>1642</ele>
        <time>2018-07-14T09:31:29.009Z</time>
      </trkpt>
      <trkpt lat="37.170715" lon="-3.433135">
        <ele>1643</ele>
        <time>2018-07-14T09:31:38.009Z</time>
      </trkpt>
      <trkpt lat="37.170707" lon="-3.433063">
        <ele>1644</ele>
        <time>2018-07-14T09:31:53.009Z</time>
      </trkpt>
      <trkpt lat="37.170675" lon="-3.432992">
        <ele>1646.26899544314</ele>
        <time>2018-07-14T09:32:02.009Z</time>
      </trkpt>
      <trkpt lat="37.170635" lon="-3.432934">
        <ele>1650</ele>
        <time>2018-07-14T09:32:13.009Z</time>
      </trkpt>
      <trkpt lat="37.170583" lon="-3.432852">
        <ele>1652</ele>
        <time>2018-07-14T09:32:24.009Z</time>
      </trkpt>
      <trkpt lat="37.170541" lon="-3.432793">
        <ele>1652</ele>
        <time>2018-07-14T09:32:33.009Z</time>
      </trkpt>
      <trkpt lat="37.170506" lon="-3.432733">
        <ele>1654</ele>
        <time>2018-07-14T09:32:43.009Z</time>
      </trkpt>
      <trkpt lat="37.170479" lon="-3.432669">
        <ele>1655</ele>
        <time>2018-07-14T09:32:52.009Z</time>
      </trkpt>
      <trkpt lat="37.170439" lon="-3.432596">
        <ele>1656</ele>
        <time>2018-07-14T09:33:03.009Z</time>
      </trkpt>
      <trkpt lat="37.170406" lon="-3.432527">
        <ele>1657</ele>
        <time>2018-07-14T09:33:13.009Z</time>
      </trkpt>
      <trkpt lat="37.170385" lon="-3.43246">
        <ele>1659.26899544314</ele>
        <time>2018-07-14T09:33:22.009Z</time>
      </trkpt>
      <trkpt lat="37.170358" lon="-3.43238">
        <ele>1662</ele>
        <time>2018-07-14T09:33:31.009Z</time>
      </trkpt>
      <trkpt lat="37.17033" lon="-3.43231">
        <ele>1663.26900135678</ele>
        <time>2018-07-14T09:33:39.009Z</time>
      </trkpt>
      <trkpt lat="37.170297" lon="-3.432241">
        <ele>1665</ele>
        <time>2018-07-14T09:33:49.009Z</time>
      </trkpt>
      <trkpt lat="37.17027" lon="-3.432169">
        <ele>1667</ele>
        <time>2018-07-14T09:34:00.009Z</time>
      </trkpt>
      <trkpt lat="37.170243" lon="-3.432111">
        <ele>1669</ele>
        <time>2018-07-14T09:34:07.009Z</time>
      </trkpt>
      <trkpt lat="37.170216" lon="-3.432054">
        <ele>1669.26899544314</ele>
        <time>2018-07-14T09:34:14.009Z</time>
      </trkpt>
      <trkpt lat="37.170185" lon="-3.431997">
        <ele>1671</ele>
        <time>2018-07-14T09:34:22.009Z</time>
      </trkpt>
      <trkpt lat="37.170146" lon="-3.431943">
        <ele>1673</ele>
        <time>2018-07-14T09:34:31.009Z</time>
      </trkpt>
      <trkpt lat="37.170104" lon="-3.431898">
        <ele>1675</ele>
        <time>2018-07-14T09:34:39.009Z</time>
      </trkpt>
      <trkpt lat="37.170071" lon="-3.431842">
        <ele>1677</ele>
        <time>2018-07-14T09:34:46.009Z</time>
      </trkpt>
      <trkpt lat="37.170031" lon="-3.431783">
        <ele>1678</ele>
        <time>2018-07-14T09:34:55.009Z</time>
      </trkpt>
      <trkpt lat="37.17" lon="-3.431736">
        <ele>1679</ele>
        <time>2018-07-14T09:35:02.009Z</time>
      </trkpt>
      <trkpt lat="37.169969" lon="-3.431659">
        <ele>1680</ele>
        <time>2018-07-14T09:35:13.009Z</time>
      </trkpt>
      <trkpt lat="37.169938" lon="-3.431582">
        <ele>1682</ele>
        <time>2018-07-14T09:35:21.009Z</time>
      </trkpt>
      <trkpt lat="37.169909" lon="-3.431507">
        <ele>1684</ele>
        <time>2018-07-14T09:35:31.009Z</time>
      </trkpt>
      <trkpt lat="37.169882" lon="-3.431442">
        <ele>1686</ele>
        <time>2018-07-14T09:35:40.009Z</time>
      </trkpt>
      <trkpt lat="37.169851" lon="-3.431368">
        <ele>1687.26899544314</ele>
        <time>2018-07-14T09:35:50.009Z</time>
      </trkpt>
      <trkpt lat="37.169829" lon="-3.431286">
        <ele>1688.26900135678</ele>
        <time>2018-07-14T09:35:59.009Z</time>
      </trkpt>
      <trkpt lat="37.169801" lon="-3.431208">
        <ele>1690</ele>
        <time>2018-07-14T09:36:09.009Z</time>
      </trkpt>
      <trkpt lat="37.169772" lon="-3.431139">
        <ele>1691</ele>
        <time>2018-07-14T09:36:18.009Z</time>
      </trkpt>
      <trkpt lat="37.169744" lon="-3.431064">
        <ele>1692</ele>
        <time>2018-07-14T09:36:27.009Z</time>
      </trkpt>
      <trkpt lat="37.169709" lon="-3.431003">
        <ele>1694</ele>
        <time>2018-07-14T09:36:35.009Z</time>
      </trkpt>
      <trkpt lat="37.169676" lon="-3.430947">
        <ele>1695</ele>
        <time>2018-07-14T09:36:42.009Z</time>
      </trkpt>
      <trkpt lat="37.169654" lon="-3.430896">
        <ele>1697</ele>
        <time>2018-07-14T09:36:49.009Z</time>
      </trkpt>
      <trkpt lat="37.169624" lon="-3.430836">
        <ele>1698</ele>
        <time>2018-07-14T09:36:56.009Z</time>
      </trkpt>
      <trkpt lat="37.16957" lon="-3.430746">
        <ele>1700.26900135678</ele>
        <time>2018-07-14T09:37:05.009Z</time>
      </trkpt>
      <trkpt lat="37.169542" lon="-3.430688">
        <ele>1701</ele>
        <time>2018-07-14T09:37:11.009Z</time>
      </trkpt>
      <trkpt lat="37.169504" lon="-3.430616">
        <ele>1702</ele>
        <time>2018-07-14T09:37:18.009Z</time>
      </trkpt>
      <trkpt lat="37.169463" lon="-3.430552">
        <ele>1703</ele>
        <time>2018-07-14T09:37:25.009Z</time>
      </trkpt>
      <trkpt lat="37.169421" lon="-3.430472">
        <ele>1705</ele>
        <time>2018-07-14T09:37:33.009Z</time>
      </trkpt>
      <trkpt lat="37.169385" lon="-3.430409">
        <ele>1706</ele>
        <time>2018-07-14T09:37:40.009Z</time>
      </trkpt>
      <trkpt lat="37.16936" lon="-3.430343">
        <ele>1707</ele>
        <time>2018-07-14T09:37:46.009Z</time>
      </trkpt>
      <trkpt lat="37.169329" lon="-3.43025">
        <ele>1709</ele>
        <time>2018-07-14T09:37:55.009Z</time>
      </trkpt>
      <trkpt lat="37.169319" lon="-3.430188">
        <ele>1709</ele>
        <time>2018-07-14T09:38:01.009Z</time>
      </trkpt>
      <trkpt lat="37.169291" lon="-3.430118">
        <ele>1709</ele>
        <time>2018-07-14T09:38:08.009Z</time>
      </trkpt>
      <trkpt lat="37.169278" lon="-3.430045">
        <ele>1709</ele>
        <time>2018-07-14T09:38:15.009Z</time>
      </trkpt>
      <trkpt lat="37.169268" lon="-3.429976">
        <ele>1709.73099864322</ele>
        <time>2018-07-14T09:38:21.009Z</time>
      </trkpt>
      <trkpt lat="37.169233" lon="-3.429904">
        <ele>1710</ele>
        <time>2018-07-14T09:38:28.009Z</time>
      </trkpt>
      <trkpt lat="37.169189" lon="-3.429861">
        <ele>1710</ele>
        <time>2018-07-14T09:38:34.009Z</time>
      </trkpt>
      <trkpt lat="37.169147" lon="-3.429777">
        <ele>1711</ele>
        <time>2018-07-14T09:38:42.009Z</time>
      </trkpt>
      <trkpt lat="37.169125" lon="-3.429718">
        <ele>1712</ele>
        <time>2018-07-14T09:38:48.009Z</time>
      </trkpt>
      <trkpt lat="37.1691" lon="-3.42966">
        <ele>1713</ele>
        <time>2018-07-14T09:38:54.009Z</time>
      </trkpt>
      <trkpt lat="37.169076" lon="-3.429606">
        <ele>1713.26899544314</ele>
        <time>2018-07-14T09:39:00.009Z</time>
      </trkpt>
      <trkpt lat="37.169039" lon="-3.429555">
        <ele>1715</ele>
        <time>2018-07-14T09:39:07.009Z</time>
      </trkpt>
      <trkpt lat="37.169004" lon="-3.429487">
        <ele>1714</ele>
        <time>2018-07-14T09:39:15.009Z</time>
      </trkpt>
      <trkpt lat="37.168963" lon="-3.42942">
        <ele>1716</ele>
        <time>2018-07-14T09:39:23.009Z</time>
      </trkpt>
      <trkpt lat="37.168921" lon="-3.429348">
        <ele>1718</ele>
        <time>2018-07-14T09:39:31.009Z</time>
      </trkpt>
      <trkpt lat="37.168882" lon="-3.429283">
        <ele>1719</ele>
        <time>2018-07-14T09:39:38.009Z</time>
      </trkpt>
      <trkpt lat="37.16885" lon="-3.429218">
        <ele>1719</ele>
        <time>2018-07-14T09:39:45.009Z</time>
      </trkpt>
      <trkpt lat="37.168816" lon="-3.429181">
        <ele>1719</ele>
        <time>2018-07-14T09:39:50.009Z</time>
      </trkpt>
      <trkpt lat="37.16876" lon="-3.429142">
        <ele>1720</ele>
        <time>2018-07-14T09:39:58.009Z</time>
      </trkpt>
      <trkpt lat="37.168718" lon="-3.429104">
        <ele>1720.26900135678</ele>
        <time>2018-07-14T09:40:05.009Z</time>
      </trkpt>
      <trkpt lat="37.16867" lon="-3.429053">
        <ele>1721</ele>
        <time>2018-07-14T09:40:12.009Z</time>
      </trkpt>
      <trkpt lat="37.168624" lon="-3.429005">
        <ele>1722.26899544314</ele>
        <time>2018-07-14T09:40:18.009Z</time>
      </trkpt>
      <trkpt lat="37.168582" lon="-3.428958">
        <ele>1724</ele>
        <time>2018-07-14T09:40:24.009Z</time>
      </trkpt>
      <trkpt lat="37.168547" lon="-3.428897">
        <ele>1725</ele>
        <time>2018-07-14T09:40:31.009Z</time>
      </trkpt>
      <trkpt lat="37.168509" lon="-3.428828">
        <ele>1726</ele>
        <time>2018-07-14T09:40:39.009Z</time>
      </trkpt>
      <trkpt lat="37.168495" lon="-3.428774">
        <ele>1727</ele>
        <time>2018-07-14T09:40:44.009Z</time>
      </trkpt>
      <trkpt lat="37.168481" lon="-3.428714">
        <ele>1728</ele>
        <time>2018-07-14T09:40:50.009Z</time>
      </trkpt>
      <trkpt lat="37.168468" lon="-3.428653">
        <ele>1728</ele>
        <time>2018-07-14T09:40:56.009Z</time>
      </trkpt>
      <trkpt lat="37.168458" lon="-3.428586">
        <ele>1730</ele>
        <time>2018-07-14T09:41:02.009Z</time>
      </trkpt>
      <trkpt lat="37.168453" lon="-3.42851">
        <ele>1731</ele>
        <time>2018-07-14T09:41:09.009Z</time>
      </trkpt>
      <trkpt lat="37.16845" lon="-3.42843">
        <ele>1732.26899544314</ele>
        <time>2018-07-14T09:41:16.009Z</time>
      </trkpt>
      <trkpt lat="37.168453" lon="-3.428358">
        <ele>1734</ele>
        <time>2018-07-14T09:41:23.009Z</time>
      </trkpt>
      <trkpt lat="37.168452" lon="-3.428286">
        <ele>1735</ele>
        <time>2018-07-14T09:41:30.009Z</time>
      </trkpt>
      <trkpt lat="37.168443" lon="-3.428226">
        <ele>1736</ele>
        <time>2018-07-14T09:41:36.009Z</time>
      </trkpt>
      <trkpt lat="37.168432" lon="-3.428158">
        <ele>1737</ele>
        <time>2018-07-14T09:41:42.009Z</time>
      </trkpt>
      <trkpt lat="37.168427" lon="-3.428098">
        <ele>1738</ele>
        <time>2018-07-14T09:41:48.009Z</time>
      </trkpt>
      <trkpt lat="37.168436" lon="-3.428032">
        <ele>1739</ele>
        <time>2018-07-14T09:41:55.009Z</time>
      </trkpt>
      <trkpt lat="37.168438" lon="-3.427966">
        <ele>1740</ele>
        <time>2018-07-14T09:42:02.009Z</time>
      </trkpt>
      <trkpt lat="37.168437" lon="-3.427899">
        <ele>1741</ele>
        <time>2018-07-14T09:42:08.009Z</time>
      </trkpt>
      <trkpt lat="37.168452" lon="-3.427834">
        <ele>1742</ele>
        <time>2018-07-14T09:42:16.009Z</time>
      </trkpt>
      <trkpt lat="37.168485" lon="-3.427783">
        <ele>1744</ele>
        <time>2018-07-14T09:42:24.009Z</time>
      </trkpt>
      <trkpt lat="37.168513" lon="-3.427723">
        <ele>1746</ele>
        <time>2018-07-14T09:42:32.009Z</time>
      </trkpt>
      <trkpt lat="37.168546" lon="-3.427679">
        <ele>1747</ele>
        <time>2018-07-14T09:42:40.009Z</time>
      </trkpt>
      <trkpt lat="37.168586" lon="-3.427648">
        <ele>1748</ele>
        <time>2018-07-14T09:42:48.009Z</time>
      </trkpt>
      <trkpt lat="37.16861" lon="-3.427587">
        <ele>1750</ele>
        <time>2018-07-14T09:42:57.009Z</time>
      </trkpt>
      <trkpt lat="37.168628" lon="-3.427532">
        <ele>1751</ele>
        <time>2018-07-14T09:43:03.009Z</time>
      </trkpt>
      <trkpt lat="37.168655" lon="-3.427488">
        <ele>1752</ele>
        <time>2018-07-14T09:43:11.009Z</time>
      </trkpt>
      <trkpt lat="37.168683" lon="-3.427454">
        <ele>1752</ele>
        <time>2018-07-14T09:43:56.009Z</time>
      </trkpt>
      <trkpt lat="37.168669" lon="-3.427407">
        <ele>1752</ele>
        <time>2018-07-14T09:44:00.009Z</time>
      </trkpt>
      <trkpt lat="37.168644" lon="-3.427358">
        <ele>1752</ele>
        <time>2018-07-14T09:44:04.009Z</time>
      </trkpt>
      <trkpt lat="37.168643" lon="-3.427285">
        <ele>1752</ele>
        <time>2018-07-14T09:44:12.009Z</time>
      </trkpt>
      <trkpt lat="37.168636" lon="-3.427239">
        <ele>1752</ele>
        <time>2018-07-14T09:44:15.009Z</time>
      </trkpt>
      <trkpt lat="37.168621" lon="-3.427175">
        <ele>1751</ele>
        <time>2018-07-14T09:44:19.009Z</time>
      </trkpt>
      <trkpt lat="37.168605" lon="-3.427124">
        <ele>1751</ele>
        <time>2018-07-14T09:44:22.009Z</time>
      </trkpt>
      <trkpt lat="37.168591" lon="-3.427063">
        <ele>1750</ele>
        <time>2018-07-14T09:44:26.009Z</time>
      </trkpt>
      <trkpt lat="37.168587" lon="-3.426993">
        <ele>1749</ele>
        <time>2018-07-14T09:44:31.009Z</time>
      </trkpt>
      <trkpt lat="37.168582" lon="-3.426929">
        <ele>1749</ele>
        <time>2018-07-14T09:44:35.009Z</time>
      </trkpt>
      <trkpt lat="37.168565" lon="-3.426865">
        <ele>1748</ele>
        <time>2018-07-14T09:44:39.009Z</time>
      </trkpt>
      <trkpt lat="37.168546" lon="-3.426807">
        <ele>1748</ele>
        <time>2018-07-14T09:44:43.009Z</time>
      </trkpt>
      <trkpt lat="37.168541" lon="-3.426746">
        <ele>1748</ele>
        <time>2018-07-14T09:44:47.009Z</time>
      </trkpt>
      <trkpt lat="37.16854" lon="-3.426682">
        <ele>1748</ele>
        <time>2018-07-14T09:44:51.009Z</time>
      </trkpt>
      <trkpt lat="37.16853" lon="-3.426627">
        <ele>1747</ele>
        <time>2018-07-14T09:44:55.009Z</time>
      </trkpt>
      <trkpt lat="37.168528" lon="-3.426576">
        <ele>1746.73100455686</ele>
        <time>2018-07-14T09:44:58.009Z</time>
      </trkpt>
      <trkpt lat="37.168516" lon="-3.426507">
        <ele>1746</ele>
        <time>2018-07-14T09:45:02.009Z</time>
      </trkpt>
      <trkpt lat="37.168491" lon="-3.426446">
        <ele>1746</ele>
        <time>2018-07-14T09:45:06.009Z</time>
      </trkpt>
      <trkpt lat="37.168462" lon="-3.426391">
        <ele>1746</ele>
        <time>2018-07-14T09:45:11.009Z</time>
      </trkpt>
      <trkpt lat="37.16843" lon="-3.426309">
        <ele>1744</ele>
        <time>2018-07-14T09:45:17.009Z</time>
      </trkpt>
      <trkpt lat="37.168413" lon="-3.426228">
        <ele>1743.73100455686</ele>
        <time>2018-07-14T09:45:22.009Z</time>
      </trkpt>
      <trkpt lat="37.168401" lon="-3.426151">
        <ele>1743.26900135678</ele>
        <time>2018-07-14T09:45:27.009Z</time>
      </trkpt>
      <trkpt lat="37.168391" lon="-3.426104">
        <ele>1744</ele>
        <time>2018-07-14T09:45:30.009Z</time>
      </trkpt>
      <trkpt lat="37.168397" lon="-3.426039">
        <ele>1743.73100455686</ele>
        <time>2018-07-14T09:45:34.009Z</time>
      </trkpt>
      <trkpt lat="37.168386" lon="-3.425976">
        <ele>1743</ele>
        <time>2018-07-14T09:45:38.009Z</time>
      </trkpt>
      <trkpt lat="37.168379" lon="-3.425924">
        <ele>1743</ele>
        <time>2018-07-14T09:45:41.009Z</time>
      </trkpt>
      <trkpt lat="37.168366" lon="-3.425864">
        <ele>1743</ele>
        <time>2018-07-14T09:45:45.009Z</time>
      </trkpt>
      <trkpt lat="37.168364" lon="-3.425803">
        <ele>1743</ele>
        <time>2018-07-14T09:45:49.009Z</time>
      </trkpt>
      <trkpt lat="37.168377" lon="-3.425738">
        <ele>1743.73100455686</ele>
        <time>2018-07-14T09:45:54.009Z</time>
      </trkpt>
      <trkpt lat="37.168381" lon="-3.425685">
        <ele>1743</ele>
        <time>2018-07-14T09:45:58.009Z</time>
      </trkpt>
      <trkpt lat="37.168389" lon="-3.42562">
        <ele>1743</ele>
        <time>2018-07-14T09:46:03.009Z</time>
      </trkpt>
      <trkpt lat="37.168399" lon="-3.42555">
        <ele>1743</ele>
        <time>2018-07-14T09:46:09.009Z</time>
      </trkpt>
      <trkpt lat="37.168391" lon="-3.425478">
        <ele>1744</ele>
        <time>2018-07-14T09:46:15.009Z</time>
      </trkpt>
      <trkpt lat="37.168396" lon="-3.425421">
        <ele>1745</ele>
        <time>2018-07-14T09:46:21.009Z</time>
      </trkpt>
      <trkpt lat="37.168405" lon="-3.425354">
        <ele>1746</ele>
        <time>2018-07-14T09:46:27.009Z</time>
      </trkpt>
      <trkpt lat="37.16841" lon="-3.425289">
        <ele>1746</ele>
        <time>2018-07-14T09:46:34.009Z</time>
      </trkpt>
      <trkpt lat="37.168413" lon="-3.42522">
        <ele>1746</ele>
        <time>2018-07-14T09:46:41.009Z</time>
      </trkpt>
      <trkpt lat="37.168419" lon="-3.425166">
        <ele>1747.26899544314</ele>
        <time>2018-07-14T09:46:46.009Z</time>
      </trkpt>
      <trkpt lat="37.168429" lon="-3.425094">
        <ele>1748</ele>
        <time>2018-07-14T09:46:53.009Z</time>
      </trkpt>
      <trkpt lat="37.168436" lon="-3.425038">
        <ele>1749</ele>
        <time>2018-07-14T09:46:58.009Z</time>
      </trkpt>
      <trkpt lat="37.168435" lon="-3.424976">
        <ele>1749</ele>
        <time>2018-07-14T09:47:04.009Z</time>
      </trkpt>
      <trkpt lat="37.168432" lon="-3.42491">
        <ele>1750</ele>
        <time>2018-07-14T09:47:10.009Z</time>
      </trkpt>
      <trkpt lat="37.168446" lon="-3.424849">
        <ele>1751</ele>
        <time>2018-07-14T09:47:15.009Z</time>
      </trkpt>
      <trkpt lat="37.168455" lon="-3.424777">
        <ele>1751.26900135678</ele>
        <time>2018-07-14T09:47:21.009Z</time>
      </trkpt>
      <trkpt lat="37.168466" lon="-3.424715">
        <ele>1752</ele>
        <time>2018-07-14T09:47:26.009Z</time>
      </trkpt>
      <trkpt lat="37.168481" lon="-3.424661">
        <ele>1753</ele>
        <time>2018-07-14T09:47:32.009Z</time>
      </trkpt>
      <trkpt lat="37.168489" lon="-3.424591">
        <ele>1754</ele>
        <time>2018-07-14T09:47:39.009Z</time>
      </trkpt>
      <trkpt lat="37.168491" lon="-3.424537">
        <ele>1755.26899544314</ele>
        <time>2018-07-14T09:47:44.009Z</time>
      </trkpt>
      <trkpt lat="37.168487" lon="-3.424471">
        <ele>1755.73100455686</ele>
        <time>2018-07-14T09:47:50.009Z</time>
      </trkpt>
      <trkpt lat="37.168485" lon="-3.4244">
        <ele>1756</ele>
        <time>2018-07-14T09:47:56.009Z</time>
      </trkpt>
      <trkpt lat="37.168488" lon="-3.424337">
        <ele>1756</ele>
        <time>2018-07-14T09:48:01.009Z</time>
      </trkpt>
      <trkpt lat="37.168499" lon="-3.424273">
        <ele>1757.26900135678</ele>
        <time>2018-07-14T09:48:07.009Z</time>
      </trkpt>
      <trkpt lat="37.168501" lon="-3.424201">
        <ele>1759</ele>
        <time>2018-07-14T09:48:13.009Z</time>
      </trkpt>
      <trkpt lat="37.168513" lon="-3.424139">
        <ele>1759</ele>
        <time>2018-07-14T09:48:18.009Z</time>
      </trkpt>
      <trkpt lat="37.168512" lon="-3.424077">
        <ele>1760</ele>
        <time>2018-07-14T09:48:23.009Z</time>
      </trkpt>
      <trkpt lat="37.168505" lon="-3.424017">
        <ele>1761</ele>
        <time>2018-07-14T09:48:28.009Z</time>
      </trkpt>
      <trkpt lat="37.168503" lon="-3.423952">
        <ele>1761</ele>
        <time>2018-07-14T09:48:34.009Z</time>
      </trkpt>
      <trkpt lat="37.168504" lon="-3.423889">
        <ele>1762</ele>
        <time>2018-07-14T09:48:40.009Z</time>
      </trkpt>
      <trkpt lat="37.16851" lon="-3.42382">
        <ele>1764</ele>
        <time>2018-07-14T09:48:47.009Z</time>
      </trkpt>
      <trkpt lat="37.168518" lon="-3.423746">
        <ele>1764</ele>
        <time>2018-07-14T09:48:53.009Z</time>
      </trkpt>
      <trkpt lat="37.168523" lon="-3.423679">
        <ele>1765</ele>
        <time>2018-07-14T09:48:59.009Z</time>
      </trkpt>
      <trkpt lat="37.168531" lon="-3.423611">
        <ele>1767</ele>
        <time>2018-07-14T09:49:06.009Z</time>
      </trkpt>
      <trkpt lat="37.168545" lon="-3.423541">
        <ele>1768</ele>
        <time>2018-07-14T09:49:12.009Z</time>
      </trkpt>
      <trkpt lat="37.168546" lon="-3.423449">
        <ele>1770</ele>
        <time>2018-07-14T09:49:21.009Z</time>
      </trkpt>
      <trkpt lat="37.168559" lon="-3.423381">
        <ele>1771</ele>
        <time>2018-07-14T09:49:28.009Z</time>
      </trkpt>
      <trkpt lat="37.168566" lon="-3.423312">
        <ele>1772</ele>
        <time>2018-07-14T09:49:36.009Z</time>
      </trkpt>
      <trkpt lat="37.168565" lon="-3.42325">
        <ele>1773</ele>
        <time>2018-07-14T09:49:43.009Z</time>
      </trkpt>
      <trkpt lat="37.168577" lon="-3.42318">
        <ele>1774.73099864322</ele>
        <time>2018-07-14T09:49:51.009Z</time>
      </trkpt>
      <trkpt lat="37.168576" lon="-3.42312">
        <ele>1775.26900135678</ele>
        <time>2018-07-14T09:49:57.009Z</time>
      </trkpt>
      <trkpt lat="37.168568" lon="-3.42305">
        <ele>1777</ele>
        <time>2018-07-14T09:50:05.009Z</time>
      </trkpt>
      <trkpt lat="37.168572" lon="-3.422982">
        <ele>1778</ele>
        <time>2018-07-14T09:50:12.009Z</time>
      </trkpt>
      <trkpt lat="37.168568" lon="-3.42291">
        <ele>1780</ele>
        <time>2018-07-14T09:50:19.009Z</time>
      </trkpt>
      <trkpt lat="37.168568" lon="-3.42284">
        <ele>1780.26899544314</ele>
        <time>2018-07-14T09:50:26.009Z</time>
      </trkpt>
      <trkpt lat="37.168569" lon="-3.422744">
        <ele>1783</ele>
        <time>2018-07-14T09:50:34.009Z</time>
      </trkpt>
      <trkpt lat="37.168572" lon="-3.422682">
        <ele>1783.26899544314</ele>
        <time>2018-07-14T09:50:40.009Z</time>
      </trkpt>
      <trkpt lat="37.168585" lon="-3.422628">
        <ele>1785</ele>
        <time>2018-07-14T09:50:46.009Z</time>
      </trkpt>
      <trkpt lat="37.168591" lon="-3.422566">
        <ele>1786</ele>
        <time>2018-07-14T09:50:53.009Z</time>
      </trkpt>
      <trkpt lat="37.168596" lon="-3.422508">
        <ele>1786</ele>
        <time>2018-07-14T09:50:59.009Z</time>
      </trkpt>
      <trkpt lat="37.168618" lon="-3.422446">
        <ele>1788</ele>
        <time>2018-07-14T09:51:06.009Z</time>
      </trkpt>
      <trkpt lat="37.168626" lon="-3.422385">
        <ele>1790</ele>
        <time>2018-07-14T09:51:14.009Z</time>
      </trkpt>
      <trkpt lat="37.168603" lon="-3.422289">
        <ele>1790</ele>
        <time>2018-07-14T09:51:28.009Z</time>
      </trkpt>
      <trkpt lat="37.1686" lon="-3.422209">
        <ele>1792</ele>
        <time>2018-07-14T09:51:37.009Z</time>
      </trkpt>
      <trkpt lat="37.1686" lon="-3.42211">
        <ele>1793</ele>
        <time>2018-07-14T09:51:47.009Z</time>
      </trkpt>
      <trkpt lat="37.168602" lon="-3.42201">
        <ele>1796</ele>
        <time>2018-07-14T09:52:00.009Z</time>
      </trkpt>
      <trkpt lat="37.168595" lon="-3.421913">
        <ele>1797.26900135678</ele>
        <time>2018-07-14T09:52:11.009Z</time>
      </trkpt>
      <trkpt lat="37.168616" lon="-3.421823">
        <ele>1800</ele>
        <time>2018-07-14T09:52:22.009Z</time>
      </trkpt>
      <trkpt lat="37.16861" lon="-3.421748">
        <ele>1801</ele>
        <time>2018-07-14T09:52:32.009Z</time>
      </trkpt>
      <trkpt lat="37.168601" lon="-3.421679">
        <ele>1803</ele>
        <time>2018-07-14T09:52:41.009Z</time>
      </trkpt>
      <trkpt lat="37.168595" lon="-3.421588">
        <ele>1805</ele>
        <time>2018-07-14T09:52:51.009Z</time>
      </trkpt>
      <trkpt lat="37.168583" lon="-3.421503">
        <ele>1806</ele>
        <time>2018-07-14T09:52:59.009Z</time>
      </trkpt>
      <trkpt lat="37.168586" lon="-3.421409">
        <ele>1808</ele>
        <time>2018-07-14T09:53:07.009Z</time>
      </trkpt>
      <trkpt lat="37.168579" lon="-3.421346">
        <ele>1809</ele>
        <time>2018-07-14T09:53:14.009Z</time>
      </trkpt>
      <trkpt lat="37.168556" lon="-3.421278">
        <ele>1810</ele>
        <time>2018-07-14T09:53:23.009Z</time>
      </trkpt>
      <trkpt lat="37.168524" lon="-3.421218">
        <ele>1811</ele>
        <time>2018-07-14T09:53:31.009Z</time>
      </trkpt>
      <trkpt lat="37.168509" lon="-3.421145">
        <ele>1812</ele>
        <time>2018-07-14T09:53:39.009Z</time>
      </trkpt>
      <trkpt lat="37.168505" lon="-3.421049">
        <ele>1814</ele>
        <time>2018-07-14T09:53:49.009Z</time>
      </trkpt>
      <trkpt lat="37.168509" lon="-3.420956">
        <ele>1816.26161384999</ele>
        <time>2018-07-14T09:54:00.009Z</time>
      </trkpt>
      <trkpt lat="37.168521" lon="-3.420874">
        <ele>1818</ele>
        <time>2018-07-14T09:54:08.009Z</time>
      </trkpt>
      <trkpt lat="37.168513" lon="-3.420796">
        <ele>1820</ele>
        <time>2018-07-14T09:54:16.009Z</time>
      </trkpt>
      <trkpt lat="37.168511" lon="-3.420728">
        <ele>1821</ele>
        <time>2018-07-14T09:54:23.009Z</time>
      </trkpt>
      <trkpt lat="37.168527" lon="-3.420652">
        <ele>1822.26899544314</ele>
        <time>2018-07-14T09:54:32.009Z</time>
      </trkpt>
      <trkpt lat="37.168529" lon="-3.42057">
        <ele>1825</ele>
        <time>2018-07-14T09:54:41.009Z</time>
      </trkpt>
      <trkpt lat="37.168537" lon="-3.42049">
        <ele>1827</ele>
        <time>2018-07-14T09:54:50.009Z</time>
      </trkpt>
      <trkpt lat="37.168542" lon="-3.420416">
        <ele>1828</ele>
        <time>2018-07-14T09:55:00.009Z</time>
      </trkpt>
      <trkpt lat="37.16854" lon="-3.420341">
        <ele>1828</ele>
        <time>2018-07-14T09:55:09.009Z</time>
      </trkpt>
      <trkpt lat="37.168531" lon="-3.420275">
        <ele>1829</ele>
        <time>2018-07-14T09:55:16.009Z</time>
      </trkpt>
      <trkpt lat="37.168526" lon="-3.420201">
        <ele>1831</ele>
        <time>2018-07-14T09:55:23.009Z</time>
      </trkpt>
      <trkpt lat="37.168532" lon="-3.42012">
        <ele>1833</ele>
        <time>2018-07-14T09:55:30.009Z</time>
      </trkpt>
      <trkpt lat="37.168537" lon="-3.420035">
        <ele>1834.26900135678</ele>
        <time>2018-07-14T09:55:37.009Z</time>
      </trkpt>
      <trkpt lat="37.168567" lon="-3.419945">
        <ele>1836</ele>
        <time>2018-07-14T09:55:44.009Z</time>
      </trkpt>
      <trkpt lat="37.168586" lon="-3.419863">
        <ele>1837</ele>
        <time>2018-07-14T09:55:51.009Z</time>
      </trkpt>
      <trkpt lat="37.168609" lon="-3.419781">
        <ele>1839</ele>
        <time>2018-07-14T09:55:59.009Z</time>
      </trkpt>
      <trkpt lat="37.168629" lon="-3.419701">
        <ele>1839.26161046752</ele>
        <time>2018-07-14T09:56:05.009Z</time>
      </trkpt>
      <trkpt lat="37.168655" lon="-3.419611">
        <ele>1840.26899544314</ele>
        <time>2018-07-14T09:56:12.009Z</time>
      </trkpt>
      <trkpt lat="37.168659" lon="-3.419531">
        <ele>1841</ele>
        <time>2018-07-14T09:56:18.009Z</time>
      </trkpt>
      <trkpt lat="37.168657" lon="-3.419441">
        <ele>1842.26900135678</ele>
        <time>2018-07-14T09:56:25.009Z</time>
      </trkpt>
      <trkpt lat="37.168655" lon="-3.419357">
        <ele>1843.26900135678</ele>
        <time>2018-07-14T09:56:31.009Z</time>
      </trkpt>
      <trkpt lat="37.168647" lon="-3.419288">
        <ele>1843.26899544314</ele>
        <time>2018-07-14T09:56:36.009Z</time>
      </trkpt>
      <trkpt lat="37.168639" lon="-3.419222">
        <ele>1844</ele>
        <time>2018-07-14T09:56:42.009Z</time>
      </trkpt>
      <trkpt lat="37.168619" lon="-3.419153">
        <ele>1845</ele>
        <time>2018-07-14T09:56:47.009Z</time>
      </trkpt>
      <trkpt lat="37.168588" lon="-3.419075">
        <ele>1845</ele>
        <time>2018-07-14T09:56:54.009Z</time>
      </trkpt>
      <trkpt lat="37.168562" lon="-3.418995">
        <ele>1846</ele>
        <time>2018-07-14T09:57:01.009Z</time>
      </trkpt>
      <trkpt lat="37.168544" lon="-3.418919">
        <ele>1847</ele>
        <time>2018-07-14T09:57:07.009Z</time>
      </trkpt>
      <trkpt lat="37.16853" lon="-3.41884">
        <ele>1848</ele>
        <time>2018-07-14T09:57:14.009Z</time>
      </trkpt>
      <trkpt lat="37.168542" lon="-3.418768">
        <ele>1849.26899544314</ele>
        <time>2018-07-14T09:57:20.009Z</time>
      </trkpt>
      <trkpt lat="37.168559" lon="-3.418706">
        <ele>1850</ele>
        <time>2018-07-14T09:57:25.009Z</time>
      </trkpt>
      <trkpt lat="37.168567" lon="-3.418625">
        <ele>1851</ele>
        <time>2018-07-14T09:57:32.009Z</time>
      </trkpt>
      <trkpt lat="37.168587" lon="-3.418545">
        <ele>1851</ele>
        <time>2018-07-14T09:57:38.009Z</time>
      </trkpt>
      <trkpt lat="37.168604" lon="-3.418456">
        <ele>1851</ele>
        <time>2018-07-14T09:57:45.009Z</time>
      </trkpt>
      <trkpt lat="37.168613" lon="-3.418374">
        <ele>1852</ele>
        <time>2018-07-14T09:57:50.009Z</time>
      </trkpt>
      <trkpt lat="37.168614" lon="-3.418301">
        <ele>1851</ele>
        <time>2018-07-14T09:57:54.009Z</time>
      </trkpt>
      <trkpt lat="37.168581" lon="-3.418244">
        <ele>1850</ele>
        <time>2018-07-14T09:57:58.009Z</time>
      </trkpt>
      <trkpt lat="37.168564" lon="-3.418188">
        <ele>1850</ele>
        <time>2018-07-14T09:58:02.009Z</time>
      </trkpt>
      <trkpt lat="37.168556" lon="-3.41813">
        <ele>1850.26900135678</ele>
        <time>2018-07-14T09:58:07.009Z</time>
      </trkpt>
      <trkpt lat="37.168569" lon="-3.41804">
        <ele>1850.26899544314</ele>
        <time>2018-07-14T09:58:14.009Z</time>
      </trkpt>
      <trkpt lat="37.168587" lon="-3.417965">
        <ele>1851</ele>
        <time>2018-07-14T09:58:19.009Z</time>
      </trkpt>
      <trkpt lat="37.168603" lon="-3.417877">
        <ele>1851</ele>
        <time>2018-07-14T09:58:25.009Z</time>
      </trkpt>
      <trkpt lat="37.168625" lon="-3.417794">
        <ele>1851</ele>
        <time>2018-07-14T09:58:31.009Z</time>
      </trkpt>
      <trkpt lat="37.168645" lon="-3.417715">
        <ele>1851</ele>
        <time>2018-07-14T09:58:37.009Z</time>
      </trkpt>
      <trkpt lat="37.168672" lon="-3.417627">
        <ele>1850</ele>
        <time>2018-07-14T09:58:43.009Z</time>
      </trkpt>
      <trkpt lat="37.168701" lon="-3.417557">
        <ele>1851</ele>
        <time>2018-07-14T09:58:48.009Z</time>
      </trkpt>
      <trkpt lat="37.168739" lon="-3.417489">
        <ele>1851</ele>
        <time>2018-07-14T09:58:53.009Z</time>
      </trkpt>
      <trkpt lat="37.168765" lon="-3.417414">
        <ele>1851</ele>
        <time>2018-07-14T09:58:59.009Z</time>
      </trkpt>
      <trkpt lat="37.168774" lon="-3.417347">
        <ele>1852</ele>
        <time>2018-07-14T09:59:04.009Z</time>
      </trkpt>
      <trkpt lat="37.168783" lon="-3.417283">
        <ele>1853</ele>
        <time>2018-07-14T09:59:09.009Z</time>
      </trkpt>
      <trkpt lat="37.168792" lon="-3.417209">
        <ele>1853</ele>
        <time>2018-07-14T09:59:14.009Z</time>
      </trkpt>
      <trkpt lat="37.168797" lon="-3.41714">
        <ele>1854</ele>
        <time>2018-07-14T09:59:19.009Z</time>
      </trkpt>
      <trkpt lat="37.168811" lon="-3.417063">
        <ele>1855</ele>
        <time>2018-07-14T09:59:25.009Z</time>
      </trkpt>
      <trkpt lat="37.168831" lon="-3.41698">
        <ele>1855</ele>
        <time>2018-07-14T09:59:31.009Z</time>
      </trkpt>
      <trkpt lat="37.168852" lon="-3.416904">
        <ele>1856</ele>
        <time>2018-07-14T09:59:37.009Z</time>
      </trkpt>
      <trkpt lat="37.168867" lon="-3.416831">
        <ele>1856.26899544314</ele>
        <time>2018-07-14T09:59:42.009Z</time>
      </trkpt>
      <trkpt lat="37.168871" lon="-3.416758">
        <ele>1857</ele>
        <time>2018-07-14T09:59:47.009Z</time>
      </trkpt>
      <trkpt lat="37.168876" lon="-3.416678">
        <ele>1857.26899544314</ele>
        <time>2018-07-14T09:59:52.009Z</time>
      </trkpt>
      <trkpt lat="37.16888" lon="-3.416607">
        <ele>1858</ele>
        <time>2018-07-14T09:59:57.009Z</time>
      </trkpt>
      <trkpt lat="37.16889" lon="-3.416538">
        <ele>1858</ele>
        <time>2018-07-14T10:00:02.009Z</time>
      </trkpt>
      <trkpt lat="37.168892" lon="-3.416466">
        <ele>1858</ele>
        <time>2018-07-14T10:00:07.009Z</time>
      </trkpt>
      <trkpt lat="37.168876" lon="-3.41639">
        <ele>1858</ele>
        <time>2018-07-14T10:00:11.009Z</time>
      </trkpt>
      <trkpt lat="37.168847" lon="-3.416314">
        <ele>1858</ele>
        <time>2018-07-14T10:00:14.009Z</time>
      </trkpt>
      <trkpt lat="37.16881" lon="-3.416234">
        <ele>1858</ele>
        <time>2018-07-14T10:00:17.009Z</time>
      </trkpt>
      <trkpt lat="37.168784" lon="-3.41615">
        <ele>1857.26632955669</ele>
        <time>2018-07-14T10:00:20.009Z</time>
      </trkpt>
      <trkpt lat="37.168784" lon="-3.416038">
        <ele>1858</ele>
        <time>2018-07-14T10:00:24.009Z</time>
      </trkpt>
      <trkpt lat="37.168792" lon="-3.415946">
        <ele>1858</ele>
        <time>2018-07-14T10:00:27.009Z</time>
      </trkpt>
      <trkpt lat="37.168792" lon="-3.415854">
        <ele>1858</ele>
        <time>2018-07-14T10:00:30.009Z</time>
      </trkpt>
      <trkpt lat="37.168786" lon="-3.415742">
        <ele>1858</ele>
        <time>2018-07-14T10:00:34.009Z</time>
      </trkpt>
      <trkpt lat="37.168792" lon="-3.415626">
        <ele>1858</ele>
        <time>2018-07-14T10:00:38.009Z</time>
      </trkpt>
      <trkpt lat="37.168804" lon="-3.415492">
        <ele>1857.73099864322</ele>
        <time>2018-07-14T10:00:43.009Z</time>
      </trkpt>
      <trkpt lat="37.168866" lon="-3.415386">
        <ele>1857</ele>
        <time>2018-07-14T10:00:48.009Z</time>
      </trkpt>
      <trkpt lat="37.168964" lon="-3.415334">
        <ele>1856.73100455686</ele>
        <time>2018-07-14T10:00:56.009Z</time>
      </trkpt>
      <trkpt lat="37.169025" lon="-3.415291">
        <ele>1856</ele>
        <time>2018-07-14T10:01:02.009Z</time>
      </trkpt>
      <trkpt lat="37.169084" lon="-3.41524">
        <ele>1855.73100455686</ele>
        <time>2018-07-14T10:01:06.009Z</time>
      </trkpt>
      <trkpt lat="37.169146" lon="-3.415154">
        <ele>1855</ele>
        <time>2018-07-14T10:01:10.009Z</time>
      </trkpt>
      <trkpt lat="37.169182" lon="-3.415051">
        <ele>1854</ele>
        <time>2018-07-14T10:01:15.009Z</time>
      </trkpt>
      <trkpt lat="37.169241" lon="-3.414959">
        <ele>1854</ele>
        <time>2018-07-14T10:01:24.009Z</time>
      </trkpt>
      <trkpt lat="37.16929" lon="-3.414893">
        <ele>1854.26900135678</ele>
        <time>2018-07-14T10:01:31.009Z</time>
      </trkpt>
      <trkpt lat="37.169346" lon="-3.414833">
        <ele>1855</ele>
        <time>2018-07-14T10:01:38.009Z</time>
      </trkpt>
      <trkpt lat="37.169387" lon="-3.414766">
        <ele>1857</ele>
        <time>2018-07-14T10:01:45.009Z</time>
      </trkpt>
      <trkpt lat="37.169424" lon="-3.4147">
        <ele>1858</ele>
        <time>2018-07-14T10:01:52.009Z</time>
      </trkpt>
      <trkpt lat="37.169467" lon="-3.414623">
        <ele>1858</ele>
        <time>2018-07-14T10:02:00.009Z</time>
      </trkpt>
      <trkpt lat="37.169495" lon="-3.414553">
        <ele>1859</ele>
        <time>2018-07-14T10:02:06.009Z</time>
      </trkpt>
      <trkpt lat="37.169531" lon="-3.414474">
        <ele>1858</ele>
        <time>2018-07-14T10:02:12.009Z</time>
      </trkpt>
      <trkpt lat="37.169565" lon="-3.414398">
        <ele>1857</ele>
        <time>2018-07-14T10:02:17.009Z</time>
      </trkpt>
      <trkpt lat="37.169601" lon="-3.414327">
        <ele>1858</ele>
        <time>2018-07-14T10:02:22.009Z</time>
      </trkpt>
      <trkpt lat="37.169646" lon="-3.414221">
        <ele>1857</ele>
        <time>2018-07-14T10:02:31.009Z</time>
      </trkpt>
      <trkpt lat="37.169669" lon="-3.414154">
        <ele>1856</ele>
        <time>2018-07-14T10:02:35.009Z</time>
      </trkpt>
      <trkpt lat="37.169684" lon="-3.414084">
        <ele>1854.73100455686</ele>
        <time>2018-07-14T10:02:40.009Z</time>
      </trkpt>
      <trkpt lat="37.169717" lon="-3.414015">
        <ele>1854</ele>
        <time>2018-07-14T10:02:48.009Z</time>
      </trkpt>
      <trkpt lat="37.169734" lon="-3.413947">
        <ele>1853</ele>
        <time>2018-07-14T10:02:53.009Z</time>
      </trkpt>
      <trkpt lat="37.169736" lon="-3.413862">
        <ele>1852</ele>
        <time>2018-07-14T10:02:59.009Z</time>
      </trkpt>
      <trkpt lat="37.169747" lon="-3.413786">
        <ele>1851.913744</ele>
        <time>2018-07-14T10:03:04.009Z</time>
      </trkpt>
      <trkpt lat="37.169753" lon="-3.413724">
        <ele>1851</ele>
        <time>2018-07-14T10:03:08.009Z</time>
      </trkpt>
      <trkpt lat="37.169762" lon="-3.413667">
        <ele>1850</ele>
        <time>2018-07-14T10:03:12.009Z</time>
      </trkpt>
      <trkpt lat="37.169778" lon="-3.413592">
        <ele>1848.73100455686</ele>
        <time>2018-07-14T10:03:18.009Z</time>
      </trkpt>
      <trkpt lat="37.169843" lon="-3.413495">
        <ele>1846.73100455686</ele>
        <time>2018-07-14T10:03:26.009Z</time>
      </trkpt>
      <trkpt lat="37.169855" lon="-3.413362">
        <ele>1845</ele>
        <time>2018-07-14T10:03:32.009Z</time>
      </trkpt>
      <trkpt lat="37.169839" lon="-3.413221">
        <ele>1844</ele>
        <time>2018-07-14T10:03:37.009Z</time>
      </trkpt>
      <trkpt lat="37.169845" lon="-3.413093">
        <ele>1842</ele>
        <time>2018-07-14T10:03:43.009Z</time>
      </trkpt>
      <trkpt lat="37.169816" lon="-3.412973">
        <ele>1839.73100455686</ele>
        <time>2018-07-14T10:03:54.009Z</time>
      </trkpt>
      <trkpt lat="37.169809" lon="-3.41284">
        <ele>1835.73100455686</ele>
        <time>2018-07-14T10:04:06.009Z</time>
      </trkpt>
      <trkpt lat="37.169806" lon="-3.412722">
        <ele>1834</ele>
        <time>2018-07-14T10:04:13.009Z</time>
      </trkpt>
      <trkpt lat="37.169839" lon="-3.412601">
        <ele>1832</ele>
        <time>2018-07-14T10:04:21.009Z</time>
      </trkpt>
      <trkpt lat="37.169861" lon="-3.412479">
        <ele>1830.73099864322</ele>
        <time>2018-07-14T10:04:29.009Z</time>
      </trkpt>
      <trkpt lat="37.169827" lon="-3.412354">
        <ele>1827.73627145869</ele>
        <time>2018-07-14T10:04:39.009Z</time>
      </trkpt>
      <trkpt lat="37.169805" lon="-3.41222">
        <ele>1823</ele>
        <time>2018-07-14T10:04:51.009Z</time>
      </trkpt>
      <trkpt lat="37.169767" lon="-3.41209">
        <ele>1821</ele>
        <time>2018-07-14T10:04:57.009Z</time>
      </trkpt>
      <trkpt lat="37.169732" lon="-3.411967">
        <ele>1821</ele>
        <time>2018-07-14T10:05:02.009Z</time>
      </trkpt>
      <trkpt lat="37.169739" lon="-3.411864">
        <ele>1820</ele>
        <time>2018-07-14T10:05:08.009Z</time>
      </trkpt>
      <trkpt lat="37.169765" lon="-3.411794">
        <ele>1818</ele>
        <time>2018-07-14T10:05:16.009Z</time>
      </trkpt>
      <trkpt lat="37.169789" lon="-3.411726">
        <ele>1816</ele>
        <time>2018-07-14T10:05:22.009Z</time>
      </trkpt>
      <trkpt lat="37.16982" lon="-3.411592">
        <ele>1813.73100455686</ele>
        <time>2018-07-14T10:05:32.009Z</time>
      </trkpt>
      <trkpt lat="37.169809" lon="-3.411516">
        <ele>1811.73099864322</ele>
        <time>2018-07-14T10:05:41.009Z</time>
      </trkpt>
      <trkpt lat="37.169796" lon="-3.411457">
        <ele>1810</ele>
        <time>2018-07-14T10:05:46.009Z</time>
      </trkpt>
      <trkpt lat="37.169812" lon="-3.411384">
        <ele>1806</ele>
        <time>2018-07-14T10:05:57.009Z</time>
      </trkpt>
      <trkpt lat="37.169776" lon="-3.411331">
        <ele>1804</ele>
        <time>2018-07-14T10:06:08.009Z</time>
      </trkpt>
      <trkpt lat="37.169845" lon="-3.411252">
        <ele>1803</ele>
        <time>2018-07-14T10:06:14.009Z</time>
      </trkpt>
      <trkpt lat="37.169892" lon="-3.411163">
        <ele>1802</ele>
        <time>2018-07-14T10:06:18.009Z</time>
      </trkpt>
      <trkpt lat="37.169938" lon="-3.411086">
        <ele>1801</ele>
        <time>2018-07-14T10:06:21.009Z</time>
      </trkpt>
      <trkpt lat="37.170004" lon="-3.410984">
        <ele>1800.73099864322</ele>
        <time>2018-07-14T10:06:25.009Z</time>
      </trkpt>
      <trkpt lat="37.170039" lon="-3.410919">
        <ele>1800</ele>
        <time>2018-07-14T10:06:29.009Z</time>
      </trkpt>
      <trkpt lat="37.170114" lon="-3.410887">
        <ele>1797</ele>
        <time>2018-07-14T10:06:37.009Z</time>
      </trkpt>
      <trkpt lat="37.170187" lon="-3.410814">
        <ele>1797</ele>
        <time>2018-07-14T10:06:45.009Z</time>
      </trkpt>
      <trkpt lat="37.170254" lon="-3.410743">
        <ele>1796</ele>
        <time>2018-07-14T10:06:50.009Z</time>
      </trkpt>
      <trkpt lat="37.170307" lon="-3.410686">
        <ele>1796</ele>
        <time>2018-07-14T10:06:53.009Z</time>
      </trkpt>
      <trkpt lat="37.170395" lon="-3.41061">
        <ele>1795.73100455686</ele>
        <time>2018-07-14T10:06:58.009Z</time>
      </trkpt>
      <trkpt lat="37.170486" lon="-3.410548">
        <ele>1794</ele>
        <time>2018-07-14T10:07:06.009Z</time>
      </trkpt>
      <trkpt lat="37.17057" lon="-3.410473">
        <ele>1794</ele>
        <time>2018-07-14T10:07:10.009Z</time>
      </trkpt>
      <trkpt lat="37.170655" lon="-3.410402">
        <ele>1793</ele>
        <time>2018-07-14T10:07:14.009Z</time>
      </trkpt>
      <trkpt lat="37.17072" lon="-3.41033">
        <ele>1793</ele>
        <time>2018-07-14T10:07:17.009Z</time>
      </trkpt>
      <trkpt lat="37.170794" lon="-3.410243">
        <ele>1793.73099864322</ele>
        <time>2018-07-14T10:07:21.009Z</time>
      </trkpt>
      <trkpt lat="37.170866" lon="-3.410151">
        <ele>1793</ele>
        <time>2018-07-14T10:07:25.009Z</time>
      </trkpt>
      <trkpt lat="37.17093" lon="-3.410063">
        <ele>1793</ele>
        <time>2018-07-14T10:07:29.009Z</time>
      </trkpt>
      <trkpt lat="37.170988" lon="-3.409966">
        <ele>1793</ele>
        <time>2018-07-14T10:07:33.009Z</time>
      </trkpt>
      <trkpt lat="37.17102" lon="-3.409858">
        <ele>1791.73100455686</ele>
        <time>2018-07-14T10:07:38.009Z</time>
      </trkpt>
      <trkpt lat="37.171062" lon="-3.409781">
        <ele>1791</ele>
        <time>2018-07-14T10:07:45.009Z</time>
      </trkpt>
      <trkpt lat="37.171082" lon="-3.409704">
        <ele>1791</ele>
        <time>2018-07-14T10:07:51.009Z</time>
      </trkpt>
      <trkpt lat="37.171088" lon="-3.409624">
        <ele>1790</ele>
        <time>2018-07-14T10:07:56.009Z</time>
      </trkpt>
      <trkpt lat="37.1711" lon="-3.409532">
        <ele>1790</ele>
        <time>2018-07-14T10:08:01.009Z</time>
      </trkpt>
      <trkpt lat="37.17112" lon="-3.409433">
        <ele>1790</ele>
        <time>2018-07-14T10:08:05.009Z</time>
      </trkpt>
      <trkpt lat="37.171142" lon="-3.409327">
        <ele>1790</ele>
        <time>2018-07-14T10:08:09.009Z</time>
      </trkpt>
      <trkpt lat="37.17117" lon="-3.409217">
        <ele>1790</ele>
        <time>2018-07-14T10:08:13.009Z</time>
      </trkpt>
      <trkpt lat="37.171202" lon="-3.409103">
        <ele>1790</ele>
        <time>2018-07-14T10:08:17.009Z</time>
      </trkpt>
      <trkpt lat="37.171233" lon="-3.408982">
        <ele>1790</ele>
        <time>2018-07-14T10:08:21.009Z</time>
      </trkpt>
      <trkpt lat="37.17127" lon="-3.408865">
        <ele>1789</ele>
        <time>2018-07-14T10:08:25.009Z</time>
      </trkpt>
      <trkpt lat="37.171299" lon="-3.408749">
        <ele>1789</ele>
        <time>2018-07-14T10:08:29.009Z</time>
      </trkpt>
      <trkpt lat="37.171331" lon="-3.408625">
        <ele>1789</ele>
        <time>2018-07-14T10:08:33.009Z</time>
      </trkpt>
      <trkpt lat="37.171369" lon="-3.408515">
        <ele>1789</ele>
        <time>2018-07-14T10:08:37.009Z</time>
      </trkpt>
      <trkpt lat="37.17141" lon="-3.408396">
        <ele>1789</ele>
        <time>2018-07-14T10:08:41.009Z</time>
      </trkpt>
      <trkpt lat="37.171451" lon="-3.408283">
        <ele>1789</ele>
        <time>2018-07-14T10:08:45.009Z</time>
      </trkpt>
      <trkpt lat="37.171474" lon="-3.408169">
        <ele>1789</ele>
        <time>2018-07-14T10:08:49.009Z</time>
      </trkpt>
      <trkpt lat="37.171505" lon="-3.408046">
        <ele>1788</ele>
        <time>2018-07-14T10:08:53.009Z</time>
      </trkpt>
      <trkpt lat="37.171527" lon="-3.407924">
        <ele>1787.73099864322</ele>
        <time>2018-07-14T10:08:57.009Z</time>
      </trkpt>
      <trkpt lat="37.171558" lon="-3.407806">
        <ele>1786.73099864322</ele>
        <time>2018-07-14T10:09:01.009Z</time>
      </trkpt>
      <trkpt lat="37.171596" lon="-3.407693">
        <ele>1786</ele>
        <time>2018-07-14T10:09:05.009Z</time>
      </trkpt>
      <trkpt lat="37.17164" lon="-3.407587">
        <ele>1785</ele>
        <time>2018-07-14T10:09:09.009Z</time>
      </trkpt>
      <trkpt lat="37.17168" lon="-3.407492">
        <ele>1785</ele>
        <time>2018-07-14T10:09:13.009Z</time>
      </trkpt>
      <trkpt lat="37.171694" lon="-3.407401">
        <ele>1783.73100455686</ele>
        <time>2018-07-14T10:09:18.009Z</time>
      </trkpt>
      <trkpt lat="37.1717" lon="-3.407327">
        <ele>1782</ele>
        <time>2018-07-14T10:09:23.009Z</time>
      </trkpt>
      <trkpt lat="37.171726" lon="-3.407263">
        <ele>1780.73838953248</ele>
        <time>2018-07-14T10:09:29.009Z</time>
      </trkpt>
      <trkpt lat="37.171744" lon="-3.407197">
        <ele>1780</ele>
        <time>2018-07-14T10:09:34.009Z</time>
      </trkpt>
      <trkpt lat="37.171766" lon="-3.407142">
        <ele>1780</ele>
        <time>2018-07-14T10:09:38.009Z</time>
      </trkpt>
      <trkpt lat="37.171786" lon="-3.407057">
        <ele>1778</ele>
        <time>2018-07-14T10:09:44.009Z</time>
      </trkpt>
      <trkpt lat="37.171792" lon="-3.407">
        <ele>1777.73099864322</ele>
        <time>2018-07-14T10:09:49.009Z</time>
      </trkpt>
      <trkpt lat="37.171816" lon="-3.40694">
        <ele>1776</ele>
        <time>2018-07-14T10:09:53.009Z</time>
      </trkpt>
      <trkpt lat="37.17185" lon="-3.40688">
        <ele>1775</ele>
        <time>2018-07-14T10:09:57.009Z</time>
      </trkpt>
      <trkpt lat="37.171882" lon="-3.406817">
        <ele>1774.73099864322</ele>
        <time>2018-07-14T10:10:01.009Z</time>
      </trkpt>
      <trkpt lat="37.171909" lon="-3.406759">
        <ele>1773</ele>
        <time>2018-07-14T10:10:05.009Z</time>
      </trkpt>
      <trkpt lat="37.171946" lon="-3.4067">
        <ele>1772</ele>
        <time>2018-07-14T10:10:10.009Z</time>
      </trkpt>
      <trkpt lat="37.171986" lon="-3.406651">
        <ele>1770.73099864322</ele>
        <time>2018-07-14T10:10:15.009Z</time>
      </trkpt>
      <trkpt lat="37.172027" lon="-3.406599">
        <ele>1769</ele>
        <time>2018-07-14T10:10:20.009Z</time>
      </trkpt>
      <trkpt lat="37.172063" lon="-3.406541">
        <ele>1769</ele>
        <time>2018-07-14T10:10:23.009Z</time>
      </trkpt>
      <trkpt lat="37.172098" lon="-3.406495">
        <ele>1768</ele>
        <time>2018-07-14T10:10:25.009Z</time>
      </trkpt>
      <trkpt lat="37.172148" lon="-3.406432">
        <ele>1767.73100455686</ele>
        <time>2018-07-14T10:10:28.009Z</time>
      </trkpt>
      <trkpt lat="37.172197" lon="-3.406374">
        <ele>1767</ele>
        <time>2018-07-14T10:10:31.009Z</time>
      </trkpt>
      <trkpt lat="37.172218" lon="-3.406297">
        <ele>1765.7336611454</ele>
        <time>2018-07-14T10:10:35.009Z</time>
      </trkpt>
      <trkpt lat="37.172234" lon="-3.406226">
        <ele>1765</ele>
        <time>2018-07-14T10:10:40.009Z</time>
      </trkpt>
      <trkpt lat="37.172252" lon="-3.40616">
        <ele>1764</ele>
        <time>2018-07-14T10:10:45.009Z</time>
      </trkpt>
      <trkpt lat="37.17223" lon="-3.406096">
        <ele>1763</ele>
        <time>2018-07-14T10:10:50.009Z</time>
      </trkpt>
      <trkpt lat="37.172192" lon="-3.40605">
        <ele>1763</ele>
        <time>2018-07-14T10:10:55.009Z</time>
      </trkpt>
      <trkpt lat="37.172144" lon="-3.405987">
        <ele>1762</ele>
        <time>2018-07-14T10:10:59.009Z</time>
      </trkpt>
      <trkpt lat="37.172087" lon="-3.405929">
        <ele>1762</ele>
        <time>2018-07-14T10:11:02.009Z</time>
      </trkpt>
      <trkpt lat="37.172022" lon="-3.405856">
        <ele>1761</ele>
        <time>2018-07-14T10:11:06.009Z</time>
      </trkpt>
      <trkpt lat="37.171954" lon="-3.40578">
        <ele>1760.26899544314</ele>
        <time>2018-07-14T10:11:12.009Z</time>
      </trkpt>
      <trkpt lat="37.171911" lon="-3.405711">
        <ele>1761</ele>
        <time>2018-07-14T10:11:19.009Z</time>
      </trkpt>
      <trkpt lat="37.171883" lon="-3.405637">
        <ele>1760</ele>
        <time>2018-07-14T10:11:25.009Z</time>
      </trkpt>
      <trkpt lat="37.171835" lon="-3.405554">
        <ele>1760</ele>
        <time>2018-07-14T10:11:32.009Z</time>
      </trkpt>
      <trkpt lat="37.171806" lon="-3.405488">
        <ele>1760</ele>
        <time>2018-07-14T10:11:37.009Z</time>
      </trkpt>
      <trkpt lat="37.171749" lon="-3.405416">
        <ele>1760</ele>
        <time>2018-07-14T10:11:43.009Z</time>
      </trkpt>
      <trkpt lat="37.171717" lon="-3.40535">
        <ele>1760</ele>
        <time>2018-07-14T10:11:48.009Z</time>
      </trkpt>
      <trkpt lat="37.171694" lon="-3.405315">
        <ele>1759</ele>
        <time>2018-07-14T10:11:51.009Z</time>
      </trkpt>
      <trkpt lat="37.17167" lon="-3.405277">
        <ele>1759</ele>
        <time>2018-07-14T10:11:54.009Z</time>
      </trkpt>
      <trkpt lat="37.171651" lon="-3.405237">
        <ele>1759</ele>
        <time>2018-07-14T10:11:57.009Z</time>
      </trkpt>
      <trkpt lat="37.171638" lon="-3.405197">
        <ele>1758</ele>
        <time>2018-07-14T10:12:00.009Z</time>
      </trkpt>
      <trkpt lat="37.171623" lon="-3.405147">
        <ele>1758</ele>
        <time>2018-07-14T10:12:03.009Z</time>
      </trkpt>
      <trkpt lat="37.171607" lon="-3.405101">
        <ele>1758</ele>
        <time>2018-07-14T10:12:06.009Z</time>
      </trkpt>
      <trkpt lat="37.171593" lon="-3.405057">
        <ele>1758</ele>
        <time>2018-07-14T10:12:09.009Z</time>
      </trkpt>
      <trkpt lat="37.171576" lon="-3.405008">
        <ele>1757.73100455686</ele>
        <time>2018-07-14T10:12:12.009Z</time>
      </trkpt>
      <trkpt lat="37.171576" lon="-3.404959">
        <ele>1757.26900135678</ele>
        <time>2018-07-14T10:12:15.009Z</time>
      </trkpt>
      <trkpt lat="37.171576" lon="-3.40491">
        <ele>1758.26899544314</ele>
        <time>2018-07-14T10:12:18.009Z</time>
      </trkpt>
      <trkpt lat="37.17158" lon="-3.404866">
        <ele>1759</ele>
        <time>2018-07-14T10:12:21.009Z</time>
      </trkpt>
      <trkpt lat="37.171582" lon="-3.404821">
        <ele>1759.26899544314</ele>
        <time>2018-07-14T10:12:24.009Z</time>
      </trkpt>
      <trkpt lat="37.171577" lon="-3.40477">
        <ele>1760</ele>
        <time>2018-07-14T10:12:27.009Z</time>
      </trkpt>
      <trkpt lat="37.171584" lon="-3.404724">
        <ele>1760</ele>
        <time>2018-07-14T10:12:30.009Z</time>
      </trkpt>
      <trkpt lat="37.171595" lon="-3.404681">
        <ele>1761</ele>
        <time>2018-07-14T10:12:34.009Z</time>
      </trkpt>
      <trkpt lat="37.171606" lon="-3.404641">
        <ele>1760</ele>
        <time>2018-07-14T10:12:37.009Z</time>
      </trkpt>
      <trkpt lat="37.171607" lon="-3.404605">
        <ele>1760</ele>
        <time>2018-07-14T10:12:39.009Z</time>
      </trkpt>
      <trkpt lat="37.171608" lon="-3.404556">
        <ele>1760.73100455686</ele>
        <time>2018-07-14T10:12:42.009Z</time>
      </trkpt>
      <trkpt lat="37.171612" lon="-3.404504">
        <ele>1761</ele>
        <time>2018-07-14T10:12:46.009Z</time>
      </trkpt>
      <trkpt lat="37.17162" lon="-3.40446">
        <ele>1761.26900135678</ele>
        <time>2018-07-14T10:12:49.009Z</time>
      </trkpt>
      <trkpt lat="37.171623" lon="-3.40441">
        <ele>1762</ele>
        <time>2018-07-14T10:12:52.009Z</time>
      </trkpt>
      <trkpt lat="37.171624" lon="-3.404364">
        <ele>1762</ele>
        <time>2018-07-14T10:12:55.009Z</time>
      </trkpt>
      <trkpt lat="37.171624" lon="-3.404317">
        <ele>1761</ele>
        <time>2018-07-14T10:12:58.009Z</time>
      </trkpt>
      <trkpt lat="37.171626" lon="-3.404272">
        <ele>1761.26161046752</ele>
        <time>2018-07-14T10:13:01.009Z</time>
      </trkpt>
      <trkpt lat="37.171625" lon="-3.404226">
        <ele>1761</ele>
        <time>2018-07-14T10:13:04.009Z</time>
      </trkpt>
      <trkpt lat="37.171627" lon="-3.404192">
        <ele>1761</ele>
        <time>2018-07-14T10:13:06.009Z</time>
      </trkpt>
      <trkpt lat="37.171623" lon="-3.404138">
        <ele>1761</ele>
        <time>2018-07-14T10:13:09.009Z</time>
      </trkpt>
      <trkpt lat="37.17162" lon="-3.404102">
        <ele>1761</ele>
        <time>2018-07-14T10:13:11.009Z</time>
      </trkpt>
      <trkpt lat="37.171624" lon="-3.404056">
        <ele>1762</ele>
        <time>2018-07-14T10:13:14.009Z</time>
      </trkpt>
      <trkpt lat="37.171635" lon="-3.404004">
        <ele>1762</ele>
        <time>2018-07-14T10:13:17.009Z</time>
      </trkpt>
      <trkpt lat="37.171641" lon="-3.403954">
        <ele>1762</ele>
        <time>2018-07-14T10:13:20.009Z</time>
      </trkpt>
      <trkpt lat="37.171647" lon="-3.403902">
        <ele>1762</ele>
        <time>2018-07-14T10:13:23.009Z</time>
      </trkpt>
      <trkpt lat="37.171652" lon="-3.403856">
        <ele>1763</ele>
        <time>2018-07-14T10:13:26.009Z</time>
      </trkpt>
      <trkpt lat="37.171665" lon="-3.403804">
        <ele>1763</ele>
        <time>2018-07-14T10:13:29.009Z</time>
      </trkpt>
      <trkpt lat="37.171673" lon="-3.403758">
        <ele>1763</ele>
        <time>2018-07-14T10:13:32.009Z</time>
      </trkpt>
      <trkpt lat="37.171683" lon="-3.403708">
        <ele>1763</ele>
        <time>2018-07-14T10:13:35.009Z</time>
      </trkpt>
      <trkpt lat="37.1717" lon="-3.403666">
        <ele>1763</ele>
        <time>2018-07-14T10:13:38.009Z</time>
      </trkpt>
      <trkpt lat="37.171713" lon="-3.403624">
        <ele>1763</ele>
        <time>2018-07-14T10:13:41.009Z</time>
      </trkpt>
      <trkpt lat="37.171726" lon="-3.40358">
        <ele>1763</ele>
        <time>2018-07-14T10:13:44.009Z</time>
      </trkpt>
      <trkpt lat="37.171743" lon="-3.403542">
        <ele>1763</ele>
        <time>2018-07-14T10:13:47.009Z</time>
      </trkpt>
      <trkpt lat="37.171759" lon="-3.4035">
        <ele>1763</ele>
        <time>2018-07-14T10:13:50.009Z</time>
      </trkpt>
      <trkpt lat="37.171781" lon="-3.403456">
        <ele>1763</ele>
        <time>2018-07-14T10:13:53.009Z</time>
      </trkpt>
      <trkpt lat="37.171795" lon="-3.40341">
        <ele>1764</ele>
        <time>2018-07-14T10:13:56.009Z</time>
      </trkpt>
      <trkpt lat="37.171796" lon="-3.40337">
        <ele>1764</ele>
        <time>2018-07-14T10:13:59.009Z</time>
      </trkpt>
      <trkpt lat="37.171797" lon="-3.403323">
        <ele>1764</ele>
        <time>2018-07-14T10:14:02.009Z</time>
      </trkpt>
      <trkpt lat="37.171802" lon="-3.403274">
        <ele>1764</ele>
        <time>2018-07-14T10:14:05.009Z</time>
      </trkpt>
      <trkpt lat="37.171814" lon="-3.403232">
        <ele>1765</ele>
        <time>2018-07-14T10:14:08.009Z</time>
      </trkpt>
      <trkpt lat="37.171826" lon="-3.403184">
        <ele>1765</ele>
        <time>2018-07-14T10:14:11.009Z</time>
      </trkpt>
      <trkpt lat="37.171836" lon="-3.403139">
        <ele>1765</ele>
        <time>2018-07-14T10:14:14.009Z</time>
      </trkpt>
      <trkpt lat="37.171848" lon="-3.403092">
        <ele>1765</ele>
        <time>2018-07-14T10:14:17.009Z</time>
      </trkpt>
      <trkpt lat="37.171869" lon="-3.403049">
        <ele>1765</ele>
        <time>2018-07-14T10:14:20.009Z</time>
      </trkpt>
      <trkpt lat="37.171885" lon="-3.402999">
        <ele>1764</ele>
        <time>2018-07-14T10:14:23.009Z</time>
      </trkpt>
      <trkpt lat="37.171902" lon="-3.402954">
        <ele>1764</ele>
        <time>2018-07-14T10:14:26.009Z</time>
      </trkpt>
      <trkpt lat="37.171918" lon="-3.402906">
        <ele>1764</ele>
        <time>2018-07-14T10:14:29.009Z</time>
      </trkpt>
      <trkpt lat="37.171936" lon="-3.402863">
        <ele>1764</ele>
        <time>2018-07-14T10:14:32.009Z</time>
      </trkpt>
      <trkpt lat="37.171964" lon="-3.402827">
        <ele>1764</ele>
        <time>2018-07-14T10:14:35.009Z</time>
      </trkpt>
      <trkpt lat="37.172002" lon="-3.402791">
        <ele>1764</ele>
        <time>2018-07-14T10:14:38.009Z</time>
      </trkpt>
      <trkpt lat="37.172018" lon="-3.402758">
        <ele>1764</ele>
        <time>2018-07-14T10:14:40.009Z</time>
      </trkpt>
      <trkpt lat="37.172036" lon="-3.40271">
        <ele>1765</ele>
        <time>2018-07-14T10:14:43.009Z</time>
      </trkpt>
      <trkpt lat="37.172052" lon="-3.402662">
        <ele>1765</ele>
        <time>2018-07-14T10:14:46.009Z</time>
      </trkpt>
      <trkpt lat="37.172062" lon="-3.402613">
        <ele>1765</ele>
        <time>2018-07-14T10:14:49.009Z</time>
      </trkpt>
      <trkpt lat="37.17206" lon="-3.402579">
        <ele>1765</ele>
        <time>2018-07-14T10:14:51.009Z</time>
      </trkpt>
      <trkpt lat="37.172056" lon="-3.402538">
        <ele>1765</ele>
        <time>2018-07-14T10:14:53.009Z</time>
      </trkpt>
      <trkpt lat="37.172056" lon="-3.402482">
        <ele>1764.73099864322</ele>
        <time>2018-07-14T10:14:55.009Z</time>
      </trkpt>
      <trkpt lat="37.172058" lon="-3.402417">
        <ele>1764</ele>
        <time>2018-07-14T10:14:57.009Z</time>
      </trkpt>
      <trkpt lat="37.17206" lon="-3.40235">
        <ele>1764</ele>
        <time>2018-07-14T10:14:59.009Z</time>
      </trkpt>
      <trkpt lat="37.172062" lon="-3.402287">
        <ele>1764</ele>
        <time>2018-07-14T10:15:01.009Z</time>
      </trkpt>
      <trkpt lat="37.17209" lon="-3.402195">
        <ele>1764</ele>
        <time>2018-07-14T10:15:05.009Z</time>
      </trkpt>
      <trkpt lat="37.172128" lon="-3.402109">
        <ele>1764</ele>
        <time>2018-07-14T10:15:08.009Z</time>
      </trkpt>
      <trkpt lat="37.17215" lon="-3.40202">
        <ele>1764</ele>
        <time>2018-07-14T10:15:11.009Z</time>
      </trkpt>
      <trkpt lat="37.172166" lon="-3.401923">
        <ele>1763</ele>
        <time>2018-07-14T10:15:14.009Z</time>
      </trkpt>
      <trkpt lat="37.172166" lon="-3.401823">
        <ele>1763</ele>
        <time>2018-07-14T10:15:17.009Z</time>
      </trkpt>
      <trkpt lat="37.172172" lon="-3.401733">
        <ele>1764</ele>
        <time>2018-07-14T10:15:20.009Z</time>
      </trkpt>
      <trkpt lat="37.172196" lon="-3.401644">
        <ele>1763</ele>
        <time>2018-07-14T10:15:23.009Z</time>
      </trkpt>
      <trkpt lat="37.172214" lon="-3.401559">
        <ele>1763</ele>
        <time>2018-07-14T10:15:26.009Z</time>
      </trkpt>
      <trkpt lat="37.17223" lon="-3.401467">
        <ele>1763</ele>
        <time>2018-07-14T10:15:30.009Z</time>
      </trkpt>
      <trkpt lat="37.172266" lon="-3.401395">
        <ele>1763</ele>
        <time>2018-07-14T10:15:34.009Z</time>
      </trkpt>
      <trkpt lat="37.172288" lon="-3.401329">
        <ele>1762</ele>
        <time>2018-07-14T10:15:38.009Z</time>
      </trkpt>
      <trkpt lat="37.172298" lon="-3.401264">
        <ele>1762</ele>
        <time>2018-07-14T10:15:41.009Z</time>
      </trkpt>
      <trkpt lat="37.172306" lon="-3.401208">
        <ele>1761.73100455686</ele>
        <time>2018-07-14T10:15:44.009Z</time>
      </trkpt>
      <trkpt lat="37.172312" lon="-3.401156">
        <ele>1761</ele>
        <time>2018-07-14T10:15:47.009Z</time>
      </trkpt>
      <trkpt lat="37.172316" lon="-3.401109">
        <ele>1761</ele>
        <time>2018-07-14T10:15:50.009Z</time>
      </trkpt>
      <trkpt lat="37.17232" lon="-3.40106">
        <ele>1760</ele>
        <time>2018-07-14T10:15:53.009Z</time>
      </trkpt>
      <trkpt lat="37.172322" lon="-3.401014">
        <ele>1760</ele>
        <time>2018-07-14T10:15:56.009Z</time>
      </trkpt>
      <trkpt lat="37.17232" lon="-3.400965">
        <ele>1759.73099864322</ele>
        <time>2018-07-14T10:15:59.009Z</time>
      </trkpt>
      <trkpt lat="37.172309" lon="-3.4009">
        <ele>1758</ele>
        <time>2018-07-14T10:16:03.009Z</time>
      </trkpt>
      <trkpt lat="37.172314" lon="-3.400851">
        <ele>1758</ele>
        <time>2018-07-14T10:16:06.009Z</time>
      </trkpt>
      <trkpt lat="37.17232" lon="-3.400804">
        <ele>1757</ele>
        <time>2018-07-14T10:16:09.009Z</time>
      </trkpt>
      <trkpt lat="37.172332" lon="-3.400769">
        <ele>1757</ele>
        <time>2018-07-14T10:16:11.009Z</time>
      </trkpt>
      <trkpt lat="37.172356" lon="-3.400725">
        <ele>1756</ele>
        <time>2018-07-14T10:16:14.009Z</time>
      </trkpt>
      <trkpt lat="37.172374" lon="-3.400674">
        <ele>1755.7336611454</ele>
        <time>2018-07-14T10:16:17.009Z</time>
      </trkpt>
      <trkpt lat="37.172378" lon="-3.400623">
        <ele>1755</ele>
        <time>2018-07-14T10:16:20.009Z</time>
      </trkpt>
      <trkpt lat="37.172393" lon="-3.400577">
        <ele>1755</ele>
        <time>2018-07-14T10:16:23.009Z</time>
      </trkpt>
      <trkpt lat="37.172411" lon="-3.400538">
        <ele>1754</ele>
        <time>2018-07-14T10:16:26.009Z</time>
      </trkpt>
      <trkpt lat="37.172443" lon="-3.400487">
        <ele>1754</ele>
        <time>2018-07-14T10:16:30.009Z</time>
      </trkpt>
      <trkpt lat="37.17247" lon="-3.400443">
        <ele>1754</ele>
        <time>2018-07-14T10:16:33.009Z</time>
      </trkpt>
      <trkpt lat="37.172494" lon="-3.400412">
        <ele>1754</ele>
        <time>2018-07-14T10:16:36.009Z</time>
      </trkpt>
      <trkpt lat="37.172516" lon="-3.400379">
        <ele>1753.73099864322</ele>
        <time>2018-07-14T10:16:39.009Z</time>
      </trkpt>
      <trkpt lat="37.172534" lon="-3.400336">
        <ele>1753</ele>
        <time>2018-07-14T10:16:42.009Z</time>
      </trkpt>
      <trkpt lat="37.172549" lon="-3.400297">
        <ele>1752</ele>
        <time>2018-07-14T10:16:45.009Z</time>
      </trkpt>
      <trkpt lat="37.172556" lon="-3.400259">
        <ele>1752</ele>
        <time>2018-07-14T10:16:47.009Z</time>
      </trkpt>
      <trkpt lat="37.172566" lon="-3.400221">
        <ele>1752</ele>
        <time>2018-07-14T10:16:49.009Z</time>
      </trkpt>
      <trkpt lat="37.172579" lon="-3.400184">
        <ele>1751</ele>
        <time>2018-07-14T10:16:51.009Z</time>
      </trkpt>
      <trkpt lat="37.172593" lon="-3.40014">
        <ele>1750</ele>
        <time>2018-07-14T10:16:54.009Z</time>
      </trkpt>
      <trkpt lat="37.172614" lon="-3.400087">
        <ele>1750</ele>
        <time>2018-07-14T10:16:57.009Z</time>
      </trkpt>
      <trkpt lat="37.172626" lon="-3.400043">
        <ele>1750</ele>
        <time>2018-07-14T10:17:00.009Z</time>
      </trkpt>
      <trkpt lat="37.172651" lon="-3.399998">
        <ele>1750</ele>
        <time>2018-07-14T10:17:04.009Z</time>
      </trkpt>
      <trkpt lat="37.172662" lon="-3.399947">
        <ele>1749</ele>
        <time>2018-07-14T10:17:07.009Z</time>
      </trkpt>
      <trkpt lat="37.172669" lon="-3.3999">
        <ele>1749</ele>
        <time>2018-07-14T10:17:10.009Z</time>
      </trkpt>
      <trkpt lat="37.172685" lon="-3.399858">
        <ele>1748.73099864322</ele>
        <time>2018-07-14T10:17:13.009Z</time>
      </trkpt>
      <trkpt lat="37.172697" lon="-3.399819">
        <ele>1748</ele>
        <time>2018-07-14T10:17:16.009Z</time>
      </trkpt>
      <trkpt lat="37.172711" lon="-3.399772">
        <ele>1747</ele>
        <time>2018-07-14T10:17:20.009Z</time>
      </trkpt>
      <trkpt lat="37.172728" lon="-3.399737">
        <ele>1747</ele>
        <time>2018-07-14T10:17:23.009Z</time>
      </trkpt>
      <trkpt lat="37.172749" lon="-3.399698">
        <ele>1747</ele>
        <time>2018-07-14T10:17:26.009Z</time>
      </trkpt>
      <trkpt lat="37.17277" lon="-3.399659">
        <ele>1747</ele>
        <time>2018-07-14T10:17:29.009Z</time>
      </trkpt>
      <trkpt lat="37.172776" lon="-3.399618">
        <ele>1747</ele>
        <time>2018-07-14T10:17:32.009Z</time>
      </trkpt>
      <trkpt lat="37.172794" lon="-3.399566">
        <ele>1745.73100455686</ele>
        <time>2018-07-14T10:17:36.009Z</time>
      </trkpt>
      <trkpt lat="37.172813" lon="-3.399532">
        <ele>1744.73099864322</ele>
        <time>2018-07-14T10:17:39.009Z</time>
      </trkpt>
      <trkpt lat="37.172825" lon="-3.399487">
        <ele>1743.73100455686</ele>
        <time>2018-07-14T10:17:42.009Z</time>
      </trkpt>
      <trkpt lat="37.172829" lon="-3.399442">
        <ele>1742.73099864322</ele>
        <time>2018-07-14T10:17:45.009Z</time>
      </trkpt>
      <trkpt lat="37.172849" lon="-3.399369">
        <ele>1741</ele>
        <time>2018-07-14T10:17:51.009Z</time>
      </trkpt>
      <trkpt lat="37.17285" lon="-3.399309">
        <ele>1739</ele>
        <time>2018-07-14T10:17:56.009Z</time>
      </trkpt>
      <trkpt lat="37.172853" lon="-3.399248">
        <ele>1738</ele>
        <time>2018-07-14T10:18:00.009Z</time>
      </trkpt>
      <trkpt lat="37.172869" lon="-3.399199">
        <ele>1737</ele>
        <time>2018-07-14T10:18:04.009Z</time>
      </trkpt>
      <trkpt lat="37.17289" lon="-3.399132">
        <ele>1736.73100455686</ele>
        <time>2018-07-14T10:18:08.009Z</time>
      </trkpt>
      <trkpt lat="37.172901" lon="-3.399053">
        <ele>1735.73100455686</ele>
        <time>2018-07-14T10:18:12.009Z</time>
      </trkpt>
      <trkpt lat="37.172898" lon="-3.398992">
        <ele>1735</ele>
        <time>2018-07-14T10:18:15.009Z</time>
      </trkpt>
      <trkpt lat="37.172901" lon="-3.398924">
        <ele>1734</ele>
        <time>2018-07-14T10:18:18.009Z</time>
      </trkpt>
      <trkpt lat="37.172919" lon="-3.398853">
        <ele>1733.73100455686</ele>
        <time>2018-07-14T10:18:22.009Z</time>
      </trkpt>
      <trkpt lat="37.172932" lon="-3.398784">
        <ele>1732</ele>
        <time>2018-07-14T10:18:27.009Z</time>
      </trkpt>
      <trkpt lat="37.172945" lon="-3.398745">
        <ele>1731</ele>
        <time>2018-07-14T10:18:30.009Z</time>
      </trkpt>
      <trkpt lat="37.172958" lon="-3.398698">
        <ele>1729.73099864322</ele>
        <time>2018-07-14T10:18:33.009Z</time>
      </trkpt>
      <trkpt lat="37.172948" lon="-3.398623">
        <ele>1728</ele>
        <time>2018-07-14T10:18:38.009Z</time>
      </trkpt>
      <trkpt lat="37.172934" lon="-3.398536">
        <ele>1727</ele>
        <time>2018-07-14T10:18:42.009Z</time>
      </trkpt>
      <trkpt lat="37.172932" lon="-3.398455">
        <ele>1726</ele>
        <time>2018-07-14T10:18:45.009Z</time>
      </trkpt>
      <trkpt lat="37.17295" lon="-3.398366">
        <ele>1725</ele>
        <time>2018-07-14T10:18:48.009Z</time>
      </trkpt>
      <trkpt lat="37.172964" lon="-3.398272">
        <ele>1724.73099864322</ele>
        <time>2018-07-14T10:18:51.009Z</time>
      </trkpt>
      <trkpt lat="37.172981" lon="-3.398185">
        <ele>1721.73099864322</ele>
        <time>2018-07-14T10:18:55.009Z</time>
      </trkpt>
      <trkpt lat="37.173002" lon="-3.398135">
        <ele>1720.73099864322</ele>
        <time>2018-07-14T10:18:59.009Z</time>
      </trkpt>
      <trkpt lat="37.17298" lon="-3.39808">
        <ele>1720</ele>
        <time>2018-07-14T10:19:02.009Z</time>
      </trkpt>
      <trkpt lat="37.17297" lon="-3.398025">
        <ele>1719</ele>
        <time>2018-07-14T10:19:05.009Z</time>
      </trkpt>
      <trkpt lat="37.172982" lon="-3.397965">
        <ele>1718.73100455686</ele>
        <time>2018-07-14T10:19:08.009Z</time>
      </trkpt>
      <trkpt lat="37.17298" lon="-3.397909">
        <ele>1718</ele>
        <time>2018-07-14T10:19:10.009Z</time>
      </trkpt>
      <trkpt lat="37.17298" lon="-3.397846">
        <ele>1718</ele>
        <time>2018-07-14T10:19:12.009Z</time>
      </trkpt>
      <trkpt lat="37.172974" lon="-3.397779">
        <ele>1718</ele>
        <time>2018-07-14T10:19:14.009Z</time>
      </trkpt>
      <trkpt lat="37.172968" lon="-3.397708">
        <ele>1718</ele>
        <time>2018-07-14T10:19:16.009Z</time>
      </trkpt>
      <trkpt lat="37.17295" lon="-3.397645">
        <ele>1718</ele>
        <time>2018-07-14T10:19:18.009Z</time>
      </trkpt>
      <trkpt lat="37.172913" lon="-3.397603">
        <ele>1718</ele>
        <time>2018-07-14T10:19:20.009Z</time>
      </trkpt>
      <trkpt lat="37.172862" lon="-3.397579">
        <ele>1717.73100455686</ele>
        <time>2018-07-14T10:19:22.009Z</time>
      </trkpt>
      <trkpt lat="37.172814" lon="-3.397567">
        <ele>1716</ele>
        <time>2018-07-14T10:19:24.009Z</time>
      </trkpt>
      <trkpt lat="37.172756" lon="-3.397608">
        <ele>1714</ele>
        <time>2018-07-14T10:19:27.009Z</time>
      </trkpt>
      <trkpt lat="37.172728" lon="-3.397672">
        <ele>1713</ele>
        <time>2018-07-14T10:19:29.009Z</time>
      </trkpt>
      <trkpt lat="37.172698" lon="-3.397735">
        <ele>1712</ele>
        <time>2018-07-14T10:19:31.009Z</time>
      </trkpt>
      <trkpt lat="37.172668" lon="-3.397797">
        <ele>1712</ele>
        <time>2018-07-14T10:19:33.009Z</time>
      </trkpt>
      <trkpt lat="37.172648" lon="-3.39786">
        <ele>1712</ele>
        <time>2018-07-14T10:19:35.009Z</time>
      </trkpt>
      <trkpt lat="37.172632" lon="-3.397922">
        <ele>1711</ele>
        <time>2018-07-14T10:19:37.009Z</time>
      </trkpt>
      <trkpt lat="37.172615" lon="-3.397981">
        <ele>1710.73099864322</ele>
        <time>2018-07-14T10:19:39.009Z</time>
      </trkpt>
      <trkpt lat="37.172592" lon="-3.398039">
        <ele>1710</ele>
        <time>2018-07-14T10:19:41.009Z</time>
      </trkpt>
      <trkpt lat="37.172558" lon="-3.398091">
        <ele>1709.73099864322</ele>
        <time>2018-07-14T10:19:43.009Z</time>
      </trkpt>
      <trkpt lat="37.172516" lon="-3.398132">
        <ele>1709</ele>
        <time>2018-07-14T10:19:45.009Z</time>
      </trkpt>
      <trkpt lat="37.172462" lon="-3.398193">
        <ele>1708.73100455686</ele>
        <time>2018-07-14T10:19:48.009Z</time>
      </trkpt>
      <trkpt lat="37.172412" lon="-3.398246">
        <ele>1707.73099864322</ele>
        <time>2018-07-14T10:19:51.009Z</time>
      </trkpt>
      <trkpt lat="37.17236" lon="-3.398295">
        <ele>1707</ele>
        <time>2018-07-14T10:19:54.009Z</time>
      </trkpt>
      <trkpt lat="37.172312" lon="-3.39833">
        <ele>1706</ele>
        <time>2018-07-14T10:19:56.009Z</time>
      </trkpt>
      <trkpt lat="37.172264" lon="-3.398358">
        <ele>1706</ele>
        <time>2018-07-14T10:19:58.009Z</time>
      </trkpt>
      <trkpt lat="37.172212" lon="-3.398378">
        <ele>1705.73100455686</ele>
        <time>2018-07-14T10:20:00.009Z</time>
      </trkpt>
      <trkpt lat="37.172162" lon="-3.398399">
        <ele>1705</ele>
        <time>2018-07-14T10:20:02.009Z</time>
      </trkpt>
      <trkpt lat="37.17211" lon="-3.398457">
        <ele>1704</ele>
        <time>2018-07-14T10:20:05.009Z</time>
      </trkpt>
      <trkpt lat="37.172062" lon="-3.398511">
        <ele>1703</ele>
        <time>2018-07-14T10:20:08.009Z</time>
      </trkpt>
      <trkpt lat="37.172008" lon="-3.398559">
        <ele>1702.73099864322</ele>
        <time>2018-07-14T10:20:11.009Z</time>
      </trkpt>
      <trkpt lat="37.171968" lon="-3.398606">
        <ele>1701.73100455686</ele>
        <time>2018-07-14T10:20:14.009Z</time>
      </trkpt>
      <trkpt lat="37.171918" lon="-3.398642">
        <ele>1700.73100455686</ele>
        <time>2018-07-14T10:20:18.009Z</time>
      </trkpt>
      <trkpt lat="37.171876" lon="-3.398673">
        <ele>1700</ele>
        <time>2018-07-14T10:20:22.009Z</time>
      </trkpt>
      <trkpt lat="37.171826" lon="-3.398719">
        <ele>1698.73099864322</ele>
        <time>2018-07-14T10:20:25.009Z</time>
      </trkpt>
      <trkpt lat="37.171785" lon="-3.398754">
        <ele>1697.73100455686</ele>
        <time>2018-07-14T10:20:28.009Z</time>
      </trkpt>
      <trkpt lat="37.171732" lon="-3.398798">
        <ele>1696.73099864322</ele>
        <time>2018-07-14T10:20:31.009Z</time>
      </trkpt>
      <trkpt lat="37.171692" lon="-3.398835">
        <ele>1696</ele>
        <time>2018-07-14T10:20:33.009Z</time>
      </trkpt>
      <trkpt lat="37.171632" lon="-3.398897">
        <ele>1695.73100455686</ele>
        <time>2018-07-14T10:20:36.009Z</time>
      </trkpt>
      <trkpt lat="37.171592" lon="-3.398941">
        <ele>1695</ele>
        <time>2018-07-14T10:20:38.009Z</time>
      </trkpt>
      <trkpt lat="37.171532" lon="-3.398974">
        <ele>1694.7336611454</ele>
        <time>2018-07-14T10:20:41.009Z</time>
      </trkpt>
      <trkpt lat="37.17148" lon="-3.398988">
        <ele>1694</ele>
        <time>2018-07-14T10:20:44.009Z</time>
      </trkpt>
      <trkpt lat="37.171424" lon="-3.398998">
        <ele>1693</ele>
        <time>2018-07-14T10:20:47.009Z</time>
      </trkpt>
      <trkpt lat="37.171362" lon="-3.399053">
        <ele>1693</ele>
        <time>2018-07-14T10:20:50.009Z</time>
      </trkpt>
      <trkpt lat="37.17131" lon="-3.399118">
        <ele>1692</ele>
        <time>2018-07-14T10:20:53.009Z</time>
      </trkpt>
      <trkpt lat="37.171258" lon="-3.399194">
        <ele>1691</ele>
        <time>2018-07-14T10:20:56.009Z</time>
      </trkpt>
      <trkpt lat="37.1712" lon="-3.399271">
        <ele>1690</ele>
        <time>2018-07-14T10:20:59.009Z</time>
      </trkpt>
      <trkpt lat="37.171162" lon="-3.399321">
        <ele>1690</ele>
        <time>2018-07-14T10:21:01.009Z</time>
      </trkpt>
      <trkpt lat="37.171125" lon="-3.399375">
        <ele>1689</ele>
        <time>2018-07-14T10:21:03.009Z</time>
      </trkpt>
      <trkpt lat="37.171095" lon="-3.399427">
        <ele>1689</ele>
        <time>2018-07-14T10:21:05.009Z</time>
      </trkpt>
      <trkpt lat="37.171055" lon="-3.399512">
        <ele>1688</ele>
        <time>2018-07-14T10:21:08.009Z</time>
      </trkpt>
      <trkpt lat="37.171019" lon="-3.399564">
        <ele>1687</ele>
        <time>2018-07-14T10:21:10.009Z</time>
      </trkpt>
      <trkpt lat="37.170983" lon="-3.399612">
        <ele>1686.73100455686</ele>
        <time>2018-07-14T10:21:12.009Z</time>
      </trkpt>
      <trkpt lat="37.17095" lon="-3.399664">
        <ele>1686</ele>
        <time>2018-07-14T10:21:14.009Z</time>
      </trkpt>
      <trkpt lat="37.170913" lon="-3.399742">
        <ele>1685</ele>
        <time>2018-07-14T10:21:17.009Z</time>
      </trkpt>
      <trkpt lat="37.170865" lon="-3.399809">
        <ele>1685</ele>
        <time>2018-07-14T10:21:20.009Z</time>
      </trkpt>
      <trkpt lat="37.170814" lon="-3.399872">
        <ele>1684</ele>
        <time>2018-07-14T10:21:23.009Z</time>
      </trkpt>
      <trkpt lat="37.170771" lon="-3.39992">
        <ele>1683</ele>
        <time>2018-07-14T10:21:25.009Z</time>
      </trkpt>
      <trkpt lat="37.170722" lon="-3.399995">
        <ele>1682.73100455686</ele>
        <time>2018-07-14T10:21:28.009Z</time>
      </trkpt>
      <trkpt lat="37.170681" lon="-3.400067">
        <ele>1681.73099864322</ele>
        <time>2018-07-14T10:21:31.009Z</time>
      </trkpt>
      <trkpt lat="37.170641" lon="-3.400151">
        <ele>1680</ele>
        <time>2018-07-14T10:21:34.009Z</time>
      </trkpt>
      <trkpt lat="37.170602" lon="-3.400233">
        <ele>1679.73099864322</ele>
        <time>2018-07-14T10:21:37.009Z</time>
      </trkpt>
      <trkpt lat="37.170577" lon="-3.400295">
        <ele>1679</ele>
        <time>2018-07-14T10:21:39.009Z</time>
      </trkpt>
      <trkpt lat="37.170556" lon="-3.400359">
        <ele>1678.73099864322</ele>
        <time>2018-07-14T10:21:41.009Z</time>
      </trkpt>
      <trkpt lat="37.170539" lon="-3.400447">
        <ele>1678</ele>
        <time>2018-07-14T10:21:44.009Z</time>
      </trkpt>
      <trkpt lat="37.17051" lon="-3.400522">
        <ele>1677</ele>
        <time>2018-07-14T10:21:47.009Z</time>
      </trkpt>
      <trkpt lat="37.170467" lon="-3.400598">
        <ele>1676</ele>
        <time>2018-07-14T10:21:50.009Z</time>
      </trkpt>
      <trkpt lat="37.170449" lon="-3.400685">
        <ele>1675</ele>
        <time>2018-07-14T10:21:53.009Z</time>
      </trkpt>
      <trkpt lat="37.17042" lon="-3.400749">
        <ele>1674</ele>
        <time>2018-07-14T10:21:56.009Z</time>
      </trkpt>
      <trkpt lat="37.170372" lon="-3.400822">
        <ele>1673.73099864322</ele>
        <time>2018-07-14T10:21:59.009Z</time>
      </trkpt>
      <trkpt lat="37.170319" lon="-3.400891">
        <ele>1673</ele>
        <time>2018-07-14T10:22:02.009Z</time>
      </trkpt>
      <trkpt lat="37.170279" lon="-3.400963">
        <ele>1672</ele>
        <time>2018-07-14T10:22:05.009Z</time>
      </trkpt>
      <trkpt lat="37.170244" lon="-3.40104">
        <ele>1669.73100455686</ele>
        <time>2018-07-14T10:22:08.009Z</time>
      </trkpt>
      <trkpt lat="37.170217" lon="-3.401106">
        <ele>1668</ele>
        <time>2018-07-14T10:22:11.009Z</time>
      </trkpt>
      <trkpt lat="37.170186" lon="-3.401163">
        <ele>1667</ele>
        <time>2018-07-14T10:22:15.009Z</time>
      </trkpt>
      <trkpt lat="37.170159" lon="-3.401236">
        <ele>1666.73099864322</ele>
        <time>2018-07-14T10:22:19.009Z</time>
      </trkpt>
      <trkpt lat="37.17013" lon="-3.401296">
        <ele>1666</ele>
        <time>2018-07-14T10:22:23.009Z</time>
      </trkpt>
      <trkpt lat="37.170104" lon="-3.401357">
        <ele>1666</ele>
        <time>2018-07-14T10:22:27.009Z</time>
      </trkpt>
      <trkpt lat="37.170082" lon="-3.4014">
        <ele>1665</ele>
        <time>2018-07-14T10:22:30.009Z</time>
      </trkpt>
      <trkpt lat="37.170057" lon="-3.401442">
        <ele>1665</ele>
        <time>2018-07-14T10:22:33.009Z</time>
      </trkpt>
      <trkpt lat="37.170038" lon="-3.40149">
        <ele>1665</ele>
        <time>2018-07-14T10:22:36.009Z</time>
      </trkpt>
      <trkpt lat="37.170022" lon="-3.401538">
        <ele>1664</ele>
        <time>2018-07-14T10:22:39.009Z</time>
      </trkpt>
      <trkpt lat="37.17" lon="-3.401581">
        <ele>1663.73100455686</ele>
        <time>2018-07-14T10:22:42.009Z</time>
      </trkpt>
      <trkpt lat="37.169972" lon="-3.401623">
        <ele>1663</ele>
        <time>2018-07-14T10:22:45.009Z</time>
      </trkpt>
      <trkpt lat="37.169947" lon="-3.401665">
        <ele>1662</ele>
        <time>2018-07-14T10:22:48.009Z</time>
      </trkpt>
      <trkpt lat="37.169915" lon="-3.401705">
        <ele>1661.73099864322</ele>
        <time>2018-07-14T10:22:51.009Z</time>
      </trkpt>
      <trkpt lat="37.169884" lon="-3.401748">
        <ele>1660.73100455686</ele>
        <time>2018-07-14T10:22:54.009Z</time>
      </trkpt>
      <trkpt lat="37.169856" lon="-3.401783">
        <ele>1659.73099864322</ele>
        <time>2018-07-14T10:22:57.009Z</time>
      </trkpt>
      <trkpt lat="37.169825" lon="-3.401822">
        <ele>1659</ele>
        <time>2018-07-14T10:23:00.009Z</time>
      </trkpt>
      <trkpt lat="37.169796" lon="-3.401873">
        <ele>1658</ele>
        <time>2018-07-14T10:23:03.009Z</time>
      </trkpt>
      <trkpt lat="37.169773" lon="-3.401925">
        <ele>1657.73100455686</ele>
        <time>2018-07-14T10:23:06.009Z</time>
      </trkpt>
      <trkpt lat="37.169752" lon="-3.40197">
        <ele>1657</ele>
        <time>2018-07-14T10:23:08.009Z</time>
      </trkpt>
      <trkpt lat="37.169725" lon="-3.402025">
        <ele>1657</ele>
        <time>2018-07-14T10:23:10.009Z</time>
      </trkpt>
      <trkpt lat="37.169696" lon="-3.402082">
        <ele>1657</ele>
        <time>2018-07-14T10:23:12.009Z</time>
      </trkpt>
      <trkpt lat="37.169657" lon="-3.402128">
        <ele>1656.73100455686</ele>
        <time>2018-07-14T10:23:14.009Z</time>
      </trkpt>
      <trkpt lat="37.169605" lon="-3.402201">
        <ele>1656</ele>
        <time>2018-07-14T10:23:17.009Z</time>
      </trkpt>
      <trkpt lat="37.169563" lon="-3.402289">
        <ele>1655</ele>
        <time>2018-07-14T10:23:20.009Z</time>
      </trkpt>
      <trkpt lat="37.16951" lon="-3.402362">
        <ele>1655</ele>
        <time>2018-07-14T10:23:23.009Z</time>
      </trkpt>
      <trkpt lat="37.169472" lon="-3.402409">
        <ele>1654</ele>
        <time>2018-07-14T10:23:25.009Z</time>
      </trkpt>
      <trkpt lat="37.169422" lon="-3.402476">
        <ele>1654</ele>
        <time>2018-07-14T10:23:28.009Z</time>
      </trkpt>
      <trkpt lat="37.169365" lon="-3.402545">
        <ele>1653</ele>
        <time>2018-07-14T10:23:31.009Z</time>
      </trkpt>
      <trkpt lat="37.169322" lon="-3.402589">
        <ele>1653</ele>
        <time>2018-07-14T10:23:33.009Z</time>
      </trkpt>
      <trkpt lat="37.169282" lon="-3.402639">
        <ele>1652</ele>
        <time>2018-07-14T10:23:35.009Z</time>
      </trkpt>
      <trkpt lat="37.169231" lon="-3.402702">
        <ele>1652</ele>
        <time>2018-07-14T10:23:38.009Z</time>
      </trkpt>
      <trkpt lat="37.169185" lon="-3.402745">
        <ele>1651</ele>
        <time>2018-07-14T10:23:41.009Z</time>
      </trkpt>
      <trkpt lat="37.169147" lon="-3.402797">
        <ele>1650</ele>
        <time>2018-07-14T10:23:45.009Z</time>
      </trkpt>
      <trkpt lat="37.169115" lon="-3.402843">
        <ele>1649</ele>
        <time>2018-07-14T10:23:48.009Z</time>
      </trkpt>
      <trkpt lat="37.169093" lon="-3.402893">
        <ele>1648</ele>
        <time>2018-07-14T10:23:51.009Z</time>
      </trkpt>
      <trkpt lat="37.169072" lon="-3.402937">
        <ele>1647.73100455686</ele>
        <time>2018-07-14T10:23:54.009Z</time>
      </trkpt>
      <trkpt lat="37.169041" lon="-3.402976">
        <ele>1647</ele>
        <time>2018-07-14T10:23:57.009Z</time>
      </trkpt>
      <trkpt lat="37.169027" lon="-3.403031">
        <ele>1646</ele>
        <time>2018-07-14T10:24:00.009Z</time>
      </trkpt>
      <trkpt lat="37.169026" lon="-3.403088">
        <ele>1645.73099864322</ele>
        <time>2018-07-14T10:24:03.009Z</time>
      </trkpt>
      <trkpt lat="37.169007" lon="-3.403134">
        <ele>1645</ele>
        <time>2018-07-14T10:24:06.009Z</time>
      </trkpt>
      <trkpt lat="37.168996" lon="-3.403206">
        <ele>1644</ele>
        <time>2018-07-14T10:24:09.009Z</time>
      </trkpt>
      <trkpt lat="37.16899" lon="-3.403253">
        <ele>1644</ele>
        <time>2018-07-14T10:24:11.009Z</time>
      </trkpt>
      <trkpt lat="37.168969" lon="-3.403303">
        <ele>1644</ele>
        <time>2018-07-14T10:24:14.009Z</time>
      </trkpt>
      <trkpt lat="37.168939" lon="-3.403352">
        <ele>1643</ele>
        <time>2018-07-14T10:24:17.009Z</time>
      </trkpt>
      <trkpt lat="37.168924" lon="-3.403397">
        <ele>1643</ele>
        <time>2018-07-14T10:24:19.009Z</time>
      </trkpt>
      <trkpt lat="37.168907" lon="-3.403449">
        <ele>1642</ele>
        <time>2018-07-14T10:24:22.009Z</time>
      </trkpt>
      <trkpt lat="37.168863" lon="-3.40349">
        <ele>1641.73099864322</ele>
        <time>2018-07-14T10:24:25.009Z</time>
      </trkpt>
      <trkpt lat="37.168816" lon="-3.403527">
        <ele>1640.73099864322</ele>
        <time>2018-07-14T10:24:27.009Z</time>
      </trkpt>
      <trkpt lat="37.168768" lon="-3.403578">
        <ele>1640</ele>
        <time>2018-07-14T10:24:29.009Z</time>
      </trkpt>
      <trkpt lat="37.168731" lon="-3.403625">
        <ele>1640</ele>
        <time>2018-07-14T10:24:31.009Z</time>
      </trkpt>
      <trkpt lat="37.168705" lon="-3.403681">
        <ele>1640</ele>
        <time>2018-07-14T10:24:34.009Z</time>
      </trkpt>
      <trkpt lat="37.168691" lon="-3.403741">
        <ele>1640</ele>
        <time>2018-07-14T10:24:37.009Z</time>
      </trkpt>
      <trkpt lat="37.168669" lon="-3.403795">
        <ele>1639</ele>
        <time>2018-07-14T10:24:40.009Z</time>
      </trkpt>
      <trkpt lat="37.168654" lon="-3.403854">
        <ele>1639</ele>
        <time>2018-07-14T10:24:43.009Z</time>
      </trkpt>
      <trkpt lat="37.168648" lon="-3.403915">
        <ele>1639</ele>
        <time>2018-07-14T10:24:45.009Z</time>
      </trkpt>
      <trkpt lat="37.168646" lon="-3.403981">
        <ele>1638.73099864322</ele>
        <time>2018-07-14T10:24:47.009Z</time>
      </trkpt>
      <trkpt lat="37.168643" lon="-3.40405">
        <ele>1638</ele>
        <time>2018-07-14T10:24:49.009Z</time>
      </trkpt>
      <trkpt lat="37.168618" lon="-3.404151">
        <ele>1637.73100455686</ele>
        <time>2018-07-14T10:24:52.009Z</time>
      </trkpt>
      <trkpt lat="37.16859" lon="-3.404216">
        <ele>1637</ele>
        <time>2018-07-14T10:24:54.009Z</time>
      </trkpt>
      <trkpt lat="37.168547" lon="-3.404299">
        <ele>1636.73099864322</ele>
        <time>2018-07-14T10:24:57.009Z</time>
      </trkpt>
      <trkpt lat="37.168508" lon="-3.404367">
        <ele>1635.73100455686</ele>
        <time>2018-07-14T10:25:00.009Z</time>
      </trkpt>
      <trkpt lat="37.168454" lon="-3.404439">
        <ele>1635</ele>
        <time>2018-07-14T10:25:03.009Z</time>
      </trkpt>
      <trkpt lat="37.168404" lon="-3.404504">
        <ele>1633.73100455686</ele>
        <time>2018-07-14T10:25:06.009Z</time>
      </trkpt>
      <trkpt lat="37.168343" lon="-3.404548">
        <ele>1634</ele>
        <time>2018-07-14T10:25:09.009Z</time>
      </trkpt>
      <trkpt lat="37.168285" lon="-3.404606">
        <ele>1633</ele>
        <time>2018-07-14T10:25:12.009Z</time>
      </trkpt>
      <trkpt lat="37.168251" lon="-3.404682">
        <ele>1633</ele>
        <time>2018-07-14T10:25:15.009Z</time>
      </trkpt>
      <trkpt lat="37.168227" lon="-3.404751">
        <ele>1632</ele>
        <time>2018-07-14T10:25:19.009Z</time>
      </trkpt>
      <trkpt lat="37.168201" lon="-3.404825">
        <ele>1631</ele>
        <time>2018-07-14T10:25:22.009Z</time>
      </trkpt>
      <trkpt lat="37.168183" lon="-3.404913">
        <ele>1630</ele>
        <time>2018-07-14T10:25:25.009Z</time>
      </trkpt>
      <trkpt lat="37.168157" lon="-3.404999">
        <ele>1630</ele>
        <time>2018-07-14T10:25:28.009Z</time>
      </trkpt>
      <trkpt lat="37.168103" lon="-3.40506">
        <ele>1630</ele>
        <time>2018-07-14T10:25:31.009Z</time>
      </trkpt>
      <trkpt lat="37.168056" lon="-3.40513">
        <ele>1630</ele>
        <time>2018-07-14T10:25:34.009Z</time>
      </trkpt>
      <trkpt lat="37.168023" lon="-3.40522">
        <ele>1630</ele>
        <time>2018-07-14T10:25:37.009Z</time>
      </trkpt>
      <trkpt lat="37.168004" lon="-3.405315">
        <ele>1629</ele>
        <time>2018-07-14T10:25:40.009Z</time>
      </trkpt>
      <trkpt lat="37.16797" lon="-3.405424">
        <ele>1629.73100455686</ele>
        <time>2018-07-14T10:25:44.009Z</time>
      </trkpt>
      <trkpt lat="37.167952" lon="-3.40551">
        <ele>1628.73099864322</ele>
        <time>2018-07-14T10:25:47.009Z</time>
      </trkpt>
      <trkpt lat="37.167932" lon="-3.405622">
        <ele>1627.73100455686</ele>
        <time>2018-07-14T10:26:46.009Z</time>
      </trkpt>
      <trkpt lat="37.167944" lon="-3.405749">
        <ele>1626</ele>
        <time>2018-07-14T10:26:52.009Z</time>
      </trkpt>
      <trkpt lat="37.167925" lon="-3.405881">
        <ele>1626</ele>
        <time>2018-07-14T10:26:56.009Z</time>
      </trkpt>
      <trkpt lat="37.167936" lon="-3.40601">
        <ele>1626</ele>
        <time>2018-07-14T10:27:02.009Z</time>
      </trkpt>
      <trkpt lat="37.167937" lon="-3.406093">
        <ele>1625</ele>
        <time>2018-07-14T10:27:07.009Z</time>
      </trkpt>
      <trkpt lat="37.16792" lon="-3.406206">
        <ele>1623.73099864322</ele>
        <time>2018-07-14T10:27:13.009Z</time>
      </trkpt>
      <trkpt lat="37.167826" lon="-3.406294">
        <ele>1621.73099864322</ele>
        <time>2018-07-14T10:27:19.009Z</time>
      </trkpt>
      <trkpt lat="37.16779" lon="-3.406443">
        <ele>1620</ele>
        <time>2018-07-14T10:27:24.009Z</time>
      </trkpt>
      <trkpt lat="37.167765" lon="-3.406575">
        <ele>1619</ele>
        <time>2018-07-14T10:27:28.009Z</time>
      </trkpt>
      <trkpt lat="37.167707" lon="-3.406704">
        <ele>1618</ele>
        <time>2018-07-14T10:27:33.009Z</time>
      </trkpt>
      <trkpt lat="37.167685" lon="-3.406837">
        <ele>1616</ele>
        <time>2018-07-14T10:27:39.009Z</time>
      </trkpt>
      <trkpt lat="37.1677" lon="-3.40696">
        <ele>1614.73100455686</ele>
        <time>2018-07-14T10:27:46.009Z</time>
      </trkpt>
      <trkpt lat="37.167692" lon="-3.407071">
        <ele>1611</ele>
        <time>2018-07-14T10:27:56.009Z</time>
      </trkpt>
      <trkpt lat="37.167641" lon="-3.407156">
        <ele>1609.73100455686</ele>
        <time>2018-07-14T10:28:00.009Z</time>
      </trkpt>
      <trkpt lat="37.167616" lon="-3.407228">
        <ele>1609</ele>
        <time>2018-07-14T10:28:03.009Z</time>
      </trkpt>
      <trkpt lat="37.167571" lon="-3.407274">
        <ele>1608</ele>
        <time>2018-07-14T10:28:07.009Z</time>
      </trkpt>
      <trkpt lat="37.167518" lon="-3.407316">
        <ele>1606.73099864322</ele>
        <time>2018-07-14T10:28:11.009Z</time>
      </trkpt>
      <trkpt lat="37.167421" lon="-3.407394">
        <ele>1604</ele>
        <time>2018-07-14T10:28:16.009Z</time>
      </trkpt>
      <trkpt lat="37.167366" lon="-3.407466">
        <ele>1604</ele>
        <time>2018-07-14T10:28:19.009Z</time>
      </trkpt>
      <trkpt lat="37.167323" lon="-3.407544">
        <ele>1604</ele>
        <time>2018-07-14T10:28:22.009Z</time>
      </trkpt>
      <trkpt lat="37.167278" lon="-3.407624">
        <ele>1603</ele>
        <time>2018-07-14T10:28:25.009Z</time>
      </trkpt>
      <trkpt lat="37.167242" lon="-3.407738">
        <ele>1602.73099864322</ele>
        <time>2018-07-14T10:28:29.009Z</time>
      </trkpt>
      <trkpt lat="37.167221" lon="-3.407824">
        <ele>1601</ele>
        <time>2018-07-14T10:28:34.009Z</time>
      </trkpt>
      <trkpt lat="37.167223" lon="-3.407922">
        <ele>1601</ele>
        <time>2018-07-14T10:28:38.009Z</time>
      </trkpt>
      <trkpt lat="37.167221" lon="-3.408048">
        <ele>1600</ele>
        <time>2018-07-14T10:28:42.009Z</time>
      </trkpt>
      <trkpt lat="37.1672" lon="-3.408174">
        <ele>1599.73100455686</ele>
        <time>2018-07-14T10:28:46.009Z</time>
      </trkpt>
      <trkpt lat="37.167138" lon="-3.408292">
        <ele>1598</ele>
        <time>2018-07-14T10:28:51.009Z</time>
      </trkpt>
      <trkpt lat="37.167082" lon="-3.40838">
        <ele>1596</ele>
        <time>2018-07-14T10:28:56.009Z</time>
      </trkpt>
      <trkpt lat="37.167075" lon="-3.408463">
        <ele>1595.73099864322</ele>
        <time>2018-07-14T10:29:01.009Z</time>
      </trkpt>
      <trkpt lat="37.16706" lon="-3.408534">
        <ele>1595</ele>
        <time>2018-07-14T10:29:05.009Z</time>
      </trkpt>
      <trkpt lat="37.167045" lon="-3.40867">
        <ele>1596</ele>
        <time>2018-07-14T10:29:14.009Z</time>
      </trkpt>
      <trkpt lat="37.167027" lon="-3.408748">
        <ele>1595</ele>
        <time>2018-07-14T10:29:19.009Z</time>
      </trkpt>
      <trkpt lat="37.167014" lon="-3.408822">
        <ele>1594.73099864322</ele>
        <time>2018-07-14T10:29:23.009Z</time>
      </trkpt>
      <trkpt lat="37.166999" lon="-3.408889">
        <ele>1595</ele>
        <time>2018-07-14T10:29:27.009Z</time>
      </trkpt>
      <trkpt lat="37.166968" lon="-3.408954">
        <ele>1594</ele>
        <time>2018-07-14T10:29:31.009Z</time>
      </trkpt>
      <trkpt lat="37.166941" lon="-3.409025">
        <ele>1594</ele>
        <time>2018-07-14T10:29:35.009Z</time>
      </trkpt>
      <trkpt lat="37.166906" lon="-3.409093">
        <ele>1594</ele>
        <time>2018-07-14T10:29:39.009Z</time>
      </trkpt>
      <trkpt lat="37.166864" lon="-3.409154">
        <ele>1594</ele>
        <time>2018-07-14T10:29:43.009Z</time>
      </trkpt>
      <trkpt lat="37.166831" lon="-3.40922">
        <ele>1594</ele>
        <time>2018-07-14T10:29:47.009Z</time>
      </trkpt>
      <trkpt lat="37.166801" lon="-3.409283">
        <ele>1594</ele>
        <time>2018-07-14T10:29:51.009Z</time>
      </trkpt>
      <trkpt lat="37.166736" lon="-3.409345">
        <ele>1592</ele>
        <time>2018-07-14T10:29:57.009Z</time>
      </trkpt>
      <trkpt lat="37.166665" lon="-3.409379">
        <ele>1592</ele>
        <time>2018-07-14T10:30:02.009Z</time>
      </trkpt>
      <trkpt lat="37.166606" lon="-3.409444">
        <ele>1591</ele>
        <time>2018-07-14T10:30:07.009Z</time>
      </trkpt>
      <trkpt lat="37.166596" lon="-3.409535">
        <ele>1591</ele>
        <time>2018-07-14T10:30:13.009Z</time>
      </trkpt>
      <trkpt lat="37.16655" lon="-3.409622">
        <ele>1591</ele>
        <time>2018-07-14T10:30:19.009Z</time>
      </trkpt>
      <trkpt lat="37.166512" lon="-3.4097">
        <ele>1591</ele>
        <time>2018-07-14T10:30:22.009Z</time>
      </trkpt>
      <trkpt lat="37.16648" lon="-3.409786">
        <ele>1591</ele>
        <time>2018-07-14T10:30:25.009Z</time>
      </trkpt>
      <trkpt lat="37.166406" lon="-3.409853">
        <ele>1591</ele>
        <time>2018-07-14T10:30:29.009Z</time>
      </trkpt>
      <trkpt lat="37.166315" lon="-3.409884">
        <ele>1591</ele>
        <time>2018-07-14T10:30:33.009Z</time>
      </trkpt>
      <trkpt lat="37.166219" lon="-3.409889">
        <ele>1591.0180907218</ele>
        <time>2018-07-14T10:30:37.009Z</time>
      </trkpt>
      <trkpt lat="37.166152" lon="-3.409897">
        <ele>1592</ele>
        <time>2018-07-14T10:30:40.009Z</time>
      </trkpt>
      <trkpt lat="37.166079" lon="-3.409889">
        <ele>1592</ele>
        <time>2018-07-14T10:30:43.009Z</time>
      </trkpt>
      <trkpt lat="37.165984" lon="-3.409923">
        <ele>1591</ele>
        <time>2018-07-14T10:30:47.009Z</time>
      </trkpt>
      <trkpt lat="37.165884" lon="-3.40998">
        <ele>1590</ele>
        <time>2018-07-14T10:30:51.009Z</time>
      </trkpt>
      <trkpt lat="37.165796" lon="-3.410062">
        <ele>1589.26900135678</ele>
        <time>2018-07-14T10:30:55.009Z</time>
      </trkpt>
      <trkpt lat="37.165728" lon="-3.410099">
        <ele>1590</ele>
        <time>2018-07-14T10:30:58.009Z</time>
      </trkpt>
      <trkpt lat="37.165666" lon="-3.410203">
        <ele>1588.73100455686</ele>
        <time>2018-07-14T10:31:02.009Z</time>
      </trkpt>
      <trkpt lat="37.165625" lon="-3.410324">
        <ele>1586</ele>
        <time>2018-07-14T10:31:06.009Z</time>
      </trkpt>
      <trkpt lat="37.165586" lon="-3.410413">
        <ele>1585.73099864322</ele>
        <time>2018-07-14T10:31:09.009Z</time>
      </trkpt>
      <trkpt lat="37.16557" lon="-3.410519">
        <ele>1585</ele>
        <time>2018-07-14T10:31:13.009Z</time>
      </trkpt>
      <trkpt lat="37.165521" lon="-3.410586">
        <ele>1583</ele>
        <time>2018-07-14T10:31:20.009Z</time>
      </trkpt>
      <trkpt lat="37.165472" lon="-3.41066">
        <ele>1582</ele>
        <time>2018-07-14T10:31:28.009Z</time>
      </trkpt>
      <trkpt lat="37.165403" lon="-3.410727">
        <ele>1580</ele>
        <time>2018-07-14T10:31:41.009Z</time>
      </trkpt>
      <trkpt lat="37.16532" lon="-3.410759">
        <ele>1579.73099864322</ele>
        <time>2018-07-14T10:31:45.009Z</time>
      </trkpt>
      <trkpt lat="37.165239" lon="-3.41078">
        <ele>1579</ele>
        <time>2018-07-14T10:31:49.009Z</time>
      </trkpt>
      <trkpt lat="37.165159" lon="-3.410793">
        <ele>1579</ele>
        <time>2018-07-14T10:31:54.009Z</time>
      </trkpt>
      <trkpt lat="37.165079" lon="-3.41079">
        <ele>1578</ele>
        <time>2018-07-14T10:31:57.009Z</time>
      </trkpt>
      <trkpt lat="37.164998" lon="-3.410772">
        <ele>1576.73367044331</ele>
        <time>2018-07-14T10:32:00.009Z</time>
      </trkpt>
      <trkpt lat="37.16494" lon="-3.410765">
        <ele>1576</ele>
        <time>2018-07-14T10:32:02.009Z</time>
      </trkpt>
      <trkpt lat="37.164856" lon="-3.410778">
        <ele>1576</ele>
        <time>2018-07-14T10:32:05.009Z</time>
      </trkpt>
      <trkpt lat="37.164777" lon="-3.410794">
        <ele>1575</ele>
        <time>2018-07-14T10:32:08.009Z</time>
      </trkpt>
      <trkpt lat="37.164689" lon="-3.410776">
        <ele>1574</ele>
        <time>2018-07-14T10:32:12.009Z</time>
      </trkpt>
      <trkpt lat="37.164641" lon="-3.410738">
        <ele>1572</ele>
        <time>2018-07-14T10:32:17.009Z</time>
      </trkpt>
      <trkpt lat="37.164567" lon="-3.410714">
        <ele>1567</ele>
        <time>2018-07-14T10:32:23.009Z</time>
      </trkpt>
      <trkpt lat="37.164456" lon="-3.41072">
        <ele>1563</ele>
        <time>2018-07-14T10:32:30.009Z</time>
      </trkpt>
      <trkpt lat="37.164388" lon="-3.410822">
        <ele>1559</ele>
        <time>2018-07-14T10:32:37.009Z</time>
      </trkpt>
      <trkpt lat="37.164339" lon="-3.410918">
        <ele>1558.73099864322</ele>
        <time>2018-07-14T10:32:43.009Z</time>
      </trkpt>
      <trkpt lat="37.164277" lon="-3.41098">
        <ele>1557.73100455686</ele>
        <time>2018-07-14T10:32:48.009Z</time>
      </trkpt>
      <trkpt lat="37.164203" lon="-3.411055">
        <ele>1557</ele>
        <time>2018-07-14T10:32:54.009Z</time>
      </trkpt>
      <trkpt lat="37.164148" lon="-3.411125">
        <ele>1554.73099864322</ele>
        <time>2018-07-14T10:33:05.009Z</time>
      </trkpt>
      <trkpt lat="37.164116" lon="-3.411224">
        <ele>1554</ele>
        <time>2018-07-14T10:33:12.009Z</time>
      </trkpt>
      <trkpt lat="37.164081" lon="-3.41129">
        <ele>1554</ele>
        <time>2018-07-14T10:33:16.009Z</time>
      </trkpt>
      <trkpt lat="37.164032" lon="-3.41139">
        <ele>1553</ele>
        <time>2018-07-14T10:33:23.009Z</time>
      </trkpt>
      <trkpt lat="37.163982" lon="-3.41149">
        <ele>1553</ele>
        <time>2018-07-14T10:33:30.009Z</time>
      </trkpt>
      <trkpt lat="37.163932" lon="-3.411589">
        <ele>1553</ele>
        <time>2018-07-14T10:33:37.009Z</time>
      </trkpt>
      <trkpt lat="37.163875" lon="-3.411686">
        <ele>1553</ele>
        <time>2018-07-14T10:33:44.009Z</time>
      </trkpt>
      <trkpt lat="37.163802" lon="-3.411773">
        <ele>1552</ele>
        <time>2018-07-14T10:33:52.009Z</time>
      </trkpt>
      <trkpt lat="37.163756" lon="-3.411848">
        <ele>1550.73099864322</ele>
        <time>2018-07-14T10:33:59.009Z</time>
      </trkpt>
      <trkpt lat="37.163685" lon="-3.411964">
        <ele>1550</ele>
        <time>2018-07-14T10:34:06.009Z</time>
      </trkpt>
      <trkpt lat="37.163643" lon="-3.41208">
        <ele>1548</ele>
        <time>2018-07-14T10:34:12.009Z</time>
      </trkpt>
      <trkpt lat="37.163616" lon="-3.412175">
        <ele>1546</ele>
        <time>2018-07-14T10:34:19.009Z</time>
      </trkpt>
      <trkpt lat="37.163569" lon="-3.412261">
        <ele>1544</ele>
        <time>2018-07-14T10:34:28.009Z</time>
      </trkpt>
      <trkpt lat="37.163548" lon="-3.4124">
        <ele>1542.73099864322</ele>
        <time>2018-07-14T10:34:33.009Z</time>
      </trkpt>
      <trkpt lat="37.163507" lon="-3.412541">
        <ele>1540.73100455686</ele>
        <time>2018-07-14T10:34:38.009Z</time>
      </trkpt>
      <trkpt lat="37.163446" lon="-3.41265">
        <ele>1539</ele>
        <time>2018-07-14T10:34:43.009Z</time>
      </trkpt>
      <trkpt lat="37.163404" lon="-3.412765">
        <ele>1539</ele>
        <time>2018-07-14T10:34:51.009Z</time>
      </trkpt>
      <trkpt lat="37.163363" lon="-3.412822">
        <ele>1538.26900135678</ele>
        <time>2018-07-14T10:34:57.009Z</time>
      </trkpt>
      <trkpt lat="37.163312" lon="-3.412917">
        <ele>1538</ele>
        <time>2018-07-14T10:35:03.009Z</time>
      </trkpt>
      <trkpt lat="37.163262" lon="-3.412998">
        <ele>1538</ele>
        <time>2018-07-14T10:35:08.009Z</time>
      </trkpt>
      <trkpt lat="37.163211" lon="-3.41309">
        <ele>1538</ele>
        <time>2018-07-14T10:35:14.009Z</time>
      </trkpt>
      <trkpt lat="37.163174" lon="-3.413156">
        <ele>1537</ele>
        <time>2018-07-14T10:35:18.009Z</time>
      </trkpt>
      <trkpt lat="37.163111" lon="-3.413248">
        <ele>1537.26900135678</ele>
        <time>2018-07-14T10:35:25.009Z</time>
      </trkpt>
      <trkpt lat="37.163061" lon="-3.413341">
        <ele>1537.26900135678</ele>
        <time>2018-07-14T10:35:31.009Z</time>
      </trkpt>
      <trkpt lat="37.163034" lon="-3.413428">
        <ele>1537.73099864322</ele>
        <time>2018-07-14T10:35:35.009Z</time>
      </trkpt>
      <trkpt lat="37.162969" lon="-3.413562">
        <ele>1537</ele>
        <time>2018-07-14T10:35:40.009Z</time>
      </trkpt>
      <trkpt lat="37.162902" lon="-3.413673">
        <ele>1537</ele>
        <time>2018-07-14T10:35:44.009Z</time>
      </trkpt>
      <trkpt lat="37.16282" lon="-3.413767">
        <ele>1536</ele>
        <time>2018-07-14T10:35:48.009Z</time>
      </trkpt>
      <trkpt lat="37.162742" lon="-3.413858">
        <ele>1536</ele>
        <time>2018-07-14T10:35:52.009Z</time>
      </trkpt>
      <trkpt lat="37.162663" lon="-3.41395">
        <ele>1535</ele>
        <time>2018-07-14T10:35:56.009Z</time>
      </trkpt>
      <trkpt lat="37.162587" lon="-3.41405">
        <ele>1534</ele>
        <time>2018-07-14T10:36:01.009Z</time>
      </trkpt>
      <trkpt lat="37.162519" lon="-3.414143">
        <ele>1533</ele>
        <time>2018-07-14T10:36:08.009Z</time>
      </trkpt>
      <trkpt lat="37.162425" lon="-3.414205">
        <ele>1531.73100455686</ele>
        <time>2018-07-14T10:36:16.009Z</time>
      </trkpt>
      <trkpt lat="37.162351" lon="-3.414264">
        <ele>1531</ele>
        <time>2018-07-14T10:36:23.009Z</time>
      </trkpt>
      <trkpt lat="37.162277" lon="-3.414334">
        <ele>1529</ele>
        <time>2018-07-14T10:36:31.009Z</time>
      </trkpt>
      <trkpt lat="37.162204" lon="-3.414397">
        <ele>1528.73099864322</ele>
        <time>2018-07-14T10:36:37.009Z</time>
      </trkpt>
      <trkpt lat="37.162132" lon="-3.414473">
        <ele>1527.73100455686</ele>
        <time>2018-07-14T10:36:44.009Z</time>
      </trkpt>
      <trkpt lat="37.162068" lon="-3.414561">
        <ele>1527</ele>
        <time>2018-07-14T10:36:50.009Z</time>
      </trkpt>
      <trkpt lat="37.162029" lon="-3.414659">
        <ele>1526</ele>
        <time>2018-07-14T10:36:56.009Z</time>
      </trkpt>
      <trkpt lat="37.161972" lon="-3.414751">
        <ele>1524.73100455686</ele>
        <time>2018-07-14T10:37:04.009Z</time>
      </trkpt>
      <trkpt lat="37.16196" lon="-3.414872">
        <ele>1523</ele>
        <time>2018-07-14T10:37:12.009Z</time>
      </trkpt>
      <trkpt lat="37.161912" lon="-3.414972">
        <ele>1522</ele>
        <time>2018-07-14T10:37:20.009Z</time>
      </trkpt>
      <trkpt lat="37.161908" lon="-3.415093">
        <ele>1520</ele>
        <time>2018-07-14T10:37:28.009Z</time>
      </trkpt>
      <trkpt lat="37.16193" lon="-3.415157">
        <ele>1519</ele>
        <time>2018-07-14T10:37:35.009Z</time>
      </trkpt>
      <trkpt lat="37.161984" lon="-3.415184">
        <ele>1518.73100455686</ele>
        <time>2018-07-14T10:37:40.009Z</time>
      </trkpt>
      <trkpt lat="37.162032" lon="-3.415206">
        <ele>1517</ele>
        <time>2018-07-14T10:37:45.009Z</time>
      </trkpt>
      <trkpt lat="37.162084" lon="-3.415304">
        <ele>1518</ele>
        <time>2018-07-14T10:37:52.009Z</time>
      </trkpt>
      <trkpt lat="37.162092" lon="-3.415403">
        <ele>1515.73100455686</ele>
        <time>2018-07-14T10:38:00.009Z</time>
      </trkpt>
      <trkpt lat="37.16209" lon="-3.415508">
        <ele>1513</ele>
        <time>2018-07-14T10:38:10.009Z</time>
      </trkpt>
      <trkpt lat="37.162116" lon="-3.415631">
        <ele>1511</ele>
        <time>2018-07-14T10:38:18.009Z</time>
      </trkpt>
      <trkpt lat="37.162106" lon="-3.415754">
        <ele>1508.73099864322</ele>
        <time>2018-07-14T10:38:27.009Z</time>
      </trkpt>
      <trkpt lat="37.162126" lon="-3.415864">
        <ele>1506</ele>
        <time>2018-07-14T10:38:33.009Z</time>
      </trkpt>
      <trkpt lat="37.162132" lon="-3.415972">
        <ele>1504</ele>
        <time>2018-07-14T10:38:53.009Z</time>
      </trkpt>
      <trkpt lat="37.162137" lon="-3.416097">
        <ele>1502.73099864322</ele>
        <time>2018-07-14T10:38:59.009Z</time>
      </trkpt>
      <trkpt lat="37.162149" lon="-3.41623">
        <ele>1500.73100455686</ele>
        <time>2018-07-14T10:39:06.009Z</time>
      </trkpt>
      <trkpt lat="37.162135" lon="-3.416371">
        <ele>1498.73100455686</ele>
        <time>2018-07-14T10:39:12.009Z</time>
      </trkpt>
      <trkpt lat="37.162097" lon="-3.416494">
        <ele>1496</ele>
        <time>2018-07-14T10:39:18.009Z</time>
      </trkpt>
      <trkpt lat="37.16206" lon="-3.416625">
        <ele>1494</ele>
        <time>2018-07-14T10:39:23.009Z</time>
      </trkpt>
      <trkpt lat="37.162033" lon="-3.416756">
        <ele>1492</ele>
        <time>2018-07-14T10:39:29.009Z</time>
      </trkpt>
      <trkpt lat="37.161983" lon="-3.416861">
        <ele>1490</ele>
        <time>2018-07-14T10:39:35.009Z</time>
      </trkpt>
      <trkpt lat="37.161925" lon="-3.416949">
        <ele>1488</ele>
        <time>2018-07-14T10:39:41.009Z</time>
      </trkpt>
      <trkpt lat="37.161888" lon="-3.417064">
        <ele>1487.7336611454</ele>
        <time>2018-07-14T10:39:47.009Z</time>
      </trkpt>
      <trkpt lat="37.161853" lon="-3.417179">
        <ele>1485.73100455686</ele>
        <time>2018-07-14T10:39:54.009Z</time>
      </trkpt>
      <trkpt lat="37.161847" lon="-3.417315">
        <ele>1484</ele>
        <time>2018-07-14T10:40:02.009Z</time>
      </trkpt>
      <trkpt lat="37.161902" lon="-3.417424">
        <ele>1482</ele>
        <time>2018-07-14T10:40:10.009Z</time>
      </trkpt>
      <trkpt lat="37.161924" lon="-3.41754">
        <ele>1478.73099864322</ele>
        <time>2018-07-14T10:40:21.009Z</time>
      </trkpt>
      <trkpt lat="37.161876" lon="-3.417655">
        <ele>1476</ele>
        <time>2018-07-14T10:40:28.009Z</time>
      </trkpt>
      <trkpt lat="37.161859" lon="-3.417805">
        <ele>1474</ele>
        <time>2018-07-14T10:40:33.009Z</time>
      </trkpt>
      <trkpt lat="37.161831" lon="-3.417936">
        <ele>1472</ele>
        <time>2018-07-14T10:40:38.009Z</time>
      </trkpt>
      <trkpt lat="37.161811" lon="-3.418059">
        <ele>1470</ele>
        <time>2018-07-14T10:40:45.009Z</time>
      </trkpt>
      <trkpt lat="37.161838" lon="-3.418191">
        <ele>1468.7336611454</ele>
        <time>2018-07-14T10:40:53.009Z</time>
      </trkpt>
      <trkpt lat="37.161851" lon="-3.418315">
        <ele>1466.73100455686</ele>
        <time>2018-07-14T10:41:00.009Z</time>
      </trkpt>
      <trkpt lat="37.161848" lon="-3.418431">
        <ele>1466</ele>
        <time>2018-07-14T10:41:06.009Z</time>
      </trkpt>
      <trkpt lat="37.161786" lon="-3.418543">
        <ele>1465</ele>
        <time>2018-07-14T10:41:13.009Z</time>
      </trkpt>
      <trkpt lat="37.161724" lon="-3.418634">
        <ele>1464.73099864322</ele>
        <time>2018-07-14T10:41:19.009Z</time>
      </trkpt>
      <trkpt lat="37.161672" lon="-3.418736">
        <ele>1464</ele>
        <time>2018-07-14T10:41:25.009Z</time>
      </trkpt>
      <trkpt lat="37.161628" lon="-3.418844">
        <ele>1462.73100455686</ele>
        <time>2018-07-14T10:41:32.009Z</time>
      </trkpt>
      <trkpt lat="37.161564" lon="-3.418943">
        <ele>1461</ele>
        <time>2018-07-14T10:41:38.009Z</time>
      </trkpt>
      <trkpt lat="37.161502" lon="-3.419033">
        <ele>1459.73099864322</ele>
        <time>2018-07-14T10:41:45.009Z</time>
      </trkpt>
      <trkpt lat="37.161454" lon="-3.419153">
        <ele>1457.73099864322</ele>
        <time>2018-07-14T10:41:51.009Z</time>
      </trkpt>
      <trkpt lat="37.161436" lon="-3.41929">
        <ele>1455.73100455686</ele>
        <time>2018-07-14T10:41:58.009Z</time>
      </trkpt>
      <trkpt lat="37.161441" lon="-3.419418">
        <ele>1453</ele>
        <time>2018-07-14T10:42:05.009Z</time>
      </trkpt>
      <trkpt lat="37.161452" lon="-3.419545">
        <ele>1451</ele>
        <time>2018-07-14T10:42:13.009Z</time>
      </trkpt>
      <trkpt lat="37.161474" lon="-3.419676">
        <ele>1448</ele>
        <time>2018-07-14T10:42:22.009Z</time>
      </trkpt>
      <trkpt lat="37.161445" lon="-3.4198">
        <ele>1445.73099864322</ele>
        <time>2018-07-14T10:42:29.009Z</time>
      </trkpt>
      <trkpt lat="37.161413" lon="-3.419921">
        <ele>1443</ele>
        <time>2018-07-14T10:42:36.009Z</time>
      </trkpt>
      <trkpt lat="37.161391" lon="-3.420061">
        <ele>1440.73100455686</ele>
        <time>2018-07-14T10:42:42.009Z</time>
      </trkpt>
      <trkpt lat="37.161378" lon="-3.420216">
        <ele>1438</ele>
        <time>2018-07-14T10:42:47.009Z</time>
      </trkpt>
      <trkpt lat="37.161352" lon="-3.420362">
        <ele>1436.73100455686</ele>
        <time>2018-07-14T10:42:52.009Z</time>
      </trkpt>
      <trkpt lat="37.161298" lon="-3.420493">
        <ele>1435</ele>
        <time>2018-07-14T10:42:57.009Z</time>
      </trkpt>
      <trkpt lat="37.161262" lon="-3.420584">
        <ele>1434</ele>
        <time>2018-07-14T10:43:01.009Z</time>
      </trkpt>
      <trkpt lat="37.157763" lon="-3.443119">
        <ele>1033.40002441406</ele>
        <time>2018-07-14T11:15:27.008Z</time>
      </trkpt>
      <trkpt lat="37.157826" lon="-3.443114">
        <ele>1034.6579968</ele>
        <time>2018-07-14T11:15:33.008Z</time>
      </trkpt>
      <trkpt lat="37.15785" lon="-3.442991">
        <ele>1034</ele>
        <time>2018-07-14T11:15:58.008Z</time>
      </trkpt>
      <trkpt lat="37.157941" lon="-3.442938">
        <ele>1032</ele>
        <time>2018-07-14T11:16:11.008Z</time>
      </trkpt>
      <trkpt lat="37.157922" lon="-3.442811">
        <ele>1048.6579968</ele>
        <time>2018-07-14T11:16:26.008Z</time>
      </trkpt>
      <trkpt lat="37.157913" lon="-3.442977">
        <ele>1045</ele>
        <time>2018-07-14T11:16:57.008Z</time>
      </trkpt>
      <trkpt lat="37.15783" lon="-3.443065">
        <ele>1043</ele>
        <time>2018-07-14T11:17:10.008Z</time>
      </trkpt>
      <trkpt lat="37.157748" lon="-3.44314">
        <ele>1044</ele>
        <time>2018-07-14T11:17:19.008Z</time>
      </trkpt>
      <trkpt lat="37.157668" lon="-3.443245">
        <ele>1048</ele>
        <time>2018-07-14T11:17:29.008Z</time>
      </trkpt>
      <trkpt lat="37.157558" lon="-3.443237">
        <ele>1054.34851595569</ele>
        <time>2018-07-14T11:17:36.008Z</time>
      </trkpt>
      <trkpt lat="37.15751" lon="-3.443176">
        <ele>1057</ele>
        <time>2018-07-14T11:17:43.008Z</time>
      </trkpt>
      <trkpt lat="37.157419" lon="-3.44317">
        <ele>1056</ele>
        <time>2018-07-14T11:17:49.008Z</time>
      </trkpt>
      <trkpt lat="37.157382" lon="-3.443063">
        <ele>1055</ele>
        <time>2018-07-14T11:17:55.008Z</time>
      </trkpt>
      <trkpt lat="37.157404" lon="-3.442937">
        <ele>1053</ele>
        <time>2018-07-14T11:18:00.008Z</time>
      </trkpt>
      <trkpt lat="37.157436" lon="-3.442816">
        <ele>1052</ele>
        <time>2018-07-14T11:18:05.008Z</time>
      </trkpt>
      <trkpt lat="37.15746" lon="-3.442692">
        <ele>1051</ele>
        <time>2018-07-14T11:18:10.008Z</time>
      </trkpt>
      <trkpt lat="37.157374" lon="-3.442581">
        <ele>1050</ele>
        <time>2018-07-14T11:18:15.008Z</time>
      </trkpt>
      <trkpt lat="37.157301" lon="-3.442466">
        <ele>1047.3420032</ele>
        <time>2018-07-14T11:18:21.008Z</time>
      </trkpt>
      <trkpt lat="37.157194" lon="-3.442433">
        <ele>1046</ele>
        <time>2018-07-14T11:18:26.008Z</time>
      </trkpt>
      <trkpt lat="37.157106" lon="-3.442438">
        <ele>1045</ele>
        <time>2018-07-14T11:18:30.008Z</time>
      </trkpt>
      <trkpt lat="37.157024" lon="-3.442365">
        <ele>1044</ele>
        <time>2018-07-14T11:18:37.008Z</time>
      </trkpt>
      <trkpt lat="37.157077" lon="-3.442224">
        <ele>1042.3420032</ele>
        <time>2018-07-14T11:18:46.008Z</time>
      </trkpt>
      <trkpt lat="37.157142" lon="-3.442117">
        <ele>1041</ele>
        <time>2018-07-14T11:18:51.008Z</time>
      </trkpt>
      <trkpt lat="37.157198" lon="-3.442013">
        <ele>1040.3420032</ele>
        <time>2018-07-14T11:18:55.008Z</time>
      </trkpt>
      <trkpt lat="37.157231" lon="-3.441887">
        <ele>1039</ele>
        <time>2018-07-14T11:19:01.008Z</time>
      </trkpt>
      <trkpt lat="37.157283" lon="-3.441781">
        <ele>1039</ele>
        <time>2018-07-14T11:19:07.008Z</time>
      </trkpt>
      <trkpt lat="37.157308" lon="-3.441644">
        <ele>1038</ele>
        <time>2018-07-14T11:19:14.008Z</time>
      </trkpt>
      <trkpt lat="37.157328" lon="-3.4415">
        <ele>1036.3420032</ele>
        <time>2018-07-14T11:19:21.008Z</time>
      </trkpt>
      <trkpt lat="37.157289" lon="-3.441376">
        <ele>1034.3420032</ele>
        <time>2018-07-14T11:19:25.008Z</time>
      </trkpt>
      <trkpt lat="37.157192" lon="-3.441333">
        <ele>1033</ele>
        <time>2018-07-14T11:19:30.008Z</time>
      </trkpt>
      <trkpt lat="37.157141" lon="-3.441212">
        <ele>1029.69703191139</ele>
        <time>2018-07-14T11:19:37.008Z</time>
      </trkpt>
      <trkpt lat="37.157159" lon="-3.44107">
        <ele>1027</ele>
        <time>2018-07-14T11:19:41.008Z</time>
      </trkpt>
      <trkpt lat="37.15716" lon="-3.440945">
        <ele>1026</ele>
        <time>2018-07-14T11:19:45.008Z</time>
      </trkpt>
      <trkpt lat="37.157133" lon="-3.440823">
        <ele>1026</ele>
        <time>2018-07-14T11:19:49.008Z</time>
      </trkpt>
      <trkpt lat="37.157074" lon="-3.440713">
        <ele>1023</ele>
        <time>2018-07-14T11:19:54.008Z</time>
      </trkpt>
      <trkpt lat="37.157016" lon="-3.440599">
        <ele>1020</ele>
        <time>2018-07-14T11:20:00.008Z</time>
      </trkpt>
      <trkpt lat="37.156963" lon="-3.440483">
        <ele>1018</ele>
        <time>2018-07-14T11:20:05.008Z</time>
      </trkpt>
      <trkpt lat="37.15687" lon="-3.440386">
        <ele>1016</ele>
        <time>2018-07-14T11:20:10.008Z</time>
      </trkpt>
      <trkpt lat="37.156857" lon="-3.440514">
        <ele>1012.3420032</ele>
        <time>2018-07-14T11:20:18.008Z</time>
      </trkpt>
      <trkpt lat="37.156879" lon="-3.440631">
        <ele>1011</ele>
        <time>2018-07-14T11:20:25.008Z</time>
      </trkpt>
      <trkpt lat="37.156797" lon="-3.440722">
        <ele>1011</ele>
        <time>2018-07-14T11:20:31.008Z</time>
      </trkpt>
      <trkpt lat="37.156699" lon="-3.440708">
        <ele>1009.3420032</ele>
        <time>2018-07-14T11:20:35.008Z</time>
      </trkpt>
      <trkpt lat="37.15663" lon="-3.440605">
        <ele>1008</ele>
        <time>2018-07-14T11:20:39.008Z</time>
      </trkpt>
      <trkpt lat="37.156559" lon="-3.440515">
        <ele>1005</ele>
        <time>2018-07-14T11:20:45.008Z</time>
      </trkpt>
      <trkpt lat="37.156504" lon="-3.440411">
        <ele>1002.6840064</ele>
        <time>2018-07-14T11:20:51.008Z</time>
      </trkpt>
      <trkpt lat="37.156428" lon="-3.440332">
        <ele>1001</ele>
        <time>2018-07-14T11:20:57.008Z</time>
      </trkpt>
      <trkpt lat="37.156322" lon="-3.440343">
        <ele>1000</ele>
        <time>2018-07-14T11:21:03.008Z</time>
      </trkpt>
      <trkpt lat="37.156206" lon="-3.440341">
        <ele>999</ele>
        <time>2018-07-14T11:21:10.008Z</time>
      </trkpt>
      <trkpt lat="37.15612" lon="-3.44026">
        <ele>998</ele>
        <time>2018-07-14T11:21:16.008Z</time>
      </trkpt>
      <trkpt lat="37.156089" lon="-3.440108">
        <ele>996</ele>
        <time>2018-07-14T11:21:22.008Z</time>
      </trkpt>
      <trkpt lat="37.156096" lon="-3.439955">
        <ele>996</ele>
        <time>2018-07-14T11:21:26.008Z</time>
      </trkpt>
      <trkpt lat="37.156092" lon="-3.439786">
        <ele>995</ele>
        <time>2018-07-14T11:21:30.008Z</time>
      </trkpt>
      <trkpt lat="37.156098" lon="-3.439633">
        <ele>994.3420032</ele>
        <time>2018-07-14T11:21:34.008Z</time>
      </trkpt>
      <trkpt lat="37.156095" lon="-3.439487">
        <ele>994</ele>
        <time>2018-07-14T11:21:38.008Z</time>
      </trkpt>
      <trkpt lat="37.156065" lon="-3.43936">
        <ele>993</ele>
        <time>2018-07-14T11:21:42.008Z</time>
      </trkpt>
      <trkpt lat="37.155965" lon="-3.439309">
        <ele>992</ele>
        <time>2018-07-14T11:21:46.008Z</time>
      </trkpt>
      <trkpt lat="37.155875" lon="-3.43929">
        <ele>991</ele>
        <time>2018-07-14T11:21:49.008Z</time>
      </trkpt>
      <trkpt lat="37.155748" lon="-3.439314">
        <ele>990</ele>
        <time>2018-07-14T11:21:53.008Z</time>
      </trkpt>
      <trkpt lat="37.155727" lon="-3.439214">
        <ele>982</ele>
        <time>2018-07-14T11:22:09.008Z</time>
      </trkpt>
      <trkpt lat="37.155717" lon="-3.439077">
        <ele>980.3420032</ele>
        <time>2018-07-14T11:22:15.008Z</time>
      </trkpt>
      <trkpt lat="37.155686" lon="-3.438953">
        <ele>980</ele>
        <time>2018-07-14T11:22:21.008Z</time>
      </trkpt>
      <trkpt lat="37.155648" lon="-3.438815">
        <ele>980</ele>
        <time>2018-07-14T11:22:26.008Z</time>
      </trkpt>
      <trkpt lat="37.1556" lon="-3.438677">
        <ele>980</ele>
        <time>2018-07-14T11:22:30.008Z</time>
      </trkpt>
      <trkpt lat="37.155539" lon="-3.438529">
        <ele>979.3420032</ele>
        <time>2018-07-14T11:22:34.008Z</time>
      </trkpt>
      <trkpt lat="37.155474" lon="-3.438428">
        <ele>979</ele>
        <time>2018-07-14T11:22:37.008Z</time>
      </trkpt>
      <trkpt lat="37.155395" lon="-3.43835">
        <ele>978</ele>
        <time>2018-07-14T11:22:40.008Z</time>
      </trkpt>
      <trkpt lat="37.15531" lon="-3.438286">
        <ele>977.3420032</ele>
        <time>2018-07-14T11:22:43.008Z</time>
      </trkpt>
      <trkpt lat="37.155215" lon="-3.438228">
        <ele>977</ele>
        <time>2018-07-14T11:22:46.008Z</time>
      </trkpt>
      <trkpt lat="37.155112" lon="-3.438138">
        <ele>976.3420032</ele>
        <time>2018-07-14T11:22:50.008Z</time>
      </trkpt>
      <trkpt lat="37.155029" lon="-3.438008">
        <ele>976</ele>
        <time>2018-07-14T11:22:54.008Z</time>
      </trkpt>
      <trkpt lat="37.154947" lon="-3.437892">
        <ele>975</ele>
        <time>2018-07-14T11:22:58.008Z</time>
      </trkpt>
      <trkpt lat="37.154883" lon="-3.437759">
        <ele>975</ele>
        <time>2018-07-14T11:23:02.008Z</time>
      </trkpt>
      <trkpt lat="37.154818" lon="-3.437628">
        <ele>974</ele>
        <time>2018-07-14T11:23:06.008Z</time>
      </trkpt>
      <trkpt lat="37.154776" lon="-3.437492">
        <ele>973</ele>
        <time>2018-07-14T11:23:10.008Z</time>
      </trkpt>
      <trkpt lat="37.154755" lon="-3.437345">
        <ele>971.3420032</ele>
        <time>2018-07-14T11:23:16.008Z</time>
      </trkpt>
      <trkpt lat="37.15473" lon="-3.437271">
        <ele>971</ele>
        <time>2018-07-14T11:23:20.008Z</time>
      </trkpt>
      <trkpt lat="37.154704" lon="-3.437215">
        <ele>970</ele>
        <time>2018-07-14T11:23:23.008Z</time>
      </trkpt>
      <trkpt lat="37.154682" lon="-3.437161">
        <ele>969</ele>
        <time>2018-07-14T11:23:26.008Z</time>
      </trkpt>
      <trkpt lat="37.15465" lon="-3.43711">
        <ele>968</ele>
        <time>2018-07-14T11:23:29.008Z</time>
      </trkpt>
      <trkpt lat="37.154627" lon="-3.437062">
        <ele>968</ele>
        <time>2018-07-14T11:23:32.008Z</time>
      </trkpt>
      <trkpt lat="37.154605" lon="-3.437018">
        <ele>967</ele>
        <time>2018-07-14T11:23:35.008Z</time>
      </trkpt>
      <trkpt lat="37.154579" lon="-3.436954">
        <ele>968</ele>
        <time>2018-07-14T11:23:39.008Z</time>
      </trkpt>
      <trkpt lat="37.154553" lon="-3.43689">
        <ele>968</ele>
        <time>2018-07-14T11:23:43.008Z</time>
      </trkpt>
      <trkpt lat="37.154538" lon="-3.436824">
        <ele>968</ele>
        <time>2018-07-14T11:23:47.008Z</time>
      </trkpt>
      <trkpt lat="37.154527" lon="-3.43677">
        <ele>968</ele>
        <time>2018-07-14T11:23:50.008Z</time>
      </trkpt>
      <trkpt lat="37.154505" lon="-3.436706">
        <ele>968</ele>
        <time>2018-07-14T11:23:54.008Z</time>
      </trkpt>
      <trkpt lat="37.154488" lon="-3.436653">
        <ele>968</ele>
        <time>2018-07-14T11:23:57.008Z</time>
      </trkpt>
      <trkpt lat="37.154474" lon="-3.436594">
        <ele>968</ele>
        <time>2018-07-14T11:24:00.008Z</time>
      </trkpt>
      <trkpt lat="37.154465" lon="-3.436532">
        <ele>967</ele>
        <time>2018-07-14T11:24:03.008Z</time>
      </trkpt>
      <trkpt lat="37.154456" lon="-3.43646">
        <ele>966.3420032</ele>
        <time>2018-07-14T11:24:07.008Z</time>
      </trkpt>
      <trkpt lat="37.154445" lon="-3.436315">
        <ele>966</ele>
        <time>2018-07-14T11:24:14.008Z</time>
      </trkpt>
      <trkpt lat="37.154428" lon="-3.436229">
        <ele>966</ele>
        <time>2018-07-14T11:24:18.008Z</time>
      </trkpt>
      <trkpt lat="37.154422" lon="-3.436148">
        <ele>966</ele>
        <time>2018-07-14T11:24:22.008Z</time>
      </trkpt>
      <trkpt lat="37.154419" lon="-3.436016">
        <ele>965.6579968</ele>
        <time>2018-07-14T11:24:29.008Z</time>
      </trkpt>
      <trkpt lat="37.154422" lon="-3.435936">
        <ele>966</ele>
        <time>2018-07-14T11:24:33.008Z</time>
      </trkpt>
      <trkpt lat="37.154423" lon="-3.435857">
        <ele>966</ele>
        <time>2018-07-14T11:24:37.008Z</time>
      </trkpt>
      <trkpt lat="37.154432" lon="-3.435781">
        <ele>966</ele>
        <time>2018-07-14T11:24:41.008Z</time>
      </trkpt>
      <trkpt lat="37.154451" lon="-3.435658">
        <ele>966</ele>
        <time>2018-07-14T11:24:47.008Z</time>
      </trkpt>
      <trkpt lat="37.15446" lon="-3.435572">
        <ele>966</ele>
        <time>2018-07-14T11:24:51.008Z</time>
      </trkpt>
      <trkpt lat="37.154472" lon="-3.435432">
        <ele>966.3420032</ele>
        <time>2018-07-14T11:24:58.008Z</time>
      </trkpt>
      <trkpt lat="37.15447" lon="-3.435293">
        <ele>967</ele>
        <time>2018-07-14T11:25:07.008Z</time>
      </trkpt>
      <trkpt lat="37.154449" lon="-3.435167">
        <ele>965</ele>
        <time>2018-07-14T11:25:13.008Z</time>
      </trkpt>
      <trkpt lat="37.154457" lon="-3.435025">
        <ele>964</ele>
        <time>2018-07-14T11:25:20.008Z</time>
      </trkpt>
      <trkpt lat="37.154466" lon="-3.434893">
        <ele>964</ele>
        <time>2018-07-14T11:25:26.008Z</time>
      </trkpt>
      <trkpt lat="37.154504" lon="-3.434762">
        <ele>965</ele>
        <time>2018-07-14T11:25:33.008Z</time>
      </trkpt>
      <trkpt lat="37.15451" lon="-3.434632">
        <ele>967</ele>
        <time>2018-07-14T11:25:40.008Z</time>
      </trkpt>
      <trkpt lat="37.154503" lon="-3.434501">
        <ele>967.6579968</ele>
        <time>2018-07-14T11:25:45.008Z</time>
      </trkpt>
      <trkpt lat="37.154448" lon="-3.434388">
        <ele>971</ele>
        <time>2018-07-14T11:25:51.008Z</time>
      </trkpt>
      <trkpt lat="37.154347" lon="-3.434347">
        <ele>973</ele>
        <time>2018-07-14T11:25:56.008Z</time>
      </trkpt>
      <trkpt lat="37.154247" lon="-3.434321">
        <ele>973</ele>
        <time>2018-07-14T11:26:02.008Z</time>
      </trkpt>
      <trkpt lat="37.154151" lon="-3.434371">
        <ele>969.3420032</ele>
        <time>2018-07-14T11:26:11.008Z</time>
      </trkpt>
      <trkpt lat="37.154118" lon="-3.434496">
        <ele>968</ele>
        <time>2018-07-14T11:26:20.008Z</time>
      </trkpt>
      <trkpt lat="37.154098" lon="-3.434622">
        <ele>969</ele>
        <time>2018-07-14T11:26:29.008Z</time>
      </trkpt>
      <trkpt lat="37.154093" lon="-3.434712">
        <ele>969.6579968</ele>
        <time>2018-07-14T11:26:36.008Z</time>
      </trkpt>
      <trkpt lat="37.154057" lon="-3.43476">
        <ele>970</ele>
        <time>2018-07-14T11:26:40.008Z</time>
      </trkpt>
      <trkpt lat="37.154032" lon="-3.434808">
        <ele>970</ele>
        <time>2018-07-14T11:26:44.008Z</time>
      </trkpt>
      <trkpt lat="37.153972" lon="-3.434913">
        <ele>971</ele>
        <time>2018-07-14T11:26:52.008Z</time>
      </trkpt>
      <trkpt lat="37.15394" lon="-3.434963">
        <ele>971.6579968</ele>
        <time>2018-07-14T11:26:56.008Z</time>
      </trkpt>
      <trkpt lat="37.153878" lon="-3.435057">
        <ele>973</ele>
        <time>2018-07-14T11:27:04.008Z</time>
      </trkpt>
      <trkpt lat="37.153827" lon="-3.435164">
        <ele>975</ele>
        <time>2018-07-14T11:27:13.008Z</time>
      </trkpt>
      <trkpt lat="37.153778" lon="-3.435279">
        <ele>977</ele>
        <time>2018-07-14T11:27:23.008Z</time>
      </trkpt>
      <trkpt lat="37.153729" lon="-3.435402">
        <ele>980</ele>
        <time>2018-07-14T11:27:31.008Z</time>
      </trkpt>
      <trkpt lat="37.153714" lon="-3.435472">
        <ele>982</ele>
        <time>2018-07-14T11:27:34.008Z</time>
      </trkpt>
      <trkpt lat="37.153689" lon="-3.435533">
        <ele>983</ele>
        <time>2018-07-14T11:27:37.008Z</time>
      </trkpt>
      <trkpt lat="37.153662" lon="-3.435588">
        <ele>984.6579968</ele>
        <time>2018-07-14T11:27:40.008Z</time>
      </trkpt>
      <trkpt lat="37.15364" lon="-3.435667">
        <ele>986</ele>
        <time>2018-07-14T11:27:44.008Z</time>
      </trkpt>
      <trkpt lat="37.153633" lon="-3.43573">
        <ele>987</ele>
        <time>2018-07-14T11:27:47.008Z</time>
      </trkpt>
      <trkpt lat="37.153622" lon="-3.43581">
        <ele>987</ele>
        <time>2018-07-14T11:27:51.008Z</time>
      </trkpt>
      <trkpt lat="37.153611" lon="-3.435914">
        <ele>988</ele>
        <time>2018-07-14T11:27:56.008Z</time>
      </trkpt>
      <trkpt lat="37.153608" lon="-3.436038">
        <ele>990</ele>
        <time>2018-07-14T11:28:02.008Z</time>
      </trkpt>
      <trkpt lat="37.153606" lon="-3.436181">
        <ele>993</ele>
        <time>2018-07-14T11:28:07.008Z</time>
      </trkpt>
      <trkpt lat="37.153613" lon="-3.436315">
        <ele>992</ele>
        <time>2018-07-14T11:28:11.008Z</time>
      </trkpt>
      <trkpt lat="37.15362" lon="-3.436462">
        <ele>992</ele>
        <time>2018-07-14T11:28:15.008Z</time>
      </trkpt>
      <trkpt lat="37.153611" lon="-3.436617">
        <ele>992</ele>
        <time>2018-07-14T11:28:19.008Z</time>
      </trkpt>
      <trkpt lat="37.153636" lon="-3.436762">
        <ele>992</ele>
        <time>2018-07-14T11:28:23.008Z</time>
      </trkpt>
      <trkpt lat="37.15366" lon="-3.436927">
        <ele>992</ele>
        <time>2018-07-14T11:28:27.008Z</time>
      </trkpt>
      <trkpt lat="37.153679" lon="-3.437061">
        <ele>991.3420032</ele>
        <time>2018-07-14T11:28:30.008Z</time>
      </trkpt>
      <trkpt lat="37.153678" lon="-3.4372">
        <ele>991</ele>
        <time>2018-07-14T11:28:33.008Z</time>
      </trkpt>
      <trkpt lat="37.153694" lon="-3.437344">
        <ele>990.3420032</ele>
        <time>2018-07-14T11:28:36.008Z</time>
      </trkpt>
      <trkpt lat="37.153706" lon="-3.437476">
        <ele>989.3420032</ele>
        <time>2018-07-14T11:28:39.008Z</time>
      </trkpt>
      <trkpt lat="37.153736" lon="-3.437621">
        <ele>987.3420032</ele>
        <time>2018-07-14T11:28:43.008Z</time>
      </trkpt>
      <trkpt lat="37.153716" lon="-3.437757">
        <ele>985.3420032</ele>
        <time>2018-07-14T11:28:47.008Z</time>
      </trkpt>
      <trkpt lat="37.153694" lon="-3.437892">
        <ele>984</ele>
        <time>2018-07-14T11:28:51.008Z</time>
      </trkpt>
      <trkpt lat="37.153668" lon="-3.438049">
        <ele>983</ele>
        <time>2018-07-14T11:28:55.008Z</time>
      </trkpt>
      <trkpt lat="37.153694" lon="-3.438212">
        <ele>982.34545666115</ele>
        <time>2018-07-14T11:28:59.008Z</time>
      </trkpt>
      <trkpt lat="37.153749" lon="-3.438345">
        <ele>981</ele>
        <time>2018-07-14T11:29:03.008Z</time>
      </trkpt>
      <trkpt lat="37.1538" lon="-3.43846">
        <ele>981</ele>
        <time>2018-07-14T11:29:07.008Z</time>
      </trkpt>
      <trkpt lat="37.153864" lon="-3.438567">
        <ele>980</ele>
        <time>2018-07-14T11:29:12.008Z</time>
      </trkpt>
      <trkpt lat="37.153948" lon="-3.438641">
        <ele>976.3420032</ele>
        <time>2018-07-14T11:29:19.008Z</time>
      </trkpt>
      <trkpt lat="37.15402" lon="-3.438737">
        <ele>976</ele>
        <time>2018-07-14T11:29:25.008Z</time>
      </trkpt>
      <trkpt lat="37.154077" lon="-3.438857">
        <ele>975.3420032</ele>
        <time>2018-07-14T11:29:33.008Z</time>
      </trkpt>
      <trkpt lat="37.154109" lon="-3.438976">
        <ele>975</ele>
        <time>2018-07-14T11:29:41.008Z</time>
      </trkpt>
      <trkpt lat="37.154146" lon="-3.439097">
        <ele>975.3420032</ele>
        <time>2018-07-14T11:29:49.008Z</time>
      </trkpt>
      <trkpt lat="37.154114" lon="-3.439227">
        <ele>975.6579968</ele>
        <time>2018-07-14T11:29:58.008Z</time>
      </trkpt>
      <trkpt lat="37.154048" lon="-3.439333">
        <ele>976</ele>
        <time>2018-07-14T11:30:06.008Z</time>
      </trkpt>
      <trkpt lat="37.153952" lon="-3.439401">
        <ele>976.3420032</ele>
        <time>2018-07-14T11:30:13.008Z</time>
      </trkpt>
      <trkpt lat="37.153874" lon="-3.439464">
        <ele>977</ele>
        <time>2018-07-14T11:30:20.008Z</time>
      </trkpt>
      <trkpt lat="37.153818" lon="-3.439585">
        <ele>976.6579968</ele>
        <time>2018-07-14T11:30:29.008Z</time>
      </trkpt>
      <trkpt lat="37.153786" lon="-3.43971">
        <ele>978</ele>
        <time>2018-07-14T11:30:36.008Z</time>
      </trkpt>
      <trkpt lat="37.153747" lon="-3.439831">
        <ele>981</ele>
        <time>2018-07-14T11:30:43.008Z</time>
      </trkpt>
      <trkpt lat="37.15369" lon="-3.43994">
        <ele>982</ele>
        <time>2018-07-14T11:30:52.008Z</time>
      </trkpt>
      <trkpt lat="37.153625" lon="-3.44003">
        <ele>983.6579968</ele>
        <time>2018-07-14T11:31:00.008Z</time>
      </trkpt>
      <trkpt lat="37.153587" lon="-3.440153">
        <ele>984</ele>
        <time>2018-07-14T11:31:09.008Z</time>
      </trkpt>
      <trkpt lat="37.153531" lon="-3.440277">
        <ele>985</ele>
        <time>2018-07-14T11:31:18.008Z</time>
      </trkpt>
      <trkpt lat="37.15347" lon="-3.440382">
        <ele>986</ele>
        <time>2018-07-14T11:31:26.008Z</time>
      </trkpt>
      <trkpt lat="37.153413" lon="-3.440487">
        <ele>986</ele>
        <time>2018-07-14T11:31:35.008Z</time>
      </trkpt>
      <trkpt lat="37.153359" lon="-3.440607">
        <ele>988</ele>
        <time>2018-07-14T11:31:42.008Z</time>
      </trkpt>
      <trkpt lat="37.153319" lon="-3.440724">
        <ele>989</ele>
        <time>2018-07-14T11:31:50.008Z</time>
      </trkpt>
      <trkpt lat="37.153376" lon="-3.440846">
        <ele>991</ele>
        <time>2018-07-14T11:31:57.008Z</time>
      </trkpt>
      <trkpt lat="37.153398" lon="-3.440977">
        <ele>991</ele>
        <time>2018-07-14T11:32:04.008Z</time>
      </trkpt>
      <trkpt lat="37.153406" lon="-3.441119">
        <ele>991</ele>
        <time>2018-07-14T11:32:11.008Z</time>
      </trkpt>
      <trkpt lat="37.153414" lon="-3.441255">
        <ele>991</ele>
        <time>2018-07-14T11:32:17.008Z</time>
      </trkpt>
      <trkpt lat="37.15341" lon="-3.441388">
        <ele>992.6579968</ele>
        <time>2018-07-14T11:32:25.008Z</time>
      </trkpt>
      <trkpt lat="37.15337" lon="-3.441514">
        <ele>993</ele>
        <time>2018-07-14T11:32:32.008Z</time>
      </trkpt>
      <trkpt lat="37.153378" lon="-3.44165">
        <ele>994</ele>
        <time>2018-07-14T11:32:40.008Z</time>
      </trkpt>
      <trkpt lat="37.153434" lon="-3.441759">
        <ele>995</ele>
        <time>2018-07-14T11:32:48.008Z</time>
      </trkpt>
      <trkpt lat="37.15344" lon="-3.441894">
        <ele>996</ele>
        <time>2018-07-14T11:32:56.008Z</time>
      </trkpt>
      <trkpt lat="37.153444" lon="-3.442035">
        <ele>998</ele>
        <time>2018-07-14T11:33:03.008Z</time>
      </trkpt>
      <trkpt lat="37.153443" lon="-3.442159">
        <ele>998</ele>
        <time>2018-07-14T11:33:11.008Z</time>
      </trkpt>
      <trkpt lat="37.153438" lon="-3.442298">
        <ele>999</ele>
        <time>2018-07-14T11:33:20.008Z</time>
      </trkpt>
      <trkpt lat="37.153411" lon="-3.442422">
        <ele>1000</ele>
        <time>2018-07-14T11:33:28.008Z</time>
      </trkpt>
      <trkpt lat="37.153371" lon="-3.442537">
        <ele>1001</ele>
        <time>2018-07-14T11:33:35.008Z</time>
      </trkpt>
      <trkpt lat="37.153343" lon="-3.442663">
        <ele>1002</ele>
        <time>2018-07-14T11:33:44.008Z</time>
      </trkpt>
      <trkpt lat="37.153289" lon="-3.442784">
        <ele>1004</ele>
        <time>2018-07-14T11:33:54.008Z</time>
      </trkpt>
      <trkpt lat="37.153194" lon="-3.442847">
        <ele>1004</ele>
        <time>2018-07-14T11:34:02.008Z</time>
      </trkpt>
      <trkpt lat="37.15311" lon="-3.442911">
        <ele>1004</ele>
        <time>2018-07-14T11:34:09.008Z</time>
      </trkpt>
      <trkpt lat="37.153028" lon="-3.442999">
        <ele>1005</ele>
        <time>2018-07-14T11:34:17.008Z</time>
      </trkpt>
      <trkpt lat="37.152944" lon="-3.443066">
        <ele>1007.6579968</ele>
        <time>2018-07-14T11:34:25.008Z</time>
      </trkpt>
      <trkpt lat="37.15289" lon="-3.442956">
        <ele>1009</ele>
        <time>2018-07-14T11:34:38.008Z</time>
      </trkpt>
      <trkpt lat="37.152942" lon="-3.442834">
        <ele>1011.6579968</ele>
        <time>2018-07-14T11:34:47.008Z</time>
      </trkpt>
      <trkpt lat="37.152984" lon="-3.442716">
        <ele>1012</ele>
        <time>2018-07-14T11:34:55.008Z</time>
      </trkpt>
      <trkpt lat="37.15305" lon="-3.442651">
        <ele>1013</ele>
        <time>2018-07-14T11:35:01.008Z</time>
      </trkpt>
      <trkpt lat="37.153124" lon="-3.442599">
        <ele>1015</ele>
        <time>2018-07-14T11:35:08.008Z</time>
      </trkpt>
      <trkpt lat="37.153205" lon="-3.442537">
        <ele>1016</ele>
        <time>2018-07-14T11:35:15.008Z</time>
      </trkpt>
      <trkpt lat="37.153268" lon="-3.442431">
        <ele>1018</ele>
        <time>2018-07-14T11:35:22.008Z</time>
      </trkpt>
      <trkpt lat="37.153268" lon="-3.442309">
        <ele>1019</ele>
        <time>2018-07-14T11:35:30.008Z</time>
      </trkpt>
      <trkpt lat="37.15323" lon="-3.442189">
        <ele>1021.6579968</ele>
        <time>2018-07-14T11:35:38.008Z</time>
      </trkpt>
      <trkpt lat="37.153175" lon="-3.442114">
        <ele>1022.6579968</ele>
        <time>2018-07-14T11:35:45.008Z</time>
      </trkpt>
      <trkpt lat="37.153112" lon="-3.442058">
        <ele>1023</ele>
        <time>2018-07-14T11:35:51.008Z</time>
      </trkpt>
      <trkpt lat="37.15304" lon="-3.441975">
        <ele>1024</ele>
        <time>2018-07-14T11:35:58.008Z</time>
      </trkpt>
      <trkpt lat="37.153005" lon="-3.44185">
        <ele>1026</ele>
        <time>2018-07-14T11:36:07.008Z</time>
      </trkpt>
      <trkpt lat="37.152923" lon="-3.441924">
        <ele>1030</ele>
        <time>2018-07-14T11:36:26.008Z</time>
      </trkpt>
      <trkpt lat="37.15296" lon="-3.442045">
        <ele>1030</ele>
        <time>2018-07-14T11:36:36.008Z</time>
      </trkpt>
      <trkpt lat="37.152948" lon="-3.442179">
        <ele>1031</ele>
        <time>2018-07-14T11:36:46.008Z</time>
      </trkpt>
      <trkpt lat="37.152907" lon="-3.442292">
        <ele>1034</ele>
        <time>2018-07-14T11:36:54.008Z</time>
      </trkpt>
      <trkpt lat="37.152838" lon="-3.44236">
        <ele>1036</ele>
        <time>2018-07-14T11:37:01.008Z</time>
      </trkpt>
      <trkpt lat="37.152762" lon="-3.442398">
        <ele>1037</ele>
        <time>2018-07-14T11:37:08.008Z</time>
      </trkpt>
      <trkpt lat="37.152683" lon="-3.442432">
        <ele>1037</ele>
        <time>2018-07-14T11:37:15.008Z</time>
      </trkpt>
      <trkpt lat="37.152614" lon="-3.442459">
        <ele>1038</ele>
        <time>2018-07-14T11:37:21.008Z</time>
      </trkpt>
      <trkpt lat="37.152545" lon="-3.442473">
        <ele>1038</ele>
        <time>2018-07-14T11:37:26.008Z</time>
      </trkpt>
      <trkpt lat="37.152453" lon="-3.442526">
        <ele>1040</ele>
        <time>2018-07-14T11:37:34.008Z</time>
      </trkpt>
      <trkpt lat="37.15238" lon="-3.442595">
        <ele>1041.6579968</ele>
        <time>2018-07-14T11:37:41.008Z</time>
      </trkpt>
      <trkpt lat="37.152292" lon="-3.442651">
        <ele>1043.6579968</ele>
        <time>2018-07-14T11:37:49.008Z</time>
      </trkpt>
      <trkpt lat="37.152207" lon="-3.442672">
        <ele>1045</ele>
        <time>2018-07-14T11:37:57.008Z</time>
      </trkpt>
      <trkpt lat="37.152115" lon="-3.442668">
        <ele>1046.6579968</ele>
        <time>2018-07-14T11:38:04.008Z</time>
      </trkpt>
      <trkpt lat="37.15201" lon="-3.442674">
        <ele>1048.6579968</ele>
        <time>2018-07-14T11:38:15.008Z</time>
      </trkpt>
      <trkpt lat="37.151904" lon="-3.442718">
        <ele>1051</ele>
        <time>2018-07-14T11:38:22.008Z</time>
      </trkpt>
      <trkpt lat="37.151816" lon="-3.442789">
        <ele>1052</ele>
        <time>2018-07-14T11:38:33.008Z</time>
      </trkpt>
      <trkpt lat="37.151714" lon="-3.442837">
        <ele>1054</ele>
        <time>2018-07-14T11:38:41.008Z</time>
      </trkpt>
      <trkpt lat="37.151587" lon="-3.442841">
        <ele>1058.6579968</ele>
        <time>2018-07-14T11:38:50.008Z</time>
      </trkpt>
      <trkpt lat="37.151469" lon="-3.442874">
        <ele>1060</ele>
        <time>2018-07-14T11:38:59.008Z</time>
      </trkpt>
      <trkpt lat="37.151351" lon="-3.442955">
        <ele>1061</ele>
        <time>2018-07-14T11:39:09.008Z</time>
      </trkpt>
      <trkpt lat="37.151271" lon="-3.44301">
        <ele>1062</ele>
        <time>2018-07-14T11:39:16.008Z</time>
      </trkpt>
      <trkpt lat="37.151212" lon="-3.443081">
        <ele>1062</ele>
        <time>2018-07-14T11:39:23.008Z</time>
      </trkpt>
      <trkpt lat="37.151188" lon="-3.443474">
        <ele>1069.90002441406</ele>
        <time>2018-07-14T11:39:56.009Z</time>
      </trkpt>
      <trkpt lat="37.151158" lon="-3.443523">
        <ele>1072</ele>
        <time>2018-07-14T11:40:15.009Z</time>
      </trkpt>
      <trkpt lat="37.151159" lon="-3.443654">
        <ele>1072</ele>
        <time>2018-07-14T11:40:31.009Z</time>
      </trkpt>
      <trkpt lat="37.151087" lon="-3.443748">
        <ele>1073</ele>
        <time>2018-07-14T11:40:44.009Z</time>
      </trkpt>
      <trkpt lat="37.151007" lon="-3.443825">
        <ele>1075</ele>
        <time>2018-07-14T11:40:58.009Z</time>
      </trkpt>
      <trkpt lat="37.150914" lon="-3.443891">
        <ele>1078.86900312324</ele>
        <time>2018-07-14T11:41:11.009Z</time>
      </trkpt>
      <trkpt lat="37.150829" lon="-3.443964">
        <ele>1081</ele>
        <time>2018-07-14T11:41:21.009Z</time>
      </trkpt>
      <trkpt lat="37.150735" lon="-3.444027">
        <ele>1083.86900312324</ele>
        <time>2018-07-14T11:41:35.009Z</time>
      </trkpt>
      <trkpt lat="37.150628" lon="-3.444052">
        <ele>1087</ele>
        <time>2018-07-14T11:41:42.009Z</time>
      </trkpt>
      <trkpt lat="37.150531" lon="-3.444095">
        <ele>1088</ele>
        <time>2018-07-14T11:41:50.009Z</time>
      </trkpt>
      <trkpt lat="37.150452" lon="-3.444181">
        <ele>1089</ele>
        <time>2018-07-14T11:41:59.009Z</time>
      </trkpt>
      <trkpt lat="37.150381" lon="-3.444274">
        <ele>1090</ele>
        <time>2018-07-14T11:42:08.009Z</time>
      </trkpt>
      <trkpt lat="37.150284" lon="-3.444337">
        <ele>1091</ele>
        <time>2018-07-14T11:42:16.009Z</time>
      </trkpt>
      <trkpt lat="37.150198" lon="-3.444417">
        <ele>1092</ele>
        <time>2018-07-14T11:42:22.009Z</time>
      </trkpt>
      <trkpt lat="37.150096" lon="-3.444451">
        <ele>1095</ele>
        <time>2018-07-14T11:42:30.009Z</time>
      </trkpt>
      <trkpt lat="37.150082" lon="-3.444581">
        <ele>1099.86900312324</ele>
        <time>2018-07-14T11:42:47.009Z</time>
      </trkpt>
      <trkpt lat="37.150002" lon="-3.444599">
        <ele>1103</ele>
        <time>2018-07-14T11:43:08.009Z</time>
      </trkpt>
      <trkpt lat="37.149941" lon="-3.444521">
        <ele>1107</ele>
        <time>2018-07-14T11:43:28.009Z</time>
      </trkpt>
      <trkpt lat="37.149851" lon="-3.444469">
        <ele>1110</ele>
        <time>2018-07-14T11:43:54.009Z</time>
      </trkpt>
      <trkpt lat="37.149762" lon="-3.444537">
        <ele>1113.86900312324</ele>
        <time>2018-07-14T11:44:17.009Z</time>
      </trkpt>
      <trkpt lat="37.149798" lon="-3.444655">
        <ele>1117</ele>
        <time>2018-07-14T11:44:35.009Z</time>
      </trkpt>
      <trkpt lat="37.149753" lon="-3.444769">
        <ele>1123</ele>
        <time>2018-07-14T11:44:51.009Z</time>
      </trkpt>
      <trkpt lat="37.1498" lon="-3.444879">
        <ele>1125</ele>
        <time>2018-07-14T11:45:04.009Z</time>
      </trkpt>
      <trkpt lat="37.149842" lon="-3.444996">
        <ele>1128</ele>
        <time>2018-07-14T11:45:19.009Z</time>
      </trkpt>
      <trkpt lat="37.149802" lon="-3.445097">
        <ele>1131</ele>
        <time>2018-07-14T11:45:42.009Z</time>
      </trkpt>
      <trkpt lat="37.149723" lon="-3.445127">
        <ele>1131</ele>
        <time>2018-07-14T11:45:48.009Z</time>
      </trkpt>
      <trkpt lat="37.149627" lon="-3.445158">
        <ele>1133</ele>
        <time>2018-07-14T11:45:57.009Z</time>
      </trkpt>
      <trkpt lat="37.149522" lon="-3.445188">
        <ele>1134</ele>
        <time>2018-07-14T11:46:08.009Z</time>
      </trkpt>
      <trkpt lat="37.149458" lon="-3.445269">
        <ele>1136</ele>
        <time>2018-07-14T11:46:21.009Z</time>
      </trkpt>
      <trkpt lat="37.149418" lon="-3.445252">
        <ele>1138</ele>
        <time>2018-07-14T11:46:29.009Z</time>
      </trkpt>
      <trkpt lat="37.149375" lon="-3.445209">
        <ele>1139.86900312324</ele>
        <time>2018-07-14T11:46:37.009Z</time>
      </trkpt>
      <trkpt lat="37.149214" lon="-3.445289">
        <ele>1140</ele>
        <time>2018-07-14T11:46:45.009Z</time>
      </trkpt>
      <trkpt lat="37.149075" lon="-3.445485">
        <ele>1140</ele>
        <time>2018-07-14T11:46:53.009Z</time>
      </trkpt>
      <trkpt lat="37.148947" lon="-3.445699">
        <ele>1140</ele>
        <time>2018-07-14T11:47:01.009Z</time>
      </trkpt>
      <trkpt lat="37.148888" lon="-3.445815">
        <ele>1139</ele>
        <time>2018-07-14T11:47:06.009Z</time>
      </trkpt>
      <trkpt lat="37.148857" lon="-3.445941">
        <ele>1139</ele>
        <time>2018-07-14T11:47:13.009Z</time>
      </trkpt>
      <trkpt lat="37.148839" lon="-3.446092">
        <ele>1140</ele>
        <time>2018-07-14T11:47:18.009Z</time>
      </trkpt>
      <trkpt lat="37.148726" lon="-3.446325">
        <ele>1140</ele>
        <time>2018-07-14T11:47:27.009Z</time>
      </trkpt>
      <trkpt lat="37.148573" lon="-3.446515">
        <ele>1142</ele>
        <time>2018-07-14T11:47:35.009Z</time>
      </trkpt>
      <trkpt lat="37.148504" lon="-3.446619">
        <ele>1143</ele>
        <time>2018-07-14T11:47:40.009Z</time>
      </trkpt>
      <trkpt lat="37.148418" lon="-3.446717">
        <ele>1144</ele>
        <time>2018-07-14T11:47:45.009Z</time>
      </trkpt>
      <trkpt lat="37.148338" lon="-3.446809">
        <ele>1145</ele>
        <time>2018-07-14T11:47:51.009Z</time>
      </trkpt>
      <trkpt lat="37.148224" lon="-3.447017">
        <ele>1147.86899367688</ele>
        <time>2018-07-14T11:48:00.009Z</time>
      </trkpt>
      <trkpt lat="37.148131" lon="-3.447151">
        <ele>1149.86899367688</ele>
        <time>2018-07-14T11:48:08.009Z</time>
      </trkpt>
      <trkpt lat="37.1481" lon="-3.447246">
        <ele>1150.86900312324</ele>
        <time>2018-07-14T11:48:15.009Z</time>
      </trkpt>
      <trkpt lat="37.148045" lon="-3.447333">
        <ele>1151</ele>
        <time>2018-07-14T11:48:20.009Z</time>
      </trkpt>
      <trkpt lat="37.147975" lon="-3.44746">
        <ele>1152.86900312324</ele>
        <time>2018-07-14T11:48:29.009Z</time>
      </trkpt>
      <trkpt lat="37.147949" lon="-3.447533">
        <ele>1153</ele>
        <time>2018-07-14T11:48:34.009Z</time>
      </trkpt>
      <trkpt lat="37.147911" lon="-3.447606">
        <ele>1154</ele>
        <time>2018-07-14T11:48:40.009Z</time>
      </trkpt>
      <trkpt lat="37.147852" lon="-3.447681">
        <ele>1156</ele>
        <time>2018-07-14T11:48:45.009Z</time>
      </trkpt>
      <trkpt lat="37.147816" lon="-3.447772">
        <ele>1157</ele>
        <time>2018-07-14T11:48:52.009Z</time>
      </trkpt>
      <trkpt lat="37.147798" lon="-3.44786">
        <ele>1158</ele>
        <time>2018-07-14T11:48:58.009Z</time>
      </trkpt>
      <trkpt lat="37.147764" lon="-3.447931">
        <ele>1159</ele>
        <time>2018-07-14T11:49:03.009Z</time>
      </trkpt>
      <trkpt lat="37.1477" lon="-3.448137">
        <ele>1161</ele>
        <time>2018-07-14T11:49:11.009Z</time>
      </trkpt>
      <trkpt lat="37.147627" lon="-3.448247">
        <ele>1162</ele>
        <time>2018-07-14T11:49:16.009Z</time>
      </trkpt>
      <trkpt lat="37.147555" lon="-3.448354">
        <ele>1161.13099687676</ele>
        <time>2018-07-14T11:49:21.009Z</time>
      </trkpt>
      <trkpt lat="37.147449" lon="-3.44847">
        <ele>1157.13100632312</ele>
        <time>2018-07-14T11:49:28.009Z</time>
      </trkpt>
      <trkpt lat="37.147385" lon="-3.448499">
        <ele>1157.86899367688</ele>
        <time>2018-07-14T11:49:34.009Z</time>
      </trkpt>
      <trkpt lat="37.147332" lon="-3.448523">
        <ele>1157</ele>
        <time>2018-07-14T11:49:41.009Z</time>
      </trkpt>
      <trkpt lat="37.147285" lon="-3.448539">
        <ele>1157.13099687676</ele>
        <time>2018-07-14T11:49:47.009Z</time>
      </trkpt>
      <trkpt lat="37.147253" lon="-3.44857">
        <ele>1157</ele>
        <time>2018-07-14T11:49:52.009Z</time>
      </trkpt>
      <trkpt lat="37.147217" lon="-3.448594">
        <ele>1158</ele>
        <time>2018-07-14T11:49:57.009Z</time>
      </trkpt>
      <trkpt lat="37.14718" lon="-3.448591">
        <ele>1157.13100632312</ele>
        <time>2018-07-14T11:50:02.009Z</time>
      </trkpt>
      <trkpt lat="37.147142" lon="-3.448577">
        <ele>1157</ele>
        <time>2018-07-14T11:50:13.009Z</time>
      </trkpt>
      <trkpt lat="37.147104" lon="-3.448582">
        <ele>1156</ele>
        <time>2018-07-14T11:50:29.009Z</time>
      </trkpt>
      <trkpt lat="37.147066" lon="-3.448598">
        <ele>1156</ele>
        <time>2018-07-14T11:50:34.009Z</time>
      </trkpt>
      <trkpt lat="37.147017" lon="-3.448618">
        <ele>1156</ele>
        <time>2018-07-14T11:50:42.009Z</time>
      </trkpt>
      <trkpt lat="37.146902" lon="-3.448681">
        <ele>1156.86900312324</ele>
        <time>2018-07-14T11:50:49.009Z</time>
      </trkpt>
      <trkpt lat="37.146803" lon="-3.448713">
        <ele>1157</ele>
        <time>2018-07-14T11:51:00.009Z</time>
      </trkpt>
      <trkpt lat="37.146705" lon="-3.448698">
        <ele>1157</ele>
        <time>2018-07-14T11:51:13.009Z</time>
      </trkpt>
      <trkpt lat="37.146599" lon="-3.448658">
        <ele>1158</ele>
        <time>2018-07-14T11:51:23.009Z</time>
      </trkpt>
      <trkpt lat="37.146483" lon="-3.448649">
        <ele>1158</ele>
        <time>2018-07-14T11:51:31.009Z</time>
      </trkpt>
      <trkpt lat="37.14632" lon="-3.448643">
        <ele>1157</ele>
        <time>2018-07-14T11:51:49.009Z</time>
      </trkpt>
      <trkpt lat="37.146176" lon="-3.448638">
        <ele>1160</ele>
        <time>2018-07-14T11:52:01.009Z</time>
      </trkpt>
      <trkpt lat="37.146085" lon="-3.448632">
        <ele>1161</ele>
        <time>2018-07-14T11:52:12.009Z</time>
      </trkpt>
      <trkpt lat="37.145985" lon="-3.448651">
        <ele>1163</ele>
        <time>2018-07-14T11:52:24.009Z</time>
      </trkpt>
      <trkpt lat="37.145886" lon="-3.448675">
        <ele>1166</ele>
        <time>2018-07-14T11:52:36.009Z</time>
      </trkpt>
      <trkpt lat="37.145791" lon="-3.448738">
        <ele>1168</ele>
        <time>2018-07-14T11:52:46.009Z</time>
      </trkpt>
      <trkpt lat="37.145724" lon="-3.448836">
        <ele>1169</ele>
        <time>2018-07-14T11:52:57.009Z</time>
      </trkpt>
      <trkpt lat="37.145625" lon="-3.4489">
        <ele>1177.86899367688</ele>
        <time>2018-07-14T11:53:06.009Z</time>
      </trkpt>
      <trkpt lat="37.145535" lon="-3.448964">
        <ele>1179</ele>
        <time>2018-07-14T11:53:14.009Z</time>
      </trkpt>
      <trkpt lat="37.145433" lon="-3.44901">
        <ele>1188.86899367688</ele>
        <time>2018-07-14T11:53:26.009Z</time>
      </trkpt>
      <trkpt lat="37.145315" lon="-3.449046">
        <ele>1195</ele>
        <time>2018-07-14T11:53:43.009Z</time>
      </trkpt>
      <trkpt lat="37.145146" lon="-3.449072">
        <ele>1195.81548252177</ele>
        <time>2018-07-14T11:53:52.009Z</time>
      </trkpt>
      <trkpt lat="37.145061" lon="-3.449232">
        <ele>1205.13100632312</ele>
        <time>2018-07-14T11:54:20.009Z</time>
      </trkpt>
      <trkpt lat="37.144943" lon="-3.449294">
        <ele>1206</ele>
        <time>2018-07-14T11:54:41.009Z</time>
      </trkpt>
      <trkpt lat="37.144852" lon="-3.449342">
        <ele>1205</ele>
        <time>2018-07-14T11:54:59.003Z</time>
      </trkpt>
      <trkpt lat="37.14475" lon="-3.449446">
        <ele>1206.86900312324</ele>
        <time>2018-07-14T11:55:09.009Z</time>
      </trkpt>
      <trkpt lat="37.144594" lon="-3.449499">
        <ele>1213</ele>
        <time>2018-07-14T11:55:28.009Z</time>
      </trkpt>
      <trkpt lat="37.144446" lon="-3.44955">
        <ele>1204.52402529248</ele>
        <time>2018-07-14T11:55:42.009Z</time>
      </trkpt>
      <trkpt lat="37.144267" lon="-3.449671">
        <ele>1202</ele>
        <time>2018-07-14T11:56:00.006Z</time>
      </trkpt>
      <trkpt lat="37.144167" lon="-3.449675">
        <ele>1201.13099687676</ele>
        <time>2018-07-14T11:56:05.009Z</time>
      </trkpt>
      <trkpt lat="37.144077" lon="-3.449769">
        <ele>1206.47597470752</ele>
        <time>2018-07-14T11:56:20.009Z</time>
      </trkpt>
      <trkpt lat="37.144017" lon="-3.449885">
        <ele>1211.63099444725</ele>
        <time>2018-07-14T11:56:29.009Z</time>
      </trkpt>
      <trkpt lat="37.143947" lon="-3.449989">
        <ele>1205.26201264624</ele>
        <time>2018-07-14T11:56:46.009Z</time>
      </trkpt>
      <trkpt lat="37.143805" lon="-3.450197">
        <ele>1206</ele>
        <time>2018-07-14T11:57:07.009Z</time>
      </trkpt>
      <trkpt lat="37.143684" lon="-3.450344">
        <ele>1192.3900238077</ele>
        <time>2018-07-14T11:57:18.010Z</time>
      </trkpt>
      <trkpt lat="37.143645" lon="-3.450495">
        <ele>1195</ele>
        <time>2018-07-14T11:57:24.009Z</time>
      </trkpt>
      <trkpt lat="37.143608" lon="-3.450668">
        <ele>1205</ele>
        <time>2018-07-14T11:57:38.009Z</time>
      </trkpt>
      <trkpt lat="37.143615" lon="-3.450812">
        <ele>1205.86500947212</ele>
        <time>2018-07-14T11:57:47.005Z</time>
      </trkpt>
      <trkpt lat="37.143524" lon="-3.450867">
        <ele>1209.81549722362</ele>
        <time>2018-07-14T11:57:55.009Z</time>
      </trkpt>
      <trkpt lat="37.143406" lon="-3.450988">
        <ele>1209.26201264624</ele>
        <time>2018-07-14T11:58:06.009Z</time>
      </trkpt>
      <trkpt lat="37.143233" lon="-3.451027">
        <ele>1218.86900312324</ele>
        <time>2018-07-14T11:58:25.009Z</time>
      </trkpt>
      <trkpt lat="37.143134" lon="-3.451103">
        <ele>1216</ele>
        <time>2018-07-14T11:58:38.009Z</time>
      </trkpt>
      <trkpt lat="37.143027" lon="-3.451234">
        <ele>1230</ele>
        <time>2018-07-14T11:58:53.009Z</time>
      </trkpt>
      <trkpt lat="37.14291" lon="-3.451283">
        <ele>1237.08302186268</ele>
        <time>2018-07-14T11:59:05.009Z</time>
      </trkpt>
      <trkpt lat="37.142724" lon="-3.451244">
        <ele>1223</ele>
        <time>2018-07-14T11:59:18.009Z</time>
      </trkpt>
      <trkpt lat="37.142587" lon="-3.451194">
        <ele>1215.86899367688</ele>
        <time>2018-07-14T11:59:32.009Z</time>
      </trkpt>
      <trkpt lat="37.142477" lon="-3.451246">
        <ele>1219</ele>
        <time>2018-07-14T11:59:46.009Z</time>
      </trkpt>
      <trkpt lat="37.142334" lon="-3.451266">
        <ele>1217.73800624648</ele>
        <time>2018-07-14T11:59:57.009Z</time>
      </trkpt>
      <trkpt lat="37.142212" lon="-3.451373">
        <ele>1225</ele>
        <time>2018-07-14T12:00:12.009Z</time>
      </trkpt>
      <trkpt lat="37.142103" lon="-3.451376">
        <ele>1228</ele>
        <time>2018-07-14T12:00:19.009Z</time>
      </trkpt>
      <trkpt lat="37.14195" lon="-3.451357">
        <ele>1229</ele>
        <time>2018-07-14T12:00:36.009Z</time>
      </trkpt>
      <trkpt lat="37.14181" lon="-3.451358">
        <ele>1225</ele>
        <time>2018-07-14T12:00:51.009Z</time>
      </trkpt>
      <trkpt lat="37.141716" lon="-3.451482">
        <ele>1234.86900312324</ele>
        <time>2018-07-14T12:01:05.009Z</time>
      </trkpt>
      <trkpt lat="37.141813" lon="-3.45156">
        <ele>1238</ele>
        <time>2018-07-14T12:01:28.018Z</time>
      </trkpt>
      <trkpt lat="37.141773" lon="-3.451696">
        <ele>1244</ele>
        <time>2018-07-14T12:01:45.009Z</time>
      </trkpt>
      <trkpt lat="37.141662" lon="-3.451762">
        <ele>1248.86900312324</ele>
        <time>2018-07-14T12:01:59.009Z</time>
      </trkpt>
      <trkpt lat="37.141545" lon="-3.451758">
        <ele>1255.12699042548</ele>
        <time>2018-07-14T12:02:11.013Z</time>
      </trkpt>
      <trkpt lat="37.141445" lon="-3.451838">
        <ele>1261</ele>
        <time>2018-07-14T12:03:00.009Z</time>
      </trkpt>
      <trkpt lat="37.141344" lon="-3.451828">
        <ele>1259.52402529248</ele>
        <time>2018-07-14T12:03:24.009Z</time>
      </trkpt>
      <trkpt lat="37.141255" lon="-3.451906">
        <ele>1266</ele>
        <time>2018-07-14T12:03:33.009Z</time>
      </trkpt>
      <trkpt lat="37.141285" lon="-3.452048">
        <ele>1268.60698103064</ele>
        <time>2018-07-14T12:03:50.009Z</time>
      </trkpt>
      <trkpt lat="37.141248" lon="-3.452177">
        <ele>1275.60700936972</ele>
        <time>2018-07-14T12:04:05.009Z</time>
      </trkpt>
      <trkpt lat="37.141093" lon="-3.452407">
        <ele>1288</ele>
        <time>2018-07-14T12:04:23.009Z</time>
      </trkpt>
      <trkpt lat="37.141029" lon="-3.452491">
        <ele>1286</ele>
        <time>2018-07-14T12:04:54.009Z</time>
      </trkpt>
      <trkpt lat="37.140997" lon="-3.452326">
        <ele>1290.47597470752</ele>
        <time>2018-07-14T12:05:10.009Z</time>
      </trkpt>
      <trkpt lat="37.140967" lon="-3.452166">
        <ele>1304</ele>
        <time>2018-07-14T12:05:27.001Z</time>
      </trkpt>
      <trkpt lat="37.140848" lon="-3.452195">
        <ele>1308</ele>
        <time>2018-07-14T12:05:41.005Z</time>
      </trkpt>
      <trkpt lat="37.14075" lon="-3.452105">
        <ele>1312.62805283908</ele>
        <time>2018-07-14T12:05:54.202Z</time>
      </trkpt>
      <trkpt lat="37.140643" lon="-3.452006">
        <ele>1301.26201264624</ele>
        <time>2018-07-14T12:06:18.009Z</time>
      </trkpt>
      <trkpt lat="37.140541" lon="-3.451902">
        <ele>1303</ele>
        <time>2018-07-14T12:06:33.009Z</time>
      </trkpt>
      <trkpt lat="37.140465" lon="-3.451805">
        <ele>1309</ele>
        <time>2018-07-14T12:06:43.009Z</time>
      </trkpt>
      <trkpt lat="37.140267" lon="-3.451731">
        <ele>1314</ele>
        <time>2018-07-14T12:06:58.009Z</time>
      </trkpt>
      <trkpt lat="37.140257" lon="-3.451569">
        <ele>1319.86799528966</ele>
        <time>2018-07-14T12:07:10.008Z</time>
      </trkpt>
      <trkpt lat="37.140181" lon="-3.45147">
        <ele>1335.86299055372</ele>
        <time>2018-07-14T12:07:34.003Z</time>
      </trkpt>
      <trkpt lat="37.140236" lon="-3.451283">
        <ele>1325.86138111955</ele>
        <time>2018-07-14T12:07:53.210Z</time>
      </trkpt>
      <trkpt lat="37.140181" lon="-3.451141">
        <ele>1325</ele>
        <time>2018-07-14T12:08:06.003Z</time>
      </trkpt>
      <trkpt lat="37.140161" lon="-3.451009">
        <ele>1328</ele>
        <time>2018-07-14T12:08:18.010Z</time>
      </trkpt>
      <trkpt lat="37.140034" lon="-3.451088">
        <ele>1330</ele>
        <time>2018-07-14T12:08:29.307Z</time>
      </trkpt>
      <trkpt lat="37.139889" lon="-3.450985">
        <ele>1331</ele>
        <time>2018-07-14T12:08:37.209Z</time>
      </trkpt>
      <trkpt lat="37.13974" lon="-3.450912">
        <ele>1328.26199375352</ele>
        <time>2018-07-14T12:08:45.009Z</time>
      </trkpt>
      <trkpt lat="37.139635" lon="-3.450836">
        <ele>1322.86500947212</ele>
        <time>2018-07-14T12:08:57.005Z</time>
      </trkpt>
      <trkpt lat="37.139543" lon="-3.450894">
        <ele>1322.87000153602</ele>
        <time>2018-07-14T12:09:05.010Z</time>
      </trkpt>
      <trkpt lat="37.139396" lon="-3.450921">
        <ele>1324.86900312324</ele>
        <time>2018-07-14T12:09:13.009Z</time>
      </trkpt>
      <trkpt lat="37.139304" lon="-3.450736">
        <ele>1329</ele>
        <time>2018-07-14T12:09:25.014Z</time>
      </trkpt>
      <trkpt lat="37.139196" lon="-3.450641">
        <ele>1331</ele>
        <time>2018-07-14T12:09:35.009Z</time>
      </trkpt>
      <trkpt lat="37.139037" lon="-3.450603">
        <ele>1335.62800163842</ele>
        <time>2018-07-14T12:09:48.512Z</time>
      </trkpt>
      <trkpt lat="37.138934" lon="-3.450596">
        <ele>1337</ele>
        <time>2018-07-14T12:09:56.009Z</time>
      </trkpt>
      <trkpt lat="37.13886" lon="-3.450698">
        <ele>1320.86900312324</ele>
        <time>2018-07-14T12:10:37.009Z</time>
      </trkpt>
      <trkpt lat="37.138753" lon="-3.450628">
        <ele>1318</ele>
        <time>2018-07-14T12:10:58.206Z</time>
      </trkpt>
      <trkpt lat="37.138701" lon="-3.450466">
        <ele>1318</ele>
        <time>2018-07-14T12:11:06.009Z</time>
      </trkpt>
      <trkpt lat="37.138622" lon="-3.450379">
        <ele>1318</ele>
        <time>2018-07-14T12:11:15.013Z</time>
      </trkpt>
      <trkpt lat="37.138527" lon="-3.450273">
        <ele>1319</ele>
        <time>2018-07-14T12:11:28.009Z</time>
      </trkpt>
      <trkpt lat="37.138418" lon="-3.450233">
        <ele>1319</ele>
        <time>2018-07-14T12:11:37.009Z</time>
      </trkpt>
      <trkpt lat="37.138425" lon="-3.450094">
        <ele>1326</ele>
        <time>2018-07-14T12:11:49.009Z</time>
      </trkpt>
      <trkpt lat="37.138358" lon="-3.450235">
        <ele>1325.86900312324</ele>
        <time>2018-07-14T12:12:09.009Z</time>
      </trkpt>
      <trkpt lat="37.138232" lon="-3.450184">
        <ele>1327</ele>
        <time>2018-07-14T12:12:24.009Z</time>
      </trkpt>
      <trkpt lat="37.138266" lon="-3.450019">
        <ele>1339</ele>
        <time>2018-07-14T12:12:46.009Z</time>
      </trkpt>
      <trkpt lat="37.138232" lon="-3.4499">
        <ele>1348.86899367688</ele>
        <time>2018-07-14T12:13:02.009Z</time>
      </trkpt>
      <trkpt lat="37.138212" lon="-3.449731">
        <ele>1346</ele>
        <time>2018-07-14T12:13:32.009Z</time>
      </trkpt>
      <trkpt lat="37.138158" lon="-3.449562">
        <ele>1343.13100632312</ele>
        <time>2018-07-14T12:13:44.009Z</time>
      </trkpt>
      <trkpt lat="37.138093" lon="-3.449465">
        <ele>1354.6100096</ele>
        <time>2018-07-14T12:14:06.009Z</time>
      </trkpt>
      <trkpt lat="37.138095" lon="-3.449309">
        <ele>1357.936</ele>
        <time>2018-07-14T12:14:35.203Z</time>
      </trkpt>
      <trkpt lat="37.138045" lon="-3.449149">
        <ele>1361.7460096</ele>
        <time>2018-07-14T12:14:51.512Z</time>
      </trkpt>
      <trkpt lat="37.138031" lon="-3.449003">
        <ele>1371</ele>
        <time>2018-07-14T12:15:21.009Z</time>
      </trkpt>
      <trkpt lat="37.137945" lon="-3.448939">
        <ele>1371</ele>
        <time>2018-07-14T12:15:34.008Z</time>
      </trkpt>
      <trkpt lat="37.137829" lon="-3.448903">
        <ele>1371</ele>
        <time>2018-07-14T12:15:55.009Z</time>
      </trkpt>
      <trkpt lat="37.137832" lon="-3.448759">
        <ele>1372</ele>
        <time>2018-07-14T12:16:11.006Z</time>
      </trkpt>
      <trkpt lat="37.137775" lon="-3.448624">
        <ele>1375</ele>
        <time>2018-07-14T12:16:27.009Z</time>
      </trkpt>
      <trkpt lat="37.137854" lon="-3.448525">
        <ele>1375</ele>
        <time>2018-07-14T12:16:52.009Z</time>
      </trkpt>
      <trkpt lat="37.137926" lon="-3.448432">
        <ele>1380.73798735376</ele>
        <time>2018-07-14T12:17:24.009Z</time>
      </trkpt>
      <trkpt lat="37.138119" lon="-3.448472">
        <ele>1389.08295573817</ele>
        <time>2018-07-14T12:17:40.009Z</time>
      </trkpt>
      <trkpt lat="37.138264" lon="-3.448364">
        <ele>1390</ele>
        <time>2018-07-14T12:18:21.009Z</time>
      </trkpt>
      <trkpt lat="37.138168" lon="-3.448278">
        <ele>1396</ele>
        <time>2018-07-14T12:18:34.009Z</time>
      </trkpt>
      <trkpt lat="37.138143" lon="-3.448134">
        <ele>1393</ele>
        <time>2018-07-14T12:19:02.007Z</time>
      </trkpt>
      <trkpt lat="37.13804" lon="-3.448096">
        <ele>1392</ele>
        <time>2018-07-14T12:19:22.005Z</time>
      </trkpt>
      <trkpt lat="37.13807" lon="-3.447949">
        <ele>1393</ele>
        <time>2018-07-14T12:19:34.009Z</time>
      </trkpt>
      <trkpt lat="37.138102" lon="-3.447829">
        <ele>1395</ele>
        <time>2018-07-14T12:19:42.003Z</time>
      </trkpt>
      <trkpt lat="37.13816" lon="-3.4477">
        <ele>1398</ele>
        <time>2018-07-14T12:19:50.000Z</time>
      </trkpt>
      <trkpt lat="37.138075" lon="-3.44762">
        <ele>1405.86099377928</ele>
        <time>2018-07-14T12:20:10.001Z</time>
      </trkpt>
      <trkpt lat="37.138008" lon="-3.447494">
        <ele>1409.86599851522</ele>
        <time>2018-07-14T12:20:26.006Z</time>
      </trkpt>
      <trkpt lat="37.137975" lon="-3.447308">
        <ele>1428.67400542727</ele>
        <time>2018-07-14T12:20:56.814Z</time>
      </trkpt>
      <trkpt lat="37.13806" lon="-3.447418">
        <ele>1412.87599518726</ele>
        <time>2018-07-14T12:21:20.016Z</time>
      </trkpt>
      <trkpt lat="37.138162" lon="-3.447414">
        <ele>1427.86899367688</ele>
        <time>2018-07-14T12:21:32.009Z</time>
      </trkpt>
      <trkpt lat="37.138246" lon="-3.447304">
        <ele>1431</ele>
        <time>2018-07-14T12:22:01.013Z</time>
      </trkpt>
      <trkpt lat="37.138345" lon="-3.447275">
        <ele>1429.13299370232</ele>
        <time>2018-07-14T12:22:09.007Z</time>
      </trkpt>
      <trkpt lat="37.138461" lon="-3.447307">
        <ele>1433</ele>
        <time>2018-07-14T12:22:28.009Z</time>
      </trkpt>
      <trkpt lat="37.138537" lon="-3.44741">
        <ele>1445.86899367688</ele>
        <time>2018-07-14T12:23:24.009Z</time>
      </trkpt>
      <trkpt lat="37.138558" lon="-3.447266">
        <ele>1457</ele>
        <time>2018-07-14T12:23:56.009Z</time>
      </trkpt>
      <trkpt lat="37.138578" lon="-3.447138">
        <ele>1459</ele>
        <time>2018-07-14T12:24:12.009Z</time>
      </trkpt>
      <trkpt lat="37.138492" lon="-3.447075">
        <ele>1456.13100632312</ele>
        <time>2018-07-14T12:24:28.009Z</time>
      </trkpt>
      <trkpt lat="37.138384" lon="-3.447055">
        <ele>1458</ele>
        <time>2018-07-14T12:24:42.003Z</time>
      </trkpt>
      <trkpt lat="37.138324" lon="-3.446951">
        <ele>1460.86299055372</ele>
        <time>2018-07-14T12:24:56.003Z</time>
      </trkpt>
      <trkpt lat="37.13823" lon="-3.446875">
        <ele>1463</ele>
        <time>2018-07-14T12:25:08.005Z</time>
      </trkpt>
      <trkpt lat="37.138281" lon="-3.446749">
        <ele>1465</ele>
        <time>2018-07-14T12:25:20.005Z</time>
      </trkpt>
      <trkpt lat="37.138285" lon="-3.446593">
        <ele>1465</ele>
        <time>2018-07-14T12:25:33.012Z</time>
      </trkpt>
      <trkpt lat="37.138258" lon="-3.446416">
        <ele>1469</ele>
        <time>2018-07-14T12:25:45.007Z</time>
      </trkpt>
      <trkpt lat="37.138342" lon="-3.446505">
        <ele>1471</ele>
        <time>2018-07-14T12:26:08.009Z</time>
      </trkpt>
      <trkpt lat="37.138442" lon="-3.446535">
        <ele>1474.72797788188</ele>
        <time>2018-07-14T12:26:18.004Z</time>
      </trkpt>
      <trkpt lat="37.138548" lon="-3.446609">
        <ele>1475.13100632312</ele>
        <time>2018-07-14T12:26:30.009Z</time>
      </trkpt>
      <trkpt lat="37.138568" lon="-3.44674">
        <ele>1473</ele>
        <time>2018-07-14T12:26:38.014Z</time>
      </trkpt>
      <trkpt lat="37.138718" lon="-3.446585">
        <ele>1482</ele>
        <time>2018-07-14T12:27:32.011Z</time>
      </trkpt>
      <trkpt lat="37.138862" lon="-3.446378">
        <ele>1486</ele>
        <time>2018-07-14T12:27:45.010Z</time>
      </trkpt>
      <trkpt lat="37.138742" lon="-3.446478">
        <ele>1486.12499359992</ele>
        <time>2018-07-14T12:27:55.015Z</time>
      </trkpt>
      <trkpt lat="37.138656" lon="-3.446385">
        <ele>1485</ele>
        <time>2018-07-14T12:28:13.007Z</time>
      </trkpt>
      <trkpt lat="37.13874" lon="-3.446312">
        <ele>1492.86900312324</ele>
        <time>2018-07-14T12:28:39.009Z</time>
      </trkpt>
      <trkpt lat="37.138683" lon="-3.446207">
        <ele>1500.86299055372</ele>
        <time>2018-07-14T12:28:56.003Z</time>
      </trkpt>
      <trkpt lat="37.138681" lon="-3.446077">
        <ele>1508.87000153602</ele>
        <time>2018-07-14T12:29:11.010Z</time>
      </trkpt>
      <trkpt lat="37.138741" lon="-3.445966">
        <ele>1517</ele>
        <time>2018-07-14T12:30:29.507Z</time>
      </trkpt>
      <trkpt lat="37.138738" lon="-3.445797">
        <ele>1519</ele>
        <time>2018-07-14T12:30:50.017Z</time>
      </trkpt>
      <trkpt lat="37.138748" lon="-3.445662">
        <ele>1521.74999360008</ele>
        <time>2018-07-14T12:31:02.015Z</time>
      </trkpt>
      <trkpt lat="37.138694" lon="-3.445844">
        <ele>1520.13299370232</ele>
        <time>2018-07-14T12:31:27.007Z</time>
      </trkpt>
      <trkpt lat="37.138824" lon="-3.44575">
        <ele>1522.23099175669</ele>
        <time>2018-07-14T12:31:38.909Z</time>
      </trkpt>
      <trkpt lat="37.138748" lon="-3.445612">
        <ele>1529.81549722362</ele>
        <time>2018-07-14T12:31:59.009Z</time>
      </trkpt>
      <trkpt lat="37.138786" lon="-3.445482">
        <ele>1531</ele>
        <time>2018-07-14T12:32:07.765Z</time>
      </trkpt>
      <trkpt lat="37.138745" lon="-3.44534">
        <ele>1541.86699690244</ele>
        <time>2018-07-14T12:32:20.007Z</time>
      </trkpt>
      <trkpt lat="37.138764" lon="-3.445174">
        <ele>1543</ele>
        <time>2018-07-14T12:32:44.004Z</time>
      </trkpt>
      <trkpt lat="37.138693" lon="-3.445057">
        <ele>1546</ele>
        <time>2018-07-14T12:33:04.008Z</time>
      </trkpt>
      <trkpt lat="37.138628" lon="-3.44496">
        <ele>1550</ele>
        <time>2018-07-14T12:33:24.007Z</time>
      </trkpt>
      <trkpt lat="37.138611" lon="-3.444807">
        <ele>1549.1220080383</ele>
        <time>2018-07-14T12:33:32.018Z</time>
      </trkpt>
      <trkpt lat="37.13854" lon="-3.444683">
        <ele>1545</ele>
        <time>2018-07-14T12:33:49.007Z</time>
      </trkpt>
      <trkpt lat="37.13859" lon="-3.444478">
        <ele>1547</ele>
        <time>2018-07-14T12:34:01.013Z</time>
      </trkpt>
      <trkpt lat="37.138522" lon="-3.444337">
        <ele>1547.66976245758</ele>
        <time>2018-07-14T12:34:13.008Z</time>
      </trkpt>
      <trkpt lat="37.138419" lon="-3.444227">
        <ele>1548</ele>
        <time>2018-07-14T12:34:29.207Z</time>
      </trkpt>
      <trkpt lat="37.13837" lon="-3.444097">
        <ele>1548.13099687676</ele>
        <time>2018-07-14T12:34:37.009Z</time>
      </trkpt>
      <trkpt lat="37.138272" lon="-3.444028">
        <ele>1547</ele>
        <time>2018-07-14T12:34:45.016Z</time>
      </trkpt>
      <trkpt lat="37.138252" lon="-3.443845">
        <ele>1547</ele>
        <time>2018-07-14T12:34:57.009Z</time>
      </trkpt>
      <trkpt lat="37.138214" lon="-3.443665">
        <ele>1550</ele>
        <time>2018-07-14T12:35:10.009Z</time>
      </trkpt>
      <trkpt lat="37.138166" lon="-3.443505">
        <ele>1550</ele>
        <time>2018-07-14T12:35:16.009Z</time>
      </trkpt>
      <trkpt lat="37.13809" lon="-3.443268">
        <ele>1551.87699357448</ele>
        <time>2018-07-14T12:35:24.017Z</time>
      </trkpt>
      <trkpt lat="37.137956" lon="-3.44309">
        <ele>1546</ele>
        <time>2018-07-14T12:35:32.009Z</time>
      </trkpt>
      <trkpt lat="37.13777" lon="-3.442931">
        <ele>1550.86599851522</ele>
        <time>2018-07-14T12:35:40.006Z</time>
      </trkpt>
      <trkpt lat="37.137609" lon="-3.442719">
        <ele>1553.86699690244</ele>
        <time>2018-07-14T12:35:52.007Z</time>
      </trkpt>
      <trkpt lat="37.137602" lon="-3.442584">
        <ele>1551</ele>
        <time>2018-07-14T12:36:00.009Z</time>
      </trkpt>
      <trkpt lat="37.137578" lon="-3.442402">
        <ele>1548</ele>
        <time>2018-07-14T12:36:12.005Z</time>
      </trkpt>
      <trkpt lat="37.137566" lon="-3.442262">
        <ele>1548.13199528954</ele>
        <time>2018-07-14T12:36:25.008Z</time>
      </trkpt>
      <trkpt lat="37.137472" lon="-3.442178">
        <ele>1548</ele>
        <time>2018-07-14T12:36:33.011Z</time>
      </trkpt>
      <trkpt lat="37.137376" lon="-3.44213">
        <ele>1548</ele>
        <time>2018-07-14T12:36:41.015Z</time>
      </trkpt>
      <trkpt lat="37.137272" lon="-3.442142">
        <ele>1549</ele>
        <time>2018-07-14T12:36:49.009Z</time>
      </trkpt>
      <trkpt lat="37.137158" lon="-3.442114">
        <ele>1548.13231966694</ele>
        <time>2018-07-14T12:36:57.009Z</time>
      </trkpt>
      <trkpt lat="37.137033" lon="-3.442127">
        <ele>1549</ele>
        <time>2018-07-14T12:37:05.004Z</time>
      </trkpt>
      <trkpt lat="37.136985" lon="-3.44201">
        <ele>1550</ele>
        <time>2018-07-14T12:37:17.009Z</time>
      </trkpt>
      <trkpt lat="37.13693" lon="-3.441905">
        <ele>1551</ele>
        <time>2018-07-14T12:37:33.010Z</time>
      </trkpt>
      <trkpt lat="37.136829" lon="-3.44177">
        <ele>1555.85444706359</ele>
        <time>2018-07-14T12:37:45.003Z</time>
      </trkpt>
      <trkpt lat="37.136817" lon="-3.441576">
        <ele>1559.86200143362</ele>
        <time>2018-07-14T12:37:57.002Z</time>
      </trkpt>
      <trkpt lat="37.136785" lon="-3.441413">
        <ele>1562</ele>
        <time>2018-07-14T12:38:05.007Z</time>
      </trkpt>
      <trkpt lat="37.136798" lon="-3.441248">
        <ele>1562</ele>
        <time>2018-07-14T12:38:17.009Z</time>
      </trkpt>
      <trkpt lat="37.136849" lon="-3.441112">
        <ele>1562.86899367688</ele>
        <time>2018-07-14T12:38:26.009Z</time>
      </trkpt>
      <trkpt lat="37.136854" lon="-3.440927">
        <ele>1557.269999744</ele>
        <time>2018-07-14T12:38:38.005Z</time>
      </trkpt>
      <trkpt lat="37.136829" lon="-3.44073">
        <ele>1553.86900312324</ele>
        <time>2018-07-14T12:38:53.009Z</time>
      </trkpt>
      <trkpt lat="37.136763" lon="-3.440637">
        <ele>1556</ele>
        <time>2018-07-14T12:39:01.006Z</time>
      </trkpt>
      <trkpt lat="37.136656" lon="-3.44057">
        <ele>1559.86899367688</ele>
        <time>2018-07-14T12:39:10.009Z</time>
      </trkpt>
      <trkpt lat="37.136525" lon="-3.440518">
        <ele>1566.86899367688</ele>
        <time>2018-07-14T12:39:22.009Z</time>
      </trkpt>
      <trkpt lat="37.136399" lon="-3.440484">
        <ele>1569.86899367688</ele>
        <time>2018-07-14T12:39:34.009Z</time>
      </trkpt>
      <trkpt lat="37.136271" lon="-3.440431">
        <ele>1572</ele>
        <time>2018-07-14T12:39:46.009Z</time>
      </trkpt>
      <trkpt lat="37.136172" lon="-3.440356">
        <ele>1575</ele>
        <time>2018-07-14T12:39:54.009Z</time>
      </trkpt>
      <trkpt lat="37.136067" lon="-3.440286">
        <ele>1576</ele>
        <time>2018-07-14T12:40:02.009Z</time>
      </trkpt>
      <trkpt lat="37.135963" lon="-3.440226">
        <ele>1578</ele>
        <time>2018-07-14T12:40:10.009Z</time>
      </trkpt>
      <trkpt lat="37.135858" lon="-3.440174">
        <ele>1579</ele>
        <time>2018-07-14T12:40:18.009Z</time>
      </trkpt>
      <trkpt lat="37.135751" lon="-3.440144">
        <ele>1580</ele>
        <time>2018-07-14T12:40:26.009Z</time>
      </trkpt>
      <trkpt lat="37.13564" lon="-3.440073">
        <ele>1581.86899367688</ele>
        <time>2018-07-14T12:40:38.009Z</time>
      </trkpt>
      <trkpt lat="37.135543" lon="-3.439986">
        <ele>1582.86899367688</ele>
        <time>2018-07-14T12:40:46.009Z</time>
      </trkpt>
      <trkpt lat="37.13545" lon="-3.439854">
        <ele>1582.86899367688</ele>
        <time>2018-07-14T12:40:58.009Z</time>
      </trkpt>
      <trkpt lat="37.135444" lon="-3.439724">
        <ele>1583.86899367688</ele>
        <time>2018-07-14T12:41:06.009Z</time>
      </trkpt>
      <trkpt lat="37.135456" lon="-3.439583">
        <ele>1585</ele>
        <time>2018-07-14T12:41:14.009Z</time>
      </trkpt>
      <trkpt lat="37.13549" lon="-3.439466">
        <ele>1586</ele>
        <time>2018-07-14T12:41:22.009Z</time>
      </trkpt>
      <trkpt lat="37.135542" lon="-3.439315">
        <ele>1586</ele>
        <time>2018-07-14T12:41:33.009Z</time>
      </trkpt>
      <trkpt lat="37.135574" lon="-3.43919">
        <ele>1586</ele>
        <time>2018-07-14T12:41:42.009Z</time>
      </trkpt>
      <trkpt lat="37.135494" lon="-3.439084">
        <ele>1585</ele>
        <time>2018-07-14T12:41:54.009Z</time>
      </trkpt>
      <trkpt lat="37.135405" lon="-3.439018">
        <ele>1585.13100632312</ele>
        <time>2018-07-14T12:42:06.009Z</time>
      </trkpt>
      <trkpt lat="37.135268" lon="-3.438938">
        <ele>1585.86899367688</ele>
        <time>2018-07-14T12:42:18.009Z</time>
      </trkpt>
      <trkpt lat="37.135176" lon="-3.438864">
        <ele>1587</ele>
        <time>2018-07-14T12:42:26.009Z</time>
      </trkpt>
      <trkpt lat="37.135082" lon="-3.43881">
        <ele>1590</ele>
        <time>2018-07-14T12:42:34.009Z</time>
      </trkpt>
      <trkpt lat="37.134979" lon="-3.438808">
        <ele>1593</ele>
        <time>2018-07-14T12:42:42.009Z</time>
      </trkpt>
      <trkpt lat="37.134883" lon="-3.43884">
        <ele>1594</ele>
        <time>2018-07-14T12:42:50.009Z</time>
      </trkpt>
      <trkpt lat="37.134783" lon="-3.438822">
        <ele>1596.86899367688</ele>
        <time>2018-07-14T12:42:58.009Z</time>
      </trkpt>
      <trkpt lat="37.134688" lon="-3.4388">
        <ele>1598.73798735376</ele>
        <time>2018-07-14T12:43:06.009Z</time>
      </trkpt>
      <trkpt lat="37.134603" lon="-3.438744">
        <ele>1600.73798735376</ele>
        <time>2018-07-14T12:43:14.009Z</time>
      </trkpt>
      <trkpt lat="37.134494" lon="-3.438631">
        <ele>1604</ele>
        <time>2018-07-14T12:43:26.009Z</time>
      </trkpt>
      <trkpt lat="37.134377" lon="-3.438529">
        <ele>1608</ele>
        <time>2018-07-14T12:43:38.009Z</time>
      </trkpt>
      <trkpt lat="37.13426" lon="-3.438435">
        <ele>1609</ele>
        <time>2018-07-14T12:43:50.009Z</time>
      </trkpt>
      <trkpt lat="37.134155" lon="-3.438312">
        <ele>1609</ele>
        <time>2018-07-14T12:44:02.009Z</time>
      </trkpt>
      <trkpt lat="37.134075" lon="-3.438241">
        <ele>1609</ele>
        <time>2018-07-14T12:44:10.009Z</time>
      </trkpt>
      <trkpt lat="37.134009" lon="-3.438146">
        <ele>1610</ele>
        <time>2018-07-14T12:44:18.009Z</time>
      </trkpt>
      <trkpt lat="37.133893" lon="-3.438049">
        <ele>1611.86899367688</ele>
        <time>2018-07-14T12:44:30.009Z</time>
      </trkpt>
      <trkpt lat="37.133798" lon="-3.43795">
        <ele>1615</ele>
        <time>2018-07-14T12:44:42.009Z</time>
      </trkpt>
      <trkpt lat="37.133696" lon="-3.438003">
        <ele>1616</ele>
        <time>2018-07-14T12:44:54.009Z</time>
      </trkpt>
      <trkpt lat="37.133579" lon="-3.438039">
        <ele>1617</ele>
        <time>2018-07-14T12:45:10.009Z</time>
      </trkpt>
      <trkpt lat="37.133479" lon="-3.437982">
        <ele>1619</ele>
        <time>2018-07-14T12:45:26.009Z</time>
      </trkpt>
      <trkpt lat="37.133381" lon="-3.437962">
        <ele>1622</ele>
        <time>2018-07-14T12:45:42.009Z</time>
      </trkpt>
      <trkpt lat="37.133282" lon="-3.437998">
        <ele>1624</ele>
        <time>2018-07-14T12:45:54.009Z</time>
      </trkpt>
      <trkpt lat="37.133169" lon="-3.438017">
        <ele>1628</ele>
        <time>2018-07-14T12:46:14.009Z</time>
      </trkpt>
      <trkpt lat="37.133067" lon="-3.438067">
        <ele>1632</ele>
        <time>2018-07-14T12:46:42.009Z</time>
      </trkpt>
      <trkpt lat="37.132999" lon="-3.438177">
        <ele>1636.86899367688</ele>
        <time>2018-07-14T12:47:06.009Z</time>
      </trkpt>
      <trkpt lat="37.132922" lon="-3.438223">
        <ele>1643.68808094353</ele>
        <time>2018-07-14T12:47:46.009Z</time>
      </trkpt>
      <trkpt lat="37.132853" lon="-3.438382">
        <ele>1645.86899367688</ele>
        <time>2018-07-14T12:50:02.009Z</time>
      </trkpt>
      <trkpt lat="37.132823" lon="-3.438531">
        <ele>1646</ele>
        <time>2018-07-14T12:50:10.009Z</time>
      </trkpt>
      <trkpt lat="37.13287" lon="-3.438668">
        <ele>1644</ele>
        <time>2018-07-14T12:50:18.009Z</time>
      </trkpt>
      <trkpt lat="37.132843" lon="-3.438795">
        <ele>1645</ele>
        <time>2018-07-14T12:50:26.009Z</time>
      </trkpt>
      <trkpt lat="37.132887" lon="-3.438612">
        <ele>1645</ele>
        <time>2018-07-14T12:50:38.009Z</time>
      </trkpt>
      <trkpt lat="37.132828" lon="-3.438445">
        <ele>1647</ele>
        <time>2018-07-14T12:50:50.009Z</time>
      </trkpt>
      <trkpt lat="37.132851" lon="-3.438324">
        <ele>1647</ele>
        <time>2018-07-14T12:50:58.009Z</time>
      </trkpt>
      <trkpt lat="37.132815" lon="-3.438184">
        <ele>1647</ele>
        <time>2018-07-14T12:51:14.009Z</time>
      </trkpt>
      <trkpt lat="37.13282" lon="-3.438093">
        <ele>1647</ele>
        <time>2018-07-14T12:51:22.009Z</time>
      </trkpt>
      <trkpt lat="37.132806" lon="-3.438">
        <ele>1647</ele>
        <time>2018-07-14T12:51:30.009Z</time>
      </trkpt>
      <trkpt lat="37.132736" lon="-3.437898">
        <ele>1649.13100632312</ele>
        <time>2018-07-14T12:51:42.009Z</time>
      </trkpt>
      <trkpt lat="37.132743" lon="-3.437753">
        <ele>1649</ele>
        <time>2018-07-14T12:51:50.009Z</time>
      </trkpt>
      <trkpt lat="37.132763" lon="-3.437606">
        <ele>1648</ele>
        <time>2018-07-14T12:51:58.009Z</time>
      </trkpt>
      <trkpt lat="37.132782" lon="-3.437471">
        <ele>1648</ele>
        <time>2018-07-14T12:52:06.009Z</time>
      </trkpt>
      <trkpt lat="37.132785" lon="-3.437343">
        <ele>1650</ele>
        <time>2018-07-14T12:52:14.009Z</time>
      </trkpt>
      <trkpt lat="37.132787" lon="-3.437213">
        <ele>1652</ele>
        <time>2018-07-14T12:52:22.009Z</time>
      </trkpt>
      <trkpt lat="37.132785" lon="-3.437087">
        <ele>1652</ele>
        <time>2018-07-14T12:52:30.009Z</time>
      </trkpt>
      <trkpt lat="37.132789" lon="-3.436968">
        <ele>1653</ele>
        <time>2018-07-14T12:52:38.009Z</time>
      </trkpt>
      <trkpt lat="37.132794" lon="-3.436825">
        <ele>1654</ele>
        <time>2018-07-14T12:52:46.009Z</time>
      </trkpt>
      <trkpt lat="37.132792" lon="-3.43669">
        <ele>1655</ele>
        <time>2018-07-14T12:52:54.009Z</time>
      </trkpt>
      <trkpt lat="37.132787" lon="-3.436502">
        <ele>1655.86899367688</ele>
        <time>2018-07-14T12:53:06.009Z</time>
      </trkpt>
      <trkpt lat="37.132786" lon="-3.436362">
        <ele>1656</ele>
        <time>2018-07-14T12:53:14.009Z</time>
      </trkpt>
      <trkpt lat="37.132758" lon="-3.436184">
        <ele>1657</ele>
        <time>2018-07-14T12:53:26.009Z</time>
      </trkpt>
      <trkpt lat="37.132739" lon="-3.436024">
        <ele>1660</ele>
        <time>2018-07-14T12:53:52.009Z</time>
      </trkpt>
      <trkpt lat="37.132603" lon="-3.435962">
        <ele>1660.86500947212</ele>
        <time>2018-07-14T12:54:09.005Z</time>
      </trkpt>
      <trkpt lat="37.132504" lon="-3.436116">
        <ele>1665</ele>
        <time>2018-07-14T12:54:21.009Z</time>
      </trkpt>
      <trkpt lat="37.132429" lon="-3.436234">
        <ele>1668</ele>
        <time>2018-07-14T12:54:29.016Z</time>
      </trkpt>
      <trkpt lat="37.132367" lon="-3.436434">
        <ele>1665.86500947212</ele>
        <time>2018-07-14T12:54:37.005Z</time>
      </trkpt>
      <trkpt lat="37.132331" lon="-3.436647">
        <ele>1666</ele>
        <time>2018-07-14T12:54:45.008Z</time>
      </trkpt>
      <trkpt lat="37.132271" lon="-3.43677">
        <ele>1664</ele>
        <time>2018-07-14T12:54:53.009Z</time>
      </trkpt>
      <trkpt lat="37.132314" lon="-3.436896">
        <ele>1664</ele>
        <time>2018-07-14T12:55:01.001Z</time>
      </trkpt>
      <trkpt lat="37.132273" lon="-3.437164">
        <ele>1666.8740079873</ele>
        <time>2018-07-14T12:55:09.014Z</time>
      </trkpt>
      <trkpt lat="37.13222" lon="-3.437475">
        <ele>1665.86900312324</ele>
        <time>2018-07-14T12:55:17.009Z</time>
      </trkpt>
      <trkpt lat="37.132204" lon="-3.437677">
        <ele>1665</ele>
        <time>2018-07-14T12:55:25.007Z</time>
      </trkpt>
      <trkpt lat="37.132149" lon="-3.437921">
        <ele>1669</ele>
        <time>2018-07-14T12:55:37.008Z</time>
      </trkpt>
      <trkpt lat="37.132046" lon="-3.438155">
        <ele>1669.86800471046</ele>
        <time>2018-07-14T12:55:45.008Z</time>
      </trkpt>
      <trkpt lat="37.132038" lon="-3.438318">
        <ele>1672.87000153602</ele>
        <time>2018-07-14T12:55:53.010Z</time>
      </trkpt>
      <trkpt lat="37.132078" lon="-3.438433">
        <ele>1677</ele>
        <time>2018-07-14T12:56:01.001Z</time>
      </trkpt>
      <trkpt lat="37.132021" lon="-3.43863">
        <ele>1681</ele>
        <time>2018-07-14T12:56:09.000Z</time>
      </trkpt>
      <trkpt lat="37.131943" lon="-3.438732">
        <ele>1682.13499052788</ele>
        <time>2018-07-14T12:56:17.005Z</time>
      </trkpt>
      <trkpt lat="37.131869" lon="-3.438934">
        <ele>1683</ele>
        <time>2018-07-14T12:56:25.013Z</time>
      </trkpt>
      <trkpt lat="37.131828" lon="-3.439064">
        <ele>1684</ele>
        <time>2018-07-14T12:56:33.013Z</time>
      </trkpt>
      <trkpt lat="37.131747" lon="-3.43918">
        <ele>1684</ele>
        <time>2018-07-14T12:56:45.001Z</time>
      </trkpt>
      <trkpt lat="37.131674" lon="-3.439344">
        <ele>1682.1339921151</ele>
        <time>2018-07-14T12:56:57.006Z</time>
      </trkpt>
      <trkpt lat="37.131562" lon="-3.439581">
        <ele>1682</ele>
        <time>2018-07-14T12:57:05.009Z</time>
      </trkpt>
      <trkpt lat="37.131478" lon="-3.439766">
        <ele>1685</ele>
        <time>2018-07-14T12:57:13.006Z</time>
      </trkpt>
      <trkpt lat="37.131431" lon="-3.4399">
        <ele>1687</ele>
        <time>2018-07-14T12:57:21.008Z</time>
      </trkpt>
      <trkpt lat="37.131385" lon="-3.44003">
        <ele>1686</ele>
        <time>2018-07-14T12:57:29.010Z</time>
      </trkpt>
      <trkpt lat="37.131331" lon="-3.440162">
        <ele>1688</ele>
        <time>2018-07-14T12:57:37.012Z</time>
      </trkpt>
      <trkpt lat="37.131298" lon="-3.440334">
        <ele>1689</ele>
        <time>2018-07-14T12:57:49.012Z</time>
      </trkpt>
      <trkpt lat="37.131217" lon="-3.440519">
        <ele>1692</ele>
        <time>2018-07-14T12:57:57.003Z</time>
      </trkpt>
      <trkpt lat="37.131152" lon="-3.440638">
        <ele>1692</ele>
        <time>2018-07-14T12:58:09.006Z</time>
      </trkpt>
      <trkpt lat="37.131084" lon="-3.440776">
        <ele>1691</ele>
        <time>2018-07-14T12:58:23.009Z</time>
      </trkpt>
      <trkpt lat="37.131016" lon="-3.440882">
        <ele>1691</ele>
        <time>2018-07-14T12:58:32.009Z</time>
      </trkpt>
      <trkpt lat="37.130964" lon="-3.441032">
        <ele>1691</ele>
        <time>2018-07-14T12:58:45.006Z</time>
      </trkpt>
      <trkpt lat="37.13091" lon="-3.441203">
        <ele>1692</ele>
        <time>2018-07-14T12:58:53.003Z</time>
      </trkpt>
      <trkpt lat="37.130806" lon="-3.441399">
        <ele>1694</ele>
        <time>2018-07-14T12:59:01.008Z</time>
      </trkpt>
      <trkpt lat="37.130759" lon="-3.44151">
        <ele>1696.13499052788</ele>
        <time>2018-07-14T12:59:09.005Z</time>
      </trkpt>
      <trkpt lat="37.130679" lon="-3.441657">
        <ele>1697.8629998464</ele>
        <time>2018-07-14T12:59:17.003Z</time>
      </trkpt>
      <trkpt lat="37.130621" lon="-3.441825">
        <ele>1698.13499052788</ele>
        <time>2018-07-14T12:59:29.005Z</time>
      </trkpt>
      <trkpt lat="37.130547" lon="-3.441945">
        <ele>1699</ele>
        <time>2018-07-14T12:59:37.004Z</time>
      </trkpt>
      <trkpt lat="37.130512" lon="-3.442105">
        <ele>1699</ele>
        <time>2018-07-14T12:59:45.008Z</time>
      </trkpt>
      <trkpt lat="37.13041" lon="-3.442232">
        <ele>1700</ele>
        <time>2018-07-14T12:59:53.010Z</time>
      </trkpt>
      <trkpt lat="37.130351" lon="-3.442444">
        <ele>1701</ele>
        <time>2018-07-14T13:00:01.012Z</time>
      </trkpt>
      <trkpt lat="37.130252" lon="-3.442552">
        <ele>1699</ele>
        <time>2018-07-14T13:00:13.005Z</time>
      </trkpt>
      <trkpt lat="37.130146" lon="-3.442616">
        <ele>1695</ele>
        <time>2018-07-14T13:00:25.008Z</time>
      </trkpt>
      <trkpt lat="37.130074" lon="-3.442722">
        <ele>1695.06298960627</ele>
        <time>2018-07-14T13:00:36.203Z</time>
      </trkpt>
      <trkpt lat="37.12999" lon="-3.44289">
        <ele>1695.13299370232</ele>
        <time>2018-07-14T13:00:45.007Z</time>
      </trkpt>
      <trkpt lat="37.129908" lon="-3.442972">
        <ele>1695</ele>
        <time>2018-07-14T13:00:53.010Z</time>
      </trkpt>
      <trkpt lat="37.129815" lon="-3.44309">
        <ele>1697</ele>
        <time>2018-07-14T13:01:01.009Z</time>
      </trkpt>
      <trkpt lat="37.129719" lon="-3.443148">
        <ele>1699</ele>
        <time>2018-07-14T13:01:09.009Z</time>
      </trkpt>
      <trkpt lat="37.129611" lon="-3.443186">
        <ele>1700.13299370232</ele>
        <time>2018-07-14T13:01:17.007Z</time>
      </trkpt>
      <trkpt lat="37.129481" lon="-3.443192">
        <ele>1701</ele>
        <time>2018-07-14T13:01:25.007Z</time>
      </trkpt>
      <trkpt lat="37.129276" lon="-3.443334">
        <ele>1705</ele>
        <time>2018-07-14T13:01:37.005Z</time>
      </trkpt>
      <trkpt lat="37.129117" lon="-3.443335">
        <ele>1709</ele>
        <time>2018-07-14T13:01:57.006Z</time>
      </trkpt>
      <trkpt lat="37.128935" lon="-3.443385">
        <ele>1711</ele>
        <time>2018-07-14T13:02:05.016Z</time>
      </trkpt>
      <trkpt lat="37.12877" lon="-3.443414">
        <ele>1712</ele>
        <time>2018-07-14T13:02:13.008Z</time>
      </trkpt>
      <trkpt lat="37.128686" lon="-3.443276">
        <ele>1712</ele>
        <time>2018-07-14T13:02:29.014Z</time>
      </trkpt>
      <trkpt lat="37.128521" lon="-3.443198">
        <ele>1711.12699042548</ele>
        <time>2018-07-14T13:02:37.013Z</time>
      </trkpt>
      <trkpt lat="37.12838" lon="-3.443158">
        <ele>1711</ele>
        <time>2018-07-14T13:02:45.008Z</time>
      </trkpt>
      <trkpt lat="37.128236" lon="-3.443024">
        <ele>1709</ele>
        <time>2018-07-14T13:03:01.015Z</time>
      </trkpt>
      <trkpt lat="37.128061" lon="-3.442931">
        <ele>1710</ele>
        <time>2018-07-14T13:03:09.013Z</time>
      </trkpt>
      <trkpt lat="37.127942" lon="-3.442874">
        <ele>1712</ele>
        <time>2018-07-14T13:03:17.010Z</time>
      </trkpt>
      <trkpt lat="37.127797" lon="-3.442776">
        <ele>1710</ele>
        <time>2018-07-14T13:03:33.001Z</time>
      </trkpt>
      <trkpt lat="37.127703" lon="-3.442642">
        <ele>1712</ele>
        <time>2018-07-14T13:03:45.002Z</time>
      </trkpt>
      <trkpt lat="37.127692" lon="-3.442502">
        <ele>1715</ele>
        <time>2018-07-14T13:03:53.012Z</time>
      </trkpt>
      <trkpt lat="37.127591" lon="-3.442471">
        <ele>1718</ele>
        <time>2018-07-14T13:04:01.001Z</time>
      </trkpt>
      <trkpt lat="37.127472" lon="-3.442323">
        <ele>1719</ele>
        <time>2018-07-14T13:04:09.204Z</time>
      </trkpt>
      <trkpt lat="37.127379" lon="-3.442269">
        <ele>1720.86900312324</ele>
        <time>2018-07-14T13:04:17.009Z</time>
      </trkpt>
      <trkpt lat="37.127247" lon="-3.442107">
        <ele>1721</ele>
        <time>2018-07-14T13:04:26.007Z</time>
      </trkpt>
      <trkpt lat="37.127166" lon="-3.442007">
        <ele>1721.86799528966</ele>
        <time>2018-07-14T13:04:34.008Z</time>
      </trkpt>
      <trkpt lat="37.127018" lon="-3.441872">
        <ele>1721</ele>
        <time>2018-07-14T13:04:42.004Z</time>
      </trkpt>
      <trkpt lat="37.126893" lon="-3.441808">
        <ele>1722.13601105906</ele>
        <time>2018-07-14T13:04:50.004Z</time>
      </trkpt>
      <trkpt lat="37.126774" lon="-3.441696">
        <ele>1725.12799836162</ele>
        <time>2018-07-14T13:05:06.012Z</time>
      </trkpt>
      <trkpt lat="37.126674" lon="-3.441508">
        <ele>1727.86899367688</ele>
        <time>2018-07-14T13:05:14.009Z</time>
      </trkpt>
      <trkpt lat="37.126604" lon="-3.441348">
        <ele>1729.865000128</ele>
        <time>2018-07-14T13:05:26.005Z</time>
      </trkpt>
      <trkpt lat="37.126507" lon="-3.441247">
        <ele>1726.13700944628</ele>
        <time>2018-07-14T13:05:46.003Z</time>
      </trkpt>
      <trkpt lat="37.126383" lon="-3.441155">
        <ele>1724.13300309756</ele>
        <time>2018-07-14T13:05:54.007Z</time>
      </trkpt>
      <trkpt lat="37.126222" lon="-3.441209">
        <ele>1727.7399841282</ele>
        <time>2018-07-14T13:06:02.010Z</time>
      </trkpt>
      <trkpt lat="37.125999" lon="-3.441287">
        <ele>1735</ele>
        <time>2018-07-14T13:06:18.002Z</time>
      </trkpt>
      <trkpt lat="37.125839" lon="-3.441325">
        <ele>1737</ele>
        <time>2018-07-14T13:06:26.005Z</time>
      </trkpt>
      <trkpt lat="37.125726" lon="-3.441495">
        <ele>1739.74400327676</ele>
        <time>2018-07-14T13:06:34.012Z</time>
      </trkpt>
      <trkpt lat="37.12565" lon="-3.441683">
        <ele>1740.13100632312</ele>
        <time>2018-07-14T13:06:42.009Z</time>
      </trkpt>
      <trkpt lat="37.125597" lon="-3.441827">
        <ele>1743.86299055372</ele>
        <time>2018-07-14T13:06:50.003Z</time>
      </trkpt>
      <trkpt lat="37.125473" lon="-3.441991">
        <ele>1743</ele>
        <time>2018-07-14T13:06:58.012Z</time>
      </trkpt>
      <trkpt lat="37.125496" lon="-3.442117">
        <ele>1743</ele>
        <time>2018-07-14T13:07:06.007Z</time>
      </trkpt>
      <trkpt lat="37.125536" lon="-3.442407">
        <ele>1745</ele>
        <time>2018-07-14T13:07:22.006Z</time>
      </trkpt>
      <trkpt lat="37.125526" lon="-3.442591">
        <ele>1748</ele>
        <time>2018-07-14T13:07:30.002Z</time>
      </trkpt>
      <trkpt lat="37.125535" lon="-3.442811">
        <ele>1748.87499680004</ele>
        <time>2018-07-14T13:07:38.015Z</time>
      </trkpt>
      <trkpt lat="37.125557" lon="-3.443007">
        <ele>1752</ele>
        <time>2018-07-14T13:07:54.002Z</time>
      </trkpt>
      <trkpt lat="37.125625" lon="-3.443162">
        <ele>1750.86398894094</ele>
        <time>2018-07-14T13:08:02.004Z</time>
      </trkpt>
      <trkpt lat="37.125637" lon="-3.443292">
        <ele>1748</ele>
        <time>2018-07-14T13:08:14.008Z</time>
      </trkpt>
      <trkpt lat="37.125695" lon="-3.443502">
        <ele>1744.13700944628</ele>
        <time>2018-07-14T13:08:22.003Z</time>
      </trkpt>
      <trkpt lat="37.125684" lon="-3.443642">
        <ele>1745</ele>
        <time>2018-07-14T13:08:38.006Z</time>
      </trkpt>
      <trkpt lat="37.125704" lon="-3.443774">
        <ele>1745.13200471034</ele>
        <time>2018-07-14T13:08:46.008Z</time>
      </trkpt>
      <trkpt lat="37.125746" lon="-3.443976">
        <ele>1745</ele>
        <time>2018-07-14T13:08:54.007Z</time>
      </trkpt>
      <trkpt lat="37.12575" lon="-3.444211">
        <ele>1746</ele>
        <time>2018-07-14T13:09:02.014Z</time>
      </trkpt>
      <trkpt lat="37.125703" lon="-3.444545">
        <ele>1748</ele>
        <time>2018-07-14T13:09:10.012Z</time>
      </trkpt>
      <trkpt lat="37.125628" lon="-3.444843">
        <ele>1756.865000128</ele>
        <time>2018-07-14T13:09:22.005Z</time>
      </trkpt>
      <trkpt lat="37.125594" lon="-3.445019">
        <ele>1759.87499680004</ele>
        <time>2018-07-14T13:09:30.015Z</time>
      </trkpt>
      <trkpt lat="37.12556" lon="-3.445167">
        <ele>1761.13200471034</ele>
        <time>2018-07-14T13:09:42.008Z</time>
      </trkpt>
      <trkpt lat="37.12544" lon="-3.445337">
        <ele>1763.87099045132</ele>
        <time>2018-07-14T13:09:54.011Z</time>
      </trkpt>
      <trkpt lat="37.125388" lon="-3.445505">
        <ele>1764</ele>
        <time>2018-07-14T13:10:06.009Z</time>
      </trkpt>
      <trkpt lat="37.125329" lon="-3.445786">
        <ele>1760.25599672324</ele>
        <time>2018-07-14T13:10:14.012Z</time>
      </trkpt>
      <trkpt lat="37.125256" lon="-3.445956">
        <ele>1760</ele>
        <time>2018-07-14T13:10:22.006Z</time>
      </trkpt>
      <trkpt lat="37.125192" lon="-3.446057">
        <ele>1759.13601105906</ele>
        <time>2018-07-14T13:10:30.004Z</time>
      </trkpt>
      <trkpt lat="37.125172" lon="-3.446192">
        <ele>1758</ele>
        <time>2018-07-14T13:10:42.013Z</time>
      </trkpt>
      <trkpt lat="37.125084" lon="-3.446274">
        <ele>1756.86799528966</ele>
        <time>2018-07-14T13:10:58.008Z</time>
      </trkpt>
      <trkpt lat="37.125015" lon="-3.44637">
        <ele>1755</ele>
        <time>2018-07-14T13:11:06.010Z</time>
      </trkpt>
      <trkpt lat="37.124932" lon="-3.446471">
        <ele>1755</ele>
        <time>2018-07-14T13:11:14.008Z</time>
      </trkpt>
      <trkpt lat="37.124871" lon="-3.446626">
        <ele>1756.73800624648</ele>
        <time>2018-07-14T13:11:21.009Z</time>
      </trkpt>
      <trkpt lat="37.124779" lon="-3.446958">
        <ele>1757</ele>
        <time>2018-07-14T13:11:38.009Z</time>
      </trkpt>
      <trkpt lat="37.12472" lon="-3.447131">
        <ele>1758</ele>
        <time>2018-07-14T13:11:46.008Z</time>
      </trkpt>
      <trkpt lat="37.124668" lon="-3.447248">
        <ele>1758</ele>
        <time>2018-07-14T13:11:54.010Z</time>
      </trkpt>
      <trkpt lat="37.124566" lon="-3.447376">
        <ele>1766.12799836162</ele>
        <time>2018-07-14T13:12:06.012Z</time>
      </trkpt>
      <trkpt lat="37.124522" lon="-3.447507">
        <ele>1769</ele>
        <time>2018-07-14T13:12:14.004Z</time>
      </trkpt>
      <trkpt lat="37.124422" lon="-3.447605">
        <ele>1771</ele>
        <time>2018-07-14T13:12:22.012Z</time>
      </trkpt>
      <trkpt lat="37.12437" lon="-3.447813">
        <ele>1771</ele>
        <time>2018-07-14T13:12:30.004Z</time>
      </trkpt>
      <trkpt lat="37.124288" lon="-3.447968">
        <ele>1774</ele>
        <time>2018-07-14T13:12:42.003Z</time>
      </trkpt>
      <trkpt lat="37.124231" lon="-3.448152">
        <ele>1774</ele>
        <time>2018-07-14T13:12:50.009Z</time>
      </trkpt>
      <trkpt lat="37.124153" lon="-3.448254">
        <ele>1773.86599851522</ele>
        <time>2018-07-14T13:12:58.006Z</time>
      </trkpt>
      <trkpt lat="37.124092" lon="-3.448438">
        <ele>1775.14100299516</ele>
        <time>2018-07-14T13:13:09.999Z</time>
      </trkpt>
      <trkpt lat="37.124011" lon="-3.448523">
        <ele>1774</ele>
        <time>2018-07-14T13:13:18.016Z</time>
      </trkpt>
      <trkpt lat="37.123923" lon="-3.448703">
        <ele>1775</ele>
        <time>2018-07-14T13:13:30.009Z</time>
      </trkpt>
      <trkpt lat="37.123796" lon="-3.448775">
        <ele>1773</ele>
        <time>2018-07-14T13:13:42.009Z</time>
      </trkpt>
      <trkpt lat="37.123546" lon="-3.44893">
        <ele>1770</ele>
        <time>2018-07-14T13:14:02.013Z</time>
      </trkpt>
      <trkpt lat="37.123365" lon="-3.449028">
        <ele>1771</ele>
        <time>2018-07-14T13:14:10.011Z</time>
      </trkpt>
      <trkpt lat="37.123233" lon="-3.449016">
        <ele>1772</ele>
        <time>2018-07-14T13:14:26.007Z</time>
      </trkpt>
      <trkpt lat="37.123099" lon="-3.449058">
        <ele>1773.86599851522</ele>
        <time>2018-07-14T13:14:34.006Z</time>
      </trkpt>
      <trkpt lat="37.122992" lon="-3.449081">
        <ele>1776</ele>
        <time>2018-07-14T13:14:41.009Z</time>
      </trkpt>
      <trkpt lat="37.12287" lon="-3.449077">
        <ele>1783</ele>
        <time>2018-07-14T13:14:49.009Z</time>
      </trkpt>
      <trkpt lat="37.12272" lon="-3.449133">
        <ele>1784</ele>
        <time>2018-07-14T13:14:58.007Z</time>
      </trkpt>
      <trkpt lat="37.122597" lon="-3.449118">
        <ele>1784</ele>
        <time>2018-07-14T13:15:10.009Z</time>
      </trkpt>
      <trkpt lat="37.122486" lon="-3.449131">
        <ele>1786</ele>
        <time>2018-07-14T13:15:18.005Z</time>
      </trkpt>
      <trkpt lat="37.122311" lon="-3.449044">
        <ele>1786</ele>
        <time>2018-07-14T13:15:26.004Z</time>
      </trkpt>
      <trkpt lat="37.122173" lon="-3.449023">
        <ele>1788</ele>
        <time>2018-07-14T13:15:34.012Z</time>
      </trkpt>
      <trkpt lat="37.122052" lon="-3.449057">
        <ele>1790</ele>
        <time>2018-07-14T13:15:42.005Z</time>
      </trkpt>
      <trkpt lat="37.121903" lon="-3.449006">
        <ele>1793</ele>
        <time>2018-07-14T13:15:58.007Z</time>
      </trkpt>
      <trkpt lat="37.121772" lon="-3.449035">
        <ele>1793</ele>
        <time>2018-07-14T13:16:06.008Z</time>
      </trkpt>
      <trkpt lat="37.12167" lon="-3.44901">
        <ele>1795</ele>
        <time>2018-07-14T13:16:22.009Z</time>
      </trkpt>
      <trkpt lat="37.121526" lon="-3.448943">
        <ele>1795</ele>
        <time>2018-07-14T13:16:38.014Z</time>
      </trkpt>
      <trkpt lat="37.121369" lon="-3.44889">
        <ele>1793</ele>
        <time>2018-07-14T13:16:50.017Z</time>
      </trkpt>
      <trkpt lat="37.121184" lon="-3.448742">
        <ele>1790.13300309756</ele>
        <time>2018-07-14T13:16:58.007Z</time>
      </trkpt>
      <trkpt lat="37.120989" lon="-3.448527">
        <ele>1788.13300309756</ele>
        <time>2018-07-14T13:17:10.007Z</time>
      </trkpt>
      <trkpt lat="37.120917" lon="-3.44843">
        <ele>1785.1300079359</ele>
        <time>2018-07-14T13:17:18.010Z</time>
      </trkpt>
      <trkpt lat="37.120873" lon="-3.448241">
        <ele>1783.13900622072</ele>
        <time>2018-07-14T13:17:30.001Z</time>
      </trkpt>
      <trkpt lat="37.120859" lon="-3.447907">
        <ele>1783</ele>
        <time>2018-07-14T13:17:42.011Z</time>
      </trkpt>
      <trkpt lat="37.120818" lon="-3.447571">
        <ele>1785</ele>
        <time>2018-07-14T13:17:54.010Z</time>
      </trkpt>
      <trkpt lat="37.120686" lon="-3.447297">
        <ele>1793</ele>
        <time>2018-07-14T13:18:07.011Z</time>
      </trkpt>
      <trkpt lat="37.120417" lon="-3.447227">
        <ele>1796</ele>
        <time>2018-07-14T13:18:19.002Z</time>
      </trkpt>
      <trkpt lat="37.120282" lon="-3.447204">
        <ele>1798</ele>
        <time>2018-07-14T13:18:27.016Z</time>
      </trkpt>
      <trkpt lat="37.120115" lon="-3.447199">
        <ele>1800.8740079873</ele>
        <time>2018-07-14T13:18:35.014Z</time>
      </trkpt>
      <trkpt lat="37.12002" lon="-3.447155">
        <ele>1803.86900312324</ele>
        <time>2018-07-14T13:18:43.009Z</time>
      </trkpt>
      <trkpt lat="37.119877" lon="-3.447208">
        <ele>1807</ele>
        <time>2018-07-14T13:18:51.001Z</time>
      </trkpt>
      <trkpt lat="37.119763" lon="-3.447382">
        <ele>1809.73401259536</ele>
        <time>2018-07-14T13:18:59.007Z</time>
      </trkpt>
      <trkpt lat="37.119652" lon="-3.447483">
        <ele>1812</ele>
        <time>2018-07-14T13:19:19.011Z</time>
      </trkpt>
      <trkpt lat="37.119563" lon="-3.447562">
        <ele>1815</ele>
        <time>2018-07-14T13:19:27.008Z</time>
      </trkpt>
      <trkpt lat="37.11947" lon="-3.447612">
        <ele>1816</ele>
        <time>2018-07-14T13:19:35.005Z</time>
      </trkpt>
      <trkpt lat="37.119361" lon="-3.447583">
        <ele>1818</ele>
        <time>2018-07-14T13:19:43.007Z</time>
      </trkpt>
      <trkpt lat="37.119261" lon="-3.44763">
        <ele>1816.13199528954</ele>
        <time>2018-07-14T13:19:51.008Z</time>
      </trkpt>
      <trkpt lat="37.119176" lon="-3.447775">
        <ele>1814.86000460806</ele>
        <time>2018-07-14T13:19:59.000Z</time>
      </trkpt>
      <trkpt lat="37.119072" lon="-3.447911">
        <ele>1812.24799037428</ele>
        <time>2018-07-14T13:20:07.016Z</time>
      </trkpt>
      <trkpt lat="37.11899" lon="-3.447982">
        <ele>1814</ele>
        <time>2018-07-14T13:20:19.007Z</time>
      </trkpt>
      <trkpt lat="37.118912" lon="-3.448082">
        <ele>1815.86700629768</ele>
        <time>2018-07-14T13:20:27.007Z</time>
      </trkpt>
      <trkpt lat="37.118824" lon="-3.448167">
        <ele>1817</ele>
        <time>2018-07-14T13:20:35.007Z</time>
      </trkpt>
      <trkpt lat="37.118692" lon="-3.448294">
        <ele>1819</ele>
        <time>2018-07-14T13:20:43.013Z</time>
      </trkpt>
      <trkpt lat="37.118586" lon="-3.448385">
        <ele>1821</ele>
        <time>2018-07-14T13:20:51.007Z</time>
      </trkpt>
      <trkpt lat="37.118457" lon="-3.448512">
        <ele>1820.12699042548</ele>
        <time>2018-07-14T13:21:03.013Z</time>
      </trkpt>
      <trkpt lat="37.118342" lon="-3.448624">
        <ele>1820</ele>
        <time>2018-07-14T13:21:11.010Z</time>
      </trkpt>
      <trkpt lat="37.118246" lon="-3.44874">
        <ele>1821</ele>
        <time>2018-07-14T13:21:23.010Z</time>
      </trkpt>
      <trkpt lat="37.118104" lon="-3.448804">
        <ele>1821</ele>
        <time>2018-07-14T13:21:31.009Z</time>
      </trkpt>
      <trkpt lat="37.117962" lon="-3.449025">
        <ele>1820</ele>
        <time>2018-07-14T13:21:43.009Z</time>
      </trkpt>
      <trkpt lat="37.117814" lon="-3.449095">
        <ele>1813</ele>
        <time>2018-07-14T13:22:19.012Z</time>
      </trkpt>
      <trkpt lat="37.117637" lon="-3.449169">
        <ele>1812</ele>
        <time>2018-07-14T13:22:27.008Z</time>
      </trkpt>
      <trkpt lat="37.117456" lon="-3.44932">
        <ele>1811</ele>
        <time>2018-07-14T13:22:35.006Z</time>
      </trkpt>
      <trkpt lat="37.117358" lon="-3.449525">
        <ele>1813</ele>
        <time>2018-07-14T13:22:43.011Z</time>
      </trkpt>
      <trkpt lat="37.117238" lon="-3.449642">
        <ele>1818</ele>
        <time>2018-07-14T13:22:51.007Z</time>
      </trkpt>
      <trkpt lat="37.117133" lon="-3.449775">
        <ele>1821</ele>
        <time>2018-07-14T13:23:03.000Z</time>
      </trkpt>
      <trkpt lat="37.117106" lon="-3.449909">
        <ele>1825.86200143362</ele>
        <time>2018-07-14T13:23:11.002Z</time>
      </trkpt>
      <trkpt lat="37.117083" lon="-3.450061">
        <ele>1830</ele>
        <time>2018-07-14T13:23:19.007Z</time>
      </trkpt>
      <trkpt lat="37.117043" lon="-3.45043">
        <ele>1837.73800624648</ele>
        <time>2018-07-14T13:23:31.009Z</time>
      </trkpt>
      <trkpt lat="37.116998" lon="-3.450563">
        <ele>1838</ele>
        <time>2018-07-14T13:23:38.009Z</time>
      </trkpt>
      <trkpt lat="37.116973" lon="-3.450686">
        <ele>1838.12999846398</ele>
        <time>2018-07-14T13:23:47.010Z</time>
      </trkpt>
      <trkpt lat="37.116907" lon="-3.45084">
        <ele>1838</ele>
        <time>2018-07-14T13:23:55.012Z</time>
      </trkpt>
      <trkpt lat="37.116824" lon="-3.450924">
        <ele>1836.12499359992</ele>
        <time>2018-07-14T13:24:03.015Z</time>
      </trkpt>
      <trkpt lat="37.116693" lon="-3.451018">
        <ele>1834</ele>
        <time>2018-07-14T13:24:11.015Z</time>
      </trkpt>
      <trkpt lat="37.116582" lon="-3.451082">
        <ele>1833</ele>
        <time>2018-07-14T13:24:19.010Z</time>
      </trkpt>
      <trkpt lat="37.116405" lon="-3.451041">
        <ele>1832.14059767318</ele>
        <time>2018-07-14T13:24:27.008Z</time>
      </trkpt>
      <trkpt lat="37.116184" lon="-3.45093">
        <ele>1833.86534610803</ele>
        <time>2018-07-14T13:24:35.014Z</time>
      </trkpt>
      <trkpt lat="37.116027" lon="-3.450863">
        <ele>1837</ele>
        <time>2018-07-14T13:24:43.008Z</time>
      </trkpt>
      <trkpt lat="37.115869" lon="-3.450791">
        <ele>1837</ele>
        <time>2018-07-14T13:24:51.003Z</time>
      </trkpt>
      <trkpt lat="37.115724" lon="-3.450881">
        <ele>1840</ele>
        <time>2018-07-14T13:24:59.005Z</time>
      </trkpt>
      <trkpt lat="37.115563" lon="-3.450897">
        <ele>1841</ele>
        <time>2018-07-14T13:25:07.012Z</time>
      </trkpt>
      <trkpt lat="37.115387" lon="-3.450936">
        <ele>1842</ele>
        <time>2018-07-14T13:25:14.009Z</time>
      </trkpt>
      <trkpt lat="37.11521" lon="-3.450941">
        <ele>1844</ele>
        <time>2018-07-14T13:25:23.007Z</time>
      </trkpt>
      <trkpt lat="37.115044" lon="-3.450928">
        <ele>1844</ele>
        <time>2018-07-14T13:25:31.010Z</time>
      </trkpt>
      <trkpt lat="37.114892" lon="-3.450821">
        <ele>1843.86500947212</ele>
        <time>2018-07-14T13:25:47.005Z</time>
      </trkpt>
      <trkpt lat="37.114671" lon="-3.450762">
        <ele>1845.13099687676</ele>
        <time>2018-07-14T13:25:59.009Z</time>
      </trkpt>
      <trkpt lat="37.114516" lon="-3.450644">
        <ele>1843</ele>
        <time>2018-07-14T13:26:11.009Z</time>
      </trkpt>
      <trkpt lat="37.11441" lon="-3.450564">
        <ele>1845</ele>
        <time>2018-07-14T13:26:19.011Z</time>
      </trkpt>
      <trkpt lat="37.114281" lon="-3.450436">
        <ele>1846</ele>
        <time>2018-07-14T13:26:31.007Z</time>
      </trkpt>
      <trkpt lat="37.114157" lon="-3.450304">
        <ele>1845.8709999488</ele>
        <time>2018-07-14T13:26:39.011Z</time>
      </trkpt>
      <trkpt lat="37.113937" lon="-3.45004">
        <ele>1847</ele>
        <time>2018-07-14T13:26:51.004Z</time>
      </trkpt>
      <trkpt lat="37.113805" lon="-3.449942">
        <ele>1849</ele>
        <time>2018-07-14T13:26:59.004Z</time>
      </trkpt>
      <trkpt lat="37.113621" lon="-3.449609">
        <ele>1853</ele>
        <time>2018-07-14T13:27:11.001Z</time>
      </trkpt>
      <trkpt lat="37.113553" lon="-3.449512">
        <ele>1850.12800163842</ele>
        <time>2018-07-14T13:27:19.012Z</time>
      </trkpt>
      <trkpt lat="37.113498" lon="-3.449337">
        <ele>1853.86900312324</ele>
        <time>2018-07-14T13:27:31.009Z</time>
      </trkpt>
      <trkpt lat="37.113484" lon="-3.449171">
        <ele>1860.72802211868</ele>
        <time>2018-07-14T13:27:51.004Z</time>
      </trkpt>
      <trkpt lat="37.113438" lon="-3.44903">
        <ele>1865</ele>
        <time>2018-07-14T13:28:03.008Z</time>
      </trkpt>
      <trkpt lat="37.113381" lon="-3.448889">
        <ele>1866.14100299516</ele>
        <time>2018-07-14T13:28:11.999Z</time>
      </trkpt>
      <trkpt lat="37.113331" lon="-3.448765">
        <ele>1865</ele>
        <time>2018-07-14T13:28:20.008Z</time>
      </trkpt>
      <trkpt lat="37.113339" lon="-3.448635">
        <ele>1864</ele>
        <time>2018-07-14T13:28:28.007Z</time>
      </trkpt>
      <trkpt lat="37.113332" lon="-3.448462">
        <ele>1864.12828402979</ele>
        <time>2018-07-14T13:28:40.013Z</time>
      </trkpt>
      <trkpt lat="37.113298" lon="-3.448301">
        <ele>1864</ele>
        <time>2018-07-14T13:28:50.008Z</time>
      </trkpt>
      <trkpt lat="37.113275" lon="-3.448121">
        <ele>1862</ele>
        <time>2018-07-14T13:28:58.009Z</time>
      </trkpt>
      <trkpt lat="37.113279" lon="-3.448067">
        <ele>0</ele>
        <time>2018-07-14T13:29:01.004Z</time>
      </trkpt>
      <trkpt lat="37.131083" lon="-3.440740">
        <ele>1760.096</ele>
        <time>2018-07-14T14:58:28Z</time>
      </trkpt>
      <trkpt lat="37.131060" lon="-3.440817">
        <ele>1760.031</ele>
        <time>2018-07-14T14:58:32Z</time>
      </trkpt>
      <trkpt lat="37.131032" lon="-3.440875">
        <ele>1760.024</ele>
        <time>2018-07-14T14:58:35Z</time>
      </trkpt>
      <trkpt lat="37.131000" lon="-3.440940">
        <ele>1760.008</ele>
        <time>2018-07-14T14:58:39Z</time>
      </trkpt>
      <trkpt lat="37.130972" lon="-3.440994">
        <ele>1760.091</ele>
        <time>2018-07-14T14:58:43Z</time>
      </trkpt>
      <trkpt lat="37.130357" lon="-3.442383">
        <ele>1760.045</ele>
        <time>2018-07-14T15:00:06Z</time>
      </trkpt>
      <trkpt lat="37.130312" lon="-3.442406">
        <ele>1760.014</ele>
        <time>2018-07-14T15:00:11Z</time>
      </trkpt>
      <trkpt lat="37.130278" lon="-3.442455">
        <ele>1760.027</ele>
        <time>2018-07-14T15:00:15Z</time>
      </trkpt>
      <trkpt lat="37.125222" lon="-3.445989">
        <ele>1760.026</ele>
        <time>2018-07-14T15:10:31Z</time>
      </trkpt>
      <trkpt lat="37.125221" lon="-3.446058">
        <ele>1760.043</ele>
        <time>2018-07-14T15:10:40Z</time>
      </trkpt>
      <trkpt lat="37.125200" lon="-3.446121">
        <ele>1760.096</ele>
        <time>2018-07-14T15:10:45Z</time>
      </trkpt>
      <trkpt lat="37.125165" lon="-3.446179">
        <ele>1760.083</ele>
        <time>2018-07-14T15:10:50Z</time>
      </trkpt>
      <trkpt lat="37.125130" lon="-3.446231">
        <ele>1760.057</ele>
        <time>2018-07-14T15:10:54Z</time>
      </trkpt>
      <trkpt lat="37.125105" lon="-3.446279">
        <ele>1760.000</ele>
        <time>2018-07-14T15:10:57Z</time>
      </trkpt>
      <trkpt lat="37.125076" lon="-3.446335">
        <ele>1760.020</ele>
        <time>2018-07-14T15:11:01Z</time>
      </trkpt>
      <trkpt lat="37.125052" lon="-3.446386">
        <ele>1755.908</ele>
        <time>2018-07-14T15:11:05Z</time>
      </trkpt>
      <trkpt lat="37.125025" lon="-3.446437">
        <ele>1760.837</ele>
        <time>2018-07-14T15:11:09Z</time>
      </trkpt>
      <trkpt lat="37.119503" lon="-3.447540">
        <ele>1807.761</ele>
        <time>2018-07-14T15:19:31Z</time>
      </trkpt>
      <trkpt lat="37.119513" lon="-3.447597">
        <ele>1805.680</ele>
        <time>2018-07-14T15:19:35Z</time>
      </trkpt>
      <trkpt lat="37.119482" lon="-3.447651">
        <ele>1804.293</ele>
        <time>2018-07-14T15:19:40Z</time>
      </trkpt>
      <trkpt lat="37.118899" lon="-3.448224">
        <ele>1817.642</ele>
        <time>2018-07-14T15:20:31Z</time>
      </trkpt>
      <trkpt lat="37.113501" lon="-3.449639">
        <ele>1849.419</ele>
        <time>2018-07-14T15:27:20Z</time>
      </trkpt>
      <trkpt lat="37.113498" lon="-3.449573">
        <ele>1847.052</ele>
        <time>2018-07-14T15:27:22Z</time>
      </trkpt>
      <trkpt lat="37.113498" lon="-3.449573">
        <ele>1847.099</ele>
        <time>2018-07-14T15:27:22Z</time>
      </trkpt>
      <trkpt lat="37.113487" lon="-3.449506">
        <ele>1845.184</ele>
        <time>2018-07-14T15:27:25Z</time>
      </trkpt>
      <trkpt lat="37.113440" lon="-3.449493">
        <ele>1840.407</ele>
        <time>2018-07-14T15:27:35Z</time>
      </trkpt>
      <trkpt lat="37.113440" lon="-3.449493">
        <ele>1840.417</ele>
        <time>2018-07-14T15:27:35Z</time>
      </trkpt>
      <trkpt lat="37.113406" lon="-3.449442">
        <ele>1841.908</ele>
        <time>2018-07-14T15:27:38Z</time>
      </trkpt>
      <trkpt lat="37.113312" lon="-3.448976">
        <ele>1841.780</ele>
        <time>2018-07-14T15:28:07Z</time>
      </trkpt>
      <trkpt lat="37.113312" lon="-3.448976">
        <ele>1841.754</ele>
        <time>2018-07-14T15:28:07Z</time>
      </trkpt>
      <trkpt lat="37.113312" lon="-3.448976">
        <ele>1841.743</ele>
        <time>2018-07-14T15:28:07Z</time>
      </trkpt>
      <trkpt lat="37.113312" lon="-3.448976">
        <ele>1841.796</ele>
        <time>2018-07-14T15:28:07Z</time>
      </trkpt>
      <trkpt lat="37.113312" lon="-3.448976">
        <ele>1841.795</ele>
        <time>2018-07-14T15:28:07Z</time>
      </trkpt>
      <trkpt lat="37.113312" lon="-3.448976">
        <ele>1841.792</ele>
        <time>2018-07-14T15:28:07Z</time>
      </trkpt>
      <trkpt lat="37.113312" lon="-3.448976">
        <ele>1841.775</ele>
        <time>2018-07-14T15:28:07Z</time>
      </trkpt>
      <trkpt lat="37.113312" lon="-3.448976">
        <ele>1841.752</ele>
        <time>2018-07-14T15:28:07Z</time>
      </trkpt>
      <trkpt lat="37.113312" lon="-3.448976">
        <ele>1841.793</ele>
        <time>2018-07-14T15:28:07Z</time>
      </trkpt>
      <trkpt lat="37.113312" lon="-3.448976">
        <ele>1841.765</ele>
        <time>2018-07-14T15:28:07Z</time>
      </trkpt>
      <trkpt lat="37.113312" lon="-3.448976">
        <ele>1841.721</ele>
        <time>2018-07-14T15:28:07Z</time>
      </trkpt>
      <trkpt lat="37.113312" lon="-3.448976">
        <ele>1841.708</ele>
        <time>2018-07-14T15:28:07Z</time>
      </trkpt>
      <trkpt lat="37.113312" lon="-3.448976">
        <ele>1841.711</ele>
        <time>2018-07-14T15:28:07Z</time>
      </trkpt>
      <trkpt lat="37.113312" lon="-3.448976">
        <ele>1841.795</ele>
        <time>2018-07-14T15:28:07Z</time>
      </trkpt>
      <trkpt lat="37.113312" lon="-3.448976">
        <ele>1841.764</ele>
        <time>2018-07-14T15:28:07Z</time>
      </trkpt>
      <trkpt lat="37.113312" lon="-3.448976">
        <ele>1841.777</ele>
        <time>2018-07-14T15:28:07Z</time>
      </trkpt>
      <trkpt lat="37.113312" lon="-3.448976">
        <ele>1841.746</ele>
        <time>2018-07-14T15:28:07Z</time>
      </trkpt>
      <trkpt lat="37.113312" lon="-3.448976">
        <ele>1841.783</ele>
        <time>2018-07-14T15:28:07Z</time>
      </trkpt>
      <trkpt lat="37.113312" lon="-3.448976">
        <ele>1841.766</ele>
        <time>2018-07-14T15:28:07Z</time>
      </trkpt>
      <trkpt lat="37.113312" lon="-3.448976">
        <ele>1841.763</ele>
        <time>2018-07-14T15:28:07Z</time>
      </trkpt>
      <trkpt lat="37.113312" lon="-3.448976">
        <ele>1841.769</ele>
        <time>2018-07-14T15:28:07Z</time>
      </trkpt>
      <trkpt lat="37.113312" lon="-3.448976">
        <ele>1841.704</ele>
        <time>2018-07-14T15:28:07Z</time>
      </trkpt>
      <trkpt lat="37.113312" lon="-3.448976">
        <ele>1841.724</ele>
        <time>2018-07-14T15:28:07Z</time>
      </trkpt>
      <trkpt lat="37.113312" lon="-3.448976">
        <ele>1841.708</ele>
        <time>2018-07-14T15:28:07Z</time>
      </trkpt>
      <trkpt lat="37.113312" lon="-3.448976">
        <ele>1841.718</ele>
        <time>2018-07-14T15:28:07Z</time>
      </trkpt>
      <trkpt lat="37.113312" lon="-3.448976">
        <ele>1841.732</ele>
        <time>2018-07-14T15:28:07Z</time>
      </trkpt>
      <trkpt lat="37.113195" lon="-3.448635">
        <ele>1851.241</ele>
        <time>2018-07-14T15:28:27Z</time>
      </trkpt>
      <trkpt lat="37.113199" lon="-3.448575">
        <ele>1849.764</ele>
        <time>2018-07-14T15:28:29Z</time>
      </trkpt>
      <trkpt lat="37.113220" lon="-3.448474">
        <ele>1846.773</ele>
        <time>2018-07-14T15:28:35Z</time>
      </trkpt>
      <trkpt lat="37.113220" lon="-3.448474">
        <ele>1846.720</ele>
        <time>2018-07-14T15:28:35Z</time>
      </trkpt>
      <trkpt lat="37.113220" lon="-3.448474">
        <ele>1846.763</ele>
        <time>2018-07-14T15:28:35Z</time>
      </trkpt>
      <trkpt lat="37.113220" lon="-3.448474">
        <ele>1846.780</ele>
        <time>2018-07-14T15:28:35Z</time>
      </trkpt>
      <trkpt lat="37.113220" lon="-3.448474">
        <ele>1846.793</ele>
        <time>2018-07-14T15:28:35Z</time>
      </trkpt>
      <trkpt lat="37.113220" lon="-3.448474">
        <ele>1846.765</ele>
        <time>2018-07-14T15:28:35Z</time>
      </trkpt>
      <trkpt lat="37.113223" lon="-3.448412">
        <ele>1846.421</ele>
        <time>2018-07-14T15:28:39Z</time>
      </trkpt>
      <trkpt lat="37.113227" lon="-3.448340">
        <ele>1846.208</ele>
        <time>2018-07-14T15:28:44Z</time>
      </trkpt>
      <trkpt lat="37.113238" lon="-3.448269">
        <ele>1847.231</ele>
        <time>2018-07-14T15:28:48Z</time>
      </trkpt>
      <trkpt lat="37.114025" lon="-3.445360">
        <ele>1862.085</ele>
        <time>2018-07-14T15:31:23Z</time>
      </trkpt>
      <trkpt lat="37.114050" lon="-3.445308">
        <ele>1860.894</ele>
        <time>2018-07-14T15:31:25Z</time>
      </trkpt>
      <trkpt lat="37.114062" lon="-3.445244">
        <ele>1859.187</ele>
        <time>2018-07-14T15:31:27Z</time>
      </trkpt>
      <trkpt lat="37.114072" lon="-3.445183">
        <ele>1858.026</ele>
        <time>2018-07-14T15:31:30Z</time>
      </trkpt>
      <trkpt lat="37.114063" lon="-3.445118">
        <ele>1857.413</ele>
        <time>2018-07-14T15:31:34Z</time>
      </trkpt>
      <trkpt lat="37.114372" lon="-3.441247">
        <ele>1876.346</ele>
        <time>2018-07-14T15:34:46Z</time>
      </trkpt>
      <trkpt lat="37.114405" lon="-3.441207">
        <ele>1873.063</ele>
        <time>2018-07-14T15:34:48Z</time>
      </trkpt>
      <trkpt lat="37.114435" lon="-3.441151">
        <ele>1873.985</ele>
        <time>2018-07-14T15:34:51Z</time>
      </trkpt>
      <trkpt lat="37.114439" lon="-3.441092">
        <ele>1873.989</ele>
        <time>2018-07-14T15:34:55Z</time>
      </trkpt>
      <trkpt lat="37.114429" lon="-3.441030">
        <ele>1873.617</ele>
        <time>2018-07-14T15:34:59Z</time>
      </trkpt>
      <trkpt lat="37.114416" lon="-3.440962">
        <ele>1872.608</ele>
        <time>2018-07-14T15:35:03Z</time>
      </trkpt>
      <trkpt lat="37.111898" lon="-3.432448">
        <ele>1922.010</ele>
        <time>2018-07-14T15:44:05Z</time>
      </trkpt>
      <trkpt lat="37.111926" lon="-3.432388">
        <ele>1921.034</ele>
        <time>2018-07-14T15:44:08Z</time>
      </trkpt>
      <trkpt lat="37.111941" lon="-3.432333">
        <ele>1920.633</ele>
        <time>2018-07-14T15:44:10Z</time>
      </trkpt>
      <trkpt lat="37.111958" lon="-3.432266">
        <ele>1919.626</ele>
        <time>2018-07-14T15:44:13Z</time>
      </trkpt>
      <trkpt lat="37.111966" lon="-3.431462">
        <ele>1930.595</ele>
        <time>2018-07-14T15:44:59Z</time>
      </trkpt>
      <trkpt lat="37.111960" lon="-3.431393">
        <ele>1928.292</ele>
        <time>2018-07-14T15:45:01Z</time>
      </trkpt>
      <trkpt lat="37.111941" lon="-3.431323">
        <ele>1925.875</ele>
        <time>2018-07-14T15:45:05Z</time>
      </trkpt>
      <trkpt lat="37.111919" lon="-3.431259">
        <ele>1923.512</ele>
        <time>2018-07-14T15:45:09Z</time>
      </trkpt>
      <trkpt lat="37.111891" lon="-3.431200">
        <ele>1924.214</ele>
        <time>2018-07-14T15:45:13Z</time>
      </trkpt>
      <trkpt lat="37.111863" lon="-3.431153">
        <ele>1924.054</ele>
        <time>2018-07-14T15:45:16Z</time>
      </trkpt>
      <trkpt lat="37.111829" lon="-3.431094">
        <ele>1923.709</ele>
        <time>2018-07-14T15:45:20Z</time>
      </trkpt>
      <trkpt lat="37.111799" lon="-3.431044">
        <ele>1923.208</ele>
        <time>2018-07-14T15:45:24Z</time>
      </trkpt>
      <trkpt lat="37.111765" lon="-3.431002">
        <ele>1922.143</ele>
        <time>2018-07-14T15:45:27Z</time>
      </trkpt>
      <trkpt lat="37.107464" lon="-3.423544">
        <ele>2015.197</ele>
        <time>2018-07-14T16:00:40Z</time>
      </trkpt>
      <trkpt lat="37.107419" lon="-3.423566">
        <ele>2013.346</ele>
        <time>2018-07-14T16:00:43Z</time>
      </trkpt>
      <trkpt lat="37.108757" lon="-3.423964">
        <ele>2039.049</ele>
        <time>2018-07-14T16:04:11Z</time>
      </trkpt>
      <trkpt lat="37.108717" lon="-3.424004">
        <ele>2038.078</ele>
        <time>2018-07-14T16:04:14Z</time>
      </trkpt>
      <trkpt lat="37.108654" lon="-3.424010">
        <ele>2038.725</ele>
        <time>2018-07-14T16:04:17Z</time>
      </trkpt>
      <trkpt lat="37.108654" lon="-3.424010">
        <ele>2038.768</ele>
        <time>2018-07-14T16:04:17Z</time>
      </trkpt>
      <trkpt lat="37.108654" lon="-3.424010">
        <ele>2038.725</ele>
        <time>2018-07-14T16:04:17Z</time>
      </trkpt>
      <trkpt lat="37.108662" lon="-3.423937">
        <ele>2033.172</ele>
        <time>2018-07-14T16:04:22Z</time>
      </trkpt>
      <trkpt lat="37.106229" lon="-3.415390">
        <ele>2089.013</ele>
        <time>2018-07-14T16:13:18Z</time>
      </trkpt>
      <trkpt lat="37.105524" lon="-3.411411">
        <ele>2119.314</ele>
        <time>2018-07-14T16:19:41Z</time>
      </trkpt>
      <trkpt lat="37.105517" lon="-3.411342">
        <ele>2115.508</ele>
        <time>2018-07-14T16:19:45Z</time>
      </trkpt>
      <trkpt lat="37.099836" lon="-3.408780">
        <ele>2115.379</ele>
        <time>2018-07-14T16:26:39Z</time>
      </trkpt>
      <trkpt lat="37.099836" lon="-3.408713">
        <ele>2113.413</ele>
        <time>2018-07-14T16:26:43Z</time>
      </trkpt>
      <trkpt lat="37.099819" lon="-3.408651">
        <ele>2110.982</ele>
        <time>2018-07-14T16:26:47Z</time>
      </trkpt>
      <trkpt lat="37.099794" lon="-3.408600">
        <ele>2109.255</ele>
        <time>2018-07-14T16:26:51Z</time>
      </trkpt>
      <trkpt lat="37.099752" lon="-3.408546">
        <ele>2109.344</ele>
        <time>2018-07-14T16:26:55Z</time>
      </trkpt>
      <trkpt lat="37.099724" lon="-3.408490">
        <ele>2107.951</ele>
        <time>2018-07-14T16:27:00Z</time>
      </trkpt>
      <trkpt lat="37.099724" lon="-3.408421">
        <ele>2107.014</ele>
        <time>2018-07-14T16:27:05Z</time>
      </trkpt>
      <trkpt lat="37.099743" lon="-3.408354">
        <ele>2107.331</ele>
        <time>2018-07-14T16:27:09Z</time>
      </trkpt>
      <trkpt lat="37.097511" lon="-3.402065">
        <ele>2117.059</ele>
        <time>2018-07-14T16:31:53Z</time>
      </trkpt>
      <trkpt lat="37.097503" lon="-3.402003">
        <ele>2114.603</ele>
        <time>2018-07-14T16:31:56Z</time>
      </trkpt>
      <trkpt lat="37.097462" lon="-3.401974">
        <ele>2106.923</ele>
        <time>2018-07-14T16:32:01Z</time>
      </trkpt>
      <trkpt lat="37.097422" lon="-3.401948">
        <ele>2092.008</ele>
        <time>2018-07-14T16:32:05Z</time>
      </trkpt>
      <trkpt lat="37.097388" lon="-3.401901">
        <ele>2090.467</ele>
        <time>2018-07-14T16:32:08Z</time>
      </trkpt>
      <trkpt lat="37.097358" lon="-3.401843">
        <ele>2089.951</ele>
        <time>2018-07-14T16:32:11Z</time>
      </trkpt>
      <trkpt lat="37.097320" lon="-3.401790">
        <ele>2088.390</ele>
        <time>2018-07-14T16:32:14Z</time>
      </trkpt>
      <trkpt lat="37.097278" lon="-3.401753">
        <ele>2091.263</ele>
        <time>2018-07-14T16:32:18Z</time>
      </trkpt>
      <trkpt lat="37.097239" lon="-3.401714">
        <ele>2086.012</ele>
        <time>2018-07-14T16:32:22Z</time>
      </trkpt>
      <trkpt lat="37.097196" lon="-3.401669">
        <ele>2084.139</ele>
        <time>2018-07-14T16:32:26Z</time>
      </trkpt>
      <trkpt lat="37.097147" lon="-3.401627">
        <ele>2084.612</ele>
        <time>2018-07-14T16:32:29Z</time>
      </trkpt>
      <trkpt lat="37.097104" lon="-3.401596">
        <ele>2085.399</ele>
        <time>2018-07-14T16:32:32Z</time>
      </trkpt>
      <trkpt lat="37.097060" lon="-3.401566">
        <ele>2084.431</ele>
        <time>2018-07-14T16:32:35Z</time>
      </trkpt>
      <trkpt lat="37.097005" lon="-3.401535">
        <ele>2084.761</ele>
        <time>2018-07-14T16:32:39Z</time>
      </trkpt>
      <trkpt lat="37.096958" lon="-3.401526">
        <ele>2085.407</ele>
        <time>2018-07-14T16:32:43Z</time>
      </trkpt>
      <trkpt lat="37.096911" lon="-3.401512">
        <ele>2087.108</ele>
        <time>2018-07-14T16:32:47Z</time>
      </trkpt>
      <trkpt lat="37.096866" lon="-3.401492">
        <ele>2083.845</ele>
        <time>2018-07-14T16:32:50Z</time>
      </trkpt>
      <trkpt lat="37.096866" lon="-3.401492">
        <ele>2083.849</ele>
        <time>2018-07-14T16:32:50Z</time>
      </trkpt>
      <trkpt lat="37.096866" lon="-3.401492">
        <ele>2083.878</ele>
        <time>2018-07-14T16:32:50Z</time>
      </trkpt>
      <trkpt lat="37.096772" lon="-3.401478">
        <ele>2084.371</ele>
        <time>2018-07-14T16:32:53Z</time>
      </trkpt>
      <trkpt lat="37.096736" lon="-3.401422">
        <ele>2083.670</ele>
        <time>2018-07-14T16:32:58Z</time>
      </trkpt>
      <trkpt lat="37.096692" lon="-3.401379">
        <ele>2087.747</ele>
        <time>2018-07-14T16:33:02Z</time>
      </trkpt>
      <trkpt lat="37.096649" lon="-3.401357">
        <ele>2087.370</ele>
        <time>2018-07-14T16:33:05Z</time>
      </trkpt>
      <trkpt lat="37.096594" lon="-3.401338">
        <ele>2084.267</ele>
        <time>2018-07-14T16:33:08Z</time>
      </trkpt>
      <trkpt lat="37.096543" lon="-3.401335">
        <ele>2089.639</ele>
        <time>2018-07-14T16:33:11Z</time>
      </trkpt>
      <trkpt lat="37.096481" lon="-3.401329">
        <ele>2089.901</ele>
        <time>2018-07-14T16:33:14Z</time>
      </trkpt>
      <trkpt lat="37.096424" lon="-3.401325">
        <ele>2088.621</ele>
        <time>2018-07-14T16:33:17Z</time>
      </trkpt>
      <trkpt lat="37.096368" lon="-3.401346">
        <ele>2091.608</ele>
        <time>2018-07-14T16:33:20Z</time>
      </trkpt>
      <trkpt lat="37.096305" lon="-3.401343">
        <ele>2089.665</ele>
        <time>2018-07-14T16:33:23Z</time>
      </trkpt>
      <trkpt lat="37.096258" lon="-3.401330">
        <ele>2088.289</ele>
        <time>2018-07-14T16:33:25Z</time>
      </trkpt>
      <trkpt lat="37.096210" lon="-3.401312">
        <ele>2095.188</ele>
        <time>2018-07-14T16:33:27Z</time>
      </trkpt>
      <trkpt lat="37.096162" lon="-3.401295">
        <ele>2089.411</ele>
        <time>2018-07-14T16:33:29Z</time>
      </trkpt>
      <trkpt lat="37.096114" lon="-3.401279">
        <ele>2089.860</ele>
        <time>2018-07-14T16:33:31Z</time>
      </trkpt>
      <trkpt lat="37.096066" lon="-3.401262">
        <ele>2097.297</ele>
        <time>2018-07-14T16:33:33Z</time>
      </trkpt>
      <trkpt lat="37.096011" lon="-3.401246">
        <ele>2098.930</ele>
        <time>2018-07-14T16:33:35Z</time>
      </trkpt>
      <trkpt lat="37.095950" lon="-3.401231">
        <ele>2097.037</ele>
        <time>2018-07-14T16:33:37Z</time>
      </trkpt>
      <trkpt lat="37.095895" lon="-3.401223">
        <ele>2090.086</ele>
        <time>2018-07-14T16:33:39Z</time>
      </trkpt>
      <trkpt lat="37.095849" lon="-3.401210">
        <ele>2093.560</ele>
        <time>2018-07-14T16:33:41Z</time>
      </trkpt>
      <trkpt lat="37.095799" lon="-3.401193">
        <ele>2097.326</ele>
        <time>2018-07-14T16:33:43Z</time>
      </trkpt>
      <trkpt lat="37.095745" lon="-3.401167">
        <ele>2093.908</ele>
        <time>2018-07-14T16:33:45Z</time>
      </trkpt>
      <trkpt lat="37.095687" lon="-3.401142">
        <ele>2092.610</ele>
        <time>2018-07-14T16:33:47Z</time>
      </trkpt>
      <trkpt lat="37.095636" lon="-3.401122">
        <ele>2094.264</ele>
        <time>2018-07-14T16:33:49Z</time>
      </trkpt>
      <trkpt lat="37.095590" lon="-3.401097">
        <ele>2100.793</ele>
        <time>2018-07-14T16:33:52Z</time>
      </trkpt>
      <trkpt lat="37.095529" lon="-3.401067">
        <ele>2095.826</ele>
        <time>2018-07-14T16:33:55Z</time>
      </trkpt>
      <trkpt lat="37.095472" lon="-3.401040">
        <ele>2097.445</ele>
        <time>2018-07-14T16:33:57Z</time>
      </trkpt>
      <trkpt lat="37.095421" lon="-3.401014">
        <ele>2092.972</ele>
        <time>2018-07-14T16:33:59Z</time>
      </trkpt>
      <trkpt lat="37.095377" lon="-3.400978">
        <ele>2096.175</ele>
        <time>2018-07-14T16:34:01Z</time>
      </trkpt>
      <trkpt lat="37.095337" lon="-3.400945">
        <ele>2091.082</ele>
        <time>2018-07-14T16:34:03Z</time>
      </trkpt>
      <trkpt lat="37.095277" lon="-3.400934">
        <ele>2087.622</ele>
        <time>2018-07-14T16:34:05Z</time>
      </trkpt>
      <trkpt lat="37.095220" lon="-3.400952">
        <ele>2091.562</ele>
        <time>2018-07-14T16:34:07Z</time>
      </trkpt>
      <trkpt lat="37.095170" lon="-3.400978">
        <ele>2096.808</ele>
        <time>2018-07-14T16:34:09Z</time>
      </trkpt>
      <trkpt lat="37.095116" lon="-3.401005">
        <ele>2089.608</ele>
        <time>2018-07-14T16:34:11Z</time>
      </trkpt>
      <trkpt lat="37.095060" lon="-3.401041">
        <ele>2091.514</ele>
        <time>2018-07-14T16:34:13Z</time>
      </trkpt>
      <trkpt lat="37.095012" lon="-3.401068">
        <ele>2093.578</ele>
        <time>2018-07-14T16:34:15Z</time>
      </trkpt>
      <trkpt lat="37.094963" lon="-3.401082">
        <ele>2099.697</ele>
        <time>2018-07-14T16:34:17Z</time>
      </trkpt>
      <trkpt lat="37.094913" lon="-3.401099">
        <ele>2095.590</ele>
        <time>2018-07-14T16:34:19Z</time>
      </trkpt>
      <trkpt lat="37.094858" lon="-3.401111">
        <ele>2091.519</ele>
        <time>2018-07-14T16:34:21Z</time>
      </trkpt>
      <trkpt lat="37.094801" lon="-3.401137">
        <ele>2096.666</ele>
        <time>2018-07-14T16:34:23Z</time>
      </trkpt>
      <trkpt lat="37.094733" lon="-3.401150">
        <ele>2096.419</ele>
        <time>2018-07-14T16:34:25Z</time>
      </trkpt>
      <trkpt lat="37.094674" lon="-3.401169">
        <ele>2095.666</ele>
        <time>2018-07-14T16:34:27Z</time>
      </trkpt>
      <trkpt lat="37.094619" lon="-3.401190">
        <ele>2089.865</ele>
        <time>2018-07-14T16:34:29Z</time>
      </trkpt>
      <trkpt lat="37.094571" lon="-3.401210">
        <ele>2098.268</ele>
        <time>2018-07-14T16:34:31Z</time>
      </trkpt>
      <trkpt lat="37.094508" lon="-3.401212">
        <ele>2095.314</ele>
        <time>2018-07-14T16:34:34Z</time>
      </trkpt>
      <trkpt lat="37.094445" lon="-3.401194">
        <ele>2096.008</ele>
        <time>2018-07-14T16:34:36Z</time>
      </trkpt>
      <trkpt lat="37.094380" lon="-3.401195">
        <ele>2097.998</ele>
        <time>2018-07-14T16:34:38Z</time>
      </trkpt>
      <trkpt lat="37.094325" lon="-3.401216">
        <ele>2101.352</ele>
        <time>2018-07-14T16:34:40Z</time>
      </trkpt>
      <trkpt lat="37.094280" lon="-3.401229">
        <ele>2096.461</ele>
        <time>2018-07-14T16:34:43Z</time>
      </trkpt>
      <trkpt lat="37.094230" lon="-3.401215">
        <ele>2095.054</ele>
        <time>2018-07-14T16:34:47Z</time>
      </trkpt>
      <trkpt lat="37.094184" lon="-3.401203">
        <ele>2096.173</ele>
        <time>2018-07-14T16:34:52Z</time>
      </trkpt>
      <trkpt lat="37.094137" lon="-3.401188">
        <ele>2098.070</ele>
        <time>2018-07-14T16:34:56Z</time>
      </trkpt>
      <trkpt lat="37.094116" lon="-3.401135">
        <ele>2099.283</ele>
        <time>2018-07-14T16:35:01Z</time>
      </trkpt>
      <trkpt lat="37.094081" lon="-3.401092">
        <ele>2095.810</ele>
        <time>2018-07-14T16:35:03Z</time>
      </trkpt>
      <trkpt lat="37.094029" lon="-3.401052">
        <ele>2098.021</ele>
        <time>2018-07-14T16:35:05Z</time>
      </trkpt>
      <trkpt lat="37.093969" lon="-3.401012">
        <ele>2097.141</ele>
        <time>2018-07-14T16:35:07Z</time>
      </trkpt>
      <trkpt lat="37.093914" lon="-3.400971">
        <ele>2098.105</ele>
        <time>2018-07-14T16:35:09Z</time>
      </trkpt>
      <trkpt lat="37.093862" lon="-3.400960">
        <ele>2094.508</ele>
        <time>2018-07-14T16:35:11Z</time>
      </trkpt>
      <trkpt lat="37.093805" lon="-3.400966">
        <ele>2095.914</ele>
        <time>2018-07-14T16:35:13Z</time>
      </trkpt>
      <trkpt lat="37.093739" lon="-3.400981">
        <ele>2098.948</ele>
        <time>2018-07-14T16:35:16Z</time>
      </trkpt>
      <trkpt lat="37.093678" lon="-3.400980">
        <ele>2095.367</ele>
        <time>2018-07-14T16:35:18Z</time>
      </trkpt>
      <trkpt lat="37.093632" lon="-3.400958">
        <ele>2095.510</ele>
        <time>2018-07-14T16:35:20Z</time>
      </trkpt>
      <trkpt lat="37.093584" lon="-3.400935">
        <ele>2100.929</ele>
        <time>2018-07-14T16:35:22Z</time>
      </trkpt>
      <trkpt lat="37.093534" lon="-3.400941">
        <ele>2098.466</ele>
        <time>2018-07-14T16:35:24Z</time>
      </trkpt>
      <trkpt lat="37.093483" lon="-3.400937">
        <ele>2094.479</ele>
        <time>2018-07-14T16:35:26Z</time>
      </trkpt>
      <trkpt lat="37.093431" lon="-3.400927">
        <ele>2091.936</ele>
        <time>2018-07-14T16:35:28Z</time>
      </trkpt>
      <trkpt lat="37.093377" lon="-3.400914">
        <ele>2098.714</ele>
        <time>2018-07-14T16:35:30Z</time>
      </trkpt>
      <trkpt lat="37.093329" lon="-3.400904">
        <ele>2096.854</ele>
        <time>2018-07-14T16:35:32Z</time>
      </trkpt>
      <trkpt lat="37.093265" lon="-3.400910">
        <ele>2098.709</ele>
        <time>2018-07-14T16:35:35Z</time>
      </trkpt>
      <trkpt lat="37.093197" lon="-3.400907">
        <ele>2101.208</ele>
        <time>2018-07-14T16:35:38Z</time>
      </trkpt>
      <trkpt lat="37.093151" lon="-3.400866">
        <ele>2101.333</ele>
        <time>2018-07-14T16:35:41Z</time>
      </trkpt>
      <trkpt lat="37.093125" lon="-3.400819">
        <ele>2095.767</ele>
        <time>2018-07-14T16:35:43Z</time>
      </trkpt>
      <trkpt lat="37.093080" lon="-3.400752">
        <ele>2097.946</ele>
        <time>2018-07-14T16:35:46Z</time>
      </trkpt>
      <trkpt lat="37.093029" lon="-3.400689">
        <ele>2099.889</ele>
        <time>2018-07-14T16:35:49Z</time>
      </trkpt>
      <trkpt lat="37.092989" lon="-3.400629">
        <ele>2098.538</ele>
        <time>2018-07-14T16:35:52Z</time>
      </trkpt>
      <trkpt lat="37.092951" lon="-3.400585">
        <ele>2097.125</ele>
        <time>2018-07-14T16:35:54Z</time>
      </trkpt>
      <trkpt lat="37.092907" lon="-3.400533">
        <ele>2099.428</ele>
        <time>2018-07-14T16:35:56Z</time>
      </trkpt>
      <trkpt lat="37.092878" lon="-3.400484">
        <ele>2102.785</ele>
        <time>2018-07-14T16:35:58Z</time>
      </trkpt>
      <trkpt lat="37.092852" lon="-3.400438">
        <ele>2103.022</ele>
        <time>2018-07-14T16:36:00Z</time>
      </trkpt>
      <trkpt lat="37.092812" lon="-3.400404">
        <ele>2096.462</ele>
        <time>2018-07-14T16:36:02Z</time>
      </trkpt>
      <trkpt lat="37.092767" lon="-3.400371">
        <ele>2104.208</ele>
        <time>2018-07-14T16:36:05Z</time>
      </trkpt>
      <trkpt lat="37.092720" lon="-3.400339">
        <ele>2104.308</ele>
        <time>2018-07-14T16:36:08Z</time>
      </trkpt>
      <trkpt lat="37.092670" lon="-3.400311">
        <ele>2099.214</ele>
        <time>2018-07-14T16:36:11Z</time>
      </trkpt>
      <trkpt lat="37.092614" lon="-3.400282">
        <ele>2105.778</ele>
        <time>2018-07-14T16:36:15Z</time>
      </trkpt>
      <trkpt lat="37.092577" lon="-3.400238">
        <ele>2104.297</ele>
        <time>2018-07-14T16:36:19Z</time>
      </trkpt>
      <trkpt lat="37.092575" lon="-3.400179">
        <ele>2102.720</ele>
        <time>2018-07-14T16:36:23Z</time>
      </trkpt>
      <trkpt lat="37.092578" lon="-3.400120">
        <ele>2100.319</ele>
        <time>2018-07-14T16:36:26Z</time>
      </trkpt>
      <trkpt lat="37.092562" lon="-3.400052">
        <ele>2102.916</ele>
        <time>2018-07-14T16:36:31Z</time>
      </trkpt>
      <trkpt lat="37.092574" lon="-3.399977">
        <ele>2106.899</ele>
        <time>2018-07-14T16:36:35Z</time>
      </trkpt>
      <trkpt lat="37.092579" lon="-3.399910">
        <ele>2104.056</ele>
        <time>2018-07-14T16:36:38Z</time>
      </trkpt>
      <trkpt lat="37.092556" lon="-3.399842">
        <ele>2104.654</ele>
        <time>2018-07-14T16:36:42Z</time>
      </trkpt>
      <trkpt lat="37.092532" lon="-3.399771">
        <ele>2099.656</ele>
        <time>2018-07-14T16:36:45Z</time>
      </trkpt>
      <trkpt lat="37.092507" lon="-3.399708">
        <ele>2100.711</ele>
        <time>2018-07-14T16:36:48Z</time>
      </trkpt>
      <trkpt lat="37.092485" lon="-3.399656">
        <ele>2108.208</ele>
        <time>2018-07-14T16:36:52Z</time>
      </trkpt>
      <trkpt lat="37.092496" lon="-3.399595">
        <ele>2103.467</ele>
        <time>2018-07-14T16:36:56Z</time>
      </trkpt>
      <trkpt lat="37.092532" lon="-3.399551">
        <ele>2106.721</ele>
        <time>2018-07-14T16:36:59Z</time>
      </trkpt>
      <trkpt lat="37.092549" lon="-3.399489">
        <ele>2110.320</ele>
        <time>2018-07-14T16:37:02Z</time>
      </trkpt>
      <trkpt lat="37.092574" lon="-3.399431">
        <ele>2106.023</ele>
        <time>2018-07-14T16:37:04Z</time>
      </trkpt>
      <trkpt lat="37.092590" lon="-3.399360">
        <ele>2105.682</ele>
        <time>2018-07-14T16:37:06Z</time>
      </trkpt>
      <trkpt lat="37.092618" lon="-3.399293">
        <ele>2102.129</ele>
        <time>2018-07-14T16:37:09Z</time>
      </trkpt>
      <trkpt lat="37.092679" lon="-3.399306">
        <ele>2109.082</ele>
        <time>2018-07-14T16:37:13Z</time>
      </trkpt>
      <trkpt lat="37.092714" lon="-3.399366">
        <ele>2101.869</ele>
        <time>2018-07-14T16:37:18Z</time>
      </trkpt>
      <trkpt lat="37.092763" lon="-3.399397">
        <ele>2109.292</ele>
        <time>2018-07-14T16:37:22Z</time>
      </trkpt>
      <trkpt lat="37.092810" lon="-3.399410">
        <ele>2104.773</ele>
        <time>2018-07-14T16:37:27Z</time>
      </trkpt>
      <trkpt lat="37.092862" lon="-3.399445">
        <ele>2113.620</ele>
        <time>2018-07-14T16:37:30Z</time>
      </trkpt>
      <trkpt lat="37.092907" lon="-3.399464">
        <ele>2115.308</ele>
        <time>2018-07-14T16:37:32Z</time>
      </trkpt>
      <trkpt lat="37.092967" lon="-3.399509">
        <ele>2109.341</ele>
        <time>2018-07-14T16:37:34Z</time>
      </trkpt>
      <trkpt lat="37.093027" lon="-3.399549">
        <ele>2109.495</ele>
        <time>2018-07-14T16:37:36Z</time>
      </trkpt>
      <trkpt lat="37.093080" lon="-3.399601">
        <ele>2112.574</ele>
        <time>2018-07-14T16:37:38Z</time>
      </trkpt>
      <trkpt lat="37.093130" lon="-3.399641">
        <ele>2109.487</ele>
        <time>2018-07-14T16:37:40Z</time>
      </trkpt>
      <trkpt lat="37.093184" lon="-3.399669">
        <ele>2110.676</ele>
        <time>2018-07-14T16:37:42Z</time>
      </trkpt>
      <trkpt lat="37.093237" lon="-3.399731">
        <ele>2113.213</ele>
        <time>2018-07-14T16:37:44Z</time>
      </trkpt>
      <trkpt lat="37.093286" lon="-3.399792">
        <ele>2105.316</ele>
        <time>2018-07-14T16:37:46Z</time>
      </trkpt>
      <trkpt lat="37.093323" lon="-3.399837">
        <ele>2104.123</ele>
        <time>2018-07-14T16:37:48Z</time>
      </trkpt>
      <trkpt lat="37.093361" lon="-3.399884">
        <ele>2111.791</ele>
        <time>2018-07-14T16:37:50Z</time>
      </trkpt>
      <trkpt lat="37.093404" lon="-3.399915">
        <ele>2109.781</ele>
        <time>2018-07-14T16:37:52Z</time>
      </trkpt>
      <trkpt lat="37.093463" lon="-3.399963">
        <ele>2107.319</ele>
        <time>2018-07-14T16:37:54Z</time>
      </trkpt>
      <trkpt lat="37.093513" lon="-3.400012">
        <ele>2110.008</ele>
        <time>2018-07-14T16:37:56Z</time>
      </trkpt>
      <trkpt lat="37.093555" lon="-3.400056">
        <ele>2112.151</ele>
        <time>2018-07-14T16:37:58Z</time>
      </trkpt>
      <trkpt lat="37.093597" lon="-3.400097">
        <ele>2106.285</ele>
        <time>2018-07-14T16:38:01Z</time>
      </trkpt>
      <trkpt lat="37.093696" lon="-3.400087">
        <ele>2106.154</ele>
        <time>2018-07-14T16:38:16Z</time>
      </trkpt>
      <trkpt lat="37.093748" lon="-3.400100">
        <ele>2117.627</ele>
        <time>2018-07-14T16:38:39Z</time>
      </trkpt>
      <trkpt lat="37.093749" lon="-3.400100">
        <ele>2115.146</ele>
        <time>2018-07-14T16:38:41Z</time>
      </trkpt>
      <trkpt lat="37.093749" lon="-3.400100">
        <ele>2113.093</ele>
        <time>2018-07-14T16:38:45Z</time>
      </trkpt>
    </trkseg>
  </trk>
</gpx>
